<?xml version='1.0' encoding='UTF-8'?><gpx version="1.1" creator="JPX - https://github.com/jenetics/jpx" xmlns="http://www.topografix.com/GPX/1/1"><trk><trkseg><trkpt lat="45.7217233" lon="9.6046"><ele>267.0</ele><time>2026-05-03T07:35:53.369Z</time></trkpt><trkpt lat="45.7217167" lon="9.6047283"><ele>267.0</ele><time>2026-05-03T07:36:07.37Z</time></trkpt><trkpt lat="45.7217783" lon="9.6048033"><ele>267.0</ele><time>2026-05-03T07:36:10.368Z</time></trkpt><trkpt lat="45.7218483" lon="9.6048517"><ele>267.0</ele><time>2026-05-03T07:36:12.37Z</time></trkpt><trkpt lat="45.7219217" lon="9.604915"><ele>267.0</ele><time>2026-05-03T07:36:14.372Z</time></trkpt><trkpt lat="45.7219967" lon="9.6049633"><ele>267.0</ele><time>2026-05-03T07:36:17.371Z</time></trkpt><trkpt lat="45.7221017" lon="9.60501"><ele>267.0</ele><time>2026-05-03T07:36:19.37Z</time></trkpt><trkpt lat="45.72217" lon="9.6050417"><ele>267.0</ele><time>2026-05-03T07:36:20.369Z</time></trkpt><trkpt lat="45.7222567" lon="9.6050733"><ele>267.0</ele><time>2026-05-03T07:36:22.369Z</time></trkpt><trkpt lat="45.7222967" lon="9.6052417"><ele>267.0</ele><time>2026-05-03T07:36:24.372Z</time></trkpt><trkpt lat="45.7223233" lon="9.6053333"><ele>267.0</ele><time>2026-05-03T07:36:25.37Z</time></trkpt><trkpt lat="45.7223467" lon="9.6054283"><ele>267.0</ele><time>2026-05-03T07:36:26.37Z</time></trkpt><trkpt lat="45.72236" lon="9.6055283"><ele>267.0</ele><time>2026-05-03T07:36:27.372Z</time></trkpt><trkpt lat="45.7223633" lon="9.6056467"><ele>267.0</ele><time>2026-05-03T07:36:28.369Z</time></trkpt><trkpt lat="45.7223383" lon="9.6057733"><ele>267.0</ele><time>2026-05-03T07:36:29.372Z</time></trkpt><trkpt lat="45.722345" lon="9.6058883"><ele>267.0</ele><time>2026-05-03T07:36:30.37Z</time></trkpt><trkpt lat="45.722345" lon="9.6059817"><ele>267.0</ele><time>2026-05-03T07:36:31.372Z</time></trkpt><trkpt lat="45.7223383" lon="9.6061517"><ele>267.0</ele><time>2026-05-03T07:36:33.369Z</time></trkpt><trkpt lat="45.7222283" lon="9.6062333"><ele>266.6</ele><time>2026-05-03T07:36:35.371Z</time></trkpt><trkpt lat="45.7221217" lon="9.60626"><ele>266.2</ele><time>2026-05-03T07:36:37.371Z</time></trkpt><trkpt lat="45.72204" lon="9.6062883"><ele>265.8</ele><time>2026-05-03T07:36:39.373Z</time></trkpt><trkpt lat="45.721975" lon="9.60636"><ele>265.4</ele><time>2026-05-03T07:36:41.369Z</time></trkpt><trkpt lat="45.7219767" lon="9.606535"><ele>265.0</ele><time>2026-05-03T07:36:43.373Z</time></trkpt><trkpt lat="45.72198" lon="9.60663"><ele>265.0</ele><time>2026-05-03T07:36:44.372Z</time></trkpt><trkpt lat="45.7219883" lon="9.6067217"><ele>265.0</ele><time>2026-05-03T07:36:45.373Z</time></trkpt><trkpt lat="45.72204" lon="9.6068567"><ele>265.0</ele><time>2026-05-03T07:36:47.369Z</time></trkpt><trkpt lat="45.7221533" lon="9.6068883"><ele>265.0</ele><time>2026-05-03T07:36:49.372Z</time></trkpt><trkpt lat="45.72222" lon="9.6068967"><ele>265.0</ele><time>2026-05-03T07:36:50.371Z</time></trkpt><trkpt lat="45.7223033" lon="9.6068933"><ele>265.0</ele><time>2026-05-03T07:36:51.369Z</time></trkpt><trkpt lat="45.7223933" lon="9.606895"><ele>265.0</ele><time>2026-05-03T07:36:52.371Z</time></trkpt><trkpt lat="45.7224883" lon="9.606885"><ele>265.0</ele><time>2026-05-03T07:36:53.371Z</time></trkpt><trkpt lat="45.72259" lon="9.6068733"><ele>265.0</ele><time>2026-05-03T07:36:54.372Z</time></trkpt><trkpt lat="45.7227017" lon="9.60684"><ele>265.0</ele><time>2026-05-03T07:36:55.372Z</time></trkpt><trkpt lat="45.7228033" lon="9.6067967"><ele>265.0</ele><time>2026-05-03T07:36:56.373Z</time></trkpt><trkpt lat="45.7229" lon="9.6067383"><ele>266.0</ele><time>2026-05-03T07:36:57.372Z</time></trkpt><trkpt lat="45.723" lon="9.6066733"><ele>267.0</ele><time>2026-05-03T07:36:58.374Z</time></trkpt><trkpt lat="45.7231083" lon="9.6066133"><ele>268.0</ele><time>2026-05-03T07:36:59.371Z</time></trkpt><trkpt lat="45.7232167" lon="9.6065617"><ele>269.0</ele><time>2026-05-03T07:37:00.371Z</time></trkpt><trkpt lat="45.72333" lon="9.6065267"><ele>269.0</ele><time>2026-05-03T07:37:01.372Z</time></trkpt><trkpt lat="45.7234417" lon="9.60648"><ele>269.0</ele><time>2026-05-03T07:37:02.373Z</time></trkpt><trkpt lat="45.7235617" lon="9.6064283"><ele>269.0</ele><time>2026-05-03T07:37:03.371Z</time></trkpt><trkpt lat="45.723685" lon="9.6063633"><ele>269.0</ele><time>2026-05-03T07:37:04.371Z</time></trkpt><trkpt lat="45.7238017" lon="9.6063017"><ele>269.25</ele><time>2026-05-03T07:37:05.372Z</time></trkpt><trkpt lat="45.7239183" lon="9.6062517"><ele>269.5</ele><time>2026-05-03T07:37:06.372Z</time></trkpt><trkpt lat="45.724035" lon="9.6062117"><ele>269.75</ele><time>2026-05-03T07:37:07.372Z</time></trkpt><trkpt lat="45.7241517" lon="9.606185"><ele>270.0</ele><time>2026-05-03T07:37:08.371Z</time></trkpt><trkpt lat="45.724265" lon="9.6061833"><ele>270.0</ele><time>2026-05-03T07:37:09.372Z</time></trkpt><trkpt lat="45.7243783" lon="9.6062"><ele>270.0</ele><time>2026-05-03T07:37:10.373Z</time></trkpt><trkpt lat="45.7244817" lon="9.6062333"><ele>270.0</ele><time>2026-05-03T07:37:11.373Z</time></trkpt><trkpt lat="45.7245783" lon="9.606275"><ele>270.0</ele><time>2026-05-03T07:37:12.374Z</time></trkpt><trkpt lat="45.72467" lon="9.606315"><ele>270.0</ele><time>2026-05-03T07:37:13.372Z</time></trkpt><trkpt lat="45.724745" lon="9.60635"><ele>270.0</ele><time>2026-05-03T07:37:14.372Z</time></trkpt><trkpt lat="45.7248367" lon="9.6064083"><ele>270.0</ele><time>2026-05-03T07:37:16.373Z</time></trkpt><trkpt lat="45.7248583" lon="9.6065467"><ele>270.0</ele><time>2026-05-03T07:37:18.369Z</time></trkpt><trkpt lat="45.7248433" lon="9.60664"><ele>270.0</ele><time>2026-05-03T07:37:19.373Z</time></trkpt><trkpt lat="45.7248067" lon="9.6068033"><ele>270.0</ele><time>2026-05-03T07:37:21.372Z</time></trkpt><trkpt lat="45.724735" lon="9.606965"><ele>270.1666666666667</ele><time>2026-05-03T07:37:23.371Z</time></trkpt><trkpt lat="45.724695" lon="9.6070517"><ele>270.3333333333333</ele><time>2026-05-03T07:37:24.374Z</time></trkpt><trkpt lat="45.724685" lon="9.607205"><ele>270.5</ele><time>2026-05-03T07:37:26.372Z</time></trkpt><trkpt lat="45.7247533" lon="9.60725"><ele>270.66666666666663</ele><time>2026-05-03T07:37:28.373Z</time></trkpt><trkpt lat="45.7248367" lon="9.60714"><ele>270.8333333333333</ele><time>2026-05-03T07:37:30.373Z</time></trkpt><trkpt lat="45.724895" lon="9.6070767"><ele>271.0</ele><time>2026-05-03T07:37:31.372Z</time></trkpt><trkpt lat="45.7249733" lon="9.6070283"><ele>271.0</ele><time>2026-05-03T07:37:32.374Z</time></trkpt><trkpt lat="45.7250517" lon="9.6069983"><ele>271.0</ele><time>2026-05-03T07:37:33.372Z</time></trkpt><trkpt lat="45.7251433" lon="9.606985"><ele>271.0</ele><time>2026-05-03T07:37:34.375Z</time></trkpt><trkpt lat="45.7252467" lon="9.60699"><ele>271.0</ele><time>2026-05-03T07:37:35.372Z</time></trkpt><trkpt lat="45.725355" lon="9.6070033"><ele>271.0</ele><time>2026-05-03T07:37:36.372Z</time></trkpt><trkpt lat="45.7254633" lon="9.6070167"><ele>271.0</ele><time>2026-05-03T07:37:37.372Z</time></trkpt><trkpt lat="45.7255667" lon="9.6070317"><ele>271.0</ele><time>2026-05-03T07:37:38.374Z</time></trkpt><trkpt lat="45.7256683" lon="9.6070467"><ele>271.0</ele><time>2026-05-03T07:37:39.373Z</time></trkpt><trkpt lat="45.72577" lon="9.6070633"><ele>271.0</ele><time>2026-05-03T07:37:40.373Z</time></trkpt><trkpt lat="45.7258683" lon="9.6070817"><ele>271.0</ele><time>2026-05-03T07:37:41.375Z</time></trkpt><trkpt lat="45.7259633" lon="9.6071033"><ele>271.0</ele><time>2026-05-03T07:37:42.374Z</time></trkpt><trkpt lat="45.726055" lon="9.607125"><ele>271.0</ele><time>2026-05-03T07:37:43.372Z</time></trkpt><trkpt lat="45.7261367" lon="9.607135"><ele>271.0</ele><time>2026-05-03T07:37:44.374Z</time></trkpt><trkpt lat="45.7262117" lon="9.6071467"><ele>271.0</ele><time>2026-05-03T07:37:45.374Z</time></trkpt><trkpt lat="45.7262867" lon="9.607155"><ele>271.0</ele><time>2026-05-03T07:37:46.373Z</time></trkpt><trkpt lat="45.7263583" lon="9.607165"><ele>271.0</ele><time>2026-05-03T07:37:47.374Z</time></trkpt><trkpt lat="45.7264317" lon="9.6071683"><ele>271.16666666666663</ele><time>2026-05-03T07:37:48.373Z</time></trkpt><trkpt lat="45.7265017" lon="9.607175"><ele>271.3333333333333</ele><time>2026-05-03T07:37:49.372Z</time></trkpt><trkpt lat="45.7265667" lon="9.6071783"><ele>271.5</ele><time>2026-05-03T07:37:50.373Z</time></trkpt><trkpt lat="45.726685" lon="9.6071917"><ele>271.6666666666667</ele><time>2026-05-03T07:37:52.373Z</time></trkpt><trkpt lat="45.726785" lon="9.6072117"><ele>271.83333333333337</ele><time>2026-05-03T07:37:54.373Z</time></trkpt><trkpt lat="45.7268717" lon="9.6072233"><ele>272.0</ele><time>2026-05-03T07:37:56.374Z</time></trkpt><trkpt lat="45.7269367" lon="9.6072317"><ele>272.33333333333337</ele><time>2026-05-03T07:37:58.373Z</time></trkpt><trkpt lat="45.7269967" lon="9.6072733"><ele>272.6666666666667</ele><time>2026-05-03T07:38:02.373Z</time></trkpt><trkpt lat="45.7270217" lon="9.6073917"><ele>273.0</ele><time>2026-05-03T07:38:04.374Z</time></trkpt><trkpt lat="45.7270083" lon="9.6074933"><ele>273.3333333333333</ele><time>2026-05-03T07:38:05.371Z</time></trkpt><trkpt lat="45.7269817" lon="9.6076383"><ele>273.66666666666663</ele><time>2026-05-03T07:38:06.372Z</time></trkpt><trkpt lat="45.7269567" lon="9.6078033"><ele>274.0</ele><time>2026-05-03T07:38:07.371Z</time></trkpt><trkpt lat="45.7269383" lon="9.607975"><ele>274.0</ele><time>2026-05-03T07:38:08.372Z</time></trkpt><trkpt lat="45.726925" lon="9.6081417"><ele>274.0</ele><time>2026-05-03T07:38:09.371Z</time></trkpt><trkpt lat="45.7269117" lon="9.6082933"><ele>274.0</ele><time>2026-05-03T07:38:10.372Z</time></trkpt><trkpt lat="45.726885" lon="9.608435"><ele>274.0</ele><time>2026-05-03T07:38:11.368Z</time></trkpt><trkpt lat="45.726845" lon="9.6085483"><ele>274.0</ele><time>2026-05-03T07:38:12.372Z</time></trkpt><trkpt lat="45.726785" lon="9.6086517"><ele>273.66666666666663</ele><time>2026-05-03T07:38:13.372Z</time></trkpt><trkpt lat="45.726715" lon="9.6087533"><ele>273.3333333333333</ele><time>2026-05-03T07:38:14.37Z</time></trkpt><trkpt lat="45.72666" lon="9.6088567"><ele>273.0</ele><time>2026-05-03T07:38:15.373Z</time></trkpt><trkpt lat="45.7266317" lon="9.608965"><ele>272.6666666666667</ele><time>2026-05-03T07:38:16.371Z</time></trkpt><trkpt lat="45.7266333" lon="9.6090667"><ele>272.33333333333337</ele><time>2026-05-03T07:38:17.372Z</time></trkpt><trkpt lat="45.7266683" lon="9.6091683"><ele>272.0</ele><time>2026-05-03T07:38:18.372Z</time></trkpt><trkpt lat="45.7267283" lon="9.6092417"><ele>272.0</ele><time>2026-05-03T07:38:19.373Z</time></trkpt><trkpt lat="45.72679" lon="9.6092817"><ele>272.0</ele><time>2026-05-03T07:38:20.372Z</time></trkpt><trkpt lat="45.726855" lon="9.60929"><ele>272.0</ele><time>2026-05-03T07:38:21.373Z</time></trkpt><trkpt lat="45.726985" lon="9.60918"><ele>272.0</ele><time>2026-05-03T07:38:22.372Z</time></trkpt><trkpt lat="45.7270933" lon="9.609125"><ele>272.0</ele><time>2026-05-03T07:38:23.369Z</time></trkpt><trkpt lat="45.7272217" lon="9.6090767"><ele>272.25</ele><time>2026-05-03T07:38:24.372Z</time></trkpt><trkpt lat="45.7273633" lon="9.609045"><ele>272.5</ele><time>2026-05-03T07:38:25.371Z</time></trkpt><trkpt lat="45.7275083" lon="9.6090317"><ele>272.75</ele><time>2026-05-03T07:38:26.372Z</time></trkpt><trkpt lat="45.727655" lon="9.6090333"><ele>273.0</ele><time>2026-05-03T07:38:27.372Z</time></trkpt><trkpt lat="45.7278017" lon="9.6090383"><ele>273.3333333333333</ele><time>2026-05-03T07:38:28.371Z</time></trkpt><trkpt lat="45.7279533" lon="9.6090433"><ele>273.66666666666663</ele><time>2026-05-03T07:38:29.373Z</time></trkpt><trkpt lat="45.7281067" lon="9.6090483"><ele>274.0</ele><time>2026-05-03T07:38:30.373Z</time></trkpt><trkpt lat="45.7282617" lon="9.6090483"><ele>274.0</ele><time>2026-05-03T07:38:31.371Z</time></trkpt><trkpt lat="45.728415" lon="9.6090467"><ele>274.0</ele><time>2026-05-03T07:38:32.372Z</time></trkpt><trkpt lat="45.7285667" lon="9.6090467"><ele>274.0</ele><time>2026-05-03T07:38:33.373Z</time></trkpt><trkpt lat="45.7287133" lon="9.6090433"><ele>274.25</ele><time>2026-05-03T07:38:34.372Z</time></trkpt><trkpt lat="45.728855" lon="9.6090467"><ele>274.5</ele><time>2026-05-03T07:38:35.372Z</time></trkpt><trkpt lat="45.7289967" lon="9.609045"><ele>274.75</ele><time>2026-05-03T07:38:36.372Z</time></trkpt><trkpt lat="45.72913" lon="9.6090417"><ele>275.0</ele><time>2026-05-03T07:38:37.371Z</time></trkpt><trkpt lat="45.7292533" lon="9.6090433"><ele>275.0</ele><time>2026-05-03T07:38:38.37Z</time></trkpt><trkpt lat="45.729375" lon="9.609045"><ele>275.0</ele><time>2026-05-03T07:38:39.369Z</time></trkpt><trkpt lat="45.7294883" lon="9.60905"><ele>275.0</ele><time>2026-05-03T07:38:40.373Z</time></trkpt><trkpt lat="45.7295983" lon="9.6090567"><ele>275.0</ele><time>2026-05-03T07:38:41.371Z</time></trkpt><trkpt lat="45.7297083" lon="9.6090617"><ele>275.0</ele><time>2026-05-03T07:38:42.373Z</time></trkpt><trkpt lat="45.7298167" lon="9.6090683"><ele>275.0</ele><time>2026-05-03T07:38:43.373Z</time></trkpt><trkpt lat="45.7299267" lon="9.6090733"><ele>275.0</ele><time>2026-05-03T07:38:44.372Z</time></trkpt><trkpt lat="45.730035" lon="9.60907"><ele>275.0</ele><time>2026-05-03T07:38:45.371Z</time></trkpt><trkpt lat="45.7301467" lon="9.6090667"><ele>275.0</ele><time>2026-05-03T07:38:46.372Z</time></trkpt><trkpt lat="45.7302633" lon="9.6090633"><ele>275.25</ele><time>2026-05-03T07:38:47.368Z</time></trkpt><trkpt lat="45.7303833" lon="9.6090633"><ele>275.5</ele><time>2026-05-03T07:38:48.37Z</time></trkpt><trkpt lat="45.7305083" lon="9.609065"><ele>275.75</ele><time>2026-05-03T07:38:49.369Z</time></trkpt><trkpt lat="45.7306433" lon="9.60907"><ele>276.0</ele><time>2026-05-03T07:38:50.369Z</time></trkpt><trkpt lat="45.7307833" lon="9.609075"><ele>276.0</ele><time>2026-05-03T07:38:51.369Z</time></trkpt><trkpt lat="45.7309183" lon="9.6090833"><ele>276.0</ele><time>2026-05-03T07:38:52.37Z</time></trkpt><trkpt lat="45.7310467" lon="9.6090933"><ele>276.0</ele><time>2026-05-03T07:38:53.369Z</time></trkpt><trkpt lat="45.7311717" lon="9.6091017"><ele>276.0</ele><time>2026-05-03T07:38:54.373Z</time></trkpt><trkpt lat="45.7312867" lon="9.6091083"><ele>276.0</ele><time>2026-05-03T07:38:55.373Z</time></trkpt><trkpt lat="45.7314033" lon="9.60911"><ele>276.0</ele><time>2026-05-03T07:38:56.372Z</time></trkpt><trkpt lat="45.7315333" lon="9.6091083"><ele>276.0</ele><time>2026-05-03T07:38:57.373Z</time></trkpt><trkpt lat="45.7316833" lon="9.609105"><ele>276.0</ele><time>2026-05-03T07:38:58.372Z</time></trkpt><trkpt lat="45.7318533" lon="9.6091117"><ele>276.6666666666667</ele><time>2026-05-03T07:38:59.372Z</time></trkpt><trkpt lat="45.7320367" lon="9.6091267"><ele>277.33333333333337</ele><time>2026-05-03T07:39:00.373Z</time></trkpt><trkpt lat="45.732225" lon="9.6091517"><ele>278.0</ele><time>2026-05-03T07:39:01.373Z</time></trkpt><trkpt lat="45.7324133" lon="9.6091683"><ele>278.0</ele><time>2026-05-03T07:39:02.373Z</time></trkpt><trkpt lat="45.7326083" lon="9.609175"><ele>278.0</ele><time>2026-05-03T07:39:03.373Z</time></trkpt><trkpt lat="45.7328017" lon="9.60917"><ele>278.0</ele><time>2026-05-03T07:39:04.373Z</time></trkpt><trkpt lat="45.73299" lon="9.609165"><ele>278.33333333333337</ele><time>2026-05-03T07:39:05.373Z</time></trkpt><trkpt lat="45.7331783" lon="9.6091583"><ele>278.6666666666667</ele><time>2026-05-03T07:39:06.372Z</time></trkpt><trkpt lat="45.733365" lon="9.609145"><ele>279.0</ele><time>2026-05-03T07:39:07.373Z</time></trkpt><trkpt lat="45.733555" lon="9.6091233"><ele>279.6666666666667</ele><time>2026-05-03T07:39:08.372Z</time></trkpt><trkpt lat="45.7337467" lon="9.6090917"><ele>280.33333333333337</ele><time>2026-05-03T07:39:09.372Z</time></trkpt><trkpt lat="45.7339367" lon="9.609055"><ele>281.0</ele><time>2026-05-03T07:39:10.372Z</time></trkpt><trkpt lat="45.7341283" lon="9.6090183"><ele>281.0</ele><time>2026-05-03T07:39:11.372Z</time></trkpt><trkpt lat="45.7343167" lon="9.608985"><ele>281.0</ele><time>2026-05-03T07:39:12.373Z</time></trkpt><trkpt lat="45.734505" lon="9.6089517"><ele>281.0</ele><time>2026-05-03T07:39:13.372Z</time></trkpt><trkpt lat="45.7346933" lon="9.6089183"><ele>281.0</ele><time>2026-05-03T07:39:14.373Z</time></trkpt><trkpt lat="45.7348817" lon="9.6088883"><ele>281.0</ele><time>2026-05-03T07:39:15.372Z</time></trkpt><trkpt lat="45.735075" lon="9.608855"><ele>281.0</ele><time>2026-05-03T07:39:16.372Z</time></trkpt><trkpt lat="45.7352683" lon="9.6088217"><ele>281.0</ele><time>2026-05-03T07:39:17.373Z</time></trkpt><trkpt lat="45.7354583" lon="9.6087833"><ele>281.0</ele><time>2026-05-03T07:39:18.37Z</time></trkpt><trkpt lat="45.7356367" lon="9.6087483"><ele>281.0</ele><time>2026-05-03T07:39:19.372Z</time></trkpt><trkpt lat="45.7358033" lon="9.6087167"><ele>281.0</ele><time>2026-05-03T07:39:20.372Z</time></trkpt><trkpt lat="45.7359583" lon="9.6086883"><ele>281.0</ele><time>2026-05-03T07:39:21.371Z</time></trkpt><trkpt lat="45.736105" lon="9.6086617"><ele>281.0</ele><time>2026-05-03T07:39:22.372Z</time></trkpt><trkpt lat="45.7362383" lon="9.6086383"><ele>281.0</ele><time>2026-05-03T07:39:23.372Z</time></trkpt><trkpt lat="45.7363633" lon="9.6086217"><ele>281.25</ele><time>2026-05-03T07:39:24.372Z</time></trkpt><trkpt lat="45.7364917" lon="9.6086067"><ele>281.5</ele><time>2026-05-03T07:39:25.37Z</time></trkpt><trkpt lat="45.7366283" lon="9.6085967"><ele>281.75</ele><time>2026-05-03T07:39:26.371Z</time></trkpt><trkpt lat="45.736775" lon="9.60859"><ele>282.0</ele><time>2026-05-03T07:39:27.37Z</time></trkpt><trkpt lat="45.7369317" lon="9.6085917"><ele>282.25</ele><time>2026-05-03T07:39:28.372Z</time></trkpt><trkpt lat="45.7370883" lon="9.6085967"><ele>282.5</ele><time>2026-05-03T07:39:29.372Z</time></trkpt><trkpt lat="45.7372383" lon="9.6086033"><ele>282.75</ele><time>2026-05-03T07:39:30.372Z</time></trkpt><trkpt lat="45.7373783" lon="9.6086167"><ele>283.0</ele><time>2026-05-03T07:39:31.371Z</time></trkpt><trkpt lat="45.7375117" lon="9.60864"><ele>283.0</ele><time>2026-05-03T07:39:32.373Z</time></trkpt><trkpt lat="45.7376433" lon="9.6086683"><ele>283.0</ele><time>2026-05-03T07:39:33.372Z</time></trkpt><trkpt lat="45.7377867" lon="9.60871"><ele>283.0</ele><time>2026-05-03T07:39:34.372Z</time></trkpt><trkpt lat="45.73794" lon="9.608755"><ele>283.0</ele><time>2026-05-03T07:39:35.372Z</time></trkpt><trkpt lat="45.73811" lon="9.6088117"><ele>283.0</ele><time>2026-05-03T07:39:36.374Z</time></trkpt><trkpt lat="45.738295" lon="9.6088817"><ele>283.0</ele><time>2026-05-03T07:39:37.373Z</time></trkpt><trkpt lat="45.738485" lon="9.60895"><ele>283.0</ele><time>2026-05-03T07:39:38.372Z</time></trkpt><trkpt lat="45.7386833" lon="9.6090233"><ele>283.0</ele><time>2026-05-03T07:39:39.373Z</time></trkpt><trkpt lat="45.7388833" lon="9.6090983"><ele>283.0</ele><time>2026-05-03T07:39:40.372Z</time></trkpt><trkpt lat="45.7390783" lon="9.6091733"><ele>283.0</ele><time>2026-05-03T07:39:41.372Z</time></trkpt><trkpt lat="45.739265" lon="9.6092483"><ele>282.66666666666663</ele><time>2026-05-03T07:39:42.373Z</time></trkpt><trkpt lat="45.7394433" lon="9.6093217"><ele>282.3333333333333</ele><time>2026-05-03T07:39:43.373Z</time></trkpt><trkpt lat="45.739625" lon="9.609395"><ele>282.0</ele><time>2026-05-03T07:39:44.373Z</time></trkpt><trkpt lat="45.7398083" lon="9.6094683"><ele>283.0</ele><time>2026-05-03T07:39:45.372Z</time></trkpt><trkpt lat="45.7399883" lon="9.6095383"><ele>284.0</ele><time>2026-05-03T07:39:46.373Z</time></trkpt><trkpt lat="45.740165" lon="9.6096017"><ele>285.0</ele><time>2026-05-03T07:39:47.372Z</time></trkpt><trkpt lat="45.740335" lon="9.6096567"><ele>285.0</ele><time>2026-05-03T07:39:48.369Z</time></trkpt><trkpt lat="45.7404933" lon="9.6097117"><ele>285.0</ele><time>2026-05-03T07:39:49.369Z</time></trkpt><trkpt lat="45.740645" lon="9.6097633"><ele>285.0</ele><time>2026-05-03T07:39:50.371Z</time></trkpt><trkpt lat="45.740785" lon="9.6098167"><ele>285.0</ele><time>2026-05-03T07:39:51.369Z</time></trkpt><trkpt lat="45.7409183" lon="9.609865"><ele>285.0</ele><time>2026-05-03T07:39:52.371Z</time></trkpt><trkpt lat="45.74104" lon="9.609915"><ele>285.0</ele><time>2026-05-03T07:39:53.369Z</time></trkpt><trkpt lat="45.741155" lon="9.6099617"><ele>285.0</ele><time>2026-05-03T07:39:54.372Z</time></trkpt><trkpt lat="45.7412717" lon="9.6100083"><ele>285.0</ele><time>2026-05-03T07:39:55.37Z</time></trkpt><trkpt lat="45.7413817" lon="9.6100517"><ele>285.0</ele><time>2026-05-03T07:39:56.369Z</time></trkpt><trkpt lat="45.7414917" lon="9.6100917"><ele>285.0</ele><time>2026-05-03T07:39:57.37Z</time></trkpt><trkpt lat="45.741595" lon="9.6101267"><ele>285.0</ele><time>2026-05-03T07:39:58.369Z</time></trkpt><trkpt lat="45.7416867" lon="9.6101567"><ele>285.0</ele><time>2026-05-03T07:39:59.373Z</time></trkpt><trkpt lat="45.74177" lon="9.6101883"><ele>285.0</ele><time>2026-05-03T07:40:00.373Z</time></trkpt><trkpt lat="45.7418517" lon="9.61022"><ele>285.0</ele><time>2026-05-03T07:40:01.373Z</time></trkpt><trkpt lat="45.7419183" lon="9.6102717"><ele>285.0</ele><time>2026-05-03T07:40:02.373Z</time></trkpt><trkpt lat="45.7419733" lon="9.61034"><ele>285.0</ele><time>2026-05-03T07:40:03.372Z</time></trkpt><trkpt lat="45.7420167" lon="9.61042"><ele>285.0</ele><time>2026-05-03T07:40:04.373Z</time></trkpt><trkpt lat="45.74206" lon="9.6104867"><ele>285.0</ele><time>2026-05-03T07:40:05.372Z</time></trkpt><trkpt lat="45.742155" lon="9.610575"><ele>284.6</ele><time>2026-05-03T07:40:07.373Z</time></trkpt><trkpt lat="45.742255" lon="9.61055"><ele>284.2</ele><time>2026-05-03T07:40:09.372Z</time></trkpt><trkpt lat="45.7423067" lon="9.6103733"><ele>283.8</ele><time>2026-05-03T07:40:11.372Z</time></trkpt><trkpt lat="45.7423167" lon="9.6102333"><ele>283.4</ele><time>2026-05-03T07:40:12.372Z</time></trkpt><trkpt lat="45.7423317" lon="9.61009"><ele>283.0</ele><time>2026-05-03T07:40:13.373Z</time></trkpt><trkpt lat="45.742355" lon="9.6099217"><ele>282.5</ele><time>2026-05-03T07:40:14.374Z</time></trkpt><trkpt lat="45.7423883" lon="9.6097567"><ele>282.0</ele><time>2026-05-03T07:40:15.374Z</time></trkpt><trkpt lat="45.7424167" lon="9.6095917"><ele>281.5</ele><time>2026-05-03T07:40:16.373Z</time></trkpt><trkpt lat="45.742445" lon="9.6094217"><ele>281.0</ele><time>2026-05-03T07:40:17.369Z</time></trkpt><trkpt lat="45.7424733" lon="9.6092533"><ele>281.0</ele><time>2026-05-03T07:40:18.371Z</time></trkpt><trkpt lat="45.7425067" lon="9.6090867"><ele>281.0</ele><time>2026-05-03T07:40:19.372Z</time></trkpt><trkpt lat="45.7425333" lon="9.6089233"><ele>281.0</ele><time>2026-05-03T07:40:20.372Z</time></trkpt><trkpt lat="45.7425533" lon="9.60877"><ele>281.0</ele><time>2026-05-03T07:40:21.372Z</time></trkpt><trkpt lat="45.7425683" lon="9.6086267"><ele>281.0</ele><time>2026-05-03T07:40:22.371Z</time></trkpt><trkpt lat="45.7425867" lon="9.608505"><ele>280.1666666666667</ele><time>2026-05-03T07:40:23.373Z</time></trkpt><trkpt lat="45.7426083" lon="9.608405"><ele>279.33333333333337</ele><time>2026-05-03T07:40:24.372Z</time></trkpt><trkpt lat="45.742635" lon="9.6083217"><ele>278.5</ele><time>2026-05-03T07:40:25.374Z</time></trkpt><trkpt lat="45.7427333" lon="9.6082183"><ele>277.6666666666667</ele><time>2026-05-03T07:40:27.372Z</time></trkpt><trkpt lat="45.7427967" lon="9.6082033"><ele>276.8333333333333</ele><time>2026-05-03T07:40:28.372Z</time></trkpt><trkpt lat="45.742865" lon="9.6082333"><ele>276.0</ele><time>2026-05-03T07:40:29.372Z</time></trkpt><trkpt lat="45.742935" lon="9.6083083"><ele>277.25</ele><time>2026-05-03T07:40:30.372Z</time></trkpt><trkpt lat="45.743015" lon="9.6084183"><ele>278.5</ele><time>2026-05-03T07:40:31.372Z</time></trkpt><trkpt lat="45.7431067" lon="9.6085267"><ele>279.75</ele><time>2026-05-03T07:40:32.372Z</time></trkpt><trkpt lat="45.743205" lon="9.6086167"><ele>281.0</ele><time>2026-05-03T07:40:33.373Z</time></trkpt><trkpt lat="45.7433133" lon="9.6086967"><ele>281.0</ele><time>2026-05-03T07:40:34.374Z</time></trkpt><trkpt lat="45.7434267" lon="9.608765"><ele>281.0</ele><time>2026-05-03T07:40:35.373Z</time></trkpt><trkpt lat="45.7435533" lon="9.6088233"><ele>281.0</ele><time>2026-05-03T07:40:36.373Z</time></trkpt><trkpt lat="45.7436917" lon="9.6088667"><ele>281.0</ele><time>2026-05-03T07:40:37.373Z</time></trkpt><trkpt lat="45.7438533" lon="9.608915"><ele>278.33333333333337</ele><time>2026-05-03T07:40:38.371Z</time></trkpt><trkpt lat="45.7440417" lon="9.608965"><ele>275.6666666666667</ele><time>2026-05-03T07:40:39.373Z</time></trkpt><trkpt lat="45.74424" lon="9.6090233"><ele>273.0</ele><time>2026-05-03T07:40:40.373Z</time></trkpt><trkpt lat="45.7444283" lon="9.609085"><ele>270.0</ele><time>2026-05-03T07:40:41.369Z</time></trkpt><trkpt lat="45.7446" lon="9.6091417"><ele>267.0</ele><time>2026-05-03T07:40:42.374Z</time></trkpt><trkpt lat="45.7447517" lon="9.609195"><ele>264.0</ele><time>2026-05-03T07:40:43.372Z</time></trkpt><trkpt lat="45.7448933" lon="9.609245"><ele>264.0</ele><time>2026-05-03T07:40:44.372Z</time></trkpt><trkpt lat="45.7450283" lon="9.6092933"><ele>264.0</ele><time>2026-05-03T07:40:45.373Z</time></trkpt><trkpt lat="45.7451617" lon="9.6093333"><ele>264.0</ele><time>2026-05-03T07:40:46.372Z</time></trkpt><trkpt lat="45.7452967" lon="9.6093617"><ele>264.0</ele><time>2026-05-03T07:40:47.37Z</time></trkpt><trkpt lat="45.7454267" lon="9.6093667"><ele>263.0</ele><time>2026-05-03T07:40:48.371Z</time></trkpt><trkpt lat="45.745555" lon="9.6093533"><ele>262.0</ele><time>2026-05-03T07:40:49.372Z</time></trkpt><trkpt lat="45.7456833" lon="9.6093167"><ele>261.0</ele><time>2026-05-03T07:40:50.372Z</time></trkpt><trkpt lat="45.7458033" lon="9.609295"><ele>260.0</ele><time>2026-05-03T07:40:51.371Z</time></trkpt><trkpt lat="45.7459183" lon="9.6092767"><ele>260.0</ele><time>2026-05-03T07:40:52.372Z</time></trkpt><trkpt lat="45.7460333" lon="9.6092567"><ele>260.0</ele><time>2026-05-03T07:40:53.372Z</time></trkpt><trkpt lat="45.74615" lon="9.6092367"><ele>260.0</ele><time>2026-05-03T07:40:54.372Z</time></trkpt><trkpt lat="45.7462667" lon="9.6092117"><ele>260.0</ele><time>2026-05-03T07:40:55.374Z</time></trkpt><trkpt lat="45.7463833" lon="9.609175"><ele>261.0</ele><time>2026-05-03T07:40:56.372Z</time></trkpt><trkpt lat="45.7465017" lon="9.6091183"><ele>262.0</ele><time>2026-05-03T07:40:57.371Z</time></trkpt><trkpt lat="45.7466267" lon="9.609045"><ele>263.0</ele><time>2026-05-03T07:40:58.371Z</time></trkpt><trkpt lat="45.7467567" lon="9.6089617"><ele>264.0</ele><time>2026-05-03T07:40:59.373Z</time></trkpt><trkpt lat="45.7468867" lon="9.60888"><ele>264.0</ele><time>2026-05-03T07:41:00.372Z</time></trkpt><trkpt lat="45.7470183" lon="9.6088017"><ele>264.0</ele><time>2026-05-03T07:41:01.374Z</time></trkpt><trkpt lat="45.7471517" lon="9.6087333"><ele>264.0</ele><time>2026-05-03T07:41:02.37Z</time></trkpt><trkpt lat="45.7472883" lon="9.6086883"><ele>264.0</ele><time>2026-05-03T07:41:03.373Z</time></trkpt><trkpt lat="45.7474317" lon="9.6086717"><ele>264.0</ele><time>2026-05-03T07:41:04.371Z</time></trkpt><trkpt lat="45.7475767" lon="9.6086817"><ele>264.0</ele><time>2026-05-03T07:41:05.372Z</time></trkpt><trkpt lat="45.7477267" lon="9.60871"><ele>264.0</ele><time>2026-05-03T07:41:06.374Z</time></trkpt><trkpt lat="45.7478833" lon="9.60874"><ele>264.3333333333333</ele><time>2026-05-03T07:41:07.372Z</time></trkpt><trkpt lat="45.74804" lon="9.6087683"><ele>264.66666666666663</ele><time>2026-05-03T07:41:08.374Z</time></trkpt><trkpt lat="45.7482083" lon="9.6087883"><ele>265.0</ele><time>2026-05-03T07:41:09.373Z</time></trkpt><trkpt lat="45.7484" lon="9.6087883"><ele>262.3333333333333</ele><time>2026-05-03T07:41:10.37Z</time></trkpt><trkpt lat="45.7486083" lon="9.60878"><ele>259.6666666666667</ele><time>2026-05-03T07:41:11.374Z</time></trkpt><trkpt lat="45.7488333" lon="9.6087583"><ele>257.0</ele><time>2026-05-03T07:41:12.372Z</time></trkpt><trkpt lat="45.7490633" lon="9.6087283"><ele>257.0</ele><time>2026-05-03T07:41:13.374Z</time></trkpt><trkpt lat="45.7492867" lon="9.6086883"><ele>257.0</ele><time>2026-05-03T07:41:14.374Z</time></trkpt><trkpt lat="45.7494933" lon="9.6086333"><ele>257.0</ele><time>2026-05-03T07:41:15.372Z</time></trkpt><trkpt lat="45.7496883" lon="9.6085767"><ele>255.0</ele><time>2026-05-03T07:41:16.37Z</time></trkpt><trkpt lat="45.74987" lon="9.6085183"><ele>253.0</ele><time>2026-05-03T07:41:17.37Z</time></trkpt><trkpt lat="45.7500333" lon="9.6084667"><ele>251.0</ele><time>2026-05-03T07:41:18.37Z</time></trkpt><trkpt lat="45.750185" lon="9.6084067"><ele>251.0</ele><time>2026-05-03T07:41:19.371Z</time></trkpt><trkpt lat="45.750315" lon="9.6083317"><ele>251.0</ele><time>2026-05-03T07:41:20.371Z</time></trkpt><trkpt lat="45.7504267" lon="9.6082267"><ele>251.0</ele><time>2026-05-03T07:41:21.37Z</time></trkpt><trkpt lat="45.7505283" lon="9.608095"><ele>251.0</ele><time>2026-05-03T07:41:22.369Z</time></trkpt><trkpt lat="45.7506167" lon="9.6079333"><ele>251.33333333333334</ele><time>2026-05-03T07:41:23.37Z</time></trkpt><trkpt lat="45.750695" lon="9.60774"><ele>251.66666666666669</ele><time>2026-05-03T07:41:24.372Z</time></trkpt><trkpt lat="45.750765" lon="9.6075317"><ele>252.0</ele><time>2026-05-03T07:41:25.372Z</time></trkpt><trkpt lat="45.75082" lon="9.6073017"><ele>252.0</ele><time>2026-05-03T07:41:26.374Z</time></trkpt><trkpt lat="45.75087" lon="9.6070583"><ele>252.0</ele><time>2026-05-03T07:41:27.37Z</time></trkpt><trkpt lat="45.750915" lon="9.6067967"><ele>252.0</ele><time>2026-05-03T07:41:28.373Z</time></trkpt><trkpt lat="45.7509617" lon="9.6065283"><ele>251.66666666666669</ele><time>2026-05-03T07:41:29.372Z</time></trkpt><trkpt lat="45.751" lon="9.60626"><ele>251.33333333333334</ele><time>2026-05-03T07:41:30.373Z</time></trkpt><trkpt lat="45.7510217" lon="9.6060067"><ele>251.0</ele><time>2026-05-03T07:41:31.373Z</time></trkpt><trkpt lat="45.751015" lon="9.6057517"><ele>251.0</ele><time>2026-05-03T07:41:32.374Z</time></trkpt><trkpt lat="45.750985" lon="9.6054917"><ele>251.0</ele><time>2026-05-03T07:41:33.374Z</time></trkpt><trkpt lat="45.7509383" lon="9.6052267"><ele>251.0</ele><time>2026-05-03T07:41:34.373Z</time></trkpt><trkpt lat="45.7508833" lon="9.6049717"><ele>251.0</ele><time>2026-05-03T07:41:35.374Z</time></trkpt><trkpt lat="45.75083" lon="9.6047383"><ele>251.0</ele><time>2026-05-03T07:41:36.372Z</time></trkpt><trkpt lat="45.7507783" lon="9.60452"><ele>251.0</ele><time>2026-05-03T07:41:37.373Z</time></trkpt><trkpt lat="45.75073" lon="9.6043167"><ele>251.0</ele><time>2026-05-03T07:41:38.372Z</time></trkpt><trkpt lat="45.7506867" lon="9.604125"><ele>251.0</ele><time>2026-05-03T07:41:39.373Z</time></trkpt><trkpt lat="45.7506417" lon="9.6039533"><ele>251.0</ele><time>2026-05-03T07:41:40.373Z</time></trkpt><trkpt lat="45.7506033" lon="9.6037983"><ele>251.0</ele><time>2026-05-03T07:41:41.373Z</time></trkpt><trkpt lat="45.75057" lon="9.6036617"><ele>251.00000000000003</ele><time>2026-05-03T07:41:42.373Z</time></trkpt><trkpt lat="45.75054" lon="9.6035333"><ele>251.0</ele><time>2026-05-03T07:41:43.373Z</time></trkpt><trkpt lat="45.7505133" lon="9.6034183"><ele>251.0</ele><time>2026-05-03T07:41:44.373Z</time></trkpt><trkpt lat="45.7504883" lon="9.6033167"><ele>251.0</ele><time>2026-05-03T07:41:45.373Z</time></trkpt><trkpt lat="45.7504667" lon="9.6032267"><ele>251.00000000000003</ele><time>2026-05-03T07:41:46.374Z</time></trkpt><trkpt lat="45.7504333" lon="9.6030667"><ele>251.0</ele><time>2026-05-03T07:41:48.37Z</time></trkpt><trkpt lat="45.7504433" lon="9.6028967"><ele>252.33333333333334</ele><time>2026-05-03T07:41:50.371Z</time></trkpt><trkpt lat="45.75052" lon="9.60275"><ele>253.66666666666669</ele><time>2026-05-03T07:41:52.369Z</time></trkpt><trkpt lat="45.75058" lon="9.60269"><ele>255.0</ele><time>2026-05-03T07:41:53.372Z</time></trkpt><trkpt lat="45.7506417" lon="9.6026383"><ele>256.3333333333333</ele><time>2026-05-03T07:41:54.373Z</time></trkpt><trkpt lat="45.7507" lon="9.6025917"><ele>257.66666666666663</ele><time>2026-05-03T07:41:55.371Z</time></trkpt><trkpt lat="45.750785" lon="9.6025067"><ele>259.0</ele><time>2026-05-03T07:41:57.373Z</time></trkpt><trkpt lat="45.7508733" lon="9.602395"><ele>259.0</ele><time>2026-05-03T07:41:59.37Z</time></trkpt><trkpt lat="45.75092" lon="9.60232"><ele>259.0</ele><time>2026-05-03T07:42:00.369Z</time></trkpt><trkpt lat="45.750975" lon="9.6022333"><ele>259.0</ele><time>2026-05-03T07:42:01.371Z</time></trkpt><trkpt lat="45.7510233" lon="9.60213"><ele>259.0</ele><time>2026-05-03T07:42:02.371Z</time></trkpt><trkpt lat="45.7510767" lon="9.6020067"><ele>259.0</ele><time>2026-05-03T07:42:03.369Z</time></trkpt><trkpt lat="45.7511417" lon="9.6018933"><ele>259.0</ele><time>2026-05-03T07:42:04.369Z</time></trkpt><trkpt lat="45.7512217" lon="9.6018033"><ele>261.0</ele><time>2026-05-03T07:42:05.37Z</time></trkpt><trkpt lat="45.751305" lon="9.6017467"><ele>263.0</ele><time>2026-05-03T07:42:06.371Z</time></trkpt><trkpt lat="45.7513867" lon="9.6017133"><ele>265.0</ele><time>2026-05-03T07:42:07.371Z</time></trkpt><trkpt lat="45.75147" lon="9.6017067"><ele>267.0</ele><time>2026-05-03T07:42:08.371Z</time></trkpt><trkpt lat="45.7515433" lon="9.60177"><ele>269.0</ele><time>2026-05-03T07:42:09.37Z</time></trkpt><trkpt lat="45.7516117" lon="9.6018417"><ele>271.0</ele><time>2026-05-03T07:42:10.373Z</time></trkpt><trkpt lat="45.7516783" lon="9.6019067"><ele>271.0</ele><time>2026-05-03T07:42:11.37Z</time></trkpt><trkpt lat="45.751745" lon="9.6019417"><ele>271.0</ele><time>2026-05-03T07:42:12.371Z</time></trkpt><trkpt lat="45.751855" lon="9.6018967"><ele>271.0</ele><time>2026-05-03T07:42:14.371Z</time></trkpt><trkpt lat="45.7519017" lon="9.601765"><ele>271.0</ele><time>2026-05-03T07:42:16.374Z</time></trkpt><trkpt lat="45.7518717" lon="9.60167"><ele>271.0</ele><time>2026-05-03T07:42:17.372Z</time></trkpt><trkpt lat="45.75183" lon="9.60159"><ele>271.0</ele><time>2026-05-03T07:42:18.374Z</time></trkpt><trkpt lat="45.75171" lon="9.6014817"><ele>271.0</ele><time>2026-05-03T07:42:19.37Z</time></trkpt><trkpt lat="45.7515383" lon="9.6014067"><ele>271.0</ele><time>2026-05-03T07:42:20.372Z</time></trkpt><trkpt lat="45.7513917" lon="9.6013983"><ele>271.0</ele><time>2026-05-03T07:42:21.37Z</time></trkpt><trkpt lat="45.7512483" lon="9.6014467"><ele>271.0</ele><time>2026-05-03T07:42:22.373Z</time></trkpt><trkpt lat="45.7511167" lon="9.601545"><ele>271.0</ele><time>2026-05-03T07:42:23.373Z</time></trkpt><trkpt lat="45.7509667" lon="9.6016983"><ele>271.0</ele><time>2026-05-03T07:42:24.373Z</time></trkpt><trkpt lat="45.7508167" lon="9.601845"><ele>272.3333333333333</ele><time>2026-05-03T07:42:25.372Z</time></trkpt><trkpt lat="45.7506717" lon="9.60196"><ele>273.6666666666667</ele><time>2026-05-03T07:42:26.374Z</time></trkpt><trkpt lat="45.7505167" lon="9.6020383"><ele>275.0</ele><time>2026-05-03T07:42:27.373Z</time></trkpt><trkpt lat="45.7503717" lon="9.6020833"><ele>274.0</ele><time>2026-05-03T07:42:28.373Z</time></trkpt><trkpt lat="45.75024" lon="9.6021"><ele>273.0</ele><time>2026-05-03T07:42:29.374Z</time></trkpt><trkpt lat="45.7501133" lon="9.6020933"><ele>272.0</ele><time>2026-05-03T07:42:30.37Z</time></trkpt><trkpt lat="45.7499783" lon="9.6020817"><ele>271.0</ele><time>2026-05-03T07:42:31.373Z</time></trkpt><trkpt lat="45.74984" lon="9.6020617"><ele>271.0</ele><time>2026-05-03T07:42:32.373Z</time></trkpt><trkpt lat="45.7497067" lon="9.6020367"><ele>271.0</ele><time>2026-05-03T07:42:33.373Z</time></trkpt><trkpt lat="45.749585" lon="9.6020267"><ele>271.0</ele><time>2026-05-03T07:42:34.374Z</time></trkpt><trkpt lat="45.7494783" lon="9.6020133"><ele>271.0</ele><time>2026-05-03T07:42:35.37Z</time></trkpt><trkpt lat="45.749395" lon="9.6019667"><ele>272.8</ele><time>2026-05-03T07:42:36.372Z</time></trkpt><trkpt lat="45.74933" lon="9.6019067"><ele>274.6</ele><time>2026-05-03T07:42:37.368Z</time></trkpt><trkpt lat="45.7492967" lon="9.601775"><ele>276.4</ele><time>2026-05-03T07:42:39.373Z</time></trkpt><trkpt lat="45.7493833" lon="9.6017183"><ele>278.2</ele><time>2026-05-03T07:42:40.372Z</time></trkpt><trkpt lat="45.7494933" lon="9.60168"><ele>280.0</ele><time>2026-05-03T07:42:41.369Z</time></trkpt><trkpt lat="45.7496467" lon="9.601645"><ele>280.3333333333333</ele><time>2026-05-03T07:42:42.372Z</time></trkpt><trkpt lat="45.7498067" lon="9.60158"><ele>280.6666666666667</ele><time>2026-05-03T07:42:43.372Z</time></trkpt><trkpt lat="45.7499483" lon="9.6015133"><ele>281.0</ele><time>2026-05-03T07:42:44.373Z</time></trkpt><trkpt lat="45.7500983" lon="9.6014467"><ele>279.0</ele><time>2026-05-03T07:42:45.371Z</time></trkpt><trkpt lat="45.7502467" lon="9.60138"><ele>277.0</ele><time>2026-05-03T07:42:46.373Z</time></trkpt><trkpt lat="45.7503917" lon="9.6013167"><ele>275.0</ele><time>2026-05-03T07:42:47.369Z</time></trkpt><trkpt lat="45.7505283" lon="9.601255"><ele>275.0</ele><time>2026-05-03T07:42:48.368Z</time></trkpt><trkpt lat="45.7506567" lon="9.6011983"><ele>275.0</ele><time>2026-05-03T07:42:49.37Z</time></trkpt><trkpt lat="45.7507683" lon="9.601145"><ele>275.0</ele><time>2026-05-03T07:42:50.369Z</time></trkpt><trkpt lat="45.7508683" lon="9.6010783"><ele>275.0</ele><time>2026-05-03T07:42:51.369Z</time></trkpt><trkpt lat="45.750945" lon="9.600995"><ele>277.33333333333337</ele><time>2026-05-03T07:42:52.372Z</time></trkpt><trkpt lat="45.75099" lon="9.6008983"><ele>279.6666666666667</ele><time>2026-05-03T07:42:53.372Z</time></trkpt><trkpt lat="45.7510067" lon="9.6007983"><ele>282.0</ele><time>2026-05-03T07:42:54.372Z</time></trkpt><trkpt lat="45.7509917" lon="9.6006383"><ele>284.3333333333333</ele><time>2026-05-03T07:42:56.375Z</time></trkpt><trkpt lat="45.75094" lon="9.6004833"><ele>286.66666666666663</ele><time>2026-05-03T07:42:58.376Z</time></trkpt><trkpt lat="45.750915" lon="9.6004"><ele>289.0</ele><time>2026-05-03T07:42:59.372Z</time></trkpt><trkpt lat="45.7508783" lon="9.6003117"><ele>289.8333333333333</ele><time>2026-05-03T07:43:00.373Z</time></trkpt><trkpt lat="45.7508383" lon="9.6002133"><ele>290.66666666666663</ele><time>2026-05-03T07:43:01.372Z</time></trkpt><trkpt lat="45.7508033" lon="9.600105"><ele>291.5</ele><time>2026-05-03T07:43:02.372Z</time></trkpt><trkpt lat="45.7507717" lon="9.5999917"><ele>292.3333333333333</ele><time>2026-05-03T07:43:03.37Z</time></trkpt><trkpt lat="45.7507467" lon="9.5998733"><ele>293.1666666666667</ele><time>2026-05-03T07:43:04.373Z</time></trkpt><trkpt lat="45.7507267" lon="9.599755"><ele>294.0</ele><time>2026-05-03T07:43:05.373Z</time></trkpt><trkpt lat="45.7507167" lon="9.5996467"><ele>294.0</ele><time>2026-05-03T07:43:06.372Z</time></trkpt><trkpt lat="45.7507167" lon="9.5995533"><ele>294.0</ele><time>2026-05-03T07:43:07.373Z</time></trkpt><trkpt lat="45.7507467" lon="9.5993867"><ele>294.0</ele><time>2026-05-03T07:43:09.372Z</time></trkpt><trkpt lat="45.7508333" lon="9.5992667"><ele>294.0</ele><time>2026-05-03T07:43:11.369Z</time></trkpt><trkpt lat="45.75096" lon="9.5992133"><ele>294.0</ele><time>2026-05-03T07:43:13.37Z</time></trkpt><trkpt lat="45.751045" lon="9.59919"><ele>295.75</ele><time>2026-05-03T07:43:14.373Z</time></trkpt><trkpt lat="45.7511483" lon="9.5991567"><ele>297.5</ele><time>2026-05-03T07:43:15.369Z</time></trkpt><trkpt lat="45.751265" lon="9.5991033"><ele>299.25</ele><time>2026-05-03T07:43:16.369Z</time></trkpt><trkpt lat="45.75139" lon="9.5990317"><ele>301.0</ele><time>2026-05-03T07:43:17.369Z</time></trkpt><trkpt lat="45.7515217" lon="9.5989383"><ele>301.0</ele><time>2026-05-03T07:43:18.37Z</time></trkpt><trkpt lat="45.75166" lon="9.5988433"><ele>301.0</ele><time>2026-05-03T07:43:19.369Z</time></trkpt><trkpt lat="45.7518117" lon="9.5987483"><ele>301.0</ele><time>2026-05-03T07:43:20.371Z</time></trkpt><trkpt lat="45.751975" lon="9.5986483"><ele>302.66666666666663</ele><time>2026-05-03T07:43:21.369Z</time></trkpt><trkpt lat="45.75214" lon="9.5985533"><ele>304.3333333333333</ele><time>2026-05-03T07:43:22.37Z</time></trkpt><trkpt lat="45.7523" lon="9.5984567"><ele>306.0</ele><time>2026-05-03T07:43:23.373Z</time></trkpt><trkpt lat="45.7524467" lon="9.5983617"><ele>306.0</ele><time>2026-05-03T07:43:24.373Z</time></trkpt><trkpt lat="45.752585" lon="9.59827"><ele>306.0</ele><time>2026-05-03T07:43:25.372Z</time></trkpt><trkpt lat="45.7527133" lon="9.5981783"><ele>306.0</ele><time>2026-05-03T07:43:26.369Z</time></trkpt><trkpt lat="45.7528417" lon="9.5980983"><ele>306.0</ele><time>2026-05-03T07:43:27.374Z</time></trkpt><trkpt lat="45.7529633" lon="9.59802"><ele>307.25</ele><time>2026-05-03T07:43:28.368Z</time></trkpt><trkpt lat="45.753075" lon="9.5979367"><ele>308.5</ele><time>2026-05-03T07:43:29.369Z</time></trkpt><trkpt lat="45.7531833" lon="9.597845"><ele>309.75</ele><time>2026-05-03T07:43:30.373Z</time></trkpt><trkpt lat="45.7532883" lon="9.5977533"><ele>311.0</ele><time>2026-05-03T07:43:31.374Z</time></trkpt><trkpt lat="45.7533867" lon="9.59765"><ele>311.5</ele><time>2026-05-03T07:43:32.375Z</time></trkpt><trkpt lat="45.7534833" lon="9.59754"><ele>312.0</ele><time>2026-05-03T07:43:33.372Z</time></trkpt><trkpt lat="45.753585" lon="9.5974233"><ele>312.5</ele><time>2026-05-03T07:43:34.375Z</time></trkpt><trkpt lat="45.7536833" lon="9.5972983"><ele>313.0</ele><time>2026-05-03T07:43:35.369Z</time></trkpt><trkpt lat="45.753785" lon="9.59717"><ele>313.25</ele><time>2026-05-03T07:43:36.369Z</time></trkpt><trkpt lat="45.7538833" lon="9.5970433"><ele>313.5</ele><time>2026-05-03T07:43:37.371Z</time></trkpt><trkpt lat="45.7539783" lon="9.5969233"><ele>313.75</ele><time>2026-05-03T07:43:38.372Z</time></trkpt><trkpt lat="45.754075" lon="9.596805"><ele>314.0</ele><time>2026-05-03T07:43:39.373Z</time></trkpt><trkpt lat="45.7541633" lon="9.5967"><ele>314.2</ele><time>2026-05-03T07:43:40.372Z</time></trkpt><trkpt lat="45.7542433" lon="9.5965917"><ele>314.4</ele><time>2026-05-03T07:43:41.372Z</time></trkpt><trkpt lat="45.75432" lon="9.5964883"><ele>314.6</ele><time>2026-05-03T07:43:42.373Z</time></trkpt><trkpt lat="45.7543983" lon="9.59639"><ele>314.8</ele><time>2026-05-03T07:43:43.373Z</time></trkpt><trkpt lat="45.7544733" lon="9.59629"><ele>315.0</ele><time>2026-05-03T07:43:44.372Z</time></trkpt><trkpt lat="45.7545567" lon="9.59619"><ele>316.8</ele><time>2026-05-03T07:43:45.372Z</time></trkpt><trkpt lat="45.7546417" lon="9.5961017"><ele>318.6</ele><time>2026-05-03T07:43:46.37Z</time></trkpt><trkpt lat="45.75473" lon="9.5960267"><ele>320.4</ele><time>2026-05-03T07:43:47.369Z</time></trkpt><trkpt lat="45.7548333" lon="9.5959733"><ele>322.2</ele><time>2026-05-03T07:43:48.369Z</time></trkpt><trkpt lat="45.754945" lon="9.5959333"><ele>324.0</ele><time>2026-05-03T07:43:49.37Z</time></trkpt><trkpt lat="45.7550617" lon="9.595895"><ele>324.0</ele><time>2026-05-03T07:43:50.371Z</time></trkpt><trkpt lat="45.7551817" lon="9.5958667"><ele>324.0</ele><time>2026-05-03T07:43:51.37Z</time></trkpt><trkpt lat="45.7552967" lon="9.59585"><ele>324.0</ele><time>2026-05-03T07:43:52.37Z</time></trkpt><trkpt lat="45.755415" lon="9.59584"><ele>324.0</ele><time>2026-05-03T07:43:53.369Z</time></trkpt><trkpt lat="45.7555283" lon="9.5958733"><ele>324.75</ele><time>2026-05-03T07:43:54.37Z</time></trkpt><trkpt lat="45.755645" lon="9.5959"><ele>325.5</ele><time>2026-05-03T07:43:55.37Z</time></trkpt><trkpt lat="45.7557567" lon="9.59595"><ele>326.25</ele><time>2026-05-03T07:43:56.372Z</time></trkpt><trkpt lat="45.7558617" lon="9.5960183"><ele>327.0</ele><time>2026-05-03T07:43:57.372Z</time></trkpt><trkpt lat="45.755965" lon="9.59609"><ele>326.5</ele><time>2026-05-03T07:43:58.369Z</time></trkpt><trkpt lat="45.7560667" lon="9.5961683"><ele>326.0</ele><time>2026-05-03T07:43:59.373Z</time></trkpt><trkpt lat="45.7561767" lon="9.5962317"><ele>325.5</ele><time>2026-05-03T07:44:00.372Z</time></trkpt><trkpt lat="45.7562917" lon="9.59629"><ele>325.0</ele><time>2026-05-03T07:44:01.373Z</time></trkpt><trkpt lat="45.75641" lon="9.5963267"><ele>325.0</ele><time>2026-05-03T07:44:02.373Z</time></trkpt><trkpt lat="45.75652" lon="9.5963367"><ele>325.0</ele><time>2026-05-03T07:44:03.372Z</time></trkpt><trkpt lat="45.75662" lon="9.59633"><ele>325.0</ele><time>2026-05-03T07:44:04.372Z</time></trkpt><trkpt lat="45.7567183" lon="9.5963167"><ele>325.0</ele><time>2026-05-03T07:44:05.373Z</time></trkpt><trkpt lat="45.7568167" lon="9.5962983"><ele>325.0</ele><time>2026-05-03T07:44:06.372Z</time></trkpt><trkpt lat="45.75692" lon="9.5962717"><ele>324.75</ele><time>2026-05-03T07:44:07.372Z</time></trkpt><trkpt lat="45.75703" lon="9.5962483"><ele>324.5</ele><time>2026-05-03T07:44:08.373Z</time></trkpt><trkpt lat="45.7571517" lon="9.5962417"><ele>324.25</ele><time>2026-05-03T07:44:09.373Z</time></trkpt><trkpt lat="45.757285" lon="9.5962567"><ele>324.0</ele><time>2026-05-03T07:44:10.373Z</time></trkpt><trkpt lat="45.7574233" lon="9.5962867"><ele>324.0</ele><time>2026-05-03T07:44:11.372Z</time></trkpt><trkpt lat="45.757575" lon="9.5963233"><ele>324.0</ele><time>2026-05-03T07:44:12.373Z</time></trkpt><trkpt lat="45.7577433" lon="9.5963617"><ele>324.0</ele><time>2026-05-03T07:44:13.372Z</time></trkpt><trkpt lat="45.75791" lon="9.5964"><ele>324.75</ele><time>2026-05-03T07:44:14.372Z</time></trkpt><trkpt lat="45.7580633" lon="9.5964433"><ele>325.5</ele><time>2026-05-03T07:44:15.372Z</time></trkpt><trkpt lat="45.7582017" lon="9.5964717"><ele>326.25</ele><time>2026-05-03T07:44:16.369Z</time></trkpt><trkpt lat="45.7583217" lon="9.59649"><ele>327.0</ele><time>2026-05-03T07:44:17.37Z</time></trkpt><trkpt lat="45.75843" lon="9.59648"><ele>327.0</ele><time>2026-05-03T07:44:18.369Z</time></trkpt><trkpt lat="45.7585317" lon="9.59644"><ele>327.0</ele><time>2026-05-03T07:44:19.368Z</time></trkpt><trkpt lat="45.75863" lon="9.5963683"><ele>327.0</ele><time>2026-05-03T07:44:20.369Z</time></trkpt><trkpt lat="45.758725" lon="9.596255"><ele>327.0</ele><time>2026-05-03T07:44:21.37Z</time></trkpt><trkpt lat="45.7588183" lon="9.5961317"><ele>328.0</ele><time>2026-05-03T07:44:22.371Z</time></trkpt><trkpt lat="45.7589133" lon="9.5959867"><ele>329.0</ele><time>2026-05-03T07:44:23.37Z</time></trkpt><trkpt lat="45.75902" lon="9.5958117"><ele>330.0</ele><time>2026-05-03T07:44:24.372Z</time></trkpt><trkpt lat="45.759145" lon="9.5956183"><ele>330.0</ele><time>2026-05-03T07:44:25.372Z</time></trkpt><trkpt lat="45.7592883" lon="9.5954167"><ele>330.0</ele><time>2026-05-03T07:44:26.373Z</time></trkpt><trkpt lat="45.7594333" lon="9.5952133"><ele>330.0</ele><time>2026-05-03T07:44:27.372Z</time></trkpt><trkpt lat="45.7595667" lon="9.5950233"><ele>327.3333333333333</ele><time>2026-05-03T07:44:28.369Z</time></trkpt><trkpt lat="45.7597" lon="9.59486"><ele>324.66666666666663</ele><time>2026-05-03T07:44:29.369Z</time></trkpt><trkpt lat="45.7598283" lon="9.59474"><ele>322.0</ele><time>2026-05-03T07:44:30.374Z</time></trkpt><trkpt lat="45.7599583" lon="9.5946733"><ele>322.0</ele><time>2026-05-03T07:44:31.37Z</time></trkpt><trkpt lat="45.7600883" lon="9.59463"><ele>322.0</ele><time>2026-05-03T07:44:32.372Z</time></trkpt><trkpt lat="45.76021" lon="9.59461"><ele>322.0</ele><time>2026-05-03T07:44:33.372Z</time></trkpt><trkpt lat="45.76033" lon="9.5945983"><ele>322.0</ele><time>2026-05-03T07:44:34.373Z</time></trkpt><trkpt lat="45.76045" lon="9.5945533"><ele>324.5</ele><time>2026-05-03T07:44:35.372Z</time></trkpt><trkpt lat="45.7605633" lon="9.5944717"><ele>327.0</ele><time>2026-05-03T07:44:36.37Z</time></trkpt><trkpt lat="45.7606533" lon="9.594335"><ele>329.5</ele><time>2026-05-03T07:44:37.372Z</time></trkpt><trkpt lat="45.7607433" lon="9.5941417"><ele>332.0</ele><time>2026-05-03T07:44:38.372Z</time></trkpt><trkpt lat="45.7608417" lon="9.5939083"><ele>332.0</ele><time>2026-05-03T07:44:39.372Z</time></trkpt><trkpt lat="45.760945" lon="9.5936733"><ele>332.0</ele><time>2026-05-03T07:44:40.373Z</time></trkpt><trkpt lat="45.7610617" lon="9.593415"><ele>332.0</ele><time>2026-05-03T07:44:41.372Z</time></trkpt><trkpt lat="45.7611867" lon="9.5931333"><ele>331.5</ele><time>2026-05-03T07:44:42.373Z</time></trkpt><trkpt lat="45.7613033" lon="9.59285"><ele>331.0</ele><time>2026-05-03T07:44:43.373Z</time></trkpt><trkpt lat="45.7614133" lon="9.59257"><ele>329.66666666666663</ele><time>2026-05-03T07:44:44.373Z</time></trkpt><trkpt lat="45.7615233" lon="9.5923017"><ele>328.3333333333333</ele><time>2026-05-03T07:44:45.372Z</time></trkpt><trkpt lat="45.7616283" lon="9.5920417"><ele>327.0</ele><time>2026-05-03T07:44:46.373Z</time></trkpt><trkpt lat="45.7617267" lon="9.591795"><ele>329.6666666666667</ele><time>2026-05-03T07:44:47.369Z</time></trkpt><trkpt lat="45.76183" lon="9.5915667"><ele>332.33333333333337</ele><time>2026-05-03T07:44:48.369Z</time></trkpt><trkpt lat="45.761935" lon="9.5913617"><ele>335.0</ele><time>2026-05-03T07:44:49.37Z</time></trkpt><trkpt lat="45.762045" lon="9.5911867"><ele>333.33333333333337</ele><time>2026-05-03T07:44:50.37Z</time></trkpt><trkpt lat="45.7621567" lon="9.5910283"><ele>331.6666666666667</ele><time>2026-05-03T07:44:51.369Z</time></trkpt><trkpt lat="45.76227" lon="9.590875"><ele>330.0</ele><time>2026-05-03T07:44:52.369Z</time></trkpt><trkpt lat="45.7623867" lon="9.59071"><ele>330.0</ele><time>2026-05-03T07:44:53.369Z</time></trkpt><trkpt lat="45.762515" lon="9.5905617"><ele>330.0</ele><time>2026-05-03T07:44:54.373Z</time></trkpt><trkpt lat="45.7626583" lon="9.5904367"><ele>330.0</ele><time>2026-05-03T07:44:55.373Z</time></trkpt><trkpt lat="45.7628183" lon="9.590355"><ele>332.0</ele><time>2026-05-03T07:44:56.372Z</time></trkpt><trkpt lat="45.7629867" lon="9.590315"><ele>334.0</ele><time>2026-05-03T07:44:57.373Z</time></trkpt><trkpt lat="45.7631483" lon="9.5903033"><ele>336.0</ele><time>2026-05-03T07:44:58.373Z</time></trkpt><trkpt lat="45.7633067" lon="9.5902717"><ele>336.0</ele><time>2026-05-03T07:44:59.372Z</time></trkpt><trkpt lat="45.7634467" lon="9.59018"><ele>336.0</ele><time>2026-05-03T07:45:00.372Z</time></trkpt><trkpt lat="45.7635683" lon="9.5900233"><ele>336.0</ele><time>2026-05-03T07:45:01.369Z</time></trkpt><trkpt lat="45.76367" lon="9.589825"><ele>331.3333333333333</ele><time>2026-05-03T07:45:02.373Z</time></trkpt><trkpt lat="45.763765" lon="9.5895833"><ele>326.66666666666663</ele><time>2026-05-03T07:45:03.373Z</time></trkpt><trkpt lat="45.76386" lon="9.589335"><ele>322.0</ele><time>2026-05-03T07:45:04.372Z</time></trkpt><trkpt lat="45.7639433" lon="9.5890717"><ele>322.0</ele><time>2026-05-03T07:45:05.372Z</time></trkpt><trkpt lat="45.7640033" lon="9.588795"><ele>322.0</ele><time>2026-05-03T07:45:06.372Z</time></trkpt><trkpt lat="45.7640433" lon="9.5885067"><ele>322.0</ele><time>2026-05-03T07:45:07.372Z</time></trkpt><trkpt lat="45.7640867" lon="9.5882067"><ele>324.66666666666663</ele><time>2026-05-03T07:45:08.372Z</time></trkpt><trkpt lat="45.7641433" lon="9.58791"><ele>327.3333333333333</ele><time>2026-05-03T07:45:09.373Z</time></trkpt><trkpt lat="45.7642017" lon="9.5876117"><ele>330.0</ele><time>2026-05-03T07:45:10.372Z</time></trkpt><trkpt lat="45.76427" lon="9.5873233"><ele>328.6666666666667</ele><time>2026-05-03T07:45:11.372Z</time></trkpt><trkpt lat="45.7643467" lon="9.58706"><ele>327.33333333333337</ele><time>2026-05-03T07:45:12.372Z</time></trkpt><trkpt lat="45.7644383" lon="9.5868217"><ele>326.0</ele><time>2026-05-03T07:45:13.372Z</time></trkpt><trkpt lat="45.7645483" lon="9.58661"><ele>326.0</ele><time>2026-05-03T07:45:14.372Z</time></trkpt><trkpt lat="45.7646833" lon="9.5864117"><ele>326.0</ele><time>2026-05-03T07:45:15.373Z</time></trkpt><trkpt lat="45.7648167" lon="9.58621"><ele>326.0</ele><time>2026-05-03T07:45:16.372Z</time></trkpt><trkpt lat="45.76496" lon="9.5860133"><ele>323.6666666666667</ele><time>2026-05-03T07:45:17.369Z</time></trkpt><trkpt lat="45.7651133" lon="9.5858267"><ele>321.3333333333333</ele><time>2026-05-03T07:45:18.37Z</time></trkpt><trkpt lat="45.7652817" lon="9.5856517"><ele>319.0</ele><time>2026-05-03T07:45:19.369Z</time></trkpt><trkpt lat="45.7654583" lon="9.5854933"><ele>325.0</ele><time>2026-05-03T07:45:20.371Z</time></trkpt><trkpt lat="45.7656283" lon="9.5853367"><ele>331.0</ele><time>2026-05-03T07:45:21.369Z</time></trkpt><trkpt lat="45.7657833" lon="9.5851583"><ele>337.0</ele><time>2026-05-03T07:45:22.372Z</time></trkpt><trkpt lat="45.7659233" lon="9.5849583"><ele>338.0</ele><time>2026-05-03T07:45:23.371Z</time></trkpt><trkpt lat="45.7660417" lon="9.58475"><ele>339.0</ele><time>2026-05-03T07:45:24.373Z</time></trkpt><trkpt lat="45.7661667" lon="9.5845633"><ele>340.0</ele><time>2026-05-03T07:45:25.373Z</time></trkpt><trkpt lat="45.7663017" lon="9.5844217"><ele>340.0</ele><time>2026-05-03T07:45:26.372Z</time></trkpt><trkpt lat="45.7664567" lon="9.584325"><ele>340.0</ele><time>2026-05-03T07:45:27.372Z</time></trkpt><trkpt lat="45.76664" lon="9.5842667"><ele>340.0</ele><time>2026-05-03T07:45:28.373Z</time></trkpt><trkpt lat="45.7668283" lon="9.5842117"><ele>336.0</ele><time>2026-05-03T07:45:29.373Z</time></trkpt><trkpt lat="45.76701" lon="9.5841233"><ele>332.0</ele><time>2026-05-03T07:45:30.373Z</time></trkpt><trkpt lat="45.7671867" lon="9.584015"><ele>328.0</ele><time>2026-05-03T07:45:31.373Z</time></trkpt><trkpt lat="45.76735" lon="9.5839033"><ele>328.0</ele><time>2026-05-03T07:45:32.37Z</time></trkpt><trkpt lat="45.7675" lon="9.5837933"><ele>328.0</ele><time>2026-05-03T07:45:33.372Z</time></trkpt><trkpt lat="45.7676433" lon="9.5836717"><ele>328.0</ele><time>2026-05-03T07:45:34.372Z</time></trkpt><trkpt lat="45.76778" lon="9.5835117"><ele>329.66666666666663</ele><time>2026-05-03T07:45:35.373Z</time></trkpt><trkpt lat="45.7679067" lon="9.58331"><ele>331.3333333333333</ele><time>2026-05-03T07:45:36.372Z</time></trkpt><trkpt lat="45.7680267" lon="9.5830883"><ele>333.0</ele><time>2026-05-03T07:45:37.373Z</time></trkpt><trkpt lat="45.7681417" lon="9.5828583"><ele>336.3333333333333</ele><time>2026-05-03T07:45:38.373Z</time></trkpt><trkpt lat="45.76825" lon="9.5826433"><ele>339.66666666666663</ele><time>2026-05-03T07:45:39.372Z</time></trkpt><trkpt lat="45.7683617" lon="9.582475"><ele>343.0</ele><time>2026-05-03T07:45:40.373Z</time></trkpt><trkpt lat="45.768485" lon="9.5823483"><ele>339.66666666666663</ele><time>2026-05-03T07:45:41.37Z</time></trkpt><trkpt lat="45.7686217" lon="9.5822717"><ele>336.3333333333333</ele><time>2026-05-03T07:45:42.37Z</time></trkpt><trkpt lat="45.768785" lon="9.5822483"><ele>333.0</ele><time>2026-05-03T07:45:43.369Z</time></trkpt><trkpt lat="45.7689433" lon="9.582195"><ele>333.0</ele><time>2026-05-03T07:45:44.373Z</time></trkpt><trkpt lat="45.769095" lon="9.5820917"><ele>333.0</ele><time>2026-05-03T07:45:45.372Z</time></trkpt><trkpt lat="45.769235" lon="9.5819383"><ele>333.0</ele><time>2026-05-03T07:45:46.374Z</time></trkpt><trkpt lat="45.7693583" lon="9.581745"><ele>331.0</ele><time>2026-05-03T07:45:47.369Z</time></trkpt><trkpt lat="45.7694717" lon="9.5815433"><ele>329.0</ele><time>2026-05-03T07:45:48.37Z</time></trkpt><trkpt lat="45.7695817" lon="9.5813633"><ele>327.0</ele><time>2026-05-03T07:45:49.371Z</time></trkpt><trkpt lat="45.7697083" lon="9.581215"><ele>334.6666666666667</ele><time>2026-05-03T07:45:50.371Z</time></trkpt><trkpt lat="45.7698533" lon="9.5811"><ele>342.33333333333337</ele><time>2026-05-03T07:45:51.369Z</time></trkpt><trkpt lat="45.7700083" lon="9.5809883"><ele>350.0</ele><time>2026-05-03T07:45:52.371Z</time></trkpt><trkpt lat="45.7701617" lon="9.58087"><ele>345.6666666666667</ele><time>2026-05-03T07:45:53.37Z</time></trkpt><trkpt lat="45.7703" lon="9.5807367"><ele>341.3333333333333</ele><time>2026-05-03T07:45:54.373Z</time></trkpt><trkpt lat="45.770425" lon="9.5805967"><ele>337.0</ele><time>2026-05-03T07:45:55.373Z</time></trkpt><trkpt lat="45.7705417" lon="9.5804667"><ele>337.0</ele><time>2026-05-03T07:45:56.373Z</time></trkpt><trkpt lat="45.77066" lon="9.5803617"><ele>337.0</ele><time>2026-05-03T07:45:57.372Z</time></trkpt><trkpt lat="45.77079" lon="9.580295"><ele>337.0</ele><time>2026-05-03T07:45:58.374Z</time></trkpt><trkpt lat="45.77092" lon="9.5802767"><ele>337.0</ele><time>2026-05-03T07:45:59.373Z</time></trkpt><trkpt lat="45.7710483" lon="9.5802933"><ele>338.0</ele><time>2026-05-03T07:46:00.374Z</time></trkpt><trkpt lat="45.7711783" lon="9.5803367"><ele>339.0</ele><time>2026-05-03T07:46:01.373Z</time></trkpt><trkpt lat="45.7713167" lon="9.5804017"><ele>340.0</ele><time>2026-05-03T07:46:02.372Z</time></trkpt><trkpt lat="45.771455" lon="9.5804767"><ele>341.0</ele><time>2026-05-03T07:46:03.373Z</time></trkpt><trkpt lat="45.771605" lon="9.5805333"><ele>341.0</ele><time>2026-05-03T07:46:04.375Z</time></trkpt><trkpt lat="45.7717533" lon="9.5805733"><ele>341.0</ele><time>2026-05-03T07:46:05.373Z</time></trkpt><trkpt lat="45.77191" lon="9.5805933"><ele>341.0</ele><time>2026-05-03T07:46:06.372Z</time></trkpt><trkpt lat="45.7720683" lon="9.5805983"><ele>340.6666666666667</ele><time>2026-05-03T07:46:07.373Z</time></trkpt><trkpt lat="45.7722333" lon="9.5806017"><ele>340.3333333333333</ele><time>2026-05-03T07:46:08.374Z</time></trkpt><trkpt lat="45.7724033" lon="9.580605"><ele>340.0</ele><time>2026-05-03T07:46:09.373Z</time></trkpt><trkpt lat="45.772585" lon="9.5806133"><ele>339.66666666666663</ele><time>2026-05-03T07:46:10.369Z</time></trkpt><trkpt lat="45.7727717" lon="9.58063"><ele>339.3333333333333</ele><time>2026-05-03T07:46:11.373Z</time></trkpt><trkpt lat="45.7729567" lon="9.5806467"><ele>339.0</ele><time>2026-05-03T07:46:12.373Z</time></trkpt><trkpt lat="45.7731417" lon="9.580665"><ele>339.0</ele><time>2026-05-03T07:46:13.373Z</time></trkpt><trkpt lat="45.7733267" lon="9.580685"><ele>339.0</ele><time>2026-05-03T07:46:14.373Z</time></trkpt><trkpt lat="45.7735067" lon="9.5807017"><ele>339.0</ele><time>2026-05-03T07:46:15.373Z</time></trkpt><trkpt lat="45.7736767" lon="9.5807133"><ele>341.6666666666667</ele><time>2026-05-03T07:46:16.374Z</time></trkpt><trkpt lat="45.773835" lon="9.58073"><ele>344.33333333333337</ele><time>2026-05-03T07:46:17.369Z</time></trkpt><trkpt lat="45.7739867" lon="9.5807467"><ele>347.0</ele><time>2026-05-03T07:46:18.369Z</time></trkpt><trkpt lat="45.7741383" lon="9.5807633"><ele>347.0</ele><time>2026-05-03T07:46:19.37Z</time></trkpt><trkpt lat="45.7742983" lon="9.5807783"><ele>347.0</ele><time>2026-05-03T07:46:20.372Z</time></trkpt><trkpt lat="45.774465" lon="9.58079"><ele>347.0</ele><time>2026-05-03T07:46:21.369Z</time></trkpt><trkpt lat="45.7746317" lon="9.5808"><ele>346.6666666666667</ele><time>2026-05-03T07:46:22.371Z</time></trkpt><trkpt lat="45.774795" lon="9.580805"><ele>346.3333333333333</ele><time>2026-05-03T07:46:23.372Z</time></trkpt><trkpt lat="45.7749633" lon="9.5807967"><ele>346.0</ele><time>2026-05-03T07:46:24.373Z</time></trkpt><trkpt lat="45.7751333" lon="9.5807717"><ele>343.66666666666663</ele><time>2026-05-03T07:46:25.373Z</time></trkpt><trkpt lat="45.77531" lon="9.58073"><ele>341.3333333333333</ele><time>2026-05-03T07:46:26.373Z</time></trkpt><trkpt lat="45.7754883" lon="9.5806733"><ele>339.0</ele><time>2026-05-03T07:46:27.373Z</time></trkpt><trkpt lat="45.7756733" lon="9.5806117"><ele>339.0</ele><time>2026-05-03T07:46:28.373Z</time></trkpt><trkpt lat="45.7758617" lon="9.5805467"><ele>339.0</ele><time>2026-05-03T07:46:29.374Z</time></trkpt><trkpt lat="45.7760533" lon="9.5804833"><ele>339.0</ele><time>2026-05-03T07:46:30.373Z</time></trkpt><trkpt lat="45.776245" lon="9.5804233"><ele>338.0</ele><time>2026-05-03T07:46:31.374Z</time></trkpt><trkpt lat="45.776435" lon="9.58036"><ele>337.0</ele><time>2026-05-03T07:46:32.373Z</time></trkpt><trkpt lat="45.7766267" lon="9.5802983"><ele>336.0</ele><time>2026-05-03T07:46:33.372Z</time></trkpt><trkpt lat="45.776815" lon="9.5802383"><ele>341.0</ele><time>2026-05-03T07:46:34.373Z</time></trkpt><trkpt lat="45.7769917" lon="9.5801883"><ele>346.0</ele><time>2026-05-03T07:46:35.373Z</time></trkpt><trkpt lat="45.7771533" lon="9.5801433"><ele>351.0</ele><time>2026-05-03T07:46:36.373Z</time></trkpt><trkpt lat="45.7772983" lon="9.5801017"><ele>351.0</ele><time>2026-05-03T07:46:37.374Z</time></trkpt><trkpt lat="45.7774317" lon="9.580025"><ele>351.0</ele><time>2026-05-03T07:46:38.374Z</time></trkpt><trkpt lat="45.7775483" lon="9.5799067"><ele>351.0</ele><time>2026-05-03T07:46:39.374Z</time></trkpt><trkpt lat="45.7776533" lon="9.5797667"><ele>351.0</ele><time>2026-05-03T07:46:40.373Z</time></trkpt><trkpt lat="45.77774" lon="9.5796167"><ele>346.25</ele><time>2026-05-03T07:46:41.373Z</time></trkpt><trkpt lat="45.7777983" lon="9.5794567"><ele>341.5</ele><time>2026-05-03T07:46:42.373Z</time></trkpt><trkpt lat="45.7778267" lon="9.5792683"><ele>336.75</ele><time>2026-05-03T07:46:43.372Z</time></trkpt><trkpt lat="45.7778283" lon="9.57905"><ele>332.0</ele><time>2026-05-03T07:46:44.372Z</time></trkpt><trkpt lat="45.7778267" lon="9.5788167"><ele>338.33333333333337</ele><time>2026-05-03T07:46:45.374Z</time></trkpt><trkpt lat="45.77785" lon="9.57859"><ele>344.6666666666667</ele><time>2026-05-03T07:46:46.369Z</time></trkpt><trkpt lat="45.777905" lon="9.5783883"><ele>351.0</ele><time>2026-05-03T07:46:47.37Z</time></trkpt><trkpt lat="45.778005" lon="9.5782033"><ele>351.0</ele><time>2026-05-03T07:46:48.369Z</time></trkpt><trkpt lat="45.778155" lon="9.5780167"><ele>351.0</ele><time>2026-05-03T07:46:49.37Z</time></trkpt><trkpt lat="45.77834" lon="9.5778367"><ele>351.0</ele><time>2026-05-03T07:46:50.371Z</time></trkpt><trkpt lat="45.7785367" lon="9.5776667"><ele>349.0</ele><time>2026-05-03T07:46:51.37Z</time></trkpt><trkpt lat="45.77872" lon="9.57748"><ele>347.0</ele><time>2026-05-03T07:46:52.37Z</time></trkpt><trkpt lat="45.7788983" lon="9.5772583"><ele>355.5</ele><time>2026-05-03T07:46:53.371Z</time></trkpt><trkpt lat="45.77907" lon="9.5770133"><ele>364.0</ele><time>2026-05-03T07:46:54.372Z</time></trkpt><trkpt lat="45.7792333" lon="9.576785"><ele>357.0</ele><time>2026-05-03T07:46:55.374Z</time></trkpt><trkpt lat="45.77938" lon="9.5765833"><ele>350.0</ele><time>2026-05-03T07:46:56.373Z</time></trkpt><trkpt lat="45.7795183" lon="9.576415"><ele>343.0</ele><time>2026-05-03T07:46:57.374Z</time></trkpt><trkpt lat="45.779655" lon="9.57628"><ele>345.0</ele><time>2026-05-03T07:46:58.373Z</time></trkpt><trkpt lat="45.7797933" lon="9.5761733"><ele>347.0</ele><time>2026-05-03T07:46:59.373Z</time></trkpt><trkpt lat="45.7799283" lon="9.5760867"><ele>349.0</ele><time>2026-05-03T07:47:00.373Z</time></trkpt><trkpt lat="45.78006" lon="9.5760133"><ele>351.0</ele><time>2026-05-03T07:47:01.37Z</time></trkpt><trkpt lat="45.7801883" lon="9.575935"><ele>351.0</ele><time>2026-05-03T07:47:02.374Z</time></trkpt><trkpt lat="45.780315" lon="9.575855"><ele>351.0</ele><time>2026-05-03T07:47:03.37Z</time></trkpt><trkpt lat="45.7804417" lon="9.5757733"><ele>351.0</ele><time>2026-05-03T07:47:04.373Z</time></trkpt><trkpt lat="45.7805617" lon="9.575695"><ele>351.0</ele><time>2026-05-03T07:47:05.37Z</time></trkpt><trkpt lat="45.7806733" lon="9.5756067"><ele>351.0</ele><time>2026-05-03T07:47:06.373Z</time></trkpt><trkpt lat="45.7807817" lon="9.5754867"><ele>351.0</ele><time>2026-05-03T07:47:07.374Z</time></trkpt><trkpt lat="45.78088" lon="9.5753217"><ele>351.0</ele><time>2026-05-03T07:47:08.374Z</time></trkpt><trkpt lat="45.7809883" lon="9.5751167"><ele>353.6666666666667</ele><time>2026-05-03T07:47:09.373Z</time></trkpt><trkpt lat="45.7811133" lon="9.57487"><ele>356.33333333333337</ele><time>2026-05-03T07:47:10.374Z</time></trkpt><trkpt lat="45.78125" lon="9.5746117"><ele>359.0</ele><time>2026-05-03T07:47:11.375Z</time></trkpt><trkpt lat="45.781375" lon="9.5743733"><ele>359.0</ele><time>2026-05-03T07:47:12.373Z</time></trkpt><trkpt lat="45.78149" lon="9.57417"><ele>359.0</ele><time>2026-05-03T07:47:13.374Z</time></trkpt><trkpt lat="45.7815983" lon="9.574"><ele>359.0</ele><time>2026-05-03T07:47:14.373Z</time></trkpt><trkpt lat="45.7817083" lon="9.5738633"><ele>359.0</ele><time>2026-05-03T07:47:15.373Z</time></trkpt><trkpt lat="45.781825" lon="9.5737517"><ele>359.0</ele><time>2026-05-03T07:47:16.373Z</time></trkpt><trkpt lat="45.7819367" lon="9.5736567"><ele>359.0</ele><time>2026-05-03T07:47:17.371Z</time></trkpt><trkpt lat="45.78205" lon="9.57359"><ele>359.0</ele><time>2026-05-03T07:47:18.37Z</time></trkpt><trkpt lat="45.78216" lon="9.5735467"><ele>359.75</ele><time>2026-05-03T07:47:19.371Z</time></trkpt><trkpt lat="45.78227" lon="9.57352"><ele>360.5</ele><time>2026-05-03T07:47:20.37Z</time></trkpt><trkpt lat="45.7823833" lon="9.573505"><ele>361.25</ele><time>2026-05-03T07:47:21.371Z</time></trkpt><trkpt lat="45.7824983" lon="9.5734933"><ele>362.0</ele><time>2026-05-03T07:47:22.373Z</time></trkpt><trkpt lat="45.7826083" lon="9.5734967"><ele>363.20000000000005</ele><time>2026-05-03T07:47:23.371Z</time></trkpt><trkpt lat="45.782715" lon="9.5734983"><ele>364.4</ele><time>2026-05-03T07:47:24.373Z</time></trkpt><trkpt lat="45.7828183" lon="9.5735017"><ele>365.6</ele><time>2026-05-03T07:47:25.374Z</time></trkpt><trkpt lat="45.7829117" lon="9.573505"><ele>366.79999999999995</ele><time>2026-05-03T07:47:26.373Z</time></trkpt><trkpt lat="45.7830033" lon="9.5735117"><ele>368.0</ele><time>2026-05-03T07:47:27.374Z</time></trkpt><trkpt lat="45.7830933" lon="9.57351"><ele>368.0</ele><time>2026-05-03T07:47:28.369Z</time></trkpt><trkpt lat="45.7831817" lon="9.57352"><ele>368.0</ele><time>2026-05-03T07:47:29.374Z</time></trkpt><trkpt lat="45.7832733" lon="9.5735267"><ele>368.0</ele><time>2026-05-03T07:47:30.369Z</time></trkpt><trkpt lat="45.7833583" lon="9.57354"><ele>368.0</ele><time>2026-05-03T07:47:31.373Z</time></trkpt><trkpt lat="45.7834417" lon="9.573545"><ele>368.0</ele><time>2026-05-03T07:47:32.372Z</time></trkpt><trkpt lat="45.7835233" lon="9.57355"><ele>368.0</ele><time>2026-05-03T07:47:33.373Z</time></trkpt><trkpt lat="45.7835983" lon="9.5735617"><ele>367.5</ele><time>2026-05-03T07:47:34.373Z</time></trkpt><trkpt lat="45.7836767" lon="9.5735733"><ele>367.0</ele><time>2026-05-03T07:47:35.373Z</time></trkpt><trkpt lat="45.7837567" lon="9.5735883"><ele>366.5</ele><time>2026-05-03T07:47:36.369Z</time></trkpt><trkpt lat="45.7838417" lon="9.5736083"><ele>366.0</ele><time>2026-05-03T07:47:37.374Z</time></trkpt><trkpt lat="45.78393" lon="9.57362"><ele>365.5</ele><time>2026-05-03T07:47:38.37Z</time></trkpt><trkpt lat="45.7840267" lon="9.57364"><ele>365.0</ele><time>2026-05-03T07:47:39.371Z</time></trkpt><trkpt lat="45.7841283" lon="9.5736533"><ele>365.0</ele><time>2026-05-03T07:47:40.37Z</time></trkpt><trkpt lat="45.7842283" lon="9.57365"><ele>365.0</ele><time>2026-05-03T07:47:41.371Z</time></trkpt><trkpt lat="45.7843183" lon="9.5736333"><ele>365.0</ele><time>2026-05-03T07:47:42.371Z</time></trkpt><trkpt lat="45.7844" lon="9.57362"><ele>365.0</ele><time>2026-05-03T07:47:43.371Z</time></trkpt><trkpt lat="45.7844767" lon="9.573635"><ele>365.0</ele><time>2026-05-03T07:47:44.373Z</time></trkpt><trkpt lat="45.7845483" lon="9.5736283"><ele>365.0</ele><time>2026-05-03T07:47:45.374Z</time></trkpt><trkpt lat="45.7846233" lon="9.5736167"><ele>364.14285714285717</ele><time>2026-05-03T07:47:46.369Z</time></trkpt><trkpt lat="45.7846967" lon="9.5736183"><ele>363.2857142857143</ele><time>2026-05-03T07:47:47.371Z</time></trkpt><trkpt lat="45.7847633" lon="9.5736"><ele>362.42857142857144</ele><time>2026-05-03T07:47:48.37Z</time></trkpt><trkpt lat="45.784835" lon="9.5735867"><ele>361.57142857142856</ele><time>2026-05-03T07:47:49.37Z</time></trkpt><trkpt lat="45.7848867" lon="9.5735267"><ele>360.7142857142857</ele><time>2026-05-03T07:47:50.371Z</time></trkpt><trkpt lat="45.7849367" lon="9.5734683"><ele>359.8571428571429</ele><time>2026-05-03T07:47:51.37Z</time></trkpt><trkpt lat="45.7849817" lon="9.5733933"><ele>359.0</ele><time>2026-05-03T07:47:52.369Z</time></trkpt><trkpt lat="45.7850233" lon="9.5733167"><ele>359.0</ele><time>2026-05-03T07:47:53.371Z</time></trkpt><trkpt lat="45.78507" lon="9.57325"><ele>359.0</ele><time>2026-05-03T07:47:54.371Z</time></trkpt><trkpt lat="45.7851133" lon="9.57317"><ele>359.0</ele><time>2026-05-03T07:47:55.37Z</time></trkpt><trkpt lat="45.78517" lon="9.573085"><ele>359.0</ele><time>2026-05-03T07:47:56.371Z</time></trkpt><trkpt lat="45.7852317" lon="9.5729983"><ele>359.0</ele><time>2026-05-03T07:47:57.376Z</time></trkpt><trkpt lat="45.7853083" lon="9.5729183"><ele>359.0</ele><time>2026-05-03T07:47:58.373Z</time></trkpt><trkpt lat="45.7854117" lon="9.5728433"><ele>359.6666666666667</ele><time>2026-05-03T07:47:59.373Z</time></trkpt><trkpt lat="45.7855533" lon="9.5727683"><ele>360.3333333333333</ele><time>2026-05-03T07:48:00.373Z</time></trkpt><trkpt lat="45.7857283" lon="9.5727"><ele>361.0</ele><time>2026-05-03T07:48:01.373Z</time></trkpt><trkpt lat="45.78592" lon="9.5726433"><ele>359.66666666666663</ele><time>2026-05-03T07:48:02.372Z</time></trkpt><trkpt lat="45.78611" lon="9.5725933"><ele>358.3333333333333</ele><time>2026-05-03T07:48:03.373Z</time></trkpt><trkpt lat="45.78628" lon="9.572545"><ele>357.0</ele><time>2026-05-03T07:48:04.372Z</time></trkpt><trkpt lat="45.7864317" lon="9.5725"><ele>357.0</ele><time>2026-05-03T07:48:05.373Z</time></trkpt><trkpt lat="45.7865717" lon="9.5724567"><ele>357.0</ele><time>2026-05-03T07:48:06.37Z</time></trkpt><trkpt lat="45.7867017" lon="9.5724017"><ele>357.0</ele><time>2026-05-03T07:48:07.373Z</time></trkpt><trkpt lat="45.786825" lon="9.5723333"><ele>357.0</ele><time>2026-05-03T07:48:08.372Z</time></trkpt><trkpt lat="45.78694" lon="9.5722483"><ele>354.0</ele><time>2026-05-03T07:48:09.373Z</time></trkpt><trkpt lat="45.7870533" lon="9.572165"><ele>351.0</ele><time>2026-05-03T07:48:10.373Z</time></trkpt><trkpt lat="45.7871717" lon="9.5720867"><ele>348.0</ele><time>2026-05-03T07:48:11.372Z</time></trkpt><trkpt lat="45.787285" lon="9.57201"><ele>345.0</ele><time>2026-05-03T07:48:12.37Z</time></trkpt><trkpt lat="45.7873967" lon="9.5719467"><ele>348.25</ele><time>2026-05-03T07:48:13.37Z</time></trkpt><trkpt lat="45.7875083" lon="9.5719033"><ele>351.5</ele><time>2026-05-03T07:48:14.373Z</time></trkpt><trkpt lat="45.787625" lon="9.5718783"><ele>354.75</ele><time>2026-05-03T07:48:15.372Z</time></trkpt><trkpt lat="45.7877433" lon="9.571865"><ele>358.0</ele><time>2026-05-03T07:48:16.372Z</time></trkpt><trkpt lat="45.7878633" lon="9.5718517"><ele>358.0</ele><time>2026-05-03T07:48:17.369Z</time></trkpt><trkpt lat="45.7879833" lon="9.5718283"><ele>358.0</ele><time>2026-05-03T07:48:18.369Z</time></trkpt><trkpt lat="45.7881017" lon="9.571785"><ele>358.0</ele><time>2026-05-03T07:48:19.37Z</time></trkpt><trkpt lat="45.7882167" lon="9.5717167"><ele>358.0</ele><time>2026-05-03T07:48:20.37Z</time></trkpt><trkpt lat="45.7883233" lon="9.57164"><ele>358.0</ele><time>2026-05-03T07:48:21.368Z</time></trkpt><trkpt lat="45.788425" lon="9.5715617"><ele>358.0</ele><time>2026-05-03T07:48:22.369Z</time></trkpt><trkpt lat="45.7885233" lon="9.5714833"><ele>358.0</ele><time>2026-05-03T07:48:23.37Z</time></trkpt><trkpt lat="45.7886183" lon="9.5714"><ele>358.0</ele><time>2026-05-03T07:48:24.374Z</time></trkpt><trkpt lat="45.788705" lon="9.5713217"><ele>358.0</ele><time>2026-05-03T07:48:25.369Z</time></trkpt><trkpt lat="45.7887817" lon="9.5712367"><ele>357.25</ele><time>2026-05-03T07:48:26.37Z</time></trkpt><trkpt lat="45.78885" lon="9.5711317"><ele>356.5</ele><time>2026-05-03T07:48:27.373Z</time></trkpt><trkpt lat="45.788905" lon="9.5709983"><ele>355.75</ele><time>2026-05-03T07:48:28.372Z</time></trkpt><trkpt lat="45.7889383" lon="9.570835"><ele>355.0</ele><time>2026-05-03T07:48:29.373Z</time></trkpt><trkpt lat="45.788965" lon="9.57065"><ele>355.0</ele><time>2026-05-03T07:48:30.372Z</time></trkpt><trkpt lat="45.7889833" lon="9.57044"><ele>355.0</ele><time>2026-05-03T07:48:31.373Z</time></trkpt><trkpt lat="45.788995" lon="9.5702117"><ele>355.0</ele><time>2026-05-03T07:48:32.372Z</time></trkpt><trkpt lat="45.789015" lon="9.5699633"><ele>356.66666666666663</ele><time>2026-05-03T07:48:33.372Z</time></trkpt><trkpt lat="45.789045" lon="9.5696933"><ele>358.3333333333333</ele><time>2026-05-03T07:48:34.374Z</time></trkpt><trkpt lat="45.78908" lon="9.56941"><ele>360.0</ele><time>2026-05-03T07:48:35.372Z</time></trkpt><trkpt lat="45.7891133" lon="9.569125"><ele>362.3333333333333</ele><time>2026-05-03T07:48:36.373Z</time></trkpt><trkpt lat="45.7891567" lon="9.5688367"><ele>364.66666666666663</ele><time>2026-05-03T07:48:37.372Z</time></trkpt><trkpt lat="45.7892" lon="9.568555"><ele>367.0</ele><time>2026-05-03T07:48:38.372Z</time></trkpt><trkpt lat="45.789265" lon="9.5682917"><ele>362.3333333333333</ele><time>2026-05-03T07:48:39.373Z</time></trkpt><trkpt lat="45.78933" lon="9.5680433"><ele>357.6666666666667</ele><time>2026-05-03T07:48:40.372Z</time></trkpt><trkpt lat="45.7894183" lon="9.5678133"><ele>353.0</ele><time>2026-05-03T07:48:41.373Z</time></trkpt><trkpt lat="45.78952" lon="9.5676033"><ele>353.0</ele><time>2026-05-03T07:48:42.373Z</time></trkpt><trkpt lat="45.7896367" lon="9.56741"><ele>353.0</ele><time>2026-05-03T07:48:43.373Z</time></trkpt><trkpt lat="45.7897633" lon="9.5672317"><ele>353.0</ele><time>2026-05-03T07:48:44.372Z</time></trkpt><trkpt lat="45.7899" lon="9.5670633"><ele>356.33333333333337</ele><time>2026-05-03T07:48:45.372Z</time></trkpt><trkpt lat="45.790025" lon="9.5669133"><ele>359.6666666666667</ele><time>2026-05-03T07:48:46.372Z</time></trkpt><trkpt lat="45.7901567" lon="9.566795"><ele>363.0</ele><time>2026-05-03T07:48:47.369Z</time></trkpt><trkpt lat="45.790295" lon="9.56672"><ele>363.0</ele><time>2026-05-03T07:48:48.372Z</time></trkpt><trkpt lat="45.790445" lon="9.5667017"><ele>363.0</ele><time>2026-05-03T07:48:49.369Z</time></trkpt><trkpt lat="45.7905933" lon="9.5666967"><ele>363.0</ele><time>2026-05-03T07:48:50.369Z</time></trkpt><trkpt lat="45.79074" lon="9.5666867"><ele>363.0</ele><time>2026-05-03T07:48:51.37Z</time></trkpt><trkpt lat="45.79089" lon="9.56668"><ele>362.0</ele><time>2026-05-03T07:48:52.369Z</time></trkpt><trkpt lat="45.7910467" lon="9.5666617"><ele>361.0</ele><time>2026-05-03T07:48:53.37Z</time></trkpt><trkpt lat="45.7912033" lon="9.5666333"><ele>360.0</ele><time>2026-05-03T07:48:54.37Z</time></trkpt><trkpt lat="45.7913683" lon="9.5666283"><ele>360.0</ele><time>2026-05-03T07:48:55.372Z</time></trkpt><trkpt lat="45.7915417" lon="9.5666283"><ele>360.0</ele><time>2026-05-03T07:48:56.372Z</time></trkpt><trkpt lat="45.791725" lon="9.56661"><ele>360.0</ele><time>2026-05-03T07:48:57.373Z</time></trkpt><trkpt lat="45.7919083" lon="9.566585"><ele>370.66666666666663</ele><time>2026-05-03T07:48:58.372Z</time></trkpt><trkpt lat="45.7920783" lon="9.5665483"><ele>381.3333333333333</ele><time>2026-05-03T07:48:59.373Z</time></trkpt><trkpt lat="45.79224" lon="9.5665017"><ele>392.0</ele><time>2026-05-03T07:49:00.369Z</time></trkpt><trkpt lat="45.7924017" lon="9.5664583"><ele>392.0</ele><time>2026-05-03T07:49:01.37Z</time></trkpt><trkpt lat="45.7925633" lon="9.566415"><ele>392.0</ele><time>2026-05-03T07:49:02.369Z</time></trkpt><trkpt lat="45.7927217" lon="9.5663667"><ele>392.0</ele><time>2026-05-03T07:49:03.369Z</time></trkpt><trkpt lat="45.79288" lon="9.5663267"><ele>398.66666666666663</ele><time>2026-05-03T07:49:04.369Z</time></trkpt><trkpt lat="45.7930383" lon="9.566285"><ele>405.33333333333337</ele><time>2026-05-03T07:49:05.371Z</time></trkpt><trkpt lat="45.7931983" lon="9.5662433"><ele>412.0</ele><time>2026-05-03T07:49:06.371Z</time></trkpt><trkpt lat="45.7933583" lon="9.5662"><ele>404.25</ele><time>2026-05-03T07:49:07.37Z</time></trkpt><trkpt lat="45.7935317" lon="9.5661183"><ele>396.5</ele><time>2026-05-03T07:49:08.369Z</time></trkpt><trkpt lat="45.79364" lon="9.5661417"><ele>388.75</ele><time>2026-05-03T07:49:09.369Z</time></trkpt><trkpt lat="45.7937717" lon="9.5660933"><ele>381.0</ele><time>2026-05-03T07:49:10.369Z</time></trkpt><trkpt lat="45.7939017" lon="9.56597"><ele>381.0</ele><time>2026-05-03T07:49:11.371Z</time></trkpt><trkpt lat="45.7940433" lon="9.565845"><ele>381.0</ele><time>2026-05-03T07:49:12.369Z</time></trkpt><trkpt lat="45.7941917" lon="9.5657167"><ele>381.0</ele><time>2026-05-03T07:49:13.369Z</time></trkpt><trkpt lat="45.7943467" lon="9.5655983"><ele>379.6666666666667</ele><time>2026-05-03T07:49:14.37Z</time></trkpt><trkpt lat="45.7944883" lon="9.56546"><ele>378.33333333333337</ele><time>2026-05-03T07:49:15.369Z</time></trkpt><trkpt lat="45.7946167" lon="9.565315"><ele>377.0</ele><time>2026-05-03T07:49:16.369Z</time></trkpt><trkpt lat="45.794715" lon="9.565135"><ele>377.0</ele><time>2026-05-03T07:49:17.372Z</time></trkpt><trkpt lat="45.7948" lon="9.5649483"><ele>377.0</ele><time>2026-05-03T07:49:18.37Z</time></trkpt><trkpt lat="45.794875" lon="9.56475"><ele>377.0</ele><time>2026-05-03T07:49:19.37Z</time></trkpt><trkpt lat="45.79495" lon="9.5645533"><ele>380.25</ele><time>2026-05-03T07:49:20.371Z</time></trkpt><trkpt lat="45.795025" lon="9.5643733"><ele>383.5</ele><time>2026-05-03T07:49:21.371Z</time></trkpt><trkpt lat="45.7951067" lon="9.56421"><ele>386.75</ele><time>2026-05-03T07:49:22.369Z</time></trkpt><trkpt lat="45.7951883" lon="9.56407"><ele>390.0</ele><time>2026-05-03T07:49:23.371Z</time></trkpt><trkpt lat="45.79527" lon="9.5639583"><ele>390.0</ele><time>2026-05-03T07:49:24.373Z</time></trkpt><trkpt lat="45.7953583" lon="9.5638867"><ele>390.0</ele><time>2026-05-03T07:49:25.372Z</time></trkpt><trkpt lat="45.7954583" lon="9.56383"><ele>390.0</ele><time>2026-05-03T07:49:26.372Z</time></trkpt><trkpt lat="45.7955533" lon="9.5637733"><ele>390.0</ele><time>2026-05-03T07:49:27.368Z</time></trkpt><trkpt lat="45.7956367" lon="9.5637083"><ele>390.0</ele><time>2026-05-03T07:49:28.372Z</time></trkpt><trkpt lat="45.795705" lon="9.5636183"><ele>386.4</ele><time>2026-05-03T07:49:29.372Z</time></trkpt><trkpt lat="45.7957467" lon="9.5635033"><ele>382.8</ele><time>2026-05-03T07:49:30.371Z</time></trkpt><trkpt lat="45.795775" lon="9.5633683"><ele>379.20000000000005</ele><time>2026-05-03T07:49:31.373Z</time></trkpt><trkpt lat="45.7958083" lon="9.5632267"><ele>375.6</ele><time>2026-05-03T07:49:32.372Z</time></trkpt><trkpt lat="45.7958683" lon="9.5630917"><ele>372.0</ele><time>2026-05-03T07:49:33.373Z</time></trkpt><trkpt lat="45.7959517" lon="9.5629717"><ele>371.0</ele><time>2026-05-03T07:49:34.373Z</time></trkpt><trkpt lat="45.7960517" lon="9.5628667"><ele>370.0</ele><time>2026-05-03T07:49:35.373Z</time></trkpt><trkpt lat="45.7961467" lon="9.56278"><ele>369.0</ele><time>2026-05-03T07:49:36.372Z</time></trkpt><trkpt lat="45.79623" lon="9.56273"><ele>368.0</ele><time>2026-05-03T07:49:37.372Z</time></trkpt><trkpt lat="45.7963067" lon="9.5626917"><ele>367.0</ele><time>2026-05-03T07:49:38.369Z</time></trkpt><trkpt lat="45.7963883" lon="9.562685"><ele>367.0</ele><time>2026-05-03T07:49:39.373Z</time></trkpt><trkpt lat="45.7964717" lon="9.5626817"><ele>367.0</ele><time>2026-05-03T07:49:40.37Z</time></trkpt><trkpt lat="45.79659" lon="9.56281"><ele>367.0</ele><time>2026-05-03T07:49:41.372Z</time></trkpt><trkpt lat="45.7967" lon="9.56294"><ele>367.0</ele><time>2026-05-03T07:49:42.371Z</time></trkpt><trkpt lat="45.7968017" lon="9.5630883"><ele>370.3333333333333</ele><time>2026-05-03T07:49:43.372Z</time></trkpt><trkpt lat="45.796905" lon="9.5632333"><ele>373.6666666666667</ele><time>2026-05-03T07:49:44.374Z</time></trkpt><trkpt lat="45.7970083" lon="9.5633983"><ele>377.0</ele><time>2026-05-03T07:49:45.373Z</time></trkpt><trkpt lat="45.7971" lon="9.56357"><ele>382.6666666666667</ele><time>2026-05-03T07:49:46.372Z</time></trkpt><trkpt lat="45.79719" lon="9.56375"><ele>388.33333333333337</ele><time>2026-05-03T07:49:47.369Z</time></trkpt><trkpt lat="45.7972833" lon="9.5639217"><ele>394.0</ele><time>2026-05-03T07:49:48.372Z</time></trkpt><trkpt lat="45.797385" lon="9.56408"><ele>394.0</ele><time>2026-05-03T07:49:49.373Z</time></trkpt><trkpt lat="45.79751" lon="9.5642167"><ele>394.0</ele><time>2026-05-03T07:49:50.372Z</time></trkpt><trkpt lat="45.7976483" lon="9.5643183"><ele>394.0</ele><time>2026-05-03T07:49:51.372Z</time></trkpt><trkpt lat="45.7978083" lon="9.5644017"><ele>395.75</ele><time>2026-05-03T07:49:52.372Z</time></trkpt><trkpt lat="45.7979667" lon="9.56448"><ele>397.5</ele><time>2026-05-03T07:49:53.373Z</time></trkpt><trkpt lat="45.79811" lon="9.5645367"><ele>399.25</ele><time>2026-05-03T07:49:54.373Z</time></trkpt><trkpt lat="45.798225" lon="9.5645933"><ele>401.0</ele><time>2026-05-03T07:49:55.372Z</time></trkpt><trkpt lat="45.798315" lon="9.5646567"><ele>401.0</ele><time>2026-05-03T07:49:56.373Z</time></trkpt><trkpt lat="45.79839" lon="9.56474"><ele>401.0</ele><time>2026-05-03T07:49:57.372Z</time></trkpt><trkpt lat="45.798445" lon="9.564845"><ele>401.0</ele><time>2026-05-03T07:49:58.372Z</time></trkpt><trkpt lat="45.7984833" lon="9.5649767"><ele>401.0</ele><time>2026-05-03T07:49:59.372Z</time></trkpt><trkpt lat="45.7985083" lon="9.5651267"><ele>401.0</ele><time>2026-05-03T07:50:00.372Z</time></trkpt><trkpt lat="45.7985317" lon="9.5652783"><ele>399.66666666666663</ele><time>2026-05-03T07:50:01.373Z</time></trkpt><trkpt lat="45.7985617" lon="9.5654267"><ele>398.3333333333333</ele><time>2026-05-03T07:50:02.373Z</time></trkpt><trkpt lat="45.7986183" lon="9.5655433"><ele>397.0</ele><time>2026-05-03T07:50:03.372Z</time></trkpt><trkpt lat="45.7986817" lon="9.565635"><ele>395.66666666666663</ele><time>2026-05-03T07:50:04.373Z</time></trkpt><trkpt lat="45.79874" lon="9.5657133"><ele>394.3333333333333</ele><time>2026-05-03T07:50:05.372Z</time></trkpt><trkpt lat="45.7987867" lon="9.5657783"><ele>393.0</ele><time>2026-05-03T07:50:06.373Z</time></trkpt><trkpt lat="45.79883" lon="9.5658883"><ele>393.0</ele><time>2026-05-03T07:50:08.372Z</time></trkpt><trkpt lat="45.79885" lon="9.566015"><ele>393.0</ele><time>2026-05-03T07:50:10.369Z</time></trkpt><trkpt lat="45.7988917" lon="9.566195"><ele>393.0</ele><time>2026-05-03T07:50:12.372Z</time></trkpt><trkpt lat="45.7989433" lon="9.5663"><ele>393.0</ele><time>2026-05-03T07:50:13.37Z</time></trkpt><trkpt lat="45.7990133" lon="9.566395"><ele>393.0</ele><time>2026-05-03T07:50:14.372Z</time></trkpt><trkpt lat="45.79912" lon="9.56648"><ele>394.5</ele><time>2026-05-03T07:50:15.372Z</time></trkpt><trkpt lat="45.7992367" lon="9.5665733"><ele>396.0</ele><time>2026-05-03T07:50:16.373Z</time></trkpt><trkpt lat="45.7993583" lon="9.5666717"><ele>397.5</ele><time>2026-05-03T07:50:17.372Z</time></trkpt><trkpt lat="45.7994817" lon="9.566765"><ele>399.0</ele><time>2026-05-03T07:50:18.373Z</time></trkpt><trkpt lat="45.7995867" lon="9.566855"><ele>399.0</ele><time>2026-05-03T07:50:19.372Z</time></trkpt><trkpt lat="45.79968" lon="9.56696"><ele>399.0</ele><time>2026-05-03T07:50:20.372Z</time></trkpt><trkpt lat="45.7997717" lon="9.56707"><ele>399.0</ele><time>2026-05-03T07:50:21.37Z</time></trkpt><trkpt lat="45.7998483" lon="9.567165"><ele>399.0</ele><time>2026-05-03T07:50:22.373Z</time></trkpt><trkpt lat="45.7999267" lon="9.5672217"><ele>399.0</ele><time>2026-05-03T07:50:23.372Z</time></trkpt><trkpt lat="45.8000083" lon="9.56725"><ele>400.3333333333333</ele><time>2026-05-03T07:50:24.369Z</time></trkpt><trkpt lat="45.8000833" lon="9.5672333"><ele>401.66666666666663</ele><time>2026-05-03T07:50:25.371Z</time></trkpt><trkpt lat="45.8001583" lon="9.567185"><ele>403.0</ele><time>2026-05-03T07:50:26.374Z</time></trkpt><trkpt lat="45.8002283" lon="9.56713"><ele>404.3333333333333</ele><time>2026-05-03T07:50:27.374Z</time></trkpt><trkpt lat="45.8002767" lon="9.5670233"><ele>405.66666666666663</ele><time>2026-05-03T07:50:28.372Z</time></trkpt><trkpt lat="45.8003117" lon="9.566915"><ele>407.0</ele><time>2026-05-03T07:50:29.371Z</time></trkpt><trkpt lat="45.80034" lon="9.5668033"><ele>407.49999999999994</ele><time>2026-05-03T07:50:30.373Z</time></trkpt><trkpt lat="45.8003533" lon="9.5666983"><ele>408.0</ele><time>2026-05-03T07:50:31.373Z</time></trkpt><trkpt lat="45.8003533" lon="9.5666067"><ele>408.5</ele><time>2026-05-03T07:50:32.373Z</time></trkpt><trkpt lat="45.8003333" lon="9.56652"><ele>409.0</ele><time>2026-05-03T07:50:33.373Z</time></trkpt><trkpt lat="45.8002783" lon="9.566435"><ele>409.49999999999994</ele><time>2026-05-03T07:50:34.372Z</time></trkpt><trkpt lat="45.800215" lon="9.5663517"><ele>410.0</ele><time>2026-05-03T07:50:35.373Z</time></trkpt><trkpt lat="45.8001533" lon="9.5662583"><ele>408.4</ele><time>2026-05-03T07:50:36.37Z</time></trkpt><trkpt lat="45.8000917" lon="9.5661517"><ele>406.8</ele><time>2026-05-03T07:50:37.373Z</time></trkpt><trkpt lat="45.8000433" lon="9.5660317"><ele>405.20000000000005</ele><time>2026-05-03T07:50:38.375Z</time></trkpt><trkpt lat="45.8000217" lon="9.565885"><ele>403.6</ele><time>2026-05-03T07:50:39.369Z</time></trkpt><trkpt lat="45.8000233" lon="9.5656933"><ele>402.0</ele><time>2026-05-03T07:50:40.371Z</time></trkpt><trkpt lat="45.80003" lon="9.565475"><ele>404.0</ele><time>2026-05-03T07:50:41.372Z</time></trkpt><trkpt lat="45.8000283" lon="9.5652717"><ele>406.0</ele><time>2026-05-03T07:50:42.375Z</time></trkpt><trkpt lat="45.8000133" lon="9.56508"><ele>408.0</ele><time>2026-05-03T07:50:43.374Z</time></trkpt><trkpt lat="45.7999817" lon="9.5649283"><ele>410.0</ele><time>2026-05-03T07:50:44.372Z</time></trkpt><trkpt lat="45.7999367" lon="9.5648117"><ele>409.99999999999994</ele><time>2026-05-03T07:50:45.372Z</time></trkpt><trkpt lat="45.7999017" lon="9.5647117"><ele>410.0</ele><time>2026-05-03T07:50:46.373Z</time></trkpt><trkpt lat="45.799875" lon="9.5646267"><ele>410.0</ele><time>2026-05-03T07:50:47.37Z</time></trkpt><trkpt lat="45.7998017" lon="9.564575"><ele>410.0</ele><time>2026-05-03T07:50:49.369Z</time></trkpt><trkpt lat="45.7998283" lon="9.5647383"><ele>409.99999999999994</ele><time>2026-05-03T07:50:52.371Z</time></trkpt><trkpt lat="45.799885" lon="9.56487"><ele>410.0</ele><time>2026-05-03T07:50:53.37Z</time></trkpt><trkpt lat="45.7999617" lon="9.5650467"><ele>410.0</ele><time>2026-05-03T07:50:54.377Z</time></trkpt><trkpt lat="45.8000067" lon="9.5652067"><ele>410.0</ele><time>2026-05-03T07:50:55.373Z</time></trkpt><trkpt lat="45.8000233" lon="9.5653667"><ele>410.0</ele><time>2026-05-03T07:50:56.37Z</time></trkpt><trkpt lat="45.8000167" lon="9.5655433"><ele>410.0</ele><time>2026-05-03T07:50:57.373Z</time></trkpt><trkpt lat="45.8" lon="9.56573"><ele>408.0</ele><time>2026-05-03T07:50:58.37Z</time></trkpt><trkpt lat="45.7999917" lon="9.5659233"><ele>406.0</ele><time>2026-05-03T07:50:59.372Z</time></trkpt><trkpt lat="45.800005" lon="9.566095"><ele>404.0</ele><time>2026-05-03T07:51:00.372Z</time></trkpt><trkpt lat="45.800055" lon="9.566235"><ele>402.0</ele><time>2026-05-03T07:51:01.373Z</time></trkpt><trkpt lat="45.800135" lon="9.566355"><ele>403.3333333333333</ele><time>2026-05-03T07:51:02.372Z</time></trkpt><trkpt lat="45.8002117" lon="9.5664767"><ele>404.66666666666663</ele><time>2026-05-03T07:51:03.372Z</time></trkpt><trkpt lat="45.8002633" lon="9.5665983"><ele>406.0</ele><time>2026-05-03T07:51:04.374Z</time></trkpt><trkpt lat="45.8002933" lon="9.5667117"><ele>407.3333333333333</ele><time>2026-05-03T07:51:05.372Z</time></trkpt><trkpt lat="45.8003" lon="9.5668167"><ele>408.66666666666663</ele><time>2026-05-03T07:51:06.373Z</time></trkpt><trkpt lat="45.800285" lon="9.5669167"><ele>410.0</ele><time>2026-05-03T07:51:07.372Z</time></trkpt><trkpt lat="45.8002417" lon="9.5670267"><ele>409.4</ele><time>2026-05-03T07:51:08.372Z</time></trkpt><trkpt lat="45.8001767" lon="9.5671283"><ele>408.8</ele><time>2026-05-03T07:51:09.373Z</time></trkpt><trkpt lat="45.80008" lon="9.5671967"><ele>408.20000000000005</ele><time>2026-05-03T07:51:10.373Z</time></trkpt><trkpt lat="45.7999717" lon="9.5672133"><ele>407.6</ele><time>2026-05-03T07:51:11.373Z</time></trkpt><trkpt lat="45.7998717" lon="9.5671583"><ele>407.0</ele><time>2026-05-03T07:51:12.373Z</time></trkpt><trkpt lat="45.79978" lon="9.567105"><ele>404.3333333333333</ele><time>2026-05-03T07:51:13.372Z</time></trkpt><trkpt lat="45.7996567" lon="9.5669283"><ele>401.66666666666663</ele><time>2026-05-03T07:51:14.376Z</time></trkpt><trkpt lat="45.79952" lon="9.5667833"><ele>399.0</ele><time>2026-05-03T07:51:15.37Z</time></trkpt><trkpt lat="45.799365" lon="9.5666417"><ele>403.0</ele><time>2026-05-03T07:51:16.372Z</time></trkpt><trkpt lat="45.7992033" lon="9.5664983"><ele>407.0</ele><time>2026-05-03T07:51:17.373Z</time></trkpt><trkpt lat="45.7990733" lon="9.56637"><ele>411.0</ele><time>2026-05-03T07:51:18.37Z</time></trkpt><trkpt lat="45.7989717" lon="9.5662617"><ele>407.4</ele><time>2026-05-03T07:51:19.37Z</time></trkpt><trkpt lat="45.7989017" lon="9.5661583"><ele>403.8</ele><time>2026-05-03T07:51:20.372Z</time></trkpt><trkpt lat="45.7988417" lon="9.56604"><ele>400.2</ele><time>2026-05-03T07:51:21.37Z</time></trkpt><trkpt lat="45.7987867" lon="9.5659233"><ele>396.59999999999997</ele><time>2026-05-03T07:51:22.372Z</time></trkpt><trkpt lat="45.798735" lon="9.565825"><ele>393.0</ele><time>2026-05-03T07:51:23.373Z</time></trkpt><trkpt lat="45.7986783" lon="9.5657517"><ele>393.0</ele><time>2026-05-03T07:51:24.371Z</time></trkpt><trkpt lat="45.798605" lon="9.5656967"><ele>393.0</ele><time>2026-05-03T07:51:25.371Z</time></trkpt><trkpt lat="45.7985317" lon="9.5656283"><ele>393.0</ele><time>2026-05-03T07:51:26.372Z</time></trkpt><trkpt lat="45.7984633" lon="9.5655233"><ele>393.0</ele><time>2026-05-03T07:51:27.372Z</time></trkpt><trkpt lat="45.7984083" lon="9.5653933"><ele>393.0</ele><time>2026-05-03T07:51:28.371Z</time></trkpt><trkpt lat="45.79836" lon="9.5652733"><ele>394.59999999999997</ele><time>2026-05-03T07:51:29.372Z</time></trkpt><trkpt lat="45.7983033" lon="9.5651733"><ele>396.2</ele><time>2026-05-03T07:51:30.372Z</time></trkpt><trkpt lat="45.79823" lon="9.5650933"><ele>397.8</ele><time>2026-05-03T07:51:31.373Z</time></trkpt><trkpt lat="45.7981367" lon="9.5650233"><ele>399.4</ele><time>2026-05-03T07:51:32.373Z</time></trkpt><trkpt lat="45.7980183" lon="9.5649667"><ele>401.0</ele><time>2026-05-03T07:51:33.37Z</time></trkpt><trkpt lat="45.7978917" lon="9.5649"><ele>401.0</ele><time>2026-05-03T07:51:34.372Z</time></trkpt><trkpt lat="45.7977817" lon="9.5648317"><ele>401.0</ele><time>2026-05-03T07:51:35.37Z</time></trkpt><trkpt lat="45.7976733" lon="9.5647817"><ele>401.0</ele><time>2026-05-03T07:51:36.371Z</time></trkpt><trkpt lat="45.7975683" lon="9.5647483"><ele>401.0</ele><time>2026-05-03T07:51:37.373Z</time></trkpt><trkpt lat="45.7974533" lon="9.5647267"><ele>399.25</ele><time>2026-05-03T07:51:38.37Z</time></trkpt><trkpt lat="45.79734" lon="9.5647017"><ele>397.5</ele><time>2026-05-03T07:51:39.373Z</time></trkpt><trkpt lat="45.7972333" lon="9.5646483"><ele>395.75</ele><time>2026-05-03T07:51:40.372Z</time></trkpt><trkpt lat="45.79712" lon="9.564555"><ele>394.0</ele><time>2026-05-03T07:51:41.369Z</time></trkpt><trkpt lat="45.7970083" lon="9.5644333"><ele>394.0</ele><time>2026-05-03T07:51:42.373Z</time></trkpt><trkpt lat="45.7968983" lon="9.5643017"><ele>394.0</ele><time>2026-05-03T07:51:43.37Z</time></trkpt><trkpt lat="45.7967867" lon="9.5642033"><ele>394.0</ele><time>2026-05-03T07:51:44.373Z</time></trkpt><trkpt lat="45.7966717" lon="9.5641417"><ele>394.0</ele><time>2026-05-03T07:51:45.372Z</time></trkpt><trkpt lat="45.7965717" lon="9.5641017"><ele>397.79999999999995</ele><time>2026-05-03T07:51:46.373Z</time></trkpt><trkpt lat="45.7964817" lon="9.5640967"><ele>401.59999999999997</ele><time>2026-05-03T07:51:47.37Z</time></trkpt><trkpt lat="45.7963867" lon="9.5641483"><ele>405.4</ele><time>2026-05-03T07:51:48.373Z</time></trkpt><trkpt lat="45.7962833" lon="9.56423"><ele>409.2</ele><time>2026-05-03T07:51:49.372Z</time></trkpt><trkpt lat="45.7961717" lon="9.56433"><ele>413.0</ele><time>2026-05-03T07:51:50.372Z</time></trkpt><trkpt lat="45.7960583" lon="9.5644333"><ele>414.5</ele><time>2026-05-03T07:51:51.371Z</time></trkpt><trkpt lat="45.795955" lon="9.5645433"><ele>416.0</ele><time>2026-05-03T07:51:52.372Z</time></trkpt><trkpt lat="45.7958683" lon="9.564675"><ele>417.5</ele><time>2026-05-03T07:51:53.371Z</time></trkpt><trkpt lat="45.7957933" lon="9.56482"><ele>419.0</ele><time>2026-05-03T07:51:54.372Z</time></trkpt><trkpt lat="45.7957367" lon="9.56495"><ele>419.0</ele><time>2026-05-03T07:51:55.372Z</time></trkpt><trkpt lat="45.7957067" lon="9.5650383"><ele>419.0</ele><time>2026-05-03T07:51:56.371Z</time></trkpt><trkpt lat="45.7956867" lon="9.56516"><ele>419.0</ele><time>2026-05-03T07:51:58.372Z</time></trkpt><trkpt lat="45.795755" lon="9.5651983"><ele>419.0</ele><time>2026-05-03T07:52:00.372Z</time></trkpt><trkpt lat="45.7958283" lon="9.5651833"><ele>419.0</ele><time>2026-05-03T07:52:01.371Z</time></trkpt><trkpt lat="45.7960183" lon="9.56507"><ele>420.5</ele><time>2026-05-03T07:52:02.371Z</time></trkpt><trkpt lat="45.7961567" lon="9.5650183"><ele>422.0</ele><time>2026-05-03T07:52:03.372Z</time></trkpt><trkpt lat="45.7962633" lon="9.565035"><ele>423.5</ele><time>2026-05-03T07:52:04.373Z</time></trkpt><trkpt lat="45.7963817" lon="9.5650817"><ele>425.0</ele><time>2026-05-03T07:52:05.374Z</time></trkpt><trkpt lat="45.796495" lon="9.5651783"><ele>425.0</ele><time>2026-05-03T07:52:06.373Z</time></trkpt><trkpt lat="45.79661" lon="9.565335"><ele>425.0</ele><time>2026-05-03T07:52:07.373Z</time></trkpt><trkpt lat="45.7967317" lon="9.56552"><ele>425.0</ele><time>2026-05-03T07:52:08.374Z</time></trkpt><trkpt lat="45.7968483" lon="9.565705"><ele>426.0</ele><time>2026-05-03T07:52:09.373Z</time></trkpt><trkpt lat="45.7969517" lon="9.56588"><ele>427.0</ele><time>2026-05-03T07:52:10.37Z</time></trkpt><trkpt lat="45.7970417" lon="9.5660133"><ele>428.0</ele><time>2026-05-03T07:52:11.371Z</time></trkpt><trkpt lat="45.797125" lon="9.566115"><ele>429.0</ele><time>2026-05-03T07:52:12.37Z</time></trkpt><trkpt lat="45.7971917" lon="9.566185"><ele>433.2</ele><time>2026-05-03T07:52:13.374Z</time></trkpt><trkpt lat="45.797245" lon="9.5662383"><ele>437.4</ele><time>2026-05-03T07:52:14.373Z</time></trkpt><trkpt lat="45.797345" lon="9.5663283"><ele>441.6</ele><time>2026-05-03T07:52:16.37Z</time></trkpt><trkpt lat="45.7974067" lon="9.5663883"><ele>445.8</ele><time>2026-05-03T07:52:17.371Z</time></trkpt><trkpt lat="45.7974833" lon="9.5664567"><ele>450.0</ele><time>2026-05-03T07:52:18.37Z</time></trkpt><trkpt lat="45.7975717" lon="9.5665417"><ele>450.0</ele><time>2026-05-03T07:52:19.371Z</time></trkpt><trkpt lat="45.7976633" lon="9.5666367"><ele>450.0</ele><time>2026-05-03T07:52:20.37Z</time></trkpt><trkpt lat="45.7977417" lon="9.5667283"><ele>450.0</ele><time>2026-05-03T07:52:21.37Z</time></trkpt><trkpt lat="45.7978083" lon="9.566825"><ele>450.0</ele><time>2026-05-03T07:52:22.371Z</time></trkpt><trkpt lat="45.7978583" lon="9.5669317"><ele>450.0</ele><time>2026-05-03T07:52:23.373Z</time></trkpt><trkpt lat="45.7979083" lon="9.5670433"><ele>449.8333333333333</ele><time>2026-05-03T07:52:24.37Z</time></trkpt><trkpt lat="45.7979483" lon="9.5671633"><ele>449.66666666666663</ele><time>2026-05-03T07:52:25.372Z</time></trkpt><trkpt lat="45.79799" lon="9.5672767"><ele>449.5</ele><time>2026-05-03T07:52:26.37Z</time></trkpt><trkpt lat="45.7980333" lon="9.56738"><ele>449.3333333333333</ele><time>2026-05-03T07:52:27.37Z</time></trkpt><trkpt lat="45.798065" lon="9.5674617"><ele>449.16666666666663</ele><time>2026-05-03T07:52:28.375Z</time></trkpt><trkpt lat="45.7980783" lon="9.5675983"><ele>449.0</ele><time>2026-05-03T07:52:30.374Z</time></trkpt><trkpt lat="45.798" lon="9.5675717"><ele>449.0</ele><time>2026-05-03T07:52:32.372Z</time></trkpt><trkpt lat="45.7979083" lon="9.5675067"><ele>449.0</ele><time>2026-05-03T07:52:33.369Z</time></trkpt><trkpt lat="45.7978033" lon="9.5674017"><ele>449.0</ele><time>2026-05-03T07:52:34.372Z</time></trkpt><trkpt lat="45.79768" lon="9.5672833"><ele>449.0</ele><time>2026-05-03T07:52:35.374Z</time></trkpt><trkpt lat="45.79752" lon="9.567135"><ele>449.3333333333333</ele><time>2026-05-03T07:52:36.372Z</time></trkpt><trkpt lat="45.7973533" lon="9.5670167"><ele>449.66666666666663</ele><time>2026-05-03T07:52:37.373Z</time></trkpt><trkpt lat="45.797175" lon="9.5668883"><ele>450.0</ele><time>2026-05-03T07:52:38.374Z</time></trkpt><trkpt lat="45.7970133" lon="9.566765"><ele>450.0</ele><time>2026-05-03T07:52:39.373Z</time></trkpt><trkpt lat="45.7968717" lon="9.5666533"><ele>450.0</ele><time>2026-05-03T07:52:40.372Z</time></trkpt><trkpt lat="45.796755" lon="9.5665633"><ele>450.0</ele><time>2026-05-03T07:52:41.371Z</time></trkpt><trkpt lat="45.79665" lon="9.5665"><ele>450.0</ele><time>2026-05-03T07:52:42.371Z</time></trkpt><trkpt lat="45.796545" lon="9.5664733"><ele>451.75</ele><time>2026-05-03T07:52:43.372Z</time></trkpt><trkpt lat="45.79643" lon="9.56649"><ele>453.5</ele><time>2026-05-03T07:52:44.373Z</time></trkpt><trkpt lat="45.7962883" lon="9.56656"><ele>455.25</ele><time>2026-05-03T07:52:45.372Z</time></trkpt><trkpt lat="45.796125" lon="9.5666433"><ele>457.0</ele><time>2026-05-03T07:52:46.373Z</time></trkpt><trkpt lat="45.7959483" lon="9.5667367"><ele>458.25</ele><time>2026-05-03T07:52:47.371Z</time></trkpt><trkpt lat="45.7957833" lon="9.5668233"><ele>459.5</ele><time>2026-05-03T07:52:48.371Z</time></trkpt><trkpt lat="45.79564" lon="9.5668967"><ele>460.75</ele><time>2026-05-03T07:52:49.37Z</time></trkpt><trkpt lat="45.7955367" lon="9.5669533"><ele>462.0</ele><time>2026-05-03T07:52:50.371Z</time></trkpt><trkpt lat="45.7954717" lon="9.5670067"><ele>465.0</ele><time>2026-05-03T07:52:51.37Z</time></trkpt><trkpt lat="45.7954183" lon="9.567125"><ele>468.0</ele><time>2026-05-03T07:52:53.37Z</time></trkpt><trkpt lat="45.7955" lon="9.5671683"><ele>471.0</ele><time>2026-05-03T07:52:55.37Z</time></trkpt><trkpt lat="45.7955767" lon="9.56714"><ele>474.0</ele><time>2026-05-03T07:52:56.37Z</time></trkpt><trkpt lat="45.7956433" lon="9.5671167"><ele>477.0</ele><time>2026-05-03T07:52:57.37Z</time></trkpt><trkpt lat="45.79573" lon="9.56709"><ele>480.0</ele><time>2026-05-03T07:52:58.371Z</time></trkpt><trkpt lat="45.79583" lon="9.567075"><ele>480.0</ele><time>2026-05-03T07:52:59.371Z</time></trkpt><trkpt lat="45.7959083" lon="9.5670783"><ele>480.0</ele><time>2026-05-03T07:53:00.374Z</time></trkpt><trkpt lat="45.7959917" lon="9.5671017"><ele>480.0</ele><time>2026-05-03T07:53:01.37Z</time></trkpt><trkpt lat="45.796075" lon="9.56715"><ele>480.0</ele><time>2026-05-03T07:53:02.372Z</time></trkpt><trkpt lat="45.7961433" lon="9.567225"><ele>480.0</ele><time>2026-05-03T07:53:03.37Z</time></trkpt><trkpt lat="45.7961983" lon="9.5672917"><ele>480.0</ele><time>2026-05-03T07:53:04.376Z</time></trkpt><trkpt lat="45.7962433" lon="9.5673617"><ele>478.25</ele><time>2026-05-03T07:53:05.37Z</time></trkpt><trkpt lat="45.7963267" lon="9.56755"><ele>476.5</ele><time>2026-05-03T07:53:07.373Z</time></trkpt><trkpt lat="45.7963733" lon="9.5676933"><ele>474.75</ele><time>2026-05-03T07:53:08.37Z</time></trkpt><trkpt lat="45.7964217" lon="9.5678283"><ele>473.0</ele><time>2026-05-03T07:53:09.372Z</time></trkpt><trkpt lat="45.7964733" lon="9.5679633"><ele>476.75</ele><time>2026-05-03T07:53:10.37Z</time></trkpt><trkpt lat="45.796555" lon="9.5680533"><ele>480.5</ele><time>2026-05-03T07:53:11.376Z</time></trkpt><trkpt lat="45.7966833" lon="9.5681317"><ele>484.25</ele><time>2026-05-03T07:53:12.372Z</time></trkpt><trkpt lat="45.796835" lon="9.5682033"><ele>488.0</ele><time>2026-05-03T07:53:13.374Z</time></trkpt><trkpt lat="45.7969883" lon="9.5682783"><ele>488.0</ele><time>2026-05-03T07:53:14.374Z</time></trkpt><trkpt lat="45.7971283" lon="9.568345"><ele>488.0</ele><time>2026-05-03T07:53:15.373Z</time></trkpt><trkpt lat="45.7972567" lon="9.5684133"><ele>488.0</ele><time>2026-05-03T07:53:16.37Z</time></trkpt><trkpt lat="45.7973783" lon="9.5684917"><ele>488.0</ele><time>2026-05-03T07:53:17.37Z</time></trkpt><trkpt lat="45.7974983" lon="9.5685767"><ele>488.0</ele><time>2026-05-03T07:53:18.369Z</time></trkpt><trkpt lat="45.797605" lon="9.5686467"><ele>487.99999999999994</ele><time>2026-05-03T07:53:19.371Z</time></trkpt><trkpt lat="45.7976883" lon="9.5687083"><ele>487.99999999999994</ele><time>2026-05-03T07:53:20.37Z</time></trkpt><trkpt lat="45.797755" lon="9.56877"><ele>488.0</ele><time>2026-05-03T07:53:21.371Z</time></trkpt><trkpt lat="45.797815" lon="9.5688633"><ele>488.0</ele><time>2026-05-03T07:53:22.374Z</time></trkpt><trkpt lat="45.79786" lon="9.568975"><ele>487.16666666666663</ele><time>2026-05-03T07:53:23.371Z</time></trkpt><trkpt lat="45.7979133" lon="9.56908"><ele>486.3333333333333</ele><time>2026-05-03T07:53:24.371Z</time></trkpt><trkpt lat="45.79798" lon="9.569175"><ele>485.5</ele><time>2026-05-03T07:53:25.372Z</time></trkpt><trkpt lat="45.7980467" lon="9.5692567"><ele>484.66666666666663</ele><time>2026-05-03T07:53:26.371Z</time></trkpt><trkpt lat="45.798095" lon="9.56934"><ele>483.8333333333333</ele><time>2026-05-03T07:53:27.371Z</time></trkpt><trkpt lat="45.798135" lon="9.5694217"><ele>483.0</ele><time>2026-05-03T07:53:28.373Z</time></trkpt><trkpt lat="45.7981683" lon="9.569585"><ele>485.4</ele><time>2026-05-03T07:53:30.372Z</time></trkpt><trkpt lat="45.79815" lon="9.5696817"><ele>487.79999999999995</ele><time>2026-05-03T07:53:31.371Z</time></trkpt><trkpt lat="45.7981067" lon="9.5697883"><ele>490.2</ele><time>2026-05-03T07:53:32.374Z</time></trkpt><trkpt lat="45.7980617" lon="9.5698817"><ele>492.6</ele><time>2026-05-03T07:53:33.374Z</time></trkpt><trkpt lat="45.7979783" lon="9.57"><ele>495.0</ele><time>2026-05-03T07:53:34.37Z</time></trkpt><trkpt lat="45.797885" lon="9.570125"><ele>495.0</ele><time>2026-05-03T07:53:35.372Z</time></trkpt><trkpt lat="45.7978117" lon="9.5702267"><ele>495.0</ele><time>2026-05-03T07:53:36.374Z</time></trkpt><trkpt lat="45.7977567" lon="9.57031"><ele>495.0</ele><time>2026-05-03T07:53:37.373Z</time></trkpt><trkpt lat="45.7977" lon="9.570375"><ele>495.0</ele><time>2026-05-03T07:53:38.372Z</time></trkpt><trkpt lat="45.79762" lon="9.5703767"><ele>495.0</ele><time>2026-05-03T07:53:40.369Z</time></trkpt><trkpt lat="45.797655" lon="9.5702883"><ele>495.0</ele><time>2026-05-03T07:53:42.373Z</time></trkpt><trkpt lat="45.7977633" lon="9.57015"><ele>495.0</ele><time>2026-05-03T07:53:43.371Z</time></trkpt><trkpt lat="45.7978383" lon="9.5700183"><ele>495.0</ele><time>2026-05-03T07:53:44.372Z</time></trkpt><trkpt lat="45.79788" lon="9.5698933"><ele>495.0</ele><time>2026-05-03T07:53:45.373Z</time></trkpt><trkpt lat="45.7979067" lon="9.5697517"><ele>495.0</ele><time>2026-05-03T07:53:46.374Z</time></trkpt><trkpt lat="45.797925" lon="9.5696217"><ele>495.0</ele><time>2026-05-03T07:53:47.373Z</time></trkpt><trkpt lat="45.797935" lon="9.56951"><ele>495.0</ele><time>2026-05-03T07:53:48.371Z</time></trkpt><trkpt lat="45.7978517" lon="9.5696733"><ele>495.0</ele><time>2026-05-03T07:53:52.37Z</time></trkpt><trkpt lat="45.7977883" lon="9.5698183"><ele>495.0</ele><time>2026-05-03T07:53:53.371Z</time></trkpt><trkpt lat="45.7977133" lon="9.56994"><ele>495.0</ele><time>2026-05-03T07:53:54.373Z</time></trkpt><trkpt lat="45.797615" lon="9.570065"><ele>498.8</ele><time>2026-05-03T07:53:55.372Z</time></trkpt><trkpt lat="45.7975217" lon="9.5701817"><ele>502.6</ele><time>2026-05-03T07:53:56.373Z</time></trkpt><trkpt lat="45.7974617" lon="9.5702567"><ele>506.4</ele><time>2026-05-03T07:53:57.373Z</time></trkpt><trkpt lat="45.7974033" lon="9.5703083"><ele>510.2</ele><time>2026-05-03T07:53:58.373Z</time></trkpt><trkpt lat="45.7973217" lon="9.57032"><ele>514.0</ele><time>2026-05-03T07:54:00.373Z</time></trkpt><trkpt lat="45.7973933" lon="9.5702133"><ele>514.0</ele><time>2026-05-03T07:54:02.374Z</time></trkpt><trkpt lat="45.79749" lon="9.5700533"><ele>514.0</ele><time>2026-05-03T07:54:04.373Z</time></trkpt><trkpt lat="45.7975717" lon="9.5699017"><ele>514.0</ele><time>2026-05-03T07:54:05.374Z</time></trkpt><trkpt lat="45.797635" lon="9.5697583"><ele>514.0</ele><time>2026-05-03T07:54:06.374Z</time></trkpt><trkpt lat="45.797675" lon="9.5696517"><ele>514.0</ele><time>2026-05-03T07:54:07.373Z</time></trkpt><trkpt lat="45.797645" lon="9.5695717"><ele>514.0</ele><time>2026-05-03T07:54:09.372Z</time></trkpt><trkpt lat="45.7975317" lon="9.569695"><ele>514.0</ele><time>2026-05-03T07:54:11.374Z</time></trkpt><trkpt lat="45.7974167" lon="9.5698367"><ele>514.0</ele><time>2026-05-03T07:54:12.374Z</time></trkpt><trkpt lat="45.7973033" lon="9.569975"><ele>514.0</ele><time>2026-05-03T07:54:13.373Z</time></trkpt><trkpt lat="45.7972233" lon="9.570115"><ele>514.0</ele><time>2026-05-03T07:54:14.374Z</time></trkpt><trkpt lat="45.7971717" lon="9.570275"><ele>514.0</ele><time>2026-05-03T07:54:15.373Z</time></trkpt><trkpt lat="45.7971317" lon="9.5704517"><ele>514.0</ele><time>2026-05-03T07:54:16.373Z</time></trkpt><trkpt lat="45.7970867" lon="9.5706317"><ele>514.2</ele><time>2026-05-03T07:54:17.373Z</time></trkpt><trkpt lat="45.797035" lon="9.5707917"><ele>514.4</ele><time>2026-05-03T07:54:18.375Z</time></trkpt><trkpt lat="45.7969867" lon="9.5709283"><ele>514.6</ele><time>2026-05-03T07:54:19.37Z</time></trkpt><trkpt lat="45.79695" lon="9.5710467"><ele>514.8</ele><time>2026-05-03T07:54:20.374Z</time></trkpt><trkpt lat="45.7969433" lon="9.5711383"><ele>515.0</ele><time>2026-05-03T07:54:21.373Z</time></trkpt><trkpt lat="45.7969917" lon="9.5713"><ele>517.0</ele><time>2026-05-03T07:54:23.373Z</time></trkpt><trkpt lat="45.79705" lon="9.5713833"><ele>519.0</ele><time>2026-05-03T07:54:24.372Z</time></trkpt><trkpt lat="45.7971117" lon="9.57148"><ele>521.0</ele><time>2026-05-03T07:54:25.372Z</time></trkpt><trkpt lat="45.797175" lon="9.5715867"><ele>523.0</ele><time>2026-05-03T07:54:26.372Z</time></trkpt><trkpt lat="45.7972267" lon="9.5717217"><ele>525.0</ele><time>2026-05-03T07:54:27.372Z</time></trkpt><trkpt lat="45.7972717" lon="9.5718667"><ele>525.0</ele><time>2026-05-03T07:54:28.372Z</time></trkpt><trkpt lat="45.7973183" lon="9.5719933"><ele>525.0</ele><time>2026-05-03T07:54:29.37Z</time></trkpt><trkpt lat="45.79736" lon="9.5721"><ele>525.0</ele><time>2026-05-03T07:54:30.37Z</time></trkpt><trkpt lat="45.797395" lon="9.572185"><ele>525.0</ele><time>2026-05-03T07:54:31.37Z</time></trkpt><trkpt lat="45.7974633" lon="9.5723117"><ele>525.0</ele><time>2026-05-03T07:54:33.369Z</time></trkpt><trkpt lat="45.797535" lon="9.5724083"><ele>525.6</ele><time>2026-05-03T07:54:35.369Z</time></trkpt><trkpt lat="45.7975517" lon="9.5725317"><ele>526.2</ele><time>2026-05-03T07:54:37.369Z</time></trkpt><trkpt lat="45.7975083" lon="9.5727283"><ele>526.8</ele><time>2026-05-03T07:54:39.37Z</time></trkpt><trkpt lat="45.7974733" lon="9.57286"><ele>527.4</ele><time>2026-05-03T07:54:40.369Z</time></trkpt><trkpt lat="45.7974517" lon="9.57298"><ele>528.0</ele><time>2026-05-03T07:54:41.37Z</time></trkpt><trkpt lat="45.797445" lon="9.5730883"><ele>528.0</ele><time>2026-05-03T07:54:42.369Z</time></trkpt><trkpt lat="45.797445" lon="9.5731817"><ele>528.0</ele><time>2026-05-03T07:54:43.372Z</time></trkpt><trkpt lat="45.7974883" lon="9.57333"><ele>528.0</ele><time>2026-05-03T07:54:45.373Z</time></trkpt><trkpt lat="45.79761" lon="9.573395"><ele>528.0</ele><time>2026-05-03T07:54:47.373Z</time></trkpt><trkpt lat="45.7976717" lon="9.573415"><ele>528.0</ele><time>2026-05-03T07:54:48.374Z</time></trkpt><trkpt lat="45.797795" lon="9.57345"><ele>529.0</ele><time>2026-05-03T07:54:50.373Z</time></trkpt><trkpt lat="45.7979017" lon="9.5734983"><ele>530.0</ele><time>2026-05-03T07:54:52.373Z</time></trkpt><trkpt lat="45.7980083" lon="9.5735367"><ele>531.0</ele><time>2026-05-03T07:54:54.373Z</time></trkpt><trkpt lat="45.7981283" lon="9.5735767"><ele>532.0</ele><time>2026-05-03T07:54:56.372Z</time></trkpt><trkpt lat="45.7982117" lon="9.573585"><ele>533.0</ele><time>2026-05-03T07:54:57.373Z</time></trkpt><trkpt lat="45.7983083" lon="9.57358"><ele>533.0</ele><time>2026-05-03T07:54:58.372Z</time></trkpt><trkpt lat="45.7983967" lon="9.5735733"><ele>533.0</ele><time>2026-05-03T07:54:59.372Z</time></trkpt><trkpt lat="45.7984733" lon="9.573565"><ele>533.0</ele><time>2026-05-03T07:55:00.373Z</time></trkpt><trkpt lat="45.7985367" lon="9.57356"><ele>533.0</ele><time>2026-05-03T07:55:01.372Z</time></trkpt><trkpt lat="45.7986017" lon="9.5735833"><ele>533.0</ele><time>2026-05-03T07:55:03.372Z</time></trkpt><trkpt lat="45.798705" lon="9.573545"><ele>533.0</ele><time>2026-05-03T07:55:26.369Z</time></trkpt><trkpt lat="45.798805" lon="9.5735167"><ele>534.0</ele><time>2026-05-03T07:55:27.37Z</time></trkpt><trkpt lat="45.798905" lon="9.5734683"><ele>535.0</ele><time>2026-05-03T07:55:28.374Z</time></trkpt><trkpt lat="45.7989983" lon="9.57342"><ele>536.0</ele><time>2026-05-03T07:55:29.37Z</time></trkpt><trkpt lat="45.799095" lon="9.5733683"><ele>537.0</ele><time>2026-05-03T07:55:30.37Z</time></trkpt><trkpt lat="45.79918" lon="9.5733233"><ele>538.0</ele><time>2026-05-03T07:55:31.37Z</time></trkpt><trkpt lat="45.7992667" lon="9.5732717"><ele>537.8333333333334</ele><time>2026-05-03T07:55:32.371Z</time></trkpt><trkpt lat="45.799335" lon="9.5732383"><ele>537.6666666666667</ele><time>2026-05-03T07:55:33.371Z</time></trkpt><trkpt lat="45.7994117" lon="9.5732117"><ele>537.5</ele><time>2026-05-03T07:55:34.369Z</time></trkpt><trkpt lat="45.799485" lon="9.5732"><ele>537.3333333333334</ele><time>2026-05-03T07:55:35.369Z</time></trkpt><trkpt lat="45.799585" lon="9.5732117"><ele>537.1666666666666</ele><time>2026-05-03T07:55:37.37Z</time></trkpt><trkpt lat="45.79965" lon="9.5732217"><ele>537.0</ele><time>2026-05-03T07:55:39.373Z</time></trkpt><trkpt lat="45.7995683" lon="9.57323"><ele>537.0</ele><time>2026-05-03T07:55:58.37Z</time></trkpt><trkpt lat="45.7995" lon="9.5732283"><ele>537.0</ele><time>2026-05-03T07:55:59.371Z</time></trkpt><trkpt lat="45.7993967" lon="9.573235"><ele>537.0</ele><time>2026-05-03T07:56:00.37Z</time></trkpt><trkpt lat="45.7993133" lon="9.5732533"><ele>537.0</ele><time>2026-05-03T07:56:01.371Z</time></trkpt><trkpt lat="45.799185" lon="9.573305"><ele>537.0</ele><time>2026-05-03T07:56:02.372Z</time></trkpt><trkpt lat="45.7990483" lon="9.5733667"><ele>537.2</ele><time>2026-05-03T07:56:03.372Z</time></trkpt><trkpt lat="45.798925" lon="9.57342"><ele>537.4000000000001</ele><time>2026-05-03T07:56:04.37Z</time></trkpt><trkpt lat="45.7988117" lon="9.5734683"><ele>537.5999999999999</ele><time>2026-05-03T07:56:05.37Z</time></trkpt><trkpt lat="45.7987117" lon="9.5735083"><ele>537.8</ele><time>2026-05-03T07:56:06.37Z</time></trkpt><trkpt lat="45.798635" lon="9.5735483"><ele>538.0</ele><time>2026-05-03T07:56:07.375Z</time></trkpt><trkpt lat="45.79858" lon="9.5736133"><ele>537.75</ele><time>2026-05-03T07:56:09.373Z</time></trkpt><trkpt lat="45.7985717" lon="9.5737533"><ele>537.5</ele><time>2026-05-03T07:56:11.372Z</time></trkpt><trkpt lat="45.7985533" lon="9.5738567"><ele>537.25</ele><time>2026-05-03T07:56:12.372Z</time></trkpt><trkpt lat="45.7985233" lon="9.5740267"><ele>537.0</ele><time>2026-05-03T07:56:13.373Z</time></trkpt><trkpt lat="45.7984717" lon="9.5742483"><ele>537.0</ele><time>2026-05-03T07:56:14.372Z</time></trkpt><trkpt lat="45.7984067" lon="9.5744667"><ele>537.0</ele><time>2026-05-03T07:56:15.37Z</time></trkpt><trkpt lat="45.7983533" lon="9.57465"><ele>537.0</ele><time>2026-05-03T07:56:16.373Z</time></trkpt><trkpt lat="45.7983033" lon="9.5748183"><ele>537.0</ele><time>2026-05-03T07:56:17.371Z</time></trkpt><trkpt lat="45.7982583" lon="9.5749817"><ele>541.25</ele><time>2026-05-03T07:56:18.371Z</time></trkpt><trkpt lat="45.7982317" lon="9.575165"><ele>545.5</ele><time>2026-05-03T07:56:19.372Z</time></trkpt><trkpt lat="45.7982033" lon="9.5753517"><ele>549.75</ele><time>2026-05-03T07:56:20.373Z</time></trkpt><trkpt lat="45.7981883" lon="9.5755183"><ele>554.0</ele><time>2026-05-03T07:56:21.371Z</time></trkpt><trkpt lat="45.798165" lon="9.57564"><ele>559.25</ele><time>2026-05-03T07:56:22.371Z</time></trkpt><trkpt lat="45.7981317" lon="9.575755"><ele>564.5</ele><time>2026-05-03T07:56:23.371Z</time></trkpt><trkpt lat="45.7980817" lon="9.5758783"><ele>569.75</ele><time>2026-05-03T07:56:24.372Z</time></trkpt><trkpt lat="45.7979883" lon="9.5760167"><ele>575.0</ele><time>2026-05-03T07:56:25.373Z</time></trkpt><trkpt lat="45.79786" lon="9.5761433"><ele>571.3333333333333</ele><time>2026-05-03T07:56:26.37Z</time></trkpt><trkpt lat="45.79774" lon="9.5762633"><ele>567.6666666666666</ele><time>2026-05-03T07:56:27.37Z</time></trkpt><trkpt lat="45.797625" lon="9.576405"><ele>564.0</ele><time>2026-05-03T07:56:28.373Z</time></trkpt><trkpt lat="45.79751" lon="9.5765583"><ele>564.0</ele><time>2026-05-03T07:56:29.373Z</time></trkpt><trkpt lat="45.7974033" lon="9.5767033"><ele>564.0</ele><time>2026-05-03T07:56:30.372Z</time></trkpt><trkpt lat="45.7973067" lon="9.576825"><ele>564.0</ele><time>2026-05-03T07:56:31.372Z</time></trkpt><trkpt lat="45.7972333" lon="9.576925"><ele>564.0</ele><time>2026-05-03T07:56:32.373Z</time></trkpt><trkpt lat="45.797185" lon="9.5770117"><ele>567.2</ele><time>2026-05-03T07:56:33.373Z</time></trkpt><trkpt lat="45.7971233" lon="9.5771617"><ele>570.4</ele><time>2026-05-03T07:56:35.373Z</time></trkpt><trkpt lat="45.797165" lon="9.5773583"><ele>573.6</ele><time>2026-05-03T07:56:37.372Z</time></trkpt><trkpt lat="45.7971883" lon="9.5774733"><ele>576.8</ele><time>2026-05-03T07:56:38.374Z</time></trkpt><trkpt lat="45.7971933" lon="9.5776017"><ele>580.0</ele><time>2026-05-03T07:56:39.372Z</time></trkpt><trkpt lat="45.797185" lon="9.5777517"><ele>583.75</ele><time>2026-05-03T07:56:40.372Z</time></trkpt><trkpt lat="45.797165" lon="9.577925"><ele>587.5</ele><time>2026-05-03T07:56:41.373Z</time></trkpt><trkpt lat="45.797155" lon="9.578105"><ele>591.25</ele><time>2026-05-03T07:56:42.372Z</time></trkpt><trkpt lat="45.7971433" lon="9.5782767"><ele>595.0</ele><time>2026-05-03T07:56:43.372Z</time></trkpt><trkpt lat="45.79713" lon="9.578435"><ele>595.0</ele><time>2026-05-03T07:56:44.373Z</time></trkpt><trkpt lat="45.7971133" lon="9.5785767"><ele>595.0</ele><time>2026-05-03T07:56:45.373Z</time></trkpt><trkpt lat="45.797095" lon="9.5786967"><ele>595.0</ele><time>2026-05-03T07:56:46.373Z</time></trkpt><trkpt lat="45.79708" lon="9.5788017"><ele>595.0</ele><time>2026-05-03T07:56:47.37Z</time></trkpt><trkpt lat="45.7971067" lon="9.578945"><ele>595.0</ele><time>2026-05-03T07:56:49.369Z</time></trkpt><trkpt lat="45.7971883" lon="9.5789833"><ele>595.0</ele><time>2026-05-03T07:56:51.369Z</time></trkpt><trkpt lat="45.79728" lon="9.5789317"><ele>595.0</ele><time>2026-05-03T07:56:53.371Z</time></trkpt><trkpt lat="45.79733" lon="9.5788383"><ele>595.0</ele><time>2026-05-03T07:56:54.37Z</time></trkpt><trkpt lat="45.7973433" lon="9.578515"><ele>595.0</ele><time>2026-05-03T07:56:55.37Z</time></trkpt><trkpt lat="45.7973867" lon="9.5782933"><ele>595.0</ele><time>2026-05-03T07:56:56.372Z</time></trkpt><trkpt lat="45.7974367" lon="9.5781433"><ele>595.0</ele><time>2026-05-03T07:56:57.37Z</time></trkpt><trkpt lat="45.7975167" lon="9.5779417"><ele>595.0</ele><time>2026-05-03T07:56:58.373Z</time></trkpt><trkpt lat="45.7975983" lon="9.5777683"><ele>595.0</ele><time>2026-05-03T07:56:59.37Z</time></trkpt><trkpt lat="45.7976933" lon="9.5776333"><ele>603.3333333333334</ele><time>2026-05-03T07:57:00.37Z</time></trkpt><trkpt lat="45.797805" lon="9.5774917"><ele>611.6666666666666</ele><time>2026-05-03T07:57:01.372Z</time></trkpt><trkpt lat="45.7979433" lon="9.5773467"><ele>620.0</ele><time>2026-05-03T07:57:02.372Z</time></trkpt><trkpt lat="45.7980817" lon="9.5772083"><ele>620.0</ele><time>2026-05-03T07:57:03.373Z</time></trkpt><trkpt lat="45.79822" lon="9.577055"><ele>620.0</ele><time>2026-05-03T07:57:04.372Z</time></trkpt><trkpt lat="45.79835" lon="9.5768917"><ele>620.0</ele><time>2026-05-03T07:57:05.372Z</time></trkpt><trkpt lat="45.79848" lon="9.5767383"><ele>622.6666666666666</ele><time>2026-05-03T07:57:06.369Z</time></trkpt><trkpt lat="45.7986" lon="9.576575"><ele>625.3333333333334</ele><time>2026-05-03T07:57:07.372Z</time></trkpt><trkpt lat="45.7987" lon="9.576405"><ele>628.0</ele><time>2026-05-03T07:57:08.372Z</time></trkpt><trkpt lat="45.798785" lon="9.5762483"><ele>625.1999999999999</ele><time>2026-05-03T07:57:09.369Z</time></trkpt><trkpt lat="45.79886" lon="9.5761133"><ele>622.4</ele><time>2026-05-03T07:57:10.37Z</time></trkpt><trkpt lat="45.7989267" lon="9.5759933"><ele>619.5999999999999</ele><time>2026-05-03T07:57:11.369Z</time></trkpt><trkpt lat="45.7989933" lon="9.5758883"><ele>616.8</ele><time>2026-05-03T07:57:12.369Z</time></trkpt><trkpt lat="45.7990817" lon="9.5757917"><ele>614.0</ele><time>2026-05-03T07:57:13.369Z</time></trkpt><trkpt lat="45.7991783" lon="9.5756983"><ele>614.0</ele><time>2026-05-03T07:57:14.37Z</time></trkpt><trkpt lat="45.7992883" lon="9.57561"><ele>614.0</ele><time>2026-05-03T07:57:15.369Z</time></trkpt><trkpt lat="45.7993983" lon="9.57554"><ele>614.0</ele><time>2026-05-03T07:57:16.371Z</time></trkpt><trkpt lat="45.7995117" lon="9.5754683"><ele>614.0</ele><time>2026-05-03T07:57:17.371Z</time></trkpt><trkpt lat="45.7996233" lon="9.5754217"><ele>615.1666666666666</ele><time>2026-05-03T07:57:18.371Z</time></trkpt><trkpt lat="45.7997217" lon="9.5753883"><ele>616.3333333333333</ele><time>2026-05-03T07:57:19.37Z</time></trkpt><trkpt lat="45.7998133" lon="9.5753633"><ele>617.5</ele><time>2026-05-03T07:57:20.37Z</time></trkpt><trkpt lat="45.7999033" lon="9.5753667"><ele>618.6666666666666</ele><time>2026-05-03T07:57:21.37Z</time></trkpt><trkpt lat="45.7999917" lon="9.575385"><ele>619.8333333333334</ele><time>2026-05-03T07:57:22.37Z</time></trkpt><trkpt lat="45.8000567" lon="9.57543"><ele>621.0</ele><time>2026-05-03T07:57:23.37Z</time></trkpt><trkpt lat="45.8001183" lon="9.57553"><ele>621.0</ele><time>2026-05-03T07:57:25.373Z</time></trkpt><trkpt lat="45.8000667" lon="9.5756317"><ele>621.0</ele><time>2026-05-03T07:57:27.372Z</time></trkpt><trkpt lat="45.8000083" lon="9.57568"><ele>621.0</ele><time>2026-05-03T07:57:28.373Z</time></trkpt><trkpt lat="45.799945" lon="9.5757317"><ele>621.0</ele><time>2026-05-03T07:57:29.372Z</time></trkpt><trkpt lat="45.79985" lon="9.5758133"><ele>621.0</ele><time>2026-05-03T07:57:31.373Z</time></trkpt><trkpt lat="45.7997583" lon="9.57594"><ele>621.0</ele><time>2026-05-03T07:57:33.372Z</time></trkpt><trkpt lat="45.79969" lon="9.576055"><ele>621.0</ele><time>2026-05-03T07:57:34.372Z</time></trkpt><trkpt lat="45.79962" lon="9.5761733"><ele>621.0</ele><time>2026-05-03T07:57:35.372Z</time></trkpt><trkpt lat="45.799555" lon="9.5762867"><ele>621.0</ele><time>2026-05-03T07:57:36.373Z</time></trkpt><trkpt lat="45.799495" lon="9.5763833"><ele>621.0</ele><time>2026-05-03T07:57:37.373Z</time></trkpt><trkpt lat="45.7994383" lon="9.5764767"><ele>621.2</ele><time>2026-05-03T07:57:38.374Z</time></trkpt><trkpt lat="45.7993783" lon="9.5765817"><ele>621.4000000000001</ele><time>2026-05-03T07:57:39.373Z</time></trkpt><trkpt lat="45.799315" lon="9.5766983"><ele>621.6</ele><time>2026-05-03T07:57:40.373Z</time></trkpt><trkpt lat="45.7992417" lon="9.5768233"><ele>621.8000000000001</ele><time>2026-05-03T07:57:41.374Z</time></trkpt><trkpt lat="45.7991717" lon="9.57695"><ele>622.0</ele><time>2026-05-03T07:57:42.373Z</time></trkpt><trkpt lat="45.799095" lon="9.57707"><ele>624.8000000000001</ele><time>2026-05-03T07:57:43.372Z</time></trkpt><trkpt lat="45.79903" lon="9.5771933"><ele>627.6</ele><time>2026-05-03T07:57:44.373Z</time></trkpt><trkpt lat="45.798985" lon="9.5773233"><ele>630.4000000000001</ele><time>2026-05-03T07:57:45.373Z</time></trkpt><trkpt lat="45.79897" lon="9.5774717"><ele>633.2</ele><time>2026-05-03T07:57:46.372Z</time></trkpt><trkpt lat="45.7989717" lon="9.5776383"><ele>636.0</ele><time>2026-05-03T07:57:47.372Z</time></trkpt><trkpt lat="45.79898" lon="9.577825"><ele>639.0</ele><time>2026-05-03T07:57:48.37Z</time></trkpt><trkpt lat="45.798985" lon="9.57803"><ele>642.0</ele><time>2026-05-03T07:57:49.371Z</time></trkpt><trkpt lat="45.79898" lon="9.5782083"><ele>645.0</ele><time>2026-05-03T07:57:50.372Z</time></trkpt><trkpt lat="45.7989767" lon="9.578365"><ele>648.0</ele><time>2026-05-03T07:57:51.37Z</time></trkpt><trkpt lat="45.7989683" lon="9.5785067"><ele>648.0</ele><time>2026-05-03T07:57:52.371Z</time></trkpt><trkpt lat="45.7989533" lon="9.5786483"><ele>648.0</ele><time>2026-05-03T07:57:53.372Z</time></trkpt><trkpt lat="45.79894" lon="9.5787867"><ele>648.0</ele><time>2026-05-03T07:57:54.374Z</time></trkpt><trkpt lat="45.7989283" lon="9.5789167"><ele>648.0</ele><time>2026-05-03T07:57:55.373Z</time></trkpt><trkpt lat="45.7989233" lon="9.5790483"><ele>648.0</ele><time>2026-05-03T07:57:56.373Z</time></trkpt><trkpt lat="45.79893" lon="9.5791967"><ele>651.5</ele><time>2026-05-03T07:57:57.369Z</time></trkpt><trkpt lat="45.798945" lon="9.5793567"><ele>655.0</ele><time>2026-05-03T07:57:58.374Z</time></trkpt><trkpt lat="45.798965" lon="9.5795283"><ele>658.5</ele><time>2026-05-03T07:57:59.372Z</time></trkpt><trkpt lat="45.7989883" lon="9.5797033"><ele>662.0</ele><time>2026-05-03T07:58:00.372Z</time></trkpt><trkpt lat="45.7990117" lon="9.5798683"><ele>662.3333333333333</ele><time>2026-05-03T07:58:01.372Z</time></trkpt><trkpt lat="45.79903" lon="9.580015"><ele>662.6666666666666</ele><time>2026-05-03T07:58:02.377Z</time></trkpt><trkpt lat="45.7990433" lon="9.58015"><ele>663.0</ele><time>2026-05-03T07:58:03.373Z</time></trkpt><trkpt lat="45.7990533" lon="9.5802683"><ele>663.3333333333334</ele><time>2026-05-03T07:58:04.373Z</time></trkpt><trkpt lat="45.7990617" lon="9.5803583"><ele>663.6666666666667</ele><time>2026-05-03T07:58:05.373Z</time></trkpt><trkpt lat="45.7991083" lon="9.5804467"><ele>664.0</ele><time>2026-05-03T07:58:07.373Z</time></trkpt><trkpt lat="45.7991867" lon="9.5803833"><ele>664.0</ele><time>2026-05-03T07:58:09.373Z</time></trkpt><trkpt lat="45.7991883" lon="9.5802783"><ele>664.0</ele><time>2026-05-03T07:58:10.372Z</time></trkpt><trkpt lat="45.7991933" lon="9.58015"><ele>664.0</ele><time>2026-05-03T07:58:11.372Z</time></trkpt><trkpt lat="45.7992" lon="9.5799983"><ele>664.0</ele><time>2026-05-03T07:58:12.373Z</time></trkpt><trkpt lat="45.7992167" lon="9.5798267"><ele>664.0</ele><time>2026-05-03T07:58:13.372Z</time></trkpt><trkpt lat="45.7992483" lon="9.5796583"><ele>663.6</ele><time>2026-05-03T07:58:14.373Z</time></trkpt><trkpt lat="45.799285" lon="9.579495"><ele>663.2</ele><time>2026-05-03T07:58:15.373Z</time></trkpt><trkpt lat="45.7993367" lon="9.579375"><ele>662.8000000000001</ele><time>2026-05-03T07:58:16.372Z</time></trkpt><trkpt lat="45.7994017" lon="9.5792883"><ele>662.4000000000001</ele><time>2026-05-03T07:58:17.369Z</time></trkpt><trkpt lat="45.799475" lon="9.57922"><ele>662.0</ele><time>2026-05-03T07:58:18.371Z</time></trkpt><trkpt lat="45.7995583" lon="9.5791783"><ele>665.5</ele><time>2026-05-03T07:58:19.371Z</time></trkpt><trkpt lat="45.7996633" lon="9.5791517"><ele>669.0</ele><time>2026-05-03T07:58:20.371Z</time></trkpt><trkpt lat="45.7997967" lon="9.57915"><ele>672.5</ele><time>2026-05-03T07:58:21.372Z</time></trkpt><trkpt lat="45.7999617" lon="9.579155"><ele>676.0</ele><time>2026-05-03T07:58:22.37Z</time></trkpt><trkpt lat="45.80013" lon="9.57914"><ele>678.25</ele><time>2026-05-03T07:58:23.371Z</time></trkpt><trkpt lat="45.80028" lon="9.57912"><ele>680.5</ele><time>2026-05-03T07:58:24.373Z</time></trkpt><trkpt lat="45.8004133" lon="9.5791067"><ele>682.75</ele><time>2026-05-03T07:58:25.369Z</time></trkpt><trkpt lat="45.8005317" lon="9.5791183"><ele>685.0</ele><time>2026-05-03T07:58:26.37Z</time></trkpt><trkpt lat="45.800645" lon="9.5791417"><ele>685.0</ele><time>2026-05-03T07:58:27.372Z</time></trkpt><trkpt lat="45.8007633" lon="9.57917"><ele>685.0</ele><time>2026-05-03T07:58:28.369Z</time></trkpt><trkpt lat="45.8008883" lon="9.579205"><ele>685.0</ele><time>2026-05-03T07:58:29.37Z</time></trkpt><trkpt lat="45.80101" lon="9.5792717"><ele>685.0</ele><time>2026-05-03T07:58:30.37Z</time></trkpt><trkpt lat="45.8011017" lon="9.5793267"><ele>686.0</ele><time>2026-05-03T07:58:31.369Z</time></trkpt><trkpt lat="45.80118" lon="9.57939"><ele>687.0</ele><time>2026-05-03T07:58:32.373Z</time></trkpt><trkpt lat="45.801245" lon="9.5794767"><ele>688.0</ele><time>2026-05-03T07:58:33.373Z</time></trkpt><trkpt lat="45.8013067" lon="9.5796167"><ele>689.0</ele><time>2026-05-03T07:58:34.373Z</time></trkpt><trkpt lat="45.80137" lon="9.579825"><ele>689.0</ele><time>2026-05-03T07:58:35.372Z</time></trkpt><trkpt lat="45.8014433" lon="9.580065"><ele>689.0</ele><time>2026-05-03T07:58:36.372Z</time></trkpt><trkpt lat="45.8015133" lon="9.5803133"><ele>689.0</ele><time>2026-05-03T07:58:37.373Z</time></trkpt><trkpt lat="45.8015767" lon="9.5805483"><ele>687.5</ele><time>2026-05-03T07:58:38.37Z</time></trkpt><trkpt lat="45.8016333" lon="9.5807417"><ele>686.0</ele><time>2026-05-03T07:58:39.373Z</time></trkpt><trkpt lat="45.80169" lon="9.5808983"><ele>684.5</ele><time>2026-05-03T07:58:40.373Z</time></trkpt><trkpt lat="45.8017717" lon="9.5810167"><ele>683.0</ele><time>2026-05-03T07:58:41.373Z</time></trkpt><trkpt lat="45.8018933" lon="9.5811083"><ele>697.3333333333333</ele><time>2026-05-03T07:58:42.373Z</time></trkpt><trkpt lat="45.8020483" lon="9.5811833"><ele>711.6666666666666</ele><time>2026-05-03T07:58:43.372Z</time></trkpt><trkpt lat="45.8021983" lon="9.5812467"><ele>726.0</ele><time>2026-05-03T07:58:44.374Z</time></trkpt><trkpt lat="45.8023467" lon="9.58129"><ele>726.0</ele><time>2026-05-03T07:58:45.37Z</time></trkpt><trkpt lat="45.8025067" lon="9.581295"><ele>726.0</ele><time>2026-05-03T07:58:46.37Z</time></trkpt><trkpt lat="45.802665" lon="9.5812967"><ele>726.0</ele><time>2026-05-03T07:58:47.37Z</time></trkpt><trkpt lat="45.8028183" lon="9.581315"><ele>721.0</ele><time>2026-05-03T07:58:48.37Z</time></trkpt><trkpt lat="45.80296" lon="9.58137"><ele>716.0</ele><time>2026-05-03T07:58:49.371Z</time></trkpt><trkpt lat="45.803105" lon="9.5814417"><ele>711.0</ele><time>2026-05-03T07:58:50.371Z</time></trkpt><trkpt lat="45.803245" lon="9.58151"><ele>706.0</ele><time>2026-05-03T07:58:51.37Z</time></trkpt><trkpt lat="45.8033767" lon="9.581555"><ele>706.0</ele><time>2026-05-03T07:58:52.369Z</time></trkpt><trkpt lat="45.80349" lon="9.581595"><ele>706.0</ele><time>2026-05-03T07:58:53.369Z</time></trkpt><trkpt lat="45.8035867" lon="9.58163"><ele>706.0</ele><time>2026-05-03T07:58:54.37Z</time></trkpt><trkpt lat="45.8036683" lon="9.5816967"><ele>706.0</ele><time>2026-05-03T07:58:55.37Z</time></trkpt><trkpt lat="45.80373" lon="9.5818017"><ele>706.0</ele><time>2026-05-03T07:58:56.371Z</time></trkpt><trkpt lat="45.80379" lon="9.5819617"><ele>704.0</ele><time>2026-05-03T07:58:57.37Z</time></trkpt><trkpt lat="45.8038417" lon="9.5821617"><ele>702.0</ele><time>2026-05-03T07:58:58.372Z</time></trkpt><trkpt lat="45.8038983" lon="9.58234"><ele>700.0</ele><time>2026-05-03T07:58:59.372Z</time></trkpt><trkpt lat="45.8039733" lon="9.58248"><ele>698.0</ele><time>2026-05-03T07:59:00.37Z</time></trkpt><trkpt lat="45.8040667" lon="9.5826"><ele>698.0</ele><time>2026-05-03T07:59:01.371Z</time></trkpt><trkpt lat="45.80418" lon="9.5827267"><ele>698.0</ele><time>2026-05-03T07:59:02.37Z</time></trkpt><trkpt lat="45.8043117" lon="9.5828617"><ele>698.0</ele><time>2026-05-03T07:59:03.37Z</time></trkpt><trkpt lat="45.80445" lon="9.5830167"><ele>697.3333333333333</ele><time>2026-05-03T07:59:04.37Z</time></trkpt><trkpt lat="45.804585" lon="9.5831633"><ele>696.6666666666666</ele><time>2026-05-03T07:59:05.37Z</time></trkpt><trkpt lat="45.8047117" lon="9.5832867"><ele>696.0</ele><time>2026-05-03T07:59:06.371Z</time></trkpt><trkpt lat="45.8048317" lon="9.5833717"><ele>696.0</ele><time>2026-05-03T07:59:07.371Z</time></trkpt><trkpt lat="45.8049583" lon="9.5834017"><ele>696.0</ele><time>2026-05-03T07:59:08.371Z</time></trkpt><trkpt lat="45.8051" lon="9.583385"><ele>696.0</ele><time>2026-05-03T07:59:09.37Z</time></trkpt><trkpt lat="45.8052667" lon="9.5833117"><ele>696.0</ele><time>2026-05-03T07:59:10.37Z</time></trkpt><trkpt lat="45.8054333" lon="9.5831833"><ele>695.5</ele><time>2026-05-03T07:59:11.371Z</time></trkpt><trkpt lat="45.805575" lon="9.5830667"><ele>695.0</ele><time>2026-05-03T07:59:12.37Z</time></trkpt><trkpt lat="45.8057017" lon="9.58296"><ele>694.5</ele><time>2026-05-03T07:59:13.371Z</time></trkpt><trkpt lat="45.8058183" lon="9.58288"><ele>694.0</ele><time>2026-05-03T07:59:14.37Z</time></trkpt><trkpt lat="45.805925" lon="9.5828233"><ele>692.6</ele><time>2026-05-03T07:59:15.37Z</time></trkpt><trkpt lat="45.806035" lon="9.5827833"><ele>691.2</ele><time>2026-05-03T07:59:16.37Z</time></trkpt><trkpt lat="45.8061283" lon="9.58274"><ele>689.8000000000001</ele><time>2026-05-03T07:59:17.37Z</time></trkpt><trkpt lat="45.806205" lon="9.5827117"><ele>688.4000000000001</ele><time>2026-05-03T07:59:18.371Z</time></trkpt><trkpt lat="45.8062783" lon="9.582685"><ele>687.0</ele><time>2026-05-03T07:59:19.37Z</time></trkpt><trkpt lat="45.806385" lon="9.5826467"><ele>687.0</ele><time>2026-05-03T07:59:21.371Z</time></trkpt><trkpt lat="45.806445" lon="9.5826117"><ele>687.0</ele><time>2026-05-03T07:59:24.369Z</time></trkpt><trkpt lat="45.8064983" lon="9.5824933"><ele>687.0</ele><time>2026-05-03T07:59:27.369Z</time></trkpt><trkpt lat="45.8065433" lon="9.5823683"><ele>687.0</ele><time>2026-05-03T07:59:28.372Z</time></trkpt><trkpt lat="45.8066067" lon="9.5822383"><ele>687.0</ele><time>2026-05-03T07:59:29.373Z</time></trkpt><trkpt lat="45.8067033" lon="9.5820933"><ele>685.25</ele><time>2026-05-03T07:59:30.373Z</time></trkpt><trkpt lat="45.806815" lon="9.58196"><ele>683.5</ele><time>2026-05-03T07:59:31.374Z</time></trkpt><trkpt lat="45.806935" lon="9.5818367"><ele>681.75</ele><time>2026-05-03T07:59:32.375Z</time></trkpt><trkpt lat="45.8070583" lon="9.5817167"><ele>680.0</ele><time>2026-05-03T07:59:33.372Z</time></trkpt><trkpt lat="45.8071817" lon="9.5816033"><ele>684.25</ele><time>2026-05-03T07:59:34.372Z</time></trkpt><trkpt lat="45.8072967" lon="9.5814783"><ele>688.5</ele><time>2026-05-03T07:59:35.373Z</time></trkpt><trkpt lat="45.8073967" lon="9.58133"><ele>692.75</ele><time>2026-05-03T07:59:36.374Z</time></trkpt><trkpt lat="45.8074867" lon="9.58118"><ele>697.0</ele><time>2026-05-03T07:59:37.37Z</time></trkpt><trkpt lat="45.80756" lon="9.581025"><ele>697.0</ele><time>2026-05-03T07:59:38.37Z</time></trkpt><trkpt lat="45.80761" lon="9.5808617"><ele>697.0</ele><time>2026-05-03T07:59:39.37Z</time></trkpt><trkpt lat="45.8076283" lon="9.580685"><ele>697.0</ele><time>2026-05-03T07:59:40.372Z</time></trkpt><trkpt lat="45.80763" lon="9.5805"><ele>697.0</ele><time>2026-05-03T07:59:41.37Z</time></trkpt><trkpt lat="45.80763" lon="9.58034"><ele>699.2</ele><time>2026-05-03T07:59:42.372Z</time></trkpt><trkpt lat="45.8076467" lon="9.58021"><ele>701.4000000000001</ele><time>2026-05-03T07:59:43.374Z</time></trkpt><trkpt lat="45.8076833" lon="9.5801017"><ele>703.5999999999999</ele><time>2026-05-03T07:59:44.373Z</time></trkpt><trkpt lat="45.807735" lon="9.58001"><ele>705.8</ele><time>2026-05-03T07:59:45.373Z</time></trkpt><trkpt lat="45.80781" lon="9.5799267"><ele>708.0</ele><time>2026-05-03T07:59:46.372Z</time></trkpt><trkpt lat="45.8079483" lon="9.5798633"><ele>708.0</ele><time>2026-05-03T07:59:47.369Z</time></trkpt><trkpt lat="45.8080733" lon="9.5797817"><ele>708.0</ele><time>2026-05-03T07:59:48.37Z</time></trkpt><trkpt lat="45.8082083" lon="9.5797"><ele>708.0</ele><time>2026-05-03T07:59:49.371Z</time></trkpt><trkpt lat="45.8083517" lon="9.579605"><ele>708.0</ele><time>2026-05-03T07:59:50.371Z</time></trkpt><trkpt lat="45.8084917" lon="9.5794833"><ele>714.0</ele><time>2026-05-03T07:59:51.37Z</time></trkpt><trkpt lat="45.80884" lon="9.57899"><ele>714.0</ele><time>2026-05-03T07:59:53.87Z</time></trkpt><trkpt lat="45.8090167" lon="9.5787267"><ele>714.0</ele><time>2026-05-03T07:59:55.369Z</time></trkpt><trkpt lat="45.809115" lon="9.5785483"><ele>714.0</ele><time>2026-05-03T07:59:56.37Z</time></trkpt><trkpt lat="45.809215" lon="9.57841"><ele>714.75</ele><time>2026-05-03T07:59:57.369Z</time></trkpt><trkpt lat="45.809305" lon="9.57823"><ele>715.5</ele><time>2026-05-03T07:59:58.37Z</time></trkpt><trkpt lat="45.8093933" lon="9.5780583"><ele>716.25</ele><time>2026-05-03T07:59:59.369Z</time></trkpt><trkpt lat="45.8094683" lon="9.577895"><ele>717.0</ele><time>2026-05-03T08:00:00.369Z</time></trkpt><trkpt lat="45.8095367" lon="9.5777567"><ele>711.8</ele><time>2026-05-03T08:00:01.369Z</time></trkpt><trkpt lat="45.8096033" lon="9.5776417"><ele>706.6</ele><time>2026-05-03T08:00:02.371Z</time></trkpt><trkpt lat="45.8096733" lon="9.5775533"><ele>701.4</ele><time>2026-05-03T08:00:03.37Z</time></trkpt><trkpt lat="45.809765" lon="9.57757"><ele>696.1999999999999</ele><time>2026-05-03T08:00:04.369Z</time></trkpt><trkpt lat="45.8098667" lon="9.5776117"><ele>691.0</ele><time>2026-05-03T08:00:05.37Z</time></trkpt><trkpt lat="45.809995" lon="9.5777033"><ele>691.0</ele><time>2026-05-03T08:00:06.37Z</time></trkpt><trkpt lat="45.8101433" lon="9.5778217"><ele>691.0</ele><time>2026-05-03T08:00:07.37Z</time></trkpt><trkpt lat="45.8102733" lon="9.577915"><ele>691.0</ele><time>2026-05-03T08:00:08.371Z</time></trkpt><trkpt lat="45.8104083" lon="9.57801"><ele>694.25</ele><time>2026-05-03T08:00:09.37Z</time></trkpt><trkpt lat="45.8105467" lon="9.5781083"><ele>697.5</ele><time>2026-05-03T08:00:10.369Z</time></trkpt><trkpt lat="45.8106717" lon="9.5782033"><ele>700.75</ele><time>2026-05-03T08:00:11.37Z</time></trkpt><trkpt lat="45.81079" lon="9.57829"><ele>704.0</ele><time>2026-05-03T08:00:12.371Z</time></trkpt><trkpt lat="45.8109017" lon="9.5783617"><ele>702.8000000000001</ele><time>2026-05-03T08:00:13.371Z</time></trkpt><trkpt lat="45.81101" lon="9.578425"><ele>701.6</ele><time>2026-05-03T08:00:14.37Z</time></trkpt><trkpt lat="45.81111" lon="9.5784867"><ele>700.4</ele><time>2026-05-03T08:00:15.369Z</time></trkpt><trkpt lat="45.8112017" lon="9.5785417"><ele>699.2</ele><time>2026-05-03T08:00:16.372Z</time></trkpt><trkpt lat="45.81128" lon="9.57859"><ele>698.0</ele><time>2026-05-03T08:00:17.37Z</time></trkpt><trkpt lat="45.81135" lon="9.5786183"><ele>698.0</ele><time>2026-05-03T08:00:18.37Z</time></trkpt><trkpt lat="45.8114317" lon="9.57863"><ele>698.0</ele><time>2026-05-03T08:00:19.37Z</time></trkpt><trkpt lat="45.8115233" lon="9.5786317"><ele>698.0</ele><time>2026-05-03T08:00:20.371Z</time></trkpt><trkpt lat="45.8116333" lon="9.5786"><ele>698.0</ele><time>2026-05-03T08:00:21.37Z</time></trkpt><trkpt lat="45.8117467" lon="9.578565"><ele>698.0</ele><time>2026-05-03T08:00:22.372Z</time></trkpt><trkpt lat="45.811865" lon="9.5785317"><ele>700.0</ele><time>2026-05-03T08:00:23.37Z</time></trkpt><trkpt lat="45.8119767" lon="9.5785033"><ele>702.0</ele><time>2026-05-03T08:00:24.369Z</time></trkpt><trkpt lat="45.8120817" lon="9.5785117"><ele>704.0</ele><time>2026-05-03T08:00:25.371Z</time></trkpt><trkpt lat="45.8121783" lon="9.5785217"><ele>706.0</ele><time>2026-05-03T08:00:26.371Z</time></trkpt><trkpt lat="45.812265" lon="9.578545"><ele>708.0</ele><time>2026-05-03T08:00:27.371Z</time></trkpt><trkpt lat="45.812345" lon="9.5785633"><ele>708.0</ele><time>2026-05-03T08:00:28.369Z</time></trkpt><trkpt lat="45.8124217" lon="9.5785567"><ele>708.0</ele><time>2026-05-03T08:00:29.371Z</time></trkpt><trkpt lat="45.8124983" lon="9.5785267"><ele>708.0</ele><time>2026-05-03T08:00:30.37Z</time></trkpt><trkpt lat="45.8125783" lon="9.5784683"><ele>708.0</ele><time>2026-05-03T08:00:31.37Z</time></trkpt><trkpt lat="45.8126533" lon="9.57837"><ele>708.0</ele><time>2026-05-03T08:00:32.371Z</time></trkpt><trkpt lat="45.8127067" lon="9.578235"><ele>711.25</ele><time>2026-05-03T08:00:33.37Z</time></trkpt><trkpt lat="45.8127567" lon="9.5780933"><ele>714.5</ele><time>2026-05-03T08:00:34.37Z</time></trkpt><trkpt lat="45.8128133" lon="9.5779533"><ele>717.75</ele><time>2026-05-03T08:00:35.371Z</time></trkpt><trkpt lat="45.8128667" lon="9.5778017"><ele>721.0</ele><time>2026-05-03T08:00:36.37Z</time></trkpt><trkpt lat="45.812905" lon="9.5776267"><ele>721.0</ele><time>2026-05-03T08:00:37.371Z</time></trkpt><trkpt lat="45.8129317" lon="9.5774383"><ele>721.0</ele><time>2026-05-03T08:00:38.37Z</time></trkpt><trkpt lat="45.8129467" lon="9.5772283"><ele>721.0</ele><time>2026-05-03T08:00:39.369Z</time></trkpt><trkpt lat="45.8129617" lon="9.57701"><ele>721.0</ele><time>2026-05-03T08:00:40.37Z</time></trkpt><trkpt lat="45.812975" lon="9.5768083"><ele>720.4</ele><time>2026-05-03T08:00:41.371Z</time></trkpt><trkpt lat="45.8129883" lon="9.576635"><ele>719.8</ele><time>2026-05-03T08:00:42.371Z</time></trkpt><trkpt lat="45.8130133" lon="9.5764917"><ele>719.1999999999999</ele><time>2026-05-03T08:00:43.37Z</time></trkpt><trkpt lat="45.8130583" lon="9.576365"><ele>718.5999999999999</ele><time>2026-05-03T08:00:44.371Z</time></trkpt><trkpt lat="45.8131117" lon="9.57624"><ele>718.0</ele><time>2026-05-03T08:00:45.369Z</time></trkpt><trkpt lat="45.8131817" lon="9.5761117"><ele>720.5</ele><time>2026-05-03T08:00:46.371Z</time></trkpt><trkpt lat="45.8132533" lon="9.5759717"><ele>723.0</ele><time>2026-05-03T08:00:47.37Z</time></trkpt><trkpt lat="45.813325" lon="9.57583"><ele>725.5</ele><time>2026-05-03T08:00:48.37Z</time></trkpt><trkpt lat="45.813405" lon="9.57569"><ele>728.0</ele><time>2026-05-03T08:00:49.371Z</time></trkpt><trkpt lat="45.8135033" lon="9.5755483"><ele>728.0</ele><time>2026-05-03T08:00:50.37Z</time></trkpt><trkpt lat="45.8136083" lon="9.575405"><ele>728.0</ele><time>2026-05-03T08:00:51.369Z</time></trkpt><trkpt lat="45.8137133" lon="9.5752717"><ele>728.0</ele><time>2026-05-03T08:00:52.371Z</time></trkpt><trkpt lat="45.8138167" lon="9.5751483"><ele>728.0</ele><time>2026-05-03T08:00:53.371Z</time></trkpt><trkpt lat="45.813915" lon="9.5750267"><ele>722.25</ele><time>2026-05-03T08:00:54.371Z</time></trkpt><trkpt lat="45.8140083" lon="9.5749083"><ele>716.5</ele><time>2026-05-03T08:00:55.371Z</time></trkpt><trkpt lat="45.814095" lon="9.57479"><ele>710.75</ele><time>2026-05-03T08:00:56.37Z</time></trkpt><trkpt lat="45.81418" lon="9.5746767"><ele>705.0</ele><time>2026-05-03T08:00:57.371Z</time></trkpt><trkpt lat="45.8142633" lon="9.57458"><ele>703.6</ele><time>2026-05-03T08:00:58.369Z</time></trkpt><trkpt lat="45.81435" lon="9.574495"><ele>702.2</ele><time>2026-05-03T08:00:59.371Z</time></trkpt><trkpt lat="45.81444" lon="9.574435"><ele>700.8</ele><time>2026-05-03T08:01:00.371Z</time></trkpt><trkpt lat="45.8145367" lon="9.5743767"><ele>699.4</ele><time>2026-05-03T08:01:01.372Z</time></trkpt><trkpt lat="45.8146317" lon="9.5743233"><ele>698.0</ele><time>2026-05-03T08:01:02.371Z</time></trkpt><trkpt lat="45.814725" lon="9.5742633"><ele>698.0</ele><time>2026-05-03T08:01:03.37Z</time></trkpt><trkpt lat="45.8148133" lon="9.574195"><ele>698.0</ele><time>2026-05-03T08:01:04.37Z</time></trkpt><trkpt lat="45.814905" lon="9.5741083"><ele>698.0</ele><time>2026-05-03T08:01:05.37Z</time></trkpt><trkpt lat="45.8149967" lon="9.574025"><ele>698.0</ele><time>2026-05-03T08:01:06.373Z</time></trkpt><trkpt lat="45.8150817" lon="9.573935"><ele>698.0</ele><time>2026-05-03T08:01:07.37Z</time></trkpt><trkpt lat="45.8151617" lon="9.5738383"><ele>700.5999999999999</ele><time>2026-05-03T08:01:08.37Z</time></trkpt><trkpt lat="45.8152317" lon="9.5737383"><ele>703.1999999999999</ele><time>2026-05-03T08:01:09.37Z</time></trkpt><trkpt lat="45.8152933" lon="9.5736183"><ele>705.8</ele><time>2026-05-03T08:01:10.369Z</time></trkpt><trkpt lat="45.81535" lon="9.5734833"><ele>708.4</ele><time>2026-05-03T08:01:11.37Z</time></trkpt><trkpt lat="45.8153933" lon="9.5733317"><ele>711.0</ele><time>2026-05-03T08:01:12.369Z</time></trkpt><trkpt lat="45.8154267" lon="9.5731933"><ele>711.0</ele><time>2026-05-03T08:01:13.37Z</time></trkpt><trkpt lat="45.81545" lon="9.5730817"><ele>711.0</ele><time>2026-05-03T08:01:14.37Z</time></trkpt><trkpt lat="45.8154767" lon="9.5729917"><ele>711.0</ele><time>2026-05-03T08:01:15.37Z</time></trkpt><trkpt lat="45.8155233" lon="9.5729183"><ele>711.0</ele><time>2026-05-03T08:01:16.369Z</time></trkpt><trkpt lat="45.815565" lon="9.5728333"><ele>711.0</ele><time>2026-05-03T08:01:17.37Z</time></trkpt><trkpt lat="45.8155917" lon="9.5727217"><ele>711.0</ele><time>2026-05-03T08:01:18.371Z</time></trkpt><trkpt lat="45.8156" lon="9.5725767"><ele>709.6666666666666</ele><time>2026-05-03T08:01:19.371Z</time></trkpt><trkpt lat="45.8156" lon="9.5723667"><ele>708.3333333333333</ele><time>2026-05-03T08:01:20.371Z</time></trkpt><trkpt lat="45.8156017" lon="9.57212"><ele>707.0</ele><time>2026-05-03T08:01:21.371Z</time></trkpt><trkpt lat="45.815615" lon="9.5718717"><ele>707.0</ele><time>2026-05-03T08:01:22.371Z</time></trkpt><trkpt lat="45.81563" lon="9.5716133"><ele>707.0</ele><time>2026-05-03T08:01:23.372Z</time></trkpt><trkpt lat="45.815655" lon="9.5713517"><ele>707.0</ele><time>2026-05-03T08:01:24.373Z</time></trkpt><trkpt lat="45.8156883" lon="9.5710783"><ele>707.0</ele><time>2026-05-03T08:01:25.375Z</time></trkpt><trkpt lat="45.8157233" lon="9.570805"><ele>707.0</ele><time>2026-05-03T08:01:26.374Z</time></trkpt><trkpt lat="45.8157583" lon="9.570525"><ele>707.0</ele><time>2026-05-03T08:01:27.371Z</time></trkpt><trkpt lat="45.8157933" lon="9.570225"><ele>708.3333333333333</ele><time>2026-05-03T08:01:28.37Z</time></trkpt><trkpt lat="45.8158317" lon="9.5699217"><ele>709.6666666666666</ele><time>2026-05-03T08:01:29.372Z</time></trkpt><trkpt lat="45.8158717" lon="9.5696283"><ele>711.0</ele><time>2026-05-03T08:01:30.37Z</time></trkpt><trkpt lat="45.8158983" lon="9.56935"><ele>713.0</ele><time>2026-05-03T08:01:31.37Z</time></trkpt><trkpt lat="45.81593" lon="9.56909"><ele>715.0</ele><time>2026-05-03T08:01:32.371Z</time></trkpt><trkpt lat="45.8159567" lon="9.5688483"><ele>717.0</ele><time>2026-05-03T08:01:33.369Z</time></trkpt><trkpt lat="45.815975" lon="9.56863"><ele>717.6</ele><time>2026-05-03T08:01:34.371Z</time></trkpt><trkpt lat="45.81598" lon="9.5684283"><ele>718.2</ele><time>2026-05-03T08:01:35.37Z</time></trkpt><trkpt lat="45.8159683" lon="9.5682617"><ele>718.8</ele><time>2026-05-03T08:01:36.37Z</time></trkpt><trkpt lat="45.8159683" lon="9.5681317"><ele>719.4</ele><time>2026-05-03T08:01:37.37Z</time></trkpt><trkpt lat="45.8159867" lon="9.5680233"><ele>720.0</ele><time>2026-05-03T08:01:38.37Z</time></trkpt><trkpt lat="45.81602" lon="9.56794"><ele>723.25</ele><time>2026-05-03T08:01:39.37Z</time></trkpt><trkpt lat="45.81611" lon="9.567905"><ele>726.5</ele><time>2026-05-03T08:01:41.373Z</time></trkpt><trkpt lat="45.8161767" lon="9.5679717"><ele>729.75</ele><time>2026-05-03T08:01:42.373Z</time></trkpt><trkpt lat="45.8162683" lon="9.5681483"><ele>733.0</ele><time>2026-05-03T08:01:43.374Z</time></trkpt><trkpt lat="45.81637" lon="9.5683233"><ele>733.0</ele><time>2026-05-03T08:01:44.371Z</time></trkpt><trkpt lat="45.81653" lon="9.5685433"><ele>733.0</ele><time>2026-05-03T08:01:45.374Z</time></trkpt><trkpt lat="45.816675" lon="9.56871"><ele>733.0</ele><time>2026-05-03T08:01:46.372Z</time></trkpt><trkpt lat="45.8168133" lon="9.5688833"><ele>738.6666666666667</ele><time>2026-05-03T08:01:47.372Z</time></trkpt><trkpt lat="45.8169183" lon="9.569055"><ele>744.3333333333334</ele><time>2026-05-03T08:01:48.373Z</time></trkpt><trkpt lat="45.817" lon="9.569245"><ele>750.0</ele><time>2026-05-03T08:01:49.372Z</time></trkpt><trkpt lat="45.8170683" lon="9.5694617"><ele>749.6666666666666</ele><time>2026-05-03T08:01:50.373Z</time></trkpt><trkpt lat="45.8171167" lon="9.5696717"><ele>749.3333333333333</ele><time>2026-05-03T08:01:51.372Z</time></trkpt><trkpt lat="45.817145" lon="9.5698767"><ele>749.0</ele><time>2026-05-03T08:01:52.373Z</time></trkpt><trkpt lat="45.817145" lon="9.5700917"><ele>749.0</ele><time>2026-05-03T08:01:53.373Z</time></trkpt><trkpt lat="45.8171233" lon="9.5703333"><ele>749.0</ele><time>2026-05-03T08:01:54.373Z</time></trkpt><trkpt lat="45.8170933" lon="9.57058"><ele>749.0</ele><time>2026-05-03T08:01:55.373Z</time></trkpt><trkpt lat="45.8170567" lon="9.5708367"><ele>753.0</ele><time>2026-05-03T08:01:56.373Z</time></trkpt><trkpt lat="45.817015" lon="9.5711017"><ele>757.0</ele><time>2026-05-03T08:01:57.372Z</time></trkpt><trkpt lat="45.81698" lon="9.571355"><ele>761.0</ele><time>2026-05-03T08:01:58.369Z</time></trkpt><trkpt lat="45.8169517" lon="9.571585"><ele>762.3333333333333</ele><time>2026-05-03T08:01:59.371Z</time></trkpt><trkpt lat="45.8169383" lon="9.5718083"><ele>763.6666666666666</ele><time>2026-05-03T08:02:00.372Z</time></trkpt><trkpt lat="45.8169333" lon="9.5720483"><ele>765.0</ele><time>2026-05-03T08:02:01.369Z</time></trkpt><trkpt lat="45.81694" lon="9.5722983"><ele>765.0</ele><time>2026-05-03T08:02:02.37Z</time></trkpt><trkpt lat="45.816955" lon="9.5725433"><ele>765.0</ele><time>2026-05-03T08:02:03.368Z</time></trkpt><trkpt lat="45.816965" lon="9.5727717"><ele>765.0</ele><time>2026-05-03T08:02:04.37Z</time></trkpt><trkpt lat="45.8169617" lon="9.5729817"><ele>769.3333333333333</ele><time>2026-05-03T08:02:05.37Z</time></trkpt><trkpt lat="45.8169367" lon="9.5731817"><ele>773.6666666666666</ele><time>2026-05-03T08:02:06.369Z</time></trkpt><trkpt lat="45.8168833" lon="9.5733817"><ele>778.0</ele><time>2026-05-03T08:02:07.37Z</time></trkpt><trkpt lat="45.816805" lon="9.5735883"><ele>773.3333333333333</ele><time>2026-05-03T08:02:08.369Z</time></trkpt><trkpt lat="45.8167033" lon="9.5738083"><ele>768.6666666666666</ele><time>2026-05-03T08:02:09.37Z</time></trkpt><trkpt lat="45.8165917" lon="9.574045"><ele>764.0</ele><time>2026-05-03T08:02:10.369Z</time></trkpt><trkpt lat="45.81648" lon="9.5742783"><ele>764.0</ele><time>2026-05-03T08:02:11.371Z</time></trkpt><trkpt lat="45.816385" lon="9.5745017"><ele>764.0</ele><time>2026-05-03T08:02:12.372Z</time></trkpt><trkpt lat="45.8163017" lon="9.5747083"><ele>764.0</ele><time>2026-05-03T08:02:13.372Z</time></trkpt><trkpt lat="45.8162317" lon="9.5748933"><ele>768.2</ele><time>2026-05-03T08:02:14.373Z</time></trkpt><trkpt lat="45.8161683" lon="9.5750433"><ele>772.4000000000001</ele><time>2026-05-03T08:02:15.373Z</time></trkpt><trkpt lat="45.81611" lon="9.575155"><ele>776.6</ele><time>2026-05-03T08:02:16.372Z</time></trkpt><trkpt lat="45.8160733" lon="9.5752467"><ele>780.8</ele><time>2026-05-03T08:02:17.373Z</time></trkpt><trkpt lat="45.8160883" lon="9.5753667"><ele>785.0</ele><time>2026-05-03T08:02:19.373Z</time></trkpt><trkpt lat="45.8161783" lon="9.575325"><ele>785.0</ele><time>2026-05-03T08:02:21.372Z</time></trkpt><trkpt lat="45.81622" lon="9.575235"><ele>785.0</ele><time>2026-05-03T08:02:22.371Z</time></trkpt><trkpt lat="45.81627" lon="9.5750767"><ele>785.0</ele><time>2026-05-03T08:02:23.369Z</time></trkpt><trkpt lat="45.8163267" lon="9.5749233"><ele>785.0</ele><time>2026-05-03T08:02:24.369Z</time></trkpt><trkpt lat="45.81641" lon="9.5747483"><ele>785.0</ele><time>2026-05-03T08:02:25.373Z</time></trkpt><trkpt lat="45.8165117" lon="9.574565"><ele>785.0</ele><time>2026-05-03T08:02:26.372Z</time></trkpt><trkpt lat="45.81662" lon="9.5743867"><ele>785.0</ele><time>2026-05-03T08:02:27.373Z</time></trkpt><trkpt lat="45.8167167" lon="9.5741983"><ele>786.6666666666667</ele><time>2026-05-03T08:02:28.373Z</time></trkpt><trkpt lat="45.8168283" lon="9.5740267"><ele>788.3333333333333</ele><time>2026-05-03T08:02:29.37Z</time></trkpt><trkpt lat="45.816955" lon="9.573875"><ele>790.0</ele><time>2026-05-03T08:02:30.37Z</time></trkpt><trkpt lat="45.8170767" lon="9.5737417"><ele>787.0</ele><time>2026-05-03T08:02:31.372Z</time></trkpt><trkpt lat="45.8171867" lon="9.5736083"><ele>784.0</ele><time>2026-05-03T08:02:32.369Z</time></trkpt><trkpt lat="45.81729" lon="9.5734617"><ele>781.0</ele><time>2026-05-03T08:02:33.373Z</time></trkpt><trkpt lat="45.8173833" lon="9.5732783"><ele>778.0</ele><time>2026-05-03T08:02:34.372Z</time></trkpt><trkpt lat="45.817475" lon="9.5730767"><ele>778.0</ele><time>2026-05-03T08:02:35.371Z</time></trkpt><trkpt lat="45.817565" lon="9.572885"><ele>778.0</ele><time>2026-05-03T08:02:36.37Z</time></trkpt><trkpt lat="45.8176483" lon="9.572715"><ele>778.0</ele><time>2026-05-03T08:02:37.37Z</time></trkpt><trkpt lat="45.8177267" lon="9.57257"><ele>778.0</ele><time>2026-05-03T08:02:38.372Z</time></trkpt><trkpt lat="45.81778" lon="9.57244"><ele>777.4999999999999</ele><time>2026-05-03T08:02:39.372Z</time></trkpt><trkpt lat="45.817835" lon="9.572335"><ele>777.0</ele><time>2026-05-03T08:02:40.37Z</time></trkpt><trkpt lat="45.8178983" lon="9.572255"><ele>776.5</ele><time>2026-05-03T08:02:41.371Z</time></trkpt><trkpt lat="45.817965" lon="9.5721917"><ele>776.0</ele><time>2026-05-03T08:02:42.373Z</time></trkpt><trkpt lat="45.81804" lon="9.57212"><ele>775.4999999999999</ele><time>2026-05-03T08:02:43.372Z</time></trkpt><trkpt lat="45.81812" lon="9.572035"><ele>775.0</ele><time>2026-05-03T08:02:44.372Z</time></trkpt><trkpt lat="45.81821" lon="9.57193"><ele>777.0</ele><time>2026-05-03T08:02:45.373Z</time></trkpt><trkpt lat="45.818305" lon="9.571805"><ele>779.0</ele><time>2026-05-03T08:02:46.372Z</time></trkpt><trkpt lat="45.8183983" lon="9.57166"><ele>781.0</ele><time>2026-05-03T08:02:47.374Z</time></trkpt><trkpt lat="45.8184883" lon="9.5714883"><ele>783.0</ele><time>2026-05-03T08:02:48.371Z</time></trkpt><trkpt lat="45.818575" lon="9.5712817"><ele>781.0</ele><time>2026-05-03T08:02:49.373Z</time></trkpt><trkpt lat="45.8186567" lon="9.5710567"><ele>779.0</ele><time>2026-05-03T08:02:50.371Z</time></trkpt><trkpt lat="45.818745" lon="9.5708233"><ele>777.0</ele><time>2026-05-03T08:02:51.371Z</time></trkpt><trkpt lat="45.8188433" lon="9.57059"><ele>777.0</ele><time>2026-05-03T08:02:52.372Z</time></trkpt><trkpt lat="45.8189517" lon="9.5703583"><ele>777.0</ele><time>2026-05-03T08:02:53.371Z</time></trkpt><trkpt lat="45.81907" lon="9.57014"><ele>777.0</ele><time>2026-05-03T08:02:54.372Z</time></trkpt><trkpt lat="45.8191817" lon="9.5699517"><ele>776.75</ele><time>2026-05-03T08:02:55.372Z</time></trkpt><trkpt lat="45.8192867" lon="9.5698"><ele>776.5</ele><time>2026-05-03T08:02:56.372Z</time></trkpt><trkpt lat="45.819385" lon="9.569685"><ele>776.25</ele><time>2026-05-03T08:02:57.372Z</time></trkpt><trkpt lat="45.8194783" lon="9.5696017"><ele>776.0</ele><time>2026-05-03T08:02:58.371Z</time></trkpt><trkpt lat="45.8195733" lon="9.5695433"><ele>779.4</ele><time>2026-05-03T08:02:59.368Z</time></trkpt><trkpt lat="45.8196533" lon="9.5694933"><ele>782.8</ele><time>2026-05-03T08:03:00.37Z</time></trkpt><trkpt lat="45.8197333" lon="9.5694267"><ele>786.1999999999999</ele><time>2026-05-03T08:03:01.37Z</time></trkpt><trkpt lat="45.8198067" lon="9.5693117"><ele>789.5999999999999</ele><time>2026-05-03T08:03:02.369Z</time></trkpt><trkpt lat="45.8198733" lon="9.569145"><ele>793.0</ele><time>2026-05-03T08:03:03.372Z</time></trkpt><trkpt lat="45.8199567" lon="9.5689667"><ele>793.0</ele><time>2026-05-03T08:03:04.37Z</time></trkpt><trkpt lat="45.820065" lon="9.568805"><ele>793.0</ele><time>2026-05-03T08:03:05.37Z</time></trkpt><trkpt lat="45.8201883" lon="9.5686683"><ele>793.0</ele><time>2026-05-03T08:03:06.37Z</time></trkpt><trkpt lat="45.820305" lon="9.5685483"><ele>795.75</ele><time>2026-05-03T08:03:07.373Z</time></trkpt><trkpt lat="45.8204083" lon="9.5684583"><ele>798.5</ele><time>2026-05-03T08:03:08.372Z</time></trkpt><trkpt lat="45.820515" lon="9.568415"><ele>801.25</ele><time>2026-05-03T08:03:09.369Z</time></trkpt><trkpt lat="45.8206483" lon="9.568385"><ele>804.0</ele><time>2026-05-03T08:03:10.37Z</time></trkpt><trkpt lat="45.8207883" lon="9.56835"><ele>804.0</ele><time>2026-05-03T08:03:11.373Z</time></trkpt><trkpt lat="45.8209267" lon="9.568285"><ele>804.0</ele><time>2026-05-03T08:03:12.374Z</time></trkpt><trkpt lat="45.8210567" lon="9.5682433"><ele>804.0</ele><time>2026-05-03T08:03:13.372Z</time></trkpt><trkpt lat="45.8211767" lon="9.56824"><ele>804.0</ele><time>2026-05-03T08:03:14.373Z</time></trkpt><trkpt lat="45.8212967" lon="9.5682883"><ele>810.6666666666667</ele><time>2026-05-03T08:03:15.372Z</time></trkpt><trkpt lat="45.821435" lon="9.5683717"><ele>817.3333333333334</ele><time>2026-05-03T08:03:16.372Z</time></trkpt><trkpt lat="45.8215933" lon="9.568495"><ele>824.0</ele><time>2026-05-03T08:03:17.372Z</time></trkpt><trkpt lat="45.8217617" lon="9.5686183"><ele>819.6666666666667</ele><time>2026-05-03T08:03:18.369Z</time></trkpt><trkpt lat="45.8219317" lon="9.5687417"><ele>815.3333333333333</ele><time>2026-05-03T08:03:19.372Z</time></trkpt><trkpt lat="45.8220883" lon="9.5688667"><ele>811.0</ele><time>2026-05-03T08:03:20.369Z</time></trkpt><trkpt lat="45.822235" lon="9.5689733"><ele>811.0</ele><time>2026-05-03T08:03:21.369Z</time></trkpt><trkpt lat="45.82236" lon="9.5690733"><ele>811.0</ele><time>2026-05-03T08:03:22.372Z</time></trkpt><trkpt lat="45.82245" lon="9.5691883"><ele>811.0</ele><time>2026-05-03T08:03:23.37Z</time></trkpt><trkpt lat="45.8225167" lon="9.5692983"><ele>811.0</ele><time>2026-05-03T08:03:24.37Z</time></trkpt><trkpt lat="45.8225733" lon="9.5693983"><ele>811.0</ele><time>2026-05-03T08:03:25.37Z</time></trkpt><trkpt lat="45.8226317" lon="9.5694733"><ele>811.0</ele><time>2026-05-03T08:03:26.372Z</time></trkpt><trkpt lat="45.8226933" lon="9.5695267"><ele>811.0</ele><time>2026-05-03T08:03:27.371Z</time></trkpt><trkpt lat="45.8227967" lon="9.5694583"><ele>811.0</ele><time>2026-05-03T08:03:29.371Z</time></trkpt><trkpt lat="45.8228317" lon="9.5692533"><ele>811.0</ele><time>2026-05-03T08:03:30.372Z</time></trkpt><trkpt lat="45.8228633" lon="9.569065"><ele>808.6666666666666</ele><time>2026-05-03T08:03:31.37Z</time></trkpt><trkpt lat="45.8228933" lon="9.5688167"><ele>806.3333333333333</ele><time>2026-05-03T08:03:32.37Z</time></trkpt><trkpt lat="45.8229333" lon="9.56861"><ele>804.0</ele><time>2026-05-03T08:03:33.372Z</time></trkpt><trkpt lat="45.822985" lon="9.5684083"><ele>804.0</ele><time>2026-05-03T08:03:34.371Z</time></trkpt><trkpt lat="45.8230467" lon="9.56824"><ele>804.0</ele><time>2026-05-03T08:03:35.372Z</time></trkpt><trkpt lat="45.82311" lon="9.56809"><ele>804.0</ele><time>2026-05-03T08:03:36.372Z</time></trkpt><trkpt lat="45.8231683" lon="9.5679567"><ele>804.0</ele><time>2026-05-03T08:03:37.373Z</time></trkpt><trkpt lat="45.823205" lon="9.5678267"><ele>806.75</ele><time>2026-05-03T08:03:38.372Z</time></trkpt><trkpt lat="45.823205" lon="9.5676983"><ele>809.5</ele><time>2026-05-03T08:03:39.369Z</time></trkpt><trkpt lat="45.8231733" lon="9.567565"><ele>812.25</ele><time>2026-05-03T08:03:40.37Z</time></trkpt><trkpt lat="45.82311" lon="9.56741"><ele>815.0</ele><time>2026-05-03T08:03:41.372Z</time></trkpt><trkpt lat="45.8230533" lon="9.5672283"><ele>815.0</ele><time>2026-05-03T08:03:42.37Z</time></trkpt><trkpt lat="45.82301" lon="9.5670433"><ele>815.0</ele><time>2026-05-03T08:03:43.369Z</time></trkpt><trkpt lat="45.8229783" lon="9.5668533"><ele>815.0</ele><time>2026-05-03T08:03:44.37Z</time></trkpt><trkpt lat="45.8229667" lon="9.566675"><ele>815.0</ele><time>2026-05-03T08:03:45.37Z</time></trkpt><trkpt lat="45.82297" lon="9.5665317"><ele>817.6</ele><time>2026-05-03T08:03:46.37Z</time></trkpt><trkpt lat="45.822995" lon="9.5664083"><ele>820.2</ele><time>2026-05-03T08:03:47.37Z</time></trkpt><trkpt lat="45.8230367" lon="9.5663"><ele>822.8</ele><time>2026-05-03T08:03:48.369Z</time></trkpt><trkpt lat="45.823095" lon="9.5662"><ele>825.4</ele><time>2026-05-03T08:03:49.369Z</time></trkpt><trkpt lat="45.823185" lon="9.56612"><ele>828.0</ele><time>2026-05-03T08:03:50.371Z</time></trkpt><trkpt lat="45.8233217" lon="9.56606"><ele>828.0</ele><time>2026-05-03T08:03:51.37Z</time></trkpt><trkpt lat="45.8234883" lon="9.5660233"><ele>828.0</ele><time>2026-05-03T08:03:52.371Z</time></trkpt><trkpt lat="45.8236683" lon="9.566005"><ele>828.0</ele><time>2026-05-03T08:03:53.371Z</time></trkpt><trkpt lat="45.8238333" lon="9.5659983"><ele>828.0</ele><time>2026-05-03T08:03:54.37Z</time></trkpt><trkpt lat="45.8239633" lon="9.565995"><ele>828.0</ele><time>2026-05-03T08:03:55.37Z</time></trkpt><trkpt lat="45.82407" lon="9.565955"><ele>828.0</ele><time>2026-05-03T08:03:56.37Z</time></trkpt><trkpt lat="45.8241583" lon="9.5658733"><ele>828.0</ele><time>2026-05-03T08:03:57.37Z</time></trkpt><trkpt lat="45.8242383" lon="9.565735"><ele>828.0</ele><time>2026-05-03T08:03:58.371Z</time></trkpt><trkpt lat="45.824295" lon="9.5655533"><ele>828.0</ele><time>2026-05-03T08:03:59.373Z</time></trkpt><trkpt lat="45.82436" lon="9.5653833"><ele>828.0</ele><time>2026-05-03T08:04:00.368Z</time></trkpt><trkpt lat="45.824425" lon="9.5652283"><ele>828.0</ele><time>2026-05-03T08:04:01.37Z</time></trkpt><trkpt lat="45.8244917" lon="9.565115"><ele>827.8</ele><time>2026-05-03T08:04:02.372Z</time></trkpt><trkpt lat="45.8245517" lon="9.5650433"><ele>827.5999999999999</ele><time>2026-05-03T08:04:03.369Z</time></trkpt><trkpt lat="45.8246367" lon="9.5650217"><ele>827.4000000000001</ele><time>2026-05-03T08:04:04.37Z</time></trkpt><trkpt lat="45.8247383" lon="9.5649933"><ele>827.2</ele><time>2026-05-03T08:04:05.371Z</time></trkpt><trkpt lat="45.82484" lon="9.5649367"><ele>827.0</ele><time>2026-05-03T08:04:06.372Z</time></trkpt><trkpt lat="45.8249367" lon="9.5648267"><ele>827.0</ele><time>2026-05-03T08:04:07.371Z</time></trkpt><trkpt lat="45.8250283" lon="9.5646833"><ele>827.0</ele><time>2026-05-03T08:04:08.372Z</time></trkpt><trkpt lat="45.8251133" lon="9.5645283"><ele>827.0</ele><time>2026-05-03T08:04:09.37Z</time></trkpt><trkpt lat="45.8252" lon="9.5644017"><ele>827.0</ele><time>2026-05-03T08:04:10.372Z</time></trkpt><trkpt lat="45.825295" lon="9.5643017"><ele>829.5</ele><time>2026-05-03T08:04:11.37Z</time></trkpt><trkpt lat="45.82542" lon="9.5642367"><ele>832.0</ele><time>2026-05-03T08:04:12.371Z</time></trkpt><trkpt lat="45.8255617" lon="9.5641933"><ele>834.5</ele><time>2026-05-03T08:04:13.371Z</time></trkpt><trkpt lat="45.8257133" lon="9.564165"><ele>837.0</ele><time>2026-05-03T08:04:14.371Z</time></trkpt><trkpt lat="45.8258733" lon="9.564145"><ele>838.0</ele><time>2026-05-03T08:04:15.37Z</time></trkpt><trkpt lat="45.8260267" lon="9.56413"><ele>839.0</ele><time>2026-05-03T08:04:16.373Z</time></trkpt><trkpt lat="45.8261783" lon="9.56413"><ele>840.0</ele><time>2026-05-03T08:04:17.372Z</time></trkpt><trkpt lat="45.8263217" lon="9.5641183"><ele>841.0</ele><time>2026-05-03T08:04:18.369Z</time></trkpt><trkpt lat="45.82646" lon="9.564095"><ele>841.0</ele><time>2026-05-03T08:04:19.371Z</time></trkpt><trkpt lat="45.82659" lon="9.5640833"><ele>841.0</ele><time>2026-05-03T08:04:20.37Z</time></trkpt><trkpt lat="45.8267" lon="9.5640767"><ele>841.0</ele><time>2026-05-03T08:04:21.37Z</time></trkpt><trkpt lat="45.8267867" lon="9.56414"><ele>841.0</ele><time>2026-05-03T08:04:22.37Z</time></trkpt><trkpt lat="45.82686" lon="9.564225"><ele>841.0</ele><time>2026-05-03T08:04:23.37Z</time></trkpt><trkpt lat="45.8269267" lon="9.5643183"><ele>846.6666666666666</ele><time>2026-05-03T08:04:24.37Z</time></trkpt><trkpt lat="45.826995" lon="9.56449"><ele>852.3333333333333</ele><time>2026-05-03T08:04:25.371Z</time></trkpt><trkpt lat="45.82708" lon="9.5646917"><ele>858.0</ele><time>2026-05-03T08:04:26.37Z</time></trkpt><trkpt lat="45.8271917" lon="9.56496"><ele>858.0</ele><time>2026-05-03T08:04:27.369Z</time></trkpt><trkpt lat="45.827295" lon="9.565175"><ele>858.0</ele><time>2026-05-03T08:04:28.369Z</time></trkpt><trkpt lat="45.8273983" lon="9.5653317"><ele>858.0</ele><time>2026-05-03T08:04:29.372Z</time></trkpt><trkpt lat="45.8274783" lon="9.5654783"><ele>852.75</ele><time>2026-05-03T08:04:30.369Z</time></trkpt><trkpt lat="45.82752" lon="9.5656517"><ele>847.5</ele><time>2026-05-03T08:04:31.371Z</time></trkpt><trkpt lat="45.8275383" lon="9.56582"><ele>842.25</ele><time>2026-05-03T08:04:32.372Z</time></trkpt><trkpt lat="45.82757" lon="9.5659717"><ele>837.0</ele><time>2026-05-03T08:04:33.371Z</time></trkpt><trkpt lat="45.8276167" lon="9.5661117"><ele>839.0</ele><time>2026-05-03T08:04:34.371Z</time></trkpt><trkpt lat="45.8276983" lon="9.566225"><ele>841.0</ele><time>2026-05-03T08:04:35.37Z</time></trkpt><trkpt lat="45.8278183" lon="9.5663367"><ele>843.0</ele><time>2026-05-03T08:04:36.371Z</time></trkpt><trkpt lat="45.8279483" lon="9.56645"><ele>845.0</ele><time>2026-05-03T08:04:37.371Z</time></trkpt><trkpt lat="45.8280783" lon="9.5665567"><ele>845.0</ele><time>2026-05-03T08:04:38.372Z</time></trkpt><trkpt lat="45.82821" lon="9.56662"><ele>845.0</ele><time>2026-05-03T08:04:39.37Z</time></trkpt><trkpt lat="45.8283367" lon="9.5666567"><ele>845.0</ele><time>2026-05-03T08:04:40.37Z</time></trkpt><trkpt lat="45.82847" lon="9.5666967"><ele>845.0</ele><time>2026-05-03T08:04:41.37Z</time></trkpt><trkpt lat="45.828605" lon="9.5667567"><ele>843.5</ele><time>2026-05-03T08:04:42.371Z</time></trkpt><trkpt lat="45.8287383" lon="9.5668567"><ele>842.0</ele><time>2026-05-03T08:04:43.37Z</time></trkpt><trkpt lat="45.828865" lon="9.5669517"><ele>840.5</ele><time>2026-05-03T08:04:44.372Z</time></trkpt><trkpt lat="45.8289817" lon="9.5670467"><ele>839.0</ele><time>2026-05-03T08:04:45.373Z</time></trkpt><trkpt lat="45.8290767" lon="9.5671533"><ele>839.0</ele><time>2026-05-03T08:04:46.372Z</time></trkpt><trkpt lat="45.8291517" lon="9.5672517"><ele>839.0</ele><time>2026-05-03T08:04:47.369Z</time></trkpt><trkpt lat="45.8292117" lon="9.5673767"><ele>839.0</ele><time>2026-05-03T08:04:48.37Z</time></trkpt><trkpt lat="45.8292433" lon="9.5675317"><ele>839.0</ele><time>2026-05-03T08:04:49.37Z</time></trkpt><trkpt lat="45.82926" lon="9.5677217"><ele>839.0</ele><time>2026-05-03T08:04:50.37Z</time></trkpt><trkpt lat="45.829255" lon="9.5678383"><ele>839.0</ele><time>2026-05-03T08:04:51.37Z</time></trkpt><trkpt lat="45.8292717" lon="9.568015"><ele>839.0</ele><time>2026-05-03T08:04:52.371Z</time></trkpt><trkpt lat="45.8292867" lon="9.5682033"><ele>839.0</ele><time>2026-05-03T08:04:53.373Z</time></trkpt><trkpt lat="45.8293267" lon="9.5683783"><ele>837.1666666666667</ele><time>2026-05-03T08:04:54.37Z</time></trkpt><trkpt lat="45.8293867" lon="9.5685033"><ele>835.3333333333334</ele><time>2026-05-03T08:04:55.37Z</time></trkpt><trkpt lat="45.82945" lon="9.5685683"><ele>833.5</ele><time>2026-05-03T08:04:56.373Z</time></trkpt><trkpt lat="45.8295233" lon="9.5685967"><ele>831.6666666666667</ele><time>2026-05-03T08:04:57.371Z</time></trkpt><trkpt lat="45.8295967" lon="9.568585"><ele>829.8333333333334</ele><time>2026-05-03T08:04:58.371Z</time></trkpt><trkpt lat="45.829665" lon="9.568535"><ele>828.0</ele><time>2026-05-03T08:04:59.464Z</time></trkpt><trkpt lat="45.8297567" lon="9.5684333"><ele>828.0</ele><time>2026-05-03T08:05:00.37Z</time></trkpt><trkpt lat="45.82986" lon="9.568325"><ele>828.0</ele><time>2026-05-03T08:05:01.371Z</time></trkpt><trkpt lat="45.8299633" lon="9.5682433"><ele>828.0</ele><time>2026-05-03T08:05:02.369Z</time></trkpt><trkpt lat="45.83007" lon="9.5681667"><ele>828.0</ele><time>2026-05-03T08:05:03.37Z</time></trkpt><trkpt lat="45.830175" lon="9.5680733"><ele>830.0</ele><time>2026-05-03T08:05:04.37Z</time></trkpt><trkpt lat="45.8302833" lon="9.5679517"><ele>832.0</ele><time>2026-05-03T08:05:05.373Z</time></trkpt><trkpt lat="45.8303833" lon="9.5678267"><ele>834.0</ele><time>2026-05-03T08:05:06.372Z</time></trkpt><trkpt lat="45.8304733" lon="9.5677117"><ele>836.0</ele><time>2026-05-03T08:05:07.37Z</time></trkpt><trkpt lat="45.83057" lon="9.56762"><ele>836.0</ele><time>2026-05-03T08:05:08.37Z</time></trkpt><trkpt lat="45.8306883" lon="9.567555"><ele>836.0</ele><time>2026-05-03T08:05:09.371Z</time></trkpt><trkpt lat="45.8308383" lon="9.5675317"><ele>836.0</ele><time>2026-05-03T08:05:10.375Z</time></trkpt><trkpt lat="45.8310117" lon="9.5675233"><ele>834.0</ele><time>2026-05-03T08:05:11.373Z</time></trkpt><trkpt lat="45.8311967" lon="9.5675183"><ele>832.0</ele><time>2026-05-03T08:05:12.375Z</time></trkpt><trkpt lat="45.831375" lon="9.567535"><ele>830.0</ele><time>2026-05-03T08:05:13.37Z</time></trkpt><trkpt lat="45.8315283" lon="9.567555"><ele>830.0</ele><time>2026-05-03T08:05:14.373Z</time></trkpt><trkpt lat="45.83166" lon="9.567575"><ele>830.0</ele><time>2026-05-03T08:05:15.372Z</time></trkpt><trkpt lat="45.8317717" lon="9.5675383"><ele>830.0</ele><time>2026-05-03T08:05:16.372Z</time></trkpt><trkpt lat="45.8318667" lon="9.567485"><ele>830.0</ele><time>2026-05-03T08:05:17.369Z</time></trkpt><trkpt lat="45.8319717" lon="9.567395"><ele>830.4</ele><time>2026-05-03T08:05:18.369Z</time></trkpt><trkpt lat="45.8320783" lon="9.5673017"><ele>830.8</ele><time>2026-05-03T08:05:19.37Z</time></trkpt><trkpt lat="45.8321867" lon="9.567215"><ele>831.2</ele><time>2026-05-03T08:05:20.371Z</time></trkpt><trkpt lat="45.83228" lon="9.5671917"><ele>831.6</ele><time>2026-05-03T08:05:21.37Z</time></trkpt><trkpt lat="45.832365" lon="9.567205"><ele>832.0</ele><time>2026-05-03T08:05:22.37Z</time></trkpt><trkpt lat="45.8324233" lon="9.567255"><ele>832.0</ele><time>2026-05-03T08:05:23.369Z</time></trkpt><trkpt lat="45.83249" lon="9.5673"><ele>832.0</ele><time>2026-05-03T08:05:24.371Z</time></trkpt><trkpt lat="45.8325467" lon="9.5674233"><ele>832.0</ele><time>2026-05-03T08:05:25.372Z</time></trkpt><trkpt lat="45.8325667" lon="9.567605"><ele>832.0</ele><time>2026-05-03T08:05:26.371Z</time></trkpt><trkpt lat="45.8325883" lon="9.56777"><ele>832.0</ele><time>2026-05-03T08:05:27.369Z</time></trkpt><trkpt lat="45.8326183" lon="9.5679217"><ele>832.4000000000001</ele><time>2026-05-03T08:05:28.369Z</time></trkpt><trkpt lat="45.832645" lon="9.56807"><ele>832.8000000000001</ele><time>2026-05-03T08:05:29.37Z</time></trkpt><trkpt lat="45.8326933" lon="9.5681617"><ele>833.2</ele><time>2026-05-03T08:05:30.369Z</time></trkpt><trkpt lat="45.832775" lon="9.5682083"><ele>833.6</ele><time>2026-05-03T08:05:31.371Z</time></trkpt><trkpt lat="45.8328683" lon="9.5682467"><ele>834.0</ele><time>2026-05-03T08:05:32.37Z</time></trkpt><trkpt lat="45.83297" lon="9.5682667"><ele>834.0</ele><time>2026-05-03T08:05:33.371Z</time></trkpt><trkpt lat="45.8331017" lon="9.5682867"><ele>834.0</ele><time>2026-05-03T08:05:34.371Z</time></trkpt><trkpt lat="45.833245" lon="9.5683517"><ele>834.0</ele><time>2026-05-03T08:05:35.371Z</time></trkpt><trkpt lat="45.8333883" lon="9.56848"><ele>839.0</ele><time>2026-05-03T08:05:36.376Z</time></trkpt><trkpt lat="45.8335217" lon="9.568655"><ele>844.0</ele><time>2026-05-03T08:05:37.372Z</time></trkpt><trkpt lat="45.8336467" lon="9.5688183"><ele>849.0</ele><time>2026-05-03T08:05:38.374Z</time></trkpt><trkpt lat="45.8337583" lon="9.56898"><ele>849.0</ele><time>2026-05-03T08:05:39.369Z</time></trkpt><trkpt lat="45.8338617" lon="9.569105"><ele>849.0</ele><time>2026-05-03T08:05:40.371Z</time></trkpt><trkpt lat="45.8339483" lon="9.5692433"><ele>849.0</ele><time>2026-05-03T08:05:41.372Z</time></trkpt><trkpt lat="45.83401" lon="9.5694133"><ele>849.0</ele><time>2026-05-03T08:05:42.371Z</time></trkpt><trkpt lat="45.8340433" lon="9.569615"><ele>847.0</ele><time>2026-05-03T08:05:43.371Z</time></trkpt><trkpt lat="45.8340517" lon="9.56986"><ele>845.0</ele><time>2026-05-03T08:05:44.371Z</time></trkpt><trkpt lat="45.8340283" lon="9.5701083"><ele>843.0</ele><time>2026-05-03T08:05:45.369Z</time></trkpt><trkpt lat="45.8339883" lon="9.5703767"><ele>843.0</ele><time>2026-05-03T08:05:46.369Z</time></trkpt><trkpt lat="45.833945" lon="9.57066"><ele>843.0</ele><time>2026-05-03T08:05:47.37Z</time></trkpt><trkpt lat="45.8339" lon="9.5709417"><ele>843.0</ele><time>2026-05-03T08:05:48.37Z</time></trkpt><trkpt lat="45.833855" lon="9.5712133"><ele>846.3333333333333</ele><time>2026-05-03T08:05:49.37Z</time></trkpt><trkpt lat="45.8338133" lon="9.5714783"><ele>849.6666666666666</ele><time>2026-05-03T08:05:50.371Z</time></trkpt><trkpt lat="45.8337767" lon="9.5717217"><ele>853.0</ele><time>2026-05-03T08:05:51.37Z</time></trkpt><trkpt lat="45.8337533" lon="9.5719467"><ele>853.5</ele><time>2026-05-03T08:05:52.37Z</time></trkpt><trkpt lat="45.8337367" lon="9.5721633"><ele>854.0</ele><time>2026-05-03T08:05:53.369Z</time></trkpt><trkpt lat="45.8337217" lon="9.5723733"><ele>854.5</ele><time>2026-05-03T08:05:54.373Z</time></trkpt><trkpt lat="45.8337033" lon="9.5725683"><ele>855.0</ele><time>2026-05-03T08:05:55.373Z</time></trkpt><trkpt lat="45.8336767" lon="9.5727533"><ele>851.8</ele><time>2026-05-03T08:05:56.373Z</time></trkpt><trkpt lat="45.8336517" lon="9.5729267"><ele>848.6</ele><time>2026-05-03T08:05:57.372Z</time></trkpt><trkpt lat="45.833635" lon="9.573095"><ele>845.4000000000001</ele><time>2026-05-03T08:05:58.369Z</time></trkpt><trkpt lat="45.8336283" lon="9.57325"><ele>842.2</ele><time>2026-05-03T08:05:59.37Z</time></trkpt><trkpt lat="45.8336317" lon="9.5733867"><ele>839.0</ele><time>2026-05-03T08:06:00.371Z</time></trkpt><trkpt lat="45.833645" lon="9.5735117"><ele>839.0</ele><time>2026-05-03T08:06:01.371Z</time></trkpt><trkpt lat="45.8336667" lon="9.57362"><ele>839.0</ele><time>2026-05-03T08:06:02.371Z</time></trkpt><trkpt lat="45.8337067" lon="9.573705"><ele>839.0</ele><time>2026-05-03T08:06:03.371Z</time></trkpt><trkpt lat="45.833775" lon="9.5737833"><ele>839.0</ele><time>2026-05-03T08:06:04.37Z</time></trkpt><trkpt lat="45.8338833" lon="9.5738567"><ele>839.0</ele><time>2026-05-03T08:06:05.37Z</time></trkpt><trkpt lat="45.8340133" lon="9.5739433"><ele>834.6666666666667</ele><time>2026-05-03T08:06:06.373Z</time></trkpt><trkpt lat="45.83416" lon="9.5740433"><ele>830.3333333333333</ele><time>2026-05-03T08:06:07.372Z</time></trkpt><trkpt lat="45.8343033" lon="9.5741417"><ele>826.0</ele><time>2026-05-03T08:06:08.369Z</time></trkpt><trkpt lat="45.8344267" lon="9.5742333"><ele>827.4</ele><time>2026-05-03T08:06:09.369Z</time></trkpt><trkpt lat="45.834525" lon="9.5743267"><ele>828.8</ele><time>2026-05-03T08:06:10.37Z</time></trkpt><trkpt lat="45.8345917" lon="9.5744283"><ele>830.1999999999999</ele><time>2026-05-03T08:06:11.373Z</time></trkpt><trkpt lat="45.83464" lon="9.5745367"><ele>831.5999999999999</ele><time>2026-05-03T08:06:12.372Z</time></trkpt><trkpt lat="45.8346833" lon="9.5746283"><ele>833.0</ele><time>2026-05-03T08:06:13.372Z</time></trkpt><trkpt lat="45.8347383" lon="9.5746967"><ele>833.0</ele><time>2026-05-03T08:06:14.372Z</time></trkpt><trkpt lat="45.8348067" lon="9.5747333"><ele>833.0</ele><time>2026-05-03T08:06:15.374Z</time></trkpt><trkpt lat="45.8348917" lon="9.5747517"><ele>833.0</ele><time>2026-05-03T08:06:16.373Z</time></trkpt><trkpt lat="45.8349967" lon="9.574755"><ele>833.0</ele><time>2026-05-03T08:06:17.373Z</time></trkpt><trkpt lat="45.83511" lon="9.57475"><ele>833.0</ele><time>2026-05-03T08:06:18.369Z</time></trkpt><trkpt lat="45.8352217" lon="9.574755"><ele>837.0</ele><time>2026-05-03T08:06:19.371Z</time></trkpt><trkpt lat="45.83533" lon="9.574795"><ele>841.0</ele><time>2026-05-03T08:06:20.37Z</time></trkpt><trkpt lat="45.8354317" lon="9.5748717"><ele>845.0</ele><time>2026-05-03T08:06:21.37Z</time></trkpt><trkpt lat="45.8355383" lon="9.57498"><ele>849.0</ele><time>2026-05-03T08:06:22.369Z</time></trkpt><trkpt lat="45.8356533" lon="9.57511"><ele>849.0</ele><time>2026-05-03T08:06:23.373Z</time></trkpt><trkpt lat="45.8357633" lon="9.5752567"><ele>849.0</ele><time>2026-05-03T08:06:24.37Z</time></trkpt><trkpt lat="45.8358667" lon="9.5754017"><ele>849.0</ele><time>2026-05-03T08:06:25.372Z</time></trkpt><trkpt lat="45.8359683" lon="9.5755383"><ele>849.0</ele><time>2026-05-03T08:06:26.375Z</time></trkpt><trkpt lat="45.8360617" lon="9.5756583"><ele>847.8000000000001</ele><time>2026-05-03T08:06:27.369Z</time></trkpt><trkpt lat="45.8361633" lon="9.575755"><ele>846.6</ele><time>2026-05-03T08:06:28.372Z</time></trkpt><trkpt lat="45.8362567" lon="9.575835"><ele>845.4</ele><time>2026-05-03T08:06:29.372Z</time></trkpt><trkpt lat="45.8363467" lon="9.57589"><ele>844.2</ele><time>2026-05-03T08:06:30.369Z</time></trkpt><trkpt lat="45.8364433" lon="9.5759283"><ele>843.0</ele><time>2026-05-03T08:06:31.373Z</time></trkpt><trkpt lat="45.836525" lon="9.57594"><ele>843.0</ele><time>2026-05-03T08:06:32.372Z</time></trkpt><trkpt lat="45.8365967" lon="9.5759183"><ele>843.0</ele><time>2026-05-03T08:06:33.37Z</time></trkpt><trkpt lat="45.8366533" lon="9.5758417"><ele>843.0</ele><time>2026-05-03T08:06:34.371Z</time></trkpt><trkpt lat="45.83669" lon="9.5756967"><ele>843.0</ele><time>2026-05-03T08:06:35.372Z</time></trkpt><trkpt lat="45.836705" lon="9.5755033"><ele>843.0</ele><time>2026-05-03T08:06:36.373Z</time></trkpt><trkpt lat="45.83672" lon="9.5753083"><ele>845.0</ele><time>2026-05-03T08:06:37.372Z</time></trkpt><trkpt lat="45.8367333" lon="9.5750917"><ele>847.0</ele><time>2026-05-03T08:06:38.372Z</time></trkpt><trkpt lat="45.8367617" lon="9.5748683"><ele>849.0</ele><time>2026-05-03T08:06:39.369Z</time></trkpt><trkpt lat="45.836805" lon="9.57462"><ele>841.0</ele><time>2026-05-03T08:06:40.373Z</time></trkpt><trkpt lat="45.8368567" lon="9.574395"><ele>833.0</ele><time>2026-05-03T08:06:41.372Z</time></trkpt><trkpt lat="45.8369167" lon="9.5741767"><ele>825.0</ele><time>2026-05-03T08:06:42.372Z</time></trkpt><trkpt lat="45.8369767" lon="9.5739633"><ele>825.0</ele><time>2026-05-03T08:06:43.372Z</time></trkpt><trkpt lat="45.8370333" lon="9.5737483"><ele>825.0</ele><time>2026-05-03T08:06:44.373Z</time></trkpt><trkpt lat="45.837095" lon="9.5735317"><ele>825.0</ele><time>2026-05-03T08:06:45.373Z</time></trkpt><trkpt lat="45.8371567" lon="9.5733167"><ele>827.3333333333333</ele><time>2026-05-03T08:06:46.373Z</time></trkpt><trkpt lat="45.8372167" lon="9.5731033"><ele>829.6666666666666</ele><time>2026-05-03T08:06:47.372Z</time></trkpt><trkpt lat="45.8372783" lon="9.5729"><ele>832.0</ele><time>2026-05-03T08:06:48.373Z</time></trkpt><trkpt lat="45.8373417" lon="9.572715"><ele>832.75</ele><time>2026-05-03T08:06:49.373Z</time></trkpt><trkpt lat="45.8374083" lon="9.5725483"><ele>833.5</ele><time>2026-05-03T08:06:50.37Z</time></trkpt><trkpt lat="45.83749" lon="9.5723983"><ele>834.25</ele><time>2026-05-03T08:06:51.372Z</time></trkpt><trkpt lat="45.8375867" lon="9.57226"><ele>835.0</ele><time>2026-05-03T08:06:52.374Z</time></trkpt><trkpt lat="45.8376933" lon="9.5721267"><ele>832.75</ele><time>2026-05-03T08:06:53.372Z</time></trkpt><trkpt lat="45.8378067" lon="9.5719867"><ele>830.5</ele><time>2026-05-03T08:06:54.373Z</time></trkpt><trkpt lat="45.8379233" lon="9.5718617"><ele>828.25</ele><time>2026-05-03T08:06:55.376Z</time></trkpt><trkpt lat="45.8380367" lon="9.5717517"><ele>826.0</ele><time>2026-05-03T08:06:56.373Z</time></trkpt><trkpt lat="45.838135" lon="9.571655"><ele>826.0</ele><time>2026-05-03T08:06:57.372Z</time></trkpt><trkpt lat="45.8382133" lon="9.5715583"><ele>826.0</ele><time>2026-05-03T08:06:58.369Z</time></trkpt><trkpt lat="45.8382783" lon="9.571445"><ele>826.0</ele><time>2026-05-03T08:06:59.371Z</time></trkpt><trkpt lat="45.8383217" lon="9.5713083"><ele>826.0</ele><time>2026-05-03T08:07:00.369Z</time></trkpt><trkpt lat="45.83835" lon="9.5711583"><ele>826.0</ele><time>2026-05-03T08:07:01.371Z</time></trkpt><trkpt lat="45.8383617" lon="9.571"><ele>826.0</ele><time>2026-05-03T08:07:02.372Z</time></trkpt><trkpt lat="45.8383583" lon="9.5708283"><ele>826.0</ele><time>2026-05-03T08:07:03.37Z</time></trkpt><trkpt lat="45.8383467" lon="9.570635"><ele>826.0</ele><time>2026-05-03T08:07:04.37Z</time></trkpt><trkpt lat="45.8383417" lon="9.57042"><ele>826.0</ele><time>2026-05-03T08:07:05.372Z</time></trkpt><trkpt lat="45.8383533" lon="9.5701883"><ele>826.0</ele><time>2026-05-03T08:07:06.371Z</time></trkpt><trkpt lat="45.8383717" lon="9.5699517"><ele>826.0</ele><time>2026-05-03T08:07:07.371Z</time></trkpt><trkpt lat="45.838395" lon="9.569725"><ele>826.0</ele><time>2026-05-03T08:07:08.371Z</time></trkpt><trkpt lat="45.838425" lon="9.56952"><ele>825.75</ele><time>2026-05-03T08:07:09.372Z</time></trkpt><trkpt lat="45.8384617" lon="9.5693417"><ele>825.5</ele><time>2026-05-03T08:07:10.371Z</time></trkpt><trkpt lat="45.8384833" lon="9.5691733"><ele>825.25</ele><time>2026-05-03T08:07:11.371Z</time></trkpt><trkpt lat="45.8384867" lon="9.56899"><ele>825.0</ele><time>2026-05-03T08:07:12.371Z</time></trkpt><trkpt lat="45.8384767" lon="9.568795"><ele>824.0</ele><time>2026-05-03T08:07:13.371Z</time></trkpt><trkpt lat="45.8384567" lon="9.5686117"><ele>823.0</ele><time>2026-05-03T08:07:14.371Z</time></trkpt><trkpt lat="45.8384333" lon="9.5684567"><ele>822.0</ele><time>2026-05-03T08:07:15.371Z</time></trkpt><trkpt lat="45.838395" lon="9.56832"><ele>821.0</ele><time>2026-05-03T08:07:16.372Z</time></trkpt><trkpt lat="45.838335" lon="9.5682017"><ele>820.0</ele><time>2026-05-03T08:07:17.37Z</time></trkpt><trkpt lat="45.8382367" lon="9.5681317"><ele>819.9999999999999</ele><time>2026-05-03T08:07:18.372Z</time></trkpt><trkpt lat="45.8381583" lon="9.5680617"><ele>820.0</ele><time>2026-05-03T08:07:19.371Z</time></trkpt><trkpt lat="45.838105" lon="9.567985"><ele>820.0</ele><time>2026-05-03T08:07:20.372Z</time></trkpt><trkpt lat="45.8380633" lon="9.5678517"><ele>820.0</ele><time>2026-05-03T08:07:22.372Z</time></trkpt><trkpt lat="45.838105" lon="9.5677783"><ele>819.9999999999999</ele><time>2026-05-03T08:07:23.371Z</time></trkpt><trkpt lat="45.8381617" lon="9.5677083"><ele>820.0</ele><time>2026-05-03T08:07:24.371Z</time></trkpt><trkpt lat="45.83822" lon="9.5676133"><ele>821.2</ele><time>2026-05-03T08:07:25.371Z</time></trkpt><trkpt lat="45.83825" lon="9.5675067"><ele>822.4</ele><time>2026-05-03T08:07:26.373Z</time></trkpt><trkpt lat="45.8382917" lon="9.567395"><ele>823.5999999999999</ele><time>2026-05-03T08:07:27.371Z</time></trkpt><trkpt lat="45.83832" lon="9.56729"><ele>824.8</ele><time>2026-05-03T08:07:28.371Z</time></trkpt><trkpt lat="45.8384117" lon="9.56719"><ele>826.0</ele><time>2026-05-03T08:07:30.37Z</time></trkpt><trkpt lat="45.8385117" lon="9.56719"><ele>822.5999999999999</ele><time>2026-05-03T08:07:31.372Z</time></trkpt><trkpt lat="45.83864" lon="9.5671967"><ele>819.2</ele><time>2026-05-03T08:07:32.372Z</time></trkpt><trkpt lat="45.8387533" lon="9.5672117"><ele>815.8</ele><time>2026-05-03T08:07:33.371Z</time></trkpt><trkpt lat="45.8388367" lon="9.5671917"><ele>812.4000000000001</ele><time>2026-05-03T08:07:34.371Z</time></trkpt><trkpt lat="45.838915" lon="9.567175"><ele>809.0</ele><time>2026-05-03T08:07:35.371Z</time></trkpt><trkpt lat="45.839" lon="9.5671267"><ele>809.0</ele><time>2026-05-03T08:07:36.371Z</time></trkpt><trkpt lat="45.8390833" lon="9.5670567"><ele>809.0</ele><time>2026-05-03T08:07:37.373Z</time></trkpt><trkpt lat="45.83916" lon="9.56699"><ele>809.0</ele><time>2026-05-03T08:07:38.372Z</time></trkpt><trkpt lat="45.8392367" lon="9.56693"><ele>809.0</ele><time>2026-05-03T08:07:39.371Z</time></trkpt><trkpt lat="45.8393133" lon="9.5668517"><ele>809.0</ele><time>2026-05-03T08:07:40.37Z</time></trkpt><trkpt lat="45.8394033" lon="9.5667567"><ele>808.0</ele><time>2026-05-03T08:07:41.374Z</time></trkpt><trkpt lat="45.8395" lon="9.566655"><ele>807.0</ele><time>2026-05-03T08:07:42.37Z</time></trkpt><trkpt lat="45.8396033" lon="9.56656"><ele>806.0</ele><time>2026-05-03T08:07:43.372Z</time></trkpt><trkpt lat="45.8397167" lon="9.5664667"><ele>805.0</ele><time>2026-05-03T08:07:44.371Z</time></trkpt><trkpt lat="45.83983" lon="9.5663817"><ele>805.0</ele><time>2026-05-03T08:07:45.372Z</time></trkpt><trkpt lat="45.8399367" lon="9.5662767"><ele>805.0</ele><time>2026-05-03T08:07:46.37Z</time></trkpt><trkpt lat="45.8400267" lon="9.5661483"><ele>805.0</ele><time>2026-05-03T08:07:47.371Z</time></trkpt><trkpt lat="45.840115" lon="9.5659933"><ele>805.0</ele><time>2026-05-03T08:07:48.37Z</time></trkpt><trkpt lat="45.84019" lon="9.5658367"><ele>807.0</ele><time>2026-05-03T08:07:49.371Z</time></trkpt><trkpt lat="45.8402683" lon="9.5657133"><ele>809.0</ele><time>2026-05-03T08:07:50.371Z</time></trkpt><trkpt lat="45.8403633" lon="9.56564"><ele>811.0</ele><time>2026-05-03T08:07:51.37Z</time></trkpt><trkpt lat="45.8404533" lon="9.56563"><ele>813.0</ele><time>2026-05-03T08:07:52.37Z</time></trkpt><trkpt lat="45.8405533" lon="9.5656683"><ele>815.0</ele><time>2026-05-03T08:07:53.371Z</time></trkpt><trkpt lat="45.8406667" lon="9.5657283"><ele>815.0</ele><time>2026-05-03T08:07:54.372Z</time></trkpt><trkpt lat="45.8407783" lon="9.5657983"><ele>815.0</ele><time>2026-05-03T08:07:55.372Z</time></trkpt><trkpt lat="45.8408733" lon="9.5658717"><ele>815.0</ele><time>2026-05-03T08:07:56.373Z</time></trkpt><trkpt lat="45.8409617" lon="9.5659083"><ele>815.0</ele><time>2026-05-03T08:07:57.374Z</time></trkpt><trkpt lat="45.8410517" lon="9.5659067"><ele>815.0</ele><time>2026-05-03T08:07:58.371Z</time></trkpt><trkpt lat="45.8411367" lon="9.565875"><ele>815.0</ele><time>2026-05-03T08:07:59.371Z</time></trkpt><trkpt lat="45.841205" lon="9.5657933"><ele>815.0</ele><time>2026-05-03T08:08:00.372Z</time></trkpt><trkpt lat="45.841265" lon="9.565645"><ele>815.0</ele><time>2026-05-03T08:08:01.371Z</time></trkpt><trkpt lat="45.8413133" lon="9.5654433"><ele>815.0</ele><time>2026-05-03T08:08:02.371Z</time></trkpt><trkpt lat="45.8413683" lon="9.5652283"><ele>815.0</ele><time>2026-05-03T08:08:03.37Z</time></trkpt><trkpt lat="45.8414417" lon="9.56503"><ele>815.0</ele><time>2026-05-03T08:08:04.372Z</time></trkpt><trkpt lat="45.8415333" lon="9.56486"><ele>815.0</ele><time>2026-05-03T08:08:05.371Z</time></trkpt><trkpt lat="45.841635" lon="9.5647367"><ele>815.0</ele><time>2026-05-03T08:08:06.371Z</time></trkpt><trkpt lat="45.84175" lon="9.5646767"><ele>813.5</ele><time>2026-05-03T08:08:07.371Z</time></trkpt><trkpt lat="45.8418733" lon="9.5646783"><ele>812.0</ele><time>2026-05-03T08:08:08.372Z</time></trkpt><trkpt lat="45.842" lon="9.564725"><ele>810.5</ele><time>2026-05-03T08:08:09.373Z</time></trkpt><trkpt lat="45.8421233" lon="9.5647667"><ele>809.0</ele><time>2026-05-03T08:08:10.37Z</time></trkpt><trkpt lat="45.842235" lon="9.5647533"><ele>809.0</ele><time>2026-05-03T08:08:11.373Z</time></trkpt><trkpt lat="45.842345" lon="9.5647"><ele>809.0</ele><time>2026-05-03T08:08:12.373Z</time></trkpt><trkpt lat="45.8424667" lon="9.5646267"><ele>809.0</ele><time>2026-05-03T08:08:13.373Z</time></trkpt><trkpt lat="45.8426" lon="9.5645533"><ele>809.0</ele><time>2026-05-03T08:08:14.373Z</time></trkpt><trkpt lat="45.8427417" lon="9.5644833"><ele>815.0</ele><time>2026-05-03T08:08:15.374Z</time></trkpt><trkpt lat="45.8428767" lon="9.5644033"><ele>821.0</ele><time>2026-05-03T08:08:16.373Z</time></trkpt><trkpt lat="45.843005" lon="9.5643017"><ele>827.0</ele><time>2026-05-03T08:08:17.371Z</time></trkpt><trkpt lat="45.8431233" lon="9.5641817"><ele>833.0</ele><time>2026-05-03T08:08:18.37Z</time></trkpt><trkpt lat="45.843225" lon="9.5640517"><ele>833.0</ele><time>2026-05-03T08:08:19.37Z</time></trkpt><trkpt lat="45.8433183" lon="9.5639383"><ele>833.0</ele><time>2026-05-03T08:08:20.37Z</time></trkpt><trkpt lat="45.8434017" lon="9.5638583"><ele>833.0</ele><time>2026-05-03T08:08:21.37Z</time></trkpt><trkpt lat="45.8434767" lon="9.5638517"><ele>833.0</ele><time>2026-05-03T08:08:22.372Z</time></trkpt><trkpt lat="45.84355" lon="9.5638817"><ele>833.0</ele><time>2026-05-03T08:08:23.371Z</time></trkpt><trkpt lat="45.8436067" lon="9.5639933"><ele>837.5</ele><time>2026-05-03T08:08:24.374Z</time></trkpt><trkpt lat="45.8436717" lon="9.5641017"><ele>842.0</ele><time>2026-05-03T08:08:25.373Z</time></trkpt><trkpt lat="45.8437633" lon="9.5641967"><ele>846.5</ele><time>2026-05-03T08:08:26.371Z</time></trkpt><trkpt lat="45.84387" lon="9.5642867"><ele>851.0</ele><time>2026-05-03T08:08:27.374Z</time></trkpt><trkpt lat="45.84398" lon="9.564365"><ele>851.0</ele><time>2026-05-03T08:08:28.369Z</time></trkpt><trkpt lat="45.8440833" lon="9.564445"><ele>851.0</ele><time>2026-05-03T08:08:29.371Z</time></trkpt><trkpt lat="45.84418" lon="9.5645517"><ele>851.0</ele><time>2026-05-03T08:08:30.372Z</time></trkpt><trkpt lat="45.8442617" lon="9.5646817"><ele>851.0</ele><time>2026-05-03T08:08:31.37Z</time></trkpt><trkpt lat="45.8443233" lon="9.5648367"><ele>853.25</ele><time>2026-05-03T08:08:32.371Z</time></trkpt><trkpt lat="45.8443583" lon="9.5650183"><ele>855.5</ele><time>2026-05-03T08:08:33.369Z</time></trkpt><trkpt lat="45.8443683" lon="9.5651983"><ele>857.75</ele><time>2026-05-03T08:08:34.374Z</time></trkpt><trkpt lat="45.84437" lon="9.565355"><ele>860.0</ele><time>2026-05-03T08:08:35.371Z</time></trkpt><trkpt lat="45.8443767" lon="9.5654833"><ele>852.0</ele><time>2026-05-03T08:08:36.375Z</time></trkpt><trkpt lat="45.8444" lon="9.5656083"><ele>844.0</ele><time>2026-05-03T08:08:37.371Z</time></trkpt><trkpt lat="45.8444567" lon="9.56574"><ele>836.0</ele><time>2026-05-03T08:08:38.37Z</time></trkpt><trkpt lat="45.8445533" lon="9.5658783"><ele>828.0</ele><time>2026-05-03T08:08:39.37Z</time></trkpt><trkpt lat="45.84465" lon="9.5660483"><ele>821.25</ele><time>2026-05-03T08:08:40.372Z</time></trkpt><trkpt lat="45.844745" lon="9.56622"><ele>814.5</ele><time>2026-05-03T08:08:41.373Z</time></trkpt><trkpt lat="45.844835" lon="9.5663717"><ele>807.75</ele><time>2026-05-03T08:08:42.373Z</time></trkpt><trkpt lat="45.8449183" lon="9.566475"><ele>801.0</ele><time>2026-05-03T08:08:43.373Z</time></trkpt><trkpt lat="45.8450017" lon="9.5665133"><ele>801.0</ele><time>2026-05-03T08:08:44.373Z</time></trkpt><trkpt lat="45.845085" lon="9.5665217"><ele>801.0</ele><time>2026-05-03T08:08:45.373Z</time></trkpt><trkpt lat="45.8451817" lon="9.56647"><ele>801.0</ele><time>2026-05-03T08:08:46.373Z</time></trkpt><trkpt lat="45.84528" lon="9.5663483"><ele>801.0</ele><time>2026-05-03T08:08:47.37Z</time></trkpt><trkpt lat="45.8454033" lon="9.5661933"><ele>807.3333333333333</ele><time>2026-05-03T08:08:48.371Z</time></trkpt><trkpt lat="45.8455483" lon="9.5660317"><ele>813.6666666666666</ele><time>2026-05-03T08:08:49.372Z</time></trkpt><trkpt lat="45.8456767" lon="9.56588"><ele>820.0</ele><time>2026-05-03T08:08:50.371Z</time></trkpt><trkpt lat="45.8458033" lon="9.56573"><ele>820.0</ele><time>2026-05-03T08:08:51.371Z</time></trkpt><trkpt lat="45.8459217" lon="9.5656017"><ele>820.0</ele><time>2026-05-03T08:08:52.372Z</time></trkpt><trkpt lat="45.8460467" lon="9.5655033"><ele>820.0</ele><time>2026-05-03T08:08:53.371Z</time></trkpt><trkpt lat="45.8461883" lon="9.5654383"><ele>820.0</ele><time>2026-05-03T08:08:54.371Z</time></trkpt><trkpt lat="45.8463467" lon="9.5653917"><ele>818.0</ele><time>2026-05-03T08:08:55.372Z</time></trkpt><trkpt lat="45.84651" lon="9.5653267"><ele>816.0</ele><time>2026-05-03T08:08:56.373Z</time></trkpt><trkpt lat="45.8466733" lon="9.565245"><ele>814.0</ele><time>2026-05-03T08:08:57.373Z</time></trkpt><trkpt lat="45.8468467" lon="9.565165"><ele>814.0</ele><time>2026-05-03T08:08:58.374Z</time></trkpt><trkpt lat="45.847035" lon="9.565095"><ele>814.0</ele><time>2026-05-03T08:08:59.37Z</time></trkpt><trkpt lat="45.847215" lon="9.5650167"><ele>814.0</ele><time>2026-05-03T08:09:00.369Z</time></trkpt><trkpt lat="45.8473817" lon="9.5649433"><ele>814.0</ele><time>2026-05-03T08:09:01.369Z</time></trkpt><trkpt lat="45.84753" lon="9.56489"><ele>814.0</ele><time>2026-05-03T08:09:02.369Z</time></trkpt><trkpt lat="45.8476517" lon="9.5648667"><ele>814.0</ele><time>2026-05-03T08:09:03.37Z</time></trkpt><trkpt lat="45.847755" lon="9.5648717"><ele>814.0</ele><time>2026-05-03T08:09:04.368Z</time></trkpt><trkpt lat="45.8478483" lon="9.5649183"><ele>815.6</ele><time>2026-05-03T08:09:05.37Z</time></trkpt><trkpt lat="45.84794" lon="9.5649933"><ele>817.2</ele><time>2026-05-03T08:09:06.369Z</time></trkpt><trkpt lat="45.8480317" lon="9.5650933"><ele>818.8000000000001</ele><time>2026-05-03T08:09:07.374Z</time></trkpt><trkpt lat="45.8481267" lon="9.56518"><ele>820.4000000000001</ele><time>2026-05-03T08:09:08.372Z</time></trkpt><trkpt lat="45.848225" lon="9.5652433"><ele>822.0</ele><time>2026-05-03T08:09:09.37Z</time></trkpt><trkpt lat="45.8483383" lon="9.5652733"><ele>817.5</ele><time>2026-05-03T08:09:10.369Z</time></trkpt><trkpt lat="45.8484617" lon="9.5652833"><ele>813.0</ele><time>2026-05-03T08:09:11.373Z</time></trkpt><trkpt lat="45.8485917" lon="9.5652717"><ele>808.5</ele><time>2026-05-03T08:09:12.372Z</time></trkpt><trkpt lat="45.8487183" lon="9.5652533"><ele>804.0</ele><time>2026-05-03T08:09:13.373Z</time></trkpt><trkpt lat="45.848835" lon="9.5652017"><ele>804.0</ele><time>2026-05-03T08:09:14.372Z</time></trkpt><trkpt lat="45.848945" lon="9.5650917"><ele>804.0</ele><time>2026-05-03T08:09:15.372Z</time></trkpt><trkpt lat="45.84905" lon="9.5649433"><ele>804.0</ele><time>2026-05-03T08:09:16.372Z</time></trkpt><trkpt lat="45.8491667" lon="9.56479"><ele>804.0</ele><time>2026-05-03T08:09:17.371Z</time></trkpt><trkpt lat="45.8492917" lon="9.564635"><ele>807.6666666666667</ele><time>2026-05-03T08:09:18.371Z</time></trkpt><trkpt lat="45.84944" lon="9.5644867"><ele>811.3333333333334</ele><time>2026-05-03T08:09:19.371Z</time></trkpt><trkpt lat="45.8496033" lon="9.5643467"><ele>815.0</ele><time>2026-05-03T08:09:20.371Z</time></trkpt><trkpt lat="45.849775" lon="9.5642133"><ele>815.0</ele><time>2026-05-03T08:09:21.37Z</time></trkpt><trkpt lat="45.8499417" lon="9.56408"><ele>815.0</ele><time>2026-05-03T08:09:22.369Z</time></trkpt><trkpt lat="45.8500967" lon="9.56395"><ele>815.0</ele><time>2026-05-03T08:09:23.371Z</time></trkpt><trkpt lat="45.8502433" lon="9.56382"><ele>817.6</ele><time>2026-05-03T08:09:24.372Z</time></trkpt><trkpt lat="45.8503617" lon="9.5636933"><ele>820.2</ele><time>2026-05-03T08:09:25.373Z</time></trkpt><trkpt lat="45.8504583" lon="9.5635667"><ele>822.8</ele><time>2026-05-03T08:09:26.37Z</time></trkpt><trkpt lat="45.85054" lon="9.56351"><ele>825.4</ele><time>2026-05-03T08:09:27.369Z</time></trkpt><trkpt lat="45.8506117" lon="9.5634833"><ele>828.0</ele><time>2026-05-03T08:09:28.373Z</time></trkpt><trkpt lat="45.8506967" lon="9.5634983"><ele>828.0</ele><time>2026-05-03T08:09:29.369Z</time></trkpt><trkpt lat="45.85079" lon="9.56355"><ele>828.0</ele><time>2026-05-03T08:09:30.372Z</time></trkpt><trkpt lat="45.8508983" lon="9.5635583"><ele>828.0</ele><time>2026-05-03T08:09:31.369Z</time></trkpt><trkpt lat="45.8510383" lon="9.5635367"><ele>828.0</ele><time>2026-05-03T08:09:32.369Z</time></trkpt><trkpt lat="45.851195" lon="9.5635083"><ele>826.0</ele><time>2026-05-03T08:09:33.37Z</time></trkpt><trkpt lat="45.8513583" lon="9.5634867"><ele>824.0</ele><time>2026-05-03T08:09:34.37Z</time></trkpt><trkpt lat="45.8515083" lon="9.5634567"><ele>822.0</ele><time>2026-05-03T08:09:35.373Z</time></trkpt><trkpt lat="45.8516333" lon="9.5634033"><ele>820.0</ele><time>2026-05-03T08:09:36.368Z</time></trkpt><trkpt lat="45.8517433" lon="9.5633667"><ele>823.1666666666666</ele><time>2026-05-03T08:09:37.369Z</time></trkpt><trkpt lat="45.85184" lon="9.56337"><ele>826.3333333333333</ele><time>2026-05-03T08:09:38.37Z</time></trkpt><trkpt lat="45.8519183" lon="9.5634233"><ele>829.5</ele><time>2026-05-03T08:09:39.372Z</time></trkpt><trkpt lat="45.8519883" lon="9.5635"><ele>832.6666666666667</ele><time>2026-05-03T08:09:40.371Z</time></trkpt><trkpt lat="45.8520267" lon="9.5635817"><ele>835.8333333333334</ele><time>2026-05-03T08:09:41.37Z</time></trkpt><trkpt lat="45.85205" lon="9.5636683"><ele>839.0</ele><time>2026-05-03T08:09:42.369Z</time></trkpt><trkpt lat="45.8520433" lon="9.5638283"><ele>839.25</ele><time>2026-05-03T08:09:43.369Z</time></trkpt><trkpt lat="45.8520083" lon="9.5639683"><ele>839.5</ele><time>2026-05-03T08:09:44.369Z</time></trkpt><trkpt lat="45.8519583" lon="9.5641033"><ele>839.75</ele><time>2026-05-03T08:09:45.369Z</time></trkpt><trkpt lat="45.8518683" lon="9.564265"><ele>840.0</ele><time>2026-05-03T08:09:46.369Z</time></trkpt><trkpt lat="45.8517783" lon="9.5644217"><ele>830.75</ele><time>2026-05-03T08:09:47.37Z</time></trkpt><trkpt lat="45.8517183" lon="9.564585"><ele>821.5</ele><time>2026-05-03T08:09:48.37Z</time></trkpt><trkpt lat="45.8516817" lon="9.5647667"><ele>812.25</ele><time>2026-05-03T08:09:49.371Z</time></trkpt><trkpt lat="45.851665" lon="9.5649767"><ele>803.0</ele><time>2026-05-03T08:09:50.371Z</time></trkpt><trkpt lat="45.8516483" lon="9.5652083"><ele>803.5</ele><time>2026-05-03T08:09:51.37Z</time></trkpt><trkpt lat="45.8516317" lon="9.565435"><ele>804.0</ele><time>2026-05-03T08:09:52.373Z</time></trkpt><trkpt lat="45.8516033" lon="9.5656483"><ele>804.5</ele><time>2026-05-03T08:09:53.369Z</time></trkpt><trkpt lat="45.85157" lon="9.5658267"><ele>805.0</ele><time>2026-05-03T08:09:54.373Z</time></trkpt><trkpt lat="45.851555" lon="9.565985"><ele>805.0</ele><time>2026-05-03T08:09:55.372Z</time></trkpt><trkpt lat="45.8515767" lon="9.5661533"><ele>805.0</ele><time>2026-05-03T08:09:56.373Z</time></trkpt><trkpt lat="45.8516417" lon="9.5663433"><ele>805.0</ele><time>2026-05-03T08:09:57.373Z</time></trkpt><trkpt lat="45.8517167" lon="9.566555"><ele>805.0</ele><time>2026-05-03T08:09:58.373Z</time></trkpt><trkpt lat="45.851785" lon="9.5667633"><ele>808.6</ele><time>2026-05-03T08:09:59.37Z</time></trkpt><trkpt lat="45.8518333" lon="9.566945"><ele>812.2</ele><time>2026-05-03T08:10:00.372Z</time></trkpt><trkpt lat="45.8518633" lon="9.5670883"><ele>815.8</ele><time>2026-05-03T08:10:01.372Z</time></trkpt><trkpt lat="45.8518517" lon="9.5672167"><ele>819.4</ele><time>2026-05-03T08:10:02.37Z</time></trkpt><trkpt lat="45.8518333" lon="9.5673233"><ele>823.0</ele><time>2026-05-03T08:10:03.37Z</time></trkpt><trkpt lat="45.8517917" lon="9.5674017"><ele>816.0</ele><time>2026-05-03T08:10:04.37Z</time></trkpt><trkpt lat="45.85174" lon="9.5674667"><ele>809.0</ele><time>2026-05-03T08:10:05.369Z</time></trkpt><trkpt lat="45.8516367" lon="9.5674967"><ele>802.0</ele><time>2026-05-03T08:10:06.37Z</time></trkpt><trkpt lat="45.8513717" lon="9.5675383"><ele>795.0</ele><time>2026-05-03T08:10:07.37Z</time></trkpt><trkpt lat="45.8511917" lon="9.56762"><ele>795.0</ele><time>2026-05-03T08:10:08.369Z</time></trkpt><trkpt lat="45.85105" lon="9.5677017"><ele>795.0</ele><time>2026-05-03T08:10:09.372Z</time></trkpt><trkpt lat="45.85094" lon="9.5677583"><ele>795.0</ele><time>2026-05-03T08:10:10.372Z</time></trkpt><trkpt lat="45.8508567" lon="9.5678117"><ele>795.0</ele><time>2026-05-03T08:10:12.373Z</time></trkpt><trkpt lat="45.8508333" lon="9.5679267"><ele>795.0</ele><time>2026-05-03T08:10:14.372Z</time></trkpt><trkpt lat="45.85083" lon="9.56803"><ele>792.6666666666666</ele><time>2026-05-03T08:10:15.372Z</time></trkpt><trkpt lat="45.8508317" lon="9.5681533"><ele>790.3333333333333</ele><time>2026-05-03T08:10:16.373Z</time></trkpt><trkpt lat="45.8508333" lon="9.568285"><ele>788.0</ele><time>2026-05-03T08:10:17.369Z</time></trkpt><trkpt lat="45.8508333" lon="9.5684133"><ele>785.6666666666666</ele><time>2026-05-03T08:10:18.372Z</time></trkpt><trkpt lat="45.8508333" lon="9.56854"><ele>783.3333333333333</ele><time>2026-05-03T08:10:19.371Z</time></trkpt><trkpt lat="45.8508333" lon="9.568675"><ele>781.0</ele><time>2026-05-03T08:10:20.371Z</time></trkpt><trkpt lat="45.850835" lon="9.56883"><ele>781.0</ele><time>2026-05-03T08:10:21.369Z</time></trkpt><trkpt lat="45.85084" lon="9.569"><ele>781.0</ele><time>2026-05-03T08:10:22.37Z</time></trkpt><trkpt lat="45.8508383" lon="9.56917"><ele>781.0</ele><time>2026-05-03T08:10:23.369Z</time></trkpt><trkpt lat="45.8508267" lon="9.5693283"><ele>781.0</ele><time>2026-05-03T08:10:24.372Z</time></trkpt><trkpt lat="45.85081" lon="9.56947"><ele>781.0</ele><time>2026-05-03T08:10:25.372Z</time></trkpt><trkpt lat="45.8507917" lon="9.5695833"><ele>781.4</ele><time>2026-05-03T08:10:26.372Z</time></trkpt><trkpt lat="45.850755" lon="9.5696967"><ele>781.8</ele><time>2026-05-03T08:10:28.373Z</time></trkpt><trkpt lat="45.8507083" lon="9.56979"><ele>782.1999999999999</ele><time>2026-05-03T08:10:31.372Z</time></trkpt><trkpt lat="45.85064" lon="9.5699433"><ele>782.5999999999999</ele><time>2026-05-03T08:10:33.373Z</time></trkpt><trkpt lat="45.850575" lon="9.5700533"><ele>783.0</ele><time>2026-05-03T08:10:34.375Z</time></trkpt><trkpt lat="45.8504983" lon="9.570175"><ele>783.0</ele><time>2026-05-03T08:10:35.373Z</time></trkpt><trkpt lat="45.8504283" lon="9.57031"><ele>783.0</ele><time>2026-05-03T08:10:36.372Z</time></trkpt><trkpt lat="45.8503783" lon="9.57046"><ele>783.0</ele><time>2026-05-03T08:10:37.372Z</time></trkpt><trkpt lat="45.85035" lon="9.570635"><ele>783.0</ele><time>2026-05-03T08:10:38.372Z</time></trkpt><trkpt lat="45.8503483" lon="9.5708383"><ele>783.25</ele><time>2026-05-03T08:10:39.372Z</time></trkpt><trkpt lat="45.8503617" lon="9.5710533"><ele>783.5</ele><time>2026-05-03T08:10:40.373Z</time></trkpt><trkpt lat="45.8503867" lon="9.57126"><ele>783.75</ele><time>2026-05-03T08:10:41.373Z</time></trkpt><trkpt lat="45.85042" lon="9.571455"><ele>784.0</ele><time>2026-05-03T08:10:42.372Z</time></trkpt><trkpt lat="45.8504567" lon="9.5716283"><ele>784.0</ele><time>2026-05-03T08:10:43.372Z</time></trkpt><trkpt lat="45.8504817" lon="9.5717867"><ele>784.0</ele><time>2026-05-03T08:10:44.376Z</time></trkpt><trkpt lat="45.8504783" lon="9.5719367"><ele>784.0</ele><time>2026-05-03T08:10:45.372Z</time></trkpt><trkpt lat="45.8504467" lon="9.5720983"><ele>784.0</ele><time>2026-05-03T08:10:46.372Z</time></trkpt><trkpt lat="45.8504" lon="9.5722667"><ele>785.25</ele><time>2026-05-03T08:10:47.369Z</time></trkpt><trkpt lat="45.850345" lon="9.5724283"><ele>786.5</ele><time>2026-05-03T08:10:48.371Z</time></trkpt><trkpt lat="45.8502917" lon="9.572585"><ele>787.75</ele><time>2026-05-03T08:10:49.371Z</time></trkpt><trkpt lat="45.8502433" lon="9.5727267"><ele>789.0</ele><time>2026-05-03T08:10:50.37Z</time></trkpt><trkpt lat="45.850205" lon="9.57285"><ele>790.0</ele><time>2026-05-03T08:10:51.371Z</time></trkpt><trkpt lat="45.8501817" lon="9.5729433"><ele>791.0</ele><time>2026-05-03T08:10:52.371Z</time></trkpt><trkpt lat="45.8501483" lon="9.573075"><ele>792.0</ele><time>2026-05-03T08:10:54.374Z</time></trkpt><trkpt lat="45.85012" lon="9.5732183"><ele>793.0</ele><time>2026-05-03T08:10:56.372Z</time></trkpt><trkpt lat="45.8501333" lon="9.5733133"><ele>794.0</ele><time>2026-05-03T08:10:57.373Z</time></trkpt><trkpt lat="45.8501617" lon="9.5734317"><ele>795.0</ele><time>2026-05-03T08:10:58.372Z</time></trkpt><trkpt lat="45.8502167" lon="9.5735683"><ele>794.2</ele><time>2026-05-03T08:10:59.372Z</time></trkpt><trkpt lat="45.85029" lon="9.5736933"><ele>793.4</ele><time>2026-05-03T08:11:00.372Z</time></trkpt><trkpt lat="45.85035" lon="9.5737867"><ele>792.5999999999999</ele><time>2026-05-03T08:11:01.372Z</time></trkpt><trkpt lat="45.8503983" lon="9.5738633"><ele>791.8</ele><time>2026-05-03T08:11:02.372Z</time></trkpt><trkpt lat="45.85048" lon="9.57395"><ele>791.0</ele><time>2026-05-03T08:11:04.372Z</time></trkpt><trkpt lat="45.850525" lon="9.5740533"><ele>791.0</ele><time>2026-05-03T08:11:06.37Z</time></trkpt><trkpt lat="45.8504867" lon="9.5741733"><ele>791.0</ele><time>2026-05-03T08:11:08.37Z</time></trkpt><trkpt lat="45.85041" lon="9.5742517"><ele>791.0</ele><time>2026-05-03T08:11:09.373Z</time></trkpt><trkpt lat="45.8503" lon="9.5743467"><ele>791.0</ele><time>2026-05-03T08:11:10.369Z</time></trkpt><trkpt lat="45.85021" lon="9.57446"><ele>791.0</ele><time>2026-05-03T08:11:11.373Z</time></trkpt><trkpt lat="45.85013" lon="9.5745733"><ele>793.0</ele><time>2026-05-03T08:11:12.372Z</time></trkpt><trkpt lat="45.85008" lon="9.574685"><ele>795.0</ele><time>2026-05-03T08:11:13.373Z</time></trkpt><trkpt lat="45.85006" lon="9.574795"><ele>797.0</ele><time>2026-05-03T08:11:14.373Z</time></trkpt><trkpt lat="45.8500733" lon="9.574935"><ele>799.0</ele><time>2026-05-03T08:11:15.373Z</time></trkpt><trkpt lat="45.8501233" lon="9.5751367"><ele>801.0</ele><time>2026-05-03T08:11:16.372Z</time></trkpt><trkpt lat="45.8501567" lon="9.5753317"><ele>801.5</ele><time>2026-05-03T08:11:17.37Z</time></trkpt><trkpt lat="45.8501833" lon="9.5755367"><ele>802.0</ele><time>2026-05-03T08:11:18.371Z</time></trkpt><trkpt lat="45.8501833" lon="9.5757133"><ele>802.5</ele><time>2026-05-03T08:11:19.369Z</time></trkpt><trkpt lat="45.8501633" lon="9.5759083"><ele>803.0</ele><time>2026-05-03T08:11:20.369Z</time></trkpt><trkpt lat="45.8501383" lon="9.5760983"><ele>798.2</ele><time>2026-05-03T08:11:21.371Z</time></trkpt><trkpt lat="45.8501033" lon="9.5762683"><ele>793.4</ele><time>2026-05-03T08:11:22.371Z</time></trkpt><trkpt lat="45.8500583" lon="9.5763983"><ele>788.6</ele><time>2026-05-03T08:11:23.37Z</time></trkpt><trkpt lat="45.849985" lon="9.57651"><ele>783.8000000000001</ele><time>2026-05-03T08:11:24.374Z</time></trkpt><trkpt lat="45.8499083" lon="9.5766183"><ele>779.0</ele><time>2026-05-03T08:11:25.372Z</time></trkpt><trkpt lat="45.8498417" lon="9.5767317"><ele>779.0</ele><time>2026-05-03T08:11:26.372Z</time></trkpt><trkpt lat="45.8498" lon="9.5768683"><ele>779.0</ele><time>2026-05-03T08:11:27.374Z</time></trkpt><trkpt lat="45.8497833" lon="9.5770333"><ele>779.0</ele><time>2026-05-03T08:11:28.372Z</time></trkpt><trkpt lat="45.84979" lon="9.5771883"><ele>779.0</ele><time>2026-05-03T08:11:29.373Z</time></trkpt><trkpt lat="45.8498133" lon="9.5773283"><ele>779.0</ele><time>2026-05-03T08:11:30.373Z</time></trkpt><trkpt lat="45.84986" lon="9.5774567"><ele>778.75</ele><time>2026-05-03T08:11:31.373Z</time></trkpt><trkpt lat="45.8499317" lon="9.577605"><ele>778.5</ele><time>2026-05-03T08:11:32.372Z</time></trkpt><trkpt lat="45.8500217" lon="9.577765"><ele>778.25</ele><time>2026-05-03T08:11:33.373Z</time></trkpt><trkpt lat="45.850125" lon="9.5779283"><ele>778.0</ele><time>2026-05-03T08:11:34.373Z</time></trkpt><trkpt lat="45.8502367" lon="9.5780933"><ele>785.0</ele><time>2026-05-03T08:11:35.372Z</time></trkpt><trkpt lat="45.8503517" lon="9.57825"><ele>792.0</ele><time>2026-05-03T08:11:36.372Z</time></trkpt><trkpt lat="45.8504683" lon="9.5783783"><ele>799.0</ele><time>2026-05-03T08:11:37.372Z</time></trkpt><trkpt lat="45.8505733" lon="9.5784933"><ele>806.0</ele><time>2026-05-03T08:11:38.372Z</time></trkpt><trkpt lat="45.8506517" lon="9.5786117"><ele>804.5</ele><time>2026-05-03T08:11:39.372Z</time></trkpt><trkpt lat="45.850715" lon="9.5787433"><ele>803.0</ele><time>2026-05-03T08:11:40.372Z</time></trkpt><trkpt lat="45.8507583" lon="9.5789067"><ele>801.5</ele><time>2026-05-03T08:11:41.37Z</time></trkpt><trkpt lat="45.850795" lon="9.5790883"><ele>800.0</ele><time>2026-05-03T08:11:42.373Z</time></trkpt><trkpt lat="45.8508117" lon="9.5792717"><ele>800.0</ele><time>2026-05-03T08:11:43.37Z</time></trkpt><trkpt lat="45.8508067" lon="9.57945"><ele>800.0</ele><time>2026-05-03T08:11:44.371Z</time></trkpt><trkpt lat="45.8507583" lon="9.5796183"><ele>800.0</ele><time>2026-05-03T08:11:45.37Z</time></trkpt><trkpt lat="45.8506883" lon="9.5797733"><ele>800.0</ele><time>2026-05-03T08:11:46.374Z</time></trkpt><trkpt lat="45.8505917" lon="9.57992"><ele>802.6666666666667</ele><time>2026-05-03T08:11:47.37Z</time></trkpt><trkpt lat="45.8504783" lon="9.5800383"><ele>805.3333333333333</ele><time>2026-05-03T08:11:48.37Z</time></trkpt><trkpt lat="45.8503417" lon="9.5801367"><ele>808.0</ele><time>2026-05-03T08:11:49.371Z</time></trkpt><trkpt lat="45.8501933" lon="9.5802367"><ele>807.3333333333333</ele><time>2026-05-03T08:11:50.371Z</time></trkpt><trkpt lat="45.8500433" lon="9.5803417"><ele>806.6666666666667</ele><time>2026-05-03T08:11:51.37Z</time></trkpt><trkpt lat="45.8499017" lon="9.5804483"><ele>806.0</ele><time>2026-05-03T08:11:52.37Z</time></trkpt><trkpt lat="45.8497783" lon="9.58055"><ele>806.0</ele><time>2026-05-03T08:11:53.373Z</time></trkpt><trkpt lat="45.8496717" lon="9.5806517"><ele>806.0</ele><time>2026-05-03T08:11:54.374Z</time></trkpt><trkpt lat="45.84958" lon="9.5807567"><ele>806.0</ele><time>2026-05-03T08:11:55.372Z</time></trkpt><trkpt lat="45.8495067" lon="9.5808533"><ele>806.0</ele><time>2026-05-03T08:11:56.373Z</time></trkpt><trkpt lat="45.8494533" lon="9.580945"><ele>806.0</ele><time>2026-05-03T08:11:57.373Z</time></trkpt><trkpt lat="45.8494233" lon="9.58103"><ele>806.0</ele><time>2026-05-03T08:11:58.373Z</time></trkpt><trkpt lat="45.8494217" lon="9.5811217"><ele>806.0</ele><time>2026-05-03T08:11:59.372Z</time></trkpt><trkpt lat="45.8494633" lon="9.5812267"><ele>806.0</ele><time>2026-05-03T08:12:00.372Z</time></trkpt><trkpt lat="45.8495083" lon="9.581325"><ele>806.0</ele><time>2026-05-03T08:12:01.374Z</time></trkpt><trkpt lat="45.8496667" lon="9.5813583"><ele>806.0</ele><time>2026-05-03T08:12:02.372Z</time></trkpt><trkpt lat="45.84983" lon="9.58139"><ele>802.0</ele><time>2026-05-03T08:12:03.37Z</time></trkpt><trkpt lat="45.8500133" lon="9.5813883"><ele>798.0</ele><time>2026-05-03T08:12:04.372Z</time></trkpt><trkpt lat="45.85018" lon="9.581405"><ele>794.0</ele><time>2026-05-03T08:12:05.372Z</time></trkpt><trkpt lat="45.85037" lon="9.5813917"><ele>794.0</ele><time>2026-05-03T08:12:06.372Z</time></trkpt><trkpt lat="45.85053" lon="9.5813733"><ele>794.0</ele><time>2026-05-03T08:12:07.374Z</time></trkpt><trkpt lat="45.85069" lon="9.5813317"><ele>794.0</ele><time>2026-05-03T08:12:08.373Z</time></trkpt><trkpt lat="45.8508567" lon="9.5812883"><ele>790.3333333333334</ele><time>2026-05-03T08:12:09.372Z</time></trkpt><trkpt lat="45.8510367" lon="9.5812417"><ele>786.6666666666667</ele><time>2026-05-03T08:12:10.369Z</time></trkpt><trkpt lat="45.8512167" lon="9.5811983"><ele>783.0</ele><time>2026-05-03T08:12:11.373Z</time></trkpt><trkpt lat="45.851375" lon="9.581145"><ele>786.5</ele><time>2026-05-03T08:12:12.372Z</time></trkpt><trkpt lat="45.85151" lon="9.5810533"><ele>790.0</ele><time>2026-05-03T08:12:13.372Z</time></trkpt><trkpt lat="45.8516367" lon="9.58095"><ele>793.5</ele><time>2026-05-03T08:12:14.373Z</time></trkpt><trkpt lat="45.8517617" lon="9.58084"><ele>797.0</ele><time>2026-05-03T08:12:15.369Z</time></trkpt><trkpt lat="45.8518683" lon="9.580735"><ele>797.0</ele><time>2026-05-03T08:12:16.373Z</time></trkpt><trkpt lat="45.8519483" lon="9.580625"><ele>797.0</ele><time>2026-05-03T08:12:17.373Z</time></trkpt><trkpt lat="45.852" lon="9.5804867"><ele>797.0</ele><time>2026-05-03T08:12:18.369Z</time></trkpt><trkpt lat="45.8520367" lon="9.5803333"><ele>797.0</ele><time>2026-05-03T08:12:19.37Z</time></trkpt><trkpt lat="45.8520817" lon="9.580195"><ele>797.0</ele><time>2026-05-03T08:12:20.371Z</time></trkpt><trkpt lat="45.8521417" lon="9.5800867"><ele>802.5</ele><time>2026-05-03T08:12:21.371Z</time></trkpt><trkpt lat="45.8522183" lon="9.580015"><ele>808.0</ele><time>2026-05-03T08:12:22.369Z</time></trkpt><trkpt lat="45.8523417" lon="9.5799983"><ele>813.5</ele><time>2026-05-03T08:12:23.372Z</time></trkpt><trkpt lat="45.8525017" lon="9.579995"><ele>819.0</ele><time>2026-05-03T08:12:24.372Z</time></trkpt><trkpt lat="45.8526683" lon="9.5800233"><ele>819.0</ele><time>2026-05-03T08:12:25.371Z</time></trkpt><trkpt lat="45.8528217" lon="9.5800183"><ele>819.0</ele><time>2026-05-03T08:12:26.371Z</time></trkpt><trkpt lat="45.8529517" lon="9.580035"><ele>819.0</ele><time>2026-05-03T08:12:27.37Z</time></trkpt><trkpt lat="45.85305" lon="9.580015"><ele>819.0</ele><time>2026-05-03T08:12:28.373Z</time></trkpt><trkpt lat="45.85314" lon="9.5799283"><ele>819.0</ele><time>2026-05-03T08:12:29.372Z</time></trkpt><trkpt lat="45.8532367" lon="9.5797867"><ele>819.0</ele><time>2026-05-03T08:12:30.373Z</time></trkpt><trkpt lat="45.8533367" lon="9.5796317"><ele>819.0</ele><time>2026-05-03T08:12:31.373Z</time></trkpt><trkpt lat="45.8534333" lon="9.5794933"><ele>819.0</ele><time>2026-05-03T08:12:32.373Z</time></trkpt><trkpt lat="45.853545" lon="9.5793983"><ele>824.6</ele><time>2026-05-03T08:12:33.372Z</time></trkpt><trkpt lat="45.8536517" lon="9.57938"><ele>830.2</ele><time>2026-05-03T08:12:34.373Z</time></trkpt><trkpt lat="45.85375" lon="9.5794233"><ele>835.8000000000001</ele><time>2026-05-03T08:12:35.372Z</time></trkpt><trkpt lat="45.8538467" lon="9.5794833"><ele>841.4000000000001</ele><time>2026-05-03T08:12:36.372Z</time></trkpt><trkpt lat="45.85395" lon="9.5795083"><ele>847.0</ele><time>2026-05-03T08:12:37.373Z</time></trkpt><trkpt lat="45.8540717" lon="9.57948"><ele>847.0</ele><time>2026-05-03T08:12:38.372Z</time></trkpt><trkpt lat="45.85419" lon="9.5794217"><ele>847.0</ele><time>2026-05-03T08:12:39.369Z</time></trkpt><trkpt lat="45.8543" lon="9.57932"><ele>847.0</ele><time>2026-05-03T08:12:40.37Z</time></trkpt><trkpt lat="45.8544067" lon="9.579165"><ele>847.0</ele><time>2026-05-03T08:12:41.372Z</time></trkpt><trkpt lat="45.8545167" lon="9.5789983"><ele>844.3333333333333</ele><time>2026-05-03T08:12:42.372Z</time></trkpt><trkpt lat="45.85464" lon="9.578825"><ele>841.6666666666667</ele><time>2026-05-03T08:12:43.37Z</time></trkpt><trkpt lat="45.85476" lon="9.5786683"><ele>839.0</ele><time>2026-05-03T08:12:44.372Z</time></trkpt><trkpt lat="45.85487" lon="9.5785333"><ele>844.4000000000001</ele><time>2026-05-03T08:12:45.372Z</time></trkpt><trkpt lat="45.8549683" lon="9.5784517"><ele>849.8</ele><time>2026-05-03T08:12:46.369Z</time></trkpt><trkpt lat="45.855095" lon="9.5784133"><ele>855.1999999999999</ele><time>2026-05-03T08:12:47.37Z</time></trkpt><trkpt lat="45.8552033" lon="9.578415"><ele>860.5999999999999</ele><time>2026-05-03T08:12:48.372Z</time></trkpt><trkpt lat="45.85529" lon="9.5784617"><ele>866.0</ele><time>2026-05-03T08:12:49.371Z</time></trkpt><trkpt lat="45.8553617" lon="9.5785317"><ele>867.75</ele><time>2026-05-03T08:12:50.371Z</time></trkpt><trkpt lat="45.8554367" lon="9.57859"><ele>869.5</ele><time>2026-05-03T08:12:51.371Z</time></trkpt><trkpt lat="45.855495" lon="9.5787217"><ele>871.25</ele><time>2026-05-03T08:12:52.371Z</time></trkpt><trkpt lat="45.855505" lon="9.5789283"><ele>873.0</ele><time>2026-05-03T08:12:53.372Z</time></trkpt><trkpt lat="45.8555217" lon="9.5791233"><ele>873.0</ele><time>2026-05-03T08:12:54.373Z</time></trkpt><trkpt lat="45.8555117" lon="9.57933"><ele>873.0</ele><time>2026-05-03T08:12:55.37Z</time></trkpt><trkpt lat="45.8555417" lon="9.5794833"><ele>873.0</ele><time>2026-05-03T08:12:56.373Z</time></trkpt><trkpt lat="45.85558" lon="9.5796017"><ele>873.0</ele><time>2026-05-03T08:12:57.372Z</time></trkpt><trkpt lat="45.8556117" lon="9.57969"><ele>873.0</ele><time>2026-05-03T08:12:58.373Z</time></trkpt><trkpt lat="45.8556817" lon="9.5798333"><ele>869.3333333333334</ele><time>2026-05-03T08:13:00.373Z</time></trkpt><trkpt lat="45.855735" lon="9.5798883"><ele>865.6666666666667</ele><time>2026-05-03T08:13:01.373Z</time></trkpt><trkpt lat="45.8558017" lon="9.5799233"><ele>862.0</ele><time>2026-05-03T08:13:02.37Z</time></trkpt><trkpt lat="45.8558833" lon="9.5799317"><ele>858.3333333333334</ele><time>2026-05-03T08:13:03.372Z</time></trkpt><trkpt lat="45.8559733" lon="9.5799217"><ele>854.6666666666667</ele><time>2026-05-03T08:13:04.369Z</time></trkpt><trkpt lat="45.85606" lon="9.5799233"><ele>851.0</ele><time>2026-05-03T08:13:05.37Z</time></trkpt><trkpt lat="45.8561267" lon="9.5799683"><ele>856.0</ele><time>2026-05-03T08:13:06.373Z</time></trkpt><trkpt lat="45.8561883" lon="9.5800517"><ele>861.0</ele><time>2026-05-03T08:13:07.372Z</time></trkpt><trkpt lat="45.8562267" lon="9.5802133"><ele>866.0</ele><time>2026-05-03T08:13:08.374Z</time></trkpt><trkpt lat="45.8562383" lon="9.5804217"><ele>871.0</ele><time>2026-05-03T08:13:09.369Z</time></trkpt><trkpt lat="45.8562833" lon="9.5805783"><ele>871.0</ele><time>2026-05-03T08:13:10.374Z</time></trkpt><trkpt lat="45.856355" lon="9.580715"><ele>871.0</ele><time>2026-05-03T08:13:11.372Z</time></trkpt><trkpt lat="45.856455" lon="9.580835"><ele>871.0</ele><time>2026-05-03T08:13:12.372Z</time></trkpt><trkpt lat="45.85658" lon="9.5809167"><ele>871.0</ele><time>2026-05-03T08:13:13.372Z</time></trkpt><trkpt lat="45.8567" lon="9.580975"><ele>876.0</ele><time>2026-05-03T08:13:14.371Z</time></trkpt><trkpt lat="45.8568033" lon="9.5810467"><ele>881.0</ele><time>2026-05-03T08:13:15.372Z</time></trkpt><trkpt lat="45.856895" lon="9.58115"><ele>886.0</ele><time>2026-05-03T08:13:16.373Z</time></trkpt><trkpt lat="45.85698" lon="9.5813117"><ele>891.0</ele><time>2026-05-03T08:13:17.371Z</time></trkpt><trkpt lat="45.8570633" lon="9.58151"><ele>891.0</ele><time>2026-05-03T08:13:18.371Z</time></trkpt><trkpt lat="45.8571333" lon="9.5817733"><ele>891.0</ele><time>2026-05-03T08:13:19.371Z</time></trkpt><trkpt lat="45.8572083" lon="9.5819983"><ele>891.0</ele><time>2026-05-03T08:13:20.372Z</time></trkpt><trkpt lat="45.85728" lon="9.58218"><ele>888.25</ele><time>2026-05-03T08:13:21.371Z</time></trkpt><trkpt lat="45.85736" lon="9.58232"><ele>885.5</ele><time>2026-05-03T08:13:22.372Z</time></trkpt><trkpt lat="45.8574617" lon="9.5824067"><ele>882.75</ele><time>2026-05-03T08:13:23.372Z</time></trkpt><trkpt lat="45.85759" lon="9.58245"><ele>880.0</ele><time>2026-05-03T08:13:24.372Z</time></trkpt><trkpt lat="45.8577383" lon="9.5824667"><ele>880.0</ele><time>2026-05-03T08:13:25.373Z</time></trkpt><trkpt lat="45.857905" lon="9.5824767"><ele>880.0</ele><time>2026-05-03T08:13:26.373Z</time></trkpt><trkpt lat="45.85808" lon="9.5824933"><ele>880.0</ele><time>2026-05-03T08:13:27.373Z</time></trkpt><trkpt lat="45.8582667" lon="9.5825117"><ele>880.0</ele><time>2026-05-03T08:13:28.372Z</time></trkpt><trkpt lat="45.85845" lon="9.582525"><ele>880.0</ele><time>2026-05-03T08:13:29.372Z</time></trkpt><trkpt lat="45.858615" lon="9.5825467"><ele>880.0</ele><time>2026-05-03T08:13:30.373Z</time></trkpt><trkpt lat="45.858755" lon="9.5826033"><ele>879.0</ele><time>2026-05-03T08:13:31.373Z</time></trkpt><trkpt lat="45.8588883" lon="9.5826733"><ele>878.0</ele><time>2026-05-03T08:13:32.372Z</time></trkpt><trkpt lat="45.8590083" lon="9.5827833"><ele>877.0</ele><time>2026-05-03T08:13:33.372Z</time></trkpt><trkpt lat="45.8591233" lon="9.5829433"><ele>876.0</ele><time>2026-05-03T08:13:34.374Z</time></trkpt><trkpt lat="45.8592467" lon="9.5831167"><ele>885.0</ele><time>2026-05-03T08:13:35.374Z</time></trkpt><trkpt lat="45.8593683" lon="9.5833"><ele>894.0</ele><time>2026-05-03T08:13:36.373Z</time></trkpt><trkpt lat="45.8594933" lon="9.5834683"><ele>903.0</ele><time>2026-05-03T08:13:37.373Z</time></trkpt><trkpt lat="45.8596067" lon="9.58363"><ele>898.75</ele><time>2026-05-03T08:13:38.374Z</time></trkpt><trkpt lat="45.8597033" lon="9.5837767"><ele>894.5</ele><time>2026-05-03T08:13:39.373Z</time></trkpt><trkpt lat="45.8597817" lon="9.5839133"><ele>890.25</ele><time>2026-05-03T08:13:40.373Z</time></trkpt><trkpt lat="45.8598383" lon="9.584045"><ele>886.0</ele><time>2026-05-03T08:13:41.372Z</time></trkpt><trkpt lat="45.859885" lon="9.58415"><ele>886.0</ele><time>2026-05-03T08:13:42.373Z</time></trkpt><trkpt lat="45.8599367" lon="9.584215"><ele>885.9999999999999</ele><time>2026-05-03T08:13:43.374Z</time></trkpt><trkpt lat="45.8600283" lon="9.5842317"><ele>885.9999999999999</ele><time>2026-05-03T08:13:44.372Z</time></trkpt><trkpt lat="45.8601183" lon="9.584245"><ele>886.0</ele><time>2026-05-03T08:13:45.374Z</time></trkpt><trkpt lat="45.8602317" lon="9.5842233"><ele>886.0</ele><time>2026-05-03T08:13:46.373Z</time></trkpt><trkpt lat="45.8603267" lon="9.58419"><ele>885.5</ele><time>2026-05-03T08:13:47.373Z</time></trkpt><trkpt lat="45.8604233" lon="9.5841017"><ele>885.0</ele><time>2026-05-03T08:13:48.372Z</time></trkpt><trkpt lat="45.8605333" lon="9.5839633"><ele>884.5</ele><time>2026-05-03T08:13:49.373Z</time></trkpt><trkpt lat="45.860655" lon="9.5837983"><ele>884.0</ele><time>2026-05-03T08:13:50.373Z</time></trkpt><trkpt lat="45.8607633" lon="9.5836383"><ele>884.0</ele><time>2026-05-03T08:13:51.373Z</time></trkpt><trkpt lat="45.8608517" lon="9.5834733"><ele>884.0</ele><time>2026-05-03T08:13:52.373Z</time></trkpt><trkpt lat="45.8609117" lon="9.5832767"><ele>884.0</ele><time>2026-05-03T08:13:53.374Z</time></trkpt><trkpt lat="45.860965" lon="9.5830317"><ele>876.0</ele><time>2026-05-03T08:13:54.372Z</time></trkpt><trkpt lat="45.8610167" lon="9.5827633"><ele>868.0</ele><time>2026-05-03T08:13:55.373Z</time></trkpt><trkpt lat="45.8610767" lon="9.5824967"><ele>860.0</ele><time>2026-05-03T08:13:56.372Z</time></trkpt><trkpt lat="45.86116" lon="9.58223"><ele>862.3333333333334</ele><time>2026-05-03T08:13:57.37Z</time></trkpt><trkpt lat="45.8612567" lon="9.5819767"><ele>864.6666666666667</ele><time>2026-05-03T08:13:58.372Z</time></trkpt><trkpt lat="45.8613433" lon="9.58174"><ele>867.0</ele><time>2026-05-03T08:13:59.372Z</time></trkpt><trkpt lat="45.8614083" lon="9.5815"><ele>867.0</ele><time>2026-05-03T08:14:00.371Z</time></trkpt><trkpt lat="45.8614567" lon="9.5812583"><ele>867.0</ele><time>2026-05-03T08:14:01.372Z</time></trkpt><trkpt lat="45.8614733" lon="9.58102"><ele>867.0</ele><time>2026-05-03T08:14:02.373Z</time></trkpt><trkpt lat="45.8614483" lon="9.580775"><ele>867.3333333333333</ele><time>2026-05-03T08:14:03.373Z</time></trkpt><trkpt lat="45.86142" lon="9.58053"><ele>867.6666666666666</ele><time>2026-05-03T08:14:04.372Z</time></trkpt><trkpt lat="45.8613933" lon="9.5802783"><ele>868.0</ele><time>2026-05-03T08:14:05.373Z</time></trkpt><trkpt lat="45.8613833" lon="9.58002"><ele>867.0</ele><time>2026-05-03T08:14:06.37Z</time></trkpt><trkpt lat="45.86141" lon="9.57977"><ele>866.0</ele><time>2026-05-03T08:14:07.372Z</time></trkpt><trkpt lat="45.8614383" lon="9.579535"><ele>865.0</ele><time>2026-05-03T08:14:08.373Z</time></trkpt><trkpt lat="45.8614533" lon="9.57932"><ele>865.0</ele><time>2026-05-03T08:14:09.373Z</time></trkpt><trkpt lat="45.8614367" lon="9.5791133"><ele>865.0</ele><time>2026-05-03T08:14:10.372Z</time></trkpt><trkpt lat="45.8614" lon="9.57889"><ele>865.0</ele><time>2026-05-03T08:14:11.374Z</time></trkpt><trkpt lat="45.8613767" lon="9.5786617"><ele>866.0</ele><time>2026-05-03T08:14:12.375Z</time></trkpt><trkpt lat="45.8613883" lon="9.5784417"><ele>867.0</ele><time>2026-05-03T08:14:13.369Z</time></trkpt><trkpt lat="45.8614283" lon="9.578225"><ele>868.0</ele><time>2026-05-03T08:14:14.373Z</time></trkpt><trkpt lat="45.8615083" lon="9.578"><ele>873.0</ele><time>2026-05-03T08:14:15.372Z</time></trkpt><trkpt lat="45.8615883" lon="9.5777783"><ele>878.0</ele><time>2026-05-03T08:14:16.372Z</time></trkpt><trkpt lat="45.8616583" lon="9.577585"><ele>883.0</ele><time>2026-05-03T08:14:17.372Z</time></trkpt><trkpt lat="45.8617267" lon="9.5774333"><ele>879.75</ele><time>2026-05-03T08:14:18.372Z</time></trkpt><trkpt lat="45.86181" lon="9.5773367"><ele>876.5</ele><time>2026-05-03T08:14:19.374Z</time></trkpt><trkpt lat="45.8619317" lon="9.5773067"><ele>873.25</ele><time>2026-05-03T08:14:20.373Z</time></trkpt><trkpt lat="45.8620817" lon="9.5773383"><ele>870.0</ele><time>2026-05-03T08:14:21.37Z</time></trkpt><trkpt lat="45.8622117" lon="9.5773767"><ele>870.0</ele><time>2026-05-03T08:14:22.371Z</time></trkpt><trkpt lat="45.862325" lon="9.5774017"><ele>870.0</ele><time>2026-05-03T08:14:23.37Z</time></trkpt><trkpt lat="45.8624267" lon="9.5773883"><ele>870.0</ele><time>2026-05-03T08:14:24.371Z</time></trkpt><trkpt lat="45.8625167" lon="9.577335"><ele>870.0</ele><time>2026-05-03T08:14:25.373Z</time></trkpt><trkpt lat="45.8626033" lon="9.577295"><ele>870.0</ele><time>2026-05-03T08:14:26.372Z</time></trkpt><trkpt lat="45.8626983" lon="9.577305"><ele>873.0</ele><time>2026-05-03T08:14:27.37Z</time></trkpt><trkpt lat="45.8628017" lon="9.577355"><ele>876.0</ele><time>2026-05-03T08:14:28.374Z</time></trkpt><trkpt lat="45.8629133" lon="9.57743"><ele>879.0</ele><time>2026-05-03T08:14:29.371Z</time></trkpt><trkpt lat="45.8629967" lon="9.5774967"><ele>882.0</ele><time>2026-05-03T08:14:30.372Z</time></trkpt><trkpt lat="45.8630667" lon="9.577615"><ele>885.0</ele><time>2026-05-03T08:14:31.371Z</time></trkpt><trkpt lat="45.86312" lon="9.5777417"><ele>880.8</ele><time>2026-05-03T08:14:32.372Z</time></trkpt><trkpt lat="45.8631767" lon="9.5778617"><ele>876.6</ele><time>2026-05-03T08:14:33.373Z</time></trkpt><trkpt lat="45.86324" lon="9.5779517"><ele>872.4000000000001</ele><time>2026-05-03T08:14:34.373Z</time></trkpt><trkpt lat="45.8633017" lon="9.5780233"><ele>868.2</ele><time>2026-05-03T08:14:35.369Z</time></trkpt><trkpt lat="45.8633883" lon="9.57808"><ele>864.0</ele><time>2026-05-03T08:14:36.373Z</time></trkpt><trkpt lat="45.863475" lon="9.5781417"><ele>864.0</ele><time>2026-05-03T08:14:37.373Z</time></trkpt><trkpt lat="45.8636117" lon="9.578165"><ele>864.0</ele><time>2026-05-03T08:14:38.371Z</time></trkpt><trkpt lat="45.8637483" lon="9.57818"><ele>864.0</ele><time>2026-05-03T08:14:39.371Z</time></trkpt><trkpt lat="45.8638683" lon="9.57822"><ele>864.0</ele><time>2026-05-03T08:14:40.37Z</time></trkpt><trkpt lat="45.8640367" lon="9.57825"><ele>864.0</ele><time>2026-05-03T08:14:41.373Z</time></trkpt><trkpt lat="45.864165" lon="9.5782883"><ele>864.0</ele><time>2026-05-03T08:14:42.373Z</time></trkpt><trkpt lat="45.8642917" lon="9.5782983"><ele>864.0</ele><time>2026-05-03T08:14:43.371Z</time></trkpt><trkpt lat="45.8643983" lon="9.578305"><ele>864.0</ele><time>2026-05-03T08:14:44.371Z</time></trkpt><trkpt lat="45.8644967" lon="9.5782833"><ele>864.25</ele><time>2026-05-03T08:14:45.373Z</time></trkpt><trkpt lat="45.8645933" lon="9.5782383"><ele>864.5</ele><time>2026-05-03T08:14:46.374Z</time></trkpt><trkpt lat="45.8646833" lon="9.5781533"><ele>864.75</ele><time>2026-05-03T08:14:47.371Z</time></trkpt><trkpt lat="45.8647567" lon="9.5779833"><ele>865.0</ele><time>2026-05-03T08:14:48.371Z</time></trkpt><trkpt lat="45.864835" lon="9.5777167"><ele>865.0</ele><time>2026-05-03T08:14:49.372Z</time></trkpt><trkpt lat="45.864925" lon="9.5775217"><ele>865.0</ele><time>2026-05-03T08:14:50.373Z</time></trkpt><trkpt lat="45.8650033" lon="9.5773633"><ele>865.0</ele><time>2026-05-03T08:14:51.372Z</time></trkpt><trkpt lat="45.865095" lon="9.577195"><ele>865.0</ele><time>2026-05-03T08:14:52.371Z</time></trkpt><trkpt lat="45.8651883" lon="9.5770867"><ele>869.75</ele><time>2026-05-03T08:14:53.373Z</time></trkpt><trkpt lat="45.865285" lon="9.5769967"><ele>874.5</ele><time>2026-05-03T08:14:54.373Z</time></trkpt><trkpt lat="45.865425" lon="9.5769433"><ele>879.25</ele><time>2026-05-03T08:14:55.375Z</time></trkpt><trkpt lat="45.8655817" lon="9.5769283"><ele>884.0</ele><time>2026-05-03T08:14:56.373Z</time></trkpt><trkpt lat="45.86571" lon="9.5769483"><ele>878.5</ele><time>2026-05-03T08:14:57.374Z</time></trkpt><trkpt lat="45.8658317" lon="9.57702"><ele>873.0</ele><time>2026-05-03T08:14:58.373Z</time></trkpt><trkpt lat="45.8659583" lon="9.5771383"><ele>867.5</ele><time>2026-05-03T08:14:59.372Z</time></trkpt><trkpt lat="45.8660783" lon="9.5772867"><ele>862.0</ele><time>2026-05-03T08:15:00.372Z</time></trkpt><trkpt lat="45.866205" lon="9.577415"><ele>862.0</ele><time>2026-05-03T08:15:01.369Z</time></trkpt><trkpt lat="45.8663417" lon="9.5775017"><ele>862.0</ele><time>2026-05-03T08:15:02.373Z</time></trkpt><trkpt lat="45.8664767" lon="9.577525"><ele>862.0</ele><time>2026-05-03T08:15:03.374Z</time></trkpt><trkpt lat="45.86661" lon="9.5774883"><ele>862.0</ele><time>2026-05-03T08:15:04.373Z</time></trkpt><trkpt lat="45.86675" lon="9.5774133"><ele>858.6666666666666</ele><time>2026-05-03T08:15:05.37Z</time></trkpt><trkpt lat="45.8668933" lon="9.57727"><ele>855.3333333333333</ele><time>2026-05-03T08:15:06.373Z</time></trkpt><trkpt lat="45.8670283" lon="9.5771267"><ele>852.0</ele><time>2026-05-03T08:15:07.373Z</time></trkpt><trkpt lat="45.8671583" lon="9.577"><ele>852.0</ele><time>2026-05-03T08:15:08.374Z</time></trkpt><trkpt lat="45.86728" lon="9.576905"><ele>852.0</ele><time>2026-05-03T08:15:09.37Z</time></trkpt><trkpt lat="45.8673617" lon="9.576885"><ele>852.0</ele><time>2026-05-03T08:15:10.372Z</time></trkpt><trkpt lat="45.867455" lon="9.576935"><ele>852.0</ele><time>2026-05-03T08:15:11.373Z</time></trkpt><trkpt lat="45.8675633" lon="9.5770517"><ele>859.0</ele><time>2026-05-03T08:15:12.373Z</time></trkpt><trkpt lat="45.867675" lon="9.577205"><ele>866.0</ele><time>2026-05-03T08:15:13.371Z</time></trkpt><trkpt lat="45.8677817" lon="9.577385"><ele>873.0</ele><time>2026-05-03T08:15:14.372Z</time></trkpt><trkpt lat="45.867875" lon="9.5775767"><ele>873.0</ele><time>2026-05-03T08:15:15.374Z</time></trkpt><trkpt lat="45.8679683" lon="9.5776967"><ele>873.0</ele><time>2026-05-03T08:15:16.373Z</time></trkpt><trkpt lat="45.8680667" lon="9.577765"><ele>873.0</ele><time>2026-05-03T08:15:17.373Z</time></trkpt><trkpt lat="45.8681917" lon="9.5777817"><ele>873.0</ele><time>2026-05-03T08:15:18.371Z</time></trkpt><trkpt lat="45.868335" lon="9.577775"><ele>873.5999999999999</ele><time>2026-05-03T08:15:19.372Z</time></trkpt><trkpt lat="45.8684667" lon="9.577775"><ele>874.1999999999999</ele><time>2026-05-03T08:15:20.373Z</time></trkpt><trkpt lat="45.8685767" lon="9.57779"><ele>874.8</ele><time>2026-05-03T08:15:21.371Z</time></trkpt><trkpt lat="45.8686683" lon="9.5778317"><ele>875.4</ele><time>2026-05-03T08:15:22.372Z</time></trkpt><trkpt lat="45.8687383" lon="9.5778967"><ele>876.0</ele><time>2026-05-03T08:15:23.372Z</time></trkpt><trkpt lat="45.8687767" lon="9.5780083"><ele>876.0</ele><time>2026-05-03T08:15:24.371Z</time></trkpt><trkpt lat="45.8688033" lon="9.5781833"><ele>876.0</ele><time>2026-05-03T08:15:25.371Z</time></trkpt><trkpt lat="45.8688567" lon="9.5784"><ele>876.0</ele><time>2026-05-03T08:15:26.372Z</time></trkpt><trkpt lat="45.8689183" lon="9.578655"><ele>868.75</ele><time>2026-05-03T08:15:27.371Z</time></trkpt><trkpt lat="45.868985" lon="9.5788617"><ele>861.5</ele><time>2026-05-03T08:15:28.37Z</time></trkpt><trkpt lat="45.869035" lon="9.5790467"><ele>854.25</ele><time>2026-05-03T08:15:29.371Z</time></trkpt><trkpt lat="45.8690833" lon="9.5791917"><ele>847.0</ele><time>2026-05-03T08:15:30.374Z</time></trkpt><trkpt lat="45.8691567" lon="9.57928"><ele>847.0</ele><time>2026-05-03T08:15:31.373Z</time></trkpt><trkpt lat="45.86924" lon="9.5793233"><ele>847.0</ele><time>2026-05-03T08:15:32.373Z</time></trkpt><trkpt lat="45.8693383" lon="9.5793367"><ele>847.0</ele><time>2026-05-03T08:15:33.374Z</time></trkpt><trkpt lat="45.869445" lon="9.5793117"><ele>847.0</ele><time>2026-05-03T08:15:34.372Z</time></trkpt><trkpt lat="45.8695867" lon="9.579275"><ele>847.0</ele><time>2026-05-03T08:15:35.37Z</time></trkpt><trkpt lat="45.86972" lon="9.579285"><ele>845.6666666666666</ele><time>2026-05-03T08:15:36.37Z</time></trkpt><trkpt lat="45.8698617" lon="9.5793617"><ele>844.3333333333333</ele><time>2026-05-03T08:15:37.373Z</time></trkpt><trkpt lat="45.870025" lon="9.5794883"><ele>843.0</ele><time>2026-05-03T08:15:38.374Z</time></trkpt><trkpt lat="45.8701683" lon="9.5796333"><ele>843.0</ele><time>2026-05-03T08:15:39.374Z</time></trkpt><trkpt lat="45.8703067" lon="9.57975"><ele>843.0</ele><time>2026-05-03T08:15:40.374Z</time></trkpt><trkpt lat="45.8704283" lon="9.579875"><ele>843.0</ele><time>2026-05-03T08:15:41.374Z</time></trkpt><trkpt lat="45.870555" lon="9.5799683"><ele>843.0</ele><time>2026-05-03T08:15:42.374Z</time></trkpt><trkpt lat="45.8706883" lon="9.58002"><ele>843.0</ele><time>2026-05-03T08:15:43.372Z</time></trkpt><trkpt lat="45.8708367" lon="9.5800367"><ele>843.0</ele><time>2026-05-03T08:15:44.373Z</time></trkpt><trkpt lat="45.8709933" lon="9.5800333"><ele>843.0</ele><time>2026-05-03T08:15:45.375Z</time></trkpt><trkpt lat="45.8711417" lon="9.58005"><ele>844.0</ele><time>2026-05-03T08:15:46.373Z</time></trkpt><trkpt lat="45.8712683" lon="9.58009"><ele>845.0</ele><time>2026-05-03T08:15:47.372Z</time></trkpt><trkpt lat="45.87138" lon="9.580105"><ele>846.0</ele><time>2026-05-03T08:15:48.371Z</time></trkpt><trkpt lat="45.871495" lon="9.5800833"><ele>847.0</ele><time>2026-05-03T08:15:49.371Z</time></trkpt><trkpt lat="45.87163" lon="9.5800417"><ele>846.3333333333333</ele><time>2026-05-03T08:15:50.371Z</time></trkpt><trkpt lat="45.8717783" lon="9.5800267"><ele>845.6666666666667</ele><time>2026-05-03T08:15:51.372Z</time></trkpt><trkpt lat="45.8719433" lon="9.5800617"><ele>845.0</ele><time>2026-05-03T08:15:52.37Z</time></trkpt><trkpt lat="45.8721117" lon="9.5801033"><ele>845.0</ele><time>2026-05-03T08:15:53.371Z</time></trkpt><trkpt lat="45.8722683" lon="9.58013"><ele>845.0</ele><time>2026-05-03T08:15:54.37Z</time></trkpt><trkpt lat="45.8724233" lon="9.5801217"><ele>845.0</ele><time>2026-05-03T08:15:55.37Z</time></trkpt><trkpt lat="45.8725867" lon="9.5800717"><ele>841.6666666666667</ele><time>2026-05-03T08:15:56.371Z</time></trkpt><trkpt lat="45.8727583" lon="9.58001"><ele>838.3333333333333</ele><time>2026-05-03T08:15:57.37Z</time></trkpt><trkpt lat="45.8729333" lon="9.5799367"><ele>835.0</ele><time>2026-05-03T08:15:58.374Z</time></trkpt><trkpt lat="45.8730967" lon="9.5798517"><ele>835.0</ele><time>2026-05-03T08:15:59.373Z</time></trkpt><trkpt lat="45.873245" lon="9.5797467"><ele>835.0</ele><time>2026-05-03T08:16:00.373Z</time></trkpt><trkpt lat="45.8733867" lon="9.5796317"><ele>835.0</ele><time>2026-05-03T08:16:01.373Z</time></trkpt><trkpt lat="45.8735233" lon="9.579515"><ele>832.75</ele><time>2026-05-03T08:16:02.372Z</time></trkpt><trkpt lat="45.8736583" lon="9.579405"><ele>830.5</ele><time>2026-05-03T08:16:03.372Z</time></trkpt><trkpt lat="45.873785" lon="9.5793083"><ele>828.25</ele><time>2026-05-03T08:16:04.373Z</time></trkpt><trkpt lat="45.8739" lon="9.579215"><ele>826.0</ele><time>2026-05-03T08:16:05.372Z</time></trkpt><trkpt lat="45.874" lon="9.5791183"><ele>826.0</ele><time>2026-05-03T08:16:06.368Z</time></trkpt><trkpt lat="45.8740683" lon="9.5790067"><ele>826.0</ele><time>2026-05-03T08:16:07.372Z</time></trkpt><trkpt lat="45.8740983" lon="9.5788733"><ele>826.0</ele><time>2026-05-03T08:16:08.373Z</time></trkpt><trkpt lat="45.87409" lon="9.5787217"><ele>826.0</ele><time>2026-05-03T08:16:09.373Z</time></trkpt><trkpt lat="45.8740517" lon="9.5785467"><ele>826.0</ele><time>2026-05-03T08:16:10.372Z</time></trkpt><trkpt lat="45.874" lon="9.578345"><ele>824.0</ele><time>2026-05-03T08:16:11.373Z</time></trkpt><trkpt lat="45.8739467" lon="9.5781133"><ele>822.0</ele><time>2026-05-03T08:16:12.374Z</time></trkpt><trkpt lat="45.8738817" lon="9.5778683"><ele>820.0</ele><time>2026-05-03T08:16:13.372Z</time></trkpt><trkpt lat="45.8738017" lon="9.5776233"><ele>816.0</ele><time>2026-05-03T08:16:14.372Z</time></trkpt><trkpt lat="45.8737117" lon="9.5773867"><ele>812.0</ele><time>2026-05-03T08:16:15.372Z</time></trkpt><trkpt lat="45.87362" lon="9.5771683"><ele>808.0</ele><time>2026-05-03T08:16:16.372Z</time></trkpt><trkpt lat="45.87352" lon="9.5769817"><ele>811.75</ele><time>2026-05-03T08:16:17.372Z</time></trkpt><trkpt lat="45.8734117" lon="9.5768317"><ele>815.5</ele><time>2026-05-03T08:16:18.369Z</time></trkpt><trkpt lat="45.8733033" lon="9.5767"><ele>819.25</ele><time>2026-05-03T08:16:19.369Z</time></trkpt><trkpt lat="45.8732067" lon="9.576575"><ele>823.0</ele><time>2026-05-03T08:16:20.371Z</time></trkpt><trkpt lat="45.873135" lon="9.57643"><ele>823.0</ele><time>2026-05-03T08:16:21.371Z</time></trkpt><trkpt lat="45.8731267" lon="9.5762433"><ele>823.0</ele><time>2026-05-03T08:16:22.37Z</time></trkpt><trkpt lat="45.8731567" lon="9.5760217"><ele>823.0</ele><time>2026-05-03T08:16:23.372Z</time></trkpt><trkpt lat="45.8731817" lon="9.5757733"><ele>819.3333333333333</ele><time>2026-05-03T08:16:24.37Z</time></trkpt><trkpt lat="45.8731983" lon="9.5755233"><ele>815.6666666666667</ele><time>2026-05-03T08:16:25.371Z</time></trkpt><trkpt lat="45.873205" lon="9.5752833"><ele>812.0</ele><time>2026-05-03T08:16:26.371Z</time></trkpt><trkpt lat="45.8731883" lon="9.5750417"><ele>810.0</ele><time>2026-05-03T08:16:27.372Z</time></trkpt><trkpt lat="45.873155" lon="9.5748033"><ele>808.0</ele><time>2026-05-03T08:16:28.372Z</time></trkpt><trkpt lat="45.87312" lon="9.5745867"><ele>806.0</ele><time>2026-05-03T08:16:29.374Z</time></trkpt><trkpt lat="45.8730783" lon="9.5743967"><ele>803.5</ele><time>2026-05-03T08:16:30.374Z</time></trkpt><trkpt lat="45.87302" lon="9.5742267"><ele>801.0</ele><time>2026-05-03T08:16:31.372Z</time></trkpt><trkpt lat="45.8729383" lon="9.574085"><ele>798.5</ele><time>2026-05-03T08:16:32.369Z</time></trkpt><trkpt lat="45.8728233" lon="9.5739717"><ele>796.0</ele><time>2026-05-03T08:16:33.37Z</time></trkpt><trkpt lat="45.8726983" lon="9.573875"><ele>798.5</ele><time>2026-05-03T08:16:34.37Z</time></trkpt><trkpt lat="45.87258" lon="9.573775"><ele>801.0</ele><time>2026-05-03T08:16:35.371Z</time></trkpt><trkpt lat="45.8724783" lon="9.5736717"><ele>803.5</ele><time>2026-05-03T08:16:36.372Z</time></trkpt><trkpt lat="45.872395" lon="9.57355"><ele>806.0</ele><time>2026-05-03T08:16:37.373Z</time></trkpt><trkpt lat="45.8723367" lon="9.5734083"><ele>806.0</ele><time>2026-05-03T08:16:38.374Z</time></trkpt><trkpt lat="45.872295" lon="9.573255"><ele>806.0</ele><time>2026-05-03T08:16:39.372Z</time></trkpt><trkpt lat="45.8722683" lon="9.573085"><ele>806.0</ele><time>2026-05-03T08:16:40.373Z</time></trkpt><trkpt lat="45.87226" lon="9.5729017"><ele>806.0</ele><time>2026-05-03T08:16:41.373Z</time></trkpt><trkpt lat="45.8722617" lon="9.5727083"><ele>805.25</ele><time>2026-05-03T08:16:42.373Z</time></trkpt><trkpt lat="45.872275" lon="9.5725167"><ele>804.5</ele><time>2026-05-03T08:16:43.369Z</time></trkpt><trkpt lat="45.872305" lon="9.5723217"><ele>803.75</ele><time>2026-05-03T08:16:44.374Z</time></trkpt><trkpt lat="45.8723483" lon="9.5721217"><ele>803.0</ele><time>2026-05-03T08:16:45.373Z</time></trkpt><trkpt lat="45.8723967" lon="9.57192"><ele>802.75</ele><time>2026-05-03T08:16:46.372Z</time></trkpt><trkpt lat="45.8724383" lon="9.5717183"><ele>802.5</ele><time>2026-05-03T08:16:47.369Z</time></trkpt><trkpt lat="45.8724717" lon="9.571515"><ele>802.25</ele><time>2026-05-03T08:16:48.37Z</time></trkpt><trkpt lat="45.87251" lon="9.5713217"><ele>802.0</ele><time>2026-05-03T08:16:49.369Z</time></trkpt><trkpt lat="45.87255" lon="9.5711317"><ele>802.5</ele><time>2026-05-03T08:16:50.37Z</time></trkpt><trkpt lat="45.8725883" lon="9.5709417"><ele>803.0</ele><time>2026-05-03T08:16:51.37Z</time></trkpt><trkpt lat="45.8726317" lon="9.570755"><ele>803.5</ele><time>2026-05-03T08:16:52.369Z</time></trkpt><trkpt lat="45.872675" lon="9.5705733"><ele>804.0</ele><time>2026-05-03T08:16:53.37Z</time></trkpt><trkpt lat="45.872705" lon="9.5704017"><ele>802.25</ele><time>2026-05-03T08:16:54.37Z</time></trkpt><trkpt lat="45.8727233" lon="9.57023"><ele>800.5</ele><time>2026-05-03T08:16:55.37Z</time></trkpt><trkpt lat="45.8727283" lon="9.5700617"><ele>798.75</ele><time>2026-05-03T08:16:56.37Z</time></trkpt><trkpt lat="45.87271" lon="9.5699067"><ele>797.0</ele><time>2026-05-03T08:16:57.369Z</time></trkpt><trkpt lat="45.8726667" lon="9.5697717"><ele>797.8</ele><time>2026-05-03T08:16:58.37Z</time></trkpt><trkpt lat="45.8725983" lon="9.5696583"><ele>798.6</ele><time>2026-05-03T08:16:59.372Z</time></trkpt><trkpt lat="45.8725167" lon="9.56957"><ele>799.4</ele><time>2026-05-03T08:17:00.373Z</time></trkpt><trkpt lat="45.8724367" lon="9.5694933"><ele>800.1999999999999</ele><time>2026-05-03T08:17:01.372Z</time></trkpt><trkpt lat="45.87237" lon="9.56941"><ele>801.0</ele><time>2026-05-03T08:17:02.37Z</time></trkpt><trkpt lat="45.8723183" lon="9.56932"><ele>801.0</ele><time>2026-05-03T08:17:03.372Z</time></trkpt><trkpt lat="45.8722883" lon="9.569225"><ele>801.0</ele><time>2026-05-03T08:17:04.372Z</time></trkpt><trkpt lat="45.872295" lon="9.5691217"><ele>801.0</ele><time>2026-05-03T08:17:05.373Z</time></trkpt><trkpt lat="45.8723433" lon="9.56899"><ele>801.0</ele><time>2026-05-03T08:17:06.372Z</time></trkpt><trkpt lat="45.8724667" lon="9.56882"><ele>801.0</ele><time>2026-05-03T08:17:07.37Z</time></trkpt><trkpt lat="45.8726117" lon="9.5686183"><ele>798.6666666666667</ele><time>2026-05-03T08:17:08.369Z</time></trkpt><trkpt lat="45.8727567" lon="9.5683767"><ele>796.3333333333334</ele><time>2026-05-03T08:17:09.369Z</time></trkpt><trkpt lat="45.872895" lon="9.5681417"><ele>794.0</ele><time>2026-05-03T08:17:10.373Z</time></trkpt><trkpt lat="45.8730133" lon="9.5679233"><ele>796.0</ele><time>2026-05-03T08:17:11.373Z</time></trkpt><trkpt lat="45.8731267" lon="9.567725"><ele>798.0</ele><time>2026-05-03T08:17:12.373Z</time></trkpt><trkpt lat="45.8732467" lon="9.5675417"><ele>800.0</ele><time>2026-05-03T08:17:13.37Z</time></trkpt><trkpt lat="45.8733733" lon="9.5673683"><ele>798.0</ele><time>2026-05-03T08:17:14.37Z</time></trkpt><trkpt lat="45.8735133" lon="9.56719"><ele>796.0</ele><time>2026-05-03T08:17:15.372Z</time></trkpt><trkpt lat="45.8736583" lon="9.5670167"><ele>794.0</ele><time>2026-05-03T08:17:16.372Z</time></trkpt><trkpt lat="45.8738083" lon="9.5668517"><ele>794.0</ele><time>2026-05-03T08:17:17.369Z</time></trkpt><trkpt lat="45.87395" lon="9.5666917"><ele>794.0</ele><time>2026-05-03T08:17:18.37Z</time></trkpt><trkpt lat="45.874075" lon="9.5665533"><ele>794.0</ele><time>2026-05-03T08:17:19.37Z</time></trkpt><trkpt lat="45.874185" lon="9.5664433"><ele>793.5</ele><time>2026-05-03T08:17:20.373Z</time></trkpt><trkpt lat="45.874295" lon="9.5663633"><ele>793.0</ele><time>2026-05-03T08:17:21.37Z</time></trkpt><trkpt lat="45.874425" lon="9.5663117"><ele>792.5</ele><time>2026-05-03T08:17:22.369Z</time></trkpt><trkpt lat="45.8745567" lon="9.5662317"><ele>792.0</ele><time>2026-05-03T08:17:23.371Z</time></trkpt><trkpt lat="45.8746917" lon="9.566125"><ele>792.0</ele><time>2026-05-03T08:17:24.373Z</time></trkpt><trkpt lat="45.8748233" lon="9.5660217"><ele>792.0</ele><time>2026-05-03T08:17:25.369Z</time></trkpt><trkpt lat="45.8749367" lon="9.5659183"><ele>792.0</ele><time>2026-05-03T08:17:26.372Z</time></trkpt><trkpt lat="45.8750383" lon="9.5658083"><ele>792.0</ele><time>2026-05-03T08:17:27.372Z</time></trkpt><trkpt lat="45.8751117" lon="9.56569"><ele>791.25</ele><time>2026-05-03T08:17:28.37Z</time></trkpt><trkpt lat="45.87514" lon="9.5655517"><ele>790.5</ele><time>2026-05-03T08:17:29.372Z</time></trkpt><trkpt lat="45.875125" lon="9.56539"><ele>789.75</ele><time>2026-05-03T08:17:30.373Z</time></trkpt><trkpt lat="45.8750833" lon="9.56519"><ele>789.0</ele><time>2026-05-03T08:17:31.373Z</time></trkpt><trkpt lat="45.87502" lon="9.5649633"><ele>789.0</ele><time>2026-05-03T08:17:32.371Z</time></trkpt><trkpt lat="45.8749533" lon="9.564725"><ele>789.0</ele><time>2026-05-03T08:17:33.373Z</time></trkpt><trkpt lat="45.87487" lon="9.564505"><ele>789.0</ele><time>2026-05-03T08:17:34.372Z</time></trkpt><trkpt lat="45.8747683" lon="9.5643067"><ele>786.0</ele><time>2026-05-03T08:17:35.372Z</time></trkpt><trkpt lat="45.8746783" lon="9.5641233"><ele>783.0</ele><time>2026-05-03T08:17:36.372Z</time></trkpt><trkpt lat="45.8746083" lon="9.56393"><ele>780.0</ele><time>2026-05-03T08:17:37.372Z</time></trkpt><trkpt lat="45.8745417" lon="9.56372"><ele>777.5</ele><time>2026-05-03T08:17:38.373Z</time></trkpt><trkpt lat="45.87447" lon="9.5635233"><ele>775.0</ele><time>2026-05-03T08:17:39.372Z</time></trkpt><trkpt lat="45.8743833" lon="9.5633533"><ele>772.5</ele><time>2026-05-03T08:17:40.373Z</time></trkpt><trkpt lat="45.8743033" lon="9.5632133"><ele>770.0</ele><time>2026-05-03T08:17:41.373Z</time></trkpt><trkpt lat="45.8742433" lon="9.5630917"><ele>773.4</ele><time>2026-05-03T08:17:42.37Z</time></trkpt><trkpt lat="45.8742067" lon="9.5629733"><ele>776.8</ele><time>2026-05-03T08:17:43.37Z</time></trkpt><trkpt lat="45.8741917" lon="9.5628467"><ele>780.2</ele><time>2026-05-03T08:17:44.371Z</time></trkpt><trkpt lat="45.8742033" lon="9.56272"><ele>783.6</ele><time>2026-05-03T08:17:45.37Z</time></trkpt><trkpt lat="45.8742433" lon="9.56257"><ele>787.0</ele><time>2026-05-03T08:17:46.372Z</time></trkpt><trkpt lat="45.874265" lon="9.5623917"><ele>787.0</ele><time>2026-05-03T08:17:47.369Z</time></trkpt><trkpt lat="45.87426" lon="9.562185"><ele>787.0</ele><time>2026-05-03T08:17:48.369Z</time></trkpt><trkpt lat="45.87424" lon="9.5619717"><ele>787.0</ele><time>2026-05-03T08:17:49.369Z</time></trkpt><trkpt lat="45.8742217" lon="9.5617633"><ele>787.0</ele><time>2026-05-03T08:17:50.371Z</time></trkpt><trkpt lat="45.874235" lon="9.5615567"><ele>775.6666666666666</ele><time>2026-05-03T08:17:51.369Z</time></trkpt><trkpt lat="45.8742717" lon="9.5613433"><ele>764.3333333333333</ele><time>2026-05-03T08:17:52.37Z</time></trkpt><trkpt lat="45.8743517" lon="9.5611267"><ele>753.0</ele><time>2026-05-03T08:17:53.369Z</time></trkpt><trkpt lat="45.874405" lon="9.56092"><ele>752.8</ele><time>2026-05-03T08:17:54.372Z</time></trkpt><trkpt lat="45.874465" lon="9.560735"><ele>752.5999999999999</ele><time>2026-05-03T08:17:55.372Z</time></trkpt><trkpt lat="45.8744983" lon="9.560585"><ele>752.4000000000001</ele><time>2026-05-03T08:17:56.372Z</time></trkpt><trkpt lat="45.87451" lon="9.5604567"><ele>752.2</ele><time>2026-05-03T08:17:57.373Z</time></trkpt><trkpt lat="45.874495" lon="9.5603283"><ele>752.0</ele><time>2026-05-03T08:17:58.372Z</time></trkpt><trkpt lat="45.874445" lon="9.5601833"><ele>747.3333333333333</ele><time>2026-05-03T08:17:59.373Z</time></trkpt><trkpt lat="45.8743667" lon="9.5600283"><ele>742.6666666666666</ele><time>2026-05-03T08:18:00.37Z</time></trkpt><trkpt lat="45.8742233" lon="9.5598983"><ele>738.0</ele><time>2026-05-03T08:18:01.371Z</time></trkpt><trkpt lat="45.874075" lon="9.5597617"><ele>739.6666666666666</ele><time>2026-05-03T08:18:02.369Z</time></trkpt><trkpt lat="45.8739033" lon="9.559635"><ele>741.3333333333333</ele><time>2026-05-03T08:18:03.372Z</time></trkpt><trkpt lat="45.8737233" lon="9.5595233"><ele>743.0</ele><time>2026-05-03T08:18:04.368Z</time></trkpt><trkpt lat="45.87354" lon="9.559415"><ele>749.3333333333333</ele><time>2026-05-03T08:18:05.372Z</time></trkpt><trkpt lat="45.8733417" lon="9.559315"><ele>755.6666666666666</ele><time>2026-05-03T08:18:06.368Z</time></trkpt><trkpt lat="45.8731467" lon="9.5592183"><ele>762.0</ele><time>2026-05-03T08:18:07.37Z</time></trkpt><trkpt lat="45.8729533" lon="9.55915"><ele>762.0</ele><time>2026-05-03T08:18:08.37Z</time></trkpt><trkpt lat="45.8727717" lon="9.5590883"><ele>762.0</ele><time>2026-05-03T08:18:09.369Z</time></trkpt><trkpt lat="45.8726" lon="9.559015"><ele>762.0</ele><time>2026-05-03T08:18:10.37Z</time></trkpt><trkpt lat="45.8724333" lon="9.558935"><ele>763.25</ele><time>2026-05-03T08:18:11.369Z</time></trkpt><trkpt lat="45.872285" lon="9.5588417"><ele>764.5</ele><time>2026-05-03T08:18:12.369Z</time></trkpt><trkpt lat="45.8721517" lon="9.5587467"><ele>765.75</ele><time>2026-05-03T08:18:13.37Z</time></trkpt><trkpt lat="45.8720383" lon="9.5586617"><ele>767.0</ele><time>2026-05-03T08:18:14.37Z</time></trkpt><trkpt lat="45.8719417" lon="9.5585933"><ele>767.0</ele><time>2026-05-03T08:18:15.373Z</time></trkpt><trkpt lat="45.8718583" lon="9.5585333"><ele>767.0</ele><time>2026-05-03T08:18:16.37Z</time></trkpt><trkpt lat="45.87179" lon="9.558475"><ele>767.0</ele><time>2026-05-03T08:18:17.371Z</time></trkpt><trkpt lat="45.8717283" lon="9.5584167"><ele>767.0</ele><time>2026-05-03T08:18:18.37Z</time></trkpt><trkpt lat="45.87166" lon="9.5583483"><ele>767.0</ele><time>2026-05-03T08:18:20.372Z</time></trkpt><trkpt lat="45.8717783" lon="9.558395"><ele>767.0</ele><time>2026-05-03T08:18:22.371Z</time></trkpt><trkpt lat="45.8719067" lon="9.5584233"><ele>767.0</ele><time>2026-05-03T08:18:24.372Z</time></trkpt><trkpt lat="45.87201" lon="9.5584383"><ele>767.0</ele><time>2026-05-03T08:18:25.372Z</time></trkpt><trkpt lat="45.872165" lon="9.5584667"><ele>767.0</ele><time>2026-05-03T08:18:26.371Z</time></trkpt><trkpt lat="45.872395" lon="9.5584117"><ele>767.0</ele><time>2026-05-03T08:18:27.371Z</time></trkpt><trkpt lat="45.872595" lon="9.558325"><ele>767.0</ele><time>2026-05-03T08:18:28.372Z</time></trkpt><trkpt lat="45.8728017" lon="9.558195"><ele>767.0</ele><time>2026-05-03T08:18:29.374Z</time></trkpt><trkpt lat="45.8729273" lon="9.5581076"><ele>762.0</ele><time>2026-05-03T08:18:30.372Z</time></trkpt><trkpt lat="45.8730496" lon="9.558039"><ele>757.0</ele><time>2026-05-03T08:18:31.371Z</time></trkpt><trkpt lat="45.8731848" lon="9.5579941"><ele>752.0</ele><time>2026-05-03T08:18:32.371Z</time></trkpt><trkpt lat="45.8733396" lon="9.5579537"><ele>747.0</ele><time>2026-05-03T08:18:33.371Z</time></trkpt><trkpt lat="45.8734923" lon="9.5579072"><ele>743.75</ele><time>2026-05-03T08:18:34.37Z</time></trkpt><trkpt lat="45.873645" lon="9.5578067"><ele>740.5</ele><time>2026-05-03T08:18:35.37Z</time></trkpt><trkpt lat="45.873755" lon="9.5576983"><ele>737.25</ele><time>2026-05-03T08:18:36.371Z</time></trkpt><trkpt lat="45.8738283" lon="9.557575"><ele>734.0</ele><time>2026-05-03T08:18:37.372Z</time></trkpt><trkpt lat="45.8738733" lon="9.5574433"><ele>734.0</ele><time>2026-05-03T08:18:38.371Z</time></trkpt><trkpt lat="45.873915" lon="9.5573233"><ele>734.0</ele><time>2026-05-03T08:18:39.371Z</time></trkpt><trkpt lat="45.8739717" lon="9.557215"><ele>734.0</ele><time>2026-05-03T08:18:40.37Z</time></trkpt><trkpt lat="45.8740433" lon="9.5571383"><ele>734.0</ele><time>2026-05-03T08:18:41.372Z</time></trkpt><trkpt lat="45.8741433" lon="9.5571033"><ele>734.0</ele><time>2026-05-03T08:18:42.373Z</time></trkpt><trkpt lat="45.874275" lon="9.5571017"><ele>734.0</ele><time>2026-05-03T08:18:43.37Z</time></trkpt><trkpt lat="45.87438" lon="9.5571267"><ele>734.0</ele><time>2026-05-03T08:18:44.37Z</time></trkpt><trkpt lat="45.8744733" lon="9.55716"><ele>734.0</ele><time>2026-05-03T08:18:45.37Z</time></trkpt><trkpt lat="45.8745717" lon="9.5572217"><ele>734.0</ele><time>2026-05-03T08:18:46.372Z</time></trkpt><trkpt lat="45.8746717" lon="9.55728"><ele>734.0</ele><time>2026-05-03T08:18:47.369Z</time></trkpt><trkpt lat="45.8747933" lon="9.5573133"><ele>734.0</ele><time>2026-05-03T08:18:48.373Z</time></trkpt><trkpt lat="45.8749117" lon="9.5573383"><ele>734.0</ele><time>2026-05-03T08:18:49.37Z</time></trkpt><trkpt lat="45.8750233" lon="9.557355"><ele>734.0</ele><time>2026-05-03T08:18:50.37Z</time></trkpt><trkpt lat="45.875155" lon="9.5573"><ele>734.0</ele><time>2026-05-03T08:18:51.369Z</time></trkpt><trkpt lat="45.8752817" lon="9.5572133"><ele>736.0</ele><time>2026-05-03T08:18:52.37Z</time></trkpt><trkpt lat="45.8754183" lon="9.557115"><ele>738.0</ele><time>2026-05-03T08:18:53.369Z</time></trkpt><trkpt lat="45.8755633" lon="9.5570133"><ele>740.0</ele><time>2026-05-03T08:18:54.369Z</time></trkpt><trkpt lat="45.8757067" lon="9.5569317"><ele>740.0</ele><time>2026-05-03T08:18:55.369Z</time></trkpt><trkpt lat="45.8758467" lon="9.5568717"><ele>740.0</ele><time>2026-05-03T08:18:56.37Z</time></trkpt><trkpt lat="45.87596" lon="9.5568"><ele>740.0</ele><time>2026-05-03T08:18:57.369Z</time></trkpt><trkpt lat="45.8760267" lon="9.556715"><ele>740.0</ele><time>2026-05-03T08:18:58.373Z</time></trkpt><trkpt lat="45.87607" lon="9.5565983"><ele>737.0</ele><time>2026-05-03T08:18:59.369Z</time></trkpt><trkpt lat="45.8760783" lon="9.5564367"><ele>734.0</ele><time>2026-05-03T08:19:00.373Z</time></trkpt><trkpt lat="45.8760833" lon="9.5562633"><ele>731.0</ele><time>2026-05-03T08:19:01.37Z</time></trkpt><trkpt lat="45.8760983" lon="9.5561033"><ele>728.0</ele><time>2026-05-03T08:19:02.375Z</time></trkpt><trkpt lat="45.87614" lon="9.55596"><ele>728.0</ele><time>2026-05-03T08:19:03.369Z</time></trkpt><trkpt lat="45.8761917" lon="9.555845"><ele>728.0</ele><time>2026-05-03T08:19:04.373Z</time></trkpt><trkpt lat="45.876255" lon="9.5557517"><ele>728.0</ele><time>2026-05-03T08:19:05.369Z</time></trkpt><trkpt lat="45.8763333" lon="9.5556583"><ele>728.0</ele><time>2026-05-03T08:19:06.37Z</time></trkpt><trkpt lat="45.876435" lon="9.555585"><ele>728.0</ele><time>2026-05-03T08:19:07.369Z</time></trkpt><trkpt lat="45.8766" lon="9.5555417"><ele>728.0</ele><time>2026-05-03T08:19:08.37Z</time></trkpt><trkpt lat="45.8767683" lon="9.5554667"><ele>728.0</ele><time>2026-05-03T08:19:09.371Z</time></trkpt><trkpt lat="45.8768967" lon="9.5553933"><ele>728.0</ele><time>2026-05-03T08:19:10.37Z</time></trkpt><trkpt lat="45.8770417" lon="9.5553267"><ele>737.0</ele><time>2026-05-03T08:19:11.372Z</time></trkpt><trkpt lat="45.8772033" lon="9.5552867"><ele>746.0</ele><time>2026-05-03T08:19:12.372Z</time></trkpt><trkpt lat="45.87738" lon="9.5552767"><ele>755.0</ele><time>2026-05-03T08:19:13.37Z</time></trkpt><trkpt lat="45.8775733" lon="9.5553367"><ele>745.0</ele><time>2026-05-03T08:19:14.37Z</time></trkpt><trkpt lat="45.877725" lon="9.5554"><ele>735.0</ele><time>2026-05-03T08:19:15.369Z</time></trkpt><trkpt lat="45.87786" lon="9.5554533"><ele>725.0</ele><time>2026-05-03T08:19:16.37Z</time></trkpt><trkpt lat="45.8779967" lon="9.5554883"><ele>715.0</ele><time>2026-05-03T08:19:17.373Z</time></trkpt><trkpt lat="45.8781417" lon="9.5554833"><ele>715.0</ele><time>2026-05-03T08:19:18.37Z</time></trkpt><trkpt lat="45.8782783" lon="9.5554667"><ele>715.0</ele><time>2026-05-03T08:19:19.37Z</time></trkpt><trkpt lat="45.8784133" lon="9.5554267"><ele>715.0</ele><time>2026-05-03T08:19:20.369Z</time></trkpt><trkpt lat="45.8785367" lon="9.555365"><ele>715.0</ele><time>2026-05-03T08:19:21.37Z</time></trkpt><trkpt lat="45.8786467" lon="9.5553017"><ele>714.5</ele><time>2026-05-03T08:19:22.371Z</time></trkpt><trkpt lat="45.87875" lon="9.5552567"><ele>714.0</ele><time>2026-05-03T08:19:23.371Z</time></trkpt><trkpt lat="45.8788533" lon="9.5552467"><ele>713.5</ele><time>2026-05-03T08:19:24.37Z</time></trkpt><trkpt lat="45.8789583" lon="9.555325"><ele>713.0</ele><time>2026-05-03T08:19:25.369Z</time></trkpt><trkpt lat="45.8790567" lon="9.5554283"><ele>713.0</ele><time>2026-05-03T08:19:26.37Z</time></trkpt><trkpt lat="45.8791683" lon="9.5555067"><ele>713.0</ele><time>2026-05-03T08:19:27.369Z</time></trkpt><trkpt lat="45.879295" lon="9.5555617"><ele>713.0</ele><time>2026-05-03T08:19:28.371Z</time></trkpt><trkpt lat="45.8794233" lon="9.5556017"><ele>713.0</ele><time>2026-05-03T08:19:29.37Z</time></trkpt><trkpt lat="45.879545" lon="9.5556683"><ele>713.25</ele><time>2026-05-03T08:19:30.371Z</time></trkpt><trkpt lat="45.8796683" lon="9.5557583"><ele>713.5</ele><time>2026-05-03T08:19:31.369Z</time></trkpt><trkpt lat="45.8797833" lon="9.5558617"><ele>713.75</ele><time>2026-05-03T08:19:32.371Z</time></trkpt><trkpt lat="45.879885" lon="9.5559383"><ele>714.0</ele><time>2026-05-03T08:19:33.37Z</time></trkpt><trkpt lat="45.879975" lon="9.5559933"><ele>714.0</ele><time>2026-05-03T08:19:34.37Z</time></trkpt><trkpt lat="45.8800617" lon="9.556"><ele>714.0</ele><time>2026-05-03T08:19:35.37Z</time></trkpt><trkpt lat="45.880145" lon="9.555945"><ele>714.0</ele><time>2026-05-03T08:19:36.369Z</time></trkpt><trkpt lat="45.880205" lon="9.5558367"><ele>714.0</ele><time>2026-05-03T08:19:37.369Z</time></trkpt><trkpt lat="45.8802567" lon="9.555695"><ele>714.0</ele><time>2026-05-03T08:19:38.37Z</time></trkpt><trkpt lat="45.8802617" lon="9.5554817"><ele>703.6666666666666</ele><time>2026-05-03T08:19:39.371Z</time></trkpt><trkpt lat="45.88027" lon="9.5552383"><ele>693.3333333333333</ele><time>2026-05-03T08:19:40.371Z</time></trkpt><trkpt lat="45.8802967" lon="9.555"><ele>683.0</ele><time>2026-05-03T08:19:41.371Z</time></trkpt><trkpt lat="45.8803217" lon="9.5547483"><ele>685.0</ele><time>2026-05-03T08:19:42.373Z</time></trkpt><trkpt lat="45.88036" lon="9.5545067"><ele>687.0</ele><time>2026-05-03T08:19:43.371Z</time></trkpt><trkpt lat="45.8803617" lon="9.55428"><ele>689.0</ele><time>2026-05-03T08:19:44.371Z</time></trkpt><trkpt lat="45.8803467" lon="9.5540717"><ele>689.0</ele><time>2026-05-03T08:19:45.37Z</time></trkpt><trkpt lat="45.8803267" lon="9.5538867"><ele>689.0</ele><time>2026-05-03T08:19:46.369Z</time></trkpt><trkpt lat="45.8803117" lon="9.5536967"><ele>689.0</ele><time>2026-05-03T08:19:47.371Z</time></trkpt><trkpt lat="45.8802717" lon="9.5535017"><ele>689.0</ele><time>2026-05-03T08:19:48.37Z</time></trkpt><trkpt lat="45.8802167" lon="9.55328"><ele>688.0</ele><time>2026-05-03T08:19:49.37Z</time></trkpt><trkpt lat="45.8801483" lon="9.553055"><ele>687.0</ele><time>2026-05-03T08:19:50.371Z</time></trkpt><trkpt lat="45.8800817" lon="9.552845"><ele>686.0</ele><time>2026-05-03T08:19:51.371Z</time></trkpt><trkpt lat="45.880045" lon="9.5526583"><ele>687.0</ele><time>2026-05-03T08:19:52.37Z</time></trkpt><trkpt lat="45.8800217" lon="9.5524783"><ele>688.0</ele><time>2026-05-03T08:19:53.37Z</time></trkpt><trkpt lat="45.8800217" lon="9.5522883"><ele>689.0</ele><time>2026-05-03T08:19:54.371Z</time></trkpt><trkpt lat="45.8800517" lon="9.5520883"><ele>690.0</ele><time>2026-05-03T08:19:55.37Z</time></trkpt><trkpt lat="45.880125" lon="9.5518567"><ele>690.0</ele><time>2026-05-03T08:19:56.372Z</time></trkpt><trkpt lat="45.8802117" lon="9.55162"><ele>690.0</ele><time>2026-05-03T08:19:57.37Z</time></trkpt><trkpt lat="45.8802883" lon="9.55141"><ele>690.0</ele><time>2026-05-03T08:19:58.37Z</time></trkpt><trkpt lat="45.8803417" lon="9.5512233"><ele>692.25</ele><time>2026-05-03T08:19:59.37Z</time></trkpt><trkpt lat="45.8804033" lon="9.5510533"><ele>694.5</ele><time>2026-05-03T08:20:00.37Z</time></trkpt><trkpt lat="45.880485" lon="9.550895"><ele>696.75</ele><time>2026-05-03T08:20:01.37Z</time></trkpt><trkpt lat="45.8805967" lon="9.55075"><ele>699.0</ele><time>2026-05-03T08:20:02.374Z</time></trkpt><trkpt lat="45.8807283" lon="9.5506133"><ele>699.0</ele><time>2026-05-03T08:20:03.37Z</time></trkpt><trkpt lat="45.88084" lon="9.5504833"><ele>699.0</ele><time>2026-05-03T08:20:04.369Z</time></trkpt><trkpt lat="45.8809267" lon="9.5503367"><ele>699.0</ele><time>2026-05-03T08:20:05.37Z</time></trkpt><trkpt lat="45.8809717" lon="9.550175"><ele>699.0</ele><time>2026-05-03T08:20:06.372Z</time></trkpt><trkpt lat="45.88099" lon="9.5499817"><ele>696.6666666666666</ele><time>2026-05-03T08:20:07.372Z</time></trkpt><trkpt lat="45.8809833" lon="9.549745"><ele>694.3333333333333</ele><time>2026-05-03T08:20:08.374Z</time></trkpt><trkpt lat="45.880965" lon="9.5494867"><ele>692.0</ele><time>2026-05-03T08:20:09.369Z</time></trkpt><trkpt lat="45.8809733" lon="9.5492033"><ele>692.0</ele><time>2026-05-03T08:20:10.371Z</time></trkpt><trkpt lat="45.881005" lon="9.5488933"><ele>692.0</ele><time>2026-05-03T08:20:11.373Z</time></trkpt><trkpt lat="45.8810417" lon="9.5485917"><ele>692.0</ele><time>2026-05-03T08:20:12.372Z</time></trkpt><trkpt lat="45.8810667" lon="9.5483"><ele>693.0</ele><time>2026-05-03T08:20:13.373Z</time></trkpt><trkpt lat="45.8811033" lon="9.5480133"><ele>694.0</ele><time>2026-05-03T08:20:14.372Z</time></trkpt><trkpt lat="45.8811333" lon="9.5477417"><ele>695.0</ele><time>2026-05-03T08:20:15.373Z</time></trkpt><trkpt lat="45.88116" lon="9.5474867"><ele>695.0</ele><time>2026-05-03T08:20:16.373Z</time></trkpt><trkpt lat="45.88118" lon="9.547255"><ele>695.0</ele><time>2026-05-03T08:20:17.369Z</time></trkpt><trkpt lat="45.8812167" lon="9.5470367"><ele>695.0</ele><time>2026-05-03T08:20:18.37Z</time></trkpt><trkpt lat="45.8812667" lon="9.546815"><ele>695.3333333333333</ele><time>2026-05-03T08:20:19.37Z</time></trkpt><trkpt lat="45.8813417" lon="9.546575"><ele>695.6666666666666</ele><time>2026-05-03T08:20:20.37Z</time></trkpt><trkpt lat="45.8814217" lon="9.54631"><ele>696.0</ele><time>2026-05-03T08:20:21.37Z</time></trkpt><trkpt lat="45.8814917" lon="9.546025"><ele>694.0</ele><time>2026-05-03T08:20:22.37Z</time></trkpt><trkpt lat="45.881555" lon="9.5457517"><ele>692.0</ele><time>2026-05-03T08:20:23.371Z</time></trkpt><trkpt lat="45.8815983" lon="9.5455033"><ele>690.0</ele><time>2026-05-03T08:20:24.369Z</time></trkpt><trkpt lat="45.8816317" lon="9.5452867"><ele>690.0</ele><time>2026-05-03T08:20:25.371Z</time></trkpt><trkpt lat="45.88165" lon="9.5450833"><ele>690.0</ele><time>2026-05-03T08:20:26.373Z</time></trkpt><trkpt lat="45.8816383" lon="9.5448833"><ele>690.0</ele><time>2026-05-03T08:20:27.373Z</time></trkpt><trkpt lat="45.881605" lon="9.54468"><ele>690.0</ele><time>2026-05-03T08:20:28.373Z</time></trkpt><trkpt lat="45.881565" lon="9.54448"><ele>689.25</ele><time>2026-05-03T08:20:29.373Z</time></trkpt><trkpt lat="45.8815283" lon="9.5442933"><ele>688.5</ele><time>2026-05-03T08:20:30.372Z</time></trkpt><trkpt lat="45.8815117" lon="9.5441233"><ele>687.75</ele><time>2026-05-03T08:20:31.369Z</time></trkpt><trkpt lat="45.8815067" lon="9.5439683"><ele>687.0</ele><time>2026-05-03T08:20:32.371Z</time></trkpt><trkpt lat="45.8815267" lon="9.5438183"><ele>687.75</ele><time>2026-05-03T08:20:33.369Z</time></trkpt><trkpt lat="45.8815833" lon="9.5436567"><ele>688.5</ele><time>2026-05-03T08:20:34.37Z</time></trkpt><trkpt lat="45.8816433" lon="9.54347"><ele>689.25</ele><time>2026-05-03T08:20:35.369Z</time></trkpt><trkpt lat="45.881685" lon="9.5432683"><ele>690.0</ele><time>2026-05-03T08:20:36.369Z</time></trkpt><trkpt lat="45.8817433" lon="9.5430883"><ele>686.25</ele><time>2026-05-03T08:20:37.369Z</time></trkpt><trkpt lat="45.8818067" lon="9.5429233"><ele>682.5</ele><time>2026-05-03T08:20:38.371Z</time></trkpt><trkpt lat="45.8819033" lon="9.54277"><ele>678.75</ele><time>2026-05-03T08:20:39.37Z</time></trkpt><trkpt lat="45.88203" lon="9.5426183"><ele>675.0</ele><time>2026-05-03T08:20:40.37Z</time></trkpt><trkpt lat="45.8821817" lon="9.54247"><ele>675.0</ele><time>2026-05-03T08:20:41.371Z</time></trkpt><trkpt lat="45.8823417" lon="9.5423367"><ele>675.0</ele><time>2026-05-03T08:20:42.369Z</time></trkpt><trkpt lat="45.882505" lon="9.5422167"><ele>675.0</ele><time>2026-05-03T08:20:43.369Z</time></trkpt><trkpt lat="45.8826617" lon="9.5421183"><ele>673.25</ele><time>2026-05-03T08:20:44.37Z</time></trkpt><trkpt lat="45.8827983" lon="9.5420333"><ele>671.5</ele><time>2026-05-03T08:20:45.37Z</time></trkpt><trkpt lat="45.8829167" lon="9.5419533"><ele>669.75</ele><time>2026-05-03T08:20:46.37Z</time></trkpt><trkpt lat="45.8830183" lon="9.541855"><ele>668.0</ele><time>2026-05-03T08:20:47.369Z</time></trkpt><trkpt lat="45.883095" lon="9.5417167"><ele>668.0</ele><time>2026-05-03T08:20:48.371Z</time></trkpt><trkpt lat="45.8831617" lon="9.5415317"><ele>668.0</ele><time>2026-05-03T08:20:49.37Z</time></trkpt><trkpt lat="45.8832517" lon="9.5413667"><ele>668.0</ele><time>2026-05-03T08:20:50.37Z</time></trkpt><trkpt lat="45.8833417" lon="9.54122"><ele>668.0</ele><time>2026-05-03T08:20:51.37Z</time></trkpt><trkpt lat="45.8834317" lon="9.541085"><ele>670.5</ele><time>2026-05-03T08:20:52.37Z</time></trkpt><trkpt lat="45.8835483" lon="9.540975"><ele>673.0</ele><time>2026-05-03T08:20:53.369Z</time></trkpt><trkpt lat="45.8836467" lon="9.5408833"><ele>675.5</ele><time>2026-05-03T08:20:54.37Z</time></trkpt><trkpt lat="45.8837333" lon="9.5407983"><ele>678.0</ele><time>2026-05-03T08:20:55.372Z</time></trkpt><trkpt lat="45.8838167" lon="9.5407333"><ele>678.0</ele><time>2026-05-03T08:20:56.37Z</time></trkpt><trkpt lat="45.8839033" lon="9.5406783"><ele>678.0</ele><time>2026-05-03T08:20:57.37Z</time></trkpt><trkpt lat="45.8839783" lon="9.5406817"><ele>678.0</ele><time>2026-05-03T08:20:58.372Z</time></trkpt><trkpt lat="45.8840617" lon="9.5406933"><ele>678.0</ele><time>2026-05-03T08:20:59.373Z</time></trkpt><trkpt lat="45.884135" lon="9.540725"><ele>678.0</ele><time>2026-05-03T08:21:00.371Z</time></trkpt><trkpt lat="45.8842133" lon="9.540745"><ele>678.0</ele><time>2026-05-03T08:21:01.37Z</time></trkpt><trkpt lat="45.884285" lon="9.5407483"><ele>675.2</ele><time>2026-05-03T08:21:02.371Z</time></trkpt><trkpt lat="45.8843567" lon="9.5407533"><ele>672.4</ele><time>2026-05-03T08:21:03.371Z</time></trkpt><trkpt lat="45.884445" lon="9.54075"><ele>669.6</ele><time>2026-05-03T08:21:04.372Z</time></trkpt><trkpt lat="45.8845383" lon="9.5407417"><ele>666.8000000000001</ele><time>2026-05-03T08:21:05.37Z</time></trkpt><trkpt lat="45.8846517" lon="9.5406867"><ele>664.0</ele><time>2026-05-03T08:21:06.371Z</time></trkpt><trkpt lat="45.88477" lon="9.5406033"><ele>664.0</ele><time>2026-05-03T08:21:07.371Z</time></trkpt><trkpt lat="45.8849083" lon="9.5405183"><ele>664.0</ele><time>2026-05-03T08:21:08.371Z</time></trkpt><trkpt lat="45.885085" lon="9.5404467"><ele>664.0</ele><time>2026-05-03T08:21:09.37Z</time></trkpt><trkpt lat="45.8852533" lon="9.540395"><ele>667.75</ele><time>2026-05-03T08:21:10.37Z</time></trkpt><trkpt lat="45.885405" lon="9.540345"><ele>671.5</ele><time>2026-05-03T08:21:11.37Z</time></trkpt><trkpt lat="45.88554" lon="9.5402883"><ele>675.25</ele><time>2026-05-03T08:21:12.37Z</time></trkpt><trkpt lat="45.8856517" lon="9.5402433"><ele>679.0</ele><time>2026-05-03T08:21:13.371Z</time></trkpt><trkpt lat="45.885745" lon="9.54025"><ele>679.0</ele><time>2026-05-03T08:21:14.371Z</time></trkpt><trkpt lat="45.8858217" lon="9.5403"><ele>679.0</ele><time>2026-05-03T08:21:15.373Z</time></trkpt><trkpt lat="45.885885" lon="9.5403767"><ele>679.0</ele><time>2026-05-03T08:21:16.373Z</time></trkpt><trkpt lat="45.8859217" lon="9.54051"><ele>679.0</ele><time>2026-05-03T08:21:17.37Z</time></trkpt><trkpt lat="45.885955" lon="9.5406717"><ele>679.0</ele><time>2026-05-03T08:21:18.371Z</time></trkpt><trkpt lat="45.8859783" lon="9.540845"><ele>677.6666666666667</ele><time>2026-05-03T08:21:19.37Z</time></trkpt><trkpt lat="45.885975" lon="9.54102"><ele>676.3333333333334</ele><time>2026-05-03T08:21:20.371Z</time></trkpt><trkpt lat="45.8858867" lon="9.54123"><ele>675.0</ele><time>2026-05-03T08:21:21.37Z</time></trkpt><trkpt lat="45.8857683" lon="9.54145"><ele>672.6666666666666</ele><time>2026-05-03T08:21:22.371Z</time></trkpt><trkpt lat="45.8856433" lon="9.5416633"><ele>670.3333333333333</ele><time>2026-05-03T08:21:23.37Z</time></trkpt><trkpt lat="45.8855" lon="9.54188"><ele>668.0</ele><time>2026-05-03T08:21:24.372Z</time></trkpt><trkpt lat="45.8853883" lon="9.5420583"><ele>666.25</ele><time>2026-05-03T08:21:25.369Z</time></trkpt><trkpt lat="45.8852667" lon="9.5421983"><ele>664.5</ele><time>2026-05-03T08:21:26.371Z</time></trkpt><trkpt lat="45.88514" lon="9.5422967"><ele>662.75</ele><time>2026-05-03T08:21:27.37Z</time></trkpt><trkpt lat="45.8850217" lon="9.542345"><ele>661.0</ele><time>2026-05-03T08:21:28.374Z</time></trkpt><trkpt lat="45.8849267" lon="9.5423733"><ele>661.0</ele><time>2026-05-03T08:21:29.371Z</time></trkpt><trkpt lat="45.8848583" lon="9.5424217"><ele>661.0</ele><time>2026-05-03T08:21:30.372Z</time></trkpt><trkpt lat="45.8848017" lon="9.542475"><ele>661.0</ele><time>2026-05-03T08:21:31.372Z</time></trkpt><trkpt lat="45.88478" lon="9.54256"><ele>661.0</ele><time>2026-05-03T08:21:32.374Z</time></trkpt><trkpt lat="45.8848167" lon="9.54267"><ele>661.0</ele><time>2026-05-03T08:21:33.372Z</time></trkpt><trkpt lat="45.8848917" lon="9.5428167"><ele>661.0</ele><time>2026-05-03T08:21:34.371Z</time></trkpt><trkpt lat="45.8849617" lon="9.5429983"><ele>662.6666666666667</ele><time>2026-05-03T08:21:35.372Z</time></trkpt><trkpt lat="45.8850067" lon="9.5432033"><ele>664.3333333333334</ele><time>2026-05-03T08:21:36.37Z</time></trkpt><trkpt lat="45.885055" lon="9.5434267"><ele>666.0</ele><time>2026-05-03T08:21:37.374Z</time></trkpt><trkpt lat="45.88511" lon="9.5436617"><ele>679.0</ele><time>2026-05-03T08:21:38.373Z</time></trkpt><trkpt lat="45.8851817" lon="9.5438867"><ele>692.0</ele><time>2026-05-03T08:21:39.373Z</time></trkpt><trkpt lat="45.8852533" lon="9.54409"><ele>705.0</ele><time>2026-05-03T08:21:40.373Z</time></trkpt><trkpt lat="45.88531" lon="9.544295"><ele>705.0</ele><time>2026-05-03T08:21:41.372Z</time></trkpt><trkpt lat="45.8853383" lon="9.5445233"><ele>705.0</ele><time>2026-05-03T08:21:42.37Z</time></trkpt><trkpt lat="45.8853433" lon="9.54479"><ele>705.0</ele><time>2026-05-03T08:21:43.372Z</time></trkpt><trkpt lat="45.8853267" lon="9.5450883"><ele>708.6666666666666</ele><time>2026-05-03T08:21:44.37Z</time></trkpt><trkpt lat="45.8853" lon="9.54539"><ele>712.3333333333333</ele><time>2026-05-03T08:21:45.37Z</time></trkpt><trkpt lat="45.885265" lon="9.545665"><ele>716.0</ele><time>2026-05-03T08:21:46.37Z</time></trkpt><trkpt lat="45.8852183" lon="9.5459083"><ele>716.0</ele><time>2026-05-03T08:21:47.371Z</time></trkpt><trkpt lat="45.8851583" lon="9.5461117"><ele>716.0</ele><time>2026-05-03T08:21:48.371Z</time></trkpt><trkpt lat="45.885075" lon="9.5462633"><ele>716.0</ele><time>2026-05-03T08:21:49.37Z</time></trkpt><trkpt lat="45.884955" lon="9.5463717"><ele>716.0</ele><time>2026-05-03T08:21:50.37Z</time></trkpt><trkpt lat="45.8848183" lon="9.54644"><ele>709.75</ele><time>2026-05-03T08:21:51.369Z</time></trkpt><trkpt lat="45.8846917" lon="9.546505"><ele>703.5</ele><time>2026-05-03T08:21:52.369Z</time></trkpt><trkpt lat="45.8845867" lon="9.5465883"><ele>697.25</ele><time>2026-05-03T08:21:53.371Z</time></trkpt><trkpt lat="45.8845083" lon="9.5467"><ele>691.0</ele><time>2026-05-03T08:21:54.372Z</time></trkpt><trkpt lat="45.8844517" lon="9.5468383"><ele>691.0</ele><time>2026-05-03T08:21:55.373Z</time></trkpt><trkpt lat="45.8844317" lon="9.5470167"><ele>691.0</ele><time>2026-05-03T08:21:56.373Z</time></trkpt><trkpt lat="45.8844367" lon="9.54722"><ele>691.0</ele><time>2026-05-03T08:21:57.372Z</time></trkpt><trkpt lat="45.8844633" lon="9.5474117"><ele>691.0</ele><time>2026-05-03T08:21:58.373Z</time></trkpt><trkpt lat="45.8845217" lon="9.5475717"><ele>690.0</ele><time>2026-05-03T08:21:59.374Z</time></trkpt><trkpt lat="45.8846167" lon="9.5477233"><ele>689.0</ele><time>2026-05-03T08:22:00.374Z</time></trkpt><trkpt lat="45.884745" lon="9.54787"><ele>688.0</ele><time>2026-05-03T08:22:01.374Z</time></trkpt><trkpt lat="45.884895" lon="9.5480067"><ele>688.0</ele><time>2026-05-03T08:22:02.374Z</time></trkpt><trkpt lat="45.885055" lon="9.5481267"><ele>688.0</ele><time>2026-05-03T08:22:03.372Z</time></trkpt><trkpt lat="45.8851983" lon="9.548245"><ele>688.0</ele><time>2026-05-03T08:22:04.374Z</time></trkpt><trkpt lat="45.8853117" lon="9.5483617"><ele>692.25</ele><time>2026-05-03T08:22:05.373Z</time></trkpt><trkpt lat="45.8853883" lon="9.5484833"><ele>696.5</ele><time>2026-05-03T08:22:06.373Z</time></trkpt><trkpt lat="45.8854283" lon="9.548625"><ele>700.75</ele><time>2026-05-03T08:22:07.372Z</time></trkpt><trkpt lat="45.88545" lon="9.5487933"><ele>705.0</ele><time>2026-05-03T08:22:08.37Z</time></trkpt><trkpt lat="45.885485" lon="9.5489883"><ele>705.0</ele><time>2026-05-03T08:22:09.374Z</time></trkpt><trkpt lat="45.8855533" lon="9.5491983"><ele>705.0</ele><time>2026-05-03T08:22:10.374Z</time></trkpt><trkpt lat="45.8856483" lon="9.5493983"><ele>705.0</ele><time>2026-05-03T08:22:11.373Z</time></trkpt><trkpt lat="45.8857467" lon="9.549575"><ele>702.75</ele><time>2026-05-03T08:22:12.373Z</time></trkpt><trkpt lat="45.8858467" lon="9.5497067"><ele>700.5</ele><time>2026-05-03T08:22:13.372Z</time></trkpt><trkpt lat="45.8859483" lon="9.5498067"><ele>698.25</ele><time>2026-05-03T08:22:14.373Z</time></trkpt><trkpt lat="45.8860533" lon="9.5498717"><ele>696.0</ele><time>2026-05-03T08:22:15.373Z</time></trkpt><trkpt lat="45.8861617" lon="9.5498867"><ele>701.0</ele><time>2026-05-03T08:22:16.375Z</time></trkpt><trkpt lat="45.8862833" lon="9.54985"><ele>706.0</ele><time>2026-05-03T08:22:17.37Z</time></trkpt><trkpt lat="45.886405" lon="9.54978"><ele>711.0</ele><time>2026-05-03T08:22:18.371Z</time></trkpt><trkpt lat="45.8865117" lon="9.549735"><ele>716.0</ele><time>2026-05-03T08:22:19.371Z</time></trkpt><trkpt lat="45.8866067" lon="9.54974"><ele>716.0</ele><time>2026-05-03T08:22:20.371Z</time></trkpt><trkpt lat="45.8866967" lon="9.5497883"><ele>716.0</ele><time>2026-05-03T08:22:21.371Z</time></trkpt><trkpt lat="45.88674" lon="9.5499017"><ele>716.0</ele><time>2026-05-03T08:22:22.374Z</time></trkpt><trkpt lat="45.8867483" lon="9.5500483"><ele>716.0</ele><time>2026-05-03T08:22:23.37Z</time></trkpt><trkpt lat="45.8867033" lon="9.5502183"><ele>716.0</ele><time>2026-05-03T08:22:24.371Z</time></trkpt><trkpt lat="45.8866383" lon="9.5503783"><ele>716.0</ele><time>2026-05-03T08:22:25.37Z</time></trkpt><trkpt lat="45.88656" lon="9.5505"><ele>716.0</ele><time>2026-05-03T08:22:26.374Z</time></trkpt><trkpt lat="45.88645" lon="9.550595"><ele>716.0</ele><time>2026-05-03T08:22:27.373Z</time></trkpt><trkpt lat="45.8863433" lon="9.55068"><ele>716.0</ele><time>2026-05-03T08:22:28.37Z</time></trkpt><trkpt lat="45.8862617" lon="9.5507767"><ele>716.0</ele><time>2026-05-03T08:22:29.373Z</time></trkpt><trkpt lat="45.8862067" lon="9.5508883"><ele>716.0</ele><time>2026-05-03T08:22:30.373Z</time></trkpt><trkpt lat="45.8861817" lon="9.5510133"><ele>716.0</ele><time>2026-05-03T08:22:31.37Z</time></trkpt><trkpt lat="45.886185" lon="9.55115"><ele>716.0</ele><time>2026-05-03T08:22:32.375Z</time></trkpt><trkpt lat="45.8862167" lon="9.5512883"><ele>716.0</ele><time>2026-05-03T08:22:33.369Z</time></trkpt><trkpt lat="45.8863933" lon="9.55141"><ele>717.6666666666666</ele><time>2026-05-03T08:22:34.369Z</time></trkpt><trkpt lat="45.8865733" lon="9.55151"><ele>719.3333333333334</ele><time>2026-05-03T08:22:35.37Z</time></trkpt><trkpt lat="45.886685" lon="9.551635"><ele>721.0</ele><time>2026-05-03T08:22:36.371Z</time></trkpt><trkpt lat="45.8867933" lon="9.5517467"><ele>721.0</ele><time>2026-05-03T08:22:37.374Z</time></trkpt><trkpt lat="45.8868817" lon="9.5518067"><ele>721.0</ele><time>2026-05-03T08:22:38.373Z</time></trkpt><trkpt lat="45.88697" lon="9.5518367"><ele>721.0</ele><time>2026-05-03T08:22:39.374Z</time></trkpt><trkpt lat="45.8870583" lon="9.55182"><ele>721.0</ele><time>2026-05-03T08:22:40.373Z</time></trkpt><trkpt lat="45.887145" lon="9.5518"><ele>721.0</ele><time>2026-05-03T08:22:41.374Z</time></trkpt><trkpt lat="45.88724" lon="9.5517433"><ele>721.0</ele><time>2026-05-03T08:22:42.369Z</time></trkpt><trkpt lat="45.88735" lon="9.5516383"><ele>721.0</ele><time>2026-05-03T08:22:43.372Z</time></trkpt><trkpt lat="45.88747" lon="9.5514833"><ele>721.0</ele><time>2026-05-03T08:22:44.371Z</time></trkpt><trkpt lat="45.8875417" lon="9.5513433"><ele>721.0</ele><time>2026-05-03T08:22:45.37Z</time></trkpt><trkpt lat="45.8876267" lon="9.55122"><ele>728.25</ele><time>2026-05-03T08:22:46.371Z</time></trkpt><trkpt lat="45.88774" lon="9.5510983"><ele>735.5</ele><time>2026-05-03T08:22:47.371Z</time></trkpt><trkpt lat="45.8878517" lon="9.5510733"><ele>742.75</ele><time>2026-05-03T08:22:48.37Z</time></trkpt><trkpt lat="45.8879667" lon="9.5511133"><ele>750.0</ele><time>2026-05-03T08:22:49.37Z</time></trkpt><trkpt lat="45.88809" lon="9.5511883"><ele>747.8</ele><time>2026-05-03T08:22:50.372Z</time></trkpt><trkpt lat="45.8882033" lon="9.5512217"><ele>745.6</ele><time>2026-05-03T08:22:51.37Z</time></trkpt><trkpt lat="45.88832" lon="9.5512167"><ele>743.4000000000001</ele><time>2026-05-03T08:22:52.37Z</time></trkpt><trkpt lat="45.8884333" lon="9.5512033"><ele>741.2</ele><time>2026-05-03T08:22:53.371Z</time></trkpt><trkpt lat="45.888525" lon="9.5512117"><ele>739.0</ele><time>2026-05-03T08:22:54.371Z</time></trkpt><trkpt lat="45.8886033" lon="9.5512483"><ele>745.0</ele><time>2026-05-03T08:22:55.372Z</time></trkpt><trkpt lat="45.88865" lon="9.5513283"><ele>751.0</ele><time>2026-05-03T08:22:56.371Z</time></trkpt><trkpt lat="45.8886483" lon="9.5515083"><ele>757.0</ele><time>2026-05-03T08:22:58.371Z</time></trkpt><trkpt lat="45.8885783" lon="9.5516433"><ele>763.0</ele><time>2026-05-03T08:22:59.37Z</time></trkpt><trkpt lat="45.88849" lon="9.5518167"><ele>754.6666666666667</ele><time>2026-05-03T08:23:00.373Z</time></trkpt><trkpt lat="45.8884067" lon="9.5520467"><ele>746.3333333333334</ele><time>2026-05-03T08:23:01.372Z</time></trkpt><trkpt lat="45.8883667" lon="9.5523083"><ele>738.0</ele><time>2026-05-03T08:23:02.37Z</time></trkpt><trkpt lat="45.888375" lon="9.5525617"><ele>738.0</ele><time>2026-05-03T08:23:03.37Z</time></trkpt><trkpt lat="45.8884033" lon="9.5527783"><ele>738.0</ele><time>2026-05-03T08:23:04.371Z</time></trkpt><trkpt lat="45.888425" lon="9.5529717"><ele>738.0</ele><time>2026-05-03T08:23:05.371Z</time></trkpt><trkpt lat="45.8884433" lon="9.55313"><ele>738.0</ele><time>2026-05-03T08:23:06.37Z</time></trkpt><trkpt lat="45.88846" lon="9.5532717"><ele>739.75</ele><time>2026-05-03T08:23:07.37Z</time></trkpt><trkpt lat="45.8884883" lon="9.5534167"><ele>741.5</ele><time>2026-05-03T08:23:08.373Z</time></trkpt><trkpt lat="45.8885433" lon="9.553575"><ele>743.25</ele><time>2026-05-03T08:23:09.373Z</time></trkpt><trkpt lat="45.8886367" lon="9.553745"><ele>745.0</ele><time>2026-05-03T08:23:10.372Z</time></trkpt><trkpt lat="45.8887467" lon="9.553915"><ele>745.0</ele><time>2026-05-03T08:23:11.372Z</time></trkpt><trkpt lat="45.8888617" lon="9.5540933"><ele>745.0</ele><time>2026-05-03T08:23:12.369Z</time></trkpt><trkpt lat="45.8889833" lon="9.5542817"><ele>745.0</ele><time>2026-05-03T08:23:13.369Z</time></trkpt><trkpt lat="45.8891117" lon="9.5544567"><ele>743.75</ele><time>2026-05-03T08:23:14.375Z</time></trkpt><trkpt lat="45.8892467" lon="9.5545967"><ele>742.5</ele><time>2026-05-03T08:23:15.37Z</time></trkpt><trkpt lat="45.8893717" lon="9.554705"><ele>741.25</ele><time>2026-05-03T08:23:16.37Z</time></trkpt><trkpt lat="45.889475" lon="9.5547983"><ele>740.0</ele><time>2026-05-03T08:23:17.37Z</time></trkpt><trkpt lat="45.88955" lon="9.5548833"><ele>745.6</ele><time>2026-05-03T08:23:18.37Z</time></trkpt><trkpt lat="45.889605" lon="9.55498"><ele>751.2</ele><time>2026-05-03T08:23:19.369Z</time></trkpt><trkpt lat="45.889625" lon="9.5551117"><ele>756.8</ele><time>2026-05-03T08:23:20.372Z</time></trkpt><trkpt lat="45.8896383" lon="9.555265"><ele>762.4</ele><time>2026-05-03T08:23:21.368Z</time></trkpt><trkpt lat="45.889635" lon="9.5554133"><ele>768.0</ele><time>2026-05-03T08:23:22.37Z</time></trkpt><trkpt lat="45.8896183" lon="9.55553"><ele>770.4</ele><time>2026-05-03T08:23:23.369Z</time></trkpt><trkpt lat="45.8895767" lon="9.5556333"><ele>772.8</ele><time>2026-05-03T08:23:24.369Z</time></trkpt><trkpt lat="45.8895083" lon="9.5557183"><ele>775.2</ele><time>2026-05-03T08:23:25.372Z</time></trkpt><trkpt lat="45.8893983" lon="9.5557633"><ele>777.6</ele><time>2026-05-03T08:23:26.372Z</time></trkpt><trkpt lat="45.8892533" lon="9.55582"><ele>780.0</ele><time>2026-05-03T08:23:27.373Z</time></trkpt><trkpt lat="45.889115" lon="9.5558967"><ele>773.0</ele><time>2026-05-03T08:23:28.369Z</time></trkpt><trkpt lat="45.8889767" lon="9.5559567"><ele>766.0</ele><time>2026-05-03T08:23:29.372Z</time></trkpt><trkpt lat="45.88885" lon="9.556"><ele>759.0</ele><time>2026-05-03T08:23:30.372Z</time></trkpt><trkpt lat="45.8887517" lon="9.5560767"><ele>752.0</ele><time>2026-05-03T08:23:31.373Z</time></trkpt><trkpt lat="45.8886733" lon="9.5561967"><ele>752.0</ele><time>2026-05-03T08:23:32.371Z</time></trkpt><trkpt lat="45.8885983" lon="9.55634"><ele>752.0</ele><time>2026-05-03T08:23:33.371Z</time></trkpt><trkpt lat="45.888515" lon="9.5564933"><ele>752.0</ele><time>2026-05-03T08:23:34.373Z</time></trkpt><trkpt lat="45.8884367" lon="9.556645"><ele>752.0</ele><time>2026-05-03T08:23:35.373Z</time></trkpt><trkpt lat="45.8883733" lon="9.5567983"><ele>752.0</ele><time>2026-05-03T08:23:36.372Z</time></trkpt><trkpt lat="45.8883317" lon="9.55697"><ele>752.0</ele><time>2026-05-03T08:23:37.372Z</time></trkpt><trkpt lat="45.8883" lon="9.55715"><ele>752.0</ele><time>2026-05-03T08:23:38.369Z</time></trkpt><trkpt lat="45.88827" lon="9.5573333"><ele>752.0</ele><time>2026-05-03T08:23:39.37Z</time></trkpt><trkpt lat="45.8882333" lon="9.557515"><ele>755.25</ele><time>2026-05-03T08:23:40.371Z</time></trkpt><trkpt lat="45.8881917" lon="9.5576933"><ele>758.5</ele><time>2026-05-03T08:23:41.372Z</time></trkpt><trkpt lat="45.8881467" lon="9.55786"><ele>761.75</ele><time>2026-05-03T08:23:42.372Z</time></trkpt><trkpt lat="45.8880883" lon="9.5580083"><ele>765.0</ele><time>2026-05-03T08:23:43.373Z</time></trkpt><trkpt lat="45.8880133" lon="9.5581333"><ele>767.8</ele><time>2026-05-03T08:23:44.372Z</time></trkpt><trkpt lat="45.88793" lon="9.5582383"><ele>770.6</ele><time>2026-05-03T08:23:45.372Z</time></trkpt><trkpt lat="45.8878417" lon="9.55833"><ele>773.4000000000001</ele><time>2026-05-03T08:23:46.373Z</time></trkpt><trkpt lat="45.8877567" lon="9.5584117"><ele>776.2</ele><time>2026-05-03T08:23:47.369Z</time></trkpt><trkpt lat="45.8876783" lon="9.5584817"><ele>779.0</ele><time>2026-05-03T08:23:48.37Z</time></trkpt><trkpt lat="45.8876117" lon="9.55856"><ele>778.0000000000001</ele><time>2026-05-03T08:23:49.369Z</time></trkpt><trkpt lat="45.8875633" lon="9.5586533"><ele>777.0</ele><time>2026-05-03T08:23:50.371Z</time></trkpt><trkpt lat="45.88752" lon="9.558755"><ele>776.0</ele><time>2026-05-03T08:23:51.369Z</time></trkpt><trkpt lat="45.887475" lon="9.5588583"><ele>775.0</ele><time>2026-05-03T08:23:52.371Z</time></trkpt><trkpt lat="45.8874267" lon="9.55896"><ele>774.0000000000001</ele><time>2026-05-03T08:23:53.37Z</time></trkpt><trkpt lat="45.8873767" lon="9.5590683"><ele>773.0</ele><time>2026-05-03T08:23:54.373Z</time></trkpt><trkpt lat="45.887325" lon="9.55918"><ele>773.0</ele><time>2026-05-03T08:23:55.369Z</time></trkpt><trkpt lat="45.8872683" lon="9.5592933"><ele>773.0</ele><time>2026-05-03T08:23:56.372Z</time></trkpt><trkpt lat="45.8872017" lon="9.559405"><ele>773.0</ele><time>2026-05-03T08:23:57.372Z</time></trkpt><trkpt lat="45.8871333" lon="9.5595283"><ele>773.0</ele><time>2026-05-03T08:23:58.372Z</time></trkpt><trkpt lat="45.8870583" lon="9.5596483"><ele>773.0</ele><time>2026-05-03T08:23:59.372Z</time></trkpt><trkpt lat="45.8869883" lon="9.5597567"><ele>772.2</ele><time>2026-05-03T08:24:00.368Z</time></trkpt><trkpt lat="45.8869317" lon="9.5598533"><ele>771.4</ele><time>2026-05-03T08:24:01.37Z</time></trkpt><trkpt lat="45.886885" lon="9.55993"><ele>770.6</ele><time>2026-05-03T08:24:02.373Z</time></trkpt><trkpt lat="45.8868083" lon="9.559985"><ele>769.8000000000001</ele><time>2026-05-03T08:24:04.37Z</time></trkpt><trkpt lat="45.8867683" lon="9.5598567"><ele>769.0</ele><time>2026-05-03T08:24:06.37Z</time></trkpt><trkpt lat="45.88668" lon="9.5597667"><ele>769.0</ele><time>2026-05-03T08:24:08.373Z</time></trkpt><trkpt lat="45.8866083" lon="9.5597567"><ele>769.0</ele><time>2026-05-03T08:24:09.373Z</time></trkpt><trkpt lat="45.8865433" lon="9.5597683"><ele>769.0</ele><time>2026-05-03T08:24:10.372Z</time></trkpt><trkpt lat="45.886425" lon="9.559805"><ele>769.0</ele><time>2026-05-03T08:24:12.372Z</time></trkpt><trkpt lat="45.88633" lon="9.559915"><ele>769.0</ele><time>2026-05-03T08:24:14.373Z</time></trkpt><trkpt lat="45.886275" lon="9.559985"><ele>768.9999999999999</ele><time>2026-05-03T08:24:15.372Z</time></trkpt><trkpt lat="45.8862133" lon="9.56006"><ele>769.0</ele><time>2026-05-03T08:24:16.372Z</time></trkpt><trkpt lat="45.8861533" lon="9.5601383"><ele>769.0</ele><time>2026-05-03T08:24:17.37Z</time></trkpt><trkpt lat="45.8861033" lon="9.560225"><ele>769.0</ele><time>2026-05-03T08:24:18.37Z</time></trkpt><trkpt lat="45.8860667" lon="9.5603167"><ele>768.9999999999999</ele><time>2026-05-03T08:24:19.37Z</time></trkpt><trkpt lat="45.8860467" lon="9.5604133"><ele>769.0</ele><time>2026-05-03T08:24:20.372Z</time></trkpt><trkpt lat="45.886045" lon="9.560515"><ele>771.1666666666666</ele><time>2026-05-03T08:24:21.37Z</time></trkpt><trkpt lat="45.8860517" lon="9.5606133"><ele>773.3333333333333</ele><time>2026-05-03T08:24:22.372Z</time></trkpt><trkpt lat="45.8860617" lon="9.56071"><ele>775.5</ele><time>2026-05-03T08:24:23.37Z</time></trkpt><trkpt lat="45.886045" lon="9.5608117"><ele>777.6666666666667</ele><time>2026-05-03T08:24:24.37Z</time></trkpt><trkpt lat="45.886015" lon="9.5609233"><ele>779.8333333333334</ele><time>2026-05-03T08:24:25.37Z</time></trkpt><trkpt lat="45.8859367" lon="9.56103"><ele>782.0</ele><time>2026-05-03T08:24:26.373Z</time></trkpt><trkpt lat="45.8858717" lon="9.5611367"><ele>780.0000000000001</ele><time>2026-05-03T08:24:27.372Z</time></trkpt><trkpt lat="45.8858217" lon="9.5612417"><ele>778.0</ele><time>2026-05-03T08:24:28.369Z</time></trkpt><trkpt lat="45.8857717" lon="9.5613433"><ele>776.0</ele><time>2026-05-03T08:24:29.37Z</time></trkpt><trkpt lat="45.8857233" lon="9.561435"><ele>774.0</ele><time>2026-05-03T08:24:30.369Z</time></trkpt><trkpt lat="45.88567" lon="9.5615067"><ele>772.0000000000001</ele><time>2026-05-03T08:24:31.37Z</time></trkpt><trkpt lat="45.8856183" lon="9.5615583"><ele>770.0</ele><time>2026-05-03T08:24:32.373Z</time></trkpt><trkpt lat="45.885555" lon="9.56159"><ele>770.0000000000001</ele><time>2026-05-03T08:24:33.373Z</time></trkpt><trkpt lat="45.8854917" lon="9.5616183"><ele>770.0</ele><time>2026-05-03T08:24:34.372Z</time></trkpt><trkpt lat="45.88543" lon="9.5616483"><ele>770.0</ele><time>2026-05-03T08:24:35.373Z</time></trkpt><trkpt lat="45.8853733" lon="9.5616883"><ele>770.0</ele><time>2026-05-03T08:24:36.372Z</time></trkpt><trkpt lat="45.8852633" lon="9.5617583"><ele>770.0000000000001</ele><time>2026-05-03T08:24:38.373Z</time></trkpt><trkpt lat="45.8851783" lon="9.5618583"><ele>770.0</ele><time>2026-05-03T08:24:40.373Z</time></trkpt><trkpt lat="45.8851533" lon="9.5620067"><ele>771.75</ele><time>2026-05-03T08:24:42.372Z</time></trkpt><trkpt lat="45.8851433" lon="9.5621717"><ele>773.5</ele><time>2026-05-03T08:24:44.369Z</time></trkpt><trkpt lat="45.88515" lon="9.5623467"><ele>775.25</ele><time>2026-05-03T08:24:46.373Z</time></trkpt><trkpt lat="45.885185" lon="9.56249"><ele>777.0</ele><time>2026-05-03T08:24:48.37Z</time></trkpt><trkpt lat="45.8852183" lon="9.56264"><ele>777.0</ele><time>2026-05-03T08:24:50.372Z</time></trkpt><trkpt lat="45.88524" lon="9.56277"><ele>777.0</ele><time>2026-05-03T08:24:52.376Z</time></trkpt><trkpt lat="45.8852483" lon="9.5628983"><ele>777.0</ele><time>2026-05-03T08:24:54.372Z</time></trkpt><trkpt lat="45.88524" lon="9.5630867"><ele>777.0</ele><time>2026-05-03T08:24:56.373Z</time></trkpt><trkpt lat="45.8852167" lon="9.56324"><ele>777.0</ele><time>2026-05-03T08:24:58.373Z</time></trkpt><trkpt lat="45.8852567" lon="9.5633267"><ele>777.8</ele><time>2026-05-03T08:25:01.372Z</time></trkpt><trkpt lat="45.8853533" lon="9.5632417"><ele>778.6</ele><time>2026-05-03T08:25:04.37Z</time></trkpt><trkpt lat="45.8853933" lon="9.563165"><ele>779.4</ele><time>2026-05-03T08:25:05.373Z</time></trkpt><trkpt lat="45.88545" lon="9.563025"><ele>780.1999999999999</ele><time>2026-05-03T08:25:07.372Z</time></trkpt><trkpt lat="45.8854883" lon="9.5629367"><ele>781.0</ele><time>2026-05-03T08:25:09.372Z</time></trkpt><trkpt lat="45.8853717" lon="9.5628967"><ele>780.9999999999999</ele><time>2026-05-03T08:26:48.522Z</time></trkpt><trkpt lat="45.8854617" lon="9.56288"><ele>781.0</ele><time>2026-05-03T08:26:55.369Z</time></trkpt><trkpt lat="45.8854267" lon="9.56296"><ele>781.0</ele><time>2026-05-03T08:27:16.37Z</time></trkpt><trkpt lat="45.8853833" lon="9.563065"><ele>781.0</ele><time>2026-05-03T08:27:18.37Z</time></trkpt><trkpt lat="45.8853183" lon="9.5631917"><ele>780.9999999999999</ele><time>2026-05-03T08:27:20.371Z</time></trkpt><trkpt lat="45.8852633" lon="9.5632917"><ele>781.0</ele><time>2026-05-03T08:27:22.369Z</time></trkpt><trkpt lat="45.8852183" lon="9.5632133"><ele>780.9999999999999</ele><time>2026-05-03T08:27:27.371Z</time></trkpt><trkpt lat="45.8852317" lon="9.563095"><ele>781.0</ele><time>2026-05-03T08:27:29.372Z</time></trkpt><trkpt lat="45.8852467" lon="9.5629767"><ele>781.0</ele><time>2026-05-03T08:27:31.369Z</time></trkpt><trkpt lat="45.88526" lon="9.5628783"><ele>781.0</ele><time>2026-05-03T08:27:34.37Z</time></trkpt><trkpt lat="45.8852683" lon="9.5627617"><ele>780.9999999999999</ele><time>2026-05-03T08:27:36.37Z</time></trkpt><trkpt lat="45.8852533" lon="9.5626733"><ele>781.0</ele><time>2026-05-03T08:27:37.369Z</time></trkpt><trkpt lat="45.8852383" lon="9.5625717"><ele>780.1999999999999</ele><time>2026-05-03T08:27:38.37Z</time></trkpt><trkpt lat="45.885225" lon="9.5624733"><ele>779.4</ele><time>2026-05-03T08:27:39.37Z</time></trkpt><trkpt lat="45.8852067" lon="9.562385"><ele>778.6</ele><time>2026-05-03T08:27:40.37Z</time></trkpt><trkpt lat="45.8851883" lon="9.562215"><ele>777.8</ele><time>2026-05-03T08:27:42.37Z</time></trkpt><trkpt lat="45.885195" lon="9.562065"><ele>777.0</ele><time>2026-05-03T08:27:44.37Z</time></trkpt><trkpt lat="45.8852133" lon="9.5619233"><ele>775.8333333333334</ele><time>2026-05-03T08:27:46.369Z</time></trkpt><trkpt lat="45.8852567" lon="9.561805"><ele>774.6666666666667</ele><time>2026-05-03T08:27:48.369Z</time></trkpt><trkpt lat="45.8853683" lon="9.561725"><ele>773.5</ele><time>2026-05-03T08:27:50.37Z</time></trkpt><trkpt lat="45.88543" lon="9.5616867"><ele>772.3333333333334</ele><time>2026-05-03T08:27:51.369Z</time></trkpt><trkpt lat="45.885495" lon="9.5616433"><ele>771.1666666666667</ele><time>2026-05-03T08:27:52.37Z</time></trkpt><trkpt lat="45.8855683" lon="9.561595"><ele>770.0</ele><time>2026-05-03T08:27:53.371Z</time></trkpt><trkpt lat="45.8856367" lon="9.561545"><ele>770.0000000000001</ele><time>2026-05-03T08:27:54.37Z</time></trkpt><trkpt lat="45.8856967" lon="9.561495"><ele>770.0</ele><time>2026-05-03T08:27:55.371Z</time></trkpt><trkpt lat="45.8857433" lon="9.56143"><ele>770.0</ele><time>2026-05-03T08:27:56.37Z</time></trkpt><trkpt lat="45.8857767" lon="9.5613467"><ele>770.0</ele><time>2026-05-03T08:27:57.369Z</time></trkpt><trkpt lat="45.8858217" lon="9.5612267"><ele>770.0000000000001</ele><time>2026-05-03T08:27:59.372Z</time></trkpt><trkpt lat="45.885875" lon="9.5611183"><ele>770.0</ele><time>2026-05-03T08:28:11.373Z</time></trkpt><trkpt lat="45.885935" lon="9.5609767"><ele>772.4</ele><time>2026-05-03T08:28:13.372Z</time></trkpt><trkpt lat="45.8859817" lon="9.5608917"><ele>774.8</ele><time>2026-05-03T08:28:14.373Z</time></trkpt><trkpt lat="45.8860183" lon="9.5608067"><ele>777.2</ele><time>2026-05-03T08:28:15.372Z</time></trkpt><trkpt lat="45.8860533" lon="9.560645"><ele>779.6</ele><time>2026-05-03T08:28:17.372Z</time></trkpt><trkpt lat="45.8860567" lon="9.5605483"><ele>782.0</ele><time>2026-05-03T08:28:18.373Z</time></trkpt><trkpt lat="45.886105" lon="9.5603733"><ele>780.1428571428571</ele><time>2026-05-03T08:28:20.37Z</time></trkpt><trkpt lat="45.8861417" lon="9.5602983"><ele>778.2857142857142</ele><time>2026-05-03T08:28:21.369Z</time></trkpt><trkpt lat="45.886175" lon="9.5602083"><ele>776.4285714285713</ele><time>2026-05-03T08:28:22.369Z</time></trkpt><trkpt lat="45.88622" lon="9.5601417"><ele>774.5714285714286</ele><time>2026-05-03T08:28:23.37Z</time></trkpt><trkpt lat="45.8862767" lon="9.5600717"><ele>772.7142857142858</ele><time>2026-05-03T08:28:24.371Z</time></trkpt><trkpt lat="45.8863367" lon="9.560005"><ele>770.8571428571428</ele><time>2026-05-03T08:28:25.37Z</time></trkpt><trkpt lat="45.8863983" lon="9.55994"><ele>769.0</ele><time>2026-05-03T08:28:26.371Z</time></trkpt><trkpt lat="45.88646" lon="9.559885"><ele>768.9999999999999</ele><time>2026-05-03T08:28:27.371Z</time></trkpt><trkpt lat="45.8865183" lon="9.559845"><ele>769.0</ele><time>2026-05-03T08:28:28.369Z</time></trkpt><trkpt lat="45.8865833" lon="9.5598217"><ele>769.0</ele><time>2026-05-03T08:28:29.37Z</time></trkpt><trkpt lat="45.8866517" lon="9.5598183"><ele>769.0</ele><time>2026-05-03T08:28:30.371Z</time></trkpt><trkpt lat="45.886755" lon="9.5598183"><ele>768.9999999999999</ele><time>2026-05-03T08:28:32.371Z</time></trkpt><trkpt lat="45.8868217" lon="9.5599"><ele>769.0</ele><time>2026-05-03T08:28:34.373Z</time></trkpt><trkpt lat="45.8868483" lon="9.5599867"><ele>769.6666666666666</ele><time>2026-05-03T08:28:36.373Z</time></trkpt><trkpt lat="45.8869167" lon="9.5599717"><ele>770.3333333333333</ele><time>2026-05-03T08:28:39.373Z</time></trkpt><trkpt lat="45.88699" lon="9.55984"><ele>771.0</ele><time>2026-05-03T08:28:41.373Z</time></trkpt><trkpt lat="45.8870367" lon="9.55975"><ele>771.6666666666667</ele><time>2026-05-03T08:28:42.372Z</time></trkpt><trkpt lat="45.8870867" lon="9.5596617"><ele>772.3333333333334</ele><time>2026-05-03T08:28:43.372Z</time></trkpt><trkpt lat="45.88714" lon="9.559575"><ele>773.0</ele><time>2026-05-03T08:28:44.373Z</time></trkpt><trkpt lat="45.8871917" lon="9.55949"><ele>773.0</ele><time>2026-05-03T08:28:45.373Z</time></trkpt><trkpt lat="45.8872433" lon="9.5594133"><ele>773.0</ele><time>2026-05-03T08:28:46.372Z</time></trkpt><trkpt lat="45.8872883" lon="9.5593283"><ele>773.0</ele><time>2026-05-03T08:28:47.37Z</time></trkpt><trkpt lat="45.88733" lon="9.559245"><ele>773.0</ele><time>2026-05-03T08:28:48.37Z</time></trkpt><trkpt lat="45.887375" lon="9.5591633"><ele>773.0</ele><time>2026-05-03T08:28:49.371Z</time></trkpt><trkpt lat="45.88742" lon="9.5590767"><ele>773.0</ele><time>2026-05-03T08:28:50.37Z</time></trkpt><trkpt lat="45.8874633" lon="9.5589817"><ele>773.0</ele><time>2026-05-03T08:28:51.37Z</time></trkpt><trkpt lat="45.8875067" lon="9.558885"><ele>773.0000000000001</ele><time>2026-05-03T08:28:52.369Z</time></trkpt><trkpt lat="45.8875467" lon="9.558785"><ele>773.0</ele><time>2026-05-03T08:28:53.369Z</time></trkpt><trkpt lat="45.887585" lon="9.5586867"><ele>773.0</ele><time>2026-05-03T08:28:54.37Z</time></trkpt><trkpt lat="45.88763" lon="9.5585967"><ele>773.0</ele><time>2026-05-03T08:28:55.37Z</time></trkpt><trkpt lat="45.8876783" lon="9.5585183"><ele>773.0000000000001</ele><time>2026-05-03T08:28:56.371Z</time></trkpt><trkpt lat="45.8877467" lon="9.5584483"><ele>773.0</ele><time>2026-05-03T08:28:57.369Z</time></trkpt><trkpt lat="45.88784" lon="9.5583583"><ele>774.5</ele><time>2026-05-03T08:28:58.37Z</time></trkpt><trkpt lat="45.8879367" lon="9.5582533"><ele>776.0</ele><time>2026-05-03T08:28:59.37Z</time></trkpt><trkpt lat="45.8880317" lon="9.5581367"><ele>777.5</ele><time>2026-05-03T08:29:00.37Z</time></trkpt><trkpt lat="45.8881217" lon="9.5579983"><ele>779.0</ele><time>2026-05-03T08:29:01.371Z</time></trkpt><trkpt lat="45.888215" lon="9.5578367"><ele>783.0</ele><time>2026-05-03T08:29:02.372Z</time></trkpt><trkpt lat="45.8883067" lon="9.557655"><ele>787.0</ele><time>2026-05-03T08:29:03.372Z</time></trkpt><trkpt lat="45.8884167" lon="9.5574617"><ele>791.0</ele><time>2026-05-03T08:29:04.372Z</time></trkpt><trkpt lat="45.888535" lon="9.5572717"><ele>791.0</ele><time>2026-05-03T08:29:05.372Z</time></trkpt><trkpt lat="45.8886483" lon="9.5570833"><ele>791.0</ele><time>2026-05-03T08:29:06.369Z</time></trkpt><trkpt lat="45.888745" lon="9.5569017"><ele>791.0</ele><time>2026-05-03T08:29:07.369Z</time></trkpt><trkpt lat="45.8888283" lon="9.5567283"><ele>786.75</ele><time>2026-05-03T08:29:08.37Z</time></trkpt><trkpt lat="45.888895" lon="9.55657"><ele>782.5</ele><time>2026-05-03T08:29:09.369Z</time></trkpt><trkpt lat="45.8889617" lon="9.556425"><ele>778.25</ele><time>2026-05-03T08:29:10.37Z</time></trkpt><trkpt lat="45.889035" lon="9.55631"><ele>774.0</ele><time>2026-05-03T08:29:11.37Z</time></trkpt><trkpt lat="45.889125" lon="9.5562333"><ele>775.5</ele><time>2026-05-03T08:29:12.372Z</time></trkpt><trkpt lat="45.88923" lon="9.5561667"><ele>777.0</ele><time>2026-05-03T08:29:13.372Z</time></trkpt><trkpt lat="45.8893483" lon="9.5560933"><ele>778.5</ele><time>2026-05-03T08:29:14.373Z</time></trkpt><trkpt lat="45.8894767" lon="9.5560083"><ele>780.0</ele><time>2026-05-03T08:29:15.373Z</time></trkpt><trkpt lat="45.8896017" lon="9.5559267"><ele>780.0</ele><time>2026-05-03T08:29:16.373Z</time></trkpt><trkpt lat="45.88971" lon="9.5558567"><ele>780.0</ele><time>2026-05-03T08:29:17.368Z</time></trkpt><trkpt lat="45.8898" lon="9.55579"><ele>780.0</ele><time>2026-05-03T08:29:18.368Z</time></trkpt><trkpt lat="45.8898683" lon="9.5557183"><ele>780.0</ele><time>2026-05-03T08:29:19.369Z</time></trkpt><trkpt lat="45.8899183" lon="9.5556283"><ele>780.0</ele><time>2026-05-03T08:29:20.373Z</time></trkpt><trkpt lat="45.8899333" lon="9.5555167"><ele>780.0</ele><time>2026-05-03T08:29:21.368Z</time></trkpt><trkpt lat="45.889925" lon="9.5553833"><ele>780.0</ele><time>2026-05-03T08:29:22.368Z</time></trkpt><trkpt lat="45.889935" lon="9.5552617"><ele>780.0</ele><time>2026-05-03T08:29:23.37Z</time></trkpt><trkpt lat="45.889965" lon="9.5551333"><ele>780.0</ele><time>2026-05-03T08:29:24.368Z</time></trkpt><trkpt lat="45.8900133" lon="9.555005"><ele>780.0</ele><time>2026-05-03T08:29:25.372Z</time></trkpt><trkpt lat="45.8900683" lon="9.5548783"><ele>777.2</ele><time>2026-05-03T08:29:26.37Z</time></trkpt><trkpt lat="45.8900983" lon="9.554755"><ele>774.4</ele><time>2026-05-03T08:29:27.372Z</time></trkpt><trkpt lat="45.890105" lon="9.5546533"><ele>771.5999999999999</ele><time>2026-05-03T08:29:28.372Z</time></trkpt><trkpt lat="45.8900483" lon="9.5545117"><ele>768.8</ele><time>2026-05-03T08:29:30.372Z</time></trkpt><trkpt lat="45.8899317" lon="9.554395"><ele>766.0</ele><time>2026-05-03T08:29:32.37Z</time></trkpt><trkpt lat="45.889855" lon="9.55433"><ele>766.0</ele><time>2026-05-03T08:29:33.371Z</time></trkpt><trkpt lat="45.8897817" lon="9.5542583"><ele>766.0</ele><time>2026-05-03T08:29:34.369Z</time></trkpt><trkpt lat="45.88974" lon="9.5541633"><ele>766.0</ele><time>2026-05-03T08:29:35.373Z</time></trkpt><trkpt lat="45.889715" lon="9.554"><ele>766.0</ele><time>2026-05-03T08:29:36.372Z</time></trkpt><trkpt lat="45.8896867" lon="9.5538033"><ele>766.0</ele><time>2026-05-03T08:29:37.369Z</time></trkpt><trkpt lat="45.88965" lon="9.5535767"><ele>768.6666666666667</ele><time>2026-05-03T08:29:38.373Z</time></trkpt><trkpt lat="45.8895983" lon="9.5533283"><ele>771.3333333333334</ele><time>2026-05-03T08:29:39.373Z</time></trkpt><trkpt lat="45.88955" lon="9.55308"><ele>774.0</ele><time>2026-05-03T08:29:40.372Z</time></trkpt><trkpt lat="45.8895" lon="9.5528583"><ele>776.5</ele><time>2026-05-03T08:29:41.373Z</time></trkpt><trkpt lat="45.88946" lon="9.5526633"><ele>779.0</ele><time>2026-05-03T08:29:42.372Z</time></trkpt><trkpt lat="45.8894317" lon="9.552495"><ele>781.5</ele><time>2026-05-03T08:29:43.372Z</time></trkpt><trkpt lat="45.8894233" lon="9.5523267"><ele>784.0</ele><time>2026-05-03T08:29:44.371Z</time></trkpt><trkpt lat="45.8894367" lon="9.5521567"><ele>783.0</ele><time>2026-05-03T08:29:45.369Z</time></trkpt><trkpt lat="45.8894767" lon="9.5519867"><ele>782.0</ele><time>2026-05-03T08:29:46.369Z</time></trkpt><trkpt lat="45.8895367" lon="9.551825"><ele>781.0</ele><time>2026-05-03T08:29:47.37Z</time></trkpt><trkpt lat="45.889605" lon="9.5516617"><ele>780.0</ele><time>2026-05-03T08:29:48.369Z</time></trkpt><trkpt lat="45.8896533" lon="9.5514783"><ele>780.0</ele><time>2026-05-03T08:29:49.37Z</time></trkpt><trkpt lat="45.8896783" lon="9.551265"><ele>780.0</ele><time>2026-05-03T08:29:50.37Z</time></trkpt><trkpt lat="45.8896733" lon="9.5510467"><ele>780.0</ele><time>2026-05-03T08:29:51.369Z</time></trkpt><trkpt lat="45.8896533" lon="9.5508533"><ele>780.0</ele><time>2026-05-03T08:29:52.369Z</time></trkpt><trkpt lat="45.8896167" lon="9.5506883"><ele>780.6</ele><time>2026-05-03T08:29:53.369Z</time></trkpt><trkpt lat="45.8895667" lon="9.55055"><ele>781.2</ele><time>2026-05-03T08:29:54.369Z</time></trkpt><trkpt lat="45.8895083" lon="9.550445"><ele>781.8</ele><time>2026-05-03T08:29:55.37Z</time></trkpt><trkpt lat="45.889425" lon="9.55037"><ele>782.4</ele><time>2026-05-03T08:29:56.37Z</time></trkpt><trkpt lat="45.88932" lon="9.5503133"><ele>783.0</ele><time>2026-05-03T08:29:57.369Z</time></trkpt><trkpt lat="45.8891933" lon="9.5502733"><ele>785.75</ele><time>2026-05-03T08:29:58.369Z</time></trkpt><trkpt lat="45.8890467" lon="9.55024"><ele>788.5</ele><time>2026-05-03T08:29:59.37Z</time></trkpt><trkpt lat="45.8888967" lon="9.5502167"><ele>791.25</ele><time>2026-05-03T08:30:00.37Z</time></trkpt><trkpt lat="45.8887517" lon="9.5502033"><ele>794.0</ele><time>2026-05-03T08:30:01.371Z</time></trkpt><trkpt lat="45.8886233" lon="9.5502"><ele>794.0000000000001</ele><time>2026-05-03T08:30:02.37Z</time></trkpt><trkpt lat="45.88851" lon="9.5501767"><ele>794.0</ele><time>2026-05-03T08:30:03.369Z</time></trkpt><trkpt lat="45.88841" lon="9.5501417"><ele>794.0</ele><time>2026-05-03T08:30:04.369Z</time></trkpt><trkpt lat="45.8883433" lon="9.5500767"><ele>794.0</ele><time>2026-05-03T08:30:05.37Z</time></trkpt><trkpt lat="45.88832" lon="9.54998"><ele>794.0000000000001</ele><time>2026-05-03T08:30:06.37Z</time></trkpt><trkpt lat="45.888295" lon="9.5498817"><ele>794.0</ele><time>2026-05-03T08:30:07.37Z</time></trkpt><trkpt lat="45.8882917" lon="9.5497533"><ele>798.0</ele><time>2026-05-03T08:30:08.372Z</time></trkpt><trkpt lat="45.888295" lon="9.5496167"><ele>802.0</ele><time>2026-05-03T08:30:09.37Z</time></trkpt><trkpt lat="45.8883567" lon="9.54939"><ele>806.0</ele><time>2026-05-03T08:30:10.37Z</time></trkpt><trkpt lat="45.8884583" lon="9.549135"><ele>806.0</ele><time>2026-05-03T08:30:11.37Z</time></trkpt><trkpt lat="45.8885067" lon="9.5489267"><ele>806.0</ele><time>2026-05-03T08:30:12.369Z</time></trkpt><trkpt lat="45.88856" lon="9.5486967"><ele>806.0</ele><time>2026-05-03T08:30:13.369Z</time></trkpt><trkpt lat="45.8885517" lon="9.5485167"><ele>806.0</ele><time>2026-05-03T08:30:14.37Z</time></trkpt><trkpt lat="45.888515" lon="9.5483417"><ele>803.75</ele><time>2026-05-03T08:30:15.368Z</time></trkpt><trkpt lat="45.8884567" lon="9.5481633"><ele>801.5</ele><time>2026-05-03T08:30:16.37Z</time></trkpt><trkpt lat="45.8883883" lon="9.54798"><ele>799.25</ele><time>2026-05-03T08:30:17.37Z</time></trkpt><trkpt lat="45.8883133" lon="9.547785"><ele>797.0</ele><time>2026-05-03T08:30:18.37Z</time></trkpt><trkpt lat="45.8882433" lon="9.5475867"><ele>795.0</ele><time>2026-05-03T08:30:19.371Z</time></trkpt><trkpt lat="45.8881617" lon="9.5474017"><ele>793.0</ele><time>2026-05-03T08:30:20.37Z</time></trkpt><trkpt lat="45.8880783" lon="9.547225"><ele>791.0</ele><time>2026-05-03T08:30:21.369Z</time></trkpt><trkpt lat="45.8880067" lon="9.5470517"><ele>789.0</ele><time>2026-05-03T08:30:22.369Z</time></trkpt><trkpt lat="45.8879333" lon="9.5468917"><ele>789.0</ele><time>2026-05-03T08:30:23.372Z</time></trkpt><trkpt lat="45.8878567" lon="9.546745"><ele>789.0</ele><time>2026-05-03T08:30:24.371Z</time></trkpt><trkpt lat="45.8877767" lon="9.546625"><ele>789.0</ele><time>2026-05-03T08:30:25.371Z</time></trkpt><trkpt lat="45.887705" lon="9.5465217"><ele>789.0</ele><time>2026-05-03T08:30:26.374Z</time></trkpt><trkpt lat="45.887655" lon="9.5464083"><ele>789.0</ele><time>2026-05-03T08:30:27.373Z</time></trkpt><trkpt lat="45.8876167" lon="9.5462867"><ele>789.6</ele><time>2026-05-03T08:30:28.369Z</time></trkpt><trkpt lat="45.8876" lon="9.5461467"><ele>790.2</ele><time>2026-05-03T08:30:29.371Z</time></trkpt><trkpt lat="45.8875967" lon="9.5459933"><ele>790.8000000000001</ele><time>2026-05-03T08:30:30.37Z</time></trkpt><trkpt lat="45.8875983" lon="9.5458283"><ele>791.4000000000001</ele><time>2026-05-03T08:30:31.37Z</time></trkpt><trkpt lat="45.8876083" lon="9.545665"><ele>792.0</ele><time>2026-05-03T08:30:32.372Z</time></trkpt><trkpt lat="45.8876217" lon="9.5455133"><ele>790.8</ele><time>2026-05-03T08:30:33.371Z</time></trkpt><trkpt lat="45.8876383" lon="9.5453733"><ele>789.6</ele><time>2026-05-03T08:30:34.371Z</time></trkpt><trkpt lat="45.8876783" lon="9.5452333"><ele>788.4</ele><time>2026-05-03T08:30:35.37Z</time></trkpt><trkpt lat="45.8877433" lon="9.54509"><ele>787.1999999999999</ele><time>2026-05-03T08:30:36.37Z</time></trkpt><trkpt lat="45.8878133" lon="9.5449433"><ele>786.0</ele><time>2026-05-03T08:30:37.373Z</time></trkpt><trkpt lat="45.8878917" lon="9.5447983"><ele>786.0</ele><time>2026-05-03T08:30:38.372Z</time></trkpt><trkpt lat="45.887975" lon="9.5446567"><ele>786.0</ele><time>2026-05-03T08:30:39.372Z</time></trkpt><trkpt lat="45.8880617" lon="9.544515"><ele>786.0</ele><time>2026-05-03T08:30:40.369Z</time></trkpt><trkpt lat="45.8881633" lon="9.544375"><ele>786.0</ele><time>2026-05-03T08:30:41.373Z</time></trkpt><trkpt lat="45.888285" lon="9.5442333"><ele>782.3333333333333</ele><time>2026-05-03T08:30:42.372Z</time></trkpt><trkpt lat="45.8884233" lon="9.544075"><ele>778.6666666666666</ele><time>2026-05-03T08:30:43.371Z</time></trkpt><trkpt lat="45.8885633" lon="9.543915"><ele>775.0</ele><time>2026-05-03T08:30:44.373Z</time></trkpt><trkpt lat="45.8887067" lon="9.543745"><ele>778.3333333333333</ele><time>2026-05-03T08:30:45.371Z</time></trkpt><trkpt lat="45.8888483" lon="9.5435717"><ele>781.6666666666667</ele><time>2026-05-03T08:30:46.371Z</time></trkpt><trkpt lat="45.888985" lon="9.54339"><ele>785.0</ele><time>2026-05-03T08:30:47.372Z</time></trkpt><trkpt lat="45.8891117" lon="9.543205"><ele>785.0</ele><time>2026-05-03T08:30:48.372Z</time></trkpt><trkpt lat="45.8892317" lon="9.5430267"><ele>785.0</ele><time>2026-05-03T08:30:49.373Z</time></trkpt><trkpt lat="45.8893467" lon="9.5428667"><ele>785.0</ele><time>2026-05-03T08:30:50.372Z</time></trkpt><trkpt lat="45.8894633" lon="9.5427217"><ele>787.0</ele><time>2026-05-03T08:30:51.372Z</time></trkpt><trkpt lat="45.889585" lon="9.5425933"><ele>789.0</ele><time>2026-05-03T08:30:52.369Z</time></trkpt><trkpt lat="45.8896983" lon="9.54246"><ele>791.0</ele><time>2026-05-03T08:30:53.373Z</time></trkpt><trkpt lat="45.8897933" lon="9.5423"><ele>793.0</ele><time>2026-05-03T08:30:54.373Z</time></trkpt><trkpt lat="45.889875" lon="9.54213"><ele>791.0</ele><time>2026-05-03T08:30:55.372Z</time></trkpt><trkpt lat="45.88995" lon="9.5419833"><ele>789.0</ele><time>2026-05-03T08:30:56.373Z</time></trkpt><trkpt lat="45.8900183" lon="9.5418783"><ele>787.0</ele><time>2026-05-03T08:30:57.373Z</time></trkpt><trkpt lat="45.890085" lon="9.5418067"><ele>785.0</ele><time>2026-05-03T08:30:58.369Z</time></trkpt><trkpt lat="45.8901683" lon="9.5417517"><ele>783.0</ele><time>2026-05-03T08:30:59.37Z</time></trkpt><trkpt lat="45.89027" lon="9.5417233"><ele>788.25</ele><time>2026-05-03T08:31:00.371Z</time></trkpt><trkpt lat="45.890415" lon="9.541695"><ele>793.5</ele><time>2026-05-03T08:31:01.371Z</time></trkpt><trkpt lat="45.8905467" lon="9.541665"><ele>798.75</ele><time>2026-05-03T08:31:02.37Z</time></trkpt><trkpt lat="45.890655" lon="9.54163"><ele>804.0</ele><time>2026-05-03T08:31:03.373Z</time></trkpt><trkpt lat="45.8907533" lon="9.54157"><ele>804.0</ele><time>2026-05-03T08:31:04.369Z</time></trkpt><trkpt lat="45.8908383" lon="9.5414833"><ele>804.0</ele><time>2026-05-03T08:31:05.37Z</time></trkpt><trkpt lat="45.890915" lon="9.5413767"><ele>804.0</ele><time>2026-05-03T08:31:06.37Z</time></trkpt><trkpt lat="45.8909783" lon="9.5412633"><ele>804.0</ele><time>2026-05-03T08:31:07.371Z</time></trkpt><trkpt lat="45.891025" lon="9.5411433"><ele>804.0</ele><time>2026-05-03T08:31:08.37Z</time></trkpt><trkpt lat="45.89104" lon="9.5410033"><ele>804.5</ele><time>2026-05-03T08:31:09.372Z</time></trkpt><trkpt lat="45.8910383" lon="9.5408583"><ele>805.0</ele><time>2026-05-03T08:31:10.37Z</time></trkpt><trkpt lat="45.8910233" lon="9.54073"><ele>805.5</ele><time>2026-05-03T08:31:11.372Z</time></trkpt><trkpt lat="45.89101" lon="9.5406167"><ele>806.0</ele><time>2026-05-03T08:31:12.374Z</time></trkpt><trkpt lat="45.8909967" lon="9.540525"><ele>806.5</ele><time>2026-05-03T08:31:13.372Z</time></trkpt><trkpt lat="45.8909633" lon="9.5404333"><ele>807.0</ele><time>2026-05-03T08:31:17.369Z</time></trkpt><trkpt lat="45.8909233" lon="9.5403367"><ele>807.0</ele><time>2026-05-03T08:31:22.372Z</time></trkpt><trkpt lat="45.890885" lon="9.5402467"><ele>807.0</ele><time>2026-05-03T08:31:25.373Z</time></trkpt><trkpt lat="45.8908417" lon="9.5401567"><ele>807.0</ele><time>2026-05-03T08:31:27.372Z</time></trkpt><trkpt lat="45.890815" lon="9.54005"><ele>807.0</ele><time>2026-05-03T08:31:30.37Z</time></trkpt><trkpt lat="45.890855" lon="9.5399783"><ele>807.0</ele><time>2026-05-03T08:31:35.372Z</time></trkpt><trkpt lat="45.8909217" lon="9.5400317"><ele>807.0</ele><time>2026-05-03T08:31:38.37Z</time></trkpt><trkpt lat="45.8909967" lon="9.540115"><ele>810.6</ele><time>2026-05-03T08:31:41.369Z</time></trkpt><trkpt lat="45.8910617" lon="9.5401333"><ele>814.2</ele><time>2026-05-03T08:31:43.371Z</time></trkpt><trkpt lat="45.891135" lon="9.5401483"><ele>817.8</ele><time>2026-05-03T08:31:45.371Z</time></trkpt><trkpt lat="45.8912233" lon="9.540205"><ele>821.4</ele><time>2026-05-03T08:31:48.37Z</time></trkpt><trkpt lat="45.89129" lon="9.540305"><ele>825.0</ele><time>2026-05-03T08:31:50.37Z</time></trkpt><trkpt lat="45.8913567" lon="9.54045"><ele>825.5714285714286</ele><time>2026-05-03T08:31:52.371Z</time></trkpt><trkpt lat="45.8913817" lon="9.54055"><ele>826.1428571428572</ele><time>2026-05-03T08:31:53.371Z</time></trkpt><trkpt lat="45.8914067" lon="9.5406583"><ele>826.7142857142858</ele><time>2026-05-03T08:31:54.373Z</time></trkpt><trkpt lat="45.8914333" lon="9.5407633"><ele>827.2857142857142</ele><time>2026-05-03T08:31:55.372Z</time></trkpt><trkpt lat="45.891455" lon="9.5408733"><ele>827.8571428571429</ele><time>2026-05-03T08:31:56.374Z</time></trkpt><trkpt lat="45.8914733" lon="9.5409683"><ele>828.4285714285714</ele><time>2026-05-03T08:31:57.372Z</time></trkpt><trkpt lat="45.8914817" lon="9.5410583"><ele>829.0</ele><time>2026-05-03T08:31:58.371Z</time></trkpt><trkpt lat="45.89148" lon="9.54115"><ele>831.1666666666666</ele><time>2026-05-03T08:31:59.372Z</time></trkpt><trkpt lat="45.89146" lon="9.5412483"><ele>833.3333333333333</ele><time>2026-05-03T08:32:00.373Z</time></trkpt><trkpt lat="45.891435" lon="9.5413517"><ele>835.5</ele><time>2026-05-03T08:32:01.371Z</time></trkpt><trkpt lat="45.8914083" lon="9.54146"><ele>837.6666666666667</ele><time>2026-05-03T08:32:02.37Z</time></trkpt><trkpt lat="45.8913817" lon="9.54156"><ele>839.8333333333334</ele><time>2026-05-03T08:32:03.369Z</time></trkpt><trkpt lat="45.891355" lon="9.54165"><ele>842.0</ele><time>2026-05-03T08:32:04.37Z</time></trkpt><trkpt lat="45.8912783" lon="9.5417867"><ele>842.0</ele><time>2026-05-03T08:32:06.369Z</time></trkpt><trkpt lat="45.891195" lon="9.5419"><ele>842.0</ele><time>2026-05-03T08:32:08.37Z</time></trkpt><trkpt lat="45.89113" lon="9.542045"><ele>842.0</ele><time>2026-05-03T08:32:10.371Z</time></trkpt><trkpt lat="45.8911083" lon="9.542135"><ele>842.0</ele><time>2026-05-03T08:32:11.37Z</time></trkpt><trkpt lat="45.8910867" lon="9.542305"><ele>842.0</ele><time>2026-05-03T08:32:13.372Z</time></trkpt><trkpt lat="45.89107" lon="9.5424733"><ele>841.6666666666667</ele><time>2026-05-03T08:32:15.372Z</time></trkpt><trkpt lat="45.8910633" lon="9.5425733"><ele>841.3333333333334</ele><time>2026-05-03T08:32:16.374Z</time></trkpt><trkpt lat="45.891055" lon="9.5426817"><ele>841.0</ele><time>2026-05-03T08:32:17.37Z</time></trkpt><trkpt lat="45.89104" lon="9.54278"><ele>840.6666666666667</ele><time>2026-05-03T08:32:18.37Z</time></trkpt><trkpt lat="45.8910267" lon="9.5428717"><ele>840.3333333333334</ele><time>2026-05-03T08:32:19.371Z</time></trkpt><trkpt lat="45.8909733" lon="9.5430283"><ele>840.0</ele><time>2026-05-03T08:32:21.371Z</time></trkpt><trkpt lat="45.8909167" lon="9.54309"><ele>840.0</ele><time>2026-05-03T08:32:22.371Z</time></trkpt><trkpt lat="45.8908483" lon="9.5431483"><ele>840.0</ele><time>2026-05-03T08:32:23.37Z</time></trkpt><trkpt lat="45.8907617" lon="9.54319"><ele>840.0</ele><time>2026-05-03T08:32:24.372Z</time></trkpt><trkpt lat="45.8906683" lon="9.543215"><ele>840.0</ele><time>2026-05-03T08:32:25.373Z</time></trkpt><trkpt lat="45.8905783" lon="9.5432433"><ele>840.0</ele><time>2026-05-03T08:32:26.373Z</time></trkpt><trkpt lat="45.8904917" lon="9.5432933"><ele>840.0</ele><time>2026-05-03T08:32:27.37Z</time></trkpt><trkpt lat="45.8904083" lon="9.5433633"><ele>840.0</ele><time>2026-05-03T08:32:28.369Z</time></trkpt><trkpt lat="45.8903333" lon="9.543435"><ele>840.0</ele><time>2026-05-03T08:32:29.371Z</time></trkpt><trkpt lat="45.8902667" lon="9.5435017"><ele>840.0</ele><time>2026-05-03T08:32:30.37Z</time></trkpt><trkpt lat="45.8902117" lon="9.5435567"><ele>840.0</ele><time>2026-05-03T08:32:31.371Z</time></trkpt><trkpt lat="45.89015" lon="9.5436583"><ele>840.0</ele><time>2026-05-03T08:32:33.37Z</time></trkpt><trkpt lat="45.8901517" lon="9.5438133"><ele>843.1666666666666</ele><time>2026-05-03T08:32:35.371Z</time></trkpt><trkpt lat="45.89018" lon="9.5439383"><ele>846.3333333333333</ele><time>2026-05-03T08:32:36.371Z</time></trkpt><trkpt lat="45.890215" lon="9.5440617"><ele>849.5</ele><time>2026-05-03T08:32:37.37Z</time></trkpt><trkpt lat="45.89025" lon="9.5441633"><ele>852.6666666666666</ele><time>2026-05-03T08:32:38.371Z</time></trkpt><trkpt lat="45.89028" lon="9.5442617"><ele>855.8333333333333</ele><time>2026-05-03T08:32:39.369Z</time></trkpt><trkpt lat="45.8902983" lon="9.5443667"><ele>859.0</ele><time>2026-05-03T08:32:40.369Z</time></trkpt><trkpt lat="45.8903033" lon="9.544485"><ele>861.6</ele><time>2026-05-03T08:32:41.372Z</time></trkpt><trkpt lat="45.8903033" lon="9.5446017"><ele>864.2</ele><time>2026-05-03T08:32:42.374Z</time></trkpt><trkpt lat="45.890305" lon="9.5447167"><ele>866.8000000000001</ele><time>2026-05-03T08:32:43.373Z</time></trkpt><trkpt lat="45.890315" lon="9.5448533"><ele>869.4000000000001</ele><time>2026-05-03T08:32:44.373Z</time></trkpt><trkpt lat="45.8903317" lon="9.545035"><ele>872.0</ele><time>2026-05-03T08:32:45.373Z</time></trkpt><trkpt lat="45.890345" lon="9.54525"><ele>873.0</ele><time>2026-05-03T08:32:46.373Z</time></trkpt><trkpt lat="45.8903583" lon="9.5454683"><ele>874.0</ele><time>2026-05-03T08:32:47.374Z</time></trkpt><trkpt lat="45.890375" lon="9.5457067"><ele>875.0</ele><time>2026-05-03T08:32:48.374Z</time></trkpt><trkpt lat="45.8904" lon="9.5459583"><ele>875.0</ele><time>2026-05-03T08:32:49.373Z</time></trkpt><trkpt lat="45.8904267" lon="9.5461933"><ele>875.0</ele><time>2026-05-03T08:32:50.373Z</time></trkpt><trkpt lat="45.8904533" lon="9.5464233"><ele>875.0</ele><time>2026-05-03T08:32:51.373Z</time></trkpt><trkpt lat="45.8904933" lon="9.54664"><ele>874.0</ele><time>2026-05-03T08:32:52.374Z</time></trkpt><trkpt lat="45.8905517" lon="9.5468367"><ele>873.0</ele><time>2026-05-03T08:32:53.373Z</time></trkpt><trkpt lat="45.890605" lon="9.54701"><ele>872.0</ele><time>2026-05-03T08:32:54.369Z</time></trkpt><trkpt lat="45.89065" lon="9.5471533"><ele>871.0</ele><time>2026-05-03T08:32:55.373Z</time></trkpt><trkpt lat="45.8906983" lon="9.5472333"><ele>871.0</ele><time>2026-05-03T08:32:56.374Z</time></trkpt><trkpt lat="45.8907933" lon="9.54727"><ele>870.9999999999999</ele><time>2026-05-03T08:32:58.369Z</time></trkpt><trkpt lat="45.89087" lon="9.5471567"><ele>870.9999999999999</ele><time>2026-05-03T08:33:00.371Z</time></trkpt><trkpt lat="45.8908867" lon="9.547035"><ele>871.0</ele><time>2026-05-03T08:33:01.371Z</time></trkpt><trkpt lat="45.890885" lon="9.5468717"><ele>871.0</ele><time>2026-05-03T08:33:02.371Z</time></trkpt><trkpt lat="45.8908817" lon="9.5466483"><ele>871.0</ele><time>2026-05-03T08:33:03.372Z</time></trkpt><trkpt lat="45.8908883" lon="9.5464367"><ele>871.0</ele><time>2026-05-03T08:33:04.372Z</time></trkpt><trkpt lat="45.8908867" lon="9.5462533"><ele>871.0</ele><time>2026-05-03T08:33:05.371Z</time></trkpt><trkpt lat="45.890905" lon="9.5461167"><ele>871.0</ele><time>2026-05-03T08:33:06.371Z</time></trkpt><trkpt lat="45.890935" lon="9.5460033"><ele>875.5999999999999</ele><time>2026-05-03T08:33:07.372Z</time></trkpt><trkpt lat="45.8909717" lon="9.54592"><ele>880.1999999999999</ele><time>2026-05-03T08:33:08.372Z</time></trkpt><trkpt lat="45.8910817" lon="9.5459617"><ele>884.8000000000001</ele><time>2026-05-03T08:33:10.373Z</time></trkpt><trkpt lat="45.8911617" lon="9.5460383"><ele>889.4000000000001</ele><time>2026-05-03T08:33:11.373Z</time></trkpt><trkpt lat="45.8912483" lon="9.5461083"><ele>894.0</ele><time>2026-05-03T08:33:12.373Z</time></trkpt><trkpt lat="45.8913333" lon="9.5461367"><ele>894.0</ele><time>2026-05-03T08:33:13.372Z</time></trkpt><trkpt lat="45.8914533" lon="9.546135"><ele>894.0</ele><time>2026-05-03T08:33:14.371Z</time></trkpt><trkpt lat="45.8915883" lon="9.5461133"><ele>894.0</ele><time>2026-05-03T08:33:15.372Z</time></trkpt><trkpt lat="45.8917417" lon="9.5460983"><ele>894.0</ele><time>2026-05-03T08:33:16.371Z</time></trkpt><trkpt lat="45.8918967" lon="9.5461017"><ele>895.75</ele><time>2026-05-03T08:33:17.37Z</time></trkpt><trkpt lat="45.8920567" lon="9.5461333"><ele>897.5</ele><time>2026-05-03T08:33:18.371Z</time></trkpt><trkpt lat="45.8921983" lon="9.5461867"><ele>899.25</ele><time>2026-05-03T08:33:19.372Z</time></trkpt><trkpt lat="45.8923283" lon="9.5462317"><ele>901.0</ele><time>2026-05-03T08:33:20.372Z</time></trkpt><trkpt lat="45.8924233" lon="9.5462667"><ele>902.5999999999999</ele><time>2026-05-03T08:33:21.371Z</time></trkpt><trkpt lat="45.8925083" lon="9.5463217"><ele>904.1999999999999</ele><time>2026-05-03T08:33:22.371Z</time></trkpt><trkpt lat="45.8925833" lon="9.5463683"><ele>905.8000000000001</ele><time>2026-05-03T08:33:23.371Z</time></trkpt><trkpt lat="45.8926283" lon="9.5464467"><ele>907.4000000000001</ele><time>2026-05-03T08:33:24.371Z</time></trkpt><trkpt lat="45.8926583" lon="9.5466433"><ele>909.0</ele><time>2026-05-03T08:33:26.372Z</time></trkpt><trkpt lat="45.892635" lon="9.54676"><ele>912.25</ele><time>2026-05-03T08:33:27.371Z</time></trkpt><trkpt lat="45.89259" lon="9.5468767"><ele>915.5</ele><time>2026-05-03T08:33:28.371Z</time></trkpt><trkpt lat="45.8924933" lon="9.5470483"><ele>918.75</ele><time>2026-05-03T08:33:29.372Z</time></trkpt><trkpt lat="45.8923983" lon="9.547235"><ele>922.0</ele><time>2026-05-03T08:33:30.37Z</time></trkpt><trkpt lat="45.8923317" lon="9.5473783"><ele>922.0</ele><time>2026-05-03T08:33:31.371Z</time></trkpt><trkpt lat="45.892245" lon="9.547535"><ele>922.0</ele><time>2026-05-03T08:33:32.371Z</time></trkpt><trkpt lat="45.892155" lon="9.54769"><ele>922.0</ele><time>2026-05-03T08:33:33.371Z</time></trkpt><trkpt lat="45.89209" lon="9.547805"><ele>922.0</ele><time>2026-05-03T08:33:34.374Z</time></trkpt><trkpt lat="45.8920467" lon="9.5479067"><ele>921.0</ele><time>2026-05-03T08:33:35.371Z</time></trkpt><trkpt lat="45.8920183" lon="9.5480083"><ele>920.0</ele><time>2026-05-03T08:33:36.371Z</time></trkpt><trkpt lat="45.8920017" lon="9.5481017"><ele>919.0</ele><time>2026-05-03T08:33:37.37Z</time></trkpt><trkpt lat="45.892085" lon="9.5482617"><ele>918.0</ele><time>2026-05-03T08:33:39.371Z</time></trkpt><trkpt lat="45.8921967" lon="9.5483267"><ele>917.0</ele><time>2026-05-03T08:33:40.372Z</time></trkpt><trkpt lat="45.8923233" lon="9.548395"><ele>917.0</ele><time>2026-05-03T08:33:41.378Z</time></trkpt><trkpt lat="45.8924567" lon="9.5484517"><ele>917.0</ele><time>2026-05-03T08:33:42.373Z</time></trkpt><trkpt lat="45.892595" lon="9.5485117"><ele>917.0</ele><time>2026-05-03T08:33:43.373Z</time></trkpt><trkpt lat="45.8927317" lon="9.5485833"><ele>917.0</ele><time>2026-05-03T08:33:44.373Z</time></trkpt><trkpt lat="45.89286" lon="9.5486833"><ele>917.5</ele><time>2026-05-03T08:33:45.373Z</time></trkpt><trkpt lat="45.8929883" lon="9.5487967"><ele>918.0</ele><time>2026-05-03T08:33:46.372Z</time></trkpt><trkpt lat="45.8931" lon="9.5489217"><ele>918.5</ele><time>2026-05-03T08:33:47.37Z</time></trkpt><trkpt lat="45.893205" lon="9.5490383"><ele>919.0</ele><time>2026-05-03T08:33:48.371Z</time></trkpt><trkpt lat="45.8932983" lon="9.5491517"><ele>919.0</ele><time>2026-05-03T08:33:49.37Z</time></trkpt><trkpt lat="45.893375" lon="9.5492667"><ele>919.0000000000001</ele><time>2026-05-03T08:33:50.371Z</time></trkpt><trkpt lat="45.8934283" lon="9.5493983"><ele>919.0000000000001</ele><time>2026-05-03T08:33:51.371Z</time></trkpt><trkpt lat="45.8934633" lon="9.5495383"><ele>919.0</ele><time>2026-05-03T08:33:52.371Z</time></trkpt><trkpt lat="45.8934867" lon="9.5496833"><ele>919.0</ele><time>2026-05-03T08:33:53.372Z</time></trkpt><trkpt lat="45.8935117" lon="9.5498133"><ele>918.4999999999999</ele><time>2026-05-03T08:33:54.375Z</time></trkpt><trkpt lat="45.8935433" lon="9.5499267"><ele>918.0</ele><time>2026-05-03T08:33:55.373Z</time></trkpt><trkpt lat="45.893585" lon="9.5500033"><ele>917.5</ele><time>2026-05-03T08:33:56.374Z</time></trkpt><trkpt lat="45.893655" lon="9.550025"><ele>917.0</ele><time>2026-05-03T08:33:57.373Z</time></trkpt><trkpt lat="45.893755" lon="9.5500183"><ele>916.4999999999999</ele><time>2026-05-03T08:33:58.37Z</time></trkpt><trkpt lat="45.8938783" lon="9.54999"><ele>916.0</ele><time>2026-05-03T08:33:59.37Z</time></trkpt><trkpt lat="45.89403" lon="9.5499533"><ele>916.0</ele><time>2026-05-03T08:34:00.369Z</time></trkpt><trkpt lat="45.8941933" lon="9.5499217"><ele>916.0</ele><time>2026-05-03T08:34:01.37Z</time></trkpt><trkpt lat="45.8943633" lon="9.549925"><ele>916.0</ele><time>2026-05-03T08:34:02.369Z</time></trkpt><trkpt lat="45.8945367" lon="9.549945"><ele>917.0</ele><time>2026-05-03T08:34:03.369Z</time></trkpt><trkpt lat="45.89472" lon="9.5499517"><ele>918.0</ele><time>2026-05-03T08:34:04.37Z</time></trkpt><trkpt lat="45.8949017" lon="9.54997"><ele>919.0</ele><time>2026-05-03T08:34:05.37Z</time></trkpt><trkpt lat="45.8950533" lon="9.55002"><ele>921.6</ele><time>2026-05-03T08:34:06.373Z</time></trkpt><trkpt lat="45.8951833" lon="9.5501033"><ele>924.2</ele><time>2026-05-03T08:34:07.369Z</time></trkpt><trkpt lat="45.8952717" lon="9.5501967"><ele>926.8000000000001</ele><time>2026-05-03T08:34:08.37Z</time></trkpt><trkpt lat="45.8953333" lon="9.5502867"><ele>929.4000000000001</ele><time>2026-05-03T08:34:09.37Z</time></trkpt><trkpt lat="45.8953733" lon="9.5503667"><ele>932.0</ele><time>2026-05-03T08:34:10.369Z</time></trkpt><trkpt lat="45.8954033" lon="9.550455"><ele>932.6</ele><time>2026-05-03T08:34:11.372Z</time></trkpt><trkpt lat="45.8954183" lon="9.5505433"><ele>933.2</ele><time>2026-05-03T08:34:12.368Z</time></trkpt><trkpt lat="45.895415" lon="9.5506433"><ele>933.8</ele><time>2026-05-03T08:34:13.373Z</time></trkpt><trkpt lat="45.8953867" lon="9.550755"><ele>934.4</ele><time>2026-05-03T08:34:14.37Z</time></trkpt><trkpt lat="45.8953233" lon="9.5509033"><ele>935.0</ele><time>2026-05-03T08:34:15.37Z</time></trkpt><trkpt lat="45.8952517" lon="9.5510917"><ele>935.5</ele><time>2026-05-03T08:34:16.369Z</time></trkpt><trkpt lat="45.89519" lon="9.5512667"><ele>936.0</ele><time>2026-05-03T08:34:17.37Z</time></trkpt><trkpt lat="45.8951217" lon="9.55145"><ele>936.5</ele><time>2026-05-03T08:34:18.369Z</time></trkpt><trkpt lat="45.8950767" lon="9.551605"><ele>937.0</ele><time>2026-05-03T08:34:19.369Z</time></trkpt><trkpt lat="45.8950567" lon="9.5517533"><ele>937.0</ele><time>2026-05-03T08:34:20.369Z</time></trkpt><trkpt lat="45.895065" lon="9.5518967"><ele>937.0</ele><time>2026-05-03T08:34:21.37Z</time></trkpt><trkpt lat="45.8951067" lon="9.5520333"><ele>937.0</ele><time>2026-05-03T08:34:22.371Z</time></trkpt><trkpt lat="45.8951683" lon="9.55217"><ele>937.0</ele><time>2026-05-03T08:34:23.369Z</time></trkpt><trkpt lat="45.8952383" lon="9.5522983"><ele>937.0</ele><time>2026-05-03T08:34:24.373Z</time></trkpt><trkpt lat="45.8953133" lon="9.5524067"><ele>936.9999999999999</ele><time>2026-05-03T08:34:25.372Z</time></trkpt><trkpt lat="45.89539" lon="9.5524817"><ele>937.0</ele><time>2026-05-03T08:34:26.372Z</time></trkpt><trkpt lat="45.89547" lon="9.5525183"><ele>937.0</ele><time>2026-05-03T08:34:27.372Z</time></trkpt><trkpt lat="45.89556" lon="9.5525317"><ele>937.0</ele><time>2026-05-03T08:34:28.372Z</time></trkpt><trkpt lat="45.89565" lon="9.5525383"><ele>936.9999999999999</ele><time>2026-05-03T08:34:29.369Z</time></trkpt><trkpt lat="45.895735" lon="9.55254"><ele>937.0</ele><time>2026-05-03T08:34:30.369Z</time></trkpt><trkpt lat="45.8958183" lon="9.5525417"><ele>936.9999999999999</ele><time>2026-05-03T08:34:31.37Z</time></trkpt><trkpt lat="45.8958983" lon="9.5525417"><ele>937.0</ele><time>2026-05-03T08:34:32.371Z</time></trkpt><trkpt lat="45.89598" lon="9.5525383"><ele>937.0</ele><time>2026-05-03T08:34:33.369Z</time></trkpt><trkpt lat="45.8960633" lon="9.55253"><ele>937.0</ele><time>2026-05-03T08:34:34.37Z</time></trkpt><trkpt lat="45.8961467" lon="9.55253"><ele>936.9999999999999</ele><time>2026-05-03T08:34:35.37Z</time></trkpt><trkpt lat="45.8962317" lon="9.55253"><ele>937.0</ele><time>2026-05-03T08:34:36.372Z</time></trkpt><trkpt lat="45.8963183" lon="9.552535"><ele>938.3333333333333</ele><time>2026-05-03T08:34:37.371Z</time></trkpt><trkpt lat="45.8964" lon="9.55254"><ele>939.6666666666666</ele><time>2026-05-03T08:34:38.373Z</time></trkpt><trkpt lat="45.8964833" lon="9.552545"><ele>941.0</ele><time>2026-05-03T08:34:39.37Z</time></trkpt><trkpt lat="45.8965683" lon="9.5525517"><ele>942.3333333333333</ele><time>2026-05-03T08:34:40.373Z</time></trkpt><trkpt lat="45.8966533" lon="9.552555"><ele>943.6666666666666</ele><time>2026-05-03T08:34:41.373Z</time></trkpt><trkpt lat="45.896735" lon="9.5525633"><ele>945.0</ele><time>2026-05-03T08:34:42.373Z</time></trkpt><trkpt lat="45.896815" lon="9.5525783"><ele>947.6</ele><time>2026-05-03T08:34:43.372Z</time></trkpt><trkpt lat="45.89689" lon="9.5525917"><ele>950.2</ele><time>2026-05-03T08:34:44.372Z</time></trkpt><trkpt lat="45.89696" lon="9.5526017"><ele>952.8</ele><time>2026-05-03T08:34:45.372Z</time></trkpt><trkpt lat="45.8970767" lon="9.5526183"><ele>955.4</ele><time>2026-05-03T08:34:47.369Z</time></trkpt><trkpt lat="45.8971767" lon="9.5526433"><ele>958.0</ele><time>2026-05-03T08:34:49.371Z</time></trkpt><trkpt lat="45.897295" lon="9.55263"><ele>957.9999999999999</ele><time>2026-05-03T08:34:51.37Z</time></trkpt><trkpt lat="45.897395" lon="9.5525767"><ele>958.0</ele><time>2026-05-03T08:34:53.369Z</time></trkpt><trkpt lat="45.8974767" lon="9.5525417"><ele>958.0</ele><time>2026-05-03T08:34:56.373Z</time></trkpt><trkpt lat="45.8975517" lon="9.5525333"><ele>958.0</ele><time>2026-05-03T08:34:58.37Z</time></trkpt><trkpt lat="45.8976317" lon="9.552605"><ele>957.9999999999999</ele><time>2026-05-03T08:35:00.37Z</time></trkpt><trkpt lat="45.8977017" lon="9.5526733"><ele>958.0</ele><time>2026-05-03T08:35:02.371Z</time></trkpt><trkpt lat="45.897765" lon="9.5526683"><ele>959.2</ele><time>2026-05-03T08:35:07.37Z</time></trkpt><trkpt lat="45.8977717" lon="9.5525633"><ele>960.4</ele><time>2026-05-03T08:37:34.369Z</time></trkpt><trkpt lat="45.8978367" lon="9.5524917"><ele>961.6000000000001</ele><time>2026-05-03T08:37:36.37Z</time></trkpt><trkpt lat="45.8979283" lon="9.5524017"><ele>962.8000000000001</ele><time>2026-05-03T08:37:38.37Z</time></trkpt><trkpt lat="45.8980333" lon="9.5523067"><ele>964.0</ele><time>2026-05-03T08:37:40.369Z</time></trkpt><trkpt lat="45.898085" lon="9.5522483"><ele>964.0</ele><time>2026-05-03T08:37:41.371Z</time></trkpt><trkpt lat="45.8981617" lon="9.5521383"><ele>964.0000000000001</ele><time>2026-05-03T08:37:43.37Z</time></trkpt><trkpt lat="45.8982267" lon="9.55202"><ele>964.0000000000001</ele><time>2026-05-03T08:37:45.369Z</time></trkpt><trkpt lat="45.8982817" lon="9.5519233"><ele>964.0</ele><time>2026-05-03T08:37:47.371Z</time></trkpt><trkpt lat="45.8983433" lon="9.55185"><ele>964.0</ele><time>2026-05-03T08:37:49.369Z</time></trkpt><trkpt lat="45.898365" lon="9.551755"><ele>964.0</ele><time>2026-05-03T08:37:52.371Z</time></trkpt><trkpt lat="45.89829" lon="9.5518067"><ele>964.0000000000001</ele><time>2026-05-03T08:38:00.371Z</time></trkpt><trkpt lat="45.8982267" lon="9.55192"><ele>964.0000000000001</ele><time>2026-05-03T08:38:02.372Z</time></trkpt><trkpt lat="45.8981633" lon="9.5520467"><ele>964.0</ele><time>2026-05-03T08:38:04.37Z</time></trkpt><trkpt lat="45.8980883" lon="9.5521683"><ele>964.0</ele><time>2026-05-03T08:38:06.371Z</time></trkpt><trkpt lat="45.897995" lon="9.552275"><ele>963.9999999999999</ele><time>2026-05-03T08:38:08.372Z</time></trkpt><trkpt lat="45.8979033" lon="9.5523667"><ele>964.0</ele><time>2026-05-03T08:38:10.37Z</time></trkpt><trkpt lat="45.8978233" lon="9.5524517"><ele>964.0</ele><time>2026-05-03T08:38:12.369Z</time></trkpt><trkpt lat="45.8977567" lon="9.5525"><ele>964.0</ele><time>2026-05-03T08:38:14.371Z</time></trkpt><trkpt lat="45.8976733" lon="9.5525467"><ele>963.9999999999999</ele><time>2026-05-03T08:38:17.372Z</time></trkpt><trkpt lat="45.8976017" lon="9.55254"><ele>964.0</ele><time>2026-05-03T08:38:19.371Z</time></trkpt><trkpt lat="45.8975133" lon="9.5525"><ele>962.8000000000001</ele><time>2026-05-03T08:38:21.37Z</time></trkpt><trkpt lat="45.8974133" lon="9.552505"><ele>961.6000000000001</ele><time>2026-05-03T08:38:23.371Z</time></trkpt><trkpt lat="45.89726" lon="9.5525983"><ele>960.4</ele><time>2026-05-03T08:38:26.373Z</time></trkpt><trkpt lat="45.8971983" lon="9.5526267"><ele>959.2</ele><time>2026-05-03T08:38:27.369Z</time></trkpt><trkpt lat="45.8971183" lon="9.5526283"><ele>958.0</ele><time>2026-05-03T08:38:28.374Z</time></trkpt><trkpt lat="45.8969317" lon="9.552585"><ele>958.0</ele><time>2026-05-03T08:38:30.374Z</time></trkpt><trkpt lat="45.8968217" lon="9.5525583"><ele>958.0</ele><time>2026-05-03T08:38:31.374Z</time></trkpt><trkpt lat="45.8967" lon="9.5525367"><ele>958.0</ele><time>2026-05-03T08:38:32.37Z</time></trkpt><trkpt lat="45.89658" lon="9.5525183"><ele>958.0</ele><time>2026-05-03T08:38:33.369Z</time></trkpt><trkpt lat="45.89646" lon="9.5525083"><ele>955.4</ele><time>2026-05-03T08:38:34.37Z</time></trkpt><trkpt lat="45.8963433" lon="9.5525067"><ele>952.8</ele><time>2026-05-03T08:38:35.371Z</time></trkpt><trkpt lat="45.8962267" lon="9.5524983"><ele>950.2</ele><time>2026-05-03T08:38:36.371Z</time></trkpt><trkpt lat="45.896115" lon="9.5524883"><ele>947.6</ele><time>2026-05-03T08:38:37.37Z</time></trkpt><trkpt lat="45.896015" lon="9.5524867"><ele>945.0</ele><time>2026-05-03T08:38:38.373Z</time></trkpt><trkpt lat="45.8959217" lon="9.5524867"><ele>943.4</ele><time>2026-05-03T08:38:39.373Z</time></trkpt><trkpt lat="45.8958333" lon="9.5524933"><ele>941.8</ele><time>2026-05-03T08:38:40.373Z</time></trkpt><trkpt lat="45.8957533" lon="9.5524983"><ele>940.2</ele><time>2026-05-03T08:38:41.372Z</time></trkpt><trkpt lat="45.8956783" lon="9.552505"><ele>938.6</ele><time>2026-05-03T08:38:42.372Z</time></trkpt><trkpt lat="45.89561" lon="9.552505"><ele>937.0</ele><time>2026-05-03T08:38:43.373Z</time></trkpt><trkpt lat="45.8954383" lon="9.552495"><ele>937.0</ele><time>2026-05-03T08:38:46.374Z</time></trkpt><trkpt lat="45.8952933" lon="9.5523967"><ele>937.0</ele><time>2026-05-03T08:38:49.37Z</time></trkpt><trkpt lat="45.8952083" lon="9.5522783"><ele>937.0</ele><time>2026-05-03T08:38:51.373Z</time></trkpt><trkpt lat="45.895165" lon="9.55221"><ele>937.0</ele><time>2026-05-03T08:38:52.373Z</time></trkpt><trkpt lat="45.8951183" lon="9.552135"><ele>937.0</ele><time>2026-05-03T08:38:53.372Z</time></trkpt><trkpt lat="45.8950767" lon="9.5520567"><ele>934.9999999999999</ele><time>2026-05-03T08:38:54.373Z</time></trkpt><trkpt lat="45.8950317" lon="9.5519583"><ele>933.0</ele><time>2026-05-03T08:38:55.373Z</time></trkpt><trkpt lat="45.8950083" lon="9.551855"><ele>931.0</ele><time>2026-05-03T08:38:56.369Z</time></trkpt><trkpt lat="45.8949983" lon="9.551745"><ele>929.0</ele><time>2026-05-03T08:38:57.372Z</time></trkpt><trkpt lat="45.895005" lon="9.551635"><ele>926.9999999999999</ele><time>2026-05-03T08:38:58.373Z</time></trkpt><trkpt lat="45.89504" lon="9.5515233"><ele>925.0</ele><time>2026-05-03T08:38:59.369Z</time></trkpt><trkpt lat="45.8950867" lon="9.5514083"><ele>927.0</ele><time>2026-05-03T08:39:00.372Z</time></trkpt><trkpt lat="45.8951283" lon="9.5512917"><ele>929.0</ele><time>2026-05-03T08:39:01.372Z</time></trkpt><trkpt lat="45.8951767" lon="9.5511683"><ele>931.0</ele><time>2026-05-03T08:39:02.373Z</time></trkpt><trkpt lat="45.8952317" lon="9.5510383"><ele>933.0</ele><time>2026-05-03T08:39:03.369Z</time></trkpt><trkpt lat="45.8952867" lon="9.5509017"><ele>935.0</ele><time>2026-05-03T08:39:04.373Z</time></trkpt><trkpt lat="45.8953417" lon="9.5507567"><ele>935.0000000000001</ele><time>2026-05-03T08:39:05.37Z</time></trkpt><trkpt lat="45.8953883" lon="9.5506133"><ele>935.0</ele><time>2026-05-03T08:39:06.369Z</time></trkpt><trkpt lat="45.8954217" lon="9.5504867"><ele>935.0</ele><time>2026-05-03T08:39:07.369Z</time></trkpt><trkpt lat="45.895435" lon="9.5503783"><ele>935.0</ele><time>2026-05-03T08:39:08.372Z</time></trkpt><trkpt lat="45.8954267" lon="9.5502883"><ele>935.0000000000001</ele><time>2026-05-03T08:39:09.373Z</time></trkpt><trkpt lat="45.89537" lon="9.5502233"><ele>935.0</ele><time>2026-05-03T08:39:11.373Z</time></trkpt><trkpt lat="45.8953117" lon="9.5502733"><ele>935.0000000000001</ele><time>2026-05-03T08:39:13.372Z</time></trkpt><trkpt lat="45.8952667" lon="9.5504117"><ele>935.0</ele><time>2026-05-03T08:39:15.369Z</time></trkpt><trkpt lat="45.89523" lon="9.5505017"><ele>935.0</ele><time>2026-05-03T08:39:16.37Z</time></trkpt><trkpt lat="45.8951783" lon="9.550575"><ele>935.0</ele><time>2026-05-03T08:39:17.369Z</time></trkpt><trkpt lat="45.895105" lon="9.550635"><ele>935.0000000000001</ele><time>2026-05-03T08:39:18.369Z</time></trkpt><trkpt lat="45.89504" lon="9.5506867"><ele>935.0</ele><time>2026-05-03T08:39:19.369Z</time></trkpt><trkpt lat="45.89493" lon="9.5506983"><ele>931.5</ele><time>2026-05-03T08:39:20.371Z</time></trkpt><trkpt lat="45.8948183" lon="9.5507067"><ele>928.0</ele><time>2026-05-03T08:39:21.37Z</time></trkpt><trkpt lat="45.8946717" lon="9.5507067"><ele>924.5</ele><time>2026-05-03T08:39:22.369Z</time></trkpt><trkpt lat="45.8945467" lon="9.5507317"><ele>921.0</ele><time>2026-05-03T08:39:23.37Z</time></trkpt><trkpt lat="45.894455" lon="9.5508033"><ele>921.0</ele><time>2026-05-03T08:39:24.37Z</time></trkpt><trkpt lat="45.89437" lon="9.5508983"><ele>921.0</ele><time>2026-05-03T08:39:25.37Z</time></trkpt><trkpt lat="45.89429" lon="9.5510033"><ele>921.0</ele><time>2026-05-03T08:39:26.369Z</time></trkpt><trkpt lat="45.8942017" lon="9.55111"><ele>921.0</ele><time>2026-05-03T08:39:27.368Z</time></trkpt><trkpt lat="45.894105" lon="9.551215"><ele>917.25</ele><time>2026-05-03T08:39:28.37Z</time></trkpt><trkpt lat="45.8940067" lon="9.5513217"><ele>913.5</ele><time>2026-05-03T08:39:29.373Z</time></trkpt><trkpt lat="45.8939233" lon="9.5514367"><ele>909.75</ele><time>2026-05-03T08:39:30.373Z</time></trkpt><trkpt lat="45.8938383" lon="9.55155"><ele>906.0</ele><time>2026-05-03T08:39:31.374Z</time></trkpt><trkpt lat="45.89375" lon="9.5516567"><ele>906.0</ele><time>2026-05-03T08:39:32.373Z</time></trkpt><trkpt lat="45.8936567" lon="9.5517467"><ele>905.9999999999999</ele><time>2026-05-03T08:39:33.372Z</time></trkpt><trkpt lat="45.8935617" lon="9.5518167"><ele>905.9999999999999</ele><time>2026-05-03T08:39:34.371Z</time></trkpt><trkpt lat="45.8934783" lon="9.5518833"><ele>906.0</ele><time>2026-05-03T08:39:35.373Z</time></trkpt><trkpt lat="45.8934117" lon="9.55197"><ele>906.0</ele><time>2026-05-03T08:39:36.369Z</time></trkpt><trkpt lat="45.8933567" lon="9.55207"><ele>905.8</ele><time>2026-05-03T08:39:37.372Z</time></trkpt><trkpt lat="45.893325" lon="9.5521717"><ele>905.5999999999999</ele><time>2026-05-03T08:39:38.372Z</time></trkpt><trkpt lat="45.8933367" lon="9.55227"><ele>905.4</ele><time>2026-05-03T08:39:39.373Z</time></trkpt><trkpt lat="45.8933583" lon="9.5523767"><ele>905.2</ele><time>2026-05-03T08:39:40.373Z</time></trkpt><trkpt lat="45.8934233" lon="9.5524983"><ele>905.0</ele><time>2026-05-03T08:39:41.373Z</time></trkpt><trkpt lat="45.893565" lon="9.5525967"><ele>905.0</ele><time>2026-05-03T08:39:42.372Z</time></trkpt><trkpt lat="45.893685" lon="9.5527067"><ele>905.0</ele><time>2026-05-03T08:39:43.373Z</time></trkpt><trkpt lat="45.8938117" lon="9.5528083"><ele>905.0</ele><time>2026-05-03T08:39:44.372Z</time></trkpt><trkpt lat="45.893925" lon="9.5528983"><ele>905.0</ele><time>2026-05-03T08:39:45.372Z</time></trkpt><trkpt lat="45.8940167" lon="9.552975"><ele>904.5000000000001</ele><time>2026-05-03T08:39:46.368Z</time></trkpt><trkpt lat="45.894095" lon="9.5530517"><ele>904.0</ele><time>2026-05-03T08:39:47.373Z</time></trkpt><trkpt lat="45.8941433" lon="9.553125"><ele>903.5</ele><time>2026-05-03T08:39:48.368Z</time></trkpt><trkpt lat="45.8941517" lon="9.5532917"><ele>903.0</ele><time>2026-05-03T08:39:50.369Z</time></trkpt><trkpt lat="45.8941467" lon="9.5533917"><ele>902.5000000000001</ele><time>2026-05-03T08:39:51.368Z</time></trkpt><trkpt lat="45.8941083" lon="9.5535117"><ele>902.0</ele><time>2026-05-03T08:39:52.369Z</time></trkpt><trkpt lat="45.894085" lon="9.55364"><ele>902.4000000000001</ele><time>2026-05-03T08:39:53.37Z</time></trkpt><trkpt lat="45.8940367" lon="9.5537217"><ele>902.8000000000001</ele><time>2026-05-03T08:39:54.369Z</time></trkpt><trkpt lat="45.8939933" lon="9.5538033"><ele>903.2</ele><time>2026-05-03T08:39:55.37Z</time></trkpt><trkpt lat="45.8938933" lon="9.55398"><ele>903.6</ele><time>2026-05-03T08:39:57.369Z</time></trkpt><trkpt lat="45.8938333" lon="9.5541"><ele>904.0</ele><time>2026-05-03T08:39:58.371Z</time></trkpt><trkpt lat="45.8938083" lon="9.5542217"><ele>904.0</ele><time>2026-05-03T08:39:59.373Z</time></trkpt><trkpt lat="45.893785" lon="9.5543733"><ele>904.0000000000001</ele><time>2026-05-03T08:40:00.369Z</time></trkpt><trkpt lat="45.8937733" lon="9.5545233"><ele>904.0000000000001</ele><time>2026-05-03T08:40:01.373Z</time></trkpt><trkpt lat="45.893765" lon="9.554675"><ele>904.0</ele><time>2026-05-03T08:40:02.372Z</time></trkpt><trkpt lat="45.893755" lon="9.5548067"><ele>904.0</ele><time>2026-05-03T08:40:03.37Z</time></trkpt><trkpt lat="45.89372" lon="9.5549417"><ele>902.8333333333333</ele><time>2026-05-03T08:40:04.369Z</time></trkpt><trkpt lat="45.893665" lon="9.5550667"><ele>901.6666666666666</ele><time>2026-05-03T08:40:05.371Z</time></trkpt><trkpt lat="45.8936017" lon="9.5551733"><ele>900.5</ele><time>2026-05-03T08:40:06.37Z</time></trkpt><trkpt lat="45.893545" lon="9.5552717"><ele>899.3333333333333</ele><time>2026-05-03T08:40:07.375Z</time></trkpt><trkpt lat="45.8935033" lon="9.5553567"><ele>898.1666666666666</ele><time>2026-05-03T08:40:08.374Z</time></trkpt><trkpt lat="45.893475" lon="9.5554433"><ele>897.0</ele><time>2026-05-03T08:40:09.373Z</time></trkpt><trkpt lat="45.8934717" lon="9.55561"><ele>893.8</ele><time>2026-05-03T08:40:11.373Z</time></trkpt><trkpt lat="45.8935333" lon="9.5557467"><ele>890.6</ele><time>2026-05-03T08:40:13.373Z</time></trkpt><trkpt lat="45.893585" lon="9.5558183"><ele>887.3999999999999</ele><time>2026-05-03T08:40:14.37Z</time></trkpt><trkpt lat="45.8936567" lon="9.5558883"><ele>884.1999999999999</ele><time>2026-05-03T08:40:15.37Z</time></trkpt><trkpt lat="45.8937483" lon="9.55595"><ele>881.0</ele><time>2026-05-03T08:40:16.37Z</time></trkpt><trkpt lat="45.89387" lon="9.55601"><ele>881.0</ele><time>2026-05-03T08:40:17.373Z</time></trkpt><trkpt lat="45.89399" lon="9.5560533"><ele>880.9999999999999</ele><time>2026-05-03T08:40:18.372Z</time></trkpt><trkpt lat="45.894095" lon="9.5561083"><ele>880.9999999999999</ele><time>2026-05-03T08:40:19.37Z</time></trkpt><trkpt lat="45.8941783" lon="9.5561767"><ele>881.0</ele><time>2026-05-03T08:40:20.373Z</time></trkpt><trkpt lat="45.8942433" lon="9.5562483"><ele>881.0</ele><time>2026-05-03T08:40:21.37Z</time></trkpt><trkpt lat="45.89429" lon="9.5563233"><ele>880.8</ele><time>2026-05-03T08:40:22.369Z</time></trkpt><trkpt lat="45.894305" lon="9.5564433"><ele>880.5999999999999</ele><time>2026-05-03T08:40:24.369Z</time></trkpt><trkpt lat="45.8942217" lon="9.5564817"><ele>880.4</ele><time>2026-05-03T08:40:26.37Z</time></trkpt><trkpt lat="45.8941117" lon="9.5564683"><ele>880.2</ele><time>2026-05-03T08:40:28.37Z</time></trkpt><trkpt lat="45.894" lon="9.5564167"><ele>880.0</ele><time>2026-05-03T08:40:30.37Z</time></trkpt><trkpt lat="45.8939333" lon="9.556395"><ele>877.6</ele><time>2026-05-03T08:40:31.369Z</time></trkpt><trkpt lat="45.8938533" lon="9.5563783"><ele>875.2</ele><time>2026-05-03T08:40:32.371Z</time></trkpt><trkpt lat="45.8937583" lon="9.5563933"><ele>872.8</ele><time>2026-05-03T08:40:33.372Z</time></trkpt><trkpt lat="45.89365" lon="9.5564283"><ele>870.4</ele><time>2026-05-03T08:40:34.37Z</time></trkpt><trkpt lat="45.89356" lon="9.556435"><ele>868.0</ele><time>2026-05-03T08:40:35.372Z</time></trkpt><trkpt lat="45.8934717" lon="9.5564367"><ele>866.4</ele><time>2026-05-03T08:40:36.369Z</time></trkpt><trkpt lat="45.8933933" lon="9.556435"><ele>864.8</ele><time>2026-05-03T08:40:37.37Z</time></trkpt><trkpt lat="45.8933117" lon="9.5564583"><ele>863.2</ele><time>2026-05-03T08:40:38.37Z</time></trkpt><trkpt lat="45.8932183" lon="9.5565033"><ele>861.6</ele><time>2026-05-03T08:40:39.37Z</time></trkpt><trkpt lat="45.89312" lon="9.5565867"><ele>860.0</ele><time>2026-05-03T08:40:40.372Z</time></trkpt><trkpt lat="45.8930417" lon="9.5566717"><ele>860.0</ele><time>2026-05-03T08:40:41.372Z</time></trkpt><trkpt lat="45.892975" lon="9.55677"><ele>860.0</ele><time>2026-05-03T08:40:42.372Z</time></trkpt><trkpt lat="45.89293" lon="9.5568883"><ele>860.0</ele><time>2026-05-03T08:40:43.373Z</time></trkpt><trkpt lat="45.8929" lon="9.5570133"><ele>860.0</ele><time>2026-05-03T08:40:44.372Z</time></trkpt><trkpt lat="45.8928767" lon="9.5571383"><ele>860.0</ele><time>2026-05-03T08:40:45.373Z</time></trkpt><trkpt lat="45.89285" lon="9.55725"><ele>859.8</ele><time>2026-05-03T08:40:46.37Z</time></trkpt><trkpt lat="45.8928167" lon="9.5573367"><ele>859.6</ele><time>2026-05-03T08:40:47.369Z</time></trkpt><trkpt lat="45.89271" lon="9.5574117"><ele>859.4000000000001</ele><time>2026-05-03T08:40:49.37Z</time></trkpt><trkpt lat="45.8926417" lon="9.557455"><ele>859.2</ele><time>2026-05-03T08:40:50.371Z</time></trkpt><trkpt lat="45.8925633" lon="9.5575117"><ele>859.0</ele><time>2026-05-03T08:40:51.37Z</time></trkpt><trkpt lat="45.8924717" lon="9.5575833"><ele>857.75</ele><time>2026-05-03T08:40:52.371Z</time></trkpt><trkpt lat="45.8923583" lon="9.5576617"><ele>856.5</ele><time>2026-05-03T08:40:53.37Z</time></trkpt><trkpt lat="45.8922417" lon="9.55775"><ele>855.25</ele><time>2026-05-03T08:40:54.369Z</time></trkpt><trkpt lat="45.89212" lon="9.5578417"><ele>854.0</ele><time>2026-05-03T08:40:55.369Z</time></trkpt><trkpt lat="45.8919983" lon="9.55792"><ele>852.8000000000001</ele><time>2026-05-03T08:40:56.37Z</time></trkpt><trkpt lat="45.8918867" lon="9.558005"><ele>851.6000000000001</ele><time>2026-05-03T08:40:57.369Z</time></trkpt><trkpt lat="45.8917817" lon="9.5580783"><ele>850.4</ele><time>2026-05-03T08:40:58.37Z</time></trkpt><trkpt lat="45.8916817" lon="9.558125"><ele>849.2</ele><time>2026-05-03T08:40:59.37Z</time></trkpt><trkpt lat="45.8915867" lon="9.558165"><ele>848.0</ele><time>2026-05-03T08:41:00.369Z</time></trkpt><trkpt lat="45.8914833" lon="9.5582033"><ele>850.0</ele><time>2026-05-03T08:41:01.373Z</time></trkpt><trkpt lat="45.8913717" lon="9.5582467"><ele>852.0</ele><time>2026-05-03T08:41:02.371Z</time></trkpt><trkpt lat="45.8912367" lon="9.5582683"><ele>854.0</ele><time>2026-05-03T08:41:03.369Z</time></trkpt><trkpt lat="45.891085" lon="9.5583183"><ele>856.0</ele><time>2026-05-03T08:41:04.373Z</time></trkpt><trkpt lat="45.890915" lon="9.5583933"><ele>856.0</ele><time>2026-05-03T08:41:05.372Z</time></trkpt><trkpt lat="45.89074" lon="9.5584667"><ele>856.0</ele><time>2026-05-03T08:41:06.369Z</time></trkpt><trkpt lat="45.89059" lon="9.55852"><ele>856.0</ele><time>2026-05-03T08:41:07.372Z</time></trkpt><trkpt lat="45.8904617" lon="9.5585567"><ele>856.0</ele><time>2026-05-03T08:41:08.373Z</time></trkpt><trkpt lat="45.8903683" lon="9.5586033"><ele>855.9999999999999</ele><time>2026-05-03T08:41:09.372Z</time></trkpt><trkpt lat="45.8903" lon="9.55867"><ele>855.9999999999999</ele><time>2026-05-03T08:41:10.372Z</time></trkpt><trkpt lat="45.8902267" lon="9.558735"><ele>856.0</ele><time>2026-05-03T08:41:11.373Z</time></trkpt><trkpt lat="45.8901367" lon="9.55879"><ele>856.0</ele><time>2026-05-03T08:41:12.373Z</time></trkpt><trkpt lat="45.89002" lon="9.5588467"><ele>855.5</ele><time>2026-05-03T08:41:13.373Z</time></trkpt><trkpt lat="45.8898733" lon="9.55889"><ele>855.0</ele><time>2026-05-03T08:41:14.372Z</time></trkpt><trkpt lat="45.88972" lon="9.5589133"><ele>854.5</ele><time>2026-05-03T08:41:15.372Z</time></trkpt><trkpt lat="45.8895833" lon="9.558935"><ele>854.0</ele><time>2026-05-03T08:41:16.372Z</time></trkpt><trkpt lat="45.8894633" lon="9.5589567"><ele>854.0000000000001</ele><time>2026-05-03T08:41:17.37Z</time></trkpt><trkpt lat="45.88936" lon="9.5589917"><ele>854.0</ele><time>2026-05-03T08:41:18.37Z</time></trkpt><trkpt lat="45.8892733" lon="9.5590467"><ele>854.0</ele><time>2026-05-03T08:41:19.371Z</time></trkpt><trkpt lat="45.8892" lon="9.5591117"><ele>854.0</ele><time>2026-05-03T08:41:20.37Z</time></trkpt><trkpt lat="45.8891417" lon="9.5591817"><ele>854.0000000000001</ele><time>2026-05-03T08:41:21.369Z</time></trkpt><trkpt lat="45.8891017" lon="9.5592517"><ele>854.0</ele><time>2026-05-03T08:41:22.371Z</time></trkpt><trkpt lat="45.8890683" lon="9.5593983"><ele>852.4000000000001</ele><time>2026-05-03T08:41:24.372Z</time></trkpt><trkpt lat="45.8890683" lon="9.5596"><ele>850.8000000000001</ele><time>2026-05-03T08:41:26.372Z</time></trkpt><trkpt lat="45.8890817" lon="9.55974"><ele>849.2</ele><time>2026-05-03T08:41:27.372Z</time></trkpt><trkpt lat="45.8891083" lon="9.5598683"><ele>847.5999999999999</ele><time>2026-05-03T08:41:28.372Z</time></trkpt><trkpt lat="45.8891433" lon="9.5599833"><ele>846.0</ele><time>2026-05-03T08:41:29.372Z</time></trkpt><trkpt lat="45.8891683" lon="9.56009"><ele>846.0</ele><time>2026-05-03T08:41:30.369Z</time></trkpt><trkpt lat="45.8891167" lon="9.5602367"><ele>846.0</ele><time>2026-05-03T08:41:32.37Z</time></trkpt><trkpt lat="45.8890317" lon="9.560305"><ele>846.0</ele><time>2026-05-03T08:41:33.373Z</time></trkpt><trkpt lat="45.88894" lon="9.56038"><ele>846.0</ele><time>2026-05-03T08:41:34.375Z</time></trkpt><trkpt lat="45.8888117" lon="9.5604417"><ele>841.5</ele><time>2026-05-03T08:41:35.369Z</time></trkpt><trkpt lat="45.8886733" lon="9.56051"><ele>837.0</ele><time>2026-05-03T08:41:36.374Z</time></trkpt><trkpt lat="45.88853" lon="9.560585"><ele>832.5</ele><time>2026-05-03T08:41:37.37Z</time></trkpt><trkpt lat="45.888395" lon="9.5606583"><ele>828.0</ele><time>2026-05-03T08:41:38.371Z</time></trkpt><trkpt lat="45.88828" lon="9.5607383"><ele>828.0</ele><time>2026-05-03T08:41:39.373Z</time></trkpt><trkpt lat="45.8881817" lon="9.5608317"><ele>828.0</ele><time>2026-05-03T08:41:40.373Z</time></trkpt><trkpt lat="45.8880967" lon="9.56095"><ele>828.0</ele><time>2026-05-03T08:41:41.373Z</time></trkpt><trkpt lat="45.8880117" lon="9.5610817"><ele>828.0</ele><time>2026-05-03T08:41:42.373Z</time></trkpt><trkpt lat="45.887925" lon="9.56122"><ele>826.75</ele><time>2026-05-03T08:41:43.37Z</time></trkpt><trkpt lat="45.8878217" lon="9.561355"><ele>825.5</ele><time>2026-05-03T08:41:44.372Z</time></trkpt><trkpt lat="45.88772" lon="9.5614967"><ele>824.25</ele><time>2026-05-03T08:41:45.372Z</time></trkpt><trkpt lat="45.88762" lon="9.561625"><ele>823.0</ele><time>2026-05-03T08:41:46.372Z</time></trkpt><trkpt lat="45.887525" lon="9.5617433"><ele>823.0</ele><time>2026-05-03T08:41:47.37Z</time></trkpt><trkpt lat="45.8874333" lon="9.5618533"><ele>823.0</ele><time>2026-05-03T08:41:48.372Z</time></trkpt><trkpt lat="45.8873467" lon="9.5619567"><ele>823.0</ele><time>2026-05-03T08:41:49.372Z</time></trkpt><trkpt lat="45.8872633" lon="9.562065"><ele>823.0</ele><time>2026-05-03T08:41:50.37Z</time></trkpt><trkpt lat="45.8871917" lon="9.562175"><ele>823.0</ele><time>2026-05-03T08:41:51.37Z</time></trkpt><trkpt lat="45.887135" lon="9.5622867"><ele>821.3333333333333</ele><time>2026-05-03T08:41:52.369Z</time></trkpt><trkpt lat="45.887085" lon="9.5624017"><ele>819.6666666666666</ele><time>2026-05-03T08:41:53.371Z</time></trkpt><trkpt lat="45.8870433" lon="9.5625133"><ele>818.0</ele><time>2026-05-03T08:41:54.372Z</time></trkpt><trkpt lat="45.8870067" lon="9.5626133"><ele>816.3333333333333</ele><time>2026-05-03T08:41:55.372Z</time></trkpt><trkpt lat="45.88697" lon="9.56272"><ele>814.6666666666666</ele><time>2026-05-03T08:41:56.373Z</time></trkpt><trkpt lat="45.88694" lon="9.5628483"><ele>813.0</ele><time>2026-05-03T08:41:57.373Z</time></trkpt><trkpt lat="45.88691" lon="9.5629883"><ele>809.75</ele><time>2026-05-03T08:41:58.372Z</time></trkpt><trkpt lat="45.88689" lon="9.563145"><ele>806.5</ele><time>2026-05-03T08:41:59.373Z</time></trkpt><trkpt lat="45.8868833" lon="9.563325"><ele>803.25</ele><time>2026-05-03T08:42:00.373Z</time></trkpt><trkpt lat="45.8868933" lon="9.56351"><ele>800.0</ele><time>2026-05-03T08:42:01.372Z</time></trkpt><trkpt lat="45.8869017" lon="9.5636817"><ele>798.4</ele><time>2026-05-03T08:42:02.373Z</time></trkpt><trkpt lat="45.8869117" lon="9.56382"><ele>796.8</ele><time>2026-05-03T08:42:03.37Z</time></trkpt><trkpt lat="45.8869233" lon="9.5639283"><ele>795.2</ele><time>2026-05-03T08:42:04.37Z</time></trkpt><trkpt lat="45.8869233" lon="9.5640217"><ele>793.6</ele><time>2026-05-03T08:42:05.371Z</time></trkpt><trkpt lat="45.8869" lon="9.5641917"><ele>792.0</ele><time>2026-05-03T08:42:07.369Z</time></trkpt><trkpt lat="45.886865" lon="9.5643167"><ele>792.0</ele><time>2026-05-03T08:42:08.374Z</time></trkpt><trkpt lat="45.88681" lon="9.5644617"><ele>792.0</ele><time>2026-05-03T08:42:09.373Z</time></trkpt><trkpt lat="45.8867433" lon="9.564665"><ele>792.0</ele><time>2026-05-03T08:42:10.374Z</time></trkpt><trkpt lat="45.8866833" lon="9.5648583"><ele>792.0</ele><time>2026-05-03T08:42:11.374Z</time></trkpt><trkpt lat="45.8866217" lon="9.5650517"><ele>793.25</ele><time>2026-05-03T08:42:12.369Z</time></trkpt><trkpt lat="45.8865617" lon="9.5652317"><ele>794.5</ele><time>2026-05-03T08:42:13.371Z</time></trkpt><trkpt lat="45.8865033" lon="9.5653833"><ele>795.75</ele><time>2026-05-03T08:42:14.37Z</time></trkpt><trkpt lat="45.88645" lon="9.5655133"><ele>797.0</ele><time>2026-05-03T08:42:15.371Z</time></trkpt><trkpt lat="45.8863967" lon="9.5656283"><ele>797.0</ele><time>2026-05-03T08:42:16.369Z</time></trkpt><trkpt lat="45.8863483" lon="9.5657217"><ele>797.0</ele><time>2026-05-03T08:42:17.37Z</time></trkpt><trkpt lat="45.8863067" lon="9.565835"><ele>797.0</ele><time>2026-05-03T08:42:19.371Z</time></trkpt><trkpt lat="45.8864067" lon="9.5657917"><ele>797.0</ele><time>2026-05-03T08:42:23.372Z</time></trkpt><trkpt lat="45.8864633" lon="9.5656867"><ele>797.0</ele><time>2026-05-03T08:42:24.372Z</time></trkpt><trkpt lat="45.88655" lon="9.5655533"><ele>797.0</ele><time>2026-05-03T08:42:25.373Z</time></trkpt><trkpt lat="45.8866567" lon="9.5653867"><ele>797.0</ele><time>2026-05-03T08:42:26.372Z</time></trkpt><trkpt lat="45.88675" lon="9.5652333"><ele>797.0</ele><time>2026-05-03T08:42:27.372Z</time></trkpt><trkpt lat="45.886845" lon="9.5650867"><ele>797.0</ele><time>2026-05-03T08:42:28.371Z</time></trkpt><trkpt lat="45.8869517" lon="9.5649683"><ele>795.75</ele><time>2026-05-03T08:42:29.37Z</time></trkpt><trkpt lat="45.8870433" lon="9.5648483"><ele>794.5</ele><time>2026-05-03T08:42:30.369Z</time></trkpt><trkpt lat="45.8871267" lon="9.5646867"><ele>793.25</ele><time>2026-05-03T08:42:31.374Z</time></trkpt><trkpt lat="45.8872033" lon="9.5645133"><ele>792.0</ele><time>2026-05-03T08:42:32.37Z</time></trkpt><trkpt lat="45.88727" lon="9.5643383"><ele>792.0</ele><time>2026-05-03T08:42:33.369Z</time></trkpt><trkpt lat="45.887325" lon="9.56414"><ele>792.0</ele><time>2026-05-03T08:42:34.37Z</time></trkpt><trkpt lat="45.8873667" lon="9.5639217"><ele>792.0</ele><time>2026-05-03T08:42:35.374Z</time></trkpt><trkpt lat="45.8874" lon="9.5637"><ele>794.6666666666667</ele><time>2026-05-03T08:42:36.373Z</time></trkpt><trkpt lat="45.8874283" lon="9.56348"><ele>797.3333333333334</ele><time>2026-05-03T08:42:37.37Z</time></trkpt><trkpt lat="45.887475" lon="9.563265"><ele>800.0</ele><time>2026-05-03T08:42:38.37Z</time></trkpt><trkpt lat="45.887545" lon="9.563065"><ele>791.6666666666667</ele><time>2026-05-03T08:42:39.369Z</time></trkpt><trkpt lat="45.8876417" lon="9.5628683"><ele>783.3333333333333</ele><time>2026-05-03T08:42:40.369Z</time></trkpt><trkpt lat="45.8877367" lon="9.5626883"><ele>775.0</ele><time>2026-05-03T08:42:41.371Z</time></trkpt><trkpt lat="45.887845" lon="9.5625417"><ele>775.0</ele><time>2026-05-03T08:42:42.37Z</time></trkpt><trkpt lat="45.8879467" lon="9.5624167"><ele>775.0</ele><time>2026-05-03T08:42:43.37Z</time></trkpt><trkpt lat="45.8880383" lon="9.5623567"><ele>775.0</ele><time>2026-05-03T08:42:44.371Z</time></trkpt><trkpt lat="45.8881333" lon="9.5623233"><ele>775.0</ele><time>2026-05-03T08:42:45.37Z</time></trkpt><trkpt lat="45.888235" lon="9.5623617"><ele>775.0</ele><time>2026-05-03T08:42:46.37Z</time></trkpt><trkpt lat="45.88833" lon="9.562375"><ele>775.0</ele><time>2026-05-03T08:42:47.373Z</time></trkpt><trkpt lat="45.88841" lon="9.5623617"><ele>775.0</ele><time>2026-05-03T08:42:48.37Z</time></trkpt><trkpt lat="45.888475" lon="9.5622967"><ele>775.0</ele><time>2026-05-03T08:42:49.372Z</time></trkpt><trkpt lat="45.8885233" lon="9.5621833"><ele>775.0</ele><time>2026-05-03T08:42:50.373Z</time></trkpt><trkpt lat="45.888545" lon="9.56203"><ele>775.0</ele><time>2026-05-03T08:42:51.373Z</time></trkpt><trkpt lat="45.888585" lon="9.5618917"><ele>776.6666666666666</ele><time>2026-05-03T08:42:52.373Z</time></trkpt><trkpt lat="45.8886383" lon="9.5617767"><ele>778.3333333333333</ele><time>2026-05-03T08:42:53.37Z</time></trkpt><trkpt lat="45.8886983" lon="9.5616867"><ele>780.0</ele><time>2026-05-03T08:42:54.372Z</time></trkpt><trkpt lat="45.888765" lon="9.56165"><ele>781.6666666666667</ele><time>2026-05-03T08:42:55.373Z</time></trkpt><trkpt lat="45.888845" lon="9.5616767"><ele>783.3333333333334</ele><time>2026-05-03T08:42:56.374Z</time></trkpt><trkpt lat="45.8889467" lon="9.5617233"><ele>785.0</ele><time>2026-05-03T08:42:57.37Z</time></trkpt><trkpt lat="45.8890683" lon="9.561715"><ele>785.0</ele><time>2026-05-03T08:42:58.369Z</time></trkpt><trkpt lat="45.88919" lon="9.5617"><ele>785.0</ele><time>2026-05-03T08:42:59.373Z</time></trkpt><trkpt lat="45.8893283" lon="9.5616867"><ele>785.0</ele><time>2026-05-03T08:43:00.37Z</time></trkpt><trkpt lat="45.8894583" lon="9.5616983"><ele>785.0</ele><time>2026-05-03T08:43:01.374Z</time></trkpt><trkpt lat="45.8895983" lon="9.56177"><ele>787.0</ele><time>2026-05-03T08:43:02.37Z</time></trkpt><trkpt lat="45.889725" lon="9.56186"><ele>789.0</ele><time>2026-05-03T08:43:03.373Z</time></trkpt><trkpt lat="45.8898283" lon="9.561975"><ele>791.0</ele><time>2026-05-03T08:43:04.374Z</time></trkpt><trkpt lat="45.8899267" lon="9.5620983"><ele>793.0</ele><time>2026-05-03T08:43:05.372Z</time></trkpt><trkpt lat="45.8900367" lon="9.5621983"><ele>785.75</ele><time>2026-05-03T08:43:06.372Z</time></trkpt><trkpt lat="45.890155" lon="9.5622717"><ele>778.5</ele><time>2026-05-03T08:43:07.373Z</time></trkpt><trkpt lat="45.8902867" lon="9.562295"><ele>771.25</ele><time>2026-05-03T08:43:08.374Z</time></trkpt><trkpt lat="45.8904283" lon="9.5623033"><ele>764.0</ele><time>2026-05-03T08:43:09.373Z</time></trkpt><trkpt lat="45.8905917" lon="9.56228"><ele>764.0</ele><time>2026-05-03T08:43:10.373Z</time></trkpt><trkpt lat="45.8907567" lon="9.562275"><ele>764.0</ele><time>2026-05-03T08:43:11.369Z</time></trkpt><trkpt lat="45.8909183" lon="9.5623033"><ele>764.0</ele><time>2026-05-03T08:43:12.373Z</time></trkpt><trkpt lat="45.89107" lon="9.562345"><ele>764.75</ele><time>2026-05-03T08:43:13.373Z</time></trkpt><trkpt lat="45.8912133" lon="9.562395"><ele>765.5</ele><time>2026-05-03T08:43:14.37Z</time></trkpt><trkpt lat="45.8913433" lon="9.5624633"><ele>766.25</ele><time>2026-05-03T08:43:15.37Z</time></trkpt><trkpt lat="45.8914583" lon="9.562565"><ele>767.0</ele><time>2026-05-03T08:43:16.373Z</time></trkpt><trkpt lat="45.8915433" lon="9.5626817"><ele>767.0</ele><time>2026-05-03T08:43:17.369Z</time></trkpt><trkpt lat="45.8916017" lon="9.5628067"><ele>767.0</ele><time>2026-05-03T08:43:18.371Z</time></trkpt><trkpt lat="45.891665" lon="9.5628783"><ele>767.0</ele><time>2026-05-03T08:43:19.373Z</time></trkpt><trkpt lat="45.89172" lon="9.5629383"><ele>767.0</ele><time>2026-05-03T08:43:20.371Z</time></trkpt><trkpt lat="45.8917967" lon="9.56294"><ele>767.0</ele><time>2026-05-03T08:43:21.37Z</time></trkpt><trkpt lat="45.8918667" lon="9.562905"><ele>767.0</ele><time>2026-05-03T08:43:22.37Z</time></trkpt><trkpt lat="45.891945" lon="9.562835"><ele>760.25</ele><time>2026-05-03T08:43:23.371Z</time></trkpt><trkpt lat="45.8920417" lon="9.56273"><ele>753.5</ele><time>2026-05-03T08:43:24.37Z</time></trkpt><trkpt lat="45.8921667" lon="9.5626217"><ele>746.75</ele><time>2026-05-03T08:43:25.37Z</time></trkpt><trkpt lat="45.8922717" lon="9.5625583"><ele>740.0</ele><time>2026-05-03T08:43:26.373Z</time></trkpt><trkpt lat="45.8923867" lon="9.5624583"><ele>740.0</ele><time>2026-05-03T08:43:27.372Z</time></trkpt><trkpt lat="45.8925" lon="9.5623083"><ele>740.0</ele><time>2026-05-03T08:43:28.371Z</time></trkpt><trkpt lat="45.892595" lon="9.56217"><ele>740.0</ele><time>2026-05-03T08:43:29.374Z</time></trkpt><trkpt lat="45.892685" lon="9.5620433"><ele>740.0</ele><time>2026-05-03T08:43:30.369Z</time></trkpt><trkpt lat="45.892775" lon="9.561925"><ele>740.2</ele><time>2026-05-03T08:43:31.371Z</time></trkpt><trkpt lat="45.892865" lon="9.5617983"><ele>740.4</ele><time>2026-05-03T08:43:32.37Z</time></trkpt><trkpt lat="45.892945" lon="9.5616683"><ele>740.5999999999999</ele><time>2026-05-03T08:43:33.369Z</time></trkpt><trkpt lat="45.8930167" lon="9.5615717"><ele>740.8</ele><time>2026-05-03T08:43:34.369Z</time></trkpt><trkpt lat="45.8930783" lon="9.5615133"><ele>741.0</ele><time>2026-05-03T08:43:35.37Z</time></trkpt><trkpt lat="45.8931633" lon="9.561485"><ele>741.0</ele><time>2026-05-03T08:43:36.37Z</time></trkpt><trkpt lat="45.8932817" lon="9.5614667"><ele>741.0</ele><time>2026-05-03T08:43:37.371Z</time></trkpt><trkpt lat="45.8933983" lon="9.5614633"><ele>741.0</ele><time>2026-05-03T08:43:38.371Z</time></trkpt><trkpt lat="45.893515" lon="9.5614783"><ele>741.0</ele><time>2026-05-03T08:43:39.37Z</time></trkpt><trkpt lat="45.8936233" lon="9.5615183"><ele>740.5</ele><time>2026-05-03T08:43:40.369Z</time></trkpt><trkpt lat="45.8937067" lon="9.561565"><ele>740.0</ele><time>2026-05-03T08:43:41.372Z</time></trkpt><trkpt lat="45.893775" lon="9.5616167"><ele>739.5</ele><time>2026-05-03T08:43:42.368Z</time></trkpt><trkpt lat="45.89384" lon="9.561675"><ele>739.0</ele><time>2026-05-03T08:43:43.37Z</time></trkpt><trkpt lat="45.8938767" lon="9.5617683"><ele>738.5</ele><time>2026-05-03T08:43:44.373Z</time></trkpt><trkpt lat="45.8939017" lon="9.5618717"><ele>738.0</ele><time>2026-05-03T08:43:45.37Z</time></trkpt><trkpt lat="45.89389" lon="9.5620067"><ele>739.25</ele><time>2026-05-03T08:43:46.372Z</time></trkpt><trkpt lat="45.8938733" lon="9.56215"><ele>740.5</ele><time>2026-05-03T08:43:47.372Z</time></trkpt><trkpt lat="45.8938167" lon="9.562315"><ele>741.75</ele><time>2026-05-03T08:43:48.37Z</time></trkpt><trkpt lat="45.8936917" lon="9.5625433"><ele>743.0</ele><time>2026-05-03T08:43:49.372Z</time></trkpt><trkpt lat="45.893615" lon="9.56269"><ele>743.0</ele><time>2026-05-03T08:43:50.373Z</time></trkpt><trkpt lat="45.8935333" lon="9.5628267"><ele>743.0</ele><time>2026-05-03T08:43:51.37Z</time></trkpt><trkpt lat="45.8934483" lon="9.5629383"><ele>743.0</ele><time>2026-05-03T08:43:52.37Z</time></trkpt><trkpt lat="45.89337" lon="9.56304"><ele>743.0</ele><time>2026-05-03T08:43:53.37Z</time></trkpt><trkpt lat="45.8933167" lon="9.5631217"><ele>743.0</ele><time>2026-05-03T08:43:54.373Z</time></trkpt><trkpt lat="45.8932583" lon="9.56329"><ele>740.75</ele><time>2026-05-03T08:43:56.373Z</time></trkpt><trkpt lat="45.893305" lon="9.5634583"><ele>738.5</ele><time>2026-05-03T08:43:58.372Z</time></trkpt><trkpt lat="45.893365" lon="9.563575"><ele>736.25</ele><time>2026-05-03T08:43:59.372Z</time></trkpt><trkpt lat="45.8934783" lon="9.5637083"><ele>734.0</ele><time>2026-05-03T08:44:00.372Z</time></trkpt><trkpt lat="45.8935833" lon="9.563855"><ele>737.0</ele><time>2026-05-03T08:44:01.369Z</time></trkpt><trkpt lat="45.8936533" lon="9.56399"><ele>740.0</ele><time>2026-05-03T08:44:02.374Z</time></trkpt><trkpt lat="45.8937217" lon="9.5641017"><ele>743.0</ele><time>2026-05-03T08:44:03.373Z</time></trkpt><trkpt lat="45.8937717" lon="9.56419"><ele>746.0</ele><time>2026-05-03T08:44:04.37Z</time></trkpt><trkpt lat="45.8938217" lon="9.5642483"><ele>749.0</ele><time>2026-05-03T08:44:05.372Z</time></trkpt><trkpt lat="45.8938917" lon="9.5642533"><ele>752.0</ele><time>2026-05-03T08:44:06.372Z</time></trkpt><trkpt lat="45.8939617" lon="9.56424"><ele>752.0</ele><time>2026-05-03T08:44:07.369Z</time></trkpt><trkpt lat="45.8940233" lon="9.5641367"><ele>752.0</ele><time>2026-05-03T08:44:08.37Z</time></trkpt><trkpt lat="45.89404" lon="9.5639483"><ele>752.0</ele><time>2026-05-03T08:44:09.371Z</time></trkpt><trkpt lat="45.8940167" lon="9.5637083"><ele>752.0</ele><time>2026-05-03T08:44:10.37Z</time></trkpt><trkpt lat="45.89402" lon="9.5635433"><ele>751.2</ele><time>2026-05-03T08:44:11.37Z</time></trkpt><trkpt lat="45.89404" lon="9.56342"><ele>750.4000000000001</ele><time>2026-05-03T08:44:12.372Z</time></trkpt><trkpt lat="45.8940733" lon="9.5633183"><ele>749.5999999999999</ele><time>2026-05-03T08:44:13.37Z</time></trkpt><trkpt lat="45.894125" lon="9.5632283"><ele>748.8</ele><time>2026-05-03T08:44:14.372Z</time></trkpt><trkpt lat="45.894265" lon="9.5631517"><ele>748.0</ele><time>2026-05-03T08:44:15.372Z</time></trkpt><trkpt lat="45.8944433" lon="9.5631267"><ele>754.6666666666667</ele><time>2026-05-03T08:44:16.368Z</time></trkpt><trkpt lat="45.894605" lon="9.56308"><ele>761.3333333333334</ele><time>2026-05-03T08:44:17.37Z</time></trkpt><trkpt lat="45.8947667" lon="9.5630117"><ele>768.0</ele><time>2026-05-03T08:44:18.37Z</time></trkpt><trkpt lat="45.8949233" lon="9.5629283"><ele>765.0</ele><time>2026-05-03T08:44:19.371Z</time></trkpt><trkpt lat="45.8950783" lon="9.562815"><ele>762.0</ele><time>2026-05-03T08:44:20.371Z</time></trkpt><trkpt lat="45.8952233" lon="9.5626767"><ele>759.0</ele><time>2026-05-03T08:44:21.371Z</time></trkpt><trkpt lat="45.8953633" lon="9.562525"><ele>766.3333333333333</ele><time>2026-05-03T08:44:22.37Z</time></trkpt><trkpt lat="45.8955067" lon="9.56237"><ele>773.6666666666666</ele><time>2026-05-03T08:44:23.371Z</time></trkpt><trkpt lat="45.89565" lon="9.5622167"><ele>781.0</ele><time>2026-05-03T08:44:24.373Z</time></trkpt><trkpt lat="45.8957933" lon="9.5620717"><ele>784.3333333333333</ele><time>2026-05-03T08:44:25.372Z</time></trkpt><trkpt lat="45.895925" lon="9.5619383"><ele>787.6666666666667</ele><time>2026-05-03T08:44:26.373Z</time></trkpt><trkpt lat="45.896045" lon="9.5618067"><ele>791.0</ele><time>2026-05-03T08:44:27.372Z</time></trkpt><trkpt lat="45.89615" lon="9.5616667"><ele>791.0</ele><time>2026-05-03T08:44:28.369Z</time></trkpt><trkpt lat="45.896245" lon="9.5615017"><ele>791.0</ele><time>2026-05-03T08:44:29.37Z</time></trkpt><trkpt lat="45.8963233" lon="9.5613133"><ele>791.0</ele><time>2026-05-03T08:44:30.371Z</time></trkpt><trkpt lat="45.896395" lon="9.561145"><ele>791.0</ele><time>2026-05-03T08:44:31.37Z</time></trkpt><trkpt lat="45.8964617" lon="9.5610183"><ele>791.0</ele><time>2026-05-03T08:44:32.37Z</time></trkpt><trkpt lat="45.8965283" lon="9.5609317"><ele>791.0</ele><time>2026-05-03T08:44:33.372Z</time></trkpt><trkpt lat="45.8966317" lon="9.5609133"><ele>791.0</ele><time>2026-05-03T08:44:35.371Z</time></trkpt><trkpt lat="45.8967033" lon="9.5609917"><ele>791.0</ele><time>2026-05-03T08:44:37.371Z</time></trkpt><trkpt lat="45.8966833" lon="9.5610983"><ele>791.0</ele><time>2026-05-03T08:44:38.373Z</time></trkpt><trkpt lat="45.8966433" lon="9.5612283"><ele>791.0</ele><time>2026-05-03T08:44:39.371Z</time></trkpt><trkpt lat="45.8965883" lon="9.5613967"><ele>791.0</ele><time>2026-05-03T08:44:40.372Z</time></trkpt><trkpt lat="45.896535" lon="9.5615917"><ele>791.0</ele><time>2026-05-03T08:44:41.371Z</time></trkpt><trkpt lat="45.896495" lon="9.5617883"><ele>791.0</ele><time>2026-05-03T08:44:42.373Z</time></trkpt><trkpt lat="45.8964783" lon="9.5619683"><ele>792.75</ele><time>2026-05-03T08:44:43.373Z</time></trkpt><trkpt lat="45.8964683" lon="9.5621567"><ele>794.5</ele><time>2026-05-03T08:44:44.372Z</time></trkpt><trkpt lat="45.8964567" lon="9.5623483"><ele>796.25</ele><time>2026-05-03T08:44:45.372Z</time></trkpt><trkpt lat="45.8964417" lon="9.5625367"><ele>798.0</ele><time>2026-05-03T08:44:46.372Z</time></trkpt><trkpt lat="45.89641" lon="9.5627133"><ele>800.25</ele><time>2026-05-03T08:44:47.372Z</time></trkpt><trkpt lat="45.8963567" lon="9.5628767"><ele>802.5</ele><time>2026-05-03T08:44:48.373Z</time></trkpt><trkpt lat="45.8962833" lon="9.56303"><ele>804.75</ele><time>2026-05-03T08:44:49.372Z</time></trkpt><trkpt lat="45.8962083" lon="9.563185"><ele>807.0</ele><time>2026-05-03T08:44:50.37Z</time></trkpt><trkpt lat="45.8961467" lon="9.56335"><ele>807.0</ele><time>2026-05-03T08:44:51.373Z</time></trkpt><trkpt lat="45.896105" lon="9.5635167"><ele>807.0</ele><time>2026-05-03T08:44:52.373Z</time></trkpt><trkpt lat="45.8960833" lon="9.5636917"><ele>807.0</ele><time>2026-05-03T08:44:53.373Z</time></trkpt><trkpt lat="45.89608" lon="9.5638617"><ele>807.0</ele><time>2026-05-03T08:44:54.369Z</time></trkpt><trkpt lat="45.89608" lon="9.5640183"><ele>808.8</ele><time>2026-05-03T08:44:55.37Z</time></trkpt><trkpt lat="45.8960733" lon="9.56416"><ele>810.6</ele><time>2026-05-03T08:44:56.372Z</time></trkpt><trkpt lat="45.89606" lon="9.564295"><ele>812.4</ele><time>2026-05-03T08:44:57.369Z</time></trkpt><trkpt lat="45.8960433" lon="9.564435"><ele>814.1999999999999</ele><time>2026-05-03T08:44:58.372Z</time></trkpt><trkpt lat="45.8960283" lon="9.5645833"><ele>816.0</ele><time>2026-05-03T08:44:59.373Z</time></trkpt><trkpt lat="45.8960067" lon="9.5647267"><ele>817.5999999999999</ele><time>2026-05-03T08:45:00.37Z</time></trkpt><trkpt lat="45.8959733" lon="9.564855"><ele>819.2</ele><time>2026-05-03T08:45:01.369Z</time></trkpt><trkpt lat="45.8959233" lon="9.564965"><ele>820.8</ele><time>2026-05-03T08:45:02.369Z</time></trkpt><trkpt lat="45.8958567" lon="9.5650417"><ele>822.4000000000001</ele><time>2026-05-03T08:45:03.372Z</time></trkpt><trkpt lat="45.8957733" lon="9.5651183"><ele>824.0</ele><time>2026-05-03T08:45:04.37Z</time></trkpt><trkpt lat="45.8956917" lon="9.565205"><ele>822.25</ele><time>2026-05-03T08:45:05.369Z</time></trkpt><trkpt lat="45.89562" lon="9.565315"><ele>820.5</ele><time>2026-05-03T08:45:06.37Z</time></trkpt><trkpt lat="45.89556" lon="9.5654517"><ele>818.75</ele><time>2026-05-03T08:45:07.37Z</time></trkpt><trkpt lat="45.895515" lon="9.5656117"><ele>817.0</ele><time>2026-05-03T08:45:08.372Z</time></trkpt><trkpt lat="45.895475" lon="9.5657817"><ele>817.0</ele><time>2026-05-03T08:45:09.372Z</time></trkpt><trkpt lat="45.89544" lon="9.565955"><ele>817.0</ele><time>2026-05-03T08:45:10.37Z</time></trkpt><trkpt lat="45.8953983" lon="9.5661167"><ele>817.0</ele><time>2026-05-03T08:45:11.371Z</time></trkpt><trkpt lat="45.8953567" lon="9.566265"><ele>817.0</ele><time>2026-05-03T08:45:12.372Z</time></trkpt><trkpt lat="45.8953267" lon="9.566395"><ele>819.8</ele><time>2026-05-03T08:45:13.372Z</time></trkpt><trkpt lat="45.8953" lon="9.5665217"><ele>822.6</ele><time>2026-05-03T08:45:14.372Z</time></trkpt><trkpt lat="45.8952633" lon="9.56664"><ele>825.4</ele><time>2026-05-03T08:45:15.372Z</time></trkpt><trkpt lat="45.895215" lon="9.566755"><ele>828.1999999999999</ele><time>2026-05-03T08:45:16.373Z</time></trkpt><trkpt lat="45.8951633" lon="9.5668717"><ele>831.0</ele><time>2026-05-03T08:45:17.37Z</time></trkpt><trkpt lat="45.8951183" lon="9.566995"><ele>828.5</ele><time>2026-05-03T08:45:18.37Z</time></trkpt><trkpt lat="45.8950883" lon="9.5671383"><ele>826.0</ele><time>2026-05-03T08:45:19.37Z</time></trkpt><trkpt lat="45.8950683" lon="9.5673067"><ele>823.5</ele><time>2026-05-03T08:45:20.371Z</time></trkpt><trkpt lat="45.8950533" lon="9.5674767"><ele>821.0</ele><time>2026-05-03T08:45:21.371Z</time></trkpt><trkpt lat="45.89504" lon="9.56763"><ele>821.0</ele><time>2026-05-03T08:45:22.37Z</time></trkpt><trkpt lat="45.89501" lon="9.567785"><ele>821.0</ele><time>2026-05-03T08:45:23.372Z</time></trkpt><trkpt lat="45.89495" lon="9.5679167"><ele>821.0</ele><time>2026-05-03T08:45:24.372Z</time></trkpt><trkpt lat="45.8948817" lon="9.5680567"><ele>821.0</ele><time>2026-05-03T08:45:25.37Z</time></trkpt><trkpt lat="45.8948133" lon="9.5682083"><ele>823.0</ele><time>2026-05-03T08:45:26.374Z</time></trkpt><trkpt lat="45.8947567" lon="9.56838"><ele>825.0</ele><time>2026-05-03T08:45:27.37Z</time></trkpt><trkpt lat="45.8947133" lon="9.5685683"><ele>827.0</ele><time>2026-05-03T08:45:28.369Z</time></trkpt><trkpt lat="45.8946683" lon="9.56875"><ele>829.0</ele><time>2026-05-03T08:45:29.37Z</time></trkpt><trkpt lat="45.8946067" lon="9.568915"><ele>828.0</ele><time>2026-05-03T08:45:30.37Z</time></trkpt><trkpt lat="45.894515" lon="9.56906"><ele>827.0</ele><time>2026-05-03T08:45:31.369Z</time></trkpt><trkpt lat="45.8944017" lon="9.5691983"><ele>826.0</ele><time>2026-05-03T08:45:32.37Z</time></trkpt><trkpt lat="45.8942783" lon="9.5693183"><ele>825.0</ele><time>2026-05-03T08:45:33.374Z</time></trkpt><trkpt lat="45.8941583" lon="9.5694467"><ele>828.0</ele><time>2026-05-03T08:45:34.373Z</time></trkpt><trkpt lat="45.894035" lon="9.569575"><ele>831.0</ele><time>2026-05-03T08:45:35.373Z</time></trkpt><trkpt lat="45.8939133" lon="9.5697033"><ele>834.0</ele><time>2026-05-03T08:45:36.372Z</time></trkpt><trkpt lat="45.89382" lon="9.5698633"><ele>837.0</ele><time>2026-05-03T08:45:37.372Z</time></trkpt><trkpt lat="45.8937283" lon="9.5699833"><ele>837.0</ele><time>2026-05-03T08:45:38.373Z</time></trkpt><trkpt lat="45.8936717" lon="9.5700983"><ele>837.0</ele><time>2026-05-03T08:45:39.372Z</time></trkpt><trkpt lat="45.8936433" lon="9.570205"><ele>837.0</ele><time>2026-05-03T08:45:40.369Z</time></trkpt><trkpt lat="45.8936367" lon="9.5703183"><ele>837.0</ele><time>2026-05-03T08:45:41.372Z</time></trkpt><trkpt lat="45.8936483" lon="9.570445"><ele>837.0</ele><time>2026-05-03T08:45:42.373Z</time></trkpt><trkpt lat="45.893715" lon="9.570585"><ele>837.25</ele><time>2026-05-03T08:45:43.373Z</time></trkpt><trkpt lat="45.893805" lon="9.5707133"><ele>837.5</ele><time>2026-05-03T08:45:44.373Z</time></trkpt><trkpt lat="45.8938883" lon="9.570835"><ele>837.75</ele><time>2026-05-03T08:45:45.372Z</time></trkpt><trkpt lat="45.8939733" lon="9.5709517"><ele>838.0</ele><time>2026-05-03T08:45:46.373Z</time></trkpt><trkpt lat="45.8940533" lon="9.57104"><ele>838.0</ele><time>2026-05-03T08:45:47.373Z</time></trkpt><trkpt lat="45.894145" lon="9.5710933"><ele>838.0</ele><time>2026-05-03T08:45:48.372Z</time></trkpt><trkpt lat="45.894245" lon="9.57112"><ele>838.0</ele><time>2026-05-03T08:45:49.371Z</time></trkpt><trkpt lat="45.8943517" lon="9.57113"><ele>838.0</ele><time>2026-05-03T08:45:50.371Z</time></trkpt><trkpt lat="45.8944717" lon="9.571105"><ele>838.0</ele><time>2026-05-03T08:45:51.373Z</time></trkpt><trkpt lat="45.8946133" lon="9.5710683"><ele>839.0</ele><time>2026-05-03T08:45:52.37Z</time></trkpt><trkpt lat="45.8947633" lon="9.571035"><ele>840.0</ele><time>2026-05-03T08:45:53.371Z</time></trkpt><trkpt lat="45.89492" lon="9.571"><ele>841.0</ele><time>2026-05-03T08:45:54.372Z</time></trkpt><trkpt lat="45.8950833" lon="9.57097"><ele>841.0</ele><time>2026-05-03T08:45:55.373Z</time></trkpt><trkpt lat="45.8952533" lon="9.5709333"><ele>841.0</ele><time>2026-05-03T08:45:56.371Z</time></trkpt><trkpt lat="45.8954267" lon="9.5709133"><ele>841.0</ele><time>2026-05-03T08:45:57.373Z</time></trkpt><trkpt lat="45.8955933" lon="9.5708983"><ele>841.0</ele><time>2026-05-03T08:45:58.371Z</time></trkpt><trkpt lat="45.8957733" lon="9.5708783"><ele>841.0</ele><time>2026-05-03T08:45:59.372Z</time></trkpt><trkpt lat="45.8959183" lon="9.5708617"><ele>841.0</ele><time>2026-05-03T08:46:00.375Z</time></trkpt><trkpt lat="45.8960467" lon="9.570835"><ele>841.0</ele><time>2026-05-03T08:46:01.373Z</time></trkpt><trkpt lat="45.8961633" lon="9.5707967"><ele>841.0</ele><time>2026-05-03T08:46:02.373Z</time></trkpt><trkpt lat="45.896275" lon="9.570765"><ele>841.0</ele><time>2026-05-03T08:46:03.37Z</time></trkpt><trkpt lat="45.8963883" lon="9.5707183"><ele>841.0</ele><time>2026-05-03T08:46:04.372Z</time></trkpt><trkpt lat="45.8965" lon="9.5706633"><ele>841.0</ele><time>2026-05-03T08:46:05.373Z</time></trkpt><trkpt lat="45.89661" lon="9.5706233"><ele>841.0</ele><time>2026-05-03T08:46:06.372Z</time></trkpt><trkpt lat="45.896725" lon="9.5705733"><ele>841.0</ele><time>2026-05-03T08:46:07.373Z</time></trkpt><trkpt lat="45.8968433" lon="9.57052"><ele>841.0</ele><time>2026-05-03T08:46:08.372Z</time></trkpt><trkpt lat="45.89696" lon="9.57044"><ele>845.0</ele><time>2026-05-03T08:46:09.374Z</time></trkpt><trkpt lat="45.8970733" lon="9.5703367"><ele>849.0</ele><time>2026-05-03T08:46:10.372Z</time></trkpt><trkpt lat="45.8972" lon="9.57025"><ele>853.0</ele><time>2026-05-03T08:46:11.372Z</time></trkpt><trkpt lat="45.89733" lon="9.570175"><ele>857.0</ele><time>2026-05-03T08:46:12.372Z</time></trkpt><trkpt lat="45.8974517" lon="9.5700867"><ele>857.0</ele><time>2026-05-03T08:46:13.372Z</time></trkpt><trkpt lat="45.8975583" lon="9.5699983"><ele>857.0</ele><time>2026-05-03T08:46:14.373Z</time></trkpt><trkpt lat="45.89766" lon="9.569945"><ele>857.0</ele><time>2026-05-03T08:46:15.373Z</time></trkpt><trkpt lat="45.8977567" lon="9.5699417"><ele>857.0</ele><time>2026-05-03T08:46:16.373Z</time></trkpt><trkpt lat="45.8978533" lon="9.569955"><ele>857.0</ele><time>2026-05-03T08:46:17.37Z</time></trkpt><trkpt lat="45.89794" lon="9.5699383"><ele>858.4000000000001</ele><time>2026-05-03T08:46:18.372Z</time></trkpt><trkpt lat="45.898" lon="9.5698717"><ele>859.8000000000001</ele><time>2026-05-03T08:46:19.372Z</time></trkpt><trkpt lat="45.8980417" lon="9.56976"><ele>861.2</ele><time>2026-05-03T08:46:20.371Z</time></trkpt><trkpt lat="45.89807" lon="9.5696167"><ele>862.6</ele><time>2026-05-03T08:46:21.371Z</time></trkpt><trkpt lat="45.8981183" lon="9.5694717"><ele>864.0</ele><time>2026-05-03T08:46:22.372Z</time></trkpt><trkpt lat="45.898195" lon="9.56934"><ele>864.0</ele><time>2026-05-03T08:46:23.371Z</time></trkpt><trkpt lat="45.898285" lon="9.5692383"><ele>864.0000000000001</ele><time>2026-05-03T08:46:24.373Z</time></trkpt><trkpt lat="45.8983733" lon="9.5691533"><ele>864.0000000000001</ele><time>2026-05-03T08:46:25.372Z</time></trkpt><trkpt lat="45.898455" lon="9.5690617"><ele>864.0</ele><time>2026-05-03T08:46:26.375Z</time></trkpt><trkpt lat="45.89853" lon="9.5689567"><ele>864.0</ele><time>2026-05-03T08:46:27.371Z</time></trkpt><trkpt lat="45.8985967" lon="9.56883"><ele>865.75</ele><time>2026-05-03T08:46:28.373Z</time></trkpt><trkpt lat="45.89866" lon="9.56869"><ele>867.5</ele><time>2026-05-03T08:46:29.369Z</time></trkpt><trkpt lat="45.8987267" lon="9.5685433"><ele>869.25</ele><time>2026-05-03T08:46:30.373Z</time></trkpt><trkpt lat="45.898795" lon="9.568405"><ele>871.0</ele><time>2026-05-03T08:46:31.371Z</time></trkpt><trkpt lat="45.89886" lon="9.56829"><ele>870.9999999999999</ele><time>2026-05-03T08:46:32.371Z</time></trkpt><trkpt lat="45.8989167" lon="9.5682133"><ele>871.0</ele><time>2026-05-03T08:46:33.37Z</time></trkpt><trkpt lat="45.8989883" lon="9.5681883"><ele>871.0</ele><time>2026-05-03T08:46:34.372Z</time></trkpt><trkpt lat="45.8990617" lon="9.5682217"><ele>871.0</ele><time>2026-05-03T08:46:35.372Z</time></trkpt><trkpt lat="45.8991367" lon="9.56828"><ele>870.9999999999999</ele><time>2026-05-03T08:46:36.373Z</time></trkpt><trkpt lat="45.8992133" lon="9.5684233"><ele>871.0</ele><time>2026-05-03T08:46:37.371Z</time></trkpt><trkpt lat="45.8992517" lon="9.5686767"><ele>871.0</ele><time>2026-05-03T08:46:38.371Z</time></trkpt><trkpt lat="45.8993117" lon="9.56886"><ele>871.0</ele><time>2026-05-03T08:46:39.369Z</time></trkpt><trkpt lat="45.899385" lon="9.5689983"><ele>871.0</ele><time>2026-05-03T08:46:40.373Z</time></trkpt><trkpt lat="45.8994767" lon="9.569095"><ele>871.0</ele><time>2026-05-03T08:46:41.372Z</time></trkpt><trkpt lat="45.8995817" lon="9.569165"><ele>871.0</ele><time>2026-05-03T08:46:42.372Z</time></trkpt><trkpt lat="45.8996917" lon="9.5692067"><ele>871.0</ele><time>2026-05-03T08:46:43.369Z</time></trkpt><trkpt lat="45.899805" lon="9.56922"><ele>871.0</ele><time>2026-05-03T08:46:44.371Z</time></trkpt><trkpt lat="45.8999267" lon="9.5692067"><ele>871.0</ele><time>2026-05-03T08:46:45.37Z</time></trkpt><trkpt lat="45.900055" lon="9.5691667"><ele>874.0</ele><time>2026-05-03T08:46:46.372Z</time></trkpt><trkpt lat="45.9001867" lon="9.569115"><ele>877.0</ele><time>2026-05-03T08:46:47.37Z</time></trkpt><trkpt lat="45.9003283" lon="9.5690867"><ele>880.0</ele><time>2026-05-03T08:46:48.369Z</time></trkpt><trkpt lat="45.900475" lon="9.569075"><ele>883.0</ele><time>2026-05-03T08:46:49.37Z</time></trkpt><trkpt lat="45.900635" lon="9.5690733"><ele>883.0</ele><time>2026-05-03T08:46:50.371Z</time></trkpt><trkpt lat="45.9008" lon="9.5690767"><ele>883.0</ele><time>2026-05-03T08:46:51.369Z</time></trkpt><trkpt lat="45.9009533" lon="9.5690867"><ele>883.0</ele><time>2026-05-03T08:46:52.37Z</time></trkpt><trkpt lat="45.9010833" lon="9.5690967"><ele>883.0</ele><time>2026-05-03T08:46:53.37Z</time></trkpt><trkpt lat="45.90119" lon="9.5691"><ele>887.5999999999999</ele><time>2026-05-03T08:46:54.375Z</time></trkpt><trkpt lat="45.9012633" lon="9.5690933"><ele>892.1999999999999</ele><time>2026-05-03T08:46:55.372Z</time></trkpt><trkpt lat="45.9013417" lon="9.5689917"><ele>896.8</ele><time>2026-05-03T08:46:57.373Z</time></trkpt><trkpt lat="45.90128" lon="9.5688783"><ele>901.4</ele><time>2026-05-03T08:46:59.373Z</time></trkpt><trkpt lat="45.9012017" lon="9.5688533"><ele>906.0</ele><time>2026-05-03T08:47:00.373Z</time></trkpt><trkpt lat="45.9010783" lon="9.5688433"><ele>906.0</ele><time>2026-05-03T08:47:01.372Z</time></trkpt><trkpt lat="45.9009317" lon="9.5688167"><ele>906.0</ele><time>2026-05-03T08:47:02.374Z</time></trkpt><trkpt lat="45.9007817" lon="9.5687867"><ele>906.0</ele><time>2026-05-03T08:47:03.372Z</time></trkpt><trkpt lat="45.9006483" lon="9.568745"><ele>906.0</ele><time>2026-05-03T08:47:04.373Z</time></trkpt><trkpt lat="45.90053" lon="9.5687133"><ele>905.5999999999999</ele><time>2026-05-03T08:47:05.372Z</time></trkpt><trkpt lat="45.9004333" lon="9.5686683"><ele>905.1999999999999</ele><time>2026-05-03T08:47:06.374Z</time></trkpt><trkpt lat="45.9003467" lon="9.5686067"><ele>904.8000000000001</ele><time>2026-05-03T08:47:07.373Z</time></trkpt><trkpt lat="45.9002683" lon="9.5685167"><ele>904.4000000000001</ele><time>2026-05-03T08:47:08.376Z</time></trkpt><trkpt lat="45.9001967" lon="9.5684133"><ele>904.0</ele><time>2026-05-03T08:47:09.369Z</time></trkpt><trkpt lat="45.9001367" lon="9.5683083"><ele>903.0</ele><time>2026-05-03T08:47:10.372Z</time></trkpt><trkpt lat="45.9000783" lon="9.5682133"><ele>902.0000000000001</ele><time>2026-05-03T08:47:11.377Z</time></trkpt><trkpt lat="45.900025" lon="9.5681033"><ele>901.0000000000001</ele><time>2026-05-03T08:47:12.372Z</time></trkpt><trkpt lat="45.8999883" lon="9.56796"><ele>900.0</ele><time>2026-05-03T08:47:13.371Z</time></trkpt><trkpt lat="45.8999717" lon="9.5677967"><ele>899.0</ele><time>2026-05-03T08:47:14.374Z</time></trkpt><trkpt lat="45.8999733" lon="9.567635"><ele>899.0000000000001</ele><time>2026-05-03T08:47:15.373Z</time></trkpt><trkpt lat="45.8999817" lon="9.5674833"><ele>899.0</ele><time>2026-05-03T08:47:16.372Z</time></trkpt><trkpt lat="45.899985" lon="9.5673467"><ele>899.0</ele><time>2026-05-03T08:47:17.371Z</time></trkpt><trkpt lat="45.8999817" lon="9.5672317"><ele>899.0</ele><time>2026-05-03T08:47:18.37Z</time></trkpt><trkpt lat="45.89997" lon="9.5671317"><ele>899.0000000000001</ele><time>2026-05-03T08:47:19.371Z</time></trkpt><trkpt lat="45.89994" lon="9.567045"><ele>899.0</ele><time>2026-05-03T08:47:20.37Z</time></trkpt><trkpt lat="45.8999033" lon="9.5669667"><ele>900.8333333333334</ele><time>2026-05-03T08:47:21.369Z</time></trkpt><trkpt lat="45.89986" lon="9.5668883"><ele>902.6666666666667</ele><time>2026-05-03T08:47:22.369Z</time></trkpt><trkpt lat="45.8998133" lon="9.566795"><ele>904.5</ele><time>2026-05-03T08:47:23.37Z</time></trkpt><trkpt lat="45.8997733" lon="9.5666833"><ele>906.3333333333333</ele><time>2026-05-03T08:47:24.37Z</time></trkpt><trkpt lat="45.8997433" lon="9.5665667"><ele>908.1666666666666</ele><time>2026-05-03T08:47:25.369Z</time></trkpt><trkpt lat="45.8997283" lon="9.5664567"><ele>910.0</ele><time>2026-05-03T08:47:26.372Z</time></trkpt><trkpt lat="45.8997533" lon="9.5663567"><ele>910.0</ele><time>2026-05-03T08:47:27.37Z</time></trkpt><trkpt lat="45.8997933" lon="9.5662767"><ele>910.0</ele><time>2026-05-03T08:47:28.375Z</time></trkpt><trkpt lat="45.899815" lon="9.56613"><ele>910.0</ele><time>2026-05-03T08:47:30.373Z</time></trkpt><trkpt lat="45.89976" lon="9.5660217"><ele>910.0</ele><time>2026-05-03T08:47:32.374Z</time></trkpt><trkpt lat="45.89963" lon="9.565955"><ele>910.0</ele><time>2026-05-03T08:47:34.372Z</time></trkpt><trkpt lat="45.89953" lon="9.5659533"><ele>910.8333333333333</ele><time>2026-05-03T08:47:35.374Z</time></trkpt><trkpt lat="45.8994417" lon="9.5659417"><ele>911.6666666666666</ele><time>2026-05-03T08:47:36.374Z</time></trkpt><trkpt lat="45.8993517" lon="9.56595"><ele>912.5</ele><time>2026-05-03T08:47:37.37Z</time></trkpt><trkpt lat="45.8992633" lon="9.5659767"><ele>913.3333333333333</ele><time>2026-05-03T08:47:38.373Z</time></trkpt><trkpt lat="45.899185" lon="9.56601"><ele>914.1666666666666</ele><time>2026-05-03T08:47:39.373Z</time></trkpt><trkpt lat="45.8991183" lon="9.5660367"><ele>915.0</ele><time>2026-05-03T08:47:40.37Z</time></trkpt><trkpt lat="45.8989983" lon="9.5660833"><ele>913.5714285714287</ele><time>2026-05-03T08:47:42.372Z</time></trkpt><trkpt lat="45.8989333" lon="9.5661067"><ele>912.1428571428572</ele><time>2026-05-03T08:47:43.372Z</time></trkpt><trkpt lat="45.8988667" lon="9.56612"><ele>910.7142857142858</ele><time>2026-05-03T08:47:44.374Z</time></trkpt><trkpt lat="45.8988033" lon="9.5661267"><ele>909.2857142857142</ele><time>2026-05-03T08:47:45.37Z</time></trkpt><trkpt lat="45.89874" lon="9.5661367"><ele>907.8571428571428</ele><time>2026-05-03T08:47:46.373Z</time></trkpt><trkpt lat="45.8986767" lon="9.5661483"><ele>906.4285714285713</ele><time>2026-05-03T08:47:47.37Z</time></trkpt><trkpt lat="45.8985733" lon="9.566215"><ele>905.0</ele><time>2026-05-03T08:47:49.371Z</time></trkpt><trkpt lat="45.8985317" lon="9.5663333"><ele>905.6</ele><time>2026-05-03T08:47:51.37Z</time></trkpt><trkpt lat="45.898505" lon="9.56643"><ele>906.2</ele><time>2026-05-03T08:48:02.372Z</time></trkpt><trkpt lat="45.8984667" lon="9.5665283"><ele>906.8</ele><time>2026-05-03T08:48:04.369Z</time></trkpt><trkpt lat="45.8984067" lon="9.5666517"><ele>907.4</ele><time>2026-05-03T08:48:06.372Z</time></trkpt><trkpt lat="45.8983267" lon="9.5667667"><ele>908.0</ele><time>2026-05-03T08:48:08.374Z</time></trkpt><trkpt lat="45.89823" lon="9.5668333"><ele>908.0000000000001</ele><time>2026-05-03T08:48:10.374Z</time></trkpt><trkpt lat="45.898115" lon="9.5668617"><ele>908.0</ele><time>2026-05-03T08:48:12.373Z</time></trkpt><trkpt lat="45.898055" lon="9.5668983"><ele>908.0</ele><time>2026-05-03T08:48:13.373Z</time></trkpt><trkpt lat="45.8979983" lon="9.56695"><ele>908.0</ele><time>2026-05-03T08:48:14.372Z</time></trkpt><trkpt lat="45.8979333" lon="9.5670317"><ele>908.0000000000001</ele><time>2026-05-03T08:48:15.373Z</time></trkpt><trkpt lat="45.8978733" lon="9.5671267"><ele>908.0</ele><time>2026-05-03T08:48:16.373Z</time></trkpt><trkpt lat="45.89782" lon="9.5672283"><ele>905.6666666666667</ele><time>2026-05-03T08:48:17.37Z</time></trkpt><trkpt lat="45.89777" lon="9.5673317"><ele>903.3333333333334</ele><time>2026-05-03T08:48:18.37Z</time></trkpt><trkpt lat="45.897725" lon="9.5674333"><ele>901.0</ele><time>2026-05-03T08:48:19.371Z</time></trkpt><trkpt lat="45.8976817" lon="9.5675283"><ele>898.6666666666667</ele><time>2026-05-03T08:48:20.371Z</time></trkpt><trkpt lat="45.89764" lon="9.5676183"><ele>896.3333333333334</ele><time>2026-05-03T08:48:21.37Z</time></trkpt><trkpt lat="45.8976017" lon="9.567695"><ele>894.0</ele><time>2026-05-03T08:48:22.371Z</time></trkpt><trkpt lat="45.8975483" lon="9.5677933"><ele>895.2</ele><time>2026-05-03T08:48:24.372Z</time></trkpt><trkpt lat="45.897495" lon="9.567865"><ele>896.4000000000001</ele><time>2026-05-03T08:48:26.371Z</time></trkpt><trkpt lat="45.8974233" lon="9.5679633"><ele>897.6</ele><time>2026-05-03T08:48:28.371Z</time></trkpt><trkpt lat="45.8973517" lon="9.5680583"><ele>898.8</ele><time>2026-05-03T08:48:30.371Z</time></trkpt><trkpt lat="45.8972667" lon="9.56814"><ele>900.0</ele><time>2026-05-03T08:48:32.37Z</time></trkpt><trkpt lat="45.897175" lon="9.5682067"><ele>900.0</ele><time>2026-05-03T08:48:34.371Z</time></trkpt><trkpt lat="45.897085" lon="9.5682817"><ele>900.0</ele><time>2026-05-03T08:48:36.374Z</time></trkpt><trkpt lat="45.8969933" lon="9.5683233"><ele>900.0</ele><time>2026-05-03T08:48:38.372Z</time></trkpt><trkpt lat="45.896905" lon="9.5683567"><ele>900.0</ele><time>2026-05-03T08:48:40.369Z</time></trkpt><trkpt lat="45.89683" lon="9.5683933"><ele>900.0</ele><time>2026-05-03T08:48:42.373Z</time></trkpt><trkpt lat="45.8967717" lon="9.5684483"><ele>900.0</ele><time>2026-05-03T08:48:44.372Z</time></trkpt><trkpt lat="45.89671" lon="9.56841"><ele>900.0</ele><time>2026-05-03T08:48:47.373Z</time></trkpt><trkpt lat="45.8967983" lon="9.5684217"><ele>900.0</ele><time>2026-05-03T08:49:00.372Z</time></trkpt><trkpt lat="45.8968617" lon="9.5683783"><ele>900.0</ele><time>2026-05-03T08:49:16.372Z</time></trkpt><trkpt lat="45.8969733" lon="9.568335"><ele>900.0</ele><time>2026-05-03T08:49:19.373Z</time></trkpt><trkpt lat="45.8970967" lon="9.5682667"><ele>900.0</ele><time>2026-05-03T08:49:21.37Z</time></trkpt><trkpt lat="45.8971667" lon="9.5682217"><ele>900.0</ele><time>2026-05-03T08:49:22.371Z</time></trkpt><trkpt lat="45.8972383" lon="9.568175"><ele>900.0</ele><time>2026-05-03T08:49:23.371Z</time></trkpt><trkpt lat="45.8973033" lon="9.56813"><ele>900.0</ele><time>2026-05-03T08:49:24.375Z</time></trkpt><trkpt lat="45.8974083" lon="9.5680183"><ele>900.0</ele><time>2026-05-03T08:49:26.371Z</time></trkpt><trkpt lat="45.8974733" lon="9.56794"><ele>900.0</ele><time>2026-05-03T08:49:27.369Z</time></trkpt><trkpt lat="45.89754" lon="9.56785"><ele>898.6</ele><time>2026-05-03T08:49:28.369Z</time></trkpt><trkpt lat="45.897605" lon="9.5677417"><ele>897.2</ele><time>2026-05-03T08:49:29.371Z</time></trkpt><trkpt lat="45.8976633" lon="9.56762"><ele>895.8</ele><time>2026-05-03T08:49:30.369Z</time></trkpt><trkpt lat="45.897715" lon="9.5674917"><ele>894.4</ele><time>2026-05-03T08:49:31.371Z</time></trkpt><trkpt lat="45.8977683" lon="9.56737"><ele>893.0</ele><time>2026-05-03T08:49:32.369Z</time></trkpt><trkpt lat="45.89782" lon="9.56725"><ele>893.0000000000001</ele><time>2026-05-03T08:49:33.37Z</time></trkpt><trkpt lat="45.8978783" lon="9.5671433"><ele>893.0</ele><time>2026-05-03T08:49:34.369Z</time></trkpt><trkpt lat="45.897935" lon="9.567055"><ele>893.0</ele><time>2026-05-03T08:49:35.37Z</time></trkpt><trkpt lat="45.89799" lon="9.5669833"><ele>893.0</ele><time>2026-05-03T08:49:36.37Z</time></trkpt><trkpt lat="45.8980417" lon="9.5669267"><ele>893.0000000000001</ele><time>2026-05-03T08:49:37.37Z</time></trkpt><trkpt lat="45.8981233" lon="9.5668517"><ele>893.0</ele><time>2026-05-03T08:49:39.372Z</time></trkpt><trkpt lat="45.8982083" lon="9.5668383"><ele>894.5999999999999</ele><time>2026-05-03T08:49:41.373Z</time></trkpt><trkpt lat="45.8982917" lon="9.56681"><ele>896.1999999999999</ele><time>2026-05-03T08:49:43.372Z</time></trkpt><trkpt lat="45.898385" lon="9.5666983"><ele>897.8</ele><time>2026-05-03T08:49:45.372Z</time></trkpt><trkpt lat="45.898425" lon="9.5666283"><ele>899.4</ele><time>2026-05-03T08:49:46.373Z</time></trkpt><trkpt lat="45.8984933" lon="9.56649"><ele>901.0</ele><time>2026-05-03T08:49:48.372Z</time></trkpt><trkpt lat="45.8985567" lon="9.5663617"><ele>900.9999999999999</ele><time>2026-05-03T08:49:50.371Z</time></trkpt><trkpt lat="45.8986467" lon="9.56624"><ele>901.0</ele><time>2026-05-03T08:49:52.373Z</time></trkpt><trkpt lat="45.8986967" lon="9.566185"><ele>901.0</ele><time>2026-05-03T08:49:53.372Z</time></trkpt><trkpt lat="45.898755" lon="9.5661467"><ele>901.0</ele><time>2026-05-03T08:49:54.368Z</time></trkpt><trkpt lat="45.8988267" lon="9.5661383"><ele>900.9999999999999</ele><time>2026-05-03T08:49:55.369Z</time></trkpt><trkpt lat="45.8989067" lon="9.5661417"><ele>901.0</ele><time>2026-05-03T08:49:56.373Z</time></trkpt><trkpt lat="45.8989767" lon="9.5661167"><ele>901.6666666666666</ele><time>2026-05-03T08:49:57.372Z</time></trkpt><trkpt lat="45.8990467" lon="9.5660917"><ele>902.3333333333333</ele><time>2026-05-03T08:49:58.369Z</time></trkpt><trkpt lat="45.8991183" lon="9.56607"><ele>903.0</ele><time>2026-05-03T08:49:59.37Z</time></trkpt><trkpt lat="45.8991867" lon="9.5660533"><ele>903.6666666666667</ele><time>2026-05-03T08:50:00.37Z</time></trkpt><trkpt lat="45.8992683" lon="9.5660383"><ele>904.3333333333334</ele><time>2026-05-03T08:50:01.373Z</time></trkpt><trkpt lat="45.8993583" lon="9.5660267"><ele>905.0</ele><time>2026-05-03T08:50:02.372Z</time></trkpt><trkpt lat="45.8994517" lon="9.56603"><ele>905.8333333333334</ele><time>2026-05-03T08:50:03.373Z</time></trkpt><trkpt lat="45.8995483" lon="9.5660433"><ele>906.6666666666667</ele><time>2026-05-03T08:50:04.373Z</time></trkpt><trkpt lat="45.8996383" lon="9.56606"><ele>907.5</ele><time>2026-05-03T08:50:05.372Z</time></trkpt><trkpt lat="45.8997183" lon="9.566075"><ele>908.3333333333333</ele><time>2026-05-03T08:50:06.372Z</time></trkpt><trkpt lat="45.8997867" lon="9.5661083"><ele>909.1666666666666</ele><time>2026-05-03T08:50:07.37Z</time></trkpt><trkpt lat="45.899855" lon="9.566225"><ele>910.0</ele><time>2026-05-03T08:50:09.368Z</time></trkpt><trkpt lat="45.89981" lon="9.566415"><ele>909.9999999999999</ele><time>2026-05-03T08:50:11.37Z</time></trkpt><trkpt lat="45.8997767" lon="9.5665283"><ele>910.0</ele><time>2026-05-03T08:50:12.37Z</time></trkpt><trkpt lat="45.8997667" lon="9.56665"><ele>910.0</ele><time>2026-05-03T08:50:13.369Z</time></trkpt><trkpt lat="45.8997717" lon="9.5667833"><ele>910.0</ele><time>2026-05-03T08:50:14.37Z</time></trkpt><trkpt lat="45.8998167" lon="9.566905"><ele>909.9999999999999</ele><time>2026-05-03T08:50:15.372Z</time></trkpt><trkpt lat="45.8998683" lon="9.5670083"><ele>910.0</ele><time>2026-05-03T08:50:16.373Z</time></trkpt><trkpt lat="45.899915" lon="9.5671033"><ele>911.1666666666666</ele><time>2026-05-03T08:50:17.372Z</time></trkpt><trkpt lat="45.8999667" lon="9.5671933"><ele>912.3333333333333</ele><time>2026-05-03T08:50:18.372Z</time></trkpt><trkpt lat="45.9000233" lon="9.567275"><ele>913.5</ele><time>2026-05-03T08:50:19.374Z</time></trkpt><trkpt lat="45.9000683" lon="9.5673533"><ele>914.6666666666667</ele><time>2026-05-03T08:50:20.372Z</time></trkpt><trkpt lat="45.9001" lon="9.567445"><ele>915.8333333333334</ele><time>2026-05-03T08:50:21.372Z</time></trkpt><trkpt lat="45.9001167" lon="9.56756"><ele>917.0</ele><time>2026-05-03T08:50:22.369Z</time></trkpt><trkpt lat="45.9001333" lon="9.56768"><ele>917.0000000000001</ele><time>2026-05-03T08:50:23.369Z</time></trkpt><trkpt lat="45.9001567" lon="9.567795"><ele>917.0</ele><time>2026-05-03T08:50:24.369Z</time></trkpt><trkpt lat="45.900195" lon="9.5679017"><ele>917.0</ele><time>2026-05-03T08:50:25.37Z</time></trkpt><trkpt lat="45.9002583" lon="9.56799"><ele>917.0</ele><time>2026-05-03T08:50:26.37Z</time></trkpt><trkpt lat="45.9003283" lon="9.5680583"><ele>917.0000000000001</ele><time>2026-05-03T08:50:27.372Z</time></trkpt><trkpt lat="45.9004017" lon="9.5680917"><ele>917.0</ele><time>2026-05-03T08:50:28.372Z</time></trkpt><trkpt lat="45.9004733" lon="9.5681017"><ele>917.0</ele><time>2026-05-03T08:50:29.373Z</time></trkpt><trkpt lat="45.90056" lon="9.568065"><ele>917.0</ele><time>2026-05-03T08:50:30.37Z</time></trkpt><trkpt lat="45.90063" lon="9.5680317"><ele>917.0</ele><time>2026-05-03T08:50:31.373Z</time></trkpt><trkpt lat="45.90069" lon="9.567985"><ele>917.0</ele><time>2026-05-03T08:50:32.373Z</time></trkpt><trkpt lat="45.9007333" lon="9.567915"><ele>917.0</ele><time>2026-05-03T08:50:33.373Z</time></trkpt><trkpt lat="45.90077" lon="9.567835"><ele>917.0</ele><time>2026-05-03T08:50:34.372Z</time></trkpt><trkpt lat="45.90078" lon="9.56773"><ele>917.0</ele><time>2026-05-03T08:50:35.373Z</time></trkpt><trkpt lat="45.90076" lon="9.567585"><ele>917.0</ele><time>2026-05-03T08:50:36.37Z</time></trkpt><trkpt lat="45.90071" lon="9.5674117"><ele>917.0</ele><time>2026-05-03T08:50:37.37Z</time></trkpt><trkpt lat="45.90068" lon="9.5672733"><ele>917.0</ele><time>2026-05-03T08:50:38.37Z</time></trkpt><trkpt lat="45.9006417" lon="9.5671533"><ele>917.0</ele><time>2026-05-03T08:50:39.369Z</time></trkpt><trkpt lat="45.9006267" lon="9.5670433"><ele>917.0</ele><time>2026-05-03T08:50:40.372Z</time></trkpt><trkpt lat="45.9006317" lon="9.56694"><ele>919.1666666666667</ele><time>2026-05-03T08:50:41.372Z</time></trkpt><trkpt lat="45.9006633" lon="9.566845"><ele>921.3333333333334</ele><time>2026-05-03T08:50:42.372Z</time></trkpt><trkpt lat="45.900705" lon="9.566765"><ele>923.5</ele><time>2026-05-03T08:50:43.369Z</time></trkpt><trkpt lat="45.90076" lon="9.566705"><ele>925.6666666666667</ele><time>2026-05-03T08:50:44.37Z</time></trkpt><trkpt lat="45.9008417" lon="9.56666"><ele>927.8333333333334</ele><time>2026-05-03T08:50:45.373Z</time></trkpt><trkpt lat="45.90094" lon="9.5666267"><ele>930.0</ele><time>2026-05-03T08:50:46.373Z</time></trkpt><trkpt lat="45.9010517" lon="9.566615"><ele>934.5</ele><time>2026-05-03T08:50:47.369Z</time></trkpt><trkpt lat="45.9011617" lon="9.5666267"><ele>939.0</ele><time>2026-05-03T08:50:48.369Z</time></trkpt><trkpt lat="45.901275" lon="9.566655"><ele>943.5</ele><time>2026-05-03T08:50:49.368Z</time></trkpt><trkpt lat="45.9013817" lon="9.5667067"><ele>948.0</ele><time>2026-05-03T08:50:50.37Z</time></trkpt><trkpt lat="45.9014917" lon="9.5667667"><ele>948.0</ele><time>2026-05-03T08:50:51.369Z</time></trkpt><trkpt lat="45.90162" lon="9.5668333"><ele>948.0</ele><time>2026-05-03T08:50:52.369Z</time></trkpt><trkpt lat="45.9017633" lon="9.5669017"><ele>948.0</ele><time>2026-05-03T08:50:53.369Z</time></trkpt><trkpt lat="45.9019" lon="9.56696"><ele>948.0</ele><time>2026-05-03T08:50:54.369Z</time></trkpt><trkpt lat="45.9020233" lon="9.5670183"><ele>950.5999999999999</ele><time>2026-05-03T08:50:55.373Z</time></trkpt><trkpt lat="45.90213" lon="9.5670767"><ele>953.1999999999999</ele><time>2026-05-03T08:50:56.372Z</time></trkpt><trkpt lat="45.9022167" lon="9.5671517"><ele>955.8</ele><time>2026-05-03T08:50:57.372Z</time></trkpt><trkpt lat="45.9022967" lon="9.56726"><ele>958.4</ele><time>2026-05-03T08:50:58.373Z</time></trkpt><trkpt lat="45.9023717" lon="9.56739"><ele>961.0</ele><time>2026-05-03T08:50:59.372Z</time></trkpt><trkpt lat="45.902445" lon="9.5675167"><ele>961.0</ele><time>2026-05-03T08:51:00.373Z</time></trkpt><trkpt lat="45.902525" lon="9.5676283"><ele>960.9999999999999</ele><time>2026-05-03T08:51:01.372Z</time></trkpt><trkpt lat="45.9026133" lon="9.5677117"><ele>960.9999999999999</ele><time>2026-05-03T08:51:02.373Z</time></trkpt><trkpt lat="45.902705" lon="9.5677783"><ele>961.0</ele><time>2026-05-03T08:51:03.372Z</time></trkpt><trkpt lat="45.9028" lon="9.5678483"><ele>961.0</ele><time>2026-05-03T08:51:04.372Z</time></trkpt><trkpt lat="45.90289" lon="9.5679283"><ele>964.4</ele><time>2026-05-03T08:51:05.371Z</time></trkpt><trkpt lat="45.9029733" lon="9.568015"><ele>967.8</ele><time>2026-05-03T08:51:06.37Z</time></trkpt><trkpt lat="45.9030517" lon="9.5681083"><ele>971.1999999999999</ele><time>2026-05-03T08:51:07.372Z</time></trkpt><trkpt lat="45.9031267" lon="9.5682017"><ele>974.5999999999999</ele><time>2026-05-03T08:51:08.373Z</time></trkpt><trkpt lat="45.903195" lon="9.5682983"><ele>978.0</ele><time>2026-05-03T08:51:09.373Z</time></trkpt><trkpt lat="45.9032633" lon="9.568395"><ele>978.0</ele><time>2026-05-03T08:51:10.372Z</time></trkpt><trkpt lat="45.9033333" lon="9.5684933"><ele>978.0</ele><time>2026-05-03T08:51:11.373Z</time></trkpt><trkpt lat="45.903405" lon="9.568595"><ele>978.0</ele><time>2026-05-03T08:51:12.372Z</time></trkpt><trkpt lat="45.90347" lon="9.5687067"><ele>978.0</ele><time>2026-05-03T08:51:13.372Z</time></trkpt><trkpt lat="45.9035267" lon="9.5688083"><ele>978.0</ele><time>2026-05-03T08:51:14.372Z</time></trkpt><trkpt lat="45.9035783" lon="9.56889"><ele>985.0</ele><time>2026-05-03T08:51:15.373Z</time></trkpt><trkpt lat="45.9036617" lon="9.5688517"><ele>992.0</ele><time>2026-05-03T08:51:17.372Z</time></trkpt><trkpt lat="45.9036967" lon="9.56864"><ele>999.0</ele><time>2026-05-03T08:51:19.37Z</time></trkpt><trkpt lat="45.9036917" lon="9.5684867"><ele>1006.0</ele><time>2026-05-03T08:51:20.37Z</time></trkpt><trkpt lat="45.9036967" lon="9.5683017"><ele>1008.5</ele><time>2026-05-03T08:51:21.369Z</time></trkpt><trkpt lat="45.903715" lon="9.5681067"><ele>1011.0</ele><time>2026-05-03T08:51:22.37Z</time></trkpt><trkpt lat="45.9037533" lon="9.5679"><ele>1013.5</ele><time>2026-05-03T08:51:23.369Z</time></trkpt><trkpt lat="45.9038" lon="9.567705"><ele>1016.0</ele><time>2026-05-03T08:51:24.37Z</time></trkpt><trkpt lat="45.903835" lon="9.5675217"><ele>1018.0</ele><time>2026-05-03T08:51:25.369Z</time></trkpt><trkpt lat="45.903855" lon="9.5673517"><ele>1020.0</ele><time>2026-05-03T08:51:26.372Z</time></trkpt><trkpt lat="45.9038517" lon="9.5671783"><ele>1022.0</ele><time>2026-05-03T08:51:27.37Z</time></trkpt><trkpt lat="45.903825" lon="9.5669967"><ele>1024.0</ele><time>2026-05-03T08:51:28.37Z</time></trkpt><trkpt lat="45.9037867" lon="9.5668"><ele>1025.0</ele><time>2026-05-03T08:51:29.371Z</time></trkpt><trkpt lat="45.9037567" lon="9.566605"><ele>1026.0</ele><time>2026-05-03T08:51:30.37Z</time></trkpt><trkpt lat="45.9037333" lon="9.5664217"><ele>1027.0</ele><time>2026-05-03T08:51:31.37Z</time></trkpt><trkpt lat="45.9037067" lon="9.5662617"><ele>1028.0</ele><time>2026-05-03T08:51:32.37Z</time></trkpt><trkpt lat="45.9037" lon="9.566105"><ele>1028.2</ele><time>2026-05-03T08:51:33.368Z</time></trkpt><trkpt lat="45.9037067" lon="9.5659433"><ele>1028.4</ele><time>2026-05-03T08:51:34.369Z</time></trkpt><trkpt lat="45.903725" lon="9.5657867"><ele>1028.6000000000001</ele><time>2026-05-03T08:51:35.37Z</time></trkpt><trkpt lat="45.9037517" lon="9.5656383"><ele>1028.8</ele><time>2026-05-03T08:51:36.371Z</time></trkpt><trkpt lat="45.9037833" lon="9.5654933"><ele>1029.0</ele><time>2026-05-03T08:51:37.369Z</time></trkpt><trkpt lat="45.9038383" lon="9.5653383"><ele>1028.25</ele><time>2026-05-03T08:51:38.37Z</time></trkpt><trkpt lat="45.9039067" lon="9.56517"><ele>1027.5</ele><time>2026-05-03T08:51:39.371Z</time></trkpt><trkpt lat="45.9039767" lon="9.565005"><ele>1026.75</ele><time>2026-05-03T08:51:40.373Z</time></trkpt><trkpt lat="45.9040433" lon="9.56485"><ele>1026.0</ele><time>2026-05-03T08:51:41.37Z</time></trkpt><trkpt lat="45.9041133" lon="9.5647017"><ele>1026.0</ele><time>2026-05-03T08:51:42.369Z</time></trkpt><trkpt lat="45.9041867" lon="9.5645567"><ele>1026.0</ele><time>2026-05-03T08:51:43.369Z</time></trkpt><trkpt lat="45.904265" lon="9.5644117"><ele>1026.0</ele><time>2026-05-03T08:51:44.37Z</time></trkpt><trkpt lat="45.904345" lon="9.5642683"><ele>1026.0</ele><time>2026-05-03T08:51:45.373Z</time></trkpt><trkpt lat="45.904425" lon="9.5641233"><ele>1029.8</ele><time>2026-05-03T08:51:46.372Z</time></trkpt><trkpt lat="45.9044983" lon="9.5639817"><ele>1033.6</ele><time>2026-05-03T08:51:47.369Z</time></trkpt><trkpt lat="45.9045617" lon="9.5638533"><ele>1037.4</ele><time>2026-05-03T08:51:48.369Z</time></trkpt><trkpt lat="45.904615" lon="9.5637467"><ele>1041.2</ele><time>2026-05-03T08:51:49.37Z</time></trkpt><trkpt lat="45.9046767" lon="9.5636617"><ele>1045.0</ele><time>2026-05-03T08:51:50.37Z</time></trkpt><trkpt lat="45.9047383" lon="9.5635933"><ele>1045.0</ele><time>2026-05-03T08:51:51.37Z</time></trkpt><trkpt lat="45.9048683" lon="9.5636133"><ele>1045.0</ele><time>2026-05-03T08:51:53.369Z</time></trkpt><trkpt lat="45.9049483" lon="9.5637183"><ele>1045.0</ele><time>2026-05-03T08:51:54.369Z</time></trkpt><trkpt lat="45.90503" lon="9.5638733"><ele>1045.0</ele><time>2026-05-03T08:51:55.369Z</time></trkpt><trkpt lat="45.905115" lon="9.5639917"><ele>1048.6666666666665</ele><time>2026-05-03T08:51:56.371Z</time></trkpt><trkpt lat="45.9052" lon="9.56411"><ele>1052.3333333333333</ele><time>2026-05-03T08:51:57.369Z</time></trkpt><trkpt lat="45.905265" lon="9.5642117"><ele>1056.0</ele><time>2026-05-03T08:51:58.369Z</time></trkpt><trkpt lat="45.9053117" lon="9.5642933"><ele>1059.6666666666667</ele><time>2026-05-03T08:51:59.373Z</time></trkpt><trkpt lat="45.9053517" lon="9.5643667"><ele>1063.3333333333335</ele><time>2026-05-03T08:52:00.372Z</time></trkpt><trkpt lat="45.90539" lon="9.5644417"><ele>1067.0</ele><time>2026-05-03T08:52:01.373Z</time></trkpt><trkpt lat="45.9054317" lon="9.56453"><ele>1067.0</ele><time>2026-05-03T08:52:02.373Z</time></trkpt><trkpt lat="45.9054767" lon="9.56462"><ele>1067.0</ele><time>2026-05-03T08:52:03.37Z</time></trkpt><trkpt lat="45.90552" lon="9.5647333"><ele>1067.0</ele><time>2026-05-03T08:52:04.369Z</time></trkpt><trkpt lat="45.9055733" lon="9.56485"><ele>1067.0</ele><time>2026-05-03T08:52:05.372Z</time></trkpt><trkpt lat="45.9056367" lon="9.5649667"><ele>1067.0</ele><time>2026-05-03T08:52:06.372Z</time></trkpt><trkpt lat="45.90571" lon="9.565085"><ele>1067.0</ele><time>2026-05-03T08:52:07.372Z</time></trkpt><trkpt lat="45.90579" lon="9.56521"><ele>1067.0</ele><time>2026-05-03T08:52:08.373Z</time></trkpt><trkpt lat="45.9058733" lon="9.5653417"><ele>1067.0</ele><time>2026-05-03T08:52:09.372Z</time></trkpt><trkpt lat="45.9059583" lon="9.565485"><ele>1067.0</ele><time>2026-05-03T08:52:10.374Z</time></trkpt><trkpt lat="45.9060417" lon="9.5656383"><ele>1070.75</ele><time>2026-05-03T08:52:11.372Z</time></trkpt><trkpt lat="45.906125" lon="9.5657883"><ele>1074.5</ele><time>2026-05-03T08:52:12.369Z</time></trkpt><trkpt lat="45.9062133" lon="9.56593"><ele>1078.25</ele><time>2026-05-03T08:52:13.371Z</time></trkpt><trkpt lat="45.9062983" lon="9.566065"><ele>1082.0</ele><time>2026-05-03T08:52:14.371Z</time></trkpt><trkpt lat="45.90638" lon="9.5661967"><ele>1083.5</ele><time>2026-05-03T08:52:15.37Z</time></trkpt><trkpt lat="45.906455" lon="9.56633"><ele>1085.0</ele><time>2026-05-03T08:52:16.373Z</time></trkpt><trkpt lat="45.906525" lon="9.5664683"><ele>1086.5</ele><time>2026-05-03T08:52:17.371Z</time></trkpt><trkpt lat="45.90659" lon="9.56662"><ele>1088.0</ele><time>2026-05-03T08:52:18.369Z</time></trkpt><trkpt lat="45.9066467" lon="9.56679"><ele>1088.0</ele><time>2026-05-03T08:52:19.369Z</time></trkpt><trkpt lat="45.9067017" lon="9.5669667"><ele>1088.0</ele><time>2026-05-03T08:52:20.37Z</time></trkpt><trkpt lat="45.9067583" lon="9.567155"><ele>1088.0</ele><time>2026-05-03T08:52:21.369Z</time></trkpt><trkpt lat="45.9068217" lon="9.5673483"><ele>1088.0</ele><time>2026-05-03T08:52:22.369Z</time></trkpt><trkpt lat="45.906885" lon="9.5675517"><ele>1094.0</ele><time>2026-05-03T08:52:23.369Z</time></trkpt><trkpt lat="45.9069517" lon="9.5677633"><ele>1100.0</ele><time>2026-05-03T08:52:24.369Z</time></trkpt><trkpt lat="45.90701" lon="9.5679817"><ele>1106.0</ele><time>2026-05-03T08:52:25.37Z</time></trkpt><trkpt lat="45.9070733" lon="9.5681967"><ele>1106.0</ele><time>2026-05-03T08:52:26.37Z</time></trkpt><trkpt lat="45.9071417" lon="9.5684"><ele>1106.0</ele><time>2026-05-03T08:52:27.371Z</time></trkpt><trkpt lat="45.9072133" lon="9.5685933"><ele>1106.0</ele><time>2026-05-03T08:52:28.37Z</time></trkpt><trkpt lat="45.9072867" lon="9.5687717"><ele>1102.6</ele><time>2026-05-03T08:52:29.373Z</time></trkpt><trkpt lat="45.9073533" lon="9.568925"><ele>1099.1999999999998</ele><time>2026-05-03T08:52:30.373Z</time></trkpt><trkpt lat="45.9074183" lon="9.56905"><ele>1095.8000000000002</ele><time>2026-05-03T08:52:31.372Z</time></trkpt><trkpt lat="45.9074933" lon="9.569145"><ele>1092.4</ele><time>2026-05-03T08:52:32.373Z</time></trkpt><trkpt lat="45.907585" lon="9.56922"><ele>1089.0</ele><time>2026-05-03T08:52:33.373Z</time></trkpt><trkpt lat="45.9076883" lon="9.5692883"><ele>1092.0</ele><time>2026-05-03T08:52:34.373Z</time></trkpt><trkpt lat="45.9077917" lon="9.569365"><ele>1095.0</ele><time>2026-05-03T08:52:35.373Z</time></trkpt><trkpt lat="45.9078933" lon="9.5694683"><ele>1098.0</ele><time>2026-05-03T08:52:36.372Z</time></trkpt><trkpt lat="45.908" lon="9.569575"><ele>1101.0</ele><time>2026-05-03T08:52:37.372Z</time></trkpt><trkpt lat="45.9081117" lon="9.5696817"><ele>1101.0</ele><time>2026-05-03T08:52:38.373Z</time></trkpt><trkpt lat="45.9082267" lon="9.569785"><ele>1101.0</ele><time>2026-05-03T08:52:39.373Z</time></trkpt><trkpt lat="45.9083383" lon="9.5698933"><ele>1101.0</ele><time>2026-05-03T08:52:40.372Z</time></trkpt><trkpt lat="45.908445" lon="9.5700017"><ele>1101.0</ele><time>2026-05-03T08:52:41.374Z</time></trkpt><trkpt lat="45.9085433" lon="9.57013"><ele>1104.0</ele><time>2026-05-03T08:52:42.373Z</time></trkpt><trkpt lat="45.90863" lon="9.5702683"><ele>1107.0</ele><time>2026-05-03T08:52:43.372Z</time></trkpt><trkpt lat="45.90871" lon="9.5704067"><ele>1110.0</ele><time>2026-05-03T08:52:44.372Z</time></trkpt><trkpt lat="45.9087983" lon="9.5705333"><ele>1113.0</ele><time>2026-05-03T08:52:45.373Z</time></trkpt><trkpt lat="45.9089017" lon="9.570645"><ele>1113.0</ele><time>2026-05-03T08:52:46.374Z</time></trkpt><trkpt lat="45.9090133" lon="9.5707467"><ele>1113.0</ele><time>2026-05-03T08:52:47.372Z</time></trkpt><trkpt lat="45.9091267" lon="9.57084"><ele>1113.0</ele><time>2026-05-03T08:52:48.369Z</time></trkpt><trkpt lat="45.9092483" lon="9.57092"><ele>1113.0</ele><time>2026-05-03T08:52:49.369Z</time></trkpt><trkpt lat="45.9093683" lon="9.5709867"><ele>1119.5</ele><time>2026-05-03T08:52:50.371Z</time></trkpt><trkpt lat="45.90949" lon="9.571035"><ele>1126.0</ele><time>2026-05-03T08:52:51.369Z</time></trkpt><trkpt lat="45.9096233" lon="9.5710817"><ele>1132.5</ele><time>2026-05-03T08:52:52.369Z</time></trkpt><trkpt lat="45.909765" lon="9.5711233"><ele>1139.0</ele><time>2026-05-03T08:52:53.37Z</time></trkpt><trkpt lat="45.9099083" lon="9.5711667"><ele>1139.0</ele><time>2026-05-03T08:52:54.37Z</time></trkpt><trkpt lat="45.9100517" lon="9.5712083"><ele>1139.0</ele><time>2026-05-03T08:52:55.371Z</time></trkpt><trkpt lat="45.9102" lon="9.5712417"><ele>1139.0</ele><time>2026-05-03T08:52:56.372Z</time></trkpt><trkpt lat="45.910345" lon="9.5712783"><ele>1139.0</ele><time>2026-05-03T08:52:57.371Z</time></trkpt><trkpt lat="45.910485" lon="9.5713233"><ele>1139.0</ele><time>2026-05-03T08:52:58.37Z</time></trkpt><trkpt lat="45.9106217" lon="9.5713717"><ele>1139.0</ele><time>2026-05-03T08:52:59.372Z</time></trkpt><trkpt lat="45.9107617" lon="9.571415"><ele>1139.0</ele><time>2026-05-03T08:53:00.372Z</time></trkpt><trkpt lat="45.9109017" lon="9.5714517"><ele>1139.0</ele><time>2026-05-03T08:53:01.374Z</time></trkpt><trkpt lat="45.911035" lon="9.571495"><ele>1142.75</ele><time>2026-05-03T08:53:02.372Z</time></trkpt><trkpt lat="45.9111533" lon="9.5715433"><ele>1146.5</ele><time>2026-05-03T08:53:03.373Z</time></trkpt><trkpt lat="45.91126" lon="9.5715933"><ele>1150.25</ele><time>2026-05-03T08:53:04.373Z</time></trkpt><trkpt lat="45.9113667" lon="9.571645"><ele>1154.0</ele><time>2026-05-03T08:53:05.374Z</time></trkpt><trkpt lat="45.9114783" lon="9.5717033"><ele>1154.0</ele><time>2026-05-03T08:53:06.369Z</time></trkpt><trkpt lat="45.9116017" lon="9.5717733"><ele>1154.0</ele><time>2026-05-03T08:53:07.373Z</time></trkpt><trkpt lat="45.9117367" lon="9.5718533"><ele>1154.0</ele><time>2026-05-03T08:53:08.373Z</time></trkpt><trkpt lat="45.9118667" lon="9.5719433"><ele>1154.0</ele><time>2026-05-03T08:53:09.372Z</time></trkpt><trkpt lat="45.911995" lon="9.5720367"><ele>1158.0</ele><time>2026-05-03T08:53:10.372Z</time></trkpt><trkpt lat="45.9121233" lon="9.5721233"><ele>1162.0</ele><time>2026-05-03T08:53:11.374Z</time></trkpt><trkpt lat="45.9122483" lon="9.5722167"><ele>1166.0</ele><time>2026-05-03T08:53:12.372Z</time></trkpt><trkpt lat="45.91237" lon="9.5723183"><ele>1170.0</ele><time>2026-05-03T08:53:13.373Z</time></trkpt><trkpt lat="45.9124883" lon="9.5724167"><ele>1173.0</ele><time>2026-05-03T08:53:14.373Z</time></trkpt><trkpt lat="45.9126017" lon="9.5725267"><ele>1176.0</ele><time>2026-05-03T08:53:15.372Z</time></trkpt><trkpt lat="45.9127133" lon="9.5726483"><ele>1179.0</ele><time>2026-05-03T08:53:16.372Z</time></trkpt><trkpt lat="45.9128233" lon="9.5727733"><ele>1182.0</ele><time>2026-05-03T08:53:17.37Z</time></trkpt><trkpt lat="45.9129317" lon="9.572895"><ele>1182.0</ele><time>2026-05-03T08:53:18.37Z</time></trkpt><trkpt lat="45.91304" lon="9.5730117"><ele>1182.0</ele><time>2026-05-03T08:53:19.369Z</time></trkpt><trkpt lat="45.9131483" lon="9.57313"><ele>1182.0</ele><time>2026-05-03T08:53:20.371Z</time></trkpt><trkpt lat="45.91326" lon="9.57324"><ele>1182.0</ele><time>2026-05-03T08:53:21.37Z</time></trkpt><trkpt lat="45.9133717" lon="9.5733467"><ele>1184.0</ele><time>2026-05-03T08:53:22.37Z</time></trkpt><trkpt lat="45.9134817" lon="9.573455"><ele>1186.0</ele><time>2026-05-03T08:53:23.371Z</time></trkpt><trkpt lat="45.9135867" lon="9.5735717"><ele>1188.0</ele><time>2026-05-03T08:53:24.372Z</time></trkpt><trkpt lat="45.9137" lon="9.5736667"><ele>1190.0</ele><time>2026-05-03T08:53:25.373Z</time></trkpt><trkpt lat="45.91382" lon="9.5737567"><ele>1190.0</ele><time>2026-05-03T08:53:26.374Z</time></trkpt><trkpt lat="45.91394" lon="9.5738533"><ele>1190.0</ele><time>2026-05-03T08:53:27.373Z</time></trkpt><trkpt lat="45.914055" lon="9.5739567"><ele>1190.0</ele><time>2026-05-03T08:53:28.373Z</time></trkpt><trkpt lat="45.9141717" lon="9.5740633"><ele>1190.0</ele><time>2026-05-03T08:53:29.373Z</time></trkpt><trkpt lat="45.9142867" lon="9.5741683"><ele>1198.0</ele><time>2026-05-03T08:53:30.374Z</time></trkpt><trkpt lat="45.914405" lon="9.5742583"><ele>1206.0</ele><time>2026-05-03T08:53:31.373Z</time></trkpt><trkpt lat="45.9145217" lon="9.5743517"><ele>1214.0</ele><time>2026-05-03T08:53:32.373Z</time></trkpt><trkpt lat="45.91463" lon="9.5744333"><ele>1222.0</ele><time>2026-05-03T08:53:33.373Z</time></trkpt><trkpt lat="45.9147283" lon="9.5745083"><ele>1225.2</ele><time>2026-05-03T08:53:34.372Z</time></trkpt><trkpt lat="45.91482" lon="9.5745917"><ele>1228.4</ele><time>2026-05-03T08:53:35.372Z</time></trkpt><trkpt lat="45.9149" lon="9.57469"><ele>1231.6</ele><time>2026-05-03T08:53:36.374Z</time></trkpt><trkpt lat="45.9149733" lon="9.574795"><ele>1234.8</ele><time>2026-05-03T08:53:37.372Z</time></trkpt><trkpt lat="45.9150383" lon="9.5749017"><ele>1238.0</ele><time>2026-05-03T08:53:38.374Z</time></trkpt><trkpt lat="45.9150983" lon="9.575005"><ele>1238.0</ele><time>2026-05-03T08:53:39.372Z</time></trkpt><trkpt lat="45.9151517" lon="9.5750933"><ele>1238.0</ele><time>2026-05-03T08:53:40.373Z</time></trkpt><trkpt lat="45.9152017" lon="9.5751717"><ele>1238.0</ele><time>2026-05-03T08:53:41.373Z</time></trkpt><trkpt lat="45.9152517" lon="9.5752583"><ele>1238.0</ele><time>2026-05-03T08:53:42.373Z</time></trkpt><trkpt lat="45.9153" lon="9.5753383"><ele>1238.0</ele><time>2026-05-03T08:53:43.372Z</time></trkpt><trkpt lat="45.9153567" lon="9.5754167"><ele>1238.0</ele><time>2026-05-03T08:53:44.373Z</time></trkpt><trkpt lat="45.91542" lon="9.5754867"><ele>1236.3333333333335</ele><time>2026-05-03T08:53:45.373Z</time></trkpt><trkpt lat="45.9154867" lon="9.5755583"><ele>1234.6666666666667</ele><time>2026-05-03T08:53:46.374Z</time></trkpt><trkpt lat="45.9155583" lon="9.57563"><ele>1233.0</ele><time>2026-05-03T08:53:47.37Z</time></trkpt><trkpt lat="45.9156283" lon="9.5757017"><ele>1231.3333333333333</ele><time>2026-05-03T08:53:48.371Z</time></trkpt><trkpt lat="45.9156933" lon="9.575775"><ele>1229.6666666666665</ele><time>2026-05-03T08:53:49.371Z</time></trkpt><trkpt lat="45.9157617" lon="9.5758433"><ele>1228.0</ele><time>2026-05-03T08:53:50.371Z</time></trkpt><trkpt lat="45.9158233" lon="9.57592"><ele>1228.0</ele><time>2026-05-03T08:53:51.37Z</time></trkpt><trkpt lat="45.91588" lon="9.5760083"><ele>1228.0</ele><time>2026-05-03T08:53:52.37Z</time></trkpt><trkpt lat="45.9159267" lon="9.576115"><ele>1228.0</ele><time>2026-05-03T08:53:53.369Z</time></trkpt><trkpt lat="45.9159733" lon="9.57622"><ele>1228.0</ele><time>2026-05-03T08:53:54.372Z</time></trkpt><trkpt lat="45.916025" lon="9.5763317"><ele>1228.0</ele><time>2026-05-03T08:53:55.371Z</time></trkpt><trkpt lat="45.91608" lon="9.57645"><ele>1232.6</ele><time>2026-05-03T08:53:56.373Z</time></trkpt><trkpt lat="45.916145" lon="9.5765617"><ele>1237.1999999999998</ele><time>2026-05-03T08:53:57.372Z</time></trkpt><trkpt lat="45.9162183" lon="9.576665"><ele>1241.8</ele><time>2026-05-03T08:53:58.372Z</time></trkpt><trkpt lat="45.9162867" lon="9.576775"><ele>1246.3999999999999</ele><time>2026-05-03T08:53:59.37Z</time></trkpt><trkpt lat="45.9163483" lon="9.5768817"><ele>1251.0</ele><time>2026-05-03T08:54:00.369Z</time></trkpt><trkpt lat="45.916395" lon="9.5770017"><ele>1250.0</ele><time>2026-05-03T08:54:01.371Z</time></trkpt><trkpt lat="45.91644" lon="9.57711"><ele>1249.0</ele><time>2026-05-03T08:54:02.372Z</time></trkpt><trkpt lat="45.9164733" lon="9.5772217"><ele>1248.0</ele><time>2026-05-03T08:54:03.372Z</time></trkpt><trkpt lat="45.9165" lon="9.5773317"><ele>1247.0</ele><time>2026-05-03T08:54:04.372Z</time></trkpt><trkpt lat="45.916525" lon="9.577425"><ele>1246.0</ele><time>2026-05-03T08:54:05.372Z</time></trkpt><trkpt lat="45.9165483" lon="9.5775183"><ele>1245.0</ele><time>2026-05-03T08:54:06.369Z</time></trkpt><trkpt lat="45.9165783" lon="9.5776183"><ele>1245.0</ele><time>2026-05-03T08:54:07.371Z</time></trkpt><trkpt lat="45.9166167" lon="9.5776967"><ele>1245.0</ele><time>2026-05-03T08:54:08.372Z</time></trkpt><trkpt lat="45.91666" lon="9.5777883"><ele>1245.0</ele><time>2026-05-03T08:54:09.371Z</time></trkpt><trkpt lat="45.91671" lon="9.577885"><ele>1245.0</ele><time>2026-05-03T08:54:10.371Z</time></trkpt><trkpt lat="45.9167633" lon="9.5779767"><ele>1245.0</ele><time>2026-05-03T08:54:11.372Z</time></trkpt><trkpt lat="45.916825" lon="9.578065"><ele>1245.0</ele><time>2026-05-03T08:54:12.369Z</time></trkpt><trkpt lat="45.916895" lon="9.57814"><ele>1247.0</ele><time>2026-05-03T08:54:13.368Z</time></trkpt><trkpt lat="45.9169717" lon="9.5782067"><ele>1249.0</ele><time>2026-05-03T08:54:14.369Z</time></trkpt><trkpt lat="45.917055" lon="9.5782633"><ele>1251.0</ele><time>2026-05-03T08:54:15.368Z</time></trkpt><trkpt lat="45.9171433" lon="9.5783167"><ele>1253.0</ele><time>2026-05-03T08:54:16.371Z</time></trkpt><trkpt lat="45.9172317" lon="9.5783667"><ele>1255.0</ele><time>2026-05-03T08:54:17.369Z</time></trkpt><trkpt lat="45.9173183" lon="9.5784133"><ele>1255.0</ele><time>2026-05-03T08:54:18.37Z</time></trkpt><trkpt lat="45.9174033" lon="9.5784633"><ele>1255.0</ele><time>2026-05-03T08:54:19.369Z</time></trkpt><trkpt lat="45.91748" lon="9.5785033"><ele>1255.0</ele><time>2026-05-03T08:54:20.37Z</time></trkpt><trkpt lat="45.917555" lon="9.5785417"><ele>1255.0</ele><time>2026-05-03T08:54:21.369Z</time></trkpt><trkpt lat="45.917635" lon="9.5785833"><ele>1255.0</ele><time>2026-05-03T08:54:22.369Z</time></trkpt><trkpt lat="45.9177117" lon="9.5786283"><ele>1255.0</ele><time>2026-05-03T08:54:23.369Z</time></trkpt><trkpt lat="45.9177883" lon="9.57868"><ele>1257.0</ele><time>2026-05-03T08:54:24.37Z</time></trkpt><trkpt lat="45.917865" lon="9.5787333"><ele>1259.0</ele><time>2026-05-03T08:54:25.372Z</time></trkpt><trkpt lat="45.9179383" lon="9.5787867"><ele>1261.0</ele><time>2026-05-03T08:54:26.371Z</time></trkpt><trkpt lat="45.91801" lon="9.578835"><ele>1263.0</ele><time>2026-05-03T08:54:27.372Z</time></trkpt><trkpt lat="45.9180733" lon="9.5788767"><ele>1265.0</ele><time>2026-05-03T08:54:28.372Z</time></trkpt><trkpt lat="45.91814" lon="9.57892"><ele>1267.0</ele><time>2026-05-03T08:54:29.369Z</time></trkpt><trkpt lat="45.9182067" lon="9.57896"><ele>1267.0</ele><time>2026-05-03T08:54:30.37Z</time></trkpt><trkpt lat="45.918265" lon="9.578995"><ele>1267.0</ele><time>2026-05-03T08:54:31.37Z</time></trkpt><trkpt lat="45.91834" lon="9.579055"><ele>1267.0</ele><time>2026-05-03T08:54:33.373Z</time></trkpt><trkpt lat="45.9184017" lon="9.5791067"><ele>1267.0</ele><time>2026-05-03T08:54:35.369Z</time></trkpt><trkpt lat="45.918475" lon="9.5791533"><ele>1267.0</ele><time>2026-05-03T08:54:37.37Z</time></trkpt><trkpt lat="45.9185383" lon="9.5791983"><ele>1267.0</ele><time>2026-05-03T08:54:39.372Z</time></trkpt><trkpt lat="45.9186133" lon="9.5792333"><ele>1268.3333333333333</ele><time>2026-05-03T08:54:43.372Z</time></trkpt><trkpt lat="45.9186817" lon="9.5792733"><ele>1269.6666666666665</ele><time>2026-05-03T08:54:45.369Z</time></trkpt><trkpt lat="45.91877" lon="9.5793483"><ele>1271.0</ele><time>2026-05-03T08:54:47.37Z</time></trkpt><trkpt lat="45.9188317" lon="9.57939"><ele>1272.3333333333333</ele><time>2026-05-03T08:54:48.369Z</time></trkpt><trkpt lat="45.9189017" lon="9.579435"><ele>1273.6666666666667</ele><time>2026-05-03T08:54:49.37Z</time></trkpt><trkpt lat="45.918975" lon="9.57948"><ele>1275.0</ele><time>2026-05-03T08:54:50.37Z</time></trkpt><trkpt lat="45.9190533" lon="9.57953"><ele>1276.8</ele><time>2026-05-03T08:54:51.368Z</time></trkpt><trkpt lat="45.9191367" lon="9.5795867"><ele>1278.6</ele><time>2026-05-03T08:54:52.37Z</time></trkpt><trkpt lat="45.9192233" lon="9.5796383"><ele>1280.4</ele><time>2026-05-03T08:54:53.37Z</time></trkpt><trkpt lat="45.919315" lon="9.579705"><ele>1282.2</ele><time>2026-05-03T08:54:54.37Z</time></trkpt><trkpt lat="45.9194117" lon="9.5797767"><ele>1284.0</ele><time>2026-05-03T08:54:55.369Z</time></trkpt><trkpt lat="45.9195117" lon="9.579835"><ele>1284.0</ele><time>2026-05-03T08:54:56.369Z</time></trkpt><trkpt lat="45.9196217" lon="9.5798967"><ele>1284.0</ele><time>2026-05-03T08:54:57.372Z</time></trkpt><trkpt lat="45.9197267" lon="9.5799567"><ele>1284.0</ele><time>2026-05-03T08:54:58.369Z</time></trkpt><trkpt lat="45.9198333" lon="9.58002"><ele>1284.0</ele><time>2026-05-03T08:54:59.37Z</time></trkpt><trkpt lat="45.9199333" lon="9.580085"><ele>1284.0</ele><time>2026-05-03T08:55:00.373Z</time></trkpt><trkpt lat="45.920025" lon="9.5801517"><ele>1284.0</ele><time>2026-05-03T08:55:01.372Z</time></trkpt><trkpt lat="45.920105" lon="9.5802167"><ele>1284.0</ele><time>2026-05-03T08:55:02.369Z</time></trkpt><trkpt lat="45.920185" lon="9.5802817"><ele>1284.0</ele><time>2026-05-03T08:55:03.369Z</time></trkpt><trkpt lat="45.920265" lon="9.5803433"><ele>1284.0</ele><time>2026-05-03T08:55:04.37Z</time></trkpt><trkpt lat="45.9203433" lon="9.5804017"><ele>1285.3333333333333</ele><time>2026-05-03T08:55:05.369Z</time></trkpt><trkpt lat="45.9204267" lon="9.5804567"><ele>1286.6666666666667</ele><time>2026-05-03T08:55:06.369Z</time></trkpt><trkpt lat="45.9205017" lon="9.5805083"><ele>1288.0</ele><time>2026-05-03T08:55:07.372Z</time></trkpt><trkpt lat="45.9205683" lon="9.5805633"><ele>1289.3333333333335</ele><time>2026-05-03T08:55:08.371Z</time></trkpt><trkpt lat="45.92063" lon="9.5806317"><ele>1290.6666666666667</ele><time>2026-05-03T08:55:09.368Z</time></trkpt><trkpt lat="45.9206883" lon="9.580715"><ele>1292.0</ele><time>2026-05-03T08:55:10.373Z</time></trkpt><trkpt lat="45.92074" lon="9.5808133"><ele>1292.0</ele><time>2026-05-03T08:55:11.372Z</time></trkpt><trkpt lat="45.9207867" lon="9.5809283"><ele>1292.0</ele><time>2026-05-03T08:55:12.372Z</time></trkpt><trkpt lat="45.9208267" lon="9.58106"><ele>1292.0</ele><time>2026-05-03T08:55:13.371Z</time></trkpt><trkpt lat="45.9208617" lon="9.5811967"><ele>1292.0</ele><time>2026-05-03T08:55:14.372Z</time></trkpt><trkpt lat="45.9208867" lon="9.5813517"><ele>1292.0</ele><time>2026-05-03T08:55:15.373Z</time></trkpt><trkpt lat="45.920905" lon="9.5815083"><ele>1290.6</ele><time>2026-05-03T08:55:16.372Z</time></trkpt><trkpt lat="45.9209217" lon="9.5816567"><ele>1289.1999999999998</ele><time>2026-05-03T08:55:17.372Z</time></trkpt><trkpt lat="45.9209417" lon="9.5817933"><ele>1287.8</ele><time>2026-05-03T08:55:18.372Z</time></trkpt><trkpt lat="45.9209767" lon="9.5819217"><ele>1286.4</ele><time>2026-05-03T08:55:19.369Z</time></trkpt><trkpt lat="45.921015" lon="9.5820417"><ele>1285.0</ele><time>2026-05-03T08:55:20.369Z</time></trkpt><trkpt lat="45.9210567" lon="9.582155"><ele>1285.0</ele><time>2026-05-03T08:55:21.368Z</time></trkpt><trkpt lat="45.92111" lon="9.5822483"><ele>1285.0</ele><time>2026-05-03T08:55:22.37Z</time></trkpt><trkpt lat="45.9211783" lon="9.582325"><ele>1285.0</ele><time>2026-05-03T08:55:23.372Z</time></trkpt><trkpt lat="45.9212633" lon="9.5823817"><ele>1285.0</ele><time>2026-05-03T08:55:24.373Z</time></trkpt><trkpt lat="45.9213567" lon="9.5824333"><ele>1285.0</ele><time>2026-05-03T08:55:25.372Z</time></trkpt><trkpt lat="45.9214583" lon="9.5824767"><ele>1285.0</ele><time>2026-05-03T08:55:26.374Z</time></trkpt><trkpt lat="45.92156" lon="9.58252"><ele>1285.0</ele><time>2026-05-03T08:55:27.372Z</time></trkpt><trkpt lat="45.921655" lon="9.58256"><ele>1285.0</ele><time>2026-05-03T08:55:28.373Z</time></trkpt><trkpt lat="45.9217467" lon="9.5825917"><ele>1285.0</ele><time>2026-05-03T08:55:29.372Z</time></trkpt><trkpt lat="45.92183" lon="9.5826133"><ele>1285.0</ele><time>2026-05-03T08:55:30.372Z</time></trkpt><trkpt lat="45.9219033" lon="9.582615"><ele>1286.1666666666665</ele><time>2026-05-03T08:55:31.372Z</time></trkpt><trkpt lat="45.92197" lon="9.5825983"><ele>1287.3333333333333</ele><time>2026-05-03T08:55:32.372Z</time></trkpt><trkpt lat="45.9220767" lon="9.5825533"><ele>1288.5</ele><time>2026-05-03T08:55:34.374Z</time></trkpt><trkpt lat="45.92217" lon="9.58252"><ele>1289.6666666666667</ele><time>2026-05-03T08:55:36.37Z</time></trkpt><trkpt lat="45.922245" lon="9.5824967"><ele>1290.8333333333335</ele><time>2026-05-03T08:55:38.37Z</time></trkpt><trkpt lat="45.9223267" lon="9.58255"><ele>1292.0</ele><time>2026-05-03T08:55:48.372Z</time></trkpt><trkpt lat="45.9223833" lon="9.5826317"><ele>1292.0</ele><time>2026-05-03T08:55:50.372Z</time></trkpt><trkpt lat="45.9224317" lon="9.5827233"><ele>1292.0</ele><time>2026-05-03T08:55:52.373Z</time></trkpt><trkpt lat="45.9224067" lon="9.582635"><ele>1292.0</ele><time>2026-05-03T08:58:05.374Z</time></trkpt><trkpt lat="45.9225117" lon="9.5825917"><ele>1292.0</ele><time>2026-05-03T08:58:06.62Z</time></trkpt><trkpt lat="45.9224483" lon="9.5825833"><ele>1292.0</ele><time>2026-05-03T08:58:15.37Z</time></trkpt><trkpt lat="45.9224017" lon="9.582665"><ele>1292.0</ele><time>2026-05-03T08:59:36.371Z</time></trkpt><trkpt lat="45.9223383" lon="9.58267"><ele>1292.0</ele><time>2026-05-03T08:59:42.372Z</time></trkpt><trkpt lat="45.9224217" lon="9.5826133"><ele>1292.0</ele><time>2026-05-03T09:01:43.372Z</time></trkpt><trkpt lat="45.9223383" lon="9.5826567"><ele>1292.0</ele><time>2026-05-03T09:04:17.369Z</time></trkpt><trkpt lat="45.922375" lon="9.5825783"><ele>1292.0</ele><time>2026-05-03T09:05:26.372Z</time></trkpt><trkpt lat="45.922455" lon="9.5826183"><ele>1292.0</ele><time>2026-05-03T09:06:15.37Z</time></trkpt><trkpt lat="45.9223767" lon="9.58255"><ele>1292.0</ele><time>2026-05-03T09:06:18.369Z</time></trkpt><trkpt lat="45.922275" lon="9.5825067"><ele>1292.0</ele><time>2026-05-03T09:06:20.37Z</time></trkpt><trkpt lat="45.9222083" lon="9.5825133"><ele>1292.0</ele><time>2026-05-03T09:06:21.369Z</time></trkpt><trkpt lat="45.9221117" lon="9.5825617"><ele>1292.0</ele><time>2026-05-03T09:06:23.37Z</time></trkpt><trkpt lat="45.9220133" lon="9.58261"><ele>1292.0</ele><time>2026-05-03T09:06:25.37Z</time></trkpt><trkpt lat="45.92195" lon="9.5826267"><ele>1292.0</ele><time>2026-05-03T09:06:26.372Z</time></trkpt><trkpt lat="45.9218783" lon="9.58262"><ele>1292.0</ele><time>2026-05-03T09:06:27.37Z</time></trkpt><trkpt lat="45.9218117" lon="9.58262"><ele>1290.6</ele><time>2026-05-03T09:06:28.37Z</time></trkpt><trkpt lat="45.9217283" lon="9.5825933"><ele>1289.1999999999998</ele><time>2026-05-03T09:06:29.369Z</time></trkpt><trkpt lat="45.92163" lon="9.58255"><ele>1287.8</ele><time>2026-05-03T09:06:30.371Z</time></trkpt><trkpt lat="45.921535" lon="9.5825083"><ele>1286.4</ele><time>2026-05-03T09:06:31.371Z</time></trkpt><trkpt lat="45.9214483" lon="9.5824733"><ele>1285.0</ele><time>2026-05-03T09:06:32.37Z</time></trkpt><trkpt lat="45.9213717" lon="9.58244"><ele>1285.0</ele><time>2026-05-03T09:06:33.369Z</time></trkpt><trkpt lat="45.921305" lon="9.5824067"><ele>1285.0</ele><time>2026-05-03T09:06:34.369Z</time></trkpt><trkpt lat="45.9212467" lon="9.5823683"><ele>1285.0</ele><time>2026-05-03T09:06:35.369Z</time></trkpt><trkpt lat="45.921145" lon="9.5822533"><ele>1285.0</ele><time>2026-05-03T09:06:37.37Z</time></trkpt><trkpt lat="45.92109" lon="9.5821583"><ele>1285.0</ele><time>2026-05-03T09:06:38.371Z</time></trkpt><trkpt lat="45.9210467" lon="9.5820517"><ele>1285.0</ele><time>2026-05-03T09:06:39.369Z</time></trkpt><trkpt lat="45.9210117" lon="9.5819283"><ele>1285.5</ele><time>2026-05-03T09:06:40.369Z</time></trkpt><trkpt lat="45.9209817" lon="9.5817867"><ele>1286.0</ele><time>2026-05-03T09:06:41.371Z</time></trkpt><trkpt lat="45.92096" lon="9.5816583"><ele>1286.5</ele><time>2026-05-03T09:06:42.37Z</time></trkpt><trkpt lat="45.9209417" lon="9.5815333"><ele>1287.0</ele><time>2026-05-03T09:06:43.371Z</time></trkpt><trkpt lat="45.9209283" lon="9.5814217"><ele>1287.5</ele><time>2026-05-03T09:06:44.369Z</time></trkpt><trkpt lat="45.9209117" lon="9.58132"><ele>1288.0</ele><time>2026-05-03T09:06:45.37Z</time></trkpt><trkpt lat="45.9208867" lon="9.58122"><ele>1288.6666666666665</ele><time>2026-05-03T09:06:46.369Z</time></trkpt><trkpt lat="45.92086" lon="9.5811067"><ele>1289.3333333333333</ele><time>2026-05-03T09:06:47.371Z</time></trkpt><trkpt lat="45.9208333" lon="9.5809783"><ele>1290.0</ele><time>2026-05-03T09:06:48.37Z</time></trkpt><trkpt lat="45.9207967" lon="9.5808583"><ele>1290.6666666666667</ele><time>2026-05-03T09:06:49.371Z</time></trkpt><trkpt lat="45.9207517" lon="9.5807567"><ele>1291.3333333333335</ele><time>2026-05-03T09:06:50.37Z</time></trkpt><trkpt lat="45.9206967" lon="9.5806667"><ele>1292.0</ele><time>2026-05-03T09:06:51.369Z</time></trkpt><trkpt lat="45.920625" lon="9.580585"><ele>1292.0</ele><time>2026-05-03T09:06:52.371Z</time></trkpt><trkpt lat="45.9205467" lon="9.5805133"><ele>1292.0</ele><time>2026-05-03T09:06:53.369Z</time></trkpt><trkpt lat="45.9204633" lon="9.5804533"><ele>1292.0</ele><time>2026-05-03T09:06:54.37Z</time></trkpt><trkpt lat="45.920375" lon="9.5803983"><ele>1292.0</ele><time>2026-05-03T09:06:55.369Z</time></trkpt><trkpt lat="45.9202867" lon="9.5803467"><ele>1292.0</ele><time>2026-05-03T09:06:56.371Z</time></trkpt><trkpt lat="45.9202017" lon="9.58029"><ele>1290.3999999999999</ele><time>2026-05-03T09:06:57.37Z</time></trkpt><trkpt lat="45.9201217" lon="9.5802317"><ele>1288.8</ele><time>2026-05-03T09:06:58.37Z</time></trkpt><trkpt lat="45.9200417" lon="9.5801683"><ele>1287.2</ele><time>2026-05-03T09:06:59.37Z</time></trkpt><trkpt lat="45.9199533" lon="9.5801033"><ele>1285.6</ele><time>2026-05-03T09:07:00.37Z</time></trkpt><trkpt lat="45.91986" lon="9.5800367"><ele>1284.0</ele><time>2026-05-03T09:07:01.369Z</time></trkpt><trkpt lat="45.919755" lon="9.57996"><ele>1284.0</ele><time>2026-05-03T09:07:02.37Z</time></trkpt><trkpt lat="45.9196367" lon="9.5798817"><ele>1284.0</ele><time>2026-05-03T09:07:03.369Z</time></trkpt><trkpt lat="45.919515" lon="9.579805"><ele>1284.0</ele><time>2026-05-03T09:07:04.37Z</time></trkpt><trkpt lat="45.9193983" lon="9.57973"><ele>1284.0</ele><time>2026-05-03T09:07:05.371Z</time></trkpt><trkpt lat="45.9192867" lon="9.5796517"><ele>1285.0</ele><time>2026-05-03T09:07:06.37Z</time></trkpt><trkpt lat="45.9191767" lon="9.57958"><ele>1286.0</ele><time>2026-05-03T09:07:07.371Z</time></trkpt><trkpt lat="45.9190667" lon="9.5795067"><ele>1287.0</ele><time>2026-05-03T09:07:08.37Z</time></trkpt><trkpt lat="45.9189533" lon="9.57943"><ele>1288.0</ele><time>2026-05-03T09:07:09.369Z</time></trkpt><trkpt lat="45.9188317" lon="9.5793583"><ele>1284.75</ele><time>2026-05-03T09:07:10.37Z</time></trkpt><trkpt lat="45.91871" lon="9.57929"><ele>1281.5</ele><time>2026-05-03T09:07:11.37Z</time></trkpt><trkpt lat="45.918585" lon="9.5792167"><ele>1278.25</ele><time>2026-05-03T09:07:12.371Z</time></trkpt><trkpt lat="45.9184683" lon="9.5791283"><ele>1275.0</ele><time>2026-05-03T09:07:13.373Z</time></trkpt><trkpt lat="45.9183483" lon="9.5790433"><ele>1273.0</ele><time>2026-05-03T09:07:14.373Z</time></trkpt><trkpt lat="45.9182317" lon="9.578965"><ele>1271.0</ele><time>2026-05-03T09:07:15.373Z</time></trkpt><trkpt lat="45.9181167" lon="9.5788833"><ele>1269.0</ele><time>2026-05-03T09:07:16.373Z</time></trkpt><trkpt lat="45.9180067" lon="9.578805"><ele>1267.0</ele><time>2026-05-03T09:07:17.373Z</time></trkpt><trkpt lat="45.9179017" lon="9.5787317"><ele>1268.0</ele><time>2026-05-03T09:07:18.372Z</time></trkpt><trkpt lat="45.9178033" lon="9.5786633"><ele>1269.0</ele><time>2026-05-03T09:07:19.372Z</time></trkpt><trkpt lat="45.9177067" lon="9.5785917"><ele>1270.0</ele><time>2026-05-03T09:07:20.372Z</time></trkpt><trkpt lat="45.917605" lon="9.5785283"><ele>1271.0</ele><time>2026-05-03T09:07:21.369Z</time></trkpt><trkpt lat="45.9175033" lon="9.5784683"><ele>1272.0</ele><time>2026-05-03T09:07:22.37Z</time></trkpt><trkpt lat="45.9173967" lon="9.578405"><ele>1267.75</ele><time>2026-05-03T09:07:23.374Z</time></trkpt><trkpt lat="45.9172783" lon="9.5783283"><ele>1263.5</ele><time>2026-05-03T09:07:24.373Z</time></trkpt><trkpt lat="45.9171517" lon="9.5782517"><ele>1259.25</ele><time>2026-05-03T09:07:25.373Z</time></trkpt><trkpt lat="45.9170317" lon="9.5781817"><ele>1255.0</ele><time>2026-05-03T09:07:26.373Z</time></trkpt><trkpt lat="45.9169283" lon="9.578115"><ele>1255.0</ele><time>2026-05-03T09:07:27.373Z</time></trkpt><trkpt lat="45.9168383" lon="9.57804"><ele>1255.0</ele><time>2026-05-03T09:07:28.373Z</time></trkpt><trkpt lat="45.91676" lon="9.5779567"><ele>1255.0</ele><time>2026-05-03T09:07:29.373Z</time></trkpt><trkpt lat="45.91669" lon="9.57786"><ele>1255.0</ele><time>2026-05-03T09:07:30.37Z</time></trkpt><trkpt lat="45.91663" lon="9.5777633"><ele>1255.0</ele><time>2026-05-03T09:07:31.369Z</time></trkpt><trkpt lat="45.9165767" lon="9.57767"><ele>1254.2</ele><time>2026-05-03T09:07:32.374Z</time></trkpt><trkpt lat="45.916525" lon="9.5775667"><ele>1253.4</ele><time>2026-05-03T09:07:33.375Z</time></trkpt><trkpt lat="45.9164817" lon="9.577445"><ele>1252.6</ele><time>2026-05-03T09:07:34.373Z</time></trkpt><trkpt lat="45.9164433" lon="9.5773033"><ele>1251.8</ele><time>2026-05-03T09:07:35.372Z</time></trkpt><trkpt lat="45.9164033" lon="9.5771517"><ele>1251.0</ele><time>2026-05-03T09:07:36.373Z</time></trkpt><trkpt lat="45.9163567" lon="9.57699"><ele>1251.0</ele><time>2026-05-03T09:07:37.373Z</time></trkpt><trkpt lat="45.9162967" lon="9.5768317"><ele>1251.0</ele><time>2026-05-03T09:07:38.373Z</time></trkpt><trkpt lat="45.916215" lon="9.5766733"><ele>1251.0</ele><time>2026-05-03T09:07:39.372Z</time></trkpt><trkpt lat="45.9161267" lon="9.57653"><ele>1251.0</ele><time>2026-05-03T09:07:40.373Z</time></trkpt><trkpt lat="45.916045" lon="9.5763933"><ele>1251.0</ele><time>2026-05-03T09:07:41.373Z</time></trkpt><trkpt lat="45.915975" lon="9.5762517"><ele>1251.0</ele><time>2026-05-03T09:07:42.372Z</time></trkpt><trkpt lat="45.91591" lon="9.576105"><ele>1251.0</ele><time>2026-05-03T09:07:43.369Z</time></trkpt><trkpt lat="45.9158433" lon="9.5759633"><ele>1251.0</ele><time>2026-05-03T09:07:44.371Z</time></trkpt><trkpt lat="45.91577" lon="9.57583"><ele>1245.25</ele><time>2026-05-03T09:07:45.374Z</time></trkpt><trkpt lat="45.9156817" lon="9.5757217"><ele>1239.5</ele><time>2026-05-03T09:07:46.373Z</time></trkpt><trkpt lat="45.9155717" lon="9.5756333"><ele>1233.75</ele><time>2026-05-03T09:07:47.372Z</time></trkpt><trkpt lat="45.915465" lon="9.575545"><ele>1228.0</ele><time>2026-05-03T09:07:48.373Z</time></trkpt><trkpt lat="45.915365" lon="9.5754467"><ele>1230.5</ele><time>2026-05-03T09:07:49.372Z</time></trkpt><trkpt lat="45.9152667" lon="9.57534"><ele>1233.0</ele><time>2026-05-03T09:07:50.373Z</time></trkpt><trkpt lat="45.9151767" lon="9.5752183"><ele>1235.5</ele><time>2026-05-03T09:07:51.37Z</time></trkpt><trkpt lat="45.9151017" lon="9.5750783"><ele>1238.0</ele><time>2026-05-03T09:07:52.373Z</time></trkpt><trkpt lat="45.9150283" lon="9.5749333"><ele>1234.0</ele><time>2026-05-03T09:07:53.373Z</time></trkpt><trkpt lat="45.91495" lon="9.574795"><ele>1230.0</ele><time>2026-05-03T09:07:54.372Z</time></trkpt><trkpt lat="45.9148617" lon="9.5746733"><ele>1226.0</ele><time>2026-05-03T09:07:55.374Z</time></trkpt><trkpt lat="45.9147617" lon="9.5745633"><ele>1222.0</ele><time>2026-05-03T09:07:56.372Z</time></trkpt><trkpt lat="45.9146417" lon="9.574455"><ele>1222.0</ele><time>2026-05-03T09:07:57.373Z</time></trkpt><trkpt lat="45.914505" lon="9.574335"><ele>1222.0</ele><time>2026-05-03T09:07:58.372Z</time></trkpt><trkpt lat="45.9143517" lon="9.5742117"><ele>1222.0</ele><time>2026-05-03T09:07:59.374Z</time></trkpt><trkpt lat="45.9141983" lon="9.5740833"><ele>1211.3333333333333</ele><time>2026-05-03T09:08:00.373Z</time></trkpt><trkpt lat="45.91405" lon="9.573965"><ele>1200.6666666666667</ele><time>2026-05-03T09:08:01.37Z</time></trkpt><trkpt lat="45.9139083" lon="9.5738433"><ele>1190.0</ele><time>2026-05-03T09:08:02.374Z</time></trkpt><trkpt lat="45.9137683" lon="9.573715"><ele>1187.3333333333335</ele><time>2026-05-03T09:08:03.371Z</time></trkpt><trkpt lat="45.9136267" lon="9.5735833"><ele>1184.6666666666667</ele><time>2026-05-03T09:08:04.371Z</time></trkpt><trkpt lat="45.91348" lon="9.5734467"><ele>1182.0</ele><time>2026-05-03T09:08:05.371Z</time></trkpt><trkpt lat="45.913345" lon="9.5733017"><ele>1182.0</ele><time>2026-05-03T09:08:06.369Z</time></trkpt><trkpt lat="45.9132033" lon="9.57315"><ele>1182.0</ele><time>2026-05-03T09:08:07.371Z</time></trkpt><trkpt lat="45.9130633" lon="9.5730017"><ele>1182.0</ele><time>2026-05-03T09:08:08.373Z</time></trkpt><trkpt lat="45.9129217" lon="9.5728583"><ele>1178.0</ele><time>2026-05-03T09:08:09.369Z</time></trkpt><trkpt lat="45.9127817" lon="9.5727117"><ele>1174.0</ele><time>2026-05-03T09:08:10.368Z</time></trkpt><trkpt lat="45.9126483" lon="9.5725583"><ele>1170.0</ele><time>2026-05-03T09:08:11.369Z</time></trkpt><trkpt lat="45.9125133" lon="9.5724083"><ele>1170.0</ele><time>2026-05-03T09:08:12.372Z</time></trkpt><trkpt lat="45.91238" lon="9.5722717"><ele>1170.0</ele><time>2026-05-03T09:08:13.369Z</time></trkpt><trkpt lat="45.912245" lon="9.5721333"><ele>1170.0</ele><time>2026-05-03T09:08:14.369Z</time></trkpt><trkpt lat="45.9121033" lon="9.5720233"><ele>1175.0</ele><time>2026-05-03T09:08:15.371Z</time></trkpt><trkpt lat="45.9119617" lon="9.5719167"><ele>1180.0</ele><time>2026-05-03T09:08:16.372Z</time></trkpt><trkpt lat="45.9118183" lon="9.5718133"><ele>1185.0</ele><time>2026-05-03T09:08:17.369Z</time></trkpt><trkpt lat="45.9116783" lon="9.5717117"><ele>1177.25</ele><time>2026-05-03T09:08:18.37Z</time></trkpt><trkpt lat="45.911545" lon="9.571625"><ele>1169.5</ele><time>2026-05-03T09:08:19.37Z</time></trkpt><trkpt lat="45.91142" lon="9.571545"><ele>1161.75</ele><time>2026-05-03T09:08:20.369Z</time></trkpt><trkpt lat="45.9112967" lon="9.5714817"><ele>1154.0</ele><time>2026-05-03T09:08:21.368Z</time></trkpt><trkpt lat="45.91116" lon="9.57143"><ele>1154.0</ele><time>2026-05-03T09:08:22.369Z</time></trkpt><trkpt lat="45.9110133" lon="9.5713817"><ele>1154.0</ele><time>2026-05-03T09:08:23.369Z</time></trkpt><trkpt lat="45.91087" lon="9.57134"><ele>1154.0</ele><time>2026-05-03T09:08:24.373Z</time></trkpt><trkpt lat="45.9107217" lon="9.571305"><ele>1154.0</ele><time>2026-05-03T09:08:25.373Z</time></trkpt><trkpt lat="45.9105733" lon="9.5712633"><ele>1151.6666666666667</ele><time>2026-05-03T09:08:26.372Z</time></trkpt><trkpt lat="45.9104233" lon="9.5712233"><ele>1149.3333333333333</ele><time>2026-05-03T09:08:27.373Z</time></trkpt><trkpt lat="45.9102633" lon="9.571185"><ele>1147.0</ele><time>2026-05-03T09:08:28.372Z</time></trkpt><trkpt lat="45.910105" lon="9.5711483"><ele>1144.3333333333333</ele><time>2026-05-03T09:08:29.372Z</time></trkpt><trkpt lat="45.9099517" lon="9.57111"><ele>1141.6666666666667</ele><time>2026-05-03T09:08:30.372Z</time></trkpt><trkpt lat="45.9098" lon="9.5710667"><ele>1139.0</ele><time>2026-05-03T09:08:31.371Z</time></trkpt><trkpt lat="45.9096567" lon="9.571025"><ele>1139.0</ele><time>2026-05-03T09:08:32.372Z</time></trkpt><trkpt lat="45.90952" lon="9.570985"><ele>1139.0</ele><time>2026-05-03T09:08:33.372Z</time></trkpt><trkpt lat="45.9093917" lon="9.57094"><ele>1139.0</ele><time>2026-05-03T09:08:34.373Z</time></trkpt><trkpt lat="45.9092617" lon="9.57089"><ele>1139.0</ele><time>2026-05-03T09:08:35.369Z</time></trkpt><trkpt lat="45.90914" lon="9.5708167"><ele>1132.5</ele><time>2026-05-03T09:08:36.369Z</time></trkpt><trkpt lat="45.90902" lon="9.5707283"><ele>1126.0</ele><time>2026-05-03T09:08:37.371Z</time></trkpt><trkpt lat="45.908905" lon="9.57064"><ele>1119.5</ele><time>2026-05-03T09:08:38.369Z</time></trkpt><trkpt lat="45.9087983" lon="9.5705433"><ele>1113.0</ele><time>2026-05-03T09:08:39.368Z</time></trkpt><trkpt lat="45.9086983" lon="9.5704317"><ele>1110.0</ele><time>2026-05-03T09:08:40.369Z</time></trkpt><trkpt lat="45.90861" lon="9.5702917"><ele>1107.0</ele><time>2026-05-03T09:08:41.37Z</time></trkpt><trkpt lat="45.90853" lon="9.5701483"><ele>1104.0</ele><time>2026-05-03T09:08:42.369Z</time></trkpt><trkpt lat="45.9084433" lon="9.570015"><ele>1101.0</ele><time>2026-05-03T09:08:43.373Z</time></trkpt><trkpt lat="45.9083467" lon="9.5698933"><ele>1101.0</ele><time>2026-05-03T09:08:44.369Z</time></trkpt><trkpt lat="45.9082383" lon="9.5697833"><ele>1101.0</ele><time>2026-05-03T09:08:45.368Z</time></trkpt><trkpt lat="45.908135" lon="9.56968"><ele>1101.0</ele><time>2026-05-03T09:08:46.368Z</time></trkpt><trkpt lat="45.9080283" lon="9.5695717"><ele>1101.0</ele><time>2026-05-03T09:08:47.37Z</time></trkpt><trkpt lat="45.9079167" lon="9.569465"><ele>1098.0</ele><time>2026-05-03T09:08:48.371Z</time></trkpt><trkpt lat="45.9078067" lon="9.5693567"><ele>1095.0</ele><time>2026-05-03T09:08:49.369Z</time></trkpt><trkpt lat="45.9076983" lon="9.5692617"><ele>1092.0</ele><time>2026-05-03T09:08:50.369Z</time></trkpt><trkpt lat="45.9075983" lon="9.56919"><ele>1089.0</ele><time>2026-05-03T09:08:51.37Z</time></trkpt><trkpt lat="45.90751" lon="9.5691183"><ele>1089.0</ele><time>2026-05-03T09:08:52.368Z</time></trkpt><trkpt lat="45.907425" lon="9.56904"><ele>1089.0</ele><time>2026-05-03T09:08:53.37Z</time></trkpt><trkpt lat="45.9073533" lon="9.5689267"><ele>1089.0</ele><time>2026-05-03T09:08:54.369Z</time></trkpt><trkpt lat="45.9072783" lon="9.56878"><ele>1089.0</ele><time>2026-05-03T09:08:55.37Z</time></trkpt><trkpt lat="45.9072033" lon="9.5686"><ele>1094.6666666666667</ele><time>2026-05-03T09:08:56.369Z</time></trkpt><trkpt lat="45.9071267" lon="9.5683883"><ele>1100.3333333333335</ele><time>2026-05-03T09:08:57.369Z</time></trkpt><trkpt lat="45.9070667" lon="9.568185"><ele>1106.0</ele><time>2026-05-03T09:08:58.369Z</time></trkpt><trkpt lat="45.9070233" lon="9.5679783"><ele>1106.75</ele><time>2026-05-03T09:08:59.37Z</time></trkpt><trkpt lat="45.90698" lon="9.5677783"><ele>1107.5</ele><time>2026-05-03T09:09:00.374Z</time></trkpt><trkpt lat="45.9069267" lon="9.5675933"><ele>1108.25</ele><time>2026-05-03T09:09:01.369Z</time></trkpt><trkpt lat="45.9068667" lon="9.5674167"><ele>1109.0</ele><time>2026-05-03T09:09:02.372Z</time></trkpt><trkpt lat="45.906805" lon="9.56725"><ele>1109.0</ele><time>2026-05-03T09:09:03.373Z</time></trkpt><trkpt lat="45.9067467" lon="9.5670967"><ele>1109.0</ele><time>2026-05-03T09:09:04.372Z</time></trkpt><trkpt lat="45.9067" lon="9.5669467"><ele>1109.0</ele><time>2026-05-03T09:09:05.373Z</time></trkpt><trkpt lat="45.906665" lon="9.566795"><ele>1109.0</ele><time>2026-05-03T09:09:06.372Z</time></trkpt><trkpt lat="45.9066283" lon="9.5666467"><ele>1103.75</ele><time>2026-05-03T09:09:07.371Z</time></trkpt><trkpt lat="45.9065833" lon="9.5665083"><ele>1098.5</ele><time>2026-05-03T09:09:08.372Z</time></trkpt><trkpt lat="45.9065267" lon="9.5663717"><ele>1093.25</ele><time>2026-05-03T09:09:09.372Z</time></trkpt><trkpt lat="45.9064533" lon="9.5662367"><ele>1088.0</ele><time>2026-05-03T09:09:10.371Z</time></trkpt><trkpt lat="45.9063633" lon="9.5660983"><ele>1086.0</ele><time>2026-05-03T09:09:11.372Z</time></trkpt><trkpt lat="45.9062583" lon="9.5659583"><ele>1084.0</ele><time>2026-05-03T09:09:12.373Z</time></trkpt><trkpt lat="45.90616" lon="9.5657967"><ele>1082.0</ele><time>2026-05-03T09:09:13.372Z</time></trkpt><trkpt lat="45.9060533" lon="9.565625"><ele>1082.0</ele><time>2026-05-03T09:09:14.373Z</time></trkpt><trkpt lat="45.9059483" lon="9.56545"><ele>1082.0</ele><time>2026-05-03T09:09:15.368Z</time></trkpt><trkpt lat="45.905855" lon="9.56528"><ele>1082.0</ele><time>2026-05-03T09:09:16.371Z</time></trkpt><trkpt lat="45.9057617" lon="9.565125"><ele>1078.25</ele><time>2026-05-03T09:09:17.371Z</time></trkpt><trkpt lat="45.905675" lon="9.5649867"><ele>1074.5</ele><time>2026-05-03T09:09:18.372Z</time></trkpt><trkpt lat="45.9056017" lon="9.564845"><ele>1070.75</ele><time>2026-05-03T09:09:19.369Z</time></trkpt><trkpt lat="45.9055417" lon="9.5647083"><ele>1067.0</ele><time>2026-05-03T09:09:20.371Z</time></trkpt><trkpt lat="45.9054983" lon="9.5645983"><ele>1067.3333333333335</ele><time>2026-05-03T09:09:21.37Z</time></trkpt><trkpt lat="45.9054633" lon="9.5645167"><ele>1067.6666666666667</ele><time>2026-05-03T09:09:22.373Z</time></trkpt><trkpt lat="45.9054183" lon="9.5644483"><ele>1068.0</ele><time>2026-05-03T09:09:23.372Z</time></trkpt><trkpt lat="45.9053667" lon="9.56437"><ele>1068.3333333333333</ele><time>2026-05-03T09:09:24.373Z</time></trkpt><trkpt lat="45.9053017" lon="9.5642733"><ele>1068.6666666666665</ele><time>2026-05-03T09:09:25.372Z</time></trkpt><trkpt lat="45.90522" lon="9.5641617"><ele>1069.0</ele><time>2026-05-03T09:09:26.372Z</time></trkpt><trkpt lat="45.90512" lon="9.5640383"><ele>1064.4</ele><time>2026-05-03T09:09:27.373Z</time></trkpt><trkpt lat="45.9050183" lon="9.563915"><ele>1059.8000000000002</ele><time>2026-05-03T09:09:28.37Z</time></trkpt><trkpt lat="45.9049383" lon="9.5638"><ele>1055.1999999999998</ele><time>2026-05-03T09:09:29.37Z</time></trkpt><trkpt lat="45.9048717" lon="9.563705"><ele>1050.6</ele><time>2026-05-03T09:09:30.369Z</time></trkpt><trkpt lat="45.9048117" lon="9.5636333"><ele>1046.0</ele><time>2026-05-03T09:09:31.37Z</time></trkpt><trkpt lat="45.904755" lon="9.5635933"><ele>1046.0</ele><time>2026-05-03T09:09:32.37Z</time></trkpt><trkpt lat="45.90468" lon="9.5636233"><ele>1046.0</ele><time>2026-05-03T09:09:33.369Z</time></trkpt><trkpt lat="45.904605" lon="9.5636933"><ele>1046.0</ele><time>2026-05-03T09:09:34.369Z</time></trkpt><trkpt lat="45.9044967" lon="9.5639167"><ele>1046.0</ele><time>2026-05-03T09:09:35.37Z</time></trkpt><trkpt lat="45.90439" lon="9.564135"><ele>1045.6666666666667</ele><time>2026-05-03T09:09:36.37Z</time></trkpt><trkpt lat="45.9042883" lon="9.5643317"><ele>1045.3333333333333</ele><time>2026-05-03T09:09:37.373Z</time></trkpt><trkpt lat="45.904175" lon="9.5645267"><ele>1045.0</ele><time>2026-05-03T09:09:38.37Z</time></trkpt><trkpt lat="45.90407" lon="9.5647033"><ele>1041.0</ele><time>2026-05-03T09:09:39.37Z</time></trkpt><trkpt lat="45.9039817" lon="9.5648867"><ele>1037.0</ele><time>2026-05-03T09:09:40.369Z</time></trkpt><trkpt lat="45.9039017" lon="9.5650733"><ele>1033.0</ele><time>2026-05-03T09:09:41.37Z</time></trkpt><trkpt lat="45.9038367" lon="9.5652533"><ele>1029.0</ele><time>2026-05-03T09:09:42.37Z</time></trkpt><trkpt lat="45.903775" lon="9.565425"><ele>1029.0</ele><time>2026-05-03T09:09:43.369Z</time></trkpt><trkpt lat="45.9037283" lon="9.5655817"><ele>1029.0</ele><time>2026-05-03T09:09:44.37Z</time></trkpt><trkpt lat="45.9036967" lon="9.5657517"><ele>1029.0</ele><time>2026-05-03T09:09:45.373Z</time></trkpt><trkpt lat="45.9036767" lon="9.5659383"><ele>1029.0</ele><time>2026-05-03T09:09:46.373Z</time></trkpt><trkpt lat="45.90367" lon="9.56613"><ele>1028.75</ele><time>2026-05-03T09:09:47.37Z</time></trkpt><trkpt lat="45.903675" lon="9.5663183"><ele>1028.5</ele><time>2026-05-03T09:09:48.369Z</time></trkpt><trkpt lat="45.9036883" lon="9.566505"><ele>1028.25</ele><time>2026-05-03T09:09:49.37Z</time></trkpt><trkpt lat="45.90371" lon="9.5667083"><ele>1028.0</ele><time>2026-05-03T09:09:50.37Z</time></trkpt><trkpt lat="45.9037433" lon="9.5669167"><ele>1027.0</ele><time>2026-05-03T09:09:51.372Z</time></trkpt><trkpt lat="45.9037783" lon="9.5671067"><ele>1026.0</ele><time>2026-05-03T09:09:52.37Z</time></trkpt><trkpt lat="45.9037983" lon="9.567275"><ele>1025.0</ele><time>2026-05-03T09:09:53.37Z</time></trkpt><trkpt lat="45.9037967" lon="9.567435"><ele>1024.0</ele><time>2026-05-03T09:09:54.373Z</time></trkpt><trkpt lat="45.90377" lon="9.5675967"><ele>1024.0</ele><time>2026-05-03T09:09:55.371Z</time></trkpt><trkpt lat="45.9037333" lon="9.5677533"><ele>1024.0</ele><time>2026-05-03T09:09:56.372Z</time></trkpt><trkpt lat="45.9036967" lon="9.5679117"><ele>1024.0</ele><time>2026-05-03T09:09:57.372Z</time></trkpt><trkpt lat="45.9036683" lon="9.56808"><ele>1024.0</ele><time>2026-05-03T09:09:58.372Z</time></trkpt><trkpt lat="45.9036483" lon="9.5682617"><ele>1022.4000000000001</ele><time>2026-05-03T09:09:59.372Z</time></trkpt><trkpt lat="45.9036433" lon="9.5684383"><ele>1020.8000000000001</ele><time>2026-05-03T09:10:00.371Z</time></trkpt><trkpt lat="45.9036526" lon="9.5685964"><ele>1019.1999999999999</ele><time>2026-05-03T09:10:01.373Z</time></trkpt><trkpt lat="45.9036618" lon="9.5687241"><ele>1017.5999999999999</ele><time>2026-05-03T09:10:02.373Z</time></trkpt><trkpt lat="45.9036517" lon="9.5688258"><ele>1016.0</ele><time>2026-05-03T09:10:03.373Z</time></trkpt><trkpt lat="45.9035954" lon="9.568924"><ele>1013.5</ele><time>2026-05-03T09:10:05.372Z</time></trkpt><trkpt lat="45.90347" lon="9.5687667"><ele>1011.0</ele><time>2026-05-03T09:10:07.372Z</time></trkpt><trkpt lat="45.9033817" lon="9.5686333"><ele>1008.5</ele><time>2026-05-03T09:10:08.372Z</time></trkpt><trkpt lat="45.9032867" lon="9.5684933"><ele>1006.0</ele><time>2026-05-03T09:10:09.37Z</time></trkpt><trkpt lat="45.9031917" lon="9.568375"><ele>999.0</ele><time>2026-05-03T09:10:10.373Z</time></trkpt><trkpt lat="45.9031067" lon="9.5682683"><ele>992.0</ele><time>2026-05-03T09:10:11.372Z</time></trkpt><trkpt lat="45.90302" lon="9.5681517"><ele>985.0</ele><time>2026-05-03T09:10:12.372Z</time></trkpt><trkpt lat="45.9029217" lon="9.5680317"><ele>978.0</ele><time>2026-05-03T09:10:13.372Z</time></trkpt><trkpt lat="45.90282" lon="9.5679233"><ele>979.0</ele><time>2026-05-03T09:10:14.372Z</time></trkpt><trkpt lat="45.9027133" lon="9.5678367"><ele>980.0</ele><time>2026-05-03T09:10:15.372Z</time></trkpt><trkpt lat="45.9026217" lon="9.5677633"><ele>981.0</ele><time>2026-05-03T09:10:16.373Z</time></trkpt><trkpt lat="45.9025417" lon="9.5676983"><ele>982.0</ele><time>2026-05-03T09:10:17.371Z</time></trkpt><trkpt lat="45.90247" lon="9.5676217"><ele>983.0</ele><time>2026-05-03T09:10:18.374Z</time></trkpt><trkpt lat="45.90239" lon="9.5675217"><ele>977.5</ele><time>2026-05-03T09:10:19.371Z</time></trkpt><trkpt lat="45.9023167" lon="9.5673867"><ele>972.0</ele><time>2026-05-03T09:10:20.369Z</time></trkpt><trkpt lat="45.9022383" lon="9.567255"><ele>966.5</ele><time>2026-05-03T09:10:21.373Z</time></trkpt><trkpt lat="45.9021433" lon="9.567145"><ele>961.0</ele><time>2026-05-03T09:10:22.372Z</time></trkpt><trkpt lat="45.90204" lon="9.5670483"><ele>962.5</ele><time>2026-05-03T09:10:23.37Z</time></trkpt><trkpt lat="45.9019217" lon="9.5669667"><ele>964.0</ele><time>2026-05-03T09:10:24.373Z</time></trkpt><trkpt lat="45.9017833" lon="9.5668983"><ele>965.5</ele><time>2026-05-03T09:10:25.373Z</time></trkpt><trkpt lat="45.90164" lon="9.566825"><ele>967.0</ele><time>2026-05-03T09:10:26.373Z</time></trkpt><trkpt lat="45.9015033" lon="9.5667617"><ele>962.25</ele><time>2026-05-03T09:10:27.372Z</time></trkpt><trkpt lat="45.9013783" lon="9.566695"><ele>957.5</ele><time>2026-05-03T09:10:28.372Z</time></trkpt><trkpt lat="45.9012583" lon="9.56663"><ele>952.75</ele><time>2026-05-03T09:10:29.373Z</time></trkpt><trkpt lat="45.9011483" lon="9.5665783"><ele>948.0</ele><time>2026-05-03T09:10:30.374Z</time></trkpt><trkpt lat="45.9010367" lon="9.566545"><ele>948.0</ele><time>2026-05-03T09:10:31.372Z</time></trkpt><trkpt lat="45.9009233" lon="9.566535"><ele>948.0</ele><time>2026-05-03T09:10:32.373Z</time></trkpt><trkpt lat="45.9008167" lon="9.5665517"><ele>948.0</ele><time>2026-05-03T09:10:33.372Z</time></trkpt><trkpt lat="45.900715" lon="9.56658"><ele>948.0</ele><time>2026-05-03T09:10:34.373Z</time></trkpt><trkpt lat="45.9006317" lon="9.5666233"><ele>948.0</ele><time>2026-05-03T09:10:35.374Z</time></trkpt><trkpt lat="45.900565" lon="9.566695"><ele>944.4</ele><time>2026-05-03T09:10:36.373Z</time></trkpt><trkpt lat="45.900515" lon="9.5668"><ele>940.8</ele><time>2026-05-03T09:10:37.372Z</time></trkpt><trkpt lat="45.9004767" lon="9.5669183"><ele>937.2</ele><time>2026-05-03T09:10:38.373Z</time></trkpt><trkpt lat="45.900465" lon="9.5670433"><ele>933.6</ele><time>2026-05-03T09:10:39.373Z</time></trkpt><trkpt lat="45.90048" lon="9.567175"><ele>930.0</ele><time>2026-05-03T09:10:40.373Z</time></trkpt><trkpt lat="45.9005317" lon="9.567325"><ele>927.4</ele><time>2026-05-03T09:10:41.373Z</time></trkpt><trkpt lat="45.9005767" lon="9.5674767"><ele>924.8</ele><time>2026-05-03T09:10:42.373Z</time></trkpt><trkpt lat="45.9006133" lon="9.5676217"><ele>922.2</ele><time>2026-05-03T09:10:43.373Z</time></trkpt><trkpt lat="45.9006267" lon="9.5677517"><ele>919.6</ele><time>2026-05-03T09:10:44.372Z</time></trkpt><trkpt lat="45.9006167" lon="9.5678717"><ele>917.0</ele><time>2026-05-03T09:10:45.373Z</time></trkpt><trkpt lat="45.9005883" lon="9.5679633"><ele>914.8333333333334</ele><time>2026-05-03T09:10:46.374Z</time></trkpt><trkpt lat="45.90055" lon="9.568045"><ele>912.6666666666667</ele><time>2026-05-03T09:10:47.371Z</time></trkpt><trkpt lat="45.9004933" lon="9.5680983"><ele>910.5</ele><time>2026-05-03T09:10:48.369Z</time></trkpt><trkpt lat="45.9004183" lon="9.5681017"><ele>908.3333333333333</ele><time>2026-05-03T09:10:49.37Z</time></trkpt><trkpt lat="45.9003367" lon="9.5680933"><ele>906.1666666666666</ele><time>2026-05-03T09:10:50.371Z</time></trkpt><trkpt lat="45.900255" lon="9.568025"><ele>904.0</ele><time>2026-05-03T09:10:51.369Z</time></trkpt><trkpt lat="45.9001967" lon="9.5679283"><ele>903.1666666666666</ele><time>2026-05-03T09:10:52.371Z</time></trkpt><trkpt lat="45.9001533" lon="9.567835"><ele>902.3333333333333</ele><time>2026-05-03T09:10:53.369Z</time></trkpt><trkpt lat="45.900125" lon="9.5677417"><ele>901.5</ele><time>2026-05-03T09:10:54.372Z</time></trkpt><trkpt lat="45.9001117" lon="9.5676183"><ele>900.6666666666667</ele><time>2026-05-03T09:10:55.373Z</time></trkpt><trkpt lat="45.9001033" lon="9.5674867"><ele>899.8333333333334</ele><time>2026-05-03T09:10:56.373Z</time></trkpt><trkpt lat="45.9000917" lon="9.5673567"><ele>899.0</ele><time>2026-05-03T09:10:57.371Z</time></trkpt><trkpt lat="45.9000817" lon="9.567255"><ele>899.0</ele><time>2026-05-03T09:10:58.372Z</time></trkpt><trkpt lat="45.9000267" lon="9.5671583"><ele>899.0000000000001</ele><time>2026-05-03T09:11:00.372Z</time></trkpt><trkpt lat="45.8999633" lon="9.56726"><ele>899.0000000000001</ele><time>2026-05-03T09:11:02.373Z</time></trkpt><trkpt lat="45.899955" lon="9.5673833"><ele>899.0</ele><time>2026-05-03T09:11:03.373Z</time></trkpt><trkpt lat="45.8999483" lon="9.567525"><ele>899.0</ele><time>2026-05-03T09:11:04.374Z</time></trkpt><trkpt lat="45.89995" lon="9.5677067"><ele>900.25</ele><time>2026-05-03T09:11:05.373Z</time></trkpt><trkpt lat="45.8999667" lon="9.5679033"><ele>901.5</ele><time>2026-05-03T09:11:06.373Z</time></trkpt><trkpt lat="45.9000017" lon="9.56807"><ele>902.75</ele><time>2026-05-03T09:11:07.373Z</time></trkpt><trkpt lat="45.900055" lon="9.568215"><ele>904.0</ele><time>2026-05-03T09:11:08.374Z</time></trkpt><trkpt lat="45.90013" lon="9.56835"><ele>904.0</ele><time>2026-05-03T09:11:09.372Z</time></trkpt><trkpt lat="45.9002083" lon="9.5684717"><ele>904.0000000000001</ele><time>2026-05-03T09:11:10.373Z</time></trkpt><trkpt lat="45.900285" lon="9.5685767"><ele>904.0000000000001</ele><time>2026-05-03T09:11:11.374Z</time></trkpt><trkpt lat="45.9003683" lon="9.5686683"><ele>904.0</ele><time>2026-05-03T09:11:12.372Z</time></trkpt><trkpt lat="45.90048" lon="9.5687333"><ele>904.0</ele><time>2026-05-03T09:11:13.372Z</time></trkpt><trkpt lat="45.90061" lon="9.568785"><ele>904.5</ele><time>2026-05-03T09:11:14.374Z</time></trkpt><trkpt lat="45.9007417" lon="9.56883"><ele>905.0</ele><time>2026-05-03T09:11:15.373Z</time></trkpt><trkpt lat="45.9008683" lon="9.5688667"><ele>905.5</ele><time>2026-05-03T09:11:16.374Z</time></trkpt><trkpt lat="45.9009883" lon="9.56889"><ele>906.0</ele><time>2026-05-03T09:11:17.369Z</time></trkpt><trkpt lat="45.9010933" lon="9.568895"><ele>906.0</ele><time>2026-05-03T09:11:18.37Z</time></trkpt><trkpt lat="45.90118" lon="9.5688967"><ele>905.9999999999999</ele><time>2026-05-03T09:11:19.37Z</time></trkpt><trkpt lat="45.90125" lon="9.5689117"><ele>905.9999999999999</ele><time>2026-05-03T09:11:20.371Z</time></trkpt><trkpt lat="45.90133" lon="9.569"><ele>906.0</ele><time>2026-05-03T09:11:22.369Z</time></trkpt><trkpt lat="45.9012283" lon="9.5690733"><ele>906.0</ele><time>2026-05-03T09:11:24.37Z</time></trkpt><trkpt lat="45.9011233" lon="9.5690833"><ele>906.0</ele><time>2026-05-03T09:11:25.37Z</time></trkpt><trkpt lat="45.9009683" lon="9.5691"><ele>906.0</ele><time>2026-05-03T09:11:26.372Z</time></trkpt><trkpt lat="45.9007633" lon="9.5690983"><ele>906.0</ele><time>2026-05-03T09:11:27.37Z</time></trkpt><trkpt lat="45.9006" lon="9.5691033"><ele>900.25</ele><time>2026-05-03T09:11:28.373Z</time></trkpt><trkpt lat="45.9004417" lon="9.5691017"><ele>894.5</ele><time>2026-05-03T09:11:29.372Z</time></trkpt><trkpt lat="45.9002983" lon="9.5691117"><ele>888.75</ele><time>2026-05-03T09:11:30.373Z</time></trkpt><trkpt lat="45.900175" lon="9.56914"><ele>883.0</ele><time>2026-05-03T09:11:31.372Z</time></trkpt><trkpt lat="45.9000617" lon="9.5691817"><ele>880.0</ele><time>2026-05-03T09:11:32.37Z</time></trkpt><trkpt lat="45.899955" lon="9.56922"><ele>877.0</ele><time>2026-05-03T09:11:33.369Z</time></trkpt><trkpt lat="45.8998467" lon="9.56923"><ele>874.0</ele><time>2026-05-03T09:11:34.372Z</time></trkpt><trkpt lat="45.89973" lon="9.5692117"><ele>871.0</ele><time>2026-05-03T09:11:35.372Z</time></trkpt><trkpt lat="45.89961" lon="9.5691583"><ele>871.0</ele><time>2026-05-03T09:11:36.372Z</time></trkpt><trkpt lat="45.8995" lon="9.5690917"><ele>871.0</ele><time>2026-05-03T09:11:37.374Z</time></trkpt><trkpt lat="45.8994183" lon="9.56901"><ele>871.0</ele><time>2026-05-03T09:11:38.374Z</time></trkpt><trkpt lat="45.8993417" lon="9.568905"><ele>871.0</ele><time>2026-05-03T09:11:39.374Z</time></trkpt><trkpt lat="45.899265" lon="9.5687617"><ele>871.0</ele><time>2026-05-03T09:11:40.37Z</time></trkpt><trkpt lat="45.899195" lon="9.5685983"><ele>871.0</ele><time>2026-05-03T09:11:41.374Z</time></trkpt><trkpt lat="45.899125" lon="9.5684367"><ele>871.0</ele><time>2026-05-03T09:11:42.373Z</time></trkpt><trkpt lat="45.89905" lon="9.56831"><ele>871.0</ele><time>2026-05-03T09:11:43.372Z</time></trkpt><trkpt lat="45.8989717" lon="9.5682367"><ele>871.0</ele><time>2026-05-03T09:11:44.374Z</time></trkpt><trkpt lat="45.8988917" lon="9.5682033"><ele>870.9999999999999</ele><time>2026-05-03T09:11:45.37Z</time></trkpt><trkpt lat="45.898815" lon="9.5682167"><ele>870.9999999999999</ele><time>2026-05-03T09:11:46.371Z</time></trkpt><trkpt lat="45.8987383" lon="9.5682833"><ele>871.0</ele><time>2026-05-03T09:11:47.37Z</time></trkpt><trkpt lat="45.898655" lon="9.56842"><ele>871.0</ele><time>2026-05-03T09:11:48.371Z</time></trkpt><trkpt lat="45.898555" lon="9.568585"><ele>869.25</ele><time>2026-05-03T09:11:49.37Z</time></trkpt><trkpt lat="45.898485" lon="9.5687433"><ele>867.5</ele><time>2026-05-03T09:11:50.371Z</time></trkpt><trkpt lat="45.8984183" lon="9.5689033"><ele>865.75</ele><time>2026-05-03T09:11:51.371Z</time></trkpt><trkpt lat="45.8983383" lon="9.5690417"><ele>864.0</ele><time>2026-05-03T09:11:52.371Z</time></trkpt><trkpt lat="45.8982383" lon="9.56915"><ele>864.0</ele><time>2026-05-03T09:11:53.37Z</time></trkpt><trkpt lat="45.8981433" lon="9.569255"><ele>864.0000000000001</ele><time>2026-05-03T09:11:54.373Z</time></trkpt><trkpt lat="45.8980633" lon="9.56937"><ele>864.0000000000001</ele><time>2026-05-03T09:11:55.369Z</time></trkpt><trkpt lat="45.8980133" lon="9.5695133"><ele>864.0</ele><time>2026-05-03T09:11:56.37Z</time></trkpt><trkpt lat="45.8979817" lon="9.5696467"><ele>864.0</ele><time>2026-05-03T09:11:57.374Z</time></trkpt><trkpt lat="45.8979583" lon="9.569755"><ele>862.8333333333334</ele><time>2026-05-03T09:11:58.369Z</time></trkpt><trkpt lat="45.8979283" lon="9.5698367"><ele>861.6666666666667</ele><time>2026-05-03T09:11:59.37Z</time></trkpt><trkpt lat="45.897845" lon="9.5699117"><ele>860.5</ele><time>2026-05-03T09:12:01.372Z</time></trkpt><trkpt lat="45.8977767" lon="9.5699083"><ele>859.3333333333334</ele><time>2026-05-03T09:12:02.374Z</time></trkpt><trkpt lat="45.8976933" lon="9.5698967"><ele>858.1666666666667</ele><time>2026-05-03T09:12:03.373Z</time></trkpt><trkpt lat="45.8975933" lon="9.5699283"><ele>857.0</ele><time>2026-05-03T09:12:04.373Z</time></trkpt><trkpt lat="45.8974833" lon="9.5700083"><ele>857.0</ele><time>2026-05-03T09:12:05.374Z</time></trkpt><trkpt lat="45.8973733" lon="9.5700833"><ele>857.0</ele><time>2026-05-03T09:12:06.37Z</time></trkpt><trkpt lat="45.89725" lon="9.5701617"><ele>857.0</ele><time>2026-05-03T09:12:07.373Z</time></trkpt><trkpt lat="45.8971267" lon="9.5702483"><ele>857.0</ele><time>2026-05-03T09:12:08.371Z</time></trkpt><trkpt lat="45.8970117" lon="9.5703417"><ele>853.0</ele><time>2026-05-03T09:12:09.372Z</time></trkpt><trkpt lat="45.8968983" lon="9.5704267"><ele>849.0</ele><time>2026-05-03T09:12:10.372Z</time></trkpt><trkpt lat="45.8967767" lon="9.5704967"><ele>845.0</ele><time>2026-05-03T09:12:11.374Z</time></trkpt><trkpt lat="45.8966433" lon="9.5705533"><ele>841.0</ele><time>2026-05-03T09:12:12.372Z</time></trkpt><trkpt lat="45.896505" lon="9.5706017"><ele>841.0</ele><time>2026-05-03T09:12:13.372Z</time></trkpt><trkpt lat="45.8963733" lon="9.5706517"><ele>841.0</ele><time>2026-05-03T09:12:14.374Z</time></trkpt><trkpt lat="45.89625" lon="9.5706967"><ele>841.0</ele><time>2026-05-03T09:12:15.373Z</time></trkpt><trkpt lat="45.896135" lon="9.5707333"><ele>841.0</ele><time>2026-05-03T09:12:16.374Z</time></trkpt><trkpt lat="45.8960183" lon="9.5707683"><ele>841.0</ele><time>2026-05-03T09:12:17.37Z</time></trkpt><trkpt lat="45.8958933" lon="9.5708"><ele>841.0</ele><time>2026-05-03T09:12:18.372Z</time></trkpt><trkpt lat="45.89576" lon="9.5708267"><ele>841.0</ele><time>2026-05-03T09:12:19.371Z</time></trkpt><trkpt lat="45.895615" lon="9.5708333"><ele>841.0</ele><time>2026-05-03T09:12:20.371Z</time></trkpt><trkpt lat="45.89546" lon="9.5708317"><ele>841.0</ele><time>2026-05-03T09:12:21.373Z</time></trkpt><trkpt lat="45.8953133" lon="9.5708433"><ele>841.0</ele><time>2026-05-03T09:12:22.371Z</time></trkpt><trkpt lat="45.89517" lon="9.5708583"><ele>841.0</ele><time>2026-05-03T09:12:23.372Z</time></trkpt><trkpt lat="45.8950317" lon="9.5708767"><ele>841.0</ele><time>2026-05-03T09:12:24.373Z</time></trkpt><trkpt lat="45.8949017" lon="9.5709017"><ele>841.0</ele><time>2026-05-03T09:12:25.37Z</time></trkpt><trkpt lat="45.894775" lon="9.5709283"><ele>841.0</ele><time>2026-05-03T09:12:26.372Z</time></trkpt><trkpt lat="45.8946567" lon="9.57095"><ele>841.0</ele><time>2026-05-03T09:12:27.371Z</time></trkpt><trkpt lat="45.8945483" lon="9.57097"><ele>841.0</ele><time>2026-05-03T09:12:28.37Z</time></trkpt><trkpt lat="45.8944433" lon="9.5709883"><ele>840.9999999999999</ele><time>2026-05-03T09:12:29.37Z</time></trkpt><trkpt lat="45.8943483" lon="9.5710117"><ele>841.0</ele><time>2026-05-03T09:12:30.373Z</time></trkpt><trkpt lat="45.8942583" lon="9.571025"><ele>841.0</ele><time>2026-05-03T09:12:31.373Z</time></trkpt><trkpt lat="45.8941783" lon="9.5710267"><ele>841.0</ele><time>2026-05-03T09:12:32.37Z</time></trkpt><trkpt lat="45.8941083" lon="9.5710033"><ele>840.9999999999999</ele><time>2026-05-03T09:12:33.37Z</time></trkpt><trkpt lat="45.8940417" lon="9.57096"><ele>841.0</ele><time>2026-05-03T09:12:34.372Z</time></trkpt><trkpt lat="45.8939733" lon="9.5708967"><ele>840.4</ele><time>2026-05-03T09:12:35.372Z</time></trkpt><trkpt lat="45.8939" lon="9.5707983"><ele>839.8</ele><time>2026-05-03T09:12:36.369Z</time></trkpt><trkpt lat="45.8938267" lon="9.5706683"><ele>839.1999999999999</ele><time>2026-05-03T09:12:37.375Z</time></trkpt><trkpt lat="45.8937567" lon="9.5705317"><ele>838.5999999999999</ele><time>2026-05-03T09:12:38.37Z</time></trkpt><trkpt lat="45.8936933" lon="9.5704183"><ele>838.0</ele><time>2026-05-03T09:12:39.374Z</time></trkpt><trkpt lat="45.8936433" lon="9.570305"><ele>837.8</ele><time>2026-05-03T09:12:40.371Z</time></trkpt><trkpt lat="45.8936217" lon="9.5701917"><ele>837.5999999999999</ele><time>2026-05-03T09:12:41.373Z</time></trkpt><trkpt lat="45.89363" lon="9.5700767"><ele>837.4000000000001</ele><time>2026-05-03T09:12:42.373Z</time></trkpt><trkpt lat="45.893665" lon="9.5699633"><ele>837.2</ele><time>2026-05-03T09:12:43.373Z</time></trkpt><trkpt lat="45.89373" lon="9.5698333"><ele>837.0</ele><time>2026-05-03T09:12:44.373Z</time></trkpt><trkpt lat="45.8938333" lon="9.5696867"><ele>837.0</ele><time>2026-05-03T09:12:45.37Z</time></trkpt><trkpt lat="45.89398" lon="9.5695267"><ele>837.0</ele><time>2026-05-03T09:12:46.369Z</time></trkpt><trkpt lat="45.8941117" lon="9.5693933"><ele>837.0</ele><time>2026-05-03T09:12:47.371Z</time></trkpt><trkpt lat="45.894245" lon="9.569265"><ele>839.25</ele><time>2026-05-03T09:12:48.371Z</time></trkpt><trkpt lat="45.8943733" lon="9.56914"><ele>841.5</ele><time>2026-05-03T09:12:49.369Z</time></trkpt><trkpt lat="45.89449" lon="9.5690267"><ele>843.75</ele><time>2026-05-03T09:12:50.37Z</time></trkpt><trkpt lat="45.8945967" lon="9.5688917"><ele>846.0</ele><time>2026-05-03T09:12:51.37Z</time></trkpt><trkpt lat="45.8946733" lon="9.5687283"><ele>841.75</ele><time>2026-05-03T09:12:52.37Z</time></trkpt><trkpt lat="45.8947367" lon="9.5685383"><ele>837.5</ele><time>2026-05-03T09:12:53.37Z</time></trkpt><trkpt lat="45.8947917" lon="9.568355"><ele>833.25</ele><time>2026-05-03T09:12:54.373Z</time></trkpt><trkpt lat="45.89485" lon="9.5681817"><ele>829.0</ele><time>2026-05-03T09:12:55.369Z</time></trkpt><trkpt lat="45.8949267" lon="9.56802"><ele>829.0</ele><time>2026-05-03T09:12:56.373Z</time></trkpt><trkpt lat="45.8950017" lon="9.5678633"><ele>829.0</ele><time>2026-05-03T09:12:57.372Z</time></trkpt><trkpt lat="45.8950633" lon="9.5677167"><ele>829.0</ele><time>2026-05-03T09:12:58.371Z</time></trkpt><trkpt lat="45.8950933" lon="9.5675517"><ele>829.0</ele><time>2026-05-03T09:12:59.373Z</time></trkpt><trkpt lat="45.8951017" lon="9.5673783"><ele>829.4000000000001</ele><time>2026-05-03T09:13:00.372Z</time></trkpt><trkpt lat="45.8951117" lon="9.5672167"><ele>829.8</ele><time>2026-05-03T09:13:01.372Z</time></trkpt><trkpt lat="45.89513" lon="9.56707"><ele>830.2</ele><time>2026-05-03T09:13:02.373Z</time></trkpt><trkpt lat="45.8951667" lon="9.5669267"><ele>830.5999999999999</ele><time>2026-05-03T09:13:03.372Z</time></trkpt><trkpt lat="45.895215" lon="9.5667767"><ele>831.0</ele><time>2026-05-03T09:13:04.372Z</time></trkpt><trkpt lat="45.8952667" lon="9.5666"><ele>831.0</ele><time>2026-05-03T09:13:05.37Z</time></trkpt><trkpt lat="45.8953167" lon="9.56642"><ele>831.0</ele><time>2026-05-03T09:13:06.373Z</time></trkpt><trkpt lat="45.8953617" lon="9.5662417"><ele>831.0</ele><time>2026-05-03T09:13:07.371Z</time></trkpt><trkpt lat="45.8954083" lon="9.5660667"><ele>831.0</ele><time>2026-05-03T09:13:08.369Z</time></trkpt><trkpt lat="45.89546" lon="9.565895"><ele>827.5</ele><time>2026-05-03T09:13:09.372Z</time></trkpt><trkpt lat="45.8954967" lon="9.5657217"><ele>824.0</ele><time>2026-05-03T09:13:10.371Z</time></trkpt><trkpt lat="45.89553" lon="9.56556"><ele>820.5</ele><time>2026-05-03T09:13:11.371Z</time></trkpt><trkpt lat="45.8955767" lon="9.565425"><ele>817.0</ele><time>2026-05-03T09:13:12.372Z</time></trkpt><trkpt lat="45.89564" lon="9.5653033"><ele>818.75</ele><time>2026-05-03T09:13:13.372Z</time></trkpt><trkpt lat="45.8957267" lon="9.565195"><ele>820.5</ele><time>2026-05-03T09:13:14.371Z</time></trkpt><trkpt lat="45.8958283" lon="9.565095"><ele>822.25</ele><time>2026-05-03T09:13:15.372Z</time></trkpt><trkpt lat="45.895925" lon="9.5650017"><ele>824.0</ele><time>2026-05-03T09:13:16.368Z</time></trkpt><trkpt lat="45.8960033" lon="9.5649017"><ele>824.0</ele><time>2026-05-03T09:13:17.369Z</time></trkpt><trkpt lat="45.8960583" lon="9.56478"><ele>824.0</ele><time>2026-05-03T09:13:18.369Z</time></trkpt><trkpt lat="45.8960683" lon="9.56464"><ele>824.0</ele><time>2026-05-03T09:13:19.37Z</time></trkpt><trkpt lat="45.896035" lon="9.5645"><ele>824.0</ele><time>2026-05-03T09:13:20.369Z</time></trkpt><trkpt lat="45.895975" lon="9.564365"><ele>824.0</ele><time>2026-05-03T09:13:21.369Z</time></trkpt><trkpt lat="45.895905" lon="9.5642517"><ele>817.6</ele><time>2026-05-03T09:13:22.373Z</time></trkpt><trkpt lat="45.8958317" lon="9.5641583"><ele>811.2</ele><time>2026-05-03T09:13:23.368Z</time></trkpt><trkpt lat="45.8957467" lon="9.5640933"><ele>804.8000000000001</ele><time>2026-05-03T09:13:24.372Z</time></trkpt><trkpt lat="45.895655" lon="9.5640583"><ele>798.4000000000001</ele><time>2026-05-03T09:13:25.371Z</time></trkpt><trkpt lat="45.89556" lon="9.5640533"><ele>792.0</ele><time>2026-05-03T09:13:26.374Z</time></trkpt><trkpt lat="45.89547" lon="9.5640867"><ele>792.0</ele><time>2026-05-03T09:13:27.371Z</time></trkpt><trkpt lat="45.895385" lon="9.5641583"><ele>792.0</ele><time>2026-05-03T09:13:28.371Z</time></trkpt><trkpt lat="45.8953167" lon="9.5642783"><ele>792.0</ele><time>2026-05-03T09:13:29.372Z</time></trkpt><trkpt lat="45.8952617" lon="9.5644267"><ele>792.0</ele><time>2026-05-03T09:13:30.371Z</time></trkpt><trkpt lat="45.8952067" lon="9.56458"><ele>792.0</ele><time>2026-05-03T09:13:31.372Z</time></trkpt><trkpt lat="45.89516" lon="9.5647417"><ele>794.25</ele><time>2026-05-03T09:13:32.372Z</time></trkpt><trkpt lat="45.8951033" lon="9.5648967"><ele>796.5</ele><time>2026-05-03T09:13:33.372Z</time></trkpt><trkpt lat="45.8950267" lon="9.565035"><ele>798.75</ele><time>2026-05-03T09:13:34.371Z</time></trkpt><trkpt lat="45.8949467" lon="9.5651533"><ele>801.0</ele><time>2026-05-03T09:13:35.372Z</time></trkpt><trkpt lat="45.894875" lon="9.5652733"><ele>798.5999999999999</ele><time>2026-05-03T09:13:36.371Z</time></trkpt><trkpt lat="45.8948133" lon="9.565405"><ele>796.2</ele><time>2026-05-03T09:13:37.371Z</time></trkpt><trkpt lat="45.89476" lon="9.5655367"><ele>793.8</ele><time>2026-05-03T09:13:38.372Z</time></trkpt><trkpt lat="45.8947133" lon="9.5656483"><ele>791.4000000000001</ele><time>2026-05-03T09:13:39.371Z</time></trkpt><trkpt lat="45.8946483" lon="9.5657367"><ele>789.0</ele><time>2026-05-03T09:13:40.371Z</time></trkpt><trkpt lat="45.8945783" lon="9.5658033"><ele>789.0</ele><time>2026-05-03T09:13:41.373Z</time></trkpt><trkpt lat="45.894515" lon="9.5658617"><ele>789.0</ele><time>2026-05-03T09:13:42.368Z</time></trkpt><trkpt lat="45.8944533" lon="9.565895"><ele>789.0</ele><time>2026-05-03T09:13:43.369Z</time></trkpt><trkpt lat="45.89433" lon="9.5658817"><ele>789.0</ele><time>2026-05-03T09:13:45.372Z</time></trkpt><trkpt lat="45.8942667" lon="9.5658233"><ele>789.0</ele><time>2026-05-03T09:13:46.369Z</time></trkpt><trkpt lat="45.8941833" lon="9.5657283"><ele>789.0</ele><time>2026-05-03T09:13:47.37Z</time></trkpt><trkpt lat="45.8940983" lon="9.565645"><ele>786.6666666666666</ele><time>2026-05-03T09:13:48.37Z</time></trkpt><trkpt lat="45.8940067" lon="9.5656033"><ele>784.3333333333333</ele><time>2026-05-03T09:13:49.371Z</time></trkpt><trkpt lat="45.8939133" lon="9.5655783"><ele>782.0</ele><time>2026-05-03T09:13:50.371Z</time></trkpt><trkpt lat="45.89383" lon="9.5655717"><ele>779.6666666666666</ele><time>2026-05-03T09:13:51.369Z</time></trkpt><trkpt lat="45.8937483" lon="9.5655717"><ele>777.3333333333333</ele><time>2026-05-03T09:13:52.369Z</time></trkpt><trkpt lat="45.893675" lon="9.5655683"><ele>775.0</ele><time>2026-05-03T09:13:53.369Z</time></trkpt><trkpt lat="45.8936033" lon="9.5655633"><ele>774.9999999999999</ele><time>2026-05-03T09:13:54.369Z</time></trkpt><trkpt lat="45.89354" lon="9.5655683"><ele>775.0</ele><time>2026-05-03T09:13:55.372Z</time></trkpt><trkpt lat="45.8934333" lon="9.565655"><ele>775.0</ele><time>2026-05-03T09:13:57.372Z</time></trkpt><trkpt lat="45.8933783" lon="9.5657283"><ele>775.0</ele><time>2026-05-03T09:13:58.371Z</time></trkpt><trkpt lat="45.89332" lon="9.56583"><ele>774.9999999999999</ele><time>2026-05-03T09:13:59.371Z</time></trkpt><trkpt lat="45.8932567" lon="9.5659333"><ele>775.0</ele><time>2026-05-03T09:14:00.371Z</time></trkpt><trkpt lat="45.893205" lon="9.566035"><ele>774.8</ele><time>2026-05-03T09:14:01.369Z</time></trkpt><trkpt lat="45.8931633" lon="9.5661267"><ele>774.6</ele><time>2026-05-03T09:14:02.369Z</time></trkpt><trkpt lat="45.8930817" lon="9.5662183"><ele>774.4000000000001</ele><time>2026-05-03T09:14:04.372Z</time></trkpt><trkpt lat="45.89299" lon="9.56625"><ele>774.2</ele><time>2026-05-03T09:14:06.369Z</time></trkpt><trkpt lat="45.8929083" lon="9.5662083"><ele>774.0</ele><time>2026-05-03T09:14:08.373Z</time></trkpt><trkpt lat="45.8928217" lon="9.5662517"><ele>774.0</ele><time>2026-05-03T09:14:10.369Z</time></trkpt><trkpt lat="45.8927817" lon="9.5663317"><ele>774.0</ele><time>2026-05-03T09:14:11.369Z</time></trkpt><trkpt lat="45.8927367" lon="9.5664183"><ele>774.0</ele><time>2026-05-03T09:14:12.37Z</time></trkpt><trkpt lat="45.8926733" lon="9.566525"><ele>774.0</ele><time>2026-05-03T09:14:13.369Z</time></trkpt><trkpt lat="45.8926117" lon="9.5666217"><ele>774.0</ele><time>2026-05-03T09:14:14.372Z</time></trkpt><trkpt lat="45.8925483" lon="9.5667067"><ele>774.0</ele><time>2026-05-03T09:14:15.369Z</time></trkpt><trkpt lat="45.89249" lon="9.56679"><ele>772.1666666666666</ele><time>2026-05-03T09:14:16.372Z</time></trkpt><trkpt lat="45.892445" lon="9.5668933"><ele>770.3333333333334</ele><time>2026-05-03T09:14:17.37Z</time></trkpt><trkpt lat="45.8924067" lon="9.5670083"><ele>768.5</ele><time>2026-05-03T09:14:18.369Z</time></trkpt><trkpt lat="45.892375" lon="9.567125"><ele>766.6666666666667</ele><time>2026-05-03T09:14:19.37Z</time></trkpt><trkpt lat="45.8923533" lon="9.5672383"><ele>764.8333333333334</ele><time>2026-05-03T09:14:20.369Z</time></trkpt><trkpt lat="45.8923367" lon="9.5673367"><ele>763.0</ele><time>2026-05-03T09:14:21.369Z</time></trkpt><trkpt lat="45.89232" lon="9.5674267"><ele>763.0</ele><time>2026-05-03T09:14:22.369Z</time></trkpt><trkpt lat="45.892255" lon="9.567565"><ele>763.0</ele><time>2026-05-03T09:14:24.37Z</time></trkpt><trkpt lat="45.8921983" lon="9.5676333"><ele>763.0</ele><time>2026-05-03T09:14:25.372Z</time></trkpt><trkpt lat="45.8921383" lon="9.56769"><ele>763.0</ele><time>2026-05-03T09:14:26.375Z</time></trkpt><trkpt lat="45.892055" lon="9.5677267"><ele>763.0</ele><time>2026-05-03T09:14:28.372Z</time></trkpt><trkpt lat="45.8920233" lon="9.5676283"><ele>763.0</ele><time>2026-05-03T09:14:30.372Z</time></trkpt><trkpt lat="45.8920483" lon="9.5674867"><ele>763.0</ele><time>2026-05-03T09:14:31.369Z</time></trkpt><trkpt lat="45.892065" lon="9.5673417"><ele>763.0</ele><time>2026-05-03T09:14:32.373Z</time></trkpt><trkpt lat="45.8920967" lon="9.567145"><ele>763.0</ele><time>2026-05-03T09:14:33.372Z</time></trkpt><trkpt lat="45.89212" lon="9.5669767"><ele>763.0</ele><time>2026-05-03T09:14:34.372Z</time></trkpt><trkpt lat="45.89216" lon="9.5668117"><ele>761.2</ele><time>2026-05-03T09:14:35.372Z</time></trkpt><trkpt lat="45.8922033" lon="9.5666583"><ele>759.4</ele><time>2026-05-03T09:14:36.373Z</time></trkpt><trkpt lat="45.8922467" lon="9.5665133"><ele>757.6</ele><time>2026-05-03T09:14:37.372Z</time></trkpt><trkpt lat="45.8922917" lon="9.5663767"><ele>755.8000000000001</ele><time>2026-05-03T09:14:38.374Z</time></trkpt><trkpt lat="45.8923383" lon="9.5662367"><ele>754.0</ele><time>2026-05-03T09:14:39.372Z</time></trkpt><trkpt lat="45.8923683" lon="9.5660833"><ele>752.0</ele><time>2026-05-03T09:14:40.373Z</time></trkpt><trkpt lat="45.8923883" lon="9.565925"><ele>750.0</ele><time>2026-05-03T09:14:41.371Z</time></trkpt><trkpt lat="45.892405" lon="9.5657633"><ele>748.0</ele><time>2026-05-03T09:14:42.371Z</time></trkpt><trkpt lat="45.8924217" lon="9.5656017"><ele>746.0</ele><time>2026-05-03T09:14:43.373Z</time></trkpt><trkpt lat="45.8924383" lon="9.5654383"><ele>744.5</ele><time>2026-05-03T09:14:44.373Z</time></trkpt><trkpt lat="45.8924583" lon="9.5652667"><ele>743.0</ele><time>2026-05-03T09:14:45.371Z</time></trkpt><trkpt lat="45.89248" lon="9.5650983"><ele>741.5</ele><time>2026-05-03T09:14:46.371Z</time></trkpt><trkpt lat="45.8924983" lon="9.56494"><ele>740.0</ele><time>2026-05-03T09:14:47.372Z</time></trkpt><trkpt lat="45.8925183" lon="9.56479"><ele>740.0</ele><time>2026-05-03T09:14:48.37Z</time></trkpt><trkpt lat="45.8925367" lon="9.5646533"><ele>740.0</ele><time>2026-05-03T09:14:49.373Z</time></trkpt><trkpt lat="45.89255" lon="9.5645317"><ele>740.0</ele><time>2026-05-03T09:14:50.37Z</time></trkpt><trkpt lat="45.8925683" lon="9.5644433"><ele>740.0</ele><time>2026-05-03T09:14:51.369Z</time></trkpt><trkpt lat="45.89264" lon="9.5643083"><ele>740.0</ele><time>2026-05-03T09:14:53.372Z</time></trkpt><trkpt lat="45.892755" lon="9.5642183"><ele>740.0</ele><time>2026-05-03T09:14:55.37Z</time></trkpt><trkpt lat="45.8928133" lon="9.5641583"><ele>740.0</ele><time>2026-05-03T09:14:56.373Z</time></trkpt><trkpt lat="45.8928617" lon="9.56408"><ele>740.0</ele><time>2026-05-03T09:14:57.373Z</time></trkpt><trkpt lat="45.8928917" lon="9.564"><ele>740.0</ele><time>2026-05-03T09:14:58.372Z</time></trkpt><trkpt lat="45.8929067" lon="9.56389"><ele>740.0</ele><time>2026-05-03T09:15:00.375Z</time></trkpt><trkpt lat="45.8929267" lon="9.5637817"><ele>740.0</ele><time>2026-05-03T09:15:02.372Z</time></trkpt><trkpt lat="45.8929983" lon="9.5636267"><ele>738.5</ele><time>2026-05-03T09:15:04.372Z</time></trkpt><trkpt lat="45.8930633" lon="9.5635283"><ele>737.0</ele><time>2026-05-03T09:15:05.373Z</time></trkpt><trkpt lat="45.8931483" lon="9.5634083"><ele>735.5</ele><time>2026-05-03T09:15:06.369Z</time></trkpt><trkpt lat="45.8932267" lon="9.5632833"><ele>734.0</ele><time>2026-05-03T09:15:07.37Z</time></trkpt><trkpt lat="45.89331" lon="9.5631483"><ele>734.0</ele><time>2026-05-03T09:15:08.37Z</time></trkpt><trkpt lat="45.8933967" lon="9.56302"><ele>734.0</ele><time>2026-05-03T09:15:09.369Z</time></trkpt><trkpt lat="45.893485" lon="9.5628883"><ele>734.0</ele><time>2026-05-03T09:15:10.368Z</time></trkpt><trkpt lat="45.8935683" lon="9.5627417"><ele>734.0</ele><time>2026-05-03T09:15:11.369Z</time></trkpt><trkpt lat="45.893645" lon="9.562575"><ele>735.0</ele><time>2026-05-03T09:15:12.369Z</time></trkpt><trkpt lat="45.8937233" lon="9.5623983"><ele>736.0</ele><time>2026-05-03T09:15:13.371Z</time></trkpt><trkpt lat="45.8937983" lon="9.5622267"><ele>737.0</ele><time>2026-05-03T09:15:14.37Z</time></trkpt><trkpt lat="45.8938567" lon="9.5620633"><ele>738.0</ele><time>2026-05-03T09:15:15.37Z</time></trkpt><trkpt lat="45.8938767" lon="9.561895"><ele>738.0</ele><time>2026-05-03T09:15:16.373Z</time></trkpt><trkpt lat="45.8938583" lon="9.561735"><ele>738.0</ele><time>2026-05-03T09:15:17.37Z</time></trkpt><trkpt lat="45.8938117" lon="9.561605"><ele>738.0</ele><time>2026-05-03T09:15:18.37Z</time></trkpt><trkpt lat="45.8937333" lon="9.5615183"><ele>738.0</ele><time>2026-05-03T09:15:19.37Z</time></trkpt><trkpt lat="45.89362" lon="9.561485"><ele>738.0</ele><time>2026-05-03T09:15:20.371Z</time></trkpt><trkpt lat="45.89349" lon="9.5614783"><ele>738.75</ele><time>2026-05-03T09:15:21.37Z</time></trkpt><trkpt lat="45.893345" lon="9.5614967"><ele>739.5</ele><time>2026-05-03T09:15:22.369Z</time></trkpt><trkpt lat="45.893215" lon="9.561505"><ele>740.25</ele><time>2026-05-03T09:15:23.369Z</time></trkpt><trkpt lat="45.8931017" lon="9.5615417"><ele>741.0</ele><time>2026-05-03T09:15:24.369Z</time></trkpt><trkpt lat="45.8929933" lon="9.5616133"><ele>741.0</ele><time>2026-05-03T09:15:25.371Z</time></trkpt><trkpt lat="45.8928917" lon="9.561725"><ele>741.0</ele><time>2026-05-03T09:15:26.371Z</time></trkpt><trkpt lat="45.8927833" lon="9.561845"><ele>741.0</ele><time>2026-05-03T09:15:27.37Z</time></trkpt><trkpt lat="45.89267" lon="9.561975"><ele>741.0</ele><time>2026-05-03T09:15:28.37Z</time></trkpt><trkpt lat="45.8925633" lon="9.5621033"><ele>740.75</ele><time>2026-05-03T09:15:29.37Z</time></trkpt><trkpt lat="45.8924733" lon="9.5622267"><ele>740.5</ele><time>2026-05-03T09:15:30.369Z</time></trkpt><trkpt lat="45.892385" lon="9.5623283"><ele>740.25</ele><time>2026-05-03T09:15:31.369Z</time></trkpt><trkpt lat="45.8922883" lon="9.562405"><ele>740.0</ele><time>2026-05-03T09:15:32.369Z</time></trkpt><trkpt lat="45.8921667" lon="9.5624783"><ele>740.0</ele><time>2026-05-03T09:15:33.37Z</time></trkpt><trkpt lat="45.8920483" lon="9.5625583"><ele>740.0</ele><time>2026-05-03T09:15:34.369Z</time></trkpt><trkpt lat="45.891945" lon="9.5626217"><ele>740.0</ele><time>2026-05-03T09:15:35.37Z</time></trkpt><trkpt lat="45.8918667" lon="9.562675"><ele>740.0</ele><time>2026-05-03T09:15:36.369Z</time></trkpt><trkpt lat="45.8917967" lon="9.5627267"><ele>740.0</ele><time>2026-05-03T09:15:37.369Z</time></trkpt><trkpt lat="45.89174" lon="9.5627833"><ele>738.5</ele><time>2026-05-03T09:15:38.37Z</time></trkpt><trkpt lat="45.89166" lon="9.5629067"><ele>737.0</ele><time>2026-05-03T09:15:40.369Z</time></trkpt><trkpt lat="45.8915667" lon="9.5629617"><ele>735.5</ele><time>2026-05-03T09:15:42.37Z</time></trkpt><trkpt lat="45.891445" lon="9.5628267"><ele>734.0</ele><time>2026-05-03T09:15:44.369Z</time></trkpt><trkpt lat="45.891355" lon="9.5627717"><ele>741.5</ele><time>2026-05-03T09:15:45.37Z</time></trkpt><trkpt lat="45.8912567" lon="9.5626867"><ele>749.0</ele><time>2026-05-03T09:15:46.37Z</time></trkpt><trkpt lat="45.8911383" lon="9.5625633"><ele>756.5</ele><time>2026-05-03T09:15:47.37Z</time></trkpt><trkpt lat="45.8910233" lon="9.5624917"><ele>764.0</ele><time>2026-05-03T09:15:48.371Z</time></trkpt><trkpt lat="45.8908917" lon="9.5624433"><ele>764.0</ele><time>2026-05-03T09:15:49.369Z</time></trkpt><trkpt lat="45.8907633" lon="9.5623983"><ele>764.0</ele><time>2026-05-03T09:15:50.371Z</time></trkpt><trkpt lat="45.890635" lon="9.5623733"><ele>764.0</ele><time>2026-05-03T09:15:51.369Z</time></trkpt><trkpt lat="45.8905067" lon="9.5623783"><ele>764.0</ele><time>2026-05-03T09:15:52.371Z</time></trkpt><trkpt lat="45.8903717" lon="9.562385"><ele>764.0</ele><time>2026-05-03T09:15:53.37Z</time></trkpt><trkpt lat="45.8902417" lon="9.5623867"><ele>764.0</ele><time>2026-05-03T09:15:54.37Z</time></trkpt><trkpt lat="45.8901267" lon="9.562355"><ele>764.0</ele><time>2026-05-03T09:15:55.37Z</time></trkpt><trkpt lat="45.89001" lon="9.5623083"><ele>764.0</ele><time>2026-05-03T09:15:56.37Z</time></trkpt><trkpt lat="45.8898983" lon="9.5622267"><ele>761.75</ele><time>2026-05-03T09:15:57.37Z</time></trkpt><trkpt lat="45.8897933" lon="9.5621183"><ele>759.5</ele><time>2026-05-03T09:15:58.37Z</time></trkpt><trkpt lat="45.8896967" lon="9.56198"><ele>757.25</ele><time>2026-05-03T09:15:59.371Z</time></trkpt><trkpt lat="45.8896033" lon="9.5618733"><ele>755.0</ele><time>2026-05-03T09:16:00.372Z</time></trkpt><trkpt lat="45.8894933" lon="9.56182"><ele>762.5</ele><time>2026-05-03T09:16:01.373Z</time></trkpt><trkpt lat="45.889365" lon="9.5618067"><ele>770.0</ele><time>2026-05-03T09:16:02.373Z</time></trkpt><trkpt lat="45.8892233" lon="9.56182"><ele>777.5</ele><time>2026-05-03T09:16:03.37Z</time></trkpt><trkpt lat="45.88909" lon="9.5618467"><ele>785.0</ele><time>2026-05-03T09:16:04.369Z</time></trkpt><trkpt lat="45.8889783" lon="9.561855"><ele>785.0</ele><time>2026-05-03T09:16:05.373Z</time></trkpt><trkpt lat="45.8888867" lon="9.5618217"><ele>785.0</ele><time>2026-05-03T09:16:06.372Z</time></trkpt><trkpt lat="45.8888067" lon="9.5617667"><ele>785.0</ele><time>2026-05-03T09:16:07.369Z</time></trkpt><trkpt lat="45.88872" lon="9.5617133"><ele>785.0</ele><time>2026-05-03T09:16:08.371Z</time></trkpt><trkpt lat="45.8886267" lon="9.5617033"><ele>785.0</ele><time>2026-05-03T09:16:09.37Z</time></trkpt><trkpt lat="45.8885433" lon="9.56176"><ele>785.0</ele><time>2026-05-03T09:16:10.369Z</time></trkpt><trkpt lat="45.888485" lon="9.561865"><ele>785.0</ele><time>2026-05-03T09:16:11.37Z</time></trkpt><trkpt lat="45.88846" lon="9.56201"><ele>785.0</ele><time>2026-05-03T09:16:12.372Z</time></trkpt><trkpt lat="45.8884383" lon="9.5621517"><ele>785.0</ele><time>2026-05-03T09:16:13.373Z</time></trkpt><trkpt lat="45.8884117" lon="9.562275"><ele>785.0</ele><time>2026-05-03T09:16:14.374Z</time></trkpt><trkpt lat="45.8883767" lon="9.5623733"><ele>783.3333333333334</ele><time>2026-05-03T09:16:15.371Z</time></trkpt><trkpt lat="45.8883367" lon="9.5624467"><ele>781.6666666666667</ele><time>2026-05-03T09:16:16.371Z</time></trkpt><trkpt lat="45.888275" lon="9.5624783"><ele>780.0</ele><time>2026-05-03T09:16:17.372Z</time></trkpt><trkpt lat="45.8881867" lon="9.5624617"><ele>778.3333333333333</ele><time>2026-05-03T09:16:18.37Z</time></trkpt><trkpt lat="45.8880883" lon="9.5624517"><ele>776.6666666666666</ele><time>2026-05-03T09:16:19.372Z</time></trkpt><trkpt lat="45.8879783" lon="9.56247"><ele>775.0</ele><time>2026-05-03T09:16:20.371Z</time></trkpt><trkpt lat="45.8878683" lon="9.562535"><ele>775.0</ele><time>2026-05-03T09:16:21.372Z</time></trkpt><trkpt lat="45.887765" lon="9.5626483"><ele>775.0</ele><time>2026-05-03T09:16:22.371Z</time></trkpt><trkpt lat="45.8876633" lon="9.562795"><ele>775.0</ele><time>2026-05-03T09:16:23.372Z</time></trkpt><trkpt lat="45.8875633" lon="9.5629683"><ele>775.0</ele><time>2026-05-03T09:16:24.372Z</time></trkpt><trkpt lat="45.8874733" lon="9.5631467"><ele>779.25</ele><time>2026-05-03T09:16:25.372Z</time></trkpt><trkpt lat="45.8873983" lon="9.5633217"><ele>783.5</ele><time>2026-05-03T09:16:26.374Z</time></trkpt><trkpt lat="45.8873517" lon="9.5635083"><ele>787.75</ele><time>2026-05-03T09:16:27.371Z</time></trkpt><trkpt lat="45.88734" lon="9.5637"><ele>792.0</ele><time>2026-05-03T09:16:28.371Z</time></trkpt><trkpt lat="45.88732" lon="9.56389"><ele>792.0</ele><time>2026-05-03T09:16:29.37Z</time></trkpt><trkpt lat="45.8872883" lon="9.564075"><ele>792.0</ele><time>2026-05-03T09:16:30.371Z</time></trkpt><trkpt lat="45.887265" lon="9.5642517"><ele>792.0</ele><time>2026-05-03T09:16:31.371Z</time></trkpt><trkpt lat="45.88723" lon="9.5644217"><ele>792.0</ele><time>2026-05-03T09:16:32.371Z</time></trkpt><trkpt lat="45.88717" lon="9.564585"><ele>787.5</ele><time>2026-05-03T09:16:33.37Z</time></trkpt><trkpt lat="45.8871" lon="9.5647467"><ele>783.0</ele><time>2026-05-03T09:16:34.371Z</time></trkpt><trkpt lat="45.8870217" lon="9.5648967"><ele>778.5</ele><time>2026-05-03T09:16:35.371Z</time></trkpt><trkpt lat="45.8869233" lon="9.5650333"><ele>774.0</ele><time>2026-05-03T09:16:36.372Z</time></trkpt><trkpt lat="45.886815" lon="9.5651667"><ele>781.6666666666667</ele><time>2026-05-03T09:16:37.37Z</time></trkpt><trkpt lat="45.8867083" lon="9.5653083"><ele>789.3333333333334</ele><time>2026-05-03T09:16:38.37Z</time></trkpt><trkpt lat="45.8866017" lon="9.5654667"><ele>797.0</ele><time>2026-05-03T09:16:39.371Z</time></trkpt><trkpt lat="45.88649" lon="9.5656283"><ele>797.0</ele><time>2026-05-03T09:16:40.372Z</time></trkpt><trkpt lat="45.886385" lon="9.5657967"><ele>797.0</ele><time>2026-05-03T09:16:41.37Z</time></trkpt><trkpt lat="45.8862917" lon="9.5659617"><ele>797.0</ele><time>2026-05-03T09:16:42.371Z</time></trkpt><trkpt lat="45.88621" lon="9.5661133"><ele>797.0</ele><time>2026-05-03T09:16:43.37Z</time></trkpt><trkpt lat="45.8861367" lon="9.5662517"><ele>800.0</ele><time>2026-05-03T09:16:44.37Z</time></trkpt><trkpt lat="45.8860717" lon="9.56638"><ele>803.0</ele><time>2026-05-03T09:16:45.372Z</time></trkpt><trkpt lat="45.8860167" lon="9.5665033"><ele>806.0</ele><time>2026-05-03T09:16:46.373Z</time></trkpt><trkpt lat="45.8859633" lon="9.5666217"><ele>809.0</ele><time>2026-05-03T09:16:47.37Z</time></trkpt><trkpt lat="45.8859067" lon="9.5667267"><ele>812.0</ele><time>2026-05-03T09:16:48.37Z</time></trkpt><trkpt lat="45.885845" lon="9.5668133"><ele>812.0</ele><time>2026-05-03T09:16:49.372Z</time></trkpt><trkpt lat="45.8857833" lon="9.56687"><ele>812.0</ele><time>2026-05-03T09:16:50.371Z</time></trkpt><trkpt lat="45.885655" lon="9.566855"><ele>812.0</ele><time>2026-05-03T09:16:52.371Z</time></trkpt><trkpt lat="45.885585" lon="9.5668217"><ele>812.0</ele><time>2026-05-03T09:16:53.37Z</time></trkpt><trkpt lat="45.8855167" lon="9.5667167"><ele>812.0</ele><time>2026-05-03T09:16:54.371Z</time></trkpt><trkpt lat="45.8854833" lon="9.5666033"><ele>812.0</ele><time>2026-05-03T09:16:55.371Z</time></trkpt><trkpt lat="45.8854567" lon="9.566485"><ele>812.0</ele><time>2026-05-03T09:16:56.37Z</time></trkpt><trkpt lat="45.8854517" lon="9.5663083"><ele>812.0</ele><time>2026-05-03T09:16:57.371Z</time></trkpt><trkpt lat="45.88547" lon="9.5661417"><ele>812.0</ele><time>2026-05-03T09:16:58.371Z</time></trkpt><trkpt lat="45.88546" lon="9.565965"><ele>812.0</ele><time>2026-05-03T09:16:59.373Z</time></trkpt><trkpt lat="45.8854467" lon="9.565795"><ele>812.0</ele><time>2026-05-03T09:17:00.372Z</time></trkpt><trkpt lat="45.885435" lon="9.5656217"><ele>812.0</ele><time>2026-05-03T09:17:01.37Z</time></trkpt><trkpt lat="45.88544" lon="9.5654417"><ele>812.0</ele><time>2026-05-03T09:17:02.371Z</time></trkpt><trkpt lat="45.8854567" lon="9.565285"><ele>811.0</ele><time>2026-05-03T09:17:03.37Z</time></trkpt><trkpt lat="45.8854817" lon="9.5651417"><ele>810.0</ele><time>2026-05-03T09:17:04.37Z</time></trkpt><trkpt lat="45.885515" lon="9.5650017"><ele>809.0</ele><time>2026-05-03T09:17:05.37Z</time></trkpt><trkpt lat="45.8855617" lon="9.5648633"><ele>808.0</ele><time>2026-05-03T09:17:06.372Z</time></trkpt><trkpt lat="45.8856133" lon="9.564705"><ele>807.0</ele><time>2026-05-03T09:17:07.37Z</time></trkpt><trkpt lat="45.8856783" lon="9.5645467"><ele>810.3333333333333</ele><time>2026-05-03T09:17:08.372Z</time></trkpt><trkpt lat="45.8857817" lon="9.564395"><ele>813.6666666666666</ele><time>2026-05-03T09:17:09.373Z</time></trkpt><trkpt lat="45.8859" lon="9.5642367"><ele>817.0</ele><time>2026-05-03T09:17:10.373Z</time></trkpt><trkpt lat="45.8860167" lon="9.5640883"><ele>817.0</ele><time>2026-05-03T09:17:11.371Z</time></trkpt><trkpt lat="45.8861133" lon="9.56395"><ele>817.0</ele><time>2026-05-03T09:17:12.37Z</time></trkpt><trkpt lat="45.8861933" lon="9.5638183"><ele>817.0</ele><time>2026-05-03T09:17:13.373Z</time></trkpt><trkpt lat="45.88624" lon="9.5636717"><ele>817.0</ele><time>2026-05-03T09:17:14.374Z</time></trkpt><trkpt lat="45.8862417" lon="9.5635017"><ele>817.0</ele><time>2026-05-03T09:17:15.374Z</time></trkpt><trkpt lat="45.886235" lon="9.5633283"><ele>817.0</ele><time>2026-05-03T09:17:16.373Z</time></trkpt><trkpt lat="45.8862333" lon="9.5631717"><ele>817.0</ele><time>2026-05-03T09:17:17.371Z</time></trkpt><trkpt lat="45.88623" lon="9.5630033"><ele>817.0</ele><time>2026-05-03T09:17:18.37Z</time></trkpt><trkpt lat="45.8862217" lon="9.562835"><ele>816.4000000000001</ele><time>2026-05-03T09:17:19.371Z</time></trkpt><trkpt lat="45.886195" lon="9.562675"><ele>815.8000000000001</ele><time>2026-05-03T09:17:20.371Z</time></trkpt><trkpt lat="45.8861583" lon="9.562525"><ele>815.2</ele><time>2026-05-03T09:17:21.37Z</time></trkpt><trkpt lat="45.8861217" lon="9.5623933"><ele>814.6</ele><time>2026-05-03T09:17:22.37Z</time></trkpt><trkpt lat="45.8860933" lon="9.5622783"><ele>814.0</ele><time>2026-05-03T09:17:23.371Z</time></trkpt><trkpt lat="45.886085" lon="9.5621667"><ele>814.0</ele><time>2026-05-03T09:17:24.374Z</time></trkpt><trkpt lat="45.8860983" lon="9.56204"><ele>814.0</ele><time>2026-05-03T09:17:25.374Z</time></trkpt><trkpt lat="45.8861233" lon="9.56191"><ele>814.0</ele><time>2026-05-03T09:17:26.371Z</time></trkpt><trkpt lat="45.8861567" lon="9.5617767"><ele>814.0</ele><time>2026-05-03T09:17:27.373Z</time></trkpt><trkpt lat="45.88618" lon="9.56162"><ele>814.0</ele><time>2026-05-03T09:17:28.372Z</time></trkpt><trkpt lat="45.88619" lon="9.5614533"><ele>811.8000000000001</ele><time>2026-05-03T09:17:29.37Z</time></trkpt><trkpt lat="45.8862033" lon="9.5613033"><ele>809.6</ele><time>2026-05-03T09:17:30.373Z</time></trkpt><trkpt lat="45.886235" lon="9.5611667"><ele>807.4</ele><time>2026-05-03T09:17:31.372Z</time></trkpt><trkpt lat="45.886295" lon="9.5610417"><ele>805.2</ele><time>2026-05-03T09:17:32.373Z</time></trkpt><trkpt lat="45.8863717" lon="9.5609317"><ele>803.0</ele><time>2026-05-03T09:17:33.372Z</time></trkpt><trkpt lat="45.8864633" lon="9.5608417"><ele>804.0</ele><time>2026-05-03T09:17:34.37Z</time></trkpt><trkpt lat="45.8865533" lon="9.5607567"><ele>805.0</ele><time>2026-05-03T09:17:35.372Z</time></trkpt><trkpt lat="45.8866433" lon="9.5606783"><ele>806.0</ele><time>2026-05-03T09:17:36.373Z</time></trkpt><trkpt lat="45.8867217" lon="9.5606067"><ele>807.0</ele><time>2026-05-03T09:17:37.372Z</time></trkpt><trkpt lat="45.886785" lon="9.560535"><ele>808.0</ele><time>2026-05-03T09:17:38.373Z</time></trkpt><trkpt lat="45.8868317" lon="9.5604533"><ele>804.1666666666666</ele><time>2026-05-03T09:17:39.373Z</time></trkpt><trkpt lat="45.8868567" lon="9.5603517"><ele>800.3333333333333</ele><time>2026-05-03T09:17:40.37Z</time></trkpt><trkpt lat="45.886865" lon="9.5602433"><ele>796.5</ele><time>2026-05-03T09:17:41.372Z</time></trkpt><trkpt lat="45.8868717" lon="9.560145"><ele>792.6666666666667</ele><time>2026-05-03T09:17:42.373Z</time></trkpt><trkpt lat="45.8868767" lon="9.5599783"><ele>788.8333333333334</ele><time>2026-05-03T09:17:44.374Z</time></trkpt><trkpt lat="45.8868317" lon="9.5598367"><ele>785.0</ele><time>2026-05-03T09:17:46.374Z</time></trkpt><trkpt lat="45.88673" lon="9.5597467"><ele>782.3333333333334</ele><time>2026-05-03T09:17:48.37Z</time></trkpt><trkpt lat="45.886655" lon="9.5597417"><ele>779.6666666666667</ele><time>2026-05-03T09:17:49.37Z</time></trkpt><trkpt lat="45.8865733" lon="9.559755"><ele>777.0</ele><time>2026-05-03T09:17:50.371Z</time></trkpt><trkpt lat="45.8864883" lon="9.5598"><ele>774.3333333333333</ele><time>2026-05-03T09:17:51.371Z</time></trkpt><trkpt lat="45.8864017" lon="9.55987"><ele>771.6666666666666</ele><time>2026-05-03T09:17:52.37Z</time></trkpt><trkpt lat="45.88632" lon="9.5599517"><ele>769.0</ele><time>2026-05-03T09:17:53.371Z</time></trkpt><trkpt lat="45.8862367" lon="9.5600383"><ele>768.9999999999999</ele><time>2026-05-03T09:17:54.37Z</time></trkpt><trkpt lat="45.8861633" lon="9.56012"><ele>769.0</ele><time>2026-05-03T09:17:55.37Z</time></trkpt><trkpt lat="45.8861067" lon="9.5602117"><ele>769.0</ele><time>2026-05-03T09:17:56.374Z</time></trkpt><trkpt lat="45.886065" lon="9.5603083"><ele>769.0</ele><time>2026-05-03T09:17:57.374Z</time></trkpt><trkpt lat="45.8860383" lon="9.560405"><ele>768.9999999999999</ele><time>2026-05-03T09:17:58.373Z</time></trkpt><trkpt lat="45.886025" lon="9.56051"><ele>769.0</ele><time>2026-05-03T09:17:59.374Z</time></trkpt><trkpt lat="45.8860283" lon="9.5606167"><ele>769.2</ele><time>2026-05-03T09:18:00.371Z</time></trkpt><trkpt lat="45.88602" lon="9.560725"><ele>769.4000000000001</ele><time>2026-05-03T09:18:01.371Z</time></trkpt><trkpt lat="45.886" lon="9.560835"><ele>769.6</ele><time>2026-05-03T09:18:02.372Z</time></trkpt><trkpt lat="45.8859567" lon="9.56094"><ele>769.8</ele><time>2026-05-03T09:18:03.373Z</time></trkpt><trkpt lat="45.8858933" lon="9.5610767"><ele>770.0</ele><time>2026-05-03T09:18:04.374Z</time></trkpt><trkpt lat="45.885825" lon="9.5612183"><ele>770.0</ele><time>2026-05-03T09:18:05.372Z</time></trkpt><trkpt lat="45.8857683" lon="9.5613467"><ele>770.0</ele><time>2026-05-03T09:18:06.374Z</time></trkpt><trkpt lat="45.8857133" lon="9.56144"><ele>770.0</ele><time>2026-05-03T09:18:07.374Z</time></trkpt><trkpt lat="45.8856517" lon="9.5615117"><ele>770.0</ele><time>2026-05-03T09:18:08.373Z</time></trkpt><trkpt lat="45.885575" lon="9.561565"><ele>770.0</ele><time>2026-05-03T09:18:09.373Z</time></trkpt><trkpt lat="45.8854867" lon="9.56162"><ele>770.0</ele><time>2026-05-03T09:18:10.373Z</time></trkpt><trkpt lat="45.8853983" lon="9.561675"><ele>770.0</ele><time>2026-05-03T09:18:11.372Z</time></trkpt><trkpt lat="45.88531" lon="9.5617233"><ele>770.0</ele><time>2026-05-03T09:18:12.373Z</time></trkpt><trkpt lat="45.885245" lon="9.5617717"><ele>770.0</ele><time>2026-05-03T09:18:13.372Z</time></trkpt><trkpt lat="45.8851783" lon="9.5619033"><ele>770.0</ele><time>2026-05-03T09:18:15.37Z</time></trkpt><trkpt lat="45.8851567" lon="9.5620867"><ele>771.0</ele><time>2026-05-03T09:18:17.37Z</time></trkpt><trkpt lat="45.8851517" lon="9.5621833"><ele>772.0</ele><time>2026-05-03T09:18:18.369Z</time></trkpt><trkpt lat="45.885155" lon="9.5622867"><ele>773.0</ele><time>2026-05-03T09:18:19.369Z</time></trkpt><trkpt lat="45.8851733" lon="9.5623933"><ele>774.0</ele><time>2026-05-03T09:18:20.373Z</time></trkpt><trkpt lat="45.8852" lon="9.5624967"><ele>775.0</ele><time>2026-05-03T09:18:21.373Z</time></trkpt><trkpt lat="45.8852283" lon="9.56259"><ele>776.0</ele><time>2026-05-03T09:18:22.369Z</time></trkpt><trkpt lat="45.88525" lon="9.5626783"><ele>777.0</ele><time>2026-05-03T09:18:23.369Z</time></trkpt><trkpt lat="45.88527" lon="9.562845"><ele>777.5714285714286</ele><time>2026-05-03T09:18:25.372Z</time></trkpt><trkpt lat="45.8852783" lon="9.56294"><ele>778.1428571428571</ele><time>2026-05-03T09:18:26.371Z</time></trkpt><trkpt lat="45.885275" lon="9.56304"><ele>778.7142857142858</ele><time>2026-05-03T09:18:27.373Z</time></trkpt><trkpt lat="45.88527" lon="9.5631367"><ele>779.2857142857142</ele><time>2026-05-03T09:18:28.372Z</time></trkpt><trkpt lat="45.8852483" lon="9.5632783"><ele>779.8571428571429</ele><time>2026-05-03T09:18:30.372Z</time></trkpt><trkpt lat="45.88532" lon="9.5632817"><ele>780.4285714285714</ele><time>2026-05-03T09:18:35.373Z</time></trkpt><trkpt lat="45.8853617" lon="9.5631967"><ele>781.0</ele><time>2026-05-03T09:18:36.37Z</time></trkpt><trkpt lat="45.88539" lon="9.563115"><ele>780.9999999999999</ele><time>2026-05-03T09:18:37.374Z</time></trkpt><trkpt lat="45.8854267" lon="9.5629817"><ele>781.0</ele><time>2026-05-03T09:18:39.373Z</time></trkpt><trkpt lat="45.8854467" lon="9.5628917"><ele>781.0</ele><time>2026-05-03T09:18:41.373Z</time></trkpt><trkpt lat="45.8855483" lon="9.562885"><ele>781.0</ele><time>2026-05-03T09:49:02.371Z</time></trkpt><trkpt lat="45.885465" lon="9.5628717"><ele>780.9999999999999</ele><time>2026-05-03T09:59:14.371Z</time></trkpt><trkpt lat="45.885545" lon="9.56284"><ele>781.0</ele><time>2026-05-03T10:01:53.37Z</time></trkpt><trkpt lat="45.8854633" lon="9.562905"><ele>780.9999999999999</ele><time>2026-05-03T10:07:34.373Z</time></trkpt><trkpt lat="45.8854183" lon="9.5629967"><ele>781.0</ele><time>2026-05-03T10:08:23.373Z</time></trkpt><trkpt lat="45.8853883" lon="9.5631317"><ele>781.0</ele><time>2026-05-03T10:08:25.373Z</time></trkpt><trkpt lat="45.885325" lon="9.5632383"><ele>781.0</ele><time>2026-05-03T10:08:27.097Z</time></trkpt><trkpt lat="45.8852583" lon="9.56332"><ele>780.9999999999999</ele><time>2026-05-03T10:08:29.369Z</time></trkpt><trkpt lat="45.8852067" lon="9.5632433"><ele>781.0</ele><time>2026-05-03T10:08:32.368Z</time></trkpt><trkpt lat="45.8852283" lon="9.5630967"><ele>780.9999999999999</ele><time>2026-05-03T10:08:34.371Z</time></trkpt><trkpt lat="45.8852583" lon="9.5629667"><ele>781.0</ele><time>2026-05-03T10:08:36.369Z</time></trkpt><trkpt lat="45.88526" lon="9.5628433"><ele>781.0</ele><time>2026-05-03T10:08:40.373Z</time></trkpt><trkpt lat="45.885255" lon="9.5627133"><ele>781.0</ele><time>2026-05-03T10:08:42.371Z</time></trkpt><trkpt lat="45.8852433" lon="9.5626217"><ele>780.9999999999999</ele><time>2026-05-03T10:08:43.369Z</time></trkpt><trkpt lat="45.8852233" lon="9.5625283"><ele>781.0</ele><time>2026-05-03T10:08:44.371Z</time></trkpt><trkpt lat="45.8851933" lon="9.5624383"><ele>780.1999999999999</ele><time>2026-05-03T10:08:45.369Z</time></trkpt><trkpt lat="45.885165" lon="9.562275"><ele>779.4</ele><time>2026-05-03T10:08:47.37Z</time></trkpt><trkpt lat="45.8851633" lon="9.5621433"><ele>778.6</ele><time>2026-05-03T10:08:49.37Z</time></trkpt><trkpt lat="45.8851817" lon="9.562025"><ele>777.8</ele><time>2026-05-03T10:08:51.371Z</time></trkpt><trkpt lat="45.8851917" lon="9.5619233"><ele>777.0</ele><time>2026-05-03T10:08:53.369Z</time></trkpt><trkpt lat="45.885215" lon="9.561805"><ele>775.8333333333334</ele><time>2026-05-03T10:08:55.37Z</time></trkpt><trkpt lat="45.885275" lon="9.5617217"><ele>774.6666666666667</ele><time>2026-05-03T10:08:57.369Z</time></trkpt><trkpt lat="45.885345" lon="9.5616833"><ele>773.5</ele><time>2026-05-03T10:08:59.37Z</time></trkpt><trkpt lat="45.88542" lon="9.5616417"><ele>772.3333333333334</ele><time>2026-05-03T10:09:01.37Z</time></trkpt><trkpt lat="45.8855183" lon="9.56158"><ele>771.1666666666667</ele><time>2026-05-03T10:09:03.369Z</time></trkpt><trkpt lat="45.8855783" lon="9.561545"><ele>770.0</ele><time>2026-05-03T10:09:04.37Z</time></trkpt><trkpt lat="45.885635" lon="9.5615017"><ele>770.0</ele><time>2026-05-03T10:09:05.371Z</time></trkpt><trkpt lat="45.88573" lon="9.5614017"><ele>770.0</ele><time>2026-05-03T10:09:07.37Z</time></trkpt><trkpt lat="45.8858017" lon="9.561265"><ele>770.0</ele><time>2026-05-03T10:09:09.371Z</time></trkpt><trkpt lat="45.8858633" lon="9.5611083"><ele>770.0</ele><time>2026-05-03T10:09:11.37Z</time></trkpt><trkpt lat="45.8859333" lon="9.5609633"><ele>769.8333333333334</ele><time>2026-05-03T10:09:13.37Z</time></trkpt><trkpt lat="45.886005" lon="9.5608067"><ele>769.6666666666667</ele><time>2026-05-03T10:09:15.369Z</time></trkpt><trkpt lat="45.8860433" lon="9.5607267"><ele>769.5</ele><time>2026-05-03T10:09:16.371Z</time></trkpt><trkpt lat="45.8860733" lon="9.560635"><ele>769.3333333333333</ele><time>2026-05-03T10:09:17.37Z</time></trkpt><trkpt lat="45.88608" lon="9.560545"><ele>769.1666666666666</ele><time>2026-05-03T10:09:18.37Z</time></trkpt><trkpt lat="45.8860833" lon="9.5604467"><ele>769.0</ele><time>2026-05-03T10:09:19.371Z</time></trkpt><trkpt lat="45.8860917" lon="9.56027"><ele>768.9999999999999</ele><time>2026-05-03T10:09:21.37Z</time></trkpt><trkpt lat="45.8861133" lon="9.5601833"><ele>769.0</ele><time>2026-05-03T10:09:22.37Z</time></trkpt><trkpt lat="45.8861417" lon="9.5600933"><ele>769.0</ele><time>2026-05-03T10:09:23.37Z</time></trkpt><trkpt lat="45.886185" lon="9.5600117"><ele>769.0</ele><time>2026-05-03T10:09:24.371Z</time></trkpt><trkpt lat="45.8862633" lon="9.5599317"><ele>768.9999999999999</ele><time>2026-05-03T10:09:25.371Z</time></trkpt><trkpt lat="45.8863633" lon="9.5598667"><ele>769.0</ele><time>2026-05-03T10:09:26.372Z</time></trkpt><trkpt lat="45.8864533" lon="9.55981"><ele>768.9999999999999</ele><time>2026-05-03T10:09:27.37Z</time></trkpt><trkpt lat="45.8865167" lon="9.5597583"><ele>769.0</ele><time>2026-05-03T10:09:28.37Z</time></trkpt><trkpt lat="45.8865817" lon="9.5597167"><ele>769.0</ele><time>2026-05-03T10:09:29.37Z</time></trkpt><trkpt lat="45.886645" lon="9.5596983"><ele>769.0</ele><time>2026-05-03T10:09:30.37Z</time></trkpt><trkpt lat="45.8867717" lon="9.5597583"><ele>768.9999999999999</ele><time>2026-05-03T10:09:32.371Z</time></trkpt><trkpt lat="45.88683" lon="9.559845"><ele>769.0</ele><time>2026-05-03T10:09:33.369Z</time></trkpt><trkpt lat="45.8868783" lon="9.55991"><ele>772.2</ele><time>2026-05-03T10:09:34.373Z</time></trkpt><trkpt lat="45.8869383" lon="9.5600783"><ele>775.4000000000001</ele><time>2026-05-03T10:09:36.373Z</time></trkpt><trkpt lat="45.8869367" lon="9.5601983"><ele>778.6</ele><time>2026-05-03T10:09:37.373Z</time></trkpt><trkpt lat="45.8868967" lon="9.5603283"><ele>781.8</ele><time>2026-05-03T10:09:38.37Z</time></trkpt><trkpt lat="45.8868783" lon="9.5604383"><ele>785.0</ele><time>2026-05-03T10:09:39.369Z</time></trkpt><trkpt lat="45.8868383" lon="9.56053"><ele>784.4</ele><time>2026-05-03T10:09:40.371Z</time></trkpt><trkpt lat="45.8867833" lon="9.5606067"><ele>783.8</ele><time>2026-05-03T10:09:41.371Z</time></trkpt><trkpt lat="45.88671" lon="9.5606733"><ele>783.2</ele><time>2026-05-03T10:09:42.372Z</time></trkpt><trkpt lat="45.8866267" lon="9.56074"><ele>782.6</ele><time>2026-05-03T10:09:43.373Z</time></trkpt><trkpt lat="45.8865017" lon="9.5608267"><ele>782.0</ele><time>2026-05-03T10:09:44.374Z</time></trkpt><trkpt lat="45.8864117" lon="9.5609183"><ele>781.9999999999999</ele><time>2026-05-03T10:09:45.37Z</time></trkpt><trkpt lat="45.88635" lon="9.5609867"><ele>782.0</ele><time>2026-05-03T10:09:46.37Z</time></trkpt><trkpt lat="45.8863033" lon="9.5610533"><ele>782.0</ele><time>2026-05-03T10:09:47.371Z</time></trkpt><trkpt lat="45.8862633" lon="9.5611317"><ele>782.0</ele><time>2026-05-03T10:09:48.371Z</time></trkpt><trkpt lat="45.8862267" lon="9.5612217"><ele>782.0</ele><time>2026-05-03T10:09:49.372Z</time></trkpt><trkpt lat="45.8861983" lon="9.5613217"><ele>781.9999999999999</ele><time>2026-05-03T10:09:50.371Z</time></trkpt><trkpt lat="45.8861867" lon="9.561435"><ele>782.0</ele><time>2026-05-03T10:09:51.37Z</time></trkpt><trkpt lat="45.88618" lon="9.5616767"><ele>786.2</ele><time>2026-05-03T10:09:53.373Z</time></trkpt><trkpt lat="45.8861667" lon="9.561805"><ele>790.4000000000001</ele><time>2026-05-03T10:09:54.37Z</time></trkpt><trkpt lat="45.8861317" lon="9.561945"><ele>794.5999999999999</ele><time>2026-05-03T10:09:55.37Z</time></trkpt><trkpt lat="45.8860867" lon="9.5620817"><ele>798.8</ele><time>2026-05-03T10:09:56.373Z</time></trkpt><trkpt lat="45.88606" lon="9.5622083"><ele>803.0</ele><time>2026-05-03T10:09:57.373Z</time></trkpt><trkpt lat="45.88605" lon="9.5623267"><ele>804.8333333333334</ele><time>2026-05-03T10:09:58.371Z</time></trkpt><trkpt lat="45.8860583" lon="9.5624483"><ele>806.6666666666667</ele><time>2026-05-03T10:09:59.375Z</time></trkpt><trkpt lat="45.886085" lon="9.562555"><ele>808.5</ele><time>2026-05-03T10:10:00.374Z</time></trkpt><trkpt lat="45.8861217" lon="9.562665"><ele>810.3333333333333</ele><time>2026-05-03T10:10:01.37Z</time></trkpt><trkpt lat="45.8861567" lon="9.562785"><ele>812.1666666666666</ele><time>2026-05-03T10:10:02.373Z</time></trkpt><trkpt lat="45.8861783" lon="9.5629217"><ele>814.0</ele><time>2026-05-03T10:10:03.372Z</time></trkpt><trkpt lat="45.8861917" lon="9.563065"><ele>814.6</ele><time>2026-05-03T10:10:04.37Z</time></trkpt><trkpt lat="45.8861983" lon="9.563215"><ele>815.2</ele><time>2026-05-03T10:10:05.369Z</time></trkpt><trkpt lat="45.886205" lon="9.5633683"><ele>815.8000000000001</ele><time>2026-05-03T10:10:06.368Z</time></trkpt><trkpt lat="45.886215" lon="9.5635183"><ele>816.4000000000001</ele><time>2026-05-03T10:10:07.377Z</time></trkpt><trkpt lat="45.8862267" lon="9.56365"><ele>817.0</ele><time>2026-05-03T10:10:08.372Z</time></trkpt><trkpt lat="45.8862183" lon="9.5637783"><ele>817.0</ele><time>2026-05-03T10:10:09.373Z</time></trkpt><trkpt lat="45.88618" lon="9.56389"><ele>817.0</ele><time>2026-05-03T10:10:10.372Z</time></trkpt><trkpt lat="45.88611" lon="9.564005"><ele>817.0</ele><time>2026-05-03T10:10:11.372Z</time></trkpt><trkpt lat="45.8860133" lon="9.5641367"><ele>817.0</ele><time>2026-05-03T10:10:12.373Z</time></trkpt><trkpt lat="45.8859117" lon="9.56427"><ele>814.5</ele><time>2026-05-03T10:10:13.373Z</time></trkpt><trkpt lat="45.8858017" lon="9.5644067"><ele>812.0</ele><time>2026-05-03T10:10:14.376Z</time></trkpt><trkpt lat="45.8857" lon="9.5645567"><ele>809.5</ele><time>2026-05-03T10:10:15.369Z</time></trkpt><trkpt lat="45.8856083" lon="9.564725"><ele>807.0</ele><time>2026-05-03T10:10:16.372Z</time></trkpt><trkpt lat="45.8855333" lon="9.564915"><ele>807.0</ele><time>2026-05-03T10:10:17.37Z</time></trkpt><trkpt lat="45.88547" lon="9.5650933"><ele>807.0</ele><time>2026-05-03T10:10:18.371Z</time></trkpt><trkpt lat="45.8854233" lon="9.5652567"><ele>807.0</ele><time>2026-05-03T10:10:19.37Z</time></trkpt><trkpt lat="45.8853917" lon="9.5654267"><ele>807.0</ele><time>2026-05-03T10:10:20.371Z</time></trkpt><trkpt lat="45.8853917" lon="9.56559"><ele>808.0</ele><time>2026-05-03T10:10:21.37Z</time></trkpt><trkpt lat="45.8854083" lon="9.5657467"><ele>809.0</ele><time>2026-05-03T10:10:22.37Z</time></trkpt><trkpt lat="45.8854333" lon="9.5658967"><ele>810.0</ele><time>2026-05-03T10:10:23.37Z</time></trkpt><trkpt lat="45.885455" lon="9.5660267"><ele>811.0</ele><time>2026-05-03T10:10:24.373Z</time></trkpt><trkpt lat="45.8854583" lon="9.5661567"><ele>812.0</ele><time>2026-05-03T10:10:25.369Z</time></trkpt><trkpt lat="45.8854433" lon="9.5662733"><ele>812.0000000000001</ele><time>2026-05-03T10:10:26.37Z</time></trkpt><trkpt lat="45.8854233" lon="9.5663667"><ele>812.0</ele><time>2026-05-03T10:10:27.372Z</time></trkpt><trkpt lat="45.8854233" lon="9.5665233"><ele>812.0</ele><time>2026-05-03T10:10:29.372Z</time></trkpt><trkpt lat="45.88545" lon="9.5666083"><ele>812.0</ele><time>2026-05-03T10:10:30.371Z</time></trkpt><trkpt lat="45.8854967" lon="9.566695"><ele>812.0000000000001</ele><time>2026-05-03T10:10:31.372Z</time></trkpt><trkpt lat="45.8855667" lon="9.56678"><ele>812.0</ele><time>2026-05-03T10:10:32.372Z</time></trkpt><trkpt lat="45.88565" lon="9.5668333"><ele>812.0</ele><time>2026-05-03T10:10:33.37Z</time></trkpt><trkpt lat="45.8857417" lon="9.5668583"><ele>812.0</ele><time>2026-05-03T10:10:34.372Z</time></trkpt><trkpt lat="45.8858333" lon="9.5668567"><ele>812.0</ele><time>2026-05-03T10:10:35.372Z</time></trkpt><trkpt lat="45.8859167" lon="9.56682"><ele>812.0</ele><time>2026-05-03T10:10:36.372Z</time></trkpt><trkpt lat="45.8859983" lon="9.5667267"><ele>812.0</ele><time>2026-05-03T10:10:37.372Z</time></trkpt><trkpt lat="45.886065" lon="9.56655"><ele>807.0</ele><time>2026-05-03T10:10:38.372Z</time></trkpt><trkpt lat="45.8861683" lon="9.56634"><ele>802.0</ele><time>2026-05-03T10:10:39.371Z</time></trkpt><trkpt lat="45.8862683" lon="9.5661367"><ele>797.0</ele><time>2026-05-03T10:10:40.372Z</time></trkpt><trkpt lat="45.8863767" lon="9.5659433"><ele>797.0</ele><time>2026-05-03T10:10:41.372Z</time></trkpt><trkpt lat="45.88649" lon="9.5657367"><ele>797.0</ele><time>2026-05-03T10:10:42.371Z</time></trkpt><trkpt lat="45.8866117" lon="9.565535"><ele>797.0</ele><time>2026-05-03T10:10:43.37Z</time></trkpt><trkpt lat="45.88673" lon="9.56535"><ele>791.25</ele><time>2026-05-03T10:10:44.372Z</time></trkpt><trkpt lat="45.8868333" lon="9.5651783"><ele>785.5</ele><time>2026-05-03T10:10:45.37Z</time></trkpt><trkpt lat="45.886925" lon="9.5650283"><ele>779.75</ele><time>2026-05-03T10:10:46.374Z</time></trkpt><trkpt lat="45.8870217" lon="9.5649183"><ele>774.0</ele><time>2026-05-03T10:10:47.372Z</time></trkpt><trkpt lat="45.88711" lon="9.564795"><ele>774.0</ele><time>2026-05-03T10:10:48.37Z</time></trkpt><trkpt lat="45.8872" lon="9.5646417"><ele>774.0</ele><time>2026-05-03T10:10:49.373Z</time></trkpt><trkpt lat="45.8872933" lon="9.5644767"><ele>774.0</ele><time>2026-05-03T10:10:50.372Z</time></trkpt><trkpt lat="45.8873683" lon="9.5642883"><ele>774.0</ele><time>2026-05-03T10:10:51.372Z</time></trkpt><trkpt lat="45.88743" lon="9.5640783"><ele>780.0</ele><time>2026-05-03T10:10:52.371Z</time></trkpt><trkpt lat="45.88747" lon="9.563865"><ele>786.0</ele><time>2026-05-03T10:10:53.372Z</time></trkpt><trkpt lat="45.8874983" lon="9.5636533"><ele>792.0</ele><time>2026-05-03T10:10:54.373Z</time></trkpt><trkpt lat="45.887525" lon="9.563445"><ele>794.0</ele><time>2026-05-03T10:10:55.372Z</time></trkpt><trkpt lat="45.887565" lon="9.5632467"><ele>796.0</ele><time>2026-05-03T10:10:56.371Z</time></trkpt><trkpt lat="45.8876033" lon="9.563065"><ele>798.0</ele><time>2026-05-03T10:10:57.37Z</time></trkpt><trkpt lat="45.8876567" lon="9.5628883"><ele>800.0</ele><time>2026-05-03T10:10:58.371Z</time></trkpt><trkpt lat="45.8877383" lon="9.5627217"><ele>793.75</ele><time>2026-05-03T10:10:59.369Z</time></trkpt><trkpt lat="45.8878483" lon="9.5625733"><ele>787.5</ele><time>2026-05-03T10:11:00.371Z</time></trkpt><trkpt lat="45.8879567" lon="9.5624517"><ele>781.25</ele><time>2026-05-03T10:11:01.37Z</time></trkpt><trkpt lat="45.8880717" lon="9.5623517"><ele>775.0</ele><time>2026-05-03T10:11:02.371Z</time></trkpt><trkpt lat="45.8881867" lon="9.5623"><ele>775.0</ele><time>2026-05-03T10:11:03.37Z</time></trkpt><trkpt lat="45.8882967" lon="9.56229"><ele>775.0</ele><time>2026-05-03T10:11:04.37Z</time></trkpt><trkpt lat="45.888405" lon="9.5622783"><ele>775.0</ele><time>2026-05-03T10:11:05.369Z</time></trkpt><trkpt lat="45.8884933" lon="9.5622667"><ele>775.0</ele><time>2026-05-03T10:11:06.373Z</time></trkpt><trkpt lat="45.8885767" lon="9.56221"><ele>775.0</ele><time>2026-05-03T10:11:07.373Z</time></trkpt><trkpt lat="45.8886267" lon="9.562105"><ele>777.5</ele><time>2026-05-03T10:11:08.375Z</time></trkpt><trkpt lat="45.8886767" lon="9.561965"><ele>780.0</ele><time>2026-05-03T10:11:09.372Z</time></trkpt><trkpt lat="45.8887183" lon="9.561825"><ele>782.5</ele><time>2026-05-03T10:11:10.37Z</time></trkpt><trkpt lat="45.8887567" lon="9.5617067"><ele>785.0</ele><time>2026-05-03T10:11:11.37Z</time></trkpt><trkpt lat="45.8889133" lon="9.5616817"><ele>785.0</ele><time>2026-05-03T10:11:13.37Z</time></trkpt><trkpt lat="45.88899" lon="9.56175"><ele>785.0</ele><time>2026-05-03T10:11:14.371Z</time></trkpt><trkpt lat="45.8890883" lon="9.5618367"><ele>785.0</ele><time>2026-05-03T10:11:15.37Z</time></trkpt><trkpt lat="45.8892117" lon="9.561845"><ele>785.0</ele><time>2026-05-03T10:11:16.37Z</time></trkpt><trkpt lat="45.8893483" lon="9.56184"><ele>787.0</ele><time>2026-05-03T10:11:17.37Z</time></trkpt><trkpt lat="45.88948" lon="9.5618467"><ele>789.0</ele><time>2026-05-03T10:11:18.371Z</time></trkpt><trkpt lat="45.8896067" lon="9.5618783"><ele>791.0</ele><time>2026-05-03T10:11:19.371Z</time></trkpt><trkpt lat="45.88972" lon="9.5619533"><ele>793.0</ele><time>2026-05-03T10:11:20.373Z</time></trkpt><trkpt lat="45.8898167" lon="9.56206"><ele>785.75</ele><time>2026-05-03T10:11:21.373Z</time></trkpt><trkpt lat="45.8899083" lon="9.56217"><ele>778.5</ele><time>2026-05-03T10:11:22.371Z</time></trkpt><trkpt lat="45.8900117" lon="9.5622817"><ele>771.25</ele><time>2026-05-03T10:11:23.372Z</time></trkpt><trkpt lat="45.8901317" lon="9.56236"><ele>764.0</ele><time>2026-05-03T10:11:24.37Z</time></trkpt><trkpt lat="45.8902717" lon="9.56241"><ele>764.0</ele><time>2026-05-03T10:11:25.37Z</time></trkpt><trkpt lat="45.8904233" lon="9.5624317"><ele>764.0</ele><time>2026-05-03T10:11:26.374Z</time></trkpt><trkpt lat="45.890585" lon="9.5624333"><ele>764.0</ele><time>2026-05-03T10:11:27.373Z</time></trkpt><trkpt lat="45.8907583" lon="9.562445"><ele>765.0</ele><time>2026-05-03T10:11:28.37Z</time></trkpt><trkpt lat="45.890945" lon="9.5624517"><ele>766.0</ele><time>2026-05-03T10:11:29.371Z</time></trkpt><trkpt lat="45.8911183" lon="9.5624833"><ele>767.0</ele><time>2026-05-03T10:11:30.371Z</time></trkpt><trkpt lat="45.8912733" lon="9.562525"><ele>767.0</ele><time>2026-05-03T10:11:31.37Z</time></trkpt><trkpt lat="45.8914117" lon="9.5625933"><ele>767.0</ele><time>2026-05-03T10:11:32.37Z</time></trkpt><trkpt lat="45.8915217" lon="9.56269"><ele>767.0</ele><time>2026-05-03T10:11:33.37Z</time></trkpt><trkpt lat="45.8915983" lon="9.5628083"><ele>767.0</ele><time>2026-05-03T10:11:34.37Z</time></trkpt><trkpt lat="45.8916567" lon="9.5629133"><ele>762.5</ele><time>2026-05-03T10:11:35.37Z</time></trkpt><trkpt lat="45.891715" lon="9.562965"><ele>758.0</ele><time>2026-05-03T10:11:36.373Z</time></trkpt><trkpt lat="45.8917817" lon="9.5629767"><ele>753.5</ele><time>2026-05-03T10:11:37.373Z</time></trkpt><trkpt lat="45.8918517" lon="9.5629383"><ele>749.0</ele><time>2026-05-03T10:11:38.373Z</time></trkpt><trkpt lat="45.8919283" lon="9.56291"><ele>744.5</ele><time>2026-05-03T10:11:39.371Z</time></trkpt><trkpt lat="45.8920133" lon="9.562855"><ele>740.0</ele><time>2026-05-03T10:11:40.371Z</time></trkpt><trkpt lat="45.8921083" lon="9.5627883"><ele>740.0</ele><time>2026-05-03T10:11:41.376Z</time></trkpt><trkpt lat="45.8922317" lon="9.5626667"><ele>740.0</ele><time>2026-05-03T10:11:42.372Z</time></trkpt><trkpt lat="45.892355" lon="9.5625517"><ele>740.0</ele><time>2026-05-03T10:11:43.375Z</time></trkpt><trkpt lat="45.8924933" lon="9.5624167"><ele>740.25</ele><time>2026-05-03T10:11:44.374Z</time></trkpt><trkpt lat="45.8926067" lon="9.562265"><ele>740.5</ele><time>2026-05-03T10:11:45.371Z</time></trkpt><trkpt lat="45.8927" lon="9.562075"><ele>740.75</ele><time>2026-05-03T10:11:46.371Z</time></trkpt><trkpt lat="45.8927917" lon="9.5619583"><ele>741.0</ele><time>2026-05-03T10:11:47.372Z</time></trkpt><trkpt lat="45.89287" lon="9.5618417"><ele>741.0</ele><time>2026-05-03T10:11:48.37Z</time></trkpt><trkpt lat="45.8929433" lon="9.5617167"><ele>741.0</ele><time>2026-05-03T10:11:49.372Z</time></trkpt><trkpt lat="45.8930117" lon="9.5616117"><ele>741.0</ele><time>2026-05-03T10:11:50.372Z</time></trkpt><trkpt lat="45.893095" lon="9.5615533"><ele>741.0</ele><time>2026-05-03T10:11:51.372Z</time></trkpt><trkpt lat="45.893185" lon="9.5615267"><ele>741.0</ele><time>2026-05-03T10:11:52.373Z</time></trkpt><trkpt lat="45.8933" lon="9.561505"><ele>741.0</ele><time>2026-05-03T10:11:53.372Z</time></trkpt><trkpt lat="45.8934033" lon="9.5614733"><ele>741.0</ele><time>2026-05-03T10:11:54.371Z</time></trkpt><trkpt lat="45.8935167" lon="9.56148"><ele>741.0</ele><time>2026-05-03T10:11:55.371Z</time></trkpt><trkpt lat="45.893625" lon="9.5615117"><ele>741.0</ele><time>2026-05-03T10:11:56.372Z</time></trkpt><trkpt lat="45.8937217" lon="9.56157"><ele>741.0</ele><time>2026-05-03T10:11:57.37Z</time></trkpt><trkpt lat="45.893805" lon="9.5616517"><ele>741.4</ele><time>2026-05-03T10:11:58.37Z</time></trkpt><trkpt lat="45.8938733" lon="9.5617517"><ele>741.8</ele><time>2026-05-03T10:11:59.372Z</time></trkpt><trkpt lat="45.8939233" lon="9.5618683"><ele>742.1999999999999</ele><time>2026-05-03T10:12:00.371Z</time></trkpt><trkpt lat="45.89391" lon="9.5620333"><ele>742.5999999999999</ele><time>2026-05-03T10:12:01.373Z</time></trkpt><trkpt lat="45.8938733" lon="9.5621833"><ele>743.0</ele><time>2026-05-03T10:12:02.373Z</time></trkpt><trkpt lat="45.8938133" lon="9.562355"><ele>743.0</ele><time>2026-05-03T10:12:03.372Z</time></trkpt><trkpt lat="45.89371" lon="9.562535"><ele>743.0</ele><time>2026-05-03T10:12:04.371Z</time></trkpt><trkpt lat="45.893615" lon="9.5627033"><ele>743.0</ele><time>2026-05-03T10:12:05.371Z</time></trkpt><trkpt lat="45.8935433" lon="9.562825"><ele>743.0</ele><time>2026-05-03T10:12:06.373Z</time></trkpt><trkpt lat="45.89348" lon="9.5629283"><ele>741.5</ele><time>2026-05-03T10:12:07.371Z</time></trkpt><trkpt lat="45.89342" lon="9.5630117"><ele>740.0</ele><time>2026-05-03T10:12:08.371Z</time></trkpt><trkpt lat="45.893375" lon="9.56309"><ele>738.5</ele><time>2026-05-03T10:12:09.372Z</time></trkpt><trkpt lat="45.893325" lon="9.5631717"><ele>737.0</ele><time>2026-05-03T10:12:10.372Z</time></trkpt><trkpt lat="45.8932633" lon="9.563265"><ele>735.5</ele><time>2026-05-03T10:12:11.373Z</time></trkpt><trkpt lat="45.893195" lon="9.5633833"><ele>734.0</ele><time>2026-05-03T10:12:12.371Z</time></trkpt><trkpt lat="45.8931083" lon="9.56351"><ele>734.0</ele><time>2026-05-03T10:12:13.372Z</time></trkpt><trkpt lat="45.893005" lon="9.5636433"><ele>734.0</ele><time>2026-05-03T10:12:14.371Z</time></trkpt><trkpt lat="45.892885" lon="9.5637833"><ele>734.0</ele><time>2026-05-03T10:12:15.371Z</time></trkpt><trkpt lat="45.8927633" lon="9.563915"><ele>734.0</ele><time>2026-05-03T10:12:16.376Z</time></trkpt><trkpt lat="45.8926333" lon="9.5640183"><ele>733.5</ele><time>2026-05-03T10:12:17.371Z</time></trkpt><trkpt lat="45.8925133" lon="9.5641133"><ele>733.0</ele><time>2026-05-03T10:12:18.372Z</time></trkpt><trkpt lat="45.8924083" lon="9.5642233"><ele>732.5</ele><time>2026-05-03T10:12:19.369Z</time></trkpt><trkpt lat="45.8923167" lon="9.5643433"><ele>732.0</ele><time>2026-05-03T10:12:20.375Z</time></trkpt><trkpt lat="45.89223" lon="9.5644817"><ele>734.0</ele><time>2026-05-03T10:12:21.37Z</time></trkpt><trkpt lat="45.8921633" lon="9.5646317"><ele>736.0</ele><time>2026-05-03T10:12:22.371Z</time></trkpt><trkpt lat="45.8921167" lon="9.564805"><ele>738.0</ele><time>2026-05-03T10:12:23.37Z</time></trkpt><trkpt lat="45.8920833" lon="9.5650017"><ele>740.0</ele><time>2026-05-03T10:12:24.374Z</time></trkpt><trkpt lat="45.8920583" lon="9.565205"><ele>741.0</ele><time>2026-05-03T10:12:25.373Z</time></trkpt><trkpt lat="45.8920367" lon="9.565375"><ele>742.0</ele><time>2026-05-03T10:12:26.373Z</time></trkpt><trkpt lat="45.8920117" lon="9.56551"><ele>743.0</ele><time>2026-05-03T10:12:27.374Z</time></trkpt><trkpt lat="45.89198" lon="9.56562"><ele>744.0</ele><time>2026-05-03T10:12:28.37Z</time></trkpt><trkpt lat="45.8919333" lon="9.565685"><ele>745.0</ele><time>2026-05-03T10:12:29.374Z</time></trkpt><trkpt lat="45.8918733" lon="9.5656517"><ele>746.0</ele><time>2026-05-03T10:12:30.373Z</time></trkpt><trkpt lat="45.891785" lon="9.5655367"><ele>741.5</ele><time>2026-05-03T10:12:31.372Z</time></trkpt><trkpt lat="45.8917117" lon="9.5654017"><ele>737.0</ele><time>2026-05-03T10:12:32.376Z</time></trkpt><trkpt lat="45.891605" lon="9.565205"><ele>732.5</ele><time>2026-05-03T10:12:33.37Z</time></trkpt><trkpt lat="45.8914833" lon="9.565105"><ele>728.0</ele><time>2026-05-03T10:12:34.371Z</time></trkpt><trkpt lat="45.8913717" lon="9.565045"><ele>726.25</ele><time>2026-05-03T10:12:35.373Z</time></trkpt><trkpt lat="45.8912533" lon="9.5650283"><ele>724.5</ele><time>2026-05-03T10:12:36.371Z</time></trkpt><trkpt lat="45.8911217" lon="9.5650733"><ele>722.75</ele><time>2026-05-03T10:12:37.374Z</time></trkpt><trkpt lat="45.890975" lon="9.5651433"><ele>721.0</ele><time>2026-05-03T10:12:38.372Z</time></trkpt><trkpt lat="45.8908167" lon="9.5652233"><ele>722.0</ele><time>2026-05-03T10:12:39.369Z</time></trkpt><trkpt lat="45.8906483" lon="9.5653033"><ele>723.0</ele><time>2026-05-03T10:12:40.371Z</time></trkpt><trkpt lat="45.8904733" lon="9.5653783"><ele>724.0</ele><time>2026-05-03T10:12:41.373Z</time></trkpt><trkpt lat="45.8903033" lon="9.565455"><ele>724.0</ele><time>2026-05-03T10:12:42.372Z</time></trkpt><trkpt lat="45.8901467" lon="9.5655233"><ele>724.0</ele><time>2026-05-03T10:12:43.374Z</time></trkpt><trkpt lat="45.8900133" lon="9.56558"><ele>724.0</ele><time>2026-05-03T10:12:44.374Z</time></trkpt><trkpt lat="45.8899117" lon="9.56564"><ele>724.0</ele><time>2026-05-03T10:12:45.374Z</time></trkpt><trkpt lat="45.8898433" lon="9.565725"><ele>720.0</ele><time>2026-05-03T10:12:46.373Z</time></trkpt><trkpt lat="45.8898017" lon="9.5658283"><ele>716.0</ele><time>2026-05-03T10:12:47.37Z</time></trkpt><trkpt lat="45.8897917" lon="9.5659667"><ele>712.0</ele><time>2026-05-03T10:12:48.369Z</time></trkpt><trkpt lat="45.8898067" lon="9.5661367"><ele>708.0</ele><time>2026-05-03T10:12:49.37Z</time></trkpt><trkpt lat="45.8898567" lon="9.566355"><ele>707.6666666666666</ele><time>2026-05-03T10:12:50.371Z</time></trkpt><trkpt lat="45.8899267" lon="9.5666"><ele>707.3333333333333</ele><time>2026-05-03T10:12:51.369Z</time></trkpt><trkpt lat="45.8899733" lon="9.5668333"><ele>707.0</ele><time>2026-05-03T10:12:52.372Z</time></trkpt><trkpt lat="45.8899933" lon="9.567065"><ele>709.3333333333333</ele><time>2026-05-03T10:12:53.37Z</time></trkpt><trkpt lat="45.8899917" lon="9.5672967"><ele>711.6666666666666</ele><time>2026-05-03T10:12:54.376Z</time></trkpt><trkpt lat="45.8899567" lon="9.567535"><ele>714.0</ele><time>2026-05-03T10:12:55.371Z</time></trkpt><trkpt lat="45.88988" lon="9.5677767"><ele>715.6666666666666</ele><time>2026-05-03T10:12:56.372Z</time></trkpt><trkpt lat="45.889815" lon="9.5680267"><ele>717.3333333333333</ele><time>2026-05-03T10:12:57.372Z</time></trkpt><trkpt lat="45.88974" lon="9.56827"><ele>719.0</ele><time>2026-05-03T10:12:58.369Z</time></trkpt><trkpt lat="45.8896767" lon="9.5685183"><ele>718.3333333333333</ele><time>2026-05-03T10:12:59.373Z</time></trkpt><trkpt lat="45.8896267" lon="9.56876"><ele>717.6666666666666</ele><time>2026-05-03T10:13:00.372Z</time></trkpt><trkpt lat="45.88959" lon="9.56898"><ele>717.0</ele><time>2026-05-03T10:13:01.373Z</time></trkpt><trkpt lat="45.889555" lon="9.5691867"><ele>717.0</ele><time>2026-05-03T10:13:02.372Z</time></trkpt><trkpt lat="45.8895433" lon="9.56939"><ele>717.0</ele><time>2026-05-03T10:13:03.368Z</time></trkpt><trkpt lat="45.8895517" lon="9.5696117"><ele>717.0</ele><time>2026-05-03T10:13:04.373Z</time></trkpt><trkpt lat="45.8895633" lon="9.5698433"><ele>715.6666666666666</ele><time>2026-05-03T10:13:05.374Z</time></trkpt><trkpt lat="45.8895683" lon="9.5700817"><ele>714.3333333333333</ele><time>2026-05-03T10:13:06.373Z</time></trkpt><trkpt lat="45.8895683" lon="9.5703183"><ele>713.0</ele><time>2026-05-03T10:13:07.369Z</time></trkpt><trkpt lat="45.889535" lon="9.5705433"><ele>713.0</ele><time>2026-05-03T10:13:08.371Z</time></trkpt><trkpt lat="45.8894817" lon="9.5707483"><ele>713.0</ele><time>2026-05-03T10:13:09.37Z</time></trkpt><trkpt lat="45.8894" lon="9.5709233"><ele>713.0</ele><time>2026-05-03T10:13:10.37Z</time></trkpt><trkpt lat="45.8893117" lon="9.5710717"><ele>713.0</ele><time>2026-05-03T10:13:11.373Z</time></trkpt><trkpt lat="45.889255" lon="9.5712217"><ele>706.75</ele><time>2026-05-03T10:13:12.372Z</time></trkpt><trkpt lat="45.8892233" lon="9.5713767"><ele>700.5</ele><time>2026-05-03T10:13:13.372Z</time></trkpt><trkpt lat="45.889185" lon="9.5715317"><ele>694.25</ele><time>2026-05-03T10:13:14.37Z</time></trkpt><trkpt lat="45.8891317" lon="9.5716883"><ele>688.0</ele><time>2026-05-03T10:13:15.37Z</time></trkpt><trkpt lat="45.8890417" lon="9.571855"><ele>692.0</ele><time>2026-05-03T10:13:16.369Z</time></trkpt><trkpt lat="45.8889533" lon="9.5720467"><ele>696.0</ele><time>2026-05-03T10:13:17.373Z</time></trkpt><trkpt lat="45.8888617" lon="9.5722633"><ele>700.0</ele><time>2026-05-03T10:13:18.37Z</time></trkpt><trkpt lat="45.888765" lon="9.572485"><ele>700.0</ele><time>2026-05-03T10:13:19.369Z</time></trkpt><trkpt lat="45.8886717" lon="9.5726967"><ele>700.0</ele><time>2026-05-03T10:13:20.375Z</time></trkpt><trkpt lat="45.8885883" lon="9.5728983"><ele>700.0</ele><time>2026-05-03T10:13:21.369Z</time></trkpt><trkpt lat="45.8885317" lon="9.5730883"><ele>700.5</ele><time>2026-05-03T10:13:22.371Z</time></trkpt><trkpt lat="45.8885183" lon="9.5732717"><ele>701.0</ele><time>2026-05-03T10:13:23.37Z</time></trkpt><trkpt lat="45.8885633" lon="9.5734567"><ele>701.5</ele><time>2026-05-03T10:13:24.373Z</time></trkpt><trkpt lat="45.8886233" lon="9.57364"><ele>702.0</ele><time>2026-05-03T10:13:25.373Z</time></trkpt><trkpt lat="45.8886783" lon="9.5738183"><ele>702.0</ele><time>2026-05-03T10:13:26.37Z</time></trkpt><trkpt lat="45.8887167" lon="9.5739817"><ele>702.0</ele><time>2026-05-03T10:13:27.375Z</time></trkpt><trkpt lat="45.8887083" lon="9.574115"><ele>702.0</ele><time>2026-05-03T10:13:28.371Z</time></trkpt><trkpt lat="45.8886433" lon="9.57421"><ele>702.0</ele><time>2026-05-03T10:13:29.372Z</time></trkpt><trkpt lat="45.888525" lon="9.5742633"><ele>702.0</ele><time>2026-05-03T10:13:30.372Z</time></trkpt><trkpt lat="45.88838" lon="9.5743083"><ele>692.0</ele><time>2026-05-03T10:13:31.372Z</time></trkpt><trkpt lat="45.8882633" lon="9.57437"><ele>682.0</ele><time>2026-05-03T10:13:32.372Z</time></trkpt><trkpt lat="45.8881667" lon="9.5744633"><ele>672.0</ele><time>2026-05-03T10:13:33.373Z</time></trkpt><trkpt lat="45.8881117" lon="9.5746083"><ele>662.0</ele><time>2026-05-03T10:13:34.373Z</time></trkpt><trkpt lat="45.8881017" lon="9.5747917"><ele>662.0</ele><time>2026-05-03T10:13:35.37Z</time></trkpt><trkpt lat="45.8881117" lon="9.5749633"><ele>662.0</ele><time>2026-05-03T10:13:36.372Z</time></trkpt><trkpt lat="45.8881767" lon="9.57513"><ele>662.0</ele><time>2026-05-03T10:13:37.372Z</time></trkpt><trkpt lat="45.8882817" lon="9.5752767"><ele>662.0</ele><time>2026-05-03T10:13:38.374Z</time></trkpt><trkpt lat="45.8883817" lon="9.5754017"><ele>671.5</ele><time>2026-05-03T10:13:39.372Z</time></trkpt><trkpt lat="45.888465" lon="9.5755333"><ele>681.0</ele><time>2026-05-03T10:13:40.372Z</time></trkpt><trkpt lat="45.8885183" lon="9.5756783"><ele>690.5</ele><time>2026-05-03T10:13:41.369Z</time></trkpt><trkpt lat="45.8885233" lon="9.5758367"><ele>700.0</ele><time>2026-05-03T10:13:42.369Z</time></trkpt><trkpt lat="45.8885117" lon="9.5760317"><ele>696.75</ele><time>2026-05-03T10:13:43.373Z</time></trkpt><trkpt lat="45.8885217" lon="9.5762383"><ele>693.5</ele><time>2026-05-03T10:13:44.374Z</time></trkpt><trkpt lat="45.888555" lon="9.576425"><ele>690.25</ele><time>2026-05-03T10:13:45.369Z</time></trkpt><trkpt lat="45.8885833" lon="9.576595"><ele>687.0</ele><time>2026-05-03T10:13:46.369Z</time></trkpt><trkpt lat="45.8886067" lon="9.5767483"><ele>687.0</ele><time>2026-05-03T10:13:47.373Z</time></trkpt><trkpt lat="45.88866" lon="9.57685"><ele>687.0</ele><time>2026-05-03T10:13:48.373Z</time></trkpt><trkpt lat="45.8887167" lon="9.5769433"><ele>687.0</ele><time>2026-05-03T10:13:49.372Z</time></trkpt><trkpt lat="45.8887917" lon="9.57701"><ele>687.0</ele><time>2026-05-03T10:13:50.369Z</time></trkpt><trkpt lat="45.8888567" lon="9.5770883"><ele>687.0</ele><time>2026-05-03T10:13:51.369Z</time></trkpt><trkpt lat="45.8889383" lon="9.577145"><ele>687.0</ele><time>2026-05-03T10:13:52.37Z</time></trkpt><trkpt lat="45.8890017" lon="9.5772167"><ele>686.0</ele><time>2026-05-03T10:13:53.371Z</time></trkpt><trkpt lat="45.8889733" lon="9.5772983"><ele>685.0</ele><time>2026-05-03T10:13:54.369Z</time></trkpt><trkpt lat="45.8889333" lon="9.5774883"><ele>684.0</ele><time>2026-05-03T10:13:56.372Z</time></trkpt><trkpt lat="45.8888333" lon="9.57761"><ele>683.0</ele><time>2026-05-03T10:13:57.373Z</time></trkpt><trkpt lat="45.88877" lon="9.57774"><ele>682.0</ele><time>2026-05-03T10:13:58.37Z</time></trkpt><trkpt lat="45.8887" lon="9.577875"><ele>682.0</ele><time>2026-05-03T10:13:59.369Z</time></trkpt><trkpt lat="45.8886133" lon="9.5780617"><ele>682.0</ele><time>2026-05-03T10:14:00.37Z</time></trkpt><trkpt lat="45.8885833" lon="9.5782783"><ele>682.0</ele><time>2026-05-03T10:14:01.37Z</time></trkpt><trkpt lat="45.888585" lon="9.5785033"><ele>678.0</ele><time>2026-05-03T10:14:02.373Z</time></trkpt><trkpt lat="45.8885767" lon="9.5787417"><ele>674.0</ele><time>2026-05-03T10:14:03.373Z</time></trkpt><trkpt lat="45.8885617" lon="9.5789683"><ele>670.0</ele><time>2026-05-03T10:14:04.37Z</time></trkpt><trkpt lat="45.8885367" lon="9.5792083"><ele>670.0</ele><time>2026-05-03T10:14:05.37Z</time></trkpt><trkpt lat="45.8885433" lon="9.5794133"><ele>670.0</ele><time>2026-05-03T10:14:06.373Z</time></trkpt><trkpt lat="45.88858" lon="9.579595"><ele>670.0</ele><time>2026-05-03T10:14:07.372Z</time></trkpt><trkpt lat="45.888615" lon="9.5797617"><ele>670.0</ele><time>2026-05-03T10:14:08.37Z</time></trkpt><trkpt lat="45.8886267" lon="9.5799183"><ele>667.8</ele><time>2026-05-03T10:14:09.37Z</time></trkpt><trkpt lat="45.8886017" lon="9.5800583"><ele>665.6</ele><time>2026-05-03T10:14:10.37Z</time></trkpt><trkpt lat="45.88859" lon="9.5802"><ele>663.4000000000001</ele><time>2026-05-03T10:14:11.372Z</time></trkpt><trkpt lat="45.888605" lon="9.5803367"><ele>661.2</ele><time>2026-05-03T10:14:12.372Z</time></trkpt><trkpt lat="45.888635" lon="9.5804783"><ele>659.0</ele><time>2026-05-03T10:14:13.374Z</time></trkpt><trkpt lat="45.8886617" lon="9.58063"><ele>657.5</ele><time>2026-05-03T10:14:14.373Z</time></trkpt><trkpt lat="45.888675" lon="9.5807817"><ele>656.0</ele><time>2026-05-03T10:14:15.37Z</time></trkpt><trkpt lat="45.88867" lon="9.580945"><ele>654.5</ele><time>2026-05-03T10:14:16.371Z</time></trkpt><trkpt lat="45.8886333" lon="9.5811117"><ele>653.0</ele><time>2026-05-03T10:14:17.372Z</time></trkpt><trkpt lat="45.88857" lon="9.581265"><ele>652.75</ele><time>2026-05-03T10:14:18.371Z</time></trkpt><trkpt lat="45.8884717" lon="9.5813917"><ele>652.5</ele><time>2026-05-03T10:14:19.374Z</time></trkpt><trkpt lat="45.8883467" lon="9.5815017"><ele>652.25</ele><time>2026-05-03T10:14:20.377Z</time></trkpt><trkpt lat="45.8882567" lon="9.581615"><ele>652.0</ele><time>2026-05-03T10:14:21.372Z</time></trkpt><trkpt lat="45.8882067" lon="9.5817533"><ele>645.25</ele><time>2026-05-03T10:14:22.372Z</time></trkpt><trkpt lat="45.8881867" lon="9.5819317"><ele>638.5</ele><time>2026-05-03T10:14:23.373Z</time></trkpt><trkpt lat="45.888185" lon="9.582135"><ele>631.75</ele><time>2026-05-03T10:14:24.372Z</time></trkpt><trkpt lat="45.8881767" lon="9.5823283"><ele>625.0</ele><time>2026-05-03T10:14:25.372Z</time></trkpt><trkpt lat="45.8881433" lon="9.5824983"><ele>625.0</ele><time>2026-05-03T10:14:26.372Z</time></trkpt><trkpt lat="45.888085" lon="9.5826517"><ele>625.0</ele><time>2026-05-03T10:14:27.37Z</time></trkpt><trkpt lat="45.8880117" lon="9.5827833"><ele>625.0</ele><time>2026-05-03T10:14:28.373Z</time></trkpt><trkpt lat="45.8879117" lon="9.5828767"><ele>625.0</ele><time>2026-05-03T10:14:29.372Z</time></trkpt><trkpt lat="45.8878217" lon="9.5829683"><ele>621.0</ele><time>2026-05-03T10:14:30.369Z</time></trkpt><trkpt lat="45.8877867" lon="9.5830833"><ele>617.0</ele><time>2026-05-03T10:14:31.371Z</time></trkpt><trkpt lat="45.88777" lon="9.5831983"><ele>613.0</ele><time>2026-05-03T10:14:32.37Z</time></trkpt><trkpt lat="45.8877583" lon="9.5833167"><ele>609.0</ele><time>2026-05-03T10:14:33.37Z</time></trkpt><trkpt lat="45.88778" lon="9.5834733"><ele>605.0</ele><time>2026-05-03T10:14:34.37Z</time></trkpt><trkpt lat="45.88783" lon="9.5836083"><ele>605.0</ele><time>2026-05-03T10:14:35.37Z</time></trkpt><trkpt lat="45.8879067" lon="9.5836717"><ele>605.0</ele><time>2026-05-03T10:14:36.37Z</time></trkpt><trkpt lat="45.8879767" lon="9.5837017"><ele>605.0</ele><time>2026-05-03T10:14:37.372Z</time></trkpt><trkpt lat="45.8880533" lon="9.5836733"><ele>605.0</ele><time>2026-05-03T10:14:38.373Z</time></trkpt><trkpt lat="45.8881283" lon="9.5835317"><ele>605.0</ele><time>2026-05-03T10:14:39.373Z</time></trkpt><trkpt lat="45.8881917" lon="9.583415"><ele>605.0</ele><time>2026-05-03T10:14:40.371Z</time></trkpt><trkpt lat="45.8882667" lon="9.5833117"><ele>605.0</ele><time>2026-05-03T10:14:41.371Z</time></trkpt><trkpt lat="45.888335" lon="9.5832133"><ele>605.0</ele><time>2026-05-03T10:14:42.37Z</time></trkpt><trkpt lat="45.8884367" lon="9.583135"><ele>605.0</ele><time>2026-05-03T10:14:43.37Z</time></trkpt><trkpt lat="45.8885533" lon="9.58308"><ele>605.0</ele><time>2026-05-03T10:14:44.372Z</time></trkpt><trkpt lat="45.8887133" lon="9.58307"><ele>603.75</ele><time>2026-05-03T10:14:45.37Z</time></trkpt><trkpt lat="45.8888583" lon="9.5830533"><ele>602.5</ele><time>2026-05-03T10:14:46.371Z</time></trkpt><trkpt lat="45.8889817" lon="9.5830333"><ele>601.25</ele><time>2026-05-03T10:14:47.37Z</time></trkpt><trkpt lat="45.88911" lon="9.5830033"><ele>600.0</ele><time>2026-05-03T10:14:48.372Z</time></trkpt><trkpt lat="45.8892433" lon="9.5829783"><ele>603.8</ele><time>2026-05-03T10:14:49.371Z</time></trkpt><trkpt lat="45.88937" lon="9.582975"><ele>607.6</ele><time>2026-05-03T10:14:50.373Z</time></trkpt><trkpt lat="45.88948" lon="9.5829733"><ele>611.4</ele><time>2026-05-03T10:14:51.371Z</time></trkpt><trkpt lat="45.88957" lon="9.5830133"><ele>615.2</ele><time>2026-05-03T10:14:52.369Z</time></trkpt><trkpt lat="45.88965" lon="9.583075"><ele>619.0</ele><time>2026-05-03T10:14:53.37Z</time></trkpt><trkpt lat="45.8896567" lon="9.583245"><ele>619.0</ele><time>2026-05-03T10:14:54.37Z</time></trkpt><trkpt lat="45.8895917" lon="9.5834617"><ele>619.0</ele><time>2026-05-03T10:14:55.37Z</time></trkpt><trkpt lat="45.8895333" lon="9.583635"><ele>619.0</ele><time>2026-05-03T10:14:56.374Z</time></trkpt><trkpt lat="45.889445" lon="9.5837733"><ele>619.0</ele><time>2026-05-03T10:14:57.369Z</time></trkpt><trkpt lat="45.8893467" lon="9.5838833"><ele>615.3333333333334</ele><time>2026-05-03T10:14:58.37Z</time></trkpt><trkpt lat="45.8891767" lon="9.58395"><ele>611.6666666666666</ele><time>2026-05-03T10:14:59.37Z</time></trkpt><trkpt lat="45.88897" lon="9.58393"><ele>608.0</ele><time>2026-05-03T10:15:00.37Z</time></trkpt><trkpt lat="45.88883" lon="9.5839617"><ele>608.0</ele><time>2026-05-03T10:15:01.369Z</time></trkpt><trkpt lat="45.8887067" lon="9.58401"><ele>608.0</ele><time>2026-05-03T10:15:02.37Z</time></trkpt><trkpt lat="45.8885917" lon="9.584085"><ele>608.0</ele><time>2026-05-03T10:15:03.369Z</time></trkpt><trkpt lat="45.8884917" lon="9.5841817"><ele>608.0</ele><time>2026-05-03T10:15:04.373Z</time></trkpt><trkpt lat="45.8883833" lon="9.5842983"><ele>608.0</ele><time>2026-05-03T10:15:05.372Z</time></trkpt><trkpt lat="45.88829" lon="9.584425"><ele>608.0</ele><time>2026-05-03T10:15:06.369Z</time></trkpt><trkpt lat="45.888215" lon="9.584545"><ele>608.0</ele><time>2026-05-03T10:15:07.37Z</time></trkpt><trkpt lat="45.8881333" lon="9.584645"><ele>608.0</ele><time>2026-05-03T10:15:08.37Z</time></trkpt><trkpt lat="45.888035" lon="9.5847233"><ele>608.0</ele><time>2026-05-03T10:15:09.373Z</time></trkpt><trkpt lat="45.8879133" lon="9.5847867"><ele>608.0</ele><time>2026-05-03T10:15:10.37Z</time></trkpt><trkpt lat="45.8877633" lon="9.5848283"><ele>608.0</ele><time>2026-05-03T10:15:11.37Z</time></trkpt><trkpt lat="45.8876117" lon="9.584875"><ele>608.0</ele><time>2026-05-03T10:15:12.372Z</time></trkpt><trkpt lat="45.8874733" lon="9.58493"><ele>609.75</ele><time>2026-05-03T10:15:13.37Z</time></trkpt><trkpt lat="45.8873683" lon="9.585015"><ele>611.5</ele><time>2026-05-03T10:15:14.372Z</time></trkpt><trkpt lat="45.8872817" lon="9.5851433"><ele>613.25</ele><time>2026-05-03T10:15:15.37Z</time></trkpt><trkpt lat="45.887195" lon="9.585285"><ele>615.0</ele><time>2026-05-03T10:15:16.374Z</time></trkpt><trkpt lat="45.8870917" lon="9.5854017"><ele>615.0</ele><time>2026-05-03T10:15:17.373Z</time></trkpt><trkpt lat="45.8869683" lon="9.5854883"><ele>615.0</ele><time>2026-05-03T10:15:18.372Z</time></trkpt><trkpt lat="45.8868133" lon="9.5855533"><ele>615.0</ele><time>2026-05-03T10:15:19.37Z</time></trkpt><trkpt lat="45.886625" lon="9.5856017"><ele>607.6666666666666</ele><time>2026-05-03T10:15:20.371Z</time></trkpt><trkpt lat="45.88644" lon="9.5856033"><ele>600.3333333333333</ele><time>2026-05-03T10:15:21.37Z</time></trkpt><trkpt lat="45.88628" lon="9.5855983"><ele>593.0</ele><time>2026-05-03T10:15:22.37Z</time></trkpt><trkpt lat="45.88614" lon="9.58561"><ele>593.0</ele><time>2026-05-03T10:15:23.371Z</time></trkpt><trkpt lat="45.8860233" lon="9.5856317"><ele>593.0</ele><time>2026-05-03T10:15:24.369Z</time></trkpt><trkpt lat="45.8859267" lon="9.585685"><ele>593.0</ele><time>2026-05-03T10:15:25.371Z</time></trkpt><trkpt lat="45.8858367" lon="9.5857767"><ele>593.0</ele><time>2026-05-03T10:15:26.371Z</time></trkpt><trkpt lat="45.8857667" lon="9.5859017"><ele>593.0</ele><time>2026-05-03T10:15:27.37Z</time></trkpt><trkpt lat="45.8856883" lon="9.5860283"><ele>589.25</ele><time>2026-05-03T10:15:28.37Z</time></trkpt><trkpt lat="45.8856267" lon="9.5861733"><ele>585.5</ele><time>2026-05-03T10:15:29.37Z</time></trkpt><trkpt lat="45.8855767" lon="9.586325"><ele>581.75</ele><time>2026-05-03T10:15:30.37Z</time></trkpt><trkpt lat="45.8855317" lon="9.5865583"><ele>578.0</ele><time>2026-05-03T10:15:31.371Z</time></trkpt><trkpt lat="45.8855117" lon="9.58676"><ele>578.0</ele><time>2026-05-03T10:15:32.371Z</time></trkpt><trkpt lat="45.8854833" lon="9.5869367"><ele>578.0</ele><time>2026-05-03T10:15:33.371Z</time></trkpt><trkpt lat="45.88546" lon="9.5871317"><ele>578.0</ele><time>2026-05-03T10:15:34.369Z</time></trkpt><trkpt lat="45.88542" lon="9.5873017"><ele>578.0</ele><time>2026-05-03T10:15:35.37Z</time></trkpt><trkpt lat="45.885365" lon="9.587445"><ele>576.25</ele><time>2026-05-03T10:15:36.37Z</time></trkpt><trkpt lat="45.8853033" lon="9.5875783"><ele>574.5</ele><time>2026-05-03T10:15:37.373Z</time></trkpt><trkpt lat="45.8852133" lon="9.5876317"><ele>572.75</ele><time>2026-05-03T10:15:38.372Z</time></trkpt><trkpt lat="45.8850917" lon="9.58771"><ele>571.0</ele><time>2026-05-03T10:15:39.373Z</time></trkpt><trkpt lat="45.8849817" lon="9.5877917"><ele>568.75</ele><time>2026-05-03T10:15:40.374Z</time></trkpt><trkpt lat="45.8849" lon="9.5878817"><ele>566.5</ele><time>2026-05-03T10:15:41.37Z</time></trkpt><trkpt lat="45.8848467" lon="9.5880017"><ele>564.25</ele><time>2026-05-03T10:15:42.372Z</time></trkpt><trkpt lat="45.8848117" lon="9.5881617"><ele>562.0</ele><time>2026-05-03T10:15:43.373Z</time></trkpt><trkpt lat="45.8848167" lon="9.5883617"><ele>562.0</ele><time>2026-05-03T10:15:44.371Z</time></trkpt><trkpt lat="45.88483" lon="9.588585"><ele>562.0</ele><time>2026-05-03T10:15:45.374Z</time></trkpt><trkpt lat="45.8848583" lon="9.5888133"><ele>562.0</ele><time>2026-05-03T10:15:46.373Z</time></trkpt><trkpt lat="45.8849" lon="9.58904"><ele>560.5</ele><time>2026-05-03T10:15:47.37Z</time></trkpt><trkpt lat="45.8849483" lon="9.5892567"><ele>559.0</ele><time>2026-05-03T10:15:48.37Z</time></trkpt><trkpt lat="45.885" lon="9.589455"><ele>557.5</ele><time>2026-05-03T10:15:49.371Z</time></trkpt><trkpt lat="45.8850567" lon="9.5896383"><ele>556.0</ele><time>2026-05-03T10:15:50.371Z</time></trkpt><trkpt lat="45.8851333" lon="9.5898017"><ele>573.0</ele><time>2026-05-03T10:15:51.37Z</time></trkpt><trkpt lat="45.8852233" lon="9.589945"><ele>590.0</ele><time>2026-05-03T10:15:52.37Z</time></trkpt><trkpt lat="45.8853033" lon="9.5900983"><ele>607.0</ele><time>2026-05-03T10:15:53.371Z</time></trkpt><trkpt lat="45.8853867" lon="9.5902867"><ele>624.0</ele><time>2026-05-03T10:15:54.371Z</time></trkpt><trkpt lat="45.8854583" lon="9.5904967"><ele>624.0</ele><time>2026-05-03T10:15:55.37Z</time></trkpt><trkpt lat="45.8855133" lon="9.590715"><ele>624.0</ele><time>2026-05-03T10:15:56.37Z</time></trkpt><trkpt lat="45.8855367" lon="9.59094"><ele>624.0</ele><time>2026-05-03T10:15:57.37Z</time></trkpt><trkpt lat="45.885555" lon="9.5911383"><ele>624.0</ele><time>2026-05-03T10:15:58.37Z</time></trkpt><trkpt lat="45.8855683" lon="9.59132"><ele>624.0</ele><time>2026-05-03T10:15:59.369Z</time></trkpt><trkpt lat="45.8855867" lon="9.59149"><ele>624.0</ele><time>2026-05-03T10:16:00.37Z</time></trkpt><trkpt lat="45.8856183" lon="9.5916767"><ele>624.0</ele><time>2026-05-03T10:16:01.37Z</time></trkpt><trkpt lat="45.8856717" lon="9.5918883"><ele>624.0</ele><time>2026-05-03T10:16:02.37Z</time></trkpt><trkpt lat="45.8857233" lon="9.59211"><ele>624.0</ele><time>2026-05-03T10:16:03.369Z</time></trkpt><trkpt lat="45.885775" lon="9.592335"><ele>624.0</ele><time>2026-05-03T10:16:04.37Z</time></trkpt><trkpt lat="45.88581" lon="9.5925533"><ele>624.0</ele><time>2026-05-03T10:16:05.369Z</time></trkpt><trkpt lat="45.8857567" lon="9.5928083"><ele>624.0</ele><time>2026-05-03T10:16:06.371Z</time></trkpt><trkpt lat="45.885775" lon="9.5930433"><ele>624.0</ele><time>2026-05-03T10:16:07.369Z</time></trkpt><trkpt lat="45.885795" lon="9.5932667"><ele>616.75</ele><time>2026-05-03T10:16:08.369Z</time></trkpt><trkpt lat="45.885825" lon="9.5934733"><ele>609.5</ele><time>2026-05-03T10:16:09.369Z</time></trkpt><trkpt lat="45.88587" lon="9.5936633"><ele>602.25</ele><time>2026-05-03T10:16:10.369Z</time></trkpt><trkpt lat="45.8859183" lon="9.5938683"><ele>595.0</ele><time>2026-05-03T10:16:11.37Z</time></trkpt><trkpt lat="45.8859617" lon="9.594075"><ele>595.0</ele><time>2026-05-03T10:16:12.37Z</time></trkpt><trkpt lat="45.8860067" lon="9.594275"><ele>595.0</ele><time>2026-05-03T10:16:13.371Z</time></trkpt><trkpt lat="45.8860433" lon="9.5944583"><ele>595.0</ele><time>2026-05-03T10:16:14.37Z</time></trkpt><trkpt lat="45.8860617" lon="9.59462"><ele>595.0</ele><time>2026-05-03T10:16:15.369Z</time></trkpt><trkpt lat="45.88604" lon="9.59476"><ele>589.0</ele><time>2026-05-03T10:16:16.369Z</time></trkpt><trkpt lat="45.8859967" lon="9.5949017"><ele>583.0</ele><time>2026-05-03T10:16:17.369Z</time></trkpt><trkpt lat="45.8859083" lon="9.5950667"><ele>577.0</ele><time>2026-05-03T10:16:18.37Z</time></trkpt><trkpt lat="45.885865" lon="9.595275"><ele>571.0</ele><time>2026-05-03T10:16:19.369Z</time></trkpt><trkpt lat="45.885825" lon="9.59555"><ele>571.0</ele><time>2026-05-03T10:16:20.369Z</time></trkpt><trkpt lat="45.8858083" lon="9.5958317"><ele>571.0</ele><time>2026-05-03T10:16:21.37Z</time></trkpt><trkpt lat="45.8857533" lon="9.5961083"><ele>571.0</ele><time>2026-05-03T10:16:22.37Z</time></trkpt><trkpt lat="45.8857333" lon="9.5963383"><ele>571.0</ele><time>2026-05-03T10:16:23.37Z</time></trkpt><trkpt lat="45.8857083" lon="9.5965383"><ele>571.0</ele><time>2026-05-03T10:16:24.37Z</time></trkpt><trkpt lat="45.8856867" lon="9.596715"><ele>571.0</ele><time>2026-05-03T10:16:25.369Z</time></trkpt><trkpt lat="45.885665" lon="9.5968817"><ele>571.0</ele><time>2026-05-03T10:16:26.37Z</time></trkpt><trkpt lat="45.8856333" lon="9.597075"><ele>563.3333333333334</ele><time>2026-05-03T10:16:27.369Z</time></trkpt><trkpt lat="45.8856167" lon="9.5973"><ele>555.6666666666666</ele><time>2026-05-03T10:16:28.37Z</time></trkpt><trkpt lat="45.88563" lon="9.5975267"><ele>548.0</ele><time>2026-05-03T10:16:29.369Z</time></trkpt><trkpt lat="45.8856667" lon="9.5977267"><ele>565.75</ele><time>2026-05-03T10:16:30.369Z</time></trkpt><trkpt lat="45.8857133" lon="9.5978883"><ele>583.5</ele><time>2026-05-03T10:16:31.369Z</time></trkpt><trkpt lat="45.885775" lon="9.598025"><ele>601.25</ele><time>2026-05-03T10:16:32.369Z</time></trkpt><trkpt lat="45.8858817" lon="9.5981383"><ele>619.0</ele><time>2026-05-03T10:16:33.368Z</time></trkpt><trkpt lat="45.886" lon="9.5982517"><ele>619.0</ele><time>2026-05-03T10:16:34.369Z</time></trkpt><trkpt lat="45.8861317" lon="9.5983733"><ele>619.0</ele><time>2026-05-03T10:16:35.371Z</time></trkpt><trkpt lat="45.8862483" lon="9.5985033"><ele>619.0</ele><time>2026-05-03T10:16:36.369Z</time></trkpt><trkpt lat="45.8863633" lon="9.5986533"><ele>631.0</ele><time>2026-05-03T10:16:37.369Z</time></trkpt><trkpt lat="45.886455" lon="9.5988283"><ele>643.0</ele><time>2026-05-03T10:16:38.371Z</time></trkpt><trkpt lat="45.886505" lon="9.59902"><ele>655.0</ele><time>2026-05-03T10:16:39.369Z</time></trkpt><trkpt lat="45.8865383" lon="9.599215"><ele>667.0</ele><time>2026-05-03T10:16:40.371Z</time></trkpt><trkpt lat="45.8865633" lon="9.5993867"><ele>667.8</ele><time>2026-05-03T10:16:41.37Z</time></trkpt><trkpt lat="45.8865567" lon="9.5995217"><ele>668.6</ele><time>2026-05-03T10:16:42.371Z</time></trkpt><trkpt lat="45.8865233" lon="9.59965"><ele>669.4</ele><time>2026-05-03T10:16:43.373Z</time></trkpt><trkpt lat="45.8864433" lon="9.599775"><ele>670.1999999999999</ele><time>2026-05-03T10:16:44.371Z</time></trkpt><trkpt lat="45.8863917" lon="9.599935"><ele>671.0</ele><time>2026-05-03T10:16:45.371Z</time></trkpt><trkpt lat="45.886355" lon="9.6001083"><ele>671.0</ele><time>2026-05-03T10:16:46.371Z</time></trkpt><trkpt lat="45.8863" lon="9.6003067"><ele>671.0</ele><time>2026-05-03T10:16:47.372Z</time></trkpt><trkpt lat="45.8862667" lon="9.6005133"><ele>671.0</ele><time>2026-05-03T10:16:48.372Z</time></trkpt><trkpt lat="45.8862483" lon="9.6007167"><ele>671.0</ele><time>2026-05-03T10:16:49.371Z</time></trkpt><trkpt lat="45.886205" lon="9.6009033"><ele>669.75</ele><time>2026-05-03T10:16:50.371Z</time></trkpt><trkpt lat="45.8862717" lon="9.601065"><ele>668.5</ele><time>2026-05-03T10:16:51.371Z</time></trkpt><trkpt lat="45.8863133" lon="9.6012333"><ele>667.25</ele><time>2026-05-03T10:16:52.371Z</time></trkpt><trkpt lat="45.8863617" lon="9.601395"><ele>666.0</ele><time>2026-05-03T10:16:53.371Z</time></trkpt><trkpt lat="45.8863917" lon="9.6015717"><ele>666.0</ele><time>2026-05-03T10:16:54.372Z</time></trkpt><trkpt lat="45.8864483" lon="9.601725"><ele>666.0</ele><time>2026-05-03T10:16:55.372Z</time></trkpt><trkpt lat="45.8865" lon="9.601875"><ele>666.0</ele><time>2026-05-03T10:16:56.372Z</time></trkpt><trkpt lat="45.8865533" lon="9.6020317"><ele>666.0</ele><time>2026-05-03T10:16:57.373Z</time></trkpt><trkpt lat="45.8865867" lon="9.6022033"><ele>634.6666666666666</ele><time>2026-05-03T10:16:58.373Z</time></trkpt><trkpt lat="45.8866367" lon="9.6024017"><ele>603.3333333333333</ele><time>2026-05-03T10:16:59.372Z</time></trkpt><trkpt lat="45.8866817" lon="9.602635"><ele>572.0</ele><time>2026-05-03T10:17:00.371Z</time></trkpt><trkpt lat="45.8867383" lon="9.6029"><ele>572.0</ele><time>2026-05-03T10:17:01.376Z</time></trkpt><trkpt lat="45.88676" lon="9.6032333"><ele>572.0</ele><time>2026-05-03T10:17:02.371Z</time></trkpt><trkpt lat="45.886815" lon="9.6035117"><ele>572.0</ele><time>2026-05-03T10:17:03.371Z</time></trkpt><trkpt lat="45.8869" lon="9.6037467"><ele>565.0</ele><time>2026-05-03T10:17:04.371Z</time></trkpt><trkpt lat="45.8869767" lon="9.60395"><ele>558.0</ele><time>2026-05-03T10:17:05.371Z</time></trkpt><trkpt lat="45.8870517" lon="9.604105"><ele>551.0</ele><time>2026-05-03T10:17:06.372Z</time></trkpt><trkpt lat="45.8871017" lon="9.604255"><ele>544.0</ele><time>2026-05-03T10:17:07.371Z</time></trkpt><trkpt lat="45.8871017" lon="9.6044217"><ele>542.0</ele><time>2026-05-03T10:17:08.373Z</time></trkpt><trkpt lat="45.8871217" lon="9.6045783"><ele>540.0</ele><time>2026-05-03T10:17:09.371Z</time></trkpt><trkpt lat="45.8871517" lon="9.60472"><ele>538.0</ele><time>2026-05-03T10:17:10.371Z</time></trkpt><trkpt lat="45.8871933" lon="9.6049083"><ele>536.0</ele><time>2026-05-03T10:17:11.372Z</time></trkpt><trkpt lat="45.8872717" lon="9.60514"><ele>533.0</ele><time>2026-05-03T10:17:12.374Z</time></trkpt><trkpt lat="45.88736" lon="9.6053917"><ele>530.0</ele><time>2026-05-03T10:17:13.37Z</time></trkpt><trkpt lat="45.8874533" lon="9.605665"><ele>527.0</ele><time>2026-05-03T10:17:14.372Z</time></trkpt><trkpt lat="45.8875583" lon="9.6059533"><ele>527.0</ele><time>2026-05-03T10:17:15.37Z</time></trkpt><trkpt lat="45.8876767" lon="9.60623"><ele>527.0</ele><time>2026-05-03T10:17:16.371Z</time></trkpt><trkpt lat="45.88782" lon="9.6064983"><ele>527.0</ele><time>2026-05-03T10:17:17.37Z</time></trkpt><trkpt lat="45.8879683" lon="9.6067567"><ele>527.0</ele><time>2026-05-03T10:17:18.371Z</time></trkpt><trkpt lat="45.8881067" lon="9.6070033"><ele>522.0</ele><time>2026-05-03T10:17:19.371Z</time></trkpt><trkpt lat="45.8882317" lon="9.6072367"><ele>517.0</ele><time>2026-05-03T10:17:20.372Z</time></trkpt><trkpt lat="45.8883517" lon="9.6074467"><ele>512.0</ele><time>2026-05-03T10:17:21.371Z</time></trkpt><trkpt lat="45.8884567" lon="9.6076433"><ele>524.0</ele><time>2026-05-03T10:17:22.371Z</time></trkpt><trkpt lat="45.8885483" lon="9.6078533"><ele>536.0</ele><time>2026-05-03T10:17:23.371Z</time></trkpt><trkpt lat="45.8886" lon="9.608095"><ele>548.0</ele><time>2026-05-03T10:17:24.371Z</time></trkpt><trkpt lat="45.8886683" lon="9.6083583"><ele>548.0</ele><time>2026-05-03T10:17:25.37Z</time></trkpt><trkpt lat="45.8887017" lon="9.6086583"><ele>548.0</ele><time>2026-05-03T10:17:26.37Z</time></trkpt><trkpt lat="45.888735" lon="9.6089533"><ele>548.0</ele><time>2026-05-03T10:17:27.37Z</time></trkpt><trkpt lat="45.88877" lon="9.609245"><ele>539.0</ele><time>2026-05-03T10:17:28.37Z</time></trkpt><trkpt lat="45.8888283" lon="9.6095383"><ele>530.0</ele><time>2026-05-03T10:17:29.372Z</time></trkpt><trkpt lat="45.8888733" lon="9.6098383"><ele>521.0</ele><time>2026-05-03T10:17:30.37Z</time></trkpt><trkpt lat="45.8889067" lon="9.6101333"><ele>521.0</ele><time>2026-05-03T10:17:31.371Z</time></trkpt><trkpt lat="45.8889267" lon="9.6104267"><ele>521.0</ele><time>2026-05-03T10:17:32.372Z</time></trkpt><trkpt lat="45.8889217" lon="9.610735"><ele>521.0</ele><time>2026-05-03T10:17:33.371Z</time></trkpt><trkpt lat="45.8888917" lon="9.6110583"><ele>533.6666666666666</ele><time>2026-05-03T10:17:34.371Z</time></trkpt><trkpt lat="45.8888783" lon="9.61138"><ele>546.3333333333334</ele><time>2026-05-03T10:17:35.371Z</time></trkpt><trkpt lat="45.8888767" lon="9.611685"><ele>559.0</ele><time>2026-05-03T10:17:36.37Z</time></trkpt><trkpt lat="45.8888817" lon="9.6119583"><ele>553.0</ele><time>2026-05-03T10:17:37.37Z</time></trkpt><trkpt lat="45.8888933" lon="9.6122017"><ele>547.0</ele><time>2026-05-03T10:17:38.371Z</time></trkpt><trkpt lat="45.8889033" lon="9.612435"><ele>541.0</ele><time>2026-05-03T10:17:39.37Z</time></trkpt><trkpt lat="45.8889517" lon="9.6126633"><ele>534.0</ele><time>2026-05-03T10:17:40.372Z</time></trkpt><trkpt lat="45.8890183" lon="9.6128867"><ele>527.0</ele><time>2026-05-03T10:17:41.37Z</time></trkpt><trkpt lat="45.8890917" lon="9.6131117"><ele>520.0</ele><time>2026-05-03T10:17:42.37Z</time></trkpt><trkpt lat="45.88915" lon="9.61336"><ele>520.0</ele><time>2026-05-03T10:17:43.372Z</time></trkpt><trkpt lat="45.8892083" lon="9.61362"><ele>520.0</ele><time>2026-05-03T10:17:44.371Z</time></trkpt><trkpt lat="45.88925" lon="9.6138817"><ele>520.0</ele><time>2026-05-03T10:17:45.371Z</time></trkpt><trkpt lat="45.8892833" lon="9.6141367"><ele>530.6666666666667</ele><time>2026-05-03T10:17:46.371Z</time></trkpt><trkpt lat="45.88932" lon="9.6143883"><ele>541.3333333333334</ele><time>2026-05-03T10:17:47.371Z</time></trkpt><trkpt lat="45.88936" lon="9.61464"><ele>552.0</ele><time>2026-05-03T10:17:48.373Z</time></trkpt><trkpt lat="45.8893983" lon="9.6148933"><ele>557.0</ele><time>2026-05-03T10:17:49.373Z</time></trkpt><trkpt lat="45.889435" lon="9.6151483"><ele>562.0</ele><time>2026-05-03T10:17:50.373Z</time></trkpt><trkpt lat="45.8894717" lon="9.6154017"><ele>567.0</ele><time>2026-05-03T10:17:51.371Z</time></trkpt><trkpt lat="45.88951" lon="9.6156567"><ele>511.0</ele><time>2026-05-03T10:17:52.372Z</time></trkpt><trkpt lat="45.8872833" lon="9.619475"><ele>510.33333333333337</ele><time>2026-05-03T10:18:07.37Z</time></trkpt><trkpt lat="45.8873283" lon="9.6195417"><ele>509.6666666666667</ele><time>2026-05-03T10:18:08.371Z</time></trkpt><trkpt lat="45.8873067" lon="9.61966"><ele>509.0</ele><time>2026-05-03T10:18:10.37Z</time></trkpt><trkpt lat="45.8872867" lon="9.61975"><ele>508.33333333333337</ele><time>2026-05-03T10:18:11.37Z</time></trkpt><trkpt lat="45.8872517" lon="9.6198633"><ele>507.6666666666667</ele><time>2026-05-03T10:18:12.371Z</time></trkpt><trkpt lat="45.8871967" lon="9.6199833"><ele>507.0</ele><time>2026-05-03T10:18:13.369Z</time></trkpt><trkpt lat="45.8871217" lon="9.6200883"><ele>507.0</ele><time>2026-05-03T10:18:14.374Z</time></trkpt><trkpt lat="45.887055" lon="9.62018"><ele>507.0</ele><time>2026-05-03T10:18:15.37Z</time></trkpt><trkpt lat="45.8869783" lon="9.62027"><ele>507.0</ele><time>2026-05-03T10:18:16.369Z</time></trkpt><trkpt lat="45.88691" lon="9.6203083"><ele>507.0</ele><time>2026-05-03T10:18:17.371Z</time></trkpt><trkpt lat="45.88684" lon="9.6203417"><ele>507.0</ele><time>2026-05-03T10:18:18.37Z</time></trkpt><trkpt lat="45.886765" lon="9.6203617"><ele>507.0</ele><time>2026-05-03T10:18:19.372Z</time></trkpt><trkpt lat="45.886695" lon="9.620405"><ele>501.40000000000003</ele><time>2026-05-03T10:18:20.371Z</time></trkpt><trkpt lat="45.886625" lon="9.6204717"><ele>495.80000000000007</ele><time>2026-05-03T10:18:21.37Z</time></trkpt><trkpt lat="45.88656" lon="9.6205567"><ele>490.2</ele><time>2026-05-03T10:18:22.376Z</time></trkpt><trkpt lat="45.8865033" lon="9.6206817"><ele>484.6</ele><time>2026-05-03T10:18:23.373Z</time></trkpt><trkpt lat="45.8864367" lon="9.6208"><ele>479.0</ele><time>2026-05-03T10:18:24.371Z</time></trkpt><trkpt lat="45.8863617" lon="9.620925"><ele>479.0</ele><time>2026-05-03T10:18:25.37Z</time></trkpt><trkpt lat="45.886285" lon="9.6210533"><ele>479.0</ele><time>2026-05-03T10:18:26.37Z</time></trkpt><trkpt lat="45.8862217" lon="9.62121"><ele>479.0</ele><time>2026-05-03T10:18:27.37Z</time></trkpt><trkpt lat="45.8861767" lon="9.621385"><ele>479.0</ele><time>2026-05-03T10:18:28.369Z</time></trkpt><trkpt lat="45.8861533" lon="9.62158"><ele>479.0</ele><time>2026-05-03T10:18:29.37Z</time></trkpt><trkpt lat="45.88613" lon="9.6217867"><ele>479.0</ele><time>2026-05-03T10:18:30.37Z</time></trkpt><trkpt lat="45.886095" lon="9.6219983"><ele>479.0</ele><time>2026-05-03T10:18:31.37Z</time></trkpt><trkpt lat="45.8860633" lon="9.6222167"><ele>479.0</ele><time>2026-05-03T10:18:32.37Z</time></trkpt><trkpt lat="45.8860083" lon="9.6224283"><ele>479.0</ele><time>2026-05-03T10:18:33.369Z</time></trkpt><trkpt lat="45.8859433" lon="9.622625"><ele>479.0</ele><time>2026-05-03T10:18:34.37Z</time></trkpt><trkpt lat="45.8858617" lon="9.6227883"><ele>479.0</ele><time>2026-05-03T10:18:35.37Z</time></trkpt><trkpt lat="45.8857567" lon="9.6229167"><ele>469.0</ele><time>2026-05-03T10:18:36.37Z</time></trkpt><trkpt lat="45.8856233" lon="9.623015"><ele>459.0</ele><time>2026-05-03T10:18:37.37Z</time></trkpt><trkpt lat="45.88548" lon="9.6230983"><ele>449.0</ele><time>2026-05-03T10:18:38.37Z</time></trkpt><trkpt lat="45.885335" lon="9.6231767"><ele>449.0</ele><time>2026-05-03T10:18:39.37Z</time></trkpt><trkpt lat="45.88519" lon="9.62325"><ele>449.0</ele><time>2026-05-03T10:18:40.369Z</time></trkpt><trkpt lat="45.8850517" lon="9.6233133"><ele>449.0</ele><time>2026-05-03T10:18:41.373Z</time></trkpt><trkpt lat="45.8849217" lon="9.6233767"><ele>449.0</ele><time>2026-05-03T10:18:42.373Z</time></trkpt><trkpt lat="45.884795" lon="9.6234517"><ele>448.5</ele><time>2026-05-03T10:18:43.369Z</time></trkpt><trkpt lat="45.8846717" lon="9.62354"><ele>448.0</ele><time>2026-05-03T10:18:44.37Z</time></trkpt><trkpt lat="45.8845567" lon="9.62365"><ele>447.5</ele><time>2026-05-03T10:18:45.373Z</time></trkpt><trkpt lat="45.8844433" lon="9.62382"><ele>447.0</ele><time>2026-05-03T10:18:46.372Z</time></trkpt><trkpt lat="45.88433" lon="9.624055"><ele>445.66666666666663</ele><time>2026-05-03T10:18:47.373Z</time></trkpt><trkpt lat="45.8842117" lon="9.62432"><ele>444.3333333333333</ele><time>2026-05-03T10:18:48.369Z</time></trkpt><trkpt lat="45.8840917" lon="9.6245933"><ele>443.0</ele><time>2026-05-03T10:18:49.37Z</time></trkpt><trkpt lat="45.8839783" lon="9.6248617"><ele>443.0</ele><time>2026-05-03T10:18:50.371Z</time></trkpt><trkpt lat="45.8838683" lon="9.6251367"><ele>443.0</ele><time>2026-05-03T10:18:51.37Z</time></trkpt><trkpt lat="45.8837567" lon="9.6254083"><ele>443.0</ele><time>2026-05-03T10:18:52.37Z</time></trkpt><trkpt lat="45.883655" lon="9.6256783"><ele>442.0</ele><time>2026-05-03T10:18:53.371Z</time></trkpt><trkpt lat="45.8835767" lon="9.6259483"><ele>441.0</ele><time>2026-05-03T10:18:54.37Z</time></trkpt><trkpt lat="45.8835317" lon="9.6262067"><ele>440.0</ele><time>2026-05-03T10:18:55.371Z</time></trkpt><trkpt lat="45.8835167" lon="9.6264583"><ele>440.0</ele><time>2026-05-03T10:18:56.373Z</time></trkpt><trkpt lat="45.883525" lon="9.6267083"><ele>440.0</ele><time>2026-05-03T10:18:57.37Z</time></trkpt><trkpt lat="45.883535" lon="9.6269367"><ele>440.0</ele><time>2026-05-03T10:18:58.369Z</time></trkpt><trkpt lat="45.8835733" lon="9.6271417"><ele>438.75</ele><time>2026-05-03T10:18:59.373Z</time></trkpt><trkpt lat="45.8836317" lon="9.6273183"><ele>437.5</ele><time>2026-05-03T10:19:00.369Z</time></trkpt><trkpt lat="45.8837333" lon="9.6274717"><ele>436.25</ele><time>2026-05-03T10:19:01.373Z</time></trkpt><trkpt lat="45.8838517" lon="9.6276083"><ele>435.0</ele><time>2026-05-03T10:19:02.374Z</time></trkpt><trkpt lat="45.8839667" lon="9.62777"><ele>434.33333333333337</ele><time>2026-05-03T10:19:03.369Z</time></trkpt><trkpt lat="45.8840633" lon="9.6279583"><ele>433.6666666666667</ele><time>2026-05-03T10:19:04.372Z</time></trkpt><trkpt lat="45.884145" lon="9.62817"><ele>433.0</ele><time>2026-05-03T10:19:05.373Z</time></trkpt><trkpt lat="45.88419" lon="9.6283817"><ele>433.0</ele><time>2026-05-03T10:19:06.372Z</time></trkpt><trkpt lat="45.884205" lon="9.6285983"><ele>433.0</ele><time>2026-05-03T10:19:07.37Z</time></trkpt><trkpt lat="45.8842017" lon="9.62883"><ele>433.0</ele><time>2026-05-03T10:19:08.373Z</time></trkpt><trkpt lat="45.884185" lon="9.6290483"><ele>434.33333333333337</ele><time>2026-05-03T10:19:09.372Z</time></trkpt><trkpt lat="45.8841383" lon="9.6292317"><ele>435.66666666666663</ele><time>2026-05-03T10:19:10.369Z</time></trkpt><trkpt lat="45.88405" lon="9.6293967"><ele>437.0</ele><time>2026-05-03T10:19:11.373Z</time></trkpt><trkpt lat="45.8839133" lon="9.6295667"><ele>435.66666666666663</ele><time>2026-05-03T10:19:12.369Z</time></trkpt><trkpt lat="45.88374" lon="9.6297467"><ele>434.33333333333337</ele><time>2026-05-03T10:19:13.369Z</time></trkpt><trkpt lat="45.8835567" lon="9.629945"><ele>433.0</ele><time>2026-05-03T10:19:14.371Z</time></trkpt><trkpt lat="45.8833633" lon="9.6301383"><ele>431.6666666666667</ele><time>2026-05-03T10:19:15.37Z</time></trkpt><trkpt lat="45.8831817" lon="9.6303183"><ele>430.33333333333337</ele><time>2026-05-03T10:19:16.37Z</time></trkpt><trkpt lat="45.8830283" lon="9.6305033"><ele>429.0</ele><time>2026-05-03T10:19:17.37Z</time></trkpt><trkpt lat="45.8828983" lon="9.630715"><ele>429.0</ele><time>2026-05-03T10:19:18.37Z</time></trkpt><trkpt lat="45.88279" lon="9.6309633"><ele>429.0</ele><time>2026-05-03T10:19:19.369Z</time></trkpt><trkpt lat="45.8826967" lon="9.6312667"><ele>429.0</ele><time>2026-05-03T10:19:20.371Z</time></trkpt><trkpt lat="45.8826233" lon="9.6316133"><ele>430.0</ele><time>2026-05-03T10:19:21.37Z</time></trkpt><trkpt lat="45.882555" lon="9.6319517"><ele>431.0</ele><time>2026-05-03T10:19:22.369Z</time></trkpt><trkpt lat="45.8825" lon="9.6322767"><ele>431.0</ele><time>2026-05-03T10:19:23.371Z</time></trkpt><trkpt lat="45.8824467" lon="9.6325717"><ele>431.0</ele><time>2026-05-03T10:19:24.37Z</time></trkpt><trkpt lat="45.8824" lon="9.63284"><ele>431.0</ele><time>2026-05-03T10:19:25.371Z</time></trkpt><trkpt lat="45.882355" lon="9.6330833"><ele>427.3333333333333</ele><time>2026-05-03T10:19:26.374Z</time></trkpt><trkpt lat="45.882315" lon="9.6333067"><ele>423.66666666666663</ele><time>2026-05-03T10:19:27.373Z</time></trkpt><trkpt lat="45.8822783" lon="9.633515"><ele>420.0</ele><time>2026-05-03T10:19:28.373Z</time></trkpt><trkpt lat="45.8822383" lon="9.6337483"><ele>419.66666666666663</ele><time>2026-05-03T10:19:29.373Z</time></trkpt><trkpt lat="45.8821983" lon="9.6340083"><ele>419.3333333333333</ele><time>2026-05-03T10:19:30.373Z</time></trkpt><trkpt lat="45.8821433" lon="9.6342867"><ele>419.0</ele><time>2026-05-03T10:19:31.37Z</time></trkpt><trkpt lat="45.8820767" lon="9.6345717"><ele>418.0</ele><time>2026-05-03T10:19:32.371Z</time></trkpt><trkpt lat="45.8820067" lon="9.6348483"><ele>417.0</ele><time>2026-05-03T10:19:33.373Z</time></trkpt><trkpt lat="45.8819467" lon="9.6351017"><ele>416.0</ele><time>2026-05-03T10:19:34.372Z</time></trkpt><trkpt lat="45.88188" lon="9.6353183"><ele>416.0</ele><time>2026-05-03T10:19:35.371Z</time></trkpt><trkpt lat="45.8818083" lon="9.6354983"><ele>416.0</ele><time>2026-05-03T10:19:36.368Z</time></trkpt><trkpt lat="45.8817167" lon="9.6356417"><ele>416.0</ele><time>2026-05-03T10:19:37.371Z</time></trkpt><trkpt lat="45.881595" lon="9.6357067"><ele>416.0</ele><time>2026-05-03T10:19:38.369Z</time></trkpt><trkpt lat="45.8814433" lon="9.6357167"><ele>416.0</ele><time>2026-05-03T10:19:39.373Z</time></trkpt><trkpt lat="45.881295" lon="9.6356983"><ele>416.0</ele><time>2026-05-03T10:19:40.373Z</time></trkpt><trkpt lat="45.8811517" lon="9.635705"><ele>416.0</ele><time>2026-05-03T10:19:41.369Z</time></trkpt><trkpt lat="45.881025" lon="9.63576"><ele>416.0</ele><time>2026-05-03T10:19:42.371Z</time></trkpt><trkpt lat="45.8809133" lon="9.6358617"><ele>415.0</ele><time>2026-05-03T10:19:43.372Z</time></trkpt><trkpt lat="45.8808317" lon="9.6360217"><ele>414.0</ele><time>2026-05-03T10:19:44.373Z</time></trkpt><trkpt lat="45.8807767" lon="9.63624"><ele>413.0</ele><time>2026-05-03T10:19:45.372Z</time></trkpt><trkpt lat="45.8807533" lon="9.6365083"><ele>413.0</ele><time>2026-05-03T10:19:46.378Z</time></trkpt><trkpt lat="45.8807317" lon="9.6368167"><ele>413.0</ele><time>2026-05-03T10:19:47.373Z</time></trkpt><trkpt lat="45.8807017" lon="9.6371583"><ele>415.0</ele><time>2026-05-03T10:19:48.372Z</time></trkpt><trkpt lat="45.8806517" lon="9.63751"><ele>417.0</ele><time>2026-05-03T10:19:49.374Z</time></trkpt><trkpt lat="45.8805833" lon="9.63786"><ele>420.0</ele><time>2026-05-03T10:19:50.373Z</time></trkpt><trkpt lat="45.8805017" lon="9.6381883"><ele>423.0</ele><time>2026-05-03T10:19:51.372Z</time></trkpt><trkpt lat="45.880415" lon="9.6384883"><ele>426.0</ele><time>2026-05-03T10:19:52.371Z</time></trkpt><trkpt lat="45.8803317" lon="9.6387717"><ele>429.0</ele><time>2026-05-03T10:19:53.369Z</time></trkpt><trkpt lat="45.8802633" lon="9.6390633"><ele>432.0</ele><time>2026-05-03T10:19:54.373Z</time></trkpt><trkpt lat="45.8801967" lon="9.639375"><ele>438.5</ele><time>2026-05-03T10:19:55.373Z</time></trkpt><trkpt lat="45.8801283" lon="9.63971"><ele>445.0</ele><time>2026-05-03T10:19:56.369Z</time></trkpt><trkpt lat="45.8800483" lon="9.640055"><ele>432.0</ele><time>2026-05-03T10:19:57.373Z</time></trkpt><trkpt lat="45.8799733" lon="9.6404017"><ele>419.0</ele><time>2026-05-03T10:19:58.372Z</time></trkpt><trkpt lat="45.8799" lon="9.6407467"><ele>419.0</ele><time>2026-05-03T10:19:59.371Z</time></trkpt><trkpt lat="45.8798283" lon="9.641075"><ele>419.0</ele><time>2026-05-03T10:20:00.373Z</time></trkpt><trkpt lat="45.8797617" lon="9.6413833"><ele>422.0</ele><time>2026-05-03T10:20:01.373Z</time></trkpt><trkpt lat="45.8796983" lon="9.641665"><ele>425.0</ele><time>2026-05-03T10:20:02.372Z</time></trkpt><trkpt lat="45.8796183" lon="9.6419233"><ele>428.0</ele><time>2026-05-03T10:20:03.368Z</time></trkpt><trkpt lat="45.87952" lon="9.6421683"><ele>430.0</ele><time>2026-05-03T10:20:04.369Z</time></trkpt><trkpt lat="45.8794083" lon="9.642415"><ele>432.0</ele><time>2026-05-03T10:20:05.369Z</time></trkpt><trkpt lat="45.879275" lon="9.642655"><ele>434.0</ele><time>2026-05-03T10:20:06.373Z</time></trkpt><trkpt lat="45.8791317" lon="9.64288"><ele>434.0</ele><time>2026-05-03T10:20:07.372Z</time></trkpt><trkpt lat="45.8789917" lon="9.643095"><ele>434.0</ele><time>2026-05-03T10:20:08.372Z</time></trkpt><trkpt lat="45.8788467" lon="9.6433083"><ele>434.0</ele><time>2026-05-03T10:20:09.373Z</time></trkpt><trkpt lat="45.87871" lon="9.6435233"><ele>429.3333333333333</ele><time>2026-05-03T10:20:10.372Z</time></trkpt><trkpt lat="45.8785767" lon="9.6437367"><ele>424.66666666666663</ele><time>2026-05-03T10:20:11.373Z</time></trkpt><trkpt lat="45.8784433" lon="9.6439417"><ele>420.0</ele><time>2026-05-03T10:20:12.368Z</time></trkpt><trkpt lat="45.8783167" lon="9.6441383"><ele>420.0</ele><time>2026-05-03T10:20:13.369Z</time></trkpt><trkpt lat="45.878195" lon="9.6443217"><ele>420.0</ele><time>2026-05-03T10:20:14.37Z</time></trkpt><trkpt lat="45.878075" lon="9.6445"><ele>420.0</ele><time>2026-05-03T10:20:15.369Z</time></trkpt><trkpt lat="45.8779583" lon="9.6446817"><ele>422.33333333333337</ele><time>2026-05-03T10:20:16.368Z</time></trkpt><trkpt lat="45.8778533" lon="9.6448683"><ele>424.6666666666667</ele><time>2026-05-03T10:20:17.369Z</time></trkpt><trkpt lat="45.8777617" lon="9.6450617"><ele>427.0</ele><time>2026-05-03T10:20:18.37Z</time></trkpt><trkpt lat="45.8776883" lon="9.6452667"><ele>425.33333333333337</ele><time>2026-05-03T10:20:19.369Z</time></trkpt><trkpt lat="45.8776333" lon="9.6454867"><ele>423.66666666666663</ele><time>2026-05-03T10:20:20.37Z</time></trkpt><trkpt lat="45.877595" lon="9.64573"><ele>422.0</ele><time>2026-05-03T10:20:21.369Z</time></trkpt><trkpt lat="45.87757" lon="9.6459917"><ele>418.0</ele><time>2026-05-03T10:20:22.373Z</time></trkpt><trkpt lat="45.8775467" lon="9.646265"><ele>414.0</ele><time>2026-05-03T10:20:23.372Z</time></trkpt><trkpt lat="45.8775217" lon="9.6465483"><ele>410.0</ele><time>2026-05-03T10:20:24.373Z</time></trkpt><trkpt lat="45.8774933" lon="9.64683"><ele>410.0</ele><time>2026-05-03T10:20:25.372Z</time></trkpt><trkpt lat="45.87747" lon="9.647105"><ele>410.0</ele><time>2026-05-03T10:20:26.372Z</time></trkpt><trkpt lat="45.87745" lon="9.6473733"><ele>410.0</ele><time>2026-05-03T10:20:27.372Z</time></trkpt><trkpt lat="45.87743" lon="9.6476433"><ele>411.0</ele><time>2026-05-03T10:20:28.372Z</time></trkpt><trkpt lat="45.8774083" lon="9.647915"><ele>412.0</ele><time>2026-05-03T10:20:29.373Z</time></trkpt><trkpt lat="45.8773817" lon="9.6481883"><ele>413.0</ele><time>2026-05-03T10:20:30.373Z</time></trkpt><trkpt lat="45.877355" lon="9.6484567"><ele>417.0</ele><time>2026-05-03T10:20:31.373Z</time></trkpt><trkpt lat="45.877325" lon="9.6487083"><ele>421.0</ele><time>2026-05-03T10:20:32.371Z</time></trkpt><trkpt lat="45.8772867" lon="9.6489483"><ele>425.0</ele><time>2026-05-03T10:20:33.372Z</time></trkpt><trkpt lat="45.8772333" lon="9.6491783"><ele>425.0</ele><time>2026-05-03T10:20:34.37Z</time></trkpt><trkpt lat="45.877155" lon="9.6493933"><ele>425.0</ele><time>2026-05-03T10:20:35.372Z</time></trkpt><trkpt lat="45.877055" lon="9.6495883"><ele>425.0</ele><time>2026-05-03T10:20:36.373Z</time></trkpt><trkpt lat="45.8769217" lon="9.649745"><ele>419.66666666666663</ele><time>2026-05-03T10:20:37.372Z</time></trkpt><trkpt lat="45.876765" lon="9.6498683"><ele>414.33333333333337</ele><time>2026-05-03T10:20:38.37Z</time></trkpt><trkpt lat="45.8766033" lon="9.6499733"><ele>409.0</ele><time>2026-05-03T10:20:39.373Z</time></trkpt><trkpt lat="45.876455" lon="9.6500933"><ele>409.0</ele><time>2026-05-03T10:20:40.374Z</time></trkpt><trkpt lat="45.8763167" lon="9.65024"><ele>409.0</ele><time>2026-05-03T10:20:41.372Z</time></trkpt><trkpt lat="45.8761817" lon="9.650415"><ele>409.0</ele><time>2026-05-03T10:20:42.368Z</time></trkpt><trkpt lat="45.8760483" lon="9.6506017"><ele>407.6666666666667</ele><time>2026-05-03T10:20:43.369Z</time></trkpt><trkpt lat="45.8759217" lon="9.650785"><ele>406.33333333333337</ele><time>2026-05-03T10:20:44.37Z</time></trkpt><trkpt lat="45.8757983" lon="9.650955"><ele>405.0</ele><time>2026-05-03T10:20:45.37Z</time></trkpt><trkpt lat="45.8756817" lon="9.6511183"><ele>405.75</ele><time>2026-05-03T10:20:46.37Z</time></trkpt><trkpt lat="45.875575" lon="9.651285"><ele>406.5</ele><time>2026-05-03T10:20:47.374Z</time></trkpt><trkpt lat="45.8754833" lon="9.651445"><ele>407.25</ele><time>2026-05-03T10:20:48.37Z</time></trkpt><trkpt lat="45.875415" lon="9.65159"><ele>408.0</ele><time>2026-05-03T10:20:49.371Z</time></trkpt><trkpt lat="45.87537" lon="9.6517183"><ele>408.0</ele><time>2026-05-03T10:20:50.371Z</time></trkpt><trkpt lat="45.8753533" lon="9.65184"><ele>408.0</ele><time>2026-05-03T10:20:51.372Z</time></trkpt><trkpt lat="45.87537" lon="9.6519567"><ele>408.0</ele><time>2026-05-03T10:20:52.373Z</time></trkpt><trkpt lat="45.8754017" lon="9.6520617"><ele>408.0</ele><time>2026-05-03T10:20:53.371Z</time></trkpt><trkpt lat="45.8754567" lon="9.6521417"><ele>408.0</ele><time>2026-05-03T10:20:54.372Z</time></trkpt><trkpt lat="45.87555" lon="9.6522017"><ele>408.0</ele><time>2026-05-03T10:20:55.369Z</time></trkpt><trkpt lat="45.8756517" lon="9.65225"><ele>406.2</ele><time>2026-05-03T10:20:56.372Z</time></trkpt><trkpt lat="45.8757067" lon="9.6523117"><ele>404.4</ele><time>2026-05-03T10:20:57.37Z</time></trkpt><trkpt lat="45.8757217" lon="9.6524033"><ele>402.59999999999997</ele><time>2026-05-03T10:20:59.371Z</time></trkpt><trkpt lat="45.8757267" lon="9.6525217"><ele>400.79999999999995</ele><time>2026-05-03T10:21:01.371Z</time></trkpt><trkpt lat="45.8755733" lon="9.652595"><ele>399.0</ele><time>2026-05-03T10:21:03.371Z</time></trkpt><trkpt lat="45.8754883" lon="9.6526483"><ele>399.0</ele><time>2026-05-03T10:21:04.37Z</time></trkpt><trkpt lat="45.8754133" lon="9.6527"><ele>399.0</ele><time>2026-05-03T10:21:05.373Z</time></trkpt><trkpt lat="45.87534" lon="9.6527417"><ele>399.0</ele><time>2026-05-03T10:21:06.373Z</time></trkpt><trkpt lat="45.8752683" lon="9.6527683"><ele>399.0</ele><time>2026-05-03T10:21:07.373Z</time></trkpt><trkpt lat="45.8751967" lon="9.6527817"><ele>399.0</ele><time>2026-05-03T10:21:08.369Z</time></trkpt><trkpt lat="45.8751117" lon="9.652795"><ele>399.0</ele><time>2026-05-03T10:21:09.372Z</time></trkpt><trkpt lat="45.8750033" lon="9.6528083"><ele>397.75</ele><time>2026-05-03T10:21:10.371Z</time></trkpt><trkpt lat="45.8748767" lon="9.6528117"><ele>396.5</ele><time>2026-05-03T10:21:11.369Z</time></trkpt><trkpt lat="45.87476" lon="9.6528083"><ele>395.25</ele><time>2026-05-03T10:21:12.372Z</time></trkpt><trkpt lat="45.8746333" lon="9.6528133"><ele>394.0</ele><time>2026-05-03T10:21:13.369Z</time></trkpt><trkpt lat="45.8745083" lon="9.6528117"><ele>394.0</ele><time>2026-05-03T10:21:14.373Z</time></trkpt><trkpt lat="45.8743783" lon="9.6527933"><ele>394.0</ele><time>2026-05-03T10:21:15.37Z</time></trkpt><trkpt lat="45.87426" lon="9.652795"><ele>394.0</ele><time>2026-05-03T10:21:16.372Z</time></trkpt><trkpt lat="45.8741517" lon="9.6527983"><ele>394.0</ele><time>2026-05-03T10:21:17.369Z</time></trkpt><trkpt lat="45.8740317" lon="9.6527967"><ele>393.25</ele><time>2026-05-03T10:21:18.369Z</time></trkpt><trkpt lat="45.8738933" lon="9.6527933"><ele>392.5</ele><time>2026-05-03T10:21:19.369Z</time></trkpt><trkpt lat="45.8737417" lon="9.65279"><ele>391.75</ele><time>2026-05-03T10:21:20.37Z</time></trkpt><trkpt lat="45.8735867" lon="9.65278"><ele>391.0</ele><time>2026-05-03T10:21:21.37Z</time></trkpt><trkpt lat="45.8734417" lon="9.652765"><ele>392.0</ele><time>2026-05-03T10:21:22.37Z</time></trkpt><trkpt lat="45.8733083" lon="9.6527467"><ele>393.0</ele><time>2026-05-03T10:21:23.37Z</time></trkpt><trkpt lat="45.8731833" lon="9.6526967"><ele>394.0</ele><time>2026-05-03T10:21:24.37Z</time></trkpt><trkpt lat="45.873065" lon="9.65265"><ele>395.0</ele><time>2026-05-03T10:21:25.369Z</time></trkpt><trkpt lat="45.8729633" lon="9.6525983"><ele>395.0</ele><time>2026-05-03T10:21:26.373Z</time></trkpt><trkpt lat="45.872865" lon="9.65255"><ele>395.0</ele><time>2026-05-03T10:21:27.373Z</time></trkpt><trkpt lat="45.8727667" lon="9.6524917"><ele>395.0</ele><time>2026-05-03T10:21:28.374Z</time></trkpt><trkpt lat="45.8726717" lon="9.6524117"><ele>395.0</ele><time>2026-05-03T10:21:29.372Z</time></trkpt><trkpt lat="45.8725717" lon="9.65231"><ele>395.0</ele><time>2026-05-03T10:21:30.376Z</time></trkpt><trkpt lat="45.8724567" lon="9.6522033"><ele>396.3333333333333</ele><time>2026-05-03T10:21:31.373Z</time></trkpt><trkpt lat="45.8723283" lon="9.65207"><ele>397.66666666666663</ele><time>2026-05-03T10:21:32.372Z</time></trkpt><trkpt lat="45.8721983" lon="9.6519217"><ele>399.0</ele><time>2026-05-03T10:21:33.37Z</time></trkpt><trkpt lat="45.87207" lon="9.65178"><ele>399.0</ele><time>2026-05-03T10:21:34.37Z</time></trkpt><trkpt lat="45.8719417" lon="9.6516517"><ele>399.0</ele><time>2026-05-03T10:21:35.369Z</time></trkpt><trkpt lat="45.87181" lon="9.6515617"><ele>399.0</ele><time>2026-05-03T10:21:36.369Z</time></trkpt><trkpt lat="45.871675" lon="9.6514967"><ele>399.0</ele><time>2026-05-03T10:21:37.369Z</time></trkpt><trkpt lat="45.8715317" lon="9.6514833"><ele>396.0</ele><time>2026-05-03T10:21:38.373Z</time></trkpt><trkpt lat="45.87138" lon="9.651525"><ele>393.0</ele><time>2026-05-03T10:21:39.37Z</time></trkpt><trkpt lat="45.8712133" lon="9.651615"><ele>390.0</ele><time>2026-05-03T10:21:40.374Z</time></trkpt><trkpt lat="45.8710383" lon="9.651725"><ele>387.3333333333333</ele><time>2026-05-03T10:21:41.372Z</time></trkpt><trkpt lat="45.8708567" lon="9.651835"><ele>384.66666666666663</ele><time>2026-05-03T10:21:42.372Z</time></trkpt><trkpt lat="45.87067" lon="9.6519467"><ele>382.0</ele><time>2026-05-03T10:21:43.372Z</time></trkpt><trkpt lat="45.8704817" lon="9.6520583"><ele>382.0</ele><time>2026-05-03T10:21:44.372Z</time></trkpt><trkpt lat="45.8703" lon="9.6521717"><ele>382.0</ele><time>2026-05-03T10:21:45.37Z</time></trkpt><trkpt lat="45.8701183" lon="9.6522967"><ele>382.0</ele><time>2026-05-03T10:21:46.373Z</time></trkpt><trkpt lat="45.8699333" lon="9.65243"><ele>383.0</ele><time>2026-05-03T10:21:47.37Z</time></trkpt><trkpt lat="45.8697467" lon="9.65256"><ele>384.0</ele><time>2026-05-03T10:21:48.371Z</time></trkpt><trkpt lat="45.869555" lon="9.6526717"><ele>385.0</ele><time>2026-05-03T10:21:49.37Z</time></trkpt><trkpt lat="45.869365" lon="9.6527733"><ele>384.0</ele><time>2026-05-03T10:21:50.376Z</time></trkpt><trkpt lat="45.8691867" lon="9.6528783"><ele>383.0</ele><time>2026-05-03T10:21:51.371Z</time></trkpt><trkpt lat="45.8690217" lon="9.653005"><ele>382.0</ele><time>2026-05-03T10:21:52.371Z</time></trkpt><trkpt lat="45.86887" lon="9.6531617"><ele>382.0</ele><time>2026-05-03T10:21:53.372Z</time></trkpt><trkpt lat="45.86872" lon="9.6533317"><ele>382.0</ele><time>2026-05-03T10:21:54.372Z</time></trkpt><trkpt lat="45.86858" lon="9.653505"><ele>382.0</ele><time>2026-05-03T10:21:55.372Z</time></trkpt><trkpt lat="45.8684583" lon="9.6536833"><ele>385.0</ele><time>2026-05-03T10:21:56.372Z</time></trkpt><trkpt lat="45.8683483" lon="9.65389"><ele>388.0</ele><time>2026-05-03T10:21:57.373Z</time></trkpt><trkpt lat="45.8682567" lon="9.654135"><ele>391.0</ele><time>2026-05-03T10:21:58.372Z</time></trkpt><trkpt lat="45.8681817" lon="9.6543967"><ele>389.33333333333337</ele><time>2026-05-03T10:21:59.371Z</time></trkpt><trkpt lat="45.8681167" lon="9.65467"><ele>387.66666666666663</ele><time>2026-05-03T10:22:00.371Z</time></trkpt><trkpt lat="45.8680483" lon="9.6549517"><ele>386.0</ele><time>2026-05-03T10:22:01.369Z</time></trkpt><trkpt lat="45.867995" lon="9.65522"><ele>384.66666666666663</ele><time>2026-05-03T10:22:02.372Z</time></trkpt><trkpt lat="45.8679567" lon="9.6554733"><ele>383.3333333333333</ele><time>2026-05-03T10:22:03.373Z</time></trkpt><trkpt lat="45.86792" lon="9.6557"><ele>382.0</ele><time>2026-05-03T10:22:04.372Z</time></trkpt><trkpt lat="45.8678617" lon="9.6559117"><ele>382.0</ele><time>2026-05-03T10:22:05.37Z</time></trkpt><trkpt lat="45.867795" lon="9.65611"><ele>382.0</ele><time>2026-05-03T10:22:06.37Z</time></trkpt><trkpt lat="45.8677067" lon="9.6563083"><ele>382.0</ele><time>2026-05-03T10:22:07.371Z</time></trkpt><trkpt lat="45.8676033" lon="9.656515"><ele>383.0</ele><time>2026-05-03T10:22:08.372Z</time></trkpt><trkpt lat="45.8674867" lon="9.6567283"><ele>384.0</ele><time>2026-05-03T10:22:09.369Z</time></trkpt><trkpt lat="45.8673567" lon="9.6569167"><ele>385.0</ele><time>2026-05-03T10:22:10.37Z</time></trkpt><trkpt lat="45.8672317" lon="9.657095"><ele>385.0</ele><time>2026-05-03T10:22:11.373Z</time></trkpt><trkpt lat="45.8670933" lon="9.6572433"><ele>385.0</ele><time>2026-05-03T10:22:12.369Z</time></trkpt><trkpt lat="45.86695" lon="9.6573683"><ele>385.0</ele><time>2026-05-03T10:22:13.373Z</time></trkpt><trkpt lat="45.8667967" lon="9.65747"><ele>386.0</ele><time>2026-05-03T10:22:14.373Z</time></trkpt><trkpt lat="45.8666367" lon="9.6575467"><ele>387.0</ele><time>2026-05-03T10:22:15.372Z</time></trkpt><trkpt lat="45.8664767" lon="9.6576233"><ele>388.0</ele><time>2026-05-03T10:22:16.377Z</time></trkpt><trkpt lat="45.8663067" lon="9.6576833"><ele>388.0</ele><time>2026-05-03T10:22:17.371Z</time></trkpt><trkpt lat="45.8661317" lon="9.6577483"><ele>388.0</ele><time>2026-05-03T10:22:18.369Z</time></trkpt><trkpt lat="45.86593" lon="9.65783"><ele>388.0</ele><time>2026-05-03T10:22:19.371Z</time></trkpt><trkpt lat="45.8657267" lon="9.65792"><ele>387.6666666666667</ele><time>2026-05-03T10:22:20.37Z</time></trkpt><trkpt lat="45.8655233" lon="9.6580067"><ele>387.33333333333337</ele><time>2026-05-03T10:22:21.369Z</time></trkpt><trkpt lat="45.865315" lon="9.65809"><ele>387.0</ele><time>2026-05-03T10:22:22.37Z</time></trkpt><trkpt lat="45.8650983" lon="9.6581717"><ele>385.5</ele><time>2026-05-03T10:22:23.369Z</time></trkpt><trkpt lat="45.8648783" lon="9.6582583"><ele>384.0</ele><time>2026-05-03T10:22:24.372Z</time></trkpt><trkpt lat="45.8646567" lon="9.6583433"><ele>384.0</ele><time>2026-05-03T10:22:25.374Z</time></trkpt><trkpt lat="45.8644333" lon="9.6584267"><ele>384.0</ele><time>2026-05-03T10:22:26.372Z</time></trkpt><trkpt lat="45.8642117" lon="9.6585067"><ele>382.5</ele><time>2026-05-03T10:22:27.372Z</time></trkpt><trkpt lat="45.86399" lon="9.65859"><ele>381.0</ele><time>2026-05-03T10:22:28.372Z</time></trkpt><trkpt lat="45.86377" lon="9.658675"><ele>381.0</ele><time>2026-05-03T10:22:29.372Z</time></trkpt><trkpt lat="45.8635617" lon="9.658765"><ele>381.0</ele><time>2026-05-03T10:22:30.369Z</time></trkpt><trkpt lat="45.86336" lon="9.658845"><ele>381.0</ele><time>2026-05-03T10:22:31.37Z</time></trkpt><trkpt lat="45.8631667" lon="9.6589083"><ele>380.3333333333333</ele><time>2026-05-03T10:22:32.373Z</time></trkpt><trkpt lat="45.8629883" lon="9.658945"><ele>379.66666666666663</ele><time>2026-05-03T10:22:33.37Z</time></trkpt><trkpt lat="45.8628167" lon="9.658945"><ele>379.0</ele><time>2026-05-03T10:22:34.372Z</time></trkpt><trkpt lat="45.86265" lon="9.658915"><ele>380.66666666666663</ele><time>2026-05-03T10:22:35.37Z</time></trkpt><trkpt lat="45.8624867" lon="9.65884"><ele>382.3333333333333</ele><time>2026-05-03T10:22:36.371Z</time></trkpt><trkpt lat="45.862335" lon="9.65875"><ele>384.0</ele><time>2026-05-03T10:22:37.37Z</time></trkpt><trkpt lat="45.8622017" lon="9.6586317"><ele>391.0</ele><time>2026-05-03T10:22:38.374Z</time></trkpt><trkpt lat="45.86206" lon="9.65852"><ele>398.0</ele><time>2026-05-03T10:22:39.37Z</time></trkpt><trkpt lat="45.861905" lon="9.6584483"><ele>405.0</ele><time>2026-05-03T10:22:40.37Z</time></trkpt><trkpt lat="45.8617233" lon="9.6584467"><ele>405.0</ele><time>2026-05-03T10:22:41.371Z</time></trkpt><trkpt lat="45.8615383" lon="9.6585067"><ele>405.0</ele><time>2026-05-03T10:22:42.373Z</time></trkpt><trkpt lat="45.86135" lon="9.6586017"><ele>405.0</ele><time>2026-05-03T10:22:43.372Z</time></trkpt><trkpt lat="45.861155" lon="9.6587267"><ele>400.66666666666663</ele><time>2026-05-03T10:22:44.372Z</time></trkpt><trkpt lat="45.860955" lon="9.6588467"><ele>396.3333333333333</ele><time>2026-05-03T10:22:45.373Z</time></trkpt><trkpt lat="45.8607517" lon="9.6589717"><ele>392.0</ele><time>2026-05-03T10:22:46.373Z</time></trkpt><trkpt lat="45.86055" lon="9.6590917"><ele>392.0</ele><time>2026-05-03T10:22:47.37Z</time></trkpt><trkpt lat="45.8603467" lon="9.6592033"><ele>392.0</ele><time>2026-05-03T10:22:48.369Z</time></trkpt><trkpt lat="45.860155" lon="9.6593117"><ele>392.0</ele><time>2026-05-03T10:22:49.37Z</time></trkpt><trkpt lat="45.859965" lon="9.659425"><ele>397.0</ele><time>2026-05-03T10:22:50.371Z</time></trkpt><trkpt lat="45.8597767" lon="9.65954"><ele>402.0</ele><time>2026-05-03T10:22:51.372Z</time></trkpt><trkpt lat="45.8595867" lon="9.6596617"><ele>407.0</ele><time>2026-05-03T10:22:52.372Z</time></trkpt><trkpt lat="45.8593967" lon="9.6597783"><ele>410.66666666666663</ele><time>2026-05-03T10:22:53.372Z</time></trkpt><trkpt lat="45.8592067" lon="9.659895"><ele>414.33333333333337</ele><time>2026-05-03T10:22:54.371Z</time></trkpt><trkpt lat="45.859015" lon="9.6600133"><ele>418.0</ele><time>2026-05-03T10:22:55.371Z</time></trkpt><trkpt lat="45.85882" lon="9.6601317"><ele>418.0</ele><time>2026-05-03T10:22:56.373Z</time></trkpt><trkpt lat="45.8584867" lon="9.660235"><ele>418.0</ele><time>2026-05-03T10:22:57.371Z</time></trkpt><trkpt lat="45.8582667" lon="9.6603683"><ele>398.0</ele><time>2026-05-03T10:22:58.372Z</time></trkpt><trkpt lat="45.85804" lon="9.66048"><ele>378.0</ele><time>2026-05-03T10:22:59.372Z</time></trkpt><trkpt lat="45.85779" lon="9.660555"><ele>385.0</ele><time>2026-05-03T10:23:00.372Z</time></trkpt><trkpt lat="45.8575717" lon="9.6606333"><ele>392.0</ele><time>2026-05-03T10:23:01.369Z</time></trkpt><trkpt lat="45.85737" lon="9.6607133"><ele>399.0</ele><time>2026-05-03T10:23:02.371Z</time></trkpt><trkpt lat="45.8571733" lon="9.66079"><ele>399.0</ele><time>2026-05-03T10:23:03.369Z</time></trkpt><trkpt lat="45.856975" lon="9.6608633"><ele>399.0</ele><time>2026-05-03T10:23:04.37Z</time></trkpt><trkpt lat="45.8567767" lon="9.6609417"><ele>399.0</ele><time>2026-05-03T10:23:05.371Z</time></trkpt><trkpt lat="45.8565733" lon="9.6610233"><ele>402.0</ele><time>2026-05-03T10:23:06.371Z</time></trkpt><trkpt lat="45.856365" lon="9.6611067"><ele>405.0</ele><time>2026-05-03T10:23:07.371Z</time></trkpt><trkpt lat="45.8561617" lon="9.661185"><ele>408.0</ele><time>2026-05-03T10:23:08.372Z</time></trkpt><trkpt lat="45.8559567" lon="9.6612633"><ele>422.0</ele><time>2026-05-03T10:23:09.373Z</time></trkpt><trkpt lat="45.8555083" lon="9.66177"><ele>409.66666666666663</ele><time>2026-05-03T10:23:12.369Z</time></trkpt><trkpt lat="45.8553617" lon="9.66198"><ele>397.33333333333337</ele><time>2026-05-03T10:23:13.371Z</time></trkpt><trkpt lat="45.8552083" lon="9.66221"><ele>385.0</ele><time>2026-05-03T10:23:14.37Z</time></trkpt><trkpt lat="45.8550767" lon="9.6623933"><ele>384.33333333333337</ele><time>2026-05-03T10:23:15.37Z</time></trkpt><trkpt lat="45.8549067" lon="9.6625183"><ele>383.6666666666667</ele><time>2026-05-03T10:23:16.37Z</time></trkpt><trkpt lat="45.8547167" lon="9.6626217"><ele>383.0</ele><time>2026-05-03T10:23:17.371Z</time></trkpt><trkpt lat="45.8545167" lon="9.6627333"><ele>378.33333333333337</ele><time>2026-05-03T10:23:18.369Z</time></trkpt><trkpt lat="45.8543217" lon="9.6628683"><ele>373.6666666666667</ele><time>2026-05-03T10:23:19.371Z</time></trkpt><trkpt lat="45.854125" lon="9.6630417"><ele>369.0</ele><time>2026-05-03T10:23:20.37Z</time></trkpt><trkpt lat="45.8539283" lon="9.663255"><ele>369.0</ele><time>2026-05-03T10:23:21.369Z</time></trkpt><trkpt lat="45.8537267" lon="9.6634833"><ele>369.0</ele><time>2026-05-03T10:23:22.37Z</time></trkpt><trkpt lat="45.8535183" lon="9.6637133"><ele>371.0</ele><time>2026-05-03T10:23:23.371Z</time></trkpt><trkpt lat="45.853305" lon="9.6639333"><ele>373.0</ele><time>2026-05-03T10:23:24.374Z</time></trkpt><trkpt lat="45.8531017" lon="9.66414"><ele>373.0</ele><time>2026-05-03T10:23:25.372Z</time></trkpt><trkpt lat="45.8529067" lon="9.6643367"><ele>373.0</ele><time>2026-05-03T10:23:26.373Z</time></trkpt><trkpt lat="45.8527183" lon="9.6645233"><ele>376.0</ele><time>2026-05-03T10:23:27.373Z</time></trkpt><trkpt lat="45.8525317" lon="9.664705"><ele>379.0</ele><time>2026-05-03T10:23:28.372Z</time></trkpt><trkpt lat="45.8523467" lon="9.6648833"><ele>382.0</ele><time>2026-05-03T10:23:29.372Z</time></trkpt><trkpt lat="45.8521633" lon="9.6650633"><ele>382.0</ele><time>2026-05-03T10:23:30.37Z</time></trkpt><trkpt lat="45.8519817" lon="9.6652417"><ele>382.0</ele><time>2026-05-03T10:23:31.372Z</time></trkpt><trkpt lat="45.8517933" lon="9.6654267"><ele>382.0</ele><time>2026-05-03T10:23:32.371Z</time></trkpt><trkpt lat="45.8516" lon="9.665615"><ele>386.5</ele><time>2026-05-03T10:23:33.371Z</time></trkpt><trkpt lat="45.8514083" lon="9.6657883"><ele>391.0</ele><time>2026-05-03T10:23:34.372Z</time></trkpt><trkpt lat="45.8511967" lon="9.6659367"><ele>391.0</ele><time>2026-05-03T10:23:35.371Z</time></trkpt><trkpt lat="45.8509683" lon="9.66605"><ele>391.0</ele><time>2026-05-03T10:23:36.372Z</time></trkpt><trkpt lat="45.8506883" lon="9.66618"><ele>404.0</ele><time>2026-05-03T10:23:37.372Z</time></trkpt><trkpt lat="45.8504183" lon="9.6662633"><ele>417.0</ele><time>2026-05-03T10:23:38.371Z</time></trkpt><trkpt lat="45.8502083" lon="9.6664533"><ele>398.0</ele><time>2026-05-03T10:23:39.37Z</time></trkpt><trkpt lat="45.8500233" lon="9.6666633"><ele>379.0</ele><time>2026-05-03T10:23:40.374Z</time></trkpt><trkpt lat="45.8498417" lon="9.6668783"><ele>389.5</ele><time>2026-05-03T10:23:41.373Z</time></trkpt><trkpt lat="45.8496667" lon="9.6670917"><ele>400.0</ele><time>2026-05-03T10:23:42.375Z</time></trkpt><trkpt lat="45.8494917" lon="9.667305"><ele>400.0</ele><time>2026-05-03T10:23:43.372Z</time></trkpt><trkpt lat="45.849315" lon="9.66751"><ele>400.0</ele><time>2026-05-03T10:23:44.373Z</time></trkpt><trkpt lat="45.84914" lon="9.6677133"><ele>396.0</ele><time>2026-05-03T10:23:45.371Z</time></trkpt><trkpt lat="45.8489633" lon="9.6679217"><ele>392.0</ele><time>2026-05-03T10:23:46.371Z</time></trkpt><trkpt lat="45.84878" lon="9.6681267"><ele>392.0</ele><time>2026-05-03T10:23:47.369Z</time></trkpt><trkpt lat="45.8485933" lon="9.6683267"><ele>392.0</ele><time>2026-05-03T10:23:48.369Z</time></trkpt><trkpt lat="45.8484017" lon="9.6685217"><ele>398.0</ele><time>2026-05-03T10:23:49.368Z</time></trkpt><trkpt lat="45.8482083" lon="9.66871"><ele>404.0</ele><time>2026-05-03T10:23:50.369Z</time></trkpt><trkpt lat="45.8480117" lon="9.6688933"><ele>404.0</ele><time>2026-05-03T10:23:51.369Z</time></trkpt><trkpt lat="45.8478117" lon="9.6690733"><ele>404.0</ele><time>2026-05-03T10:23:52.369Z</time></trkpt><trkpt lat="45.8476117" lon="9.6692533"><ele>401.5</ele><time>2026-05-03T10:23:53.371Z</time></trkpt><trkpt lat="45.8474117" lon="9.6694367"><ele>399.0</ele><time>2026-05-03T10:23:54.37Z</time></trkpt><trkpt lat="45.847215" lon="9.66961"><ele>423.0</ele><time>2026-05-03T10:23:55.369Z</time></trkpt><trkpt lat="45.8470233" lon="9.6697783"><ele>447.0</ele><time>2026-05-03T10:23:56.369Z</time></trkpt><trkpt lat="45.8468233" lon="9.66995"><ele>457.5</ele><time>2026-05-03T10:23:57.369Z</time></trkpt><trkpt lat="45.846615" lon="9.670135"><ele>468.0</ele><time>2026-05-03T10:23:58.371Z</time></trkpt><trkpt lat="45.8464083" lon="9.6703183"><ele>503.0</ele><time>2026-05-03T10:23:59.369Z</time></trkpt><trkpt lat="45.8461917" lon="9.6705183"><ele>538.0</ele><time>2026-05-03T10:24:00.37Z</time></trkpt><trkpt lat="45.845985" lon="9.670705"><ele>531.0</ele><time>2026-05-03T10:24:01.371Z</time></trkpt><trkpt lat="45.8457783" lon="9.6708917"><ele>524.0</ele><time>2026-05-03T10:24:02.372Z</time></trkpt><trkpt lat="45.8455717" lon="9.6710767"><ele>528.5</ele><time>2026-05-03T10:24:03.371Z</time></trkpt><trkpt lat="45.8453667" lon="9.6712633"><ele>533.0</ele><time>2026-05-03T10:24:04.37Z</time></trkpt><trkpt lat="45.8451583" lon="9.67145"><ele>352.0</ele><time>2026-05-03T10:24:05.371Z</time></trkpt><trkpt lat="45.826406" lon="9.6743472"><ele>344.0</ele><time>2026-05-03T10:25:41.069Z</time></trkpt><trkpt lat="45.8257433" lon="9.6742367"><ele>344.0</ele><time>2026-05-03T10:25:49.37Z</time></trkpt><trkpt lat="45.825525" lon="9.67418"><ele>344.0</ele><time>2026-05-03T10:25:50.37Z</time></trkpt><trkpt lat="45.825305" lon="9.67413"><ele>344.0</ele><time>2026-05-03T10:25:51.372Z</time></trkpt><trkpt lat="45.8250883" lon="9.6740833"><ele>342.0</ele><time>2026-05-03T10:25:52.372Z</time></trkpt><trkpt lat="45.82488" lon="9.6740383"><ele>340.0</ele><time>2026-05-03T10:25:53.372Z</time></trkpt><trkpt lat="45.8246783" lon="9.6739967"><ele>338.0</ele><time>2026-05-03T10:25:54.372Z</time></trkpt><trkpt lat="45.82449" lon="9.6739633"><ele>338.33333333333337</ele><time>2026-05-03T10:25:55.371Z</time></trkpt><trkpt lat="45.824305" lon="9.67392"><ele>338.6666666666667</ele><time>2026-05-03T10:25:56.371Z</time></trkpt><trkpt lat="45.8241283" lon="9.6738783"><ele>339.0</ele><time>2026-05-03T10:25:57.369Z</time></trkpt><trkpt lat="45.8239733" lon="9.6738467"><ele>339.0</ele><time>2026-05-03T10:25:58.371Z</time></trkpt><trkpt lat="45.82385" lon="9.6738217"><ele>339.0</ele><time>2026-05-03T10:25:59.37Z</time></trkpt><trkpt lat="45.8237517" lon="9.6737933"><ele>339.0</ele><time>2026-05-03T10:26:00.371Z</time></trkpt><trkpt lat="45.8236683" lon="9.6737533"><ele>339.0</ele><time>2026-05-03T10:26:01.369Z</time></trkpt><trkpt lat="45.8235967" lon="9.6737033"><ele>339.0</ele><time>2026-05-03T10:26:02.37Z</time></trkpt><trkpt lat="45.823525" lon="9.6736633"><ele>338.75</ele><time>2026-05-03T10:26:03.375Z</time></trkpt><trkpt lat="45.8234333" lon="9.67364"><ele>338.5</ele><time>2026-05-03T10:26:04.37Z</time></trkpt><trkpt lat="45.8233" lon="9.67364"><ele>338.25</ele><time>2026-05-03T10:26:05.369Z</time></trkpt><trkpt lat="45.82314" lon="9.673645"><ele>338.0</ele><time>2026-05-03T10:26:06.371Z</time></trkpt><trkpt lat="45.822935" lon="9.6736367"><ele>338.0</ele><time>2026-05-03T10:26:07.37Z</time></trkpt><trkpt lat="45.8226783" lon="9.6736217"><ele>338.0</ele><time>2026-05-03T10:26:08.372Z</time></trkpt><trkpt lat="45.82241" lon="9.6736017"><ele>341.0</ele><time>2026-05-03T10:26:09.371Z</time></trkpt><trkpt lat="45.82214" lon="9.6735733"><ele>344.0</ele><time>2026-05-03T10:26:10.371Z</time></trkpt><trkpt lat="45.82188" lon="9.6735483"><ele>345.5</ele><time>2026-05-03T10:26:11.369Z</time></trkpt><trkpt lat="45.821625" lon="9.6735333"><ele>347.0</ele><time>2026-05-03T10:26:12.371Z</time></trkpt><trkpt lat="45.8213617" lon="9.6735317"><ele>347.0</ele><time>2026-05-03T10:26:13.37Z</time></trkpt><trkpt lat="45.8211133" lon="9.67352"><ele>347.0</ele><time>2026-05-03T10:26:14.371Z</time></trkpt><trkpt lat="45.8208717" lon="9.6735067"><ele>346.0</ele><time>2026-05-03T10:26:15.37Z</time></trkpt><trkpt lat="45.82063" lon="9.6734883"><ele>345.0</ele><time>2026-05-03T10:26:16.372Z</time></trkpt><trkpt lat="45.8203883" lon="9.67348"><ele>347.0</ele><time>2026-05-03T10:26:17.37Z</time></trkpt><trkpt lat="45.8201483" lon="9.6734717"><ele>349.0</ele><time>2026-05-03T10:26:18.369Z</time></trkpt><trkpt lat="45.8199117" lon="9.6734633"><ele>349.0</ele><time>2026-05-03T10:26:19.372Z</time></trkpt><trkpt lat="45.819685" lon="9.6734583"><ele>349.0</ele><time>2026-05-03T10:26:20.372Z</time></trkpt><trkpt lat="45.819465" lon="9.6734383"><ele>349.0</ele><time>2026-05-03T10:26:21.37Z</time></trkpt><trkpt lat="45.81925" lon="9.6733967"><ele>348.0</ele><time>2026-05-03T10:26:22.37Z</time></trkpt><trkpt lat="45.81904" lon="9.673325"><ele>347.0</ele><time>2026-05-03T10:26:23.373Z</time></trkpt><trkpt lat="45.8188283" lon="9.6732233"><ele>346.0</ele><time>2026-05-03T10:26:24.372Z</time></trkpt><trkpt lat="45.818605" lon="9.6731133"><ele>342.5</ele><time>2026-05-03T10:26:25.369Z</time></trkpt><trkpt lat="45.8183733" lon="9.673005"><ele>339.0</ele><time>2026-05-03T10:26:26.37Z</time></trkpt><trkpt lat="45.8181467" lon="9.67291"><ele>339.0</ele><time>2026-05-03T10:26:27.37Z</time></trkpt><trkpt lat="45.8179267" lon="9.6728483"><ele>339.0</ele><time>2026-05-03T10:26:28.37Z</time></trkpt><trkpt lat="45.8177133" lon="9.6728217"><ele>339.0</ele><time>2026-05-03T10:26:29.371Z</time></trkpt><trkpt lat="45.81751" lon="9.6728333"><ele>337.6666666666667</ele><time>2026-05-03T10:26:30.37Z</time></trkpt><trkpt lat="45.8173183" lon="9.6728617"><ele>336.33333333333337</ele><time>2026-05-03T10:26:31.37Z</time></trkpt><trkpt lat="45.817135" lon="9.6728767"><ele>335.0</ele><time>2026-05-03T10:26:32.371Z</time></trkpt><trkpt lat="45.8169567" lon="9.67287"><ele>334.6666666666667</ele><time>2026-05-03T10:26:33.37Z</time></trkpt><trkpt lat="45.8167767" lon="9.67287"><ele>334.3333333333333</ele><time>2026-05-03T10:26:34.37Z</time></trkpt><trkpt lat="45.8166" lon="9.6728117"><ele>334.0</ele><time>2026-05-03T10:26:35.372Z</time></trkpt><trkpt lat="45.8164167" lon="9.6727267"><ele>342.3333333333333</ele><time>2026-05-03T10:26:36.37Z</time></trkpt><trkpt lat="45.8162417" lon="9.6726883"><ele>350.6666666666667</ele><time>2026-05-03T10:26:37.37Z</time></trkpt><trkpt lat="45.816065" lon="9.6726067"><ele>359.0</ele><time>2026-05-03T10:26:38.371Z</time></trkpt><trkpt lat="45.8158883" lon="9.6725233"><ele>359.0</ele><time>2026-05-03T10:26:39.371Z</time></trkpt><trkpt lat="45.81572" lon="9.6725283"><ele>359.0</ele><time>2026-05-03T10:26:40.372Z</time></trkpt><trkpt lat="45.815565" lon="9.6725683"><ele>359.0</ele><time>2026-05-03T10:26:41.371Z</time></trkpt><trkpt lat="45.8154233" lon="9.6726567"><ele>352.33333333333337</ele><time>2026-05-03T10:26:42.372Z</time></trkpt><trkpt lat="45.8152583" lon="9.6727817"><ele>345.6666666666667</ele><time>2026-05-03T10:26:43.37Z</time></trkpt><trkpt lat="45.8150783" lon="9.6728833"><ele>339.0</ele><time>2026-05-03T10:26:44.371Z</time></trkpt><trkpt lat="45.8148867" lon="9.6730267"><ele>339.0</ele><time>2026-05-03T10:26:45.369Z</time></trkpt><trkpt lat="45.81468" lon="9.6732283"><ele>339.0</ele><time>2026-05-03T10:26:46.37Z</time></trkpt><trkpt lat="45.8144767" lon="9.6734083"><ele>337.0</ele><time>2026-05-03T10:26:47.37Z</time></trkpt><trkpt lat="45.8142867" lon="9.6735717"><ele>335.0</ele><time>2026-05-03T10:26:48.369Z</time></trkpt><trkpt lat="45.8141" lon="9.6736983"><ele>333.0</ele><time>2026-05-03T10:26:49.369Z</time></trkpt><trkpt lat="45.8139017" lon="9.6738083"><ele>333.0</ele><time>2026-05-03T10:26:50.371Z</time></trkpt><trkpt lat="45.8136883" lon="9.67389"><ele>333.0</ele><time>2026-05-03T10:26:51.369Z</time></trkpt><trkpt lat="45.8134783" lon="9.67395"><ele>333.0</ele><time>2026-05-03T10:26:52.372Z</time></trkpt><trkpt lat="45.81329" lon="9.6740083"><ele>336.6666666666667</ele><time>2026-05-03T10:26:53.376Z</time></trkpt><trkpt lat="45.8131217" lon="9.6740767"><ele>340.33333333333337</ele><time>2026-05-03T10:26:54.373Z</time></trkpt><trkpt lat="45.8129767" lon="9.6741517"><ele>344.0</ele><time>2026-05-03T10:26:55.373Z</time></trkpt><trkpt lat="45.812855" lon="9.67422"><ele>344.0</ele><time>2026-05-03T10:26:56.373Z</time></trkpt><trkpt lat="45.812745" lon="9.6742767"><ele>344.0</ele><time>2026-05-03T10:26:57.372Z</time></trkpt><trkpt lat="45.812645" lon="9.6742983"><ele>344.0</ele><time>2026-05-03T10:26:58.373Z</time></trkpt><trkpt lat="45.812545" lon="9.67428"><ele>344.0</ele><time>2026-05-03T10:26:59.372Z</time></trkpt><trkpt lat="45.8124583" lon="9.674235"><ele>344.0</ele><time>2026-05-03T10:27:00.373Z</time></trkpt><trkpt lat="45.8123683" lon="9.67421"><ele>346.0</ele><time>2026-05-03T10:27:01.372Z</time></trkpt><trkpt lat="45.8122767" lon="9.6742517"><ele>348.0</ele><time>2026-05-03T10:27:02.373Z</time></trkpt><trkpt lat="45.8121817" lon="9.67433"><ele>350.0</ele><time>2026-05-03T10:27:03.373Z</time></trkpt><trkpt lat="45.81207" lon="9.67442"><ele>352.0</ele><time>2026-05-03T10:27:04.369Z</time></trkpt><trkpt lat="45.811925" lon="9.6744933"><ele>350.0</ele><time>2026-05-03T10:27:05.369Z</time></trkpt><trkpt lat="45.8117333" lon="9.6745517"><ele>348.0</ele><time>2026-05-03T10:27:06.37Z</time></trkpt><trkpt lat="45.811525" lon="9.6746233"><ele>346.0</ele><time>2026-05-03T10:27:07.37Z</time></trkpt><trkpt lat="45.8112967" lon="9.6747283"><ele>346.0</ele><time>2026-05-03T10:27:08.371Z</time></trkpt><trkpt lat="45.8110583" lon="9.674855"><ele>346.0</ele><time>2026-05-03T10:27:09.372Z</time></trkpt><trkpt lat="45.810825" lon="9.6750133"><ele>344.5</ele><time>2026-05-03T10:27:10.373Z</time></trkpt><trkpt lat="45.810595" lon="9.6751767"><ele>343.0</ele><time>2026-05-03T10:27:11.372Z</time></trkpt><trkpt lat="45.8103667" lon="9.67537"><ele>355.5</ele><time>2026-05-03T10:27:12.373Z</time></trkpt><trkpt lat="45.8101367" lon="9.6755983"><ele>368.0</ele><time>2026-05-03T10:27:13.373Z</time></trkpt><trkpt lat="45.8099083" lon="9.6758433"><ele>368.0</ele><time>2026-05-03T10:27:14.373Z</time></trkpt><trkpt lat="45.8096967" lon="9.6760817"><ele>368.0</ele><time>2026-05-03T10:27:15.372Z</time></trkpt><trkpt lat="45.8095067" lon="9.67629"><ele>370.33333333333337</ele><time>2026-05-03T10:27:16.372Z</time></trkpt><trkpt lat="45.8093283" lon="9.6764683"><ele>372.6666666666667</ele><time>2026-05-03T10:27:17.373Z</time></trkpt><trkpt lat="45.8091567" lon="9.6766117"><ele>375.0</ele><time>2026-05-03T10:27:18.369Z</time></trkpt><trkpt lat="45.808985" lon="9.6767317"><ele>375.0</ele><time>2026-05-03T10:27:19.371Z</time></trkpt><trkpt lat="45.8088083" lon="9.6768133"><ele>375.0</ele><time>2026-05-03T10:27:20.371Z</time></trkpt><trkpt lat="45.808625" lon="9.6768717"><ele>375.0</ele><time>2026-05-03T10:27:21.369Z</time></trkpt><trkpt lat="45.80843" lon="9.676895"><ele>381.33333333333337</ele><time>2026-05-03T10:27:22.369Z</time></trkpt><trkpt lat="45.8082217" lon="9.6768783"><ele>387.6666666666667</ele><time>2026-05-03T10:27:23.37Z</time></trkpt><trkpt lat="45.808" lon="9.676795"><ele>394.0</ele><time>2026-05-03T10:27:24.369Z</time></trkpt><trkpt lat="45.8077783" lon="9.676665"><ele>385.5</ele><time>2026-05-03T10:27:25.374Z</time></trkpt><trkpt lat="45.8075667" lon="9.6764817"><ele>377.0</ele><time>2026-05-03T10:27:26.374Z</time></trkpt><trkpt lat="45.807375" lon="9.6762717"><ele>392.0</ele><time>2026-05-03T10:27:27.37Z</time></trkpt><trkpt lat="45.8072117" lon="9.6760367"><ele>407.0</ele><time>2026-05-03T10:27:28.371Z</time></trkpt><trkpt lat="45.80707" lon="9.6757633"><ele>407.0</ele><time>2026-05-03T10:27:29.373Z</time></trkpt><trkpt lat="45.8069483" lon="9.6754467"><ele>407.0</ele><time>2026-05-03T10:27:30.372Z</time></trkpt><trkpt lat="45.80685" lon="9.6751133"><ele>397.0</ele><time>2026-05-03T10:27:31.372Z</time></trkpt><trkpt lat="45.8067783" lon="9.6747817"><ele>387.0</ele><time>2026-05-03T10:27:32.374Z</time></trkpt><trkpt lat="45.8067133" lon="9.6744533"><ele>392.0</ele><time>2026-05-03T10:27:33.37Z</time></trkpt><trkpt lat="45.806655" lon="9.67413"><ele>397.0</ele><time>2026-05-03T10:27:34.373Z</time></trkpt><trkpt lat="45.8065967" lon="9.6738317"><ele>402.0</ele><time>2026-05-03T10:27:35.372Z</time></trkpt><trkpt lat="45.8065367" lon="9.67353"><ele>409.5</ele><time>2026-05-03T10:27:36.374Z</time></trkpt><trkpt lat="45.8064667" lon="9.6732033"><ele>417.0</ele><time>2026-05-03T10:27:37.376Z</time></trkpt><trkpt lat="45.806385" lon="9.6728533"><ele>426.5</ele><time>2026-05-03T10:27:38.374Z</time></trkpt><trkpt lat="45.8062917" lon="9.672495"><ele>436.0</ele><time>2026-05-03T10:27:39.372Z</time></trkpt><trkpt lat="45.806185" lon="9.6721533"><ele>446.5</ele><time>2026-05-03T10:27:40.372Z</time></trkpt><trkpt lat="45.8060717" lon="9.6718167"><ele>457.0</ele><time>2026-05-03T10:27:41.373Z</time></trkpt><trkpt lat="45.8059567" lon="9.6714867"><ele>451.5</ele><time>2026-05-03T10:27:42.375Z</time></trkpt><trkpt lat="45.8058383" lon="9.671155"><ele>446.0</ele><time>2026-05-03T10:27:43.369Z</time></trkpt><trkpt lat="45.8057167" lon="9.6708233"><ele>446.0</ele><time>2026-05-03T10:27:44.371Z</time></trkpt><trkpt lat="45.8055983" lon="9.6704917"><ele>446.0</ele><time>2026-05-03T10:27:45.371Z</time></trkpt><trkpt lat="45.8054767" lon="9.6701583"><ele>465.0</ele><time>2026-05-03T10:27:46.372Z</time></trkpt><trkpt lat="45.8053567" lon="9.669825"><ele>484.0</ele><time>2026-05-03T10:27:47.371Z</time></trkpt><trkpt lat="45.805235" lon="9.66949"><ele>481.0</ele><time>2026-05-03T10:27:48.37Z</time></trkpt><trkpt lat="45.8051167" lon="9.669155"><ele>478.0</ele><time>2026-05-03T10:27:49.371Z</time></trkpt><trkpt lat="45.804985" lon="9.6687917"><ele>496.5</ele><time>2026-05-03T10:27:50.372Z</time></trkpt><trkpt lat="45.8048483" lon="9.66841"><ele>515.0</ele><time>2026-05-03T10:27:51.373Z</time></trkpt><trkpt lat="45.8047283" lon="9.6680517"><ele>529.0</ele><time>2026-05-03T10:27:52.37Z</time></trkpt><trkpt lat="45.8046133" lon="9.6676883"><ele>543.0</ele><time>2026-05-03T10:27:53.37Z</time></trkpt><trkpt lat="45.8045" lon="9.6673183"><ele>548.5</ele><time>2026-05-03T10:27:54.372Z</time></trkpt><trkpt lat="45.8043967" lon="9.6669433"><ele>554.0</ele><time>2026-05-03T10:27:55.372Z</time></trkpt><trkpt lat="45.79396" lon="9.647265"><ele>450.0</ele><time>2026-05-03T10:29:03.641Z</time></trkpt><trkpt lat="45.794005" lon="9.646885"><ele>346.0</ele><time>2026-05-03T10:29:04.641Z</time></trkpt><trkpt lat="45.7940283" lon="9.6462217"><ele>340.5</ele><time>2026-05-03T10:29:06.37Z</time></trkpt><trkpt lat="45.7940467" lon="9.6458317"><ele>335.0</ele><time>2026-05-03T10:29:07.37Z</time></trkpt><trkpt lat="45.7940783" lon="9.645435"><ele>335.0</ele><time>2026-05-03T10:29:08.368Z</time></trkpt><trkpt lat="45.7941217" lon="9.6450333"><ele>335.0</ele><time>2026-05-03T10:29:09.37Z</time></trkpt><trkpt lat="45.7941533" lon="9.644645"><ele>340.5</ele><time>2026-05-03T10:29:10.369Z</time></trkpt><trkpt lat="45.7941633" lon="9.6442683"><ele>346.0</ele><time>2026-05-03T10:29:11.37Z</time></trkpt><trkpt lat="45.7941433" lon="9.6438933"><ele>359.5</ele><time>2026-05-03T10:29:12.369Z</time></trkpt><trkpt lat="45.7941083" lon="9.643525"><ele>373.0</ele><time>2026-05-03T10:29:13.37Z</time></trkpt><trkpt lat="45.7940767" lon="9.643165"><ele>373.0</ele><time>2026-05-03T10:29:14.37Z</time></trkpt><trkpt lat="45.7940483" lon="9.6428067"><ele>373.0</ele><time>2026-05-03T10:29:15.37Z</time></trkpt><trkpt lat="45.7940217" lon="9.64245"><ele>294.0</ele><time>2026-05-03T10:29:16.369Z</time></trkpt><trkpt lat="45.7891429" lon="9.6392006"><ele>305.0</ele><time>2026-05-03T10:29:35.797Z</time></trkpt><trkpt lat="45.7896517" lon="9.63884"><ele>305.0</ele><time>2026-05-03T10:29:37.371Z</time></trkpt><trkpt lat="45.7895933" lon="9.6387417"><ele>305.0</ele><time>2026-05-03T10:29:38.371Z</time></trkpt><trkpt lat="45.789535" lon="9.6386467"><ele>305.0</ele><time>2026-05-03T10:29:39.37Z</time></trkpt><trkpt lat="45.7894717" lon="9.6385567"><ele>305.0</ele><time>2026-05-03T10:29:40.373Z</time></trkpt><trkpt lat="45.7894033" lon="9.6384683"><ele>305.0</ele><time>2026-05-03T10:29:41.371Z</time></trkpt><trkpt lat="45.78933" lon="9.63835"><ele>303.4</ele><time>2026-05-03T10:29:42.373Z</time></trkpt><trkpt lat="45.7892733" lon="9.638215"><ele>301.8</ele><time>2026-05-03T10:29:43.37Z</time></trkpt><trkpt lat="45.789225" lon="9.6380783"><ele>300.2</ele><time>2026-05-03T10:29:44.368Z</time></trkpt><trkpt lat="45.7891833" lon="9.6379467"><ele>298.6</ele><time>2026-05-03T10:29:45.369Z</time></trkpt><trkpt lat="45.789135" lon="9.6378367"><ele>297.0</ele><time>2026-05-03T10:29:46.371Z</time></trkpt><trkpt lat="45.7890917" lon="9.6377367"><ele>297.0</ele><time>2026-05-03T10:29:47.369Z</time></trkpt><trkpt lat="45.7890433" lon="9.637645"><ele>297.0</ele><time>2026-05-03T10:29:48.37Z</time></trkpt><trkpt lat="45.7889933" lon="9.6375533"><ele>297.0</ele><time>2026-05-03T10:29:49.37Z</time></trkpt><trkpt lat="45.7889417" lon="9.6374617"><ele>297.0</ele><time>2026-05-03T10:29:50.37Z</time></trkpt><trkpt lat="45.7888967" lon="9.6373567"><ele>297.0</ele><time>2026-05-03T10:29:51.37Z</time></trkpt><trkpt lat="45.78884" lon="9.6372567"><ele>297.0</ele><time>2026-05-03T10:29:52.372Z</time></trkpt><trkpt lat="45.7887817" lon="9.6371467"><ele>297.0</ele><time>2026-05-03T10:29:53.369Z</time></trkpt><trkpt lat="45.7887233" lon="9.6370283"><ele>297.0</ele><time>2026-05-03T10:29:54.37Z</time></trkpt><trkpt lat="45.7886567" lon="9.636915"><ele>297.0</ele><time>2026-05-03T10:29:55.37Z</time></trkpt><trkpt lat="45.7885883" lon="9.636805"><ele>297.0</ele><time>2026-05-03T10:29:56.371Z</time></trkpt><trkpt lat="45.78853" lon="9.6366967"><ele>297.0</ele><time>2026-05-03T10:29:57.37Z</time></trkpt><trkpt lat="45.7884733" lon="9.6365917"><ele>297.2</ele><time>2026-05-03T10:29:58.369Z</time></trkpt><trkpt lat="45.78841" lon="9.6364883"><ele>297.4</ele><time>2026-05-03T10:29:59.37Z</time></trkpt><trkpt lat="45.78835" lon="9.6363817"><ele>297.6</ele><time>2026-05-03T10:30:00.369Z</time></trkpt><trkpt lat="45.78829" lon="9.6362617"><ele>297.8</ele><time>2026-05-03T10:30:01.371Z</time></trkpt><trkpt lat="45.7882233" lon="9.6361467"><ele>298.0</ele><time>2026-05-03T10:30:02.371Z</time></trkpt><trkpt lat="45.7881633" lon="9.6360383"><ele>301.8</ele><time>2026-05-03T10:30:03.371Z</time></trkpt><trkpt lat="45.7881367" lon="9.63588"><ele>305.6</ele><time>2026-05-03T10:30:04.371Z</time></trkpt><trkpt lat="45.7881467" lon="9.6357383"><ele>309.4</ele><time>2026-05-03T10:30:05.37Z</time></trkpt><trkpt lat="45.78814" lon="9.6355767"><ele>313.2</ele><time>2026-05-03T10:30:06.372Z</time></trkpt><trkpt lat="45.7881233" lon="9.63543"><ele>317.0</ele><time>2026-05-03T10:30:07.37Z</time></trkpt><trkpt lat="45.7880883" lon="9.6352667"><ele>325.0</ele><time>2026-05-03T10:30:08.37Z</time></trkpt><trkpt lat="45.788045" lon="9.6350683"><ele>333.0</ele><time>2026-05-03T10:30:09.371Z</time></trkpt><trkpt lat="45.7880033" lon="9.6348717"><ele>341.0</ele><time>2026-05-03T10:30:10.371Z</time></trkpt><trkpt lat="45.7879667" lon="9.6346783"><ele>349.0</ele><time>2026-05-03T10:30:11.37Z</time></trkpt><trkpt lat="45.7879217" lon="9.634475"><ele>353.3333333333333</ele><time>2026-05-03T10:30:12.371Z</time></trkpt><trkpt lat="45.7878683" lon="9.6342533"><ele>357.6666666666667</ele><time>2026-05-03T10:30:13.37Z</time></trkpt><trkpt lat="45.7878083" lon="9.6340217"><ele>362.0</ele><time>2026-05-03T10:30:14.37Z</time></trkpt><trkpt lat="45.787755" lon="9.63376"><ele>368.0</ele><time>2026-05-03T10:30:15.372Z</time></trkpt><trkpt lat="45.7877067" lon="9.63345"><ele>374.0</ele><time>2026-05-03T10:30:16.373Z</time></trkpt><trkpt lat="45.7876633" lon="9.6331067"><ele>350.0</ele><time>2026-05-03T10:30:17.372Z</time></trkpt><trkpt lat="45.78762" lon="9.63279"><ele>326.0</ele><time>2026-05-03T10:30:18.373Z</time></trkpt><trkpt lat="45.7875733" lon="9.6324733"><ele>326.0</ele><time>2026-05-03T10:30:19.372Z</time></trkpt><trkpt lat="45.7875217" lon="9.6321417"><ele>326.0</ele><time>2026-05-03T10:30:20.371Z</time></trkpt><trkpt lat="45.7874733" lon="9.6318083"><ele>323.0</ele><time>2026-05-03T10:30:21.372Z</time></trkpt><trkpt lat="45.787425" lon="9.631485"><ele>320.0</ele><time>2026-05-03T10:30:22.375Z</time></trkpt><trkpt lat="45.787355" lon="9.631175"><ele>323.0</ele><time>2026-05-03T10:30:23.373Z</time></trkpt><trkpt lat="45.7872617" lon="9.63087"><ele>326.0</ele><time>2026-05-03T10:30:24.373Z</time></trkpt><trkpt lat="45.7871433" lon="9.6305833"><ele>326.0</ele><time>2026-05-03T10:30:25.373Z</time></trkpt><trkpt lat="45.787005" lon="9.630315"><ele>326.0</ele><time>2026-05-03T10:30:26.37Z</time></trkpt><trkpt lat="45.786835" lon="9.630075"><ele>313.0</ele><time>2026-05-03T10:30:27.369Z</time></trkpt><trkpt lat="45.7866267" lon="9.62986"><ele>300.0</ele><time>2026-05-03T10:30:28.369Z</time></trkpt><trkpt lat="45.78639" lon="9.629665"><ele>299.5</ele><time>2026-05-03T10:30:29.369Z</time></trkpt><trkpt lat="45.78615" lon="9.6294733"><ele>299.0</ele><time>2026-05-03T10:30:30.371Z</time></trkpt><trkpt lat="45.7859083" lon="9.6292783"><ele>304.5</ele><time>2026-05-03T10:30:31.369Z</time></trkpt><trkpt lat="45.785675" lon="9.6290783"><ele>310.0</ele><time>2026-05-03T10:30:32.369Z</time></trkpt><trkpt lat="45.7854433" lon="9.628865"><ele>310.0</ele><time>2026-05-03T10:30:33.37Z</time></trkpt><trkpt lat="45.7852183" lon="9.6286317"><ele>310.0</ele><time>2026-05-03T10:30:34.369Z</time></trkpt><trkpt lat="45.7850067" lon="9.62837"><ele>309.5</ele><time>2026-05-03T10:30:35.368Z</time></trkpt><trkpt lat="45.7848117" lon="9.62808"><ele>309.0</ele><time>2026-05-03T10:30:36.37Z</time></trkpt><trkpt lat="45.7846283" lon="9.627775"><ele>311.5</ele><time>2026-05-03T10:30:37.37Z</time></trkpt><trkpt lat="45.78444" lon="9.627465"><ele>314.0</ele><time>2026-05-03T10:30:38.37Z</time></trkpt><trkpt lat="45.78425" lon="9.6271633"><ele>306.0</ele><time>2026-05-03T10:30:39.369Z</time></trkpt><trkpt lat="45.7840583" lon="9.6268667"><ele>298.0</ele><time>2026-05-03T10:30:40.369Z</time></trkpt><trkpt lat="45.7838683" lon="9.6265717"><ele>298.0</ele><time>2026-05-03T10:30:41.371Z</time></trkpt><trkpt lat="45.7836867" lon="9.6262633"><ele>298.0</ele><time>2026-05-03T10:30:42.372Z</time></trkpt><trkpt lat="45.7835167" lon="9.6259367"><ele>297.5</ele><time>2026-05-03T10:30:43.37Z</time></trkpt><trkpt lat="45.78336" lon="9.6255917"><ele>297.0</ele><time>2026-05-03T10:30:44.37Z</time></trkpt><trkpt lat="45.7832133" lon="9.6252367"><ele>297.0</ele><time>2026-05-03T10:30:45.372Z</time></trkpt><trkpt lat="45.7830867" lon="9.624865"><ele>297.0</ele><time>2026-05-03T10:30:46.372Z</time></trkpt><trkpt lat="45.782975" lon="9.6244717"><ele>295.0</ele><time>2026-05-03T10:30:47.373Z</time></trkpt><trkpt lat="45.7828617" lon="9.6240717"><ele>293.0</ele><time>2026-05-03T10:30:48.372Z</time></trkpt><trkpt lat="45.7827417" lon="9.6236733"><ele>302.5</ele><time>2026-05-03T10:30:49.373Z</time></trkpt><trkpt lat="45.7826083" lon="9.6232767"><ele>312.0</ele><time>2026-05-03T10:30:50.373Z</time></trkpt><trkpt lat="45.7824567" lon="9.6228967"><ele>309.5</ele><time>2026-05-03T10:30:51.373Z</time></trkpt><trkpt lat="45.78228" lon="9.6225433"><ele>307.0</ele><time>2026-05-03T10:30:52.373Z</time></trkpt><trkpt lat="45.78209" lon="9.62221"><ele>310.5</ele><time>2026-05-03T10:30:53.373Z</time></trkpt><trkpt lat="45.7818967" lon="9.6219"><ele>314.0</ele><time>2026-05-03T10:30:54.372Z</time></trkpt><trkpt lat="45.7817083" lon="9.6216"><ele>315.0</ele><time>2026-05-03T10:30:55.372Z</time></trkpt><trkpt lat="45.7815383" lon="9.6212933"><ele>316.0</ele><time>2026-05-03T10:30:56.373Z</time></trkpt><trkpt lat="45.7813833" lon="9.6209733"><ele>314.0</ele><time>2026-05-03T10:30:57.372Z</time></trkpt><trkpt lat="45.7812417" lon="9.6206283"><ele>312.0</ele><time>2026-05-03T10:30:58.37Z</time></trkpt><trkpt lat="45.781105" lon="9.620265"><ele>314.0</ele><time>2026-05-03T10:30:59.369Z</time></trkpt><trkpt lat="45.78097" lon="9.6198967"><ele>316.0</ele><time>2026-05-03T10:31:00.369Z</time></trkpt><trkpt lat="45.780835" lon="9.619525"><ele>310.5</ele><time>2026-05-03T10:31:01.369Z</time></trkpt><trkpt lat="45.780695" lon="9.6191533"><ele>305.0</ele><time>2026-05-03T10:31:02.369Z</time></trkpt><trkpt lat="45.7805517" lon="9.6187733"><ele>303.5</ele><time>2026-05-03T10:31:03.369Z</time></trkpt><trkpt lat="45.7804083" lon="9.6183867"><ele>302.0</ele><time>2026-05-03T10:31:04.37Z</time></trkpt><trkpt lat="45.7802633" lon="9.6179933"><ele>311.0</ele><time>2026-05-03T10:31:05.372Z</time></trkpt><trkpt lat="45.7801283" lon="9.6176017"><ele>320.0</ele><time>2026-05-03T10:31:06.371Z</time></trkpt><trkpt lat="45.7799967" lon="9.6172333"><ele>318.5</ele><time>2026-05-03T10:31:07.37Z</time></trkpt><trkpt lat="45.7798933" lon="9.6168783"><ele>317.0</ele><time>2026-05-03T10:31:08.369Z</time></trkpt><trkpt lat="45.7798167" lon="9.6165283"><ele>317.0</ele><time>2026-05-03T10:31:09.369Z</time></trkpt><trkpt lat="45.779765" lon="9.61619"><ele>317.0</ele><time>2026-05-03T10:31:10.37Z</time></trkpt><trkpt lat="45.779735" lon="9.615865"><ele>316.6666666666667</ele><time>2026-05-03T10:31:11.373Z</time></trkpt><trkpt lat="45.7797133" lon="9.615565"><ele>316.3333333333333</ele><time>2026-05-03T10:31:12.369Z</time></trkpt><trkpt lat="45.7796983" lon="9.615295"><ele>316.0</ele><time>2026-05-03T10:31:13.372Z</time></trkpt><trkpt lat="45.7796767" lon="9.615055"><ele>313.25</ele><time>2026-05-03T10:31:14.37Z</time></trkpt><trkpt lat="45.7796467" lon="9.6148367"><ele>310.5</ele><time>2026-05-03T10:31:15.369Z</time></trkpt><trkpt lat="45.7795933" lon="9.6146433"><ele>307.75</ele><time>2026-05-03T10:31:16.37Z</time></trkpt><trkpt lat="45.779525" lon="9.6144733"><ele>305.0</ele><time>2026-05-03T10:31:17.369Z</time></trkpt><trkpt lat="45.7794333" lon="9.61433"><ele>314.0</ele><time>2026-05-03T10:31:18.37Z</time></trkpt><trkpt lat="45.779325" lon="9.614215"><ele>323.0</ele><time>2026-05-03T10:31:19.37Z</time></trkpt><trkpt lat="45.7791883" lon="9.6141317"><ele>332.0</ele><time>2026-05-03T10:31:20.37Z</time></trkpt><trkpt lat="45.7790233" lon="9.6140483"><ele>332.0</ele><time>2026-05-03T10:31:21.369Z</time></trkpt><trkpt lat="45.7788333" lon="9.6139583"><ele>332.0</ele><time>2026-05-03T10:31:22.374Z</time></trkpt><trkpt lat="45.778625" lon="9.6138467"><ele>332.0</ele><time>2026-05-03T10:31:23.372Z</time></trkpt><trkpt lat="45.7784067" lon="9.6137317"><ele>331.0</ele><time>2026-05-03T10:31:24.369Z</time></trkpt><trkpt lat="45.7781717" lon="9.613615"><ele>330.0</ele><time>2026-05-03T10:31:25.372Z</time></trkpt><trkpt lat="45.7779333" lon="9.6134933"><ele>330.0</ele><time>2026-05-03T10:31:26.37Z</time></trkpt><trkpt lat="45.77769" lon="9.6133833"><ele>330.0</ele><time>2026-05-03T10:31:27.371Z</time></trkpt><trkpt lat="45.7774617" lon="9.61327"><ele>332.3333333333333</ele><time>2026-05-03T10:31:28.37Z</time></trkpt><trkpt lat="45.7772583" lon="9.61317"><ele>334.66666666666663</ele><time>2026-05-03T10:31:29.37Z</time></trkpt><trkpt lat="45.7770817" lon="9.6130817"><ele>337.0</ele><time>2026-05-03T10:31:30.37Z</time></trkpt><trkpt lat="45.7769233" lon="9.61302"><ele>337.3333333333333</ele><time>2026-05-03T10:31:31.371Z</time></trkpt><trkpt lat="45.7767783" lon="9.6130017"><ele>337.6666666666667</ele><time>2026-05-03T10:31:32.37Z</time></trkpt><trkpt lat="45.7766167" lon="9.6130233"><ele>338.0</ele><time>2026-05-03T10:31:33.37Z</time></trkpt><trkpt lat="45.7764267" lon="9.6130717"><ele>338.0</ele><time>2026-05-03T10:31:34.37Z</time></trkpt><trkpt lat="45.776225" lon="9.6131383"><ele>338.0</ele><time>2026-05-03T10:31:35.37Z</time></trkpt><trkpt lat="45.776025" lon="9.6132267"><ele>338.0</ele><time>2026-05-03T10:31:36.371Z</time></trkpt><trkpt lat="45.775845" lon="9.6133367"><ele>335.0</ele><time>2026-05-03T10:31:37.371Z</time></trkpt><trkpt lat="45.77569" lon="9.613475"><ele>332.0</ele><time>2026-05-03T10:31:38.369Z</time></trkpt><trkpt lat="45.7755433" lon="9.613655"><ele>329.0</ele><time>2026-05-03T10:31:39.37Z</time></trkpt><trkpt lat="45.7753917" lon="9.6138567"><ele>324.5</ele><time>2026-05-03T10:31:40.369Z</time></trkpt><trkpt lat="45.7752267" lon="9.6140733"><ele>320.0</ele><time>2026-05-03T10:31:41.373Z</time></trkpt><trkpt lat="45.7750533" lon="9.6142883"><ele>334.0</ele><time>2026-05-03T10:31:42.369Z</time></trkpt><trkpt lat="45.774885" lon="9.61449"><ele>348.0</ele><time>2026-05-03T10:31:43.369Z</time></trkpt><trkpt lat="45.7746967" lon="9.6146517"><ele>362.0</ele><time>2026-05-03T10:31:44.372Z</time></trkpt><trkpt lat="45.7744967" lon="9.614775"><ele>355.0</ele><time>2026-05-03T10:31:45.371Z</time></trkpt><trkpt lat="45.7742883" lon="9.6148683"><ele>348.0</ele><time>2026-05-03T10:31:46.369Z</time></trkpt><trkpt lat="45.7740767" lon="9.6149367"><ele>341.0</ele><time>2026-05-03T10:31:47.372Z</time></trkpt><trkpt lat="45.7738633" lon="9.61498"><ele>341.0</ele><time>2026-05-03T10:31:48.373Z</time></trkpt><trkpt lat="45.77365" lon="9.61502"><ele>341.0</ele><time>2026-05-03T10:31:49.372Z</time></trkpt><trkpt lat="45.77345" lon="9.615045"><ele>341.0</ele><time>2026-05-03T10:31:50.372Z</time></trkpt><trkpt lat="45.773265" lon="9.61505"><ele>341.6666666666667</ele><time>2026-05-03T10:31:51.373Z</time></trkpt><trkpt lat="45.7731" lon="9.6150367"><ele>342.3333333333333</ele><time>2026-05-03T10:31:52.372Z</time></trkpt><trkpt lat="45.772945" lon="9.6150067"><ele>343.0</ele><time>2026-05-03T10:31:53.37Z</time></trkpt><trkpt lat="45.7727967" lon="9.61493"><ele>361.3333333333333</ele><time>2026-05-03T10:31:54.371Z</time></trkpt><trkpt lat="45.772645" lon="9.6148317"><ele>379.66666666666663</ele><time>2026-05-03T10:31:55.369Z</time></trkpt><trkpt lat="45.7724633" lon="9.6146833"><ele>398.0</ele><time>2026-05-03T10:31:56.37Z</time></trkpt><trkpt lat="45.7722667" lon="9.6145217"><ele>378.0</ele><time>2026-05-03T10:31:57.371Z</time></trkpt><trkpt lat="45.7720733" lon="9.614365"><ele>358.0</ele><time>2026-05-03T10:31:58.37Z</time></trkpt><trkpt lat="45.7718833" lon="9.61421"><ele>338.0</ele><time>2026-05-03T10:31:59.37Z</time></trkpt><trkpt lat="45.7716933" lon="9.6140767"><ele>338.0</ele><time>2026-05-03T10:32:00.37Z</time></trkpt><trkpt lat="45.7715017" lon="9.6139483"><ele>338.0</ele><time>2026-05-03T10:32:01.37Z</time></trkpt><trkpt lat="45.7713233" lon="9.61383"><ele>338.0</ele><time>2026-05-03T10:32:02.371Z</time></trkpt><trkpt lat="45.771155" lon="9.6136967"><ele>331.0</ele><time>2026-05-03T10:32:03.37Z</time></trkpt><trkpt lat="45.7710083" lon="9.6135683"><ele>324.0</ele><time>2026-05-03T10:32:04.37Z</time></trkpt><trkpt lat="45.7708917" lon="9.6134117"><ele>317.0</ele><time>2026-05-03T10:32:05.369Z</time></trkpt><trkpt lat="45.7708067" lon="9.6132267"><ele>317.0</ele><time>2026-05-03T10:32:06.37Z</time></trkpt><trkpt lat="45.770725" lon="9.61303"><ele>317.0</ele><time>2026-05-03T10:32:07.371Z</time></trkpt><trkpt lat="45.7706483" lon="9.6128367"><ele>317.0</ele><time>2026-05-03T10:32:08.37Z</time></trkpt><trkpt lat="45.7705717" lon="9.6126433"><ele>312.6666666666667</ele><time>2026-05-03T10:32:09.371Z</time></trkpt><trkpt lat="45.7704833" lon="9.6124233"><ele>308.3333333333333</ele><time>2026-05-03T10:32:10.37Z</time></trkpt><trkpt lat="45.7703867" lon="9.6121717"><ele>304.0</ele><time>2026-05-03T10:32:11.37Z</time></trkpt><trkpt lat="45.7702867" lon="9.6119067"><ele>313.66666666666663</ele><time>2026-05-03T10:32:12.371Z</time></trkpt><trkpt lat="45.77019" lon="9.6116367"><ele>323.3333333333333</ele><time>2026-05-03T10:32:13.37Z</time></trkpt><trkpt lat="45.7701033" lon="9.6113867"><ele>333.0</ele><time>2026-05-03T10:32:14.37Z</time></trkpt><trkpt lat="45.76999" lon="9.6111767"><ele>326.6666666666667</ele><time>2026-05-03T10:32:15.372Z</time></trkpt><trkpt lat="45.7698533" lon="9.611035"><ele>320.33333333333337</ele><time>2026-05-03T10:32:16.369Z</time></trkpt><trkpt lat="45.7697017" lon="9.6109567"><ele>314.0</ele><time>2026-05-03T10:32:17.37Z</time></trkpt><trkpt lat="45.76953" lon="9.6109333"><ele>316.0</ele><time>2026-05-03T10:32:18.371Z</time></trkpt><trkpt lat="45.769335" lon="9.6109183"><ele>318.0</ele><time>2026-05-03T10:32:19.37Z</time></trkpt><trkpt lat="45.7691133" lon="9.6109133"><ele>320.0</ele><time>2026-05-03T10:32:20.371Z</time></trkpt><trkpt lat="45.7688767" lon="9.6108933"><ele>320.0</ele><time>2026-05-03T10:32:21.37Z</time></trkpt><trkpt lat="45.768635" lon="9.610865"><ele>320.0</ele><time>2026-05-03T10:32:22.373Z</time></trkpt><trkpt lat="45.76839" lon="9.6108567"><ele>319.5</ele><time>2026-05-03T10:32:23.373Z</time></trkpt><trkpt lat="45.7681417" lon="9.6108833"><ele>319.0</ele><time>2026-05-03T10:32:24.372Z</time></trkpt><trkpt lat="45.7678933" lon="9.6109383"><ele>309.0</ele><time>2026-05-03T10:32:25.372Z</time></trkpt><trkpt lat="45.767645" lon="9.6110017"><ele>299.0</ele><time>2026-05-03T10:32:26.372Z</time></trkpt><trkpt lat="45.7673883" lon="9.6110617"><ele>299.0</ele><time>2026-05-03T10:32:27.372Z</time></trkpt><trkpt lat="45.7671267" lon="9.6111233"><ele>299.0</ele><time>2026-05-03T10:32:28.37Z</time></trkpt><trkpt lat="45.7668617" lon="9.61118"><ele>298.5</ele><time>2026-05-03T10:32:29.37Z</time></trkpt><trkpt lat="45.7666133" lon="9.6112233"><ele>298.0</ele><time>2026-05-03T10:32:30.371Z</time></trkpt><trkpt lat="45.7663967" lon="9.6112683"><ele>298.0</ele><time>2026-05-03T10:32:31.371Z</time></trkpt><trkpt lat="45.766205" lon="9.611305"><ele>298.0</ele><time>2026-05-03T10:32:32.37Z</time></trkpt><trkpt lat="45.76603" lon="9.6113267"><ele>298.0</ele><time>2026-05-03T10:32:33.371Z</time></trkpt><trkpt lat="45.76586" lon="9.61133"><ele>300.66666666666663</ele><time>2026-05-03T10:32:34.37Z</time></trkpt><trkpt lat="45.765705" lon="9.6113067"><ele>303.3333333333333</ele><time>2026-05-03T10:32:35.371Z</time></trkpt><trkpt lat="45.7655617" lon="9.6112467"><ele>306.0</ele><time>2026-05-03T10:32:36.371Z</time></trkpt><trkpt lat="45.7654233" lon="9.6111517"><ele>306.0</ele><time>2026-05-03T10:32:37.37Z</time></trkpt><trkpt lat="45.7652933" lon="9.610995"><ele>306.0</ele><time>2026-05-03T10:32:38.369Z</time></trkpt><trkpt lat="45.765155" lon="9.6107867"><ele>306.0</ele><time>2026-05-03T10:32:39.37Z</time></trkpt><trkpt lat="45.765005" lon="9.610525"><ele>307.0</ele><time>2026-05-03T10:32:40.371Z</time></trkpt><trkpt lat="45.7648267" lon="9.610245"><ele>308.0</ele><time>2026-05-03T10:32:41.369Z</time></trkpt><trkpt lat="45.7646417" lon="9.60995"><ele>308.0</ele><time>2026-05-03T10:32:42.371Z</time></trkpt><trkpt lat="45.7644533" lon="9.6096517"><ele>308.0</ele><time>2026-05-03T10:32:43.37Z</time></trkpt><trkpt lat="45.7642633" lon="9.6093583"><ele>312.5</ele><time>2026-05-03T10:32:44.369Z</time></trkpt><trkpt lat="45.7640817" lon="9.6090817"><ele>317.0</ele><time>2026-05-03T10:32:45.37Z</time></trkpt><trkpt lat="45.7639117" lon="9.6088167"><ele>310.5</ele><time>2026-05-03T10:32:46.37Z</time></trkpt><trkpt lat="45.7637517" lon="9.6085633"><ele>304.0</ele><time>2026-05-03T10:32:47.37Z</time></trkpt><trkpt lat="45.7635983" lon="9.6083217"><ele>319.0</ele><time>2026-05-03T10:32:48.371Z</time></trkpt><trkpt lat="45.763445" lon="9.6080783"><ele>334.0</ele><time>2026-05-03T10:32:49.371Z</time></trkpt><trkpt lat="45.7633" lon="9.607835"><ele>324.66666666666663</ele><time>2026-05-03T10:32:50.373Z</time></trkpt><trkpt lat="45.7631767" lon="9.60758"><ele>315.3333333333333</ele><time>2026-05-03T10:32:51.369Z</time></trkpt><trkpt lat="45.7630617" lon="9.6073133"><ele>306.0</ele><time>2026-05-03T10:32:52.373Z</time></trkpt><trkpt lat="45.7629483" lon="9.6070333"><ele>298.6666666666667</ele><time>2026-05-03T10:32:53.372Z</time></trkpt><trkpt lat="45.76283" lon="9.60677"><ele>291.33333333333337</ele><time>2026-05-03T10:32:54.372Z</time></trkpt><trkpt lat="45.7627083" lon="9.6065217"><ele>284.0</ele><time>2026-05-03T10:32:55.373Z</time></trkpt><trkpt lat="45.762585" lon="9.6062917"><ele>288.33333333333337</ele><time>2026-05-03T10:32:56.37Z</time></trkpt><trkpt lat="45.762455" lon="9.606085"><ele>292.6666666666667</ele><time>2026-05-03T10:32:57.374Z</time></trkpt><trkpt lat="45.7623167" lon="9.6059067"><ele>297.0</ele><time>2026-05-03T10:32:58.37Z</time></trkpt><trkpt lat="45.762185" lon="9.60575"><ele>297.0</ele><time>2026-05-03T10:32:59.37Z</time></trkpt><trkpt lat="45.7620533" lon="9.60562"><ele>297.0</ele><time>2026-05-03T10:33:00.374Z</time></trkpt><trkpt lat="45.76193" lon="9.6055233"><ele>297.0</ele><time>2026-05-03T10:33:01.369Z</time></trkpt><trkpt lat="45.7618117" lon="9.6054667"><ele>297.0</ele><time>2026-05-03T10:33:02.37Z</time></trkpt><trkpt lat="45.761695" lon="9.6054517"><ele>301.5</ele><time>2026-05-03T10:33:03.37Z</time></trkpt><trkpt lat="45.76158" lon="9.60548"><ele>306.0</ele><time>2026-05-03T10:33:04.37Z</time></trkpt><trkpt lat="45.761465" lon="9.6055267"><ele>310.5</ele><time>2026-05-03T10:33:05.371Z</time></trkpt><trkpt lat="45.761345" lon="9.605595"><ele>315.0</ele><time>2026-05-03T10:33:06.369Z</time></trkpt><trkpt lat="45.7612233" lon="9.6056617"><ele>315.0</ele><time>2026-05-03T10:33:07.369Z</time></trkpt><trkpt lat="45.7611267" lon="9.6057283"><ele>315.0</ele><time>2026-05-03T10:33:08.369Z</time></trkpt><trkpt lat="45.7610433" lon="9.60578"><ele>315.0</ele><time>2026-05-03T10:33:09.37Z</time></trkpt><trkpt lat="45.7609583" lon="9.605845"><ele>315.0</ele><time>2026-05-03T10:33:10.369Z</time></trkpt><trkpt lat="45.7608583" lon="9.6059467"><ele>315.0</ele><time>2026-05-03T10:33:11.369Z</time></trkpt><trkpt lat="45.7607483" lon="9.6061133"><ele>316.6666666666667</ele><time>2026-05-03T10:33:12.369Z</time></trkpt><trkpt lat="45.7606283" lon="9.6063317"><ele>318.33333333333337</ele><time>2026-05-03T10:33:13.369Z</time></trkpt><trkpt lat="45.7605133" lon="9.6065883"><ele>320.0</ele><time>2026-05-03T10:33:14.373Z</time></trkpt><trkpt lat="45.7603917" lon="9.6068583"><ele>306.5</ele><time>2026-05-03T10:33:15.37Z</time></trkpt><trkpt lat="45.7602733" lon="9.6071383"><ele>293.0</ele><time>2026-05-03T10:33:16.368Z</time></trkpt><trkpt lat="45.7601433" lon="9.6074233"><ele>293.0</ele><time>2026-05-03T10:33:17.372Z</time></trkpt><trkpt lat="45.7600117" lon="9.6077017"><ele>293.0</ele><time>2026-05-03T10:33:18.371Z</time></trkpt><trkpt lat="45.75987" lon="9.6079567"><ele>306.0</ele><time>2026-05-03T10:33:19.373Z</time></trkpt><trkpt lat="45.7597117" lon="9.6082"><ele>319.0</ele><time>2026-05-03T10:33:20.371Z</time></trkpt><trkpt lat="45.7595417" lon="9.6084217"><ele>314.0</ele><time>2026-05-03T10:33:21.373Z</time></trkpt><trkpt lat="45.759355" lon="9.6086167"><ele>309.0</ele><time>2026-05-03T10:33:22.368Z</time></trkpt><trkpt lat="45.7591617" lon="9.6087783"><ele>309.0</ele><time>2026-05-03T10:33:23.372Z</time></trkpt><trkpt lat="45.758955" lon="9.6089117"><ele>309.0</ele><time>2026-05-03T10:33:24.369Z</time></trkpt><trkpt lat="45.7587417" lon="9.609015"><ele>298.0</ele><time>2026-05-03T10:33:25.369Z</time></trkpt><trkpt lat="45.7585167" lon="9.6090833"><ele>287.0</ele><time>2026-05-03T10:33:26.371Z</time></trkpt><trkpt lat="45.7582833" lon="9.6091367"><ele>287.0</ele><time>2026-05-03T10:33:27.372Z</time></trkpt><trkpt lat="45.7580467" lon="9.6091867"><ele>287.0</ele><time>2026-05-03T10:33:28.369Z</time></trkpt><trkpt lat="45.7578183" lon="9.60924"><ele>283.0</ele><time>2026-05-03T10:33:29.369Z</time></trkpt><trkpt lat="45.757605" lon="9.6093033"><ele>279.0</ele><time>2026-05-03T10:33:30.369Z</time></trkpt><trkpt lat="45.7574133" lon="9.6093783"><ele>275.0</ele><time>2026-05-03T10:33:31.371Z</time></trkpt><trkpt lat="45.75724" lon="9.6094733"><ele>280.6666666666667</ele><time>2026-05-03T10:33:32.369Z</time></trkpt><trkpt lat="45.75708" lon="9.6095833"><ele>286.3333333333333</ele><time>2026-05-03T10:33:33.37Z</time></trkpt><trkpt lat="45.7569267" lon="9.6097033"><ele>292.0</ele><time>2026-05-03T10:33:34.368Z</time></trkpt><trkpt lat="45.7567767" lon="9.6098383"><ele>292.0</ele><time>2026-05-03T10:33:35.369Z</time></trkpt><trkpt lat="45.7566267" lon="9.609975"><ele>292.0</ele><time>2026-05-03T10:33:36.37Z</time></trkpt><trkpt lat="45.756485" lon="9.6101067"><ele>292.0</ele><time>2026-05-03T10:33:37.369Z</time></trkpt><trkpt lat="45.7563467" lon="9.61024"><ele>291.0</ele><time>2026-05-03T10:33:38.37Z</time></trkpt><trkpt lat="45.756195" lon="9.6103733"><ele>290.0</ele><time>2026-05-03T10:33:39.369Z</time></trkpt><trkpt lat="45.7560167" lon="9.6105017"><ele>289.0</ele><time>2026-05-03T10:33:40.369Z</time></trkpt><trkpt lat="45.7558217" lon="9.6106083"><ele>289.0</ele><time>2026-05-03T10:33:41.369Z</time></trkpt><trkpt lat="45.7556233" lon="9.61069"><ele>289.0</ele><time>2026-05-03T10:33:42.373Z</time></trkpt><trkpt lat="45.755415" lon="9.61075"><ele>289.0</ele><time>2026-05-03T10:33:43.369Z</time></trkpt><trkpt lat="45.75521" lon="9.6108017"><ele>287.3333333333333</ele><time>2026-05-03T10:33:44.373Z</time></trkpt><trkpt lat="45.7550133" lon="9.610845"><ele>285.6666666666667</ele><time>2026-05-03T10:33:45.368Z</time></trkpt><trkpt lat="45.754835" lon="9.61089"><ele>284.0</ele><time>2026-05-03T10:33:46.369Z</time></trkpt><trkpt lat="45.7546583" lon="9.6109317"><ele>284.0</ele><time>2026-05-03T10:33:47.369Z</time></trkpt><trkpt lat="45.754475" lon="9.6109583"><ele>284.0</ele><time>2026-05-03T10:33:48.369Z</time></trkpt><trkpt lat="45.7542883" lon="9.6109867"><ele>284.0</ele><time>2026-05-03T10:33:49.369Z</time></trkpt><trkpt lat="45.754095" lon="9.6109933"><ele>285.0</ele><time>2026-05-03T10:33:50.369Z</time></trkpt><trkpt lat="45.7539017" lon="9.6109767"><ele>286.0</ele><time>2026-05-03T10:33:51.369Z</time></trkpt><trkpt lat="45.7537133" lon="9.6109433"><ele>287.0</ele><time>2026-05-03T10:33:52.368Z</time></trkpt><trkpt lat="45.7535333" lon="9.610905"><ele>288.0</ele><time>2026-05-03T10:33:53.369Z</time></trkpt><trkpt lat="45.7533517" lon="9.6108883"><ele>289.0</ele><time>2026-05-03T10:33:54.372Z</time></trkpt><trkpt lat="45.7531667" lon="9.610895"><ele>290.0</ele><time>2026-05-03T10:33:55.369Z</time></trkpt><trkpt lat="45.7529783" lon="9.6109317"><ele>290.0</ele><time>2026-05-03T10:33:56.372Z</time></trkpt><trkpt lat="45.7527867" lon="9.6109883"><ele>290.0</ele><time>2026-05-03T10:33:57.373Z</time></trkpt><trkpt lat="45.7525983" lon="9.6110617"><ele>290.0</ele><time>2026-05-03T10:33:58.369Z</time></trkpt><trkpt lat="45.7524083" lon="9.6111417"><ele>290.0</ele><time>2026-05-03T10:33:59.369Z</time></trkpt><trkpt lat="45.7522183" lon="9.6112233"><ele>290.0</ele><time>2026-05-03T10:34:00.369Z</time></trkpt><trkpt lat="45.7520333" lon="9.6113067"><ele>290.0</ele><time>2026-05-03T10:34:01.369Z</time></trkpt><trkpt lat="45.75186" lon="9.6113867"><ele>290.0</ele><time>2026-05-03T10:34:02.368Z</time></trkpt><trkpt lat="45.7516983" lon="9.61146"><ele>290.0</ele><time>2026-05-03T10:34:03.37Z</time></trkpt><trkpt lat="45.75155" lon="9.6115333"><ele>290.0</ele><time>2026-05-03T10:34:04.37Z</time></trkpt><trkpt lat="45.7514" lon="9.611605"><ele>290.0</ele><time>2026-05-03T10:34:05.37Z</time></trkpt><trkpt lat="45.7512533" lon="9.61167"><ele>290.0</ele><time>2026-05-03T10:34:06.369Z</time></trkpt><trkpt lat="45.7511217" lon="9.6117317"><ele>290.0</ele><time>2026-05-03T10:34:07.37Z</time></trkpt><trkpt lat="45.7510017" lon="9.611785"><ele>290.0</ele><time>2026-05-03T10:34:08.369Z</time></trkpt><trkpt lat="45.750895" lon="9.6118317"><ele>289.6</ele><time>2026-05-03T10:34:09.37Z</time></trkpt><trkpt lat="45.750795" lon="9.6118783"><ele>289.2</ele><time>2026-05-03T10:34:10.373Z</time></trkpt><trkpt lat="45.7507017" lon="9.6119217"><ele>288.8</ele><time>2026-05-03T10:34:11.369Z</time></trkpt><trkpt lat="45.7506117" lon="9.611965"><ele>288.4</ele><time>2026-05-03T10:34:12.369Z</time></trkpt><trkpt lat="45.7505167" lon="9.6120083"><ele>288.0</ele><time>2026-05-03T10:34:13.369Z</time></trkpt><trkpt lat="45.7504167" lon="9.612055"><ele>288.8</ele><time>2026-05-03T10:34:14.37Z</time></trkpt><trkpt lat="45.7503133" lon="9.6121"><ele>289.6</ele><time>2026-05-03T10:34:15.373Z</time></trkpt><trkpt lat="45.7502083" lon="9.612145"><ele>290.4</ele><time>2026-05-03T10:34:16.368Z</time></trkpt><trkpt lat="45.7501017" lon="9.61219"><ele>291.2</ele><time>2026-05-03T10:34:17.372Z</time></trkpt><trkpt lat="45.7499917" lon="9.6122383"><ele>292.0</ele><time>2026-05-03T10:34:18.371Z</time></trkpt><trkpt lat="45.7498783" lon="9.6122883"><ele>292.5</ele><time>2026-05-03T10:34:19.372Z</time></trkpt><trkpt lat="45.749765" lon="9.6123483"><ele>293.0</ele><time>2026-05-03T10:34:20.371Z</time></trkpt><trkpt lat="45.74965" lon="9.612405"><ele>293.5</ele><time>2026-05-03T10:34:21.37Z</time></trkpt><trkpt lat="45.7495417" lon="9.6124633"><ele>294.0</ele><time>2026-05-03T10:34:22.37Z</time></trkpt><trkpt lat="45.7494417" lon="9.6125167"><ele>293.8333333333333</ele><time>2026-05-03T10:34:23.37Z</time></trkpt><trkpt lat="45.7493583" lon="9.6125633"><ele>293.6666666666667</ele><time>2026-05-03T10:34:24.373Z</time></trkpt><trkpt lat="45.7492833" lon="9.6126017"><ele>293.5</ele><time>2026-05-03T10:34:25.373Z</time></trkpt><trkpt lat="45.74922" lon="9.6126467"><ele>293.33333333333337</ele><time>2026-05-03T10:34:26.369Z</time></trkpt><trkpt lat="45.749165" lon="9.6126917"><ele>293.1666666666667</ele><time>2026-05-03T10:34:27.372Z</time></trkpt><trkpt lat="45.7491017" lon="9.6127333"><ele>293.0</ele><time>2026-05-03T10:34:28.373Z</time></trkpt><trkpt lat="45.74902" lon="9.6127867"><ele>293.5</ele><time>2026-05-03T10:34:29.373Z</time></trkpt><trkpt lat="45.7489167" lon="9.6128533"><ele>294.0</ele><time>2026-05-03T10:34:30.372Z</time></trkpt><trkpt lat="45.7488083" lon="9.6129217"><ele>294.5</ele><time>2026-05-03T10:34:31.373Z</time></trkpt><trkpt lat="45.748705" lon="9.6129833"><ele>295.0</ele><time>2026-05-03T10:34:32.368Z</time></trkpt><trkpt lat="45.7485967" lon="9.6130483"><ele>294.25</ele><time>2026-05-03T10:34:33.37Z</time></trkpt><trkpt lat="45.748475" lon="9.61312"><ele>293.5</ele><time>2026-05-03T10:34:34.371Z</time></trkpt><trkpt lat="45.7483433" lon="9.6131967"><ele>292.75</ele><time>2026-05-03T10:34:35.37Z</time></trkpt><trkpt lat="45.7481967" lon="9.613285"><ele>292.0</ele><time>2026-05-03T10:34:36.369Z</time></trkpt><trkpt lat="45.7480333" lon="9.613385"><ele>292.0</ele><time>2026-05-03T10:34:37.371Z</time></trkpt><trkpt lat="45.7478683" lon="9.61349"><ele>292.0</ele><time>2026-05-03T10:34:38.369Z</time></trkpt><trkpt lat="45.7477117" lon="9.61359"><ele>292.0</ele><time>2026-05-03T10:34:39.371Z</time></trkpt><trkpt lat="45.74756" lon="9.6136717"><ele>292.25</ele><time>2026-05-03T10:34:40.369Z</time></trkpt><trkpt lat="45.74742" lon="9.6137483"><ele>292.5</ele><time>2026-05-03T10:34:41.373Z</time></trkpt><trkpt lat="45.7472933" lon="9.6137983"><ele>292.75</ele><time>2026-05-03T10:34:42.371Z</time></trkpt><trkpt lat="45.747185" lon="9.61379"><ele>293.0</ele><time>2026-05-03T10:34:43.37Z</time></trkpt><trkpt lat="45.74708" lon="9.61374"><ele>293.0</ele><time>2026-05-03T10:34:44.37Z</time></trkpt><trkpt lat="45.7469617" lon="9.6136733"><ele>293.0</ele><time>2026-05-03T10:34:45.37Z</time></trkpt><trkpt lat="45.7468367" lon="9.6136267"><ele>293.0</ele><time>2026-05-03T10:34:46.373Z</time></trkpt><trkpt lat="45.7467017" lon="9.61359"><ele>293.0</ele><time>2026-05-03T10:34:47.373Z</time></trkpt><trkpt lat="45.7465617" lon="9.6135267"><ele>292.0</ele><time>2026-05-03T10:34:48.37Z</time></trkpt><trkpt lat="45.74641" lon="9.613415"><ele>291.0</ele><time>2026-05-03T10:34:49.369Z</time></trkpt><trkpt lat="45.7462483" lon="9.6132483"><ele>290.0</ele><time>2026-05-03T10:34:50.369Z</time></trkpt><trkpt lat="45.746075" lon="9.61305"><ele>290.0</ele><time>2026-05-03T10:34:51.369Z</time></trkpt><trkpt lat="45.7458817" lon="9.6128367"><ele>290.0</ele><time>2026-05-03T10:34:52.369Z</time></trkpt><trkpt lat="45.74568" lon="9.6126267"><ele>289.5</ele><time>2026-05-03T10:34:53.37Z</time></trkpt><trkpt lat="45.7454667" lon="9.6124267"><ele>289.0</ele><time>2026-05-03T10:34:54.373Z</time></trkpt><trkpt lat="45.7452567" lon="9.612245"><ele>289.0</ele><time>2026-05-03T10:34:55.373Z</time></trkpt><trkpt lat="45.7450483" lon="9.6120717"><ele>289.0</ele><time>2026-05-03T10:34:56.373Z</time></trkpt><trkpt lat="45.7448383" lon="9.6119133"><ele>288.0</ele><time>2026-05-03T10:34:57.373Z</time></trkpt><trkpt lat="45.7446267" lon="9.611765"><ele>287.0</ele><time>2026-05-03T10:34:58.37Z</time></trkpt><trkpt lat="45.7444183" lon="9.6116317"><ele>286.33333333333337</ele><time>2026-05-03T10:34:59.37Z</time></trkpt><trkpt lat="45.7442133" lon="9.6115083"><ele>285.6666666666667</ele><time>2026-05-03T10:35:00.37Z</time></trkpt><trkpt lat="45.7440167" lon="9.6113967"><ele>285.0</ele><time>2026-05-03T10:35:01.369Z</time></trkpt><trkpt lat="45.7438267" lon="9.6112833"><ele>285.0</ele><time>2026-05-03T10:35:02.37Z</time></trkpt><trkpt lat="45.743645" lon="9.6111767"><ele>285.0</ele><time>2026-05-03T10:35:03.37Z</time></trkpt><trkpt lat="45.743465" lon="9.6110733"><ele>285.0</ele><time>2026-05-03T10:35:04.37Z</time></trkpt><trkpt lat="45.743295" lon="9.6109767"><ele>284.3333333333333</ele><time>2026-05-03T10:35:05.372Z</time></trkpt><trkpt lat="45.7431317" lon="9.6108867"><ele>283.66666666666663</ele><time>2026-05-03T10:35:06.37Z</time></trkpt><trkpt lat="45.7429783" lon="9.6108017"><ele>283.0</ele><time>2026-05-03T10:35:07.369Z</time></trkpt><trkpt lat="45.74284" lon="9.6107233"><ele>283.0</ele><time>2026-05-03T10:35:08.371Z</time></trkpt><trkpt lat="45.7427217" lon="9.6106517"><ele>283.0</ele><time>2026-05-03T10:35:09.369Z</time></trkpt><trkpt lat="45.7426267" lon="9.610595"><ele>283.0</ele><time>2026-05-03T10:35:10.37Z</time></trkpt><trkpt lat="45.742545" lon="9.610545"><ele>283.0</ele><time>2026-05-03T10:35:11.37Z</time></trkpt><trkpt lat="45.7424717" lon="9.6104883"><ele>283.0</ele><time>2026-05-03T10:35:12.369Z</time></trkpt><trkpt lat="45.74241" lon="9.6104333"><ele>282.6</ele><time>2026-05-03T10:35:13.369Z</time></trkpt><trkpt lat="45.74232" lon="9.6103133"><ele>282.20000000000005</ele><time>2026-05-03T10:35:15.369Z</time></trkpt><trkpt lat="45.74228" lon="9.6102333"><ele>281.8</ele><time>2026-05-03T10:35:16.369Z</time></trkpt><trkpt lat="45.7422317" lon="9.6101617"><ele>281.40000000000003</ele><time>2026-05-03T10:35:17.371Z</time></trkpt><trkpt lat="45.7421767" lon="9.61011"><ele>281.0</ele><time>2026-05-03T10:35:18.369Z</time></trkpt><trkpt lat="45.7420417" lon="9.6100867"><ele>281.0</ele><time>2026-05-03T10:35:20.37Z</time></trkpt><trkpt lat="45.7419483" lon="9.6101117"><ele>281.0</ele><time>2026-05-03T10:35:21.372Z</time></trkpt><trkpt lat="45.7418483" lon="9.610125"><ele>281.0</ele><time>2026-05-03T10:35:22.371Z</time></trkpt><trkpt lat="45.7417033" lon="9.6101083"><ele>281.0</ele><time>2026-05-03T10:35:23.37Z</time></trkpt><trkpt lat="45.74154" lon="9.61007"><ele>282.33333333333337</ele><time>2026-05-03T10:35:24.377Z</time></trkpt><trkpt lat="45.7413867" lon="9.61002"><ele>283.6666666666667</ele><time>2026-05-03T10:35:25.372Z</time></trkpt><trkpt lat="45.7412467" lon="9.6099683"><ele>285.0</ele><time>2026-05-03T10:35:26.372Z</time></trkpt><trkpt lat="45.7410983" lon="9.6099067"><ele>285.0</ele><time>2026-05-03T10:35:27.372Z</time></trkpt><trkpt lat="45.7409367" lon="9.6098417"><ele>285.0</ele><time>2026-05-03T10:35:28.373Z</time></trkpt><trkpt lat="45.7407733" lon="9.6097767"><ele>285.0</ele><time>2026-05-03T10:35:29.369Z</time></trkpt><trkpt lat="45.740615" lon="9.60972"><ele>285.0</ele><time>2026-05-03T10:35:30.371Z</time></trkpt><trkpt lat="45.7404617" lon="9.6096583"><ele>285.0</ele><time>2026-05-03T10:35:31.37Z</time></trkpt><trkpt lat="45.7403133" lon="9.6096"><ele>285.0</ele><time>2026-05-03T10:35:32.372Z</time></trkpt><trkpt lat="45.7401683" lon="9.6095467"><ele>284.0</ele><time>2026-05-03T10:35:33.369Z</time></trkpt><trkpt lat="45.740025" lon="9.60949"><ele>283.0</ele><time>2026-05-03T10:35:34.369Z</time></trkpt><trkpt lat="45.73988" lon="9.609435"><ele>282.0</ele><time>2026-05-03T10:35:35.37Z</time></trkpt><trkpt lat="45.7397333" lon="9.6093783"><ele>282.0</ele><time>2026-05-03T10:35:36.369Z</time></trkpt><trkpt lat="45.7395733" lon="9.6093233"><ele>282.0</ele><time>2026-05-03T10:35:37.369Z</time></trkpt><trkpt lat="45.7393833" lon="9.60926"><ele>282.0</ele><time>2026-05-03T10:35:38.37Z</time></trkpt><trkpt lat="45.739185" lon="9.609185"><ele>282.3333333333333</ele><time>2026-05-03T10:35:39.371Z</time></trkpt><trkpt lat="45.7389783" lon="9.609095"><ele>282.66666666666663</ele><time>2026-05-03T10:35:40.37Z</time></trkpt><trkpt lat="45.738775" lon="9.6090133"><ele>283.0</ele><time>2026-05-03T10:35:41.37Z</time></trkpt><trkpt lat="45.7385733" lon="9.608935"><ele>283.0</ele><time>2026-05-03T10:35:42.37Z</time></trkpt><trkpt lat="45.7383783" lon="9.60886"><ele>283.0</ele><time>2026-05-03T10:35:43.369Z</time></trkpt><trkpt lat="45.7381883" lon="9.6087883"><ele>283.0</ele><time>2026-05-03T10:35:44.37Z</time></trkpt><trkpt lat="45.7380017" lon="9.60872"><ele>283.0</ele><time>2026-05-03T10:35:45.369Z</time></trkpt><trkpt lat="45.7378183" lon="9.6086567"><ele>283.0</ele><time>2026-05-03T10:35:46.373Z</time></trkpt><trkpt lat="45.7376333" lon="9.608605"><ele>283.0</ele><time>2026-05-03T10:35:47.369Z</time></trkpt><trkpt lat="45.7374467" lon="9.6085667"><ele>283.0</ele><time>2026-05-03T10:35:48.372Z</time></trkpt><trkpt lat="45.7372567" lon="9.6085383"><ele>283.0</ele><time>2026-05-03T10:35:49.371Z</time></trkpt><trkpt lat="45.7370683" lon="9.6085233"><ele>283.0</ele><time>2026-05-03T10:35:50.371Z</time></trkpt><trkpt lat="45.7368783" lon="9.6085183"><ele>282.66666666666663</ele><time>2026-05-03T10:35:51.373Z</time></trkpt><trkpt lat="45.73669" lon="9.6085183"><ele>282.3333333333333</ele><time>2026-05-03T10:35:52.371Z</time></trkpt><trkpt lat="45.7365133" lon="9.6085333"><ele>282.0</ele><time>2026-05-03T10:35:53.372Z</time></trkpt><trkpt lat="45.7363483" lon="9.6085483"><ele>282.0</ele><time>2026-05-03T10:35:54.373Z</time></trkpt><trkpt lat="45.7361883" lon="9.6085717"><ele>282.0</ele><time>2026-05-03T10:35:55.372Z</time></trkpt><trkpt lat="45.736025" lon="9.6086067"><ele>282.0</ele><time>2026-05-03T10:35:56.374Z</time></trkpt><trkpt lat="45.7358567" lon="9.60864"><ele>281.6666666666667</ele><time>2026-05-03T10:35:57.374Z</time></trkpt><trkpt lat="45.7356917" lon="9.60867"><ele>281.33333333333337</ele><time>2026-05-03T10:35:58.373Z</time></trkpt><trkpt lat="45.7355333" lon="9.6087"><ele>281.0</ele><time>2026-05-03T10:35:59.371Z</time></trkpt><trkpt lat="45.7353833" lon="9.608725"><ele>281.0</ele><time>2026-05-03T10:36:00.371Z</time></trkpt><trkpt lat="45.7352383" lon="9.60875"><ele>281.0</ele><time>2026-05-03T10:36:01.371Z</time></trkpt><trkpt lat="45.7350933" lon="9.60878"><ele>281.0</ele><time>2026-05-03T10:36:02.373Z</time></trkpt><trkpt lat="45.7349483" lon="9.6088083"><ele>281.0</ele><time>2026-05-03T10:36:03.373Z</time></trkpt><trkpt lat="45.7347983" lon="9.6088317"><ele>281.0</ele><time>2026-05-03T10:36:04.369Z</time></trkpt><trkpt lat="45.734645" lon="9.6088567"><ele>281.0</ele><time>2026-05-03T10:36:05.37Z</time></trkpt><trkpt lat="45.7344883" lon="9.6088867"><ele>281.0</ele><time>2026-05-03T10:36:06.371Z</time></trkpt><trkpt lat="45.7343283" lon="9.6089183"><ele>281.0</ele><time>2026-05-03T10:36:07.37Z</time></trkpt><trkpt lat="45.7341533" lon="9.608955"><ele>281.0</ele><time>2026-05-03T10:36:08.37Z</time></trkpt><trkpt lat="45.7339617" lon="9.6089933"><ele>281.0</ele><time>2026-05-03T10:36:09.371Z</time></trkpt><trkpt lat="45.733765" lon="9.6090267"><ele>281.0</ele><time>2026-05-03T10:36:10.37Z</time></trkpt><trkpt lat="45.73358" lon="9.60905"><ele>281.0</ele><time>2026-05-03T10:36:11.37Z</time></trkpt><trkpt lat="45.7334033" lon="9.6090683"><ele>281.0</ele><time>2026-05-03T10:36:12.372Z</time></trkpt><trkpt lat="45.733225" lon="9.60908"><ele>280.33333333333337</ele><time>2026-05-03T10:36:13.372Z</time></trkpt><trkpt lat="45.7330433" lon="9.6090917"><ele>279.6666666666667</ele><time>2026-05-03T10:36:14.369Z</time></trkpt><trkpt lat="45.7328617" lon="9.6091"><ele>279.0</ele><time>2026-05-03T10:36:15.371Z</time></trkpt><trkpt lat="45.73267" lon="9.6091033"><ele>278.6666666666667</ele><time>2026-05-03T10:36:16.37Z</time></trkpt><trkpt lat="45.7324783" lon="9.6090967"><ele>278.33333333333337</ele><time>2026-05-03T10:36:17.37Z</time></trkpt><trkpt lat="45.7322933" lon="9.60909"><ele>278.0</ele><time>2026-05-03T10:36:18.371Z</time></trkpt><trkpt lat="45.7321083" lon="9.6090867"><ele>278.0</ele><time>2026-05-03T10:36:19.37Z</time></trkpt><trkpt lat="45.7319233" lon="9.609085"><ele>278.0</ele><time>2026-05-03T10:36:20.371Z</time></trkpt><trkpt lat="45.7317283" lon="9.6090833"><ele>278.0</ele><time>2026-05-03T10:36:21.371Z</time></trkpt><trkpt lat="45.73151" lon="9.60908"><ele>277.0</ele><time>2026-05-03T10:36:22.37Z</time></trkpt><trkpt lat="45.7312767" lon="9.6090683"><ele>276.0</ele><time>2026-05-03T10:36:23.372Z</time></trkpt><trkpt lat="45.7310433" lon="9.60905"><ele>276.0</ele><time>2026-05-03T10:36:24.374Z</time></trkpt><trkpt lat="45.7308083" lon="9.6090383"><ele>276.0</ele><time>2026-05-03T10:36:25.373Z</time></trkpt><trkpt lat="45.7305733" lon="9.60903"><ele>276.0</ele><time>2026-05-03T10:36:26.373Z</time></trkpt><trkpt lat="45.7303433" lon="9.609025"><ele>276.0</ele><time>2026-05-03T10:36:27.374Z</time></trkpt><trkpt lat="45.730115" lon="9.60902"><ele>275.6666666666667</ele><time>2026-05-03T10:36:28.373Z</time></trkpt><trkpt lat="45.72989" lon="9.6090133"><ele>275.33333333333337</ele><time>2026-05-03T10:36:29.372Z</time></trkpt><trkpt lat="45.7296667" lon="9.6090033"><ele>275.0</ele><time>2026-05-03T10:36:30.373Z</time></trkpt><trkpt lat="45.7294467" lon="9.6089917"><ele>275.0</ele><time>2026-05-03T10:36:31.372Z</time></trkpt><trkpt lat="45.7292283" lon="9.6089817"><ele>275.0</ele><time>2026-05-03T10:36:32.372Z</time></trkpt><trkpt lat="45.72901" lon="9.6089717"><ele>275.0</ele><time>2026-05-03T10:36:33.37Z</time></trkpt><trkpt lat="45.7287933" lon="9.608965"><ele>275.0</ele><time>2026-05-03T10:36:34.369Z</time></trkpt><trkpt lat="45.7285767" lon="9.6089583"><ele>275.0</ele><time>2026-05-03T10:36:35.371Z</time></trkpt><trkpt lat="45.7283583" lon="9.6089483"><ele>275.0</ele><time>2026-05-03T10:36:36.373Z</time></trkpt><trkpt lat="45.7281417" lon="9.6089367"><ele>274.6666666666667</ele><time>2026-05-03T10:36:37.372Z</time></trkpt><trkpt lat="45.7279317" lon="9.6089317"><ele>274.3333333333333</ele><time>2026-05-03T10:36:38.37Z</time></trkpt><trkpt lat="45.72773" lon="9.6089267"><ele>274.0</ele><time>2026-05-03T10:36:39.37Z</time></trkpt><trkpt lat="45.72754" lon="9.60892"><ele>273.66666666666663</ele><time>2026-05-03T10:36:40.372Z</time></trkpt><trkpt lat="45.7273633" lon="9.6089133"><ele>273.3333333333333</ele><time>2026-05-03T10:36:41.374Z</time></trkpt><trkpt lat="45.7272117" lon="9.6088967"><ele>273.0</ele><time>2026-05-03T10:36:42.369Z</time></trkpt><trkpt lat="45.7270833" lon="9.6088667"><ele>273.0</ele><time>2026-05-03T10:36:43.371Z</time></trkpt><trkpt lat="45.7269733" lon="9.608805"><ele>273.0</ele><time>2026-05-03T10:36:44.369Z</time></trkpt><trkpt lat="45.7269017" lon="9.60869"><ele>273.0</ele><time>2026-05-03T10:36:45.37Z</time></trkpt><trkpt lat="45.7268717" lon="9.6085267"><ele>273.0</ele><time>2026-05-03T10:36:46.374Z</time></trkpt><trkpt lat="45.7268767" lon="9.6083183"><ele>273.25</ele><time>2026-05-03T10:36:47.372Z</time></trkpt><trkpt lat="45.7268967" lon="9.608095"><ele>273.5</ele><time>2026-05-03T10:36:48.369Z</time></trkpt><trkpt lat="45.72692" lon="9.6078817"><ele>273.75</ele><time>2026-05-03T10:36:49.372Z</time></trkpt><trkpt lat="45.7269467" lon="9.6076867"><ele>274.0</ele><time>2026-05-03T10:36:50.369Z</time></trkpt><trkpt lat="45.7269733" lon="9.6075233"><ele>274.0</ele><time>2026-05-03T10:36:51.373Z</time></trkpt><trkpt lat="45.726995" lon="9.607395"><ele>274.0</ele><time>2026-05-03T10:36:52.374Z</time></trkpt><trkpt lat="45.727005" lon="9.6072783"><ele>274.0</ele><time>2026-05-03T10:36:53.371Z</time></trkpt><trkpt lat="45.727005" lon="9.6071833"><ele>274.0</ele><time>2026-05-03T10:36:54.371Z</time></trkpt><trkpt lat="45.7268967" lon="9.607075"><ele>274.0</ele><time>2026-05-03T10:36:56.374Z</time></trkpt><trkpt lat="45.72673" lon="9.6070917"><ele>273.3333333333333</ele><time>2026-05-03T10:36:57.372Z</time></trkpt><trkpt lat="45.7265767" lon="9.6070967"><ele>272.6666666666667</ele><time>2026-05-03T10:36:58.369Z</time></trkpt><trkpt lat="45.7264133" lon="9.6071117"><ele>272.0</ele><time>2026-05-03T10:36:59.37Z</time></trkpt><trkpt lat="45.72628" lon="9.607105"><ele>272.0</ele><time>2026-05-03T10:37:00.371Z</time></trkpt><trkpt lat="45.7261617" lon="9.6070933"><ele>272.0</ele><time>2026-05-03T10:37:01.371Z</time></trkpt><trkpt lat="45.7260417" lon="9.6070733"><ele>272.0</ele><time>2026-05-03T10:37:02.373Z</time></trkpt><trkpt lat="45.7258917" lon="9.6070467"><ele>272.0</ele><time>2026-05-03T10:37:03.37Z</time></trkpt><trkpt lat="45.72571" lon="9.6070133"><ele>271.33333333333337</ele><time>2026-05-03T10:37:04.371Z</time></trkpt><trkpt lat="45.725525" lon="9.60698"><ele>270.6666666666667</ele><time>2026-05-03T10:37:05.37Z</time></trkpt><trkpt lat="45.725345" lon="9.6069633"><ele>270.0</ele><time>2026-05-03T10:37:06.371Z</time></trkpt><trkpt lat="45.7251867" lon="9.6069567"><ele>270.0</ele><time>2026-05-03T10:37:07.37Z</time></trkpt><trkpt lat="45.7250533" lon="9.6069517"><ele>270.0</ele><time>2026-05-03T10:37:08.37Z</time></trkpt><trkpt lat="45.7249483" lon="9.606945"><ele>270.0</ele><time>2026-05-03T10:37:09.372Z</time></trkpt><trkpt lat="45.72486" lon="9.606925"><ele>270.0</ele><time>2026-05-03T10:37:10.369Z</time></trkpt><trkpt lat="45.7248017" lon="9.6068583"><ele>270.0</ele><time>2026-05-03T10:37:11.371Z</time></trkpt><trkpt lat="45.72477" lon="9.6067583"><ele>270.0</ele><time>2026-05-03T10:37:12.372Z</time></trkpt><trkpt lat="45.7247533" lon="9.6066383"><ele>270.0</ele><time>2026-05-03T10:37:13.371Z</time></trkpt><trkpt lat="45.72481" lon="9.6063983"><ele>270.0</ele><time>2026-05-03T10:37:14.371Z</time></trkpt><trkpt lat="45.7248667" lon="9.6061467"><ele>270.0</ele><time>2026-05-03T10:37:15.371Z</time></trkpt><trkpt lat="45.7249067" lon="9.6059117"><ele>269.0</ele><time>2026-05-03T10:37:16.374Z</time></trkpt><trkpt lat="45.7249417" lon="9.6056833"><ele>268.0</ele><time>2026-05-03T10:37:17.371Z</time></trkpt><trkpt lat="45.7249783" lon="9.60547"><ele>267.0</ele><time>2026-05-03T10:37:18.372Z</time></trkpt><trkpt lat="45.72502" lon="9.605275"><ele>267.0</ele><time>2026-05-03T10:37:19.371Z</time></trkpt><trkpt lat="45.7250467" lon="9.6051117"><ele>267.0</ele><time>2026-05-03T10:37:20.37Z</time></trkpt><trkpt lat="45.72507" lon="9.6049817"><ele>267.0</ele><time>2026-05-03T10:37:21.37Z</time></trkpt><trkpt lat="45.725095" lon="9.6048733"><ele>267.0</ele><time>2026-05-03T10:37:22.372Z</time></trkpt><trkpt lat="45.7251267" lon="9.60478"><ele>267.0</ele><time>2026-05-03T10:37:23.371Z</time></trkpt><trkpt lat="45.72514" lon="9.60462"><ele>267.0</ele><time>2026-05-03T10:37:25.374Z</time></trkpt><trkpt lat="45.72506" lon="9.6045633"><ele>267.0</ele><time>2026-05-03T10:37:27.374Z</time></trkpt><trkpt lat="45.724985" lon="9.60454"><ele>267.0</ele><time>2026-05-03T10:37:28.369Z</time></trkpt><trkpt lat="45.7248233" lon="9.604535"><ele>267.0</ele><time>2026-05-03T10:37:29.374Z</time></trkpt><trkpt lat="45.7246267" lon="9.6044967"><ele>268.0</ele><time>2026-05-03T10:37:30.369Z</time></trkpt><trkpt lat="45.7244683" lon="9.6044333"><ele>269.0</ele><time>2026-05-03T10:37:31.371Z</time></trkpt><trkpt lat="45.7243183" lon="9.6043567"><ele>270.0</ele><time>2026-05-03T10:37:32.37Z</time></trkpt><trkpt lat="45.7241683" lon="9.60428"><ele>270.0</ele><time>2026-05-03T10:37:33.371Z</time></trkpt><trkpt lat="45.7240233" lon="9.6041983"><ele>270.0</ele><time>2026-05-03T10:37:34.371Z</time></trkpt><trkpt lat="45.7238783" lon="9.6041117"><ele>270.0</ele><time>2026-05-03T10:37:35.372Z</time></trkpt><trkpt lat="45.72374" lon="9.6040283"><ele>270.0</ele><time>2026-05-03T10:37:36.372Z</time></trkpt><trkpt lat="45.7236117" lon="9.6039483"><ele>270.0</ele><time>2026-05-03T10:37:37.371Z</time></trkpt><trkpt lat="45.7235033" lon="9.603875"><ele>270.0</ele><time>2026-05-03T10:37:38.369Z</time></trkpt><trkpt lat="45.723415" lon="9.6037917"><ele>270.0</ele><time>2026-05-03T10:37:39.37Z</time></trkpt><trkpt lat="45.72334" lon="9.6036967"><ele>269.5</ele><time>2026-05-03T10:37:40.372Z</time></trkpt><trkpt lat="45.7232767" lon="9.6035683"><ele>269.0</ele><time>2026-05-03T10:37:41.372Z</time></trkpt><trkpt lat="45.72322" lon="9.6034033"><ele>268.5</ele><time>2026-05-03T10:37:42.372Z</time></trkpt><trkpt lat="45.72316" lon="9.6032183"><ele>268.0</ele><time>2026-05-03T10:37:43.371Z</time></trkpt><trkpt lat="45.7230917" lon="9.6030283"><ele>268.0</ele><time>2026-05-03T10:37:44.371Z</time></trkpt><trkpt lat="45.7230133" lon="9.6028533"><ele>268.0</ele><time>2026-05-03T10:37:45.371Z</time></trkpt><trkpt lat="45.7229283" lon="9.6026917"><ele>268.0</ele><time>2026-05-03T10:37:46.371Z</time></trkpt><trkpt lat="45.722835" lon="9.602545"><ele>268.0</ele><time>2026-05-03T10:37:47.37Z</time></trkpt><trkpt lat="45.7227433" lon="9.602405"><ele>267.5</ele><time>2026-05-03T10:37:48.371Z</time></trkpt><trkpt lat="45.7226517" lon="9.6022817"><ele>267.0</ele><time>2026-05-03T10:37:49.373Z</time></trkpt><trkpt lat="45.7225567" lon="9.6021833"><ele>266.5</ele><time>2026-05-03T10:37:50.374Z</time></trkpt><trkpt lat="45.722455" lon="9.602115"><ele>266.0</ele><time>2026-05-03T10:37:51.373Z</time></trkpt><trkpt lat="45.722345" lon="9.6020783"><ele>266.0</ele><time>2026-05-03T10:37:52.373Z</time></trkpt><trkpt lat="45.7222333" lon="9.6020567"><ele>266.0</ele><time>2026-05-03T10:37:53.373Z</time></trkpt><trkpt lat="45.7221217" lon="9.6020417"><ele>266.0</ele><time>2026-05-03T10:37:54.373Z</time></trkpt><trkpt lat="45.7220167" lon="9.6020367"><ele>266.0</ele><time>2026-05-03T10:37:55.373Z</time></trkpt><trkpt lat="45.7219217" lon="9.602045"><ele>266.0</ele><time>2026-05-03T10:37:56.369Z</time></trkpt><trkpt lat="45.72184" lon="9.602065"><ele>265.83333333333337</ele><time>2026-05-03T10:37:57.371Z</time></trkpt><trkpt lat="45.72177" lon="9.602085"><ele>265.6666666666667</ele><time>2026-05-03T10:37:58.374Z</time></trkpt><trkpt lat="45.7216817" lon="9.6021317"><ele>265.5</ele><time>2026-05-03T10:38:00.374Z</time></trkpt><trkpt lat="45.7216433" lon="9.6022667"><ele>265.3333333333333</ele><time>2026-05-03T10:38:03.37Z</time></trkpt><trkpt lat="45.72166" lon="9.6024333"><ele>265.16666666666663</ele><time>2026-05-03T10:38:05.37Z</time></trkpt><trkpt lat="45.7216733" lon="9.6025233"><ele>265.0</ele><time>2026-05-03T10:38:06.369Z</time></trkpt><trkpt lat="45.7216817" lon="9.60262"><ele>265.0</ele><time>2026-05-03T10:38:07.37Z</time></trkpt><trkpt lat="45.721695" lon="9.6027167"><ele>265.0</ele><time>2026-05-03T10:38:08.371Z</time></trkpt></trkseg></trk></gpx>